
Distance (Route):
Temperature : 0°C
Humidity : -1.0%
Pressure : -1.0hPa| Receiver | Frames | First received | Last received |
|---|---|---|---|
| BIOWL1-15 | 709 | 2026-09-02 16:59:35 | 2026-09-02 19:18:03 |
| DK7TD | 527 | 2026-09-02 17:29:34 | 2026-09-02 19:30:20 |
| DM0DOS-11 | 499 | 2026-09-02 17:02:29 | 2026-09-02 19:19:31 |
| DL1XH-west | 290 | 2026-09-02 18:05:10 | 2026-09-02 18:59:07 |
| DO3MHA-11 | 221 | 2026-09-02 17:13:39 | 2026-09-02 19:19:36 |
| DL1XH1-15 | 212 | 2026-09-02 18:06:28 | 2026-09-02 18:59:14 |
| DB0UT-7 | 143 | 2026-09-02 16:43:49 | 2026-09-02 19:33:39 |
| IW2NTF | 134 | 2026-09-02 18:01:12 | 2026-09-02 19:01:03 |
| DK5PH-5 | 120 | 2026-09-02 16:53:29 | 2026-09-02 19:35:12 |
| DB0UT-9 | 109 | 2026-09-02 16:37:56 | 2026-09-02 19:33:45 |
| DJ2DS-15 | 107 | 2026-09-02 17:37:53 | 2026-09-02 19:06:31 |
| HSKMA3-T | 102 | 2026-09-02 18:24:14 | 2026-09-02 18:55:48 |
| DB0ND-19 | 92 | 2026-09-02 16:47:33 | 2026-09-02 19:35:44 |
| DL1XH-15 | 92 | 2026-09-02 18:27:29 | 2026-09-02 18:54:11 |
| DL1ZP-14 | 90 | 2026-09-02 16:49:19 | 2026-09-02 19:07:05 |
| HEMX73-11 | 88 | 2026-09-02 16:48:14 | 2026-09-02 19:11:08 |
| DF7PN | 83 | 2026-09-02 16:49:51 | 2026-09-02 19:30:50 |
| HARRO8 | 83 | 2026-09-02 16:50:37 | 2026-09-02 19:30:41 |
| BIOWL9-15 | 75 | 2026-09-02 17:03:16 | 2026-09-02 19:17:46 |
| DF3TZ-5 | 67 | 2026-09-02 17:09:25 | 2026-09-02 20:22:25 |
| DL0LBS | 62 | 2026-09-02 17:06:13 | 2026-09-02 19:18:22 |
| CB1BUN | 60 | 2026-09-02 16:47:35 | 2026-09-02 19:16:22 |
| BIOWL7-15 | 57 | 2026-09-02 17:02:42 | 2026-09-02 19:00:07 |
| DM7RM-13 | 56 | 2026-09-02 17:08:36 | 2026-09-02 19:31:55 |
| NBG1-10 | 55 | 2026-09-02 17:06:51 | 2026-09-02 19:19:05 |
| DB0NH | 53 | 2026-09-02 16:59:20 | 2026-09-02 19:18:25 |
| DL8DAS-14 | 50 | 2026-09-02 17:16:31 | 2026-09-02 19:04:02 |
| DF2AP-13 | 48 | 2026-09-02 17:24:31 | 2026-09-02 19:11:04 |
| DN1GJH-1 | 45 | 2026-09-02 17:26:09 | 2026-09-02 19:17:24 |
| DD1CC8 | 42 | 2026-09-02 17:19:09 | 2026-09-02 19:00:37 |
| DL9PN | 41 | 2026-09-02 16:47:43 | 2026-09-02 18:22:59 |
| DL8DAS-15 | 38 | 2026-09-02 17:16:32 | 2026-09-02 19:02:39 |
| KANTATE | 37 | 2026-09-02 17:48:50 | 2026-09-02 19:34:37 |
| DF1GD-15 | 36 | 2026-09-02 17:24:10 | 2026-09-02 19:19:07 |
| DJ2KF-10 | 31 | 2026-09-02 18:01:31 | 2026-09-02 18:57:17 |
| DO1YAY-16 | 31 | 2026-09-02 18:07:45 | 2026-09-02 19:01:04 |
| DM3KS-11 | 27 | 2026-09-02 16:54:30 | 2026-09-02 17:34:52 |
| SFWM-10 | 27 | 2026-09-02 17:19:12 | 2026-09-02 19:19:37 |
| DL6DJ-15 | 26 | 2026-09-02 18:03:13 | 2026-09-02 18:56:33 |
| DL3AQ-11 | 26 | 2026-09-02 18:25:13 | 2026-09-02 18:53:14 |
| SONDE2-11 | 25 | 2026-09-02 18:12:31 | 2026-09-02 18:49:15 |
| DL4BBY-15 | 23 | 2026-09-02 17:51:22 | 2026-09-02 18:57:18 |
| AU51GT2 | 23 | 2026-09-02 18:01:19 | 2026-09-02 19:04:24 |
| DO8TBO-1 | 22 | 2026-09-02 18:01:37 | 2026-09-02 19:07:24 |
| DH7VM-15 | 18 | 2026-09-02 17:02:30 | 2026-09-02 19:32:09 |
| SONCRA | 18 | 2026-09-02 18:21:12 | 2026-09-02 18:52:15 |
| DJTTGO | 17 | 2026-09-02 17:55:12 | 2026-09-02 19:06:47 |
| EDDB2-12 | 13 | 2026-09-02 18:43:42 | 2026-09-02 18:57:39 |
| OE5DXL-15 | 10 | 2026-09-02 18:18:11 | 2026-09-02 18:29:33 |
| OE5DRO-10 | 9 | 2026-09-02 18:41:43 | 2026-09-02 18:52:45 |
| AZAK | 8 | 2026-09-02 19:16:34 | 2026-09-02 19:34:12 |
| EDDB2-11 | 7 | 2026-09-02 18:42:28 | 2026-09-02 18:57:28 |
| SSTOLZ84 | 5 | 2026-09-02 17:17:51 | 2026-09-02 18:43:45 |
| DO3DL | 4 | 2026-09-02 17:38:44 | 2026-09-02 19:11:03 |
| HTAHTA | 3 | 2026-09-02 18:16:49 | 2026-09-02 18:23:01 |
| PG1ADW-2 | 3 | 2026-09-02 18:44:13 | 2026-09-02 18:50:20 |
| DF8AY | 3 | 2026-09-02 18:51:19 | 2026-09-02 18:52:26 |
| HEMX73-6 | 2 | 2026-09-02 17:04:30 | 2026-09-02 18:42:48 |
| DO2KSM | 1 | 2026-09-02 18:27:43 | 2026-09-02 18:27:43 |
| DG1MJG | 1 | 2026-09-02 18:52:07 | 2026-09-02 18:52:07 |
| Receiver | Date | Latitude | Longitude | Direction | Speed | Altitude | Climb | Temperature | Humidity | Pressure | Voltage | Killtimer | Uptime | BKT | XDATA |
|---|---|---|---|---|---|---|---|---|---|---|---|---|---|---|---|
| DF3TZ-5 | 2026-09-02 20:22:25 | 48.89422 | 9.03196 | 161° | 0km/h | 355m | -0.1m/s | 0°C | -1.0% | -1.0hPa | 2.7V | 00:00:00 | 00:00:00 | 00:00:00 | |
| DF3TZ-5 | 2026-09-02 19:36:21 | 48.89434 | 9.03130 | 110° | 11km/h | 367m | -6.6m/s | 20.8°C | 49.7% | 983.4hPa | 2.7V | 00:00:00 | 00:00:00 | 00:00:00 | |
| DF3TZ-5 | 2026-09-02 19:35:50 | 48.89441 | 9.03108 | 118° | 16km/h | 391m | -6.6m/s | 21.1°C | 47.7% | 980.4hPa | 2.7V | 00:00:00 | 00:00:00 | 00:00:00 | |
| DB0ND-19 | 2026-09-02 19:35:44 | 48.89474 | 9.03039 | 125° | 20km/h | 466m | -6.3m/s | 21.2°C | 45.0% | 971.9hPa | 2.7V | 00:00:00 | 00:00:00 | 00:00:00 | |
| DF3TZ-5 | 2026-09-02 19:35:19 | 48.89538 | 9.02919 | 124° | 22km/h | 594m | -6.0m/s | 20.1°C | 46.9% | 958.2hPa | 2.7V | 00:00:00 | 00:00:00 | 00:00:00 | |
| DB0ND-19 | 2026-09-02 19:35:13 | 48.89558 | 9.02879 | 122° | 22km/h | 633m | -6.3m/s | 19.7°C | 47.9% | 953.8hPa | 2.7V | 00:00:00 | 00:00:00 | 00:00:00 | |
| DK5PH-5 | 2026-09-02 19:35:12 | 48.89561 | 9.02872 | 125° | 22km/h | 639m | -7.0m/s | 19.6°C | 48.2% | 953.1hPa | 2.7V | 02:12:00 | 03:02:53 | 00:00:00 | |
| DK5PH-5 | 2026-09-02 19:35:07 | 48.89577 | 9.02838 | 124° | 22km/h | 673m | -6.4m/s | 19.3°C | 48.9% | 949.4hPa | 2.6V | 00:00:00 | 03:02:48 | 00:00:00 | |
| DF3TZ-5 | 2026-09-02 19:34:48 | 48.89632 | 9.02699 | 117° | 20km/h | 805m | -6.6m/s | 18.2°C | 52.2% | 935.0hPa | 2.6V | 00:00:00 | 00:00:00 | 00:00:00 | |
| DK5PH-5 | 2026-09-02 19:34:47 | 48.89632 | 9.02699 | 118° | 18km/h | 805m | -6.5m/s | 18.1°C | 52.4% | 934.9hPa | 2.6V | 00:00:00 | 03:02:28 | 00:00:00 | |
| DB0ND-19 | 2026-09-02 19:34:42 | 48.89641 | 9.02666 | 112° | 16km/h | 838m | -6.5m/s | 17.9°C | 53.2% | 931.3hPa | 2.6V | 00:00:00 | 00:00:00 | 00:00:00 | |
| DK5PH-5 | 2026-09-02 19:34:42 | 48.89641 | 9.02666 | 113° | 18km/h | 838m | -6.4m/s | 17.9°C | 53.4% | 931.2hPa | 2.6V | 02:13:00 | 03:02:23 | 00:00:00 | |
| KANTATE | 2026-09-02 19:34:37 | 48.89649 | 9.02640 | 112° | 18km/h | 864m | -6.8m/s | 17.7°C | 53.8% | 928.6hPa | 2.6V | 02:13:00 | 00:00:00 | 00:00:00 | |
| DK5PH-5 | 2026-09-02 19:34:37 | 48.89650 | 9.02634 | 109° | 18km/h | 870m | -6.5m/s | 17.6°C | 54.2% | 927.9hPa | 2.6V | 00:00:00 | 03:02:18 | 00:00:00 | |
| DK5PH-5 | 2026-09-02 19:34:32 | 48.89656 | 9.02601 | 106° | 18km/h | 903m | -6.3m/s | 17.3°C | 55.1% | 924.2hPa | 2.6V | 00:00:00 | 03:02:13 | 00:00:00 | |
| DK5PH-5 | 2026-09-02 19:34:27 | 48.89662 | 9.02568 | 103° | 18km/h | 935m | -6.6m/s | 17.0°C | 56.0% | 920.8hPa | 2.6V | 02:13:00 | 03:02:08 | 00:00:00 | |
| DK5PH-5 | 2026-09-02 19:34:22 | 48.89665 | 9.02534 | 98° | 18km/h | 967m | -6.5m/s | 16.7°C | 57.3% | 917.2hPa | 2.7V | 00:00:00 | 03:02:03 | 00:00:00 | |
| DK5PH-5 | 2026-09-02 19:34:17 | 48.89669 | 9.02501 | 106° | 18km/h | 1000m | -6.5m/s | 16.4°C | 58.2% | 913.8hPa | 2.7V | 00:00:00 | 03:01:58 | 00:00:00 | |
| KANTATE | 2026-09-02 19:34:16 | 48.89669 | 9.02501 | 106° | 18km/h | 1000m | -6.6m/s | 16.5°C | 57.9% | 913.9hPa | 2.7V | 02:13:00 | 00:00:00 | 00:00:00 | |
| AZAK | 2026-09-02 19:34:12 | 48.89674 | 9.02467 | 102° | 18km/h | 1032m | -6.4m/s | 16.2°C | 58.8% | 910.5hPa | 2.7V | 02:14:00 | 00:00:00 | 00:00:00 | |
| DB0ND-19 | 2026-09-02 19:34:11 | 48.89675 | 9.02460 | 99° | 16km/h | 1038m | -6.3m/s | 16.1°C | 59.0% | 909.6hPa | 2.7V | 00:00:00 | 00:00:00 | 00:00:00 | |
| DK5PH-5 | 2026-09-02 19:34:07 | 48.89677 | 9.02432 | 97° | 22km/h | 1064m | -6.2m/s | 15.8°C | 59.9% | 906.9hPa | 2.7V | 02:13:00 | 03:01:48 | 00:00:00 | |
| DF3TZ-5 | 2026-09-02 19:33:46 | 48.89692 | 9.02239 | 99° | 26km/h | 1206m | -5.7m/s | 14.6°C | 63.4% | 891.9hPa | 2.6V | 00:00:00 | 00:00:00 | 00:00:00 | |
| DB0UT-9 | 2026-09-02 19:33:45 | 48.89691 | 9.02248 | 99° | 26km/h | 1200m | -6.6m/s | 14.7°C | 63.1% | 892.5hPa | 2.6V | 02:14:00 | 00:00:00 | 00:00:00 | |
| DB0ND-19 | 2026-09-02 19:33:40 | 48.89696 | 9.02192 | 99° | 24km/h | 1238m | -6.6m/s | 14.3°C | 64.3% | 888.6hPa | 2.6V | 00:00:00 | 00:00:00 | 00:00:00 | |
| DB0UT-7 | 2026-09-02 19:33:39 | 48.89697 | 9.02183 | 97° | 26km/h | 1244m | -6.3m/s | 14.2°C | 64.9% | 887.9hPa | 2.6V | 02:14:00 | 03:01:20 | 00:00:00 | |
| DK5PH-5 | 2026-09-02 19:33:37 | 48.89698 | 9.02164 | 96° | 26km/h | 1257m | -6.1m/s | 14.1°C | 65.3% | 886.5hPa | 2.7V | 02:14:00 | 03:01:18 | 00:00:00 | |
| DB0UT-7 | 2026-09-02 19:33:29 | 48.89701 | 9.02083 | 97° | 26km/h | 1308m | -6.3m/s | 13.7°C | 66.8% | 881.2hPa | 2.7V | 00:00:00 | 00:00:00 | 00:00:00 | |
| DK5PH-5 | 2026-09-02 19:33:27 | 48.89703 | 9.02062 | 93° | 26km/h | 1322m | -6.9m/s | 13.6°C | 67.2% | 879.9hPa | 2.7V | 00:00:00 | 03:01:08 | 00:00:00 | |
| DB0UT-9 | 2026-09-02 19:33:24 | 48.89703 | 9.02042 | 95° | 27km/h | 1336m | -6.9m/s | 13.5°C | 67.1% | 878.5hPa | 2.7V | 02:14:00 | 00:00:00 | 00:00:00 | |
| DB0UT-7 | 2026-09-02 19:33:19 | 48.89704 | 9.01984 | 90° | 26km/h | 1374m | -5.8m/s | 13.1°C | 68.7% | 874.2hPa | 2.7V | 00:00:00 | 03:01:00 | 00:00:00 | |
| DK5PH-5 | 2026-09-02 19:33:17 | 48.89704 | 9.01965 | 88° | 26km/h | 1387m | -6.6m/s | 13.0°C | 69.2% | 873.0hPa | 2.7V | 00:00:00 | 03:00:58 | 00:00:00 | |
| KANTATE | 2026-09-02 19:33:15 | 48.89704 | 9.01956 | 88° | 26km/h | 1394m | -6.5m/s | 13.0°C | 68.8% | 872.2hPa | 2.7V | 02:15:00 | 00:00:00 | 00:00:00 | |
| DF3TZ-5 | 2026-09-02 19:33:15 | 48.89703 | 9.01937 | 83° | 24km/h | 1406m | -6.1m/s | 12.9°C | 69.3% | 871.0hPa | 2.7V | 00:00:00 | 00:00:00 | 00:00:00 | |
| DB0UT-7 | 2026-09-02 19:33:09 | 48.89701 | 9.01887 | 90° | 26km/h | 1439m | -6.0m/s | 12.5°C | 71.1% | 867.5hPa | 2.7V | 02:14:00 | 00:00:00 | 00:00:00 | |
| AZAK | 2026-09-02 19:33:08 | 48.89701 | 9.01877 | 91° | 26km/h | 1446m | -7.1m/s | 12.5°C | 70.6% | 866.8hPa | 2.6V | 02:15:00 | 00:00:00 | 00:00:00 | |
| DK5PH-5 | 2026-09-02 19:33:07 | 48.89702 | 9.01867 | 92° | 26km/h | 1452m | -6.5m/s | 12.4°C | 71.4% | 866.1hPa | 2.6V | 02:14:00 | 03:00:48 | 00:00:00 | |
| DB0UT-9 | 2026-09-02 19:33:04 | 48.89702 | 9.01847 | 91° | 26km/h | 1466m | -7.1m/s | 12.4°C | 71.3% | 864.9hPa | 2.7V | 02:15:00 | 00:00:00 | 00:00:00 | |
| DB0UT-7 | 2026-09-02 19:32:59 | 48.89701 | 9.01789 | 90° | 26km/h | 1506m | -6.6m/s | 12.0°C | 73.0% | 860.6hPa | 2.7V | 00:00:00 | 03:00:40 | 00:00:00 | |
| DK5PH-5 | 2026-09-02 19:32:57 | 48.89701 | 9.01769 | 92° | 27km/h | 1519m | -6.5m/s | 11.8°C | 73.4% | 859.1hPa | 2.7V | 00:00:00 | 03:00:38 | 00:00:00 | |
| KANTATE | 2026-09-02 19:32:54 | 48.89701 | 9.01749 | 92° | 27km/h | 1533m | -6.5m/s | 11.8°C | 73.3% | 857.8hPa | 2.7V | 02:15:00 | 00:00:00 | 00:00:00 | |
| DK5PH-5 | 2026-09-02 19:32:47 | 48.89699 | 9.01667 | 93° | 27km/h | 1585m | -7.2m/s | 11.2°C | 75.9% | 852.4hPa | 2.7V | 00:00:00 | 03:00:28 | 00:00:00 | |
| DB0UT-9 | 2026-09-02 19:32:44 | 48.89699 | 9.01646 | 91° | 26km/h | 1598m | -6.6m/s | 11.1°C | 75.5% | 851.1hPa | 2.7V | 02:15:00 | 00:00:00 | 00:00:00 | |
| DF3TZ-5 | 2026-09-02 19:32:44 | 48.89699 | 9.01625 | 92° | 27km/h | 1611m | -6.1m/s | 11.0°C | 76.1% | 849.8hPa | 2.7V | 00:00:00 | 00:00:00 | 00:00:00 | |
| DB0UT-7 | 2026-09-02 19:32:39 | 48.89700 | 9.01582 | 90° | 31km/h | 1637m | -6.4m/s | 10.7°C | 77.7% | 847.1hPa | 2.7V | 02:15:00 | 03:00:20 | 00:00:00 | |
| DB0ND-19 | 2026-09-02 19:32:38 | 48.89700 | 9.01570 | 86° | 27km/h | 1643m | -7.0m/s | 10.7°C | 77.1% | 846.3hPa | 2.7V | 00:00:00 | 00:00:00 | 00:00:00 | |
| DK5PH-5 | 2026-09-02 19:32:37 | 48.89699 | 9.01559 | 86° | 31km/h | 1650m | -7.3m/s | 10.6°C | 78.2% | 845.8hPa | 2.7V | 02:15:00 | 03:00:18 | 00:00:00 | |
| KANTATE | 2026-09-02 19:32:33 | 48.89697 | 9.01523 | 90° | 33km/h | 1671m | -6.6m/s | 10.4°C | 78.1% | 843.8hPa | 2.7V | 02:15:00 | 00:00:00 | 00:00:00 | |
| DB0UT-7 | 2026-09-02 19:32:29 | 48.89699 | 9.01461 | 91° | 33km/h | 1704m | -6.8m/s | 10.1°C | 80.2% | 840.4hPa | 2.7V | 00:00:00 | 00:00:00 | 00:00:00 | |
| DK5PH-5 | 2026-09-02 19:32:27 | 48.89699 | 9.01437 | 91° | 35km/h | 1717m | -6.6m/s | 10.0°C | 80.5% | 839.1hPa | 2.7V | 00:00:00 | 03:00:08 | 00:00:00 | |
| AZAK | 2026-09-02 19:32:26 | 48.89699 | 9.01437 | 92° | 31km/h | 1717m | -6.6m/s | 10.0°C | 79.6% | 839.1hPa | 2.7V | 00:00:00 | 00:00:00 | 00:00:00 | |
| DB0UT-9 | 2026-09-02 19:32:23 | 48.89698 | 9.01400 | 87° | 35km/h | 1737m | -7.0m/s | 9.9°C | 80.3% | 837.0hPa | 2.7V | 02:16:00 | 00:00:00 | 00:00:00 | |
| DB0UT-7 | 2026-09-02 19:32:19 | 48.89695 | 9.01333 | 87° | 37km/h | 1772m | -6.9m/s | 9.7°C | 81.7% | 833.5hPa | 2.7V | 00:00:00 | 03:00:00 | 00:00:00 | |
| DK5PH-5 | 2026-09-02 19:32:17 | 48.89694 | 9.01306 | 88° | 37km/h | 1786m | -6.8m/s | 9.6°C | 82.3% | 832.1hPa | 2.7V | 00:00:00 | 02:59:58 | 00:00:00 | |
| KANTATE | 2026-09-02 19:32:13 | 48.89693 | 9.01264 | 89° | 38km/h | 1807m | -7.1m/s | 9.5°C | 81.8% | 830.2hPa | 2.7V | 02:16:00 | 00:00:00 | 00:00:00 | |
| DF3TZ-5 | 2026-09-02 19:32:12 | 48.89692 | 9.01236 | 88° | 37km/h | 1821m | -7.0m/s | 9.4°C | 82.1% | 828.8hPa | 2.7V | 00:00:00 | 00:00:00 | 00:00:00 | |
| DH7VM-15 | 2026-09-02 19:32:09 | 48.89691 | 9.01208 | 90° | 37km/h | 1835m | -6.8m/s | 9.3°C | 82.5% | 827.5hPa | 2.7V | 00:00:00 | 00:00:00 | 00:00:00 | |
| DB0UT-7 | 2026-09-02 19:32:09 | 48.89690 | 9.01193 | 89° | 38km/h | 1842m | -7.0m/s | 9.2°C | 83.7% | 826.9hPa | 2.7V | 02:15:00 | 00:00:00 | 00:00:00 | |
| DK5PH-5 | 2026-09-02 19:32:07 | 48.89690 | 9.01165 | 87° | 38km/h | 1856m | -6.7m/s | 9.1°C | 83.9% | 825.3hPa | 2.7V | 02:15:00 | 02:59:48 | 00:00:00 | |
| DB0ND-19 | 2026-09-02 19:32:07 | 48.89689 | 9.01151 | 86° | 37km/h | 1862m | -7.0m/s | 9.0°C | 83.2% | 824.8hPa | 2.7V | 00:00:00 | 00:00:00 | 00:00:00 | |
| AZAK | 2026-09-02 19:32:04 | 48.89689 | 9.01136 | 88° | 38km/h | 1869m | -6.8m/s | 9.0°C | 83.4% | 824.0hPa | 2.7V | 00:00:00 | 00:00:00 | 00:00:00 | |
| DB0UT-9 | 2026-09-02 19:32:02 | 48.89688 | 9.01106 | 89° | 38km/h | 1883m | -6.9m/s | 8.9°C | 84.0% | 822.7hPa | 2.7V | 02:16:00 | 00:00:00 | 00:00:00 | |
| DB0UT-7 | 2026-09-02 19:31:59 | 48.89686 | 9.01046 | 86° | 42km/h | 1911m | -6.9m/s | 8.6°C | 85.9% | 819.9hPa | 2.7V | 00:00:00 | 02:59:40 | 00:00:00 | |
| DK5PH-5 | 2026-09-02 19:31:57 | 48.89684 | 9.01015 | 86° | 42km/h | 1925m | -7.1m/s | 8.5°C | 86.1% | 818.5hPa | 2.7V | 00:00:00 | 02:59:38 | 00:00:00 | |
| DM7RM-13 | 2026-09-02 19:31:55 | 48.89683 | 9.00999 | 87° | 42km/h | 1931m | -6.9m/s | 8.6°C | 85.3% | 817.7hPa | 2.7V | 02:16:00 | 00:00:00 | 00:00:00 | |
| KANTATE | 2026-09-02 19:31:51 | 48.89681 | 9.00934 | 87° | 42km/h | 1959m | -7.2m/s | 8.4°C | 86.3% | 814.9hPa | 2.7V | 02:16:00 | 00:00:00 | 00:00:00 | |
| DB0UT-7 | 2026-09-02 19:31:49 | 48.89679 | 9.00884 | 85° | 44km/h | 1981m | -6.9m/s | 8.3°C | 88.2% | 813.0hPa | 2.7V | 00:00:00 | 00:00:00 | 00:00:00 | |
| DK5PH-5 | 2026-09-02 19:31:47 | 48.89676 | 9.00852 | 84° | 44km/h | 1995m | -7.0m/s | 8.2°C | 88.0% | 811.6hPa | 2.7V | 00:00:00 | 02:59:28 | 00:00:00 | |
| AZAK | 2026-09-02 19:31:44 | 48.89674 | 9.00801 | 86° | 44km/h | 2016m | -7.2m/s | 8.2°C | 87.5% | 809.6hPa | 2.7V | 00:00:00 | 00:00:00 | 00:00:00 | |
| DB0UT-9 | 2026-09-02 19:31:41 | 48.89672 | 9.00768 | 86° | 44km/h | 2030m | -7.2m/s | 8.0°C | 88.3% | 808.2hPa | 2.7V | 02:16:00 | 00:00:00 | 00:00:00 | |
| DB0UT-7 | 2026-09-02 19:31:39 | 48.89668 | 9.00718 | 83° | 47km/h | 2051m | -6.5m/s | 7.8°C | 90.2% | 806.0hPa | 2.7V | 02:16:00 | 02:59:20 | 00:00:00 | |
| DB0ND-19 | 2026-09-02 19:31:36 | 48.89664 | 9.00650 | 85° | 44km/h | 2078m | -7.1m/s | 7.7°C | 89.8% | 803.4hPa | 2.6V | 00:00:00 | 00:00:00 | 00:00:00 | |
| DM7RM-13 | 2026-09-02 19:31:33 | 48.89663 | 9.00632 | 85° | 46km/h | 2085m | -7.0m/s | 7.6°C | 90.1% | 802.8hPa | 2.6V | 02:17:00 | 00:00:00 | 00:00:00 | |
| DK5PH-5 | 2026-09-02 19:31:32 | 48.89660 | 9.00597 | 84° | 49km/h | 2099m | -7.4m/s | 7.4°C | 92.0% | 801.4hPa | 2.6V | 02:16:00 | 02:59:13 | 00:00:00 | |
| KANTATE | 2026-09-02 19:31:31 | 48.89660 | 9.00597 | 84° | 47km/h | 2099m | -7.5m/s | 7.5°C | 90.8% | 801.4hPa | 2.6V | 02:17:00 | 00:00:00 | 00:00:00 | |
| DB0UT-9 | 2026-09-02 19:31:21 | 48.89647 | 9.00412 | 84° | 49km/h | 2167m | -7.5m/s | 7.2°C | 88.2% | 794.8hPa | 2.6V | 02:17:00 | 00:00:00 | 00:00:00 | |
| DB0UT-7 | 2026-09-02 19:31:19 | 48.89643 | 9.00354 | 85° | 51km/h | 2188m | -6.5m/s | 6.9°C | 90.2% | 792.6hPa | 2.6V | 00:00:00 | 00:00:00 | 00:00:00 | |
| DK5PH-5 | 2026-09-02 19:31:12 | 48.89635 | 9.00217 | 86° | 51km/h | 2236m | -7.5m/s | 7.1°C | 66.1% | 788.0hPa | 2.6V | 00:00:00 | 02:58:53 | 00:00:00 | |
| KANTATE | 2026-09-02 19:31:11 | 48.89635 | 9.00217 | 86° | 51km/h | 2236m | -7.6m/s | 7.2°C | 65.2% | 788.1hPa | 2.6V | 02:17:00 | 00:00:00 | 00:00:00 | |
| DF3TZ-5 | 2026-09-02 19:31:10 | 48.89634 | 9.00177 | 87° | 51km/h | 2250m | -7.0m/s | 7.1°C | 61.6% | 786.7hPa | 2.6V | 00:00:00 | 00:00:00 | 00:00:00 | |
| DB0ND-19 | 2026-09-02 19:31:05 | 48.89631 | 9.00056 | 91° | 51km/h | 2291m | -7.0m/s | 7.0°C | 51.3% | 782.6hPa | 2.6V | 00:00:00 | 00:00:00 | 00:00:00 | |
| DF7PN | 2026-09-02 19:30:50 | 48.89640 | 8.99786 | 95° | 47km/h | 2387m | -7.0m/s | 6.6°C | 31.1% | 773.7hPa | 2.6V | 00:00:00 | 00:00:00 | 00:00:00 | |
| HARRO8 | 2026-09-02 19:30:41 | 48.89655 | 8.99625 | 100° | 44km/h | 2450m | -6.6m/s | 6.4°C | 23.3% | 767.8hPa | 2.6V | 00:00:00 | 00:00:00 | 00:00:00 | |
| DB0UT-9 | 2026-09-02 19:30:40 | 48.89655 | 8.99625 | 102° | 46km/h | 2450m | -6.6m/s | 6.4°C | 23.3% | 767.8hPa | 2.6V | 02:17:00 | 00:00:00 | 00:00:00 | |
| DB0UT-7 | 2026-09-02 19:30:39 | 48.89660 | 8.99591 | 104° | 46km/h | 2463m | -6.6m/s | 6.3°C | 22.7% | 766.5hPa | 2.6V | 02:17:00 | 00:00:00 | 00:00:00 | |
| DK7TD | 2026-09-02 19:30:20 | 48.89712 | 8.99271 | 101° | 46km/h | 2597m | -6.8m/s | 6.2°C | 13.2% | 754.1hPa | 2.7V | 02:18:46 | 02:58:01 | 00:00:00 | |
| DB0UT-7 | 2026-09-02 19:30:19 | 48.89714 | 8.99254 | 100° | 40km/h | 2604m | -6.8m/s | 6.1°C | 12.6% | 753.4hPa | 2.6V | 00:00:00 | 02:58:00 | 00:00:00 | |
| DK7TD | 2026-09-02 19:30:01 | 48.89731 | 8.98973 | 89° | 37km/h | 2733m | -6.9m/s | 5.8°C | 21.5% | 741.6hPa | 2.6V | 02:18:46 | 02:57:42 | 00:00:00 | |
| DK7TD | 2026-09-02 19:29:49 | 48.89742 | 8.98819 | 98° | 40km/h | 2815m | -7.1m/s | 5.5°C | 13.6% | 734.2hPa | 2.6V | 02:18:46 | 02:57:30 | 00:00:00 | |
| DF7PN | 2026-09-02 19:29:48 | 48.89744 | 8.98804 | 95° | 38km/h | 2822m | -7.2m/s | 5.5°C | 11.8% | 733.6hPa | 2.6V | 00:00:00 | 00:00:00 | 00:00:00 | |
| DK7TD | 2026-09-02 19:29:39 | 48.89748 | 8.98686 | 100° | 29km/h | 2884m | -6.9m/s | 5°C | 12.9% | 728.1hPa | 2.6V | 02:18:46 | 02:57:20 | 00:00:00 | |
| DK7TD | 2026-09-02 19:29:28 | 48.89768 | 8.98549 | 99° | 35km/h | 2958m | -6.8m/s | 4.5°C | 12.5% | 721.5hPa | 2.6V | 02:18:46 | 02:57:09 | 00:00:00 | |
| DK7TD | 2026-09-02 19:29:18 | 48.89784 | 8.98419 | 99° | 35km/h | 3028m | -7.1m/s | 4.1°C | 12.5% | 715.4hPa | 2.6V | 02:18:46 | 02:56:59 | 00:00:00 | |
| DK7TD | 2026-09-02 19:29:08 | 48.89797 | 8.98283 | 99° | 38km/h | 3097m | -6.5m/s | 3.6°C | 13.8% | 709.5hPa | 2.6V | 02:18:46 | 02:56:49 | 00:00:00 | |
| DK7TD | 2026-09-02 19:28:57 | 48.89812 | 8.98127 | 98° | 38km/h | 3171m | -6.8m/s | 3.1°C | 19.9% | 702.9hPa | 2.6V | 02:19:37 | 02:56:38 | 00:00:00 | |
| DK7TD | 2026-09-02 19:28:47 | 48.89827 | 8.97981 | 101° | 40km/h | 3239m | -6.4m/s | 2.7°C | 28.6% | 697hPa | 2.6V | 02:19:37 | 02:56:28 | 00:00:00 | |
| DF7PN | 2026-09-02 19:28:46 | 48.89829 | 8.97966 | 100° | 38km/h | 3246m | -6.4m/s | 2.7°C | 27.9% | 696.5hPa | 2.6V | 00:00:00 | 00:00:00 | 00:00:00 | |
| DK7TD | 2026-09-02 19:28:37 | 48.89847 | 8.97833 | 105° | 40km/h | 3308m | -7m/s | 2°C | 70% | 691.2hPa | 2.6V | 02:19:37 | 02:56:18 | 00:00:00 | |
| DK7TD | 2026-09-02 19:28:26 | 48.89877 | 8.97664 | 107° | 42km/h | 3383m | -6.9m/s | 1.2°C | 76% | 684.7hPa | 2.6V | 02:19:37 | 02:56:07 | 00:00:00 | |
| DK7TD | 2026-09-02 19:28:15 | 48.89915 | 8.97494 | 107° | 40km/h | 3457m | -7.6m/s | 0.8°C | 91.4% | 678.3hPa | 2.6V | 02:20:28 | 02:55:56 | 00:00:00 | |
| DK7TD | 2026-09-02 19:28:05 | 48.89946 | 8.97341 | 107° | 42km/h | 3528m | -6.9m/s | 0.3°C | 89.4% | 672.5hPa | 2.5V | 02:20:28 | 02:55:46 | 00:00:00 | |
| DK7TD | 2026-09-02 19:27:54 | 48.89981 | 8.97168 | 107° | 44km/h | 3604m | -7m/s | -0.2°C | 91.6% | 666hPa | 2.5V | 02:20:28 | 02:55:35 | 00:00:00 | |
| DK7TD | 2026-09-02 19:27:44 | 48.90018 | 8.97002 | 109° | 44km/h | 3671m | -7m/s | -0.7°C | 91.2% | 660.3hPa | 2.6V | 02:20:28 | 02:55:25 | 00:00:00 | |
| DK7TD | 2026-09-02 19:27:33 | 48.90065 | 8.96822 | 110° | 44km/h | 3744m | -7.5m/s | -1.2°C | 93.3% | 654.2hPa | 2.6V | 02:20:28 | 02:55:14 | 00:00:00 | |
| DK7TD | 2026-09-02 19:27:22 | 48.90110 | 8.96648 | 111° | 46km/h | 3824m | -6.3m/s | -1.7°C | 89.1% | 648hPa | 2.6V | 02:21:19 | 02:55:03 | 00:00:00 | |
| DK7TD | 2026-09-02 19:27:12 | 48.90154 | 8.96491 | 114° | 47km/h | 3891m | -7.1m/s | -2.2°C | 90% | 642.4hPa | 2.5V | 02:21:19 | 02:54:53 | 00:00:00 | |
| DK7TD | 2026-09-02 19:27:01 | 48.90204 | 8.96314 | 112° | 46km/h | 3968m | -7.5m/s | -2.7°C | 86.9% | 636.1hPa | 2.5V | 02:21:19 | 02:54:42 | 00:00:00 | |
| DK7TD | 2026-09-02 19:26:51 | 48.90249 | 8.96147 | 111° | 47km/h | 4042m | -6.8m/s | -3.2°C | 91.7% | 630.3hPa | 2.5V | 02:21:19 | 02:54:32 | 00:00:00 | |
| DK7TD | 2026-09-02 19:26:40 | 48.90296 | 8.95962 | 111° | 46km/h | 4121m | -7.4m/s | -3.8°C | 92.2% | 624.2hPa | 2.5V | 02:21:19 | 02:54:21 | 00:00:00 | |
| DK7TD | 2026-09-02 19:26:30 | 48.90337 | 8.95792 | 110° | 46km/h | 4193m | -8.1m/s | -4.4°C | 93.7% | 618.5hPa | 2.6V | 02:22:10 | 02:54:11 | 00:00:00 | |
| DK7TD | 2026-09-02 19:26:20 | 48.90379 | 8.95620 | 112° | 49km/h | 4265m | -6.8m/s | -4.9°C | 92.5% | 612.8hPa | 2.6V | 02:22:10 | 02:54:01 | 00:00:00 | |
| DK7TD | 2026-09-02 19:26:09 | 48.90426 | 8.95421 | 109° | 49km/h | 4343m | -7.5m/s | -5.5°C | 99.4% | 606.9hPa | 2.6V | 02:22:10 | 02:53:50 | 00:00:00 | |
| DK7TD | 2026-09-02 19:25:59 | 48.90470 | 8.95236 | 110° | 51km/h | 4415m | -8.1m/s | -5.7°C | 100% | 601.3hPa | 2.6V | 02:22:10 | 02:53:40 | 00:00:00 | |
| DK7TD | 2026-09-02 19:25:48 | 48.90522 | 8.95027 | 113° | 55km/h | 4494m | -6.9m/s | -6°C | 93.4% | 595.3hPa | 2.5V | 02:22:10 | 02:53:29 | 00:00:00 | |
| DK7TD | 2026-09-02 19:25:37 | 48.90579 | 8.94818 | 113° | 53km/h | 4574m | -7.2m/s | -6.4°C | 89.1% | 589.5hPa | 2.6V | 02:23:01 | 02:53:18 | 00:00:00 | |
| DK7TD | 2026-09-02 19:25:27 | 48.90633 | 8.94631 | 113° | 55km/h | 4642m | -6.5m/s | -6.8°C | 84.4% | 584.2hPa | 2.6V | 02:23:01 | 02:53:08 | 00:00:00 | |
| DK7TD | 2026-09-02 19:25:16 | 48.90693 | 8.94434 | 116° | 47km/h | 4718m | -7.6m/s | -7.2°C | 92.6% | 578.5hPa | 2.6V | 02:23:01 | 02:52:57 | 00:00:00 | |
| DK7TD | 2026-09-02 19:25:06 | 48.90745 | 8.94270 | 118° | 46km/h | 4790m | -7.6m/s | -7.7°C | 95% | 573.1hPa | 2.6V | 02:23:01 | 02:52:47 | 00:00:00 | |
| DK7TD | 2026-09-02 19:24:49 | 48.90847 | 8.94000 | 120° | 49km/h | 4915m | -7m/s | -8.1°C | 87.2% | 564.1hPa | 2.5V | 02:23:52 | 02:52:30 | 00:00:00 | |
| DK7TD | 2026-09-02 19:24:38 | 48.90920 | 8.93821 | 122° | 49km/h | 4995m | -7.4m/s | -8.7°C | 90.8% | 558.2hPa | 2.5V | 02:23:52 | 02:52:19 | 00:00:00 | |
| DK7TD | 2026-09-02 19:24:28 | 48.90987 | 8.93657 | 122° | 49km/h | 5069m | -7.9m/s | -9.1°C | 86.6% | 553.1hPa | 2.5V | 02:23:52 | 02:52:09 | 00:00:00 | |
| DK7TD | 2026-09-02 19:24:18 | 48.91058 | 8.93492 | 125° | 51km/h | 5142m | -7.8m/s | -9.3°C | 87.9% | 547.8hPa | 2.5V | 02:23:52 | 02:51:59 | 00:00:00 | |
| DK7TD | 2026-09-02 19:24:07 | 48.91149 | 8.93316 | 131° | 55km/h | 5222m | -7.1m/s | -9.9°C | 89.8% | 542.1hPa | 2.5V | 02:23:52 | 02:51:48 | 00:00:00 | |
| DK7TD | 2026-09-02 19:23:56 | 48.91251 | 8.93143 | 135° | 57km/h | 5302m | -7.4m/s | -10.2°C | 95.8% | 536.5hPa | 2.5V | 02:24:43 | 02:51:37 | 00:00:00 | |
| DK7TD | 2026-09-02 19:23:46 | 48.91347 | 8.92985 | 133° | 55km/h | 5377m | -7.8m/s | -10.7°C | 98.9% | 531.4hPa | 2.6V | 02:24:43 | 02:51:27 | 00:00:00 | |
| DK7TD | 2026-09-02 19:23:35 | 48.91446 | 8.92815 | 130° | 53km/h | 5458m | -7.5m/s | -11.3°C | 100% | 525.8hPa | 2.6V | 02:24:43 | 02:51:16 | 00:00:00 | |
| DK7TD | 2026-09-02 19:23:25 | 48.91531 | 8.92661 | 130° | 53km/h | 5530m | -6.9m/s | -11.8°C | 95.1% | 520.8hPa | 2.5V | 02:24:43 | 02:51:06 | 00:00:00 | |
| DK7TD | 2026-09-02 19:23:14 | 48.91624 | 8.92492 | 128° | 55km/h | 5610m | -6.7m/s | -12.3°C | 96.4% | 515.4hPa | 2.5V | 02:24:43 | 02:50:55 | 00:00:00 | |
| DK7TD | 2026-09-02 19:23:03 | 48.91716 | 8.92317 | 128° | 53km/h | 5691m | -7.3m/s | -12.9°C | 98.5% | 510.1hPa | 2.5V | 02:25:34 | 02:50:44 | 00:00:00 | |
| DK7TD | 2026-09-02 19:22:53 | 48.91799 | 8.92150 | 124° | 57km/h | 5761m | -7.1m/s | -13.4°C | 98.8% | 505.3hPa | 2.6V | 02:25:34 | 02:50:34 | 00:00:00 | |
| DB0ND-19 | 2026-09-02 19:22:48 | 48.91838 | 8.92062 | 123° | 53km/h | 5797m | -8.1m/s | -13.7°C | 96.1% | 502.9hPa | 2.5V | 00:00:00 | 00:00:00 | 00:00:00 | |
| DK7TD | 2026-09-02 19:22:42 | 48.91884 | 8.91955 | 123° | 58km/h | 5844m | -7.2m/s | -14°C | 98.3% | 499.9hPa | 2.5V | 02:25:34 | 02:50:23 | 00:00:00 | |
| DK7TD | 2026-09-02 19:22:31 | 48.91967 | 8.91754 | 123° | 57km/h | 5929m | -7.3m/s | -14.7°C | 97.2% | 494.5hPa | 2.5V | 02:25:34 | 02:50:12 | 00:00:00 | |
| DK7TD | 2026-09-02 19:22:21 | 48.92039 | 8.91574 | 125° | 55km/h | 6002m | -7.5m/s | -15.4°C | 99.6% | 489.6hPa | 2.6V | 02:25:34 | 02:50:02 | 00:00:00 | |
| DK7TD | 2026-09-02 19:22:10 | 48.92115 | 8.91389 | 121° | 51km/h | 6084m | -7.7m/s | -16°C | 97.5% | 484.3hPa | 2.5V | 02:26:25 | 02:49:51 | 00:00:00 | |
| DK7TD | 2026-09-02 19:22:00 | 48.92178 | 8.91216 | 119° | 53km/h | 6158m | -7.7m/s | -16.4°C | 97.2% | 479.5hPa | 2.6V | 02:26:25 | 02:49:41 | 00:00:00 | |
| DK7TD | 2026-09-02 19:21:49 | 48.92245 | 8.91008 | 114° | 55km/h | 6240m | -8.5m/s | -16.9°C | 95.4% | 474.4hPa | 2.6V | 02:26:25 | 02:49:30 | 00:00:00 | |
| DB0ND-19 | 2026-09-02 19:21:46 | 48.92262 | 8.90949 | 112° | 57km/h | 6264m | -7.2m/s | -17.0°C | 89.2% | 472.9hPa | 2.6V | 00:00:00 | 00:00:00 | 00:00:00 | |
| DK7TD | 2026-09-02 19:21:38 | 48.92310 | 8.90787 | 117° | 58km/h | 6323m | -8m/s | -17.5°C | 89.3% | 469.1hPa | 2.6V | 02:26:25 | 02:49:19 | 00:00:00 | |
| DK7TD | 2026-09-02 19:21:27 | 48.92393 | 8.90561 | 121° | 64km/h | 6409m | -7.6m/s | -18°C | 70.9% | 463.8hPa | 2.6V | 02:27:16 | 02:49:08 | 00:00:00 | |
| DK7TD | 2026-09-02 19:21:17 | 48.92488 | 8.90340 | 125° | 71km/h | 6484m | -7.9m/s | -17.7°C | 27.9% | 459.2hPa | 2.5V | 02:27:16 | 02:48:58 | 00:00:00 | |
| DK7TD | 2026-09-02 19:21:06 | 48.92611 | 8.90094 | 128° | 73km/h | 6568m | -8m/s | -18°C | 11.2% | 454.2hPa | 2.5V | 02:27:16 | 02:48:47 | 00:00:00 | |
| DK7TD | 2026-09-02 19:20:55 | 48.92744 | 8.89854 | 131° | 73km/h | 6651m | -8m/s | -18.6°C | 8.1% | 449hPa | 2.6V | 02:27:16 | 02:48:36 | 00:00:00 | |
| DK7TD | 2026-09-02 19:20:45 | 48.92871 | 8.89640 | 134° | 78km/h | 6728m | -7.5m/s | -19.2°C | 7.6% | 444.4hPa | 2.6V | 02:27:16 | 02:48:26 | 00:00:00 | |
| DK7TD | 2026-09-02 19:20:34 | 48.93021 | 8.89394 | 132° | 80km/h | 6812m | -8.2m/s | -19.9°C | 7.2% | 439.4hPa | 2.5V | 02:28:07 | 02:48:15 | 00:00:00 | |
| DK7TD | 2026-09-02 19:20:23 | 48.93169 | 8.89135 | 130° | 78km/h | 6896m | -8.2m/s | -20.3°C | 5.8% | 434.5hPa | 2.6V | 02:28:07 | 02:48:04 | 00:00:00 | |
| DK7TD | 2026-09-02 19:20:13 | 48.93298 | 8.88904 | 131° | 77km/h | 6974m | -8m/s | -20.8°C | 5.9% | 429.9hPa | 2.5V | 02:28:07 | 02:47:54 | 00:00:00 | |
| DK7TD | 2026-09-02 19:20:02 | 48.93447 | 8.88652 | 133° | 80km/h | 7059m | -8.4m/s | -21.4°C | 6.2% | 425.1hPa | 2.6V | 02:28:07 | 02:47:43 | 00:00:00 | |
| DK7TD | 2026-09-02 19:19:52 | 48.93593 | 8.88421 | 134° | 86km/h | 7135m | -7.3m/s | -21.9°C | 7.2% | 420.6hPa | 2.5V | 02:28:07 | 02:47:33 | 00:00:00 | |
| HARRO8 | 2026-09-02 19:19:49 | 48.93655 | 8.88328 | 135° | 84km/h | 7166m | -8.1m/s | -22.2°C | 6.5% | 418.9hPa | 2.6V | 00:00:00 | 00:00:00 | 00:00:00 | |
| DF3TZ-5 | 2026-09-02 19:19:47 | 48.93670 | 8.88305 | 136° | 88km/h | 7174m | -7.4m/s | -22.3°C | 6.6% | 418.5hPa | 2.6V | 00:00:00 | 00:00:00 | 00:00:00 | |
| DK7TD | 2026-09-02 19:19:41 | 48.93767 | 8.88162 | 136° | 89km/h | 7219m | -8m/s | -22.7°C | 8.4% | 415.9hPa | 2.6V | 02:28:58 | 02:47:22 | 00:00:00 | |
| DB0UT-9 | 2026-09-02 19:19:40 | 48.93766 | 8.88162 | 137° | 89km/h | 7219m | -8.0m/s | -22.7°C | 7.1% | 415.9hPa | 2.6V | 02:28:00 | 00:00:00 | 00:00:00 | |
| SFWM-10 | 2026-09-02 19:19:37 | 48.93816 | 8.88089 | 137° | 93km/h | 7243m | -7.9m/s | -22.8°C | 7.4% | 414.6hPa | 2.6V | 02:28:00 | 00:00:00 | 00:00:00 | |
| DO3MHA-11 | 2026-09-02 19:19:36 | 48.93850 | 8.88039 | 136° | 97km/h | 7257m | -7.2m/s | -22.9°C | 8.5% | 413.6hPa | 2.6V | 00:00:00 | 02:47:17 | 00:00:00 | |
| KANTATE | 2026-09-02 19:19:34 | 48.93867 | 8.88014 | 136° | 93km/h | 7265m | -7.3m/s | -23.0°C | 7.6% | 413.3hPa | 2.6V | 02:28:00 | 00:00:00 | 00:00:00 | |
| DM0DOS-11 | 2026-09-02 19:19:31 | 48.94023 | 8.87779 | 134° | 99km/h | 7332m | -7.1m/s | -23.5°C | 8.7% | 409.4hPa | 2.6V | 02:28:27 | 02:47:07 | 00:00:00 | |
| DK7TD | 2026-09-02 19:19:30 | 48.93953 | 8.87885 | 135° | 97km/h | 7302m | -7.9m/s | -23.3°C | 9.4% | 411.1hPa | 2.5V | 02:28:58 | 02:47:11 | 00:00:00 | |
| DK7TD | 2026-09-02 19:19:19 | 48.94147 | 8.87588 | 134° | 99km/h | 7386m | -7.9m/s | -23.9°C | 8.8% | 406.4hPa | 2.5V | 02:28:58 | 02:47:00 | 00:00:00 | |
| SFWM-10 | 2026-09-02 19:19:17 | 48.94164 | 8.87560 | 134° | 100km/h | 7394m | -7.6m/s | -23.9°C | 7.4% | 405.9hPa | 2.5V | 02:28:00 | 00:00:00 | 00:00:00 | |
| DO3MHA-11 | 2026-09-02 19:19:16 | 48.94199 | 8.87504 | 135° | 99km/h | 7409m | -7.5m/s | -24.0°C | 8.2% | 405.0hPa | 2.5V | 00:00:00 | 02:46:57 | 00:00:00 | |
| DH7VM-15 | 2026-09-02 19:19:14 | 48.94217 | 8.87477 | 135° | 99km/h | 7417m | -8.2m/s | -24.1°C | 7.2% | 404.7hPa | 2.5V | 00:00:00 | 00:00:00 | 00:00:00 | |
| KANTATE | 2026-09-02 19:19:13 | 48.94234 | 8.87449 | 135° | 97km/h | 7425m | -8.1m/s | -24.1°C | 7.2% | 404.2hPa | 2.5V | 02:28:00 | 00:00:00 | 00:00:00 | |
| DK5PH-5 | 2026-09-02 19:19:12 | 48.94268 | 8.87395 | 134° | 99km/h | 7441m | -8.3m/s | -24.1°C | 8.0% | 403.3hPa | 2.5V | 02:28:00 | 02:46:53 | 00:00:00 | |
| DB0ND-19 | 2026-09-02 19:19:11 | 48.94285 | 8.87367 | 133° | 97km/h | 7449m | -8.3m/s | -24.2°C | 6.9% | 402.9hPa | 2.6V | 00:00:00 | 00:00:00 | 00:00:00 | |
| DM0DOS-11 | 2026-09-02 19:19:09 | 48.94403 | 8.87174 | 130° | 100km/h | 7506m | -7.3m/s | -24.5°C | 7% | 399.9hPa | 2.6V | 02:28:49 | 02:46:45 | 00:00:00 | |
| DK7TD | 2026-09-02 19:19:09 | 48.94319 | 8.87313 | 134° | 97km/h | 7466m | -8.6m/s | -24.3°C | 8% | 402hPa | 2.6V | 02:28:58 | 02:46:50 | 00:00:00 | |
| DF1GD-15 | 2026-09-02 19:19:07 | 48.94336 | 8.87286 | 135° | 99km/h | 7474m | -8.3m/s | -24.3°C | 6.6% | 401.6hPa | 2.6V | 02:28:00 | 00:00:00 | 00:00:00 | |
| DO3MHA-11 | 2026-09-02 19:19:06 | 48.94370 | 8.87230 | 133° | 99km/h | 7490m | -8.4m/s | -24.4°C | 7.3% | 400.8hPa | 2.6V | 00:00:00 | 02:46:47 | 00:00:00 | |
| NBG1-10 | 2026-09-02 19:19:05 | 48.94387 | 8.87202 | 132° | 99km/h | 7499m | -7.7m/s | -24.4°C | 7.2% | 400.3hPa | 2.6V | 02:28:00 | 02:46:46 | 00:00:00 | |
| DM0DOS-11 | 2026-09-02 19:18:59 | 48.94573 | 8.86893 | 133° | 100km/h | 7583m | -7.7m/s | -24.6°C | 7.4% | 395.7hPa | 2.6V | 02:28:59 | 02:46:35 | 00:00:00 | |
| DK7TD | 2026-09-02 19:18:58 | 48.94505 | 8.87004 | 134° | 100km/h | 7552m | -7.9m/s | -24.6°C | 5.5% | 397.4hPa | 2.6V | 02:28:58 | 02:46:39 | 00:00:00 | |
| DO3MHA-11 | 2026-09-02 19:18:56 | 48.94538 | 8.86948 | 133° | 99km/h | 7568m | -8.0m/s | -24.6°C | 6.4% | 396.4hPa | 2.5V | 02:28:00 | 02:46:37 | 00:00:00 | |
| DM7RM-13 | 2026-09-02 19:18:53 | 48.94573 | 8.86893 | 135° | 100km/h | 7584m | -7.7m/s | -24.7°C | 6.4% | 395.7hPa | 2.5V | 02:29:00 | 00:00:00 | 00:00:00 | |
| DM0DOS-11 | 2026-09-02 19:18:49 | 48.94748 | 8.86622 | 135° | 100km/h | 7659m | -7.1m/s | -25.1°C | 16.1% | 391.5hPa | 2.5V | 02:29:09 | 02:46:25 | 00:00:00 | |
| DK7TD | 2026-09-02 19:18:47 | 48.94695 | 8.86701 | 136° | 99km/h | 7636m | -7.8m/s | -25°C | 17.7% | 392.7hPa | 2.5V | 02:29:49 | 02:46:28 | 00:00:00 | |
| HARRO8 | 2026-09-02 19:18:47 | 48.94712 | 8.86675 | 135° | 97km/h | 7644m | -8.2m/s | -25.0°C | 14.1% | 392.3hPa | 2.5V | 00:00:00 | 00:00:00 | 00:00:00 | |
| DF3TZ-5 | 2026-09-02 19:18:45 | 48.94730 | 8.86649 | 136° | 99km/h | 7652m | -7.6m/s | -25.0°C | 14.5% | 391.9hPa | 2.5V | 00:00:00 | 00:00:00 | 00:00:00 | |
| DK5PH-5 | 2026-09-02 19:18:42 | 48.94785 | 8.86569 | 138° | 102km/h | 7675m | -7.9m/s | -25.1°C | 15.3% | 390.6hPa | 2.5V | 00:00:00 | 02:46:23 | 00:00:00 | |
| DB0ND-19 | 2026-09-02 19:18:40 | 48.94822 | 8.86517 | 136° | 100km/h | 7690m | -7.6m/s | -25.2°C | 12.9% | 389.8hPa | 2.5V | 00:00:00 | 00:00:00 | 00:00:00 | |
| DM0DOS-11 | 2026-09-02 19:18:39 | 48.94936 | 8.86363 | 138° | 100km/h | 7738m | -7.9m/s | -25.5°C | 14.5% | 387.4hPa | 2.5V | 02:29:19 | 02:46:15 | 00:00:00 | |
| DK7TD | 2026-09-02 19:18:36 | 48.94898 | 8.86414 | 139° | 99km/h | 7722m | -8.2m/s | -25.3°C | 17% | 388.1hPa | 2.6V | 02:29:49 | 02:46:17 | 00:00:00 | |
| DO3MHA-11 | 2026-09-02 19:18:36 | 48.94897 | 8.86414 | 139° | 100km/h | 7722m | -8.1m/s | -25.3°C | 14.8% | 388.1hPa | 2.5V | 00:00:00 | 02:46:17 | 00:00:00 | |
| DM7RM-13 | 2026-09-02 19:18:33 | 48.94936 | 8.86363 | 139° | 100km/h | 7738m | -7.9m/s | -25.5°C | 13.0% | 387.4hPa | 2.5V | 02:29:00 | 00:00:00 | 00:00:00 | |
| NBG1-10 | 2026-09-02 19:18:30 | 48.95012 | 8.86262 | 140° | 104km/h | 7769m | -8.1m/s | -25.7°C | 15.0% | 385.6hPa | 2.5V | 00:00:00 | 02:46:11 | 00:00:00 | |
| DM0DOS-11 | 2026-09-02 19:18:29 | 48.95129 | 8.86105 | 138° | 104km/h | 7814m | -8m/s | -26.1°C | 16% | 383.2hPa | 2.5V | 02:29:29 | 02:46:05 | 00:00:00 | |
| DK7TD | 2026-09-02 19:18:25 | 48.95109 | 8.86132 | 138° | 104km/h | 7807m | -7.7m/s | -26°C | 18.1% | 383.6hPa | 2.5V | 02:29:49 | 02:46:06 | 00:00:00 | |
| DB0NH | 2026-09-02 19:18:25 | 48.95109 | 8.86132 | 139° | 106km/h | 7807m | -7.6m/s | -26.0°C | 15.8% | 383.6hPa | 2.5V | 02:29:00 | 02:46:06 | 00:00:00 | |
| AZAK | 2026-09-02 19:18:24 | 48.95109 | 8.86132 | 139° | 104km/h | 7807m | -7.7m/s | -26.0°C | 14.1% | 383.6hPa | 2.5V | 00:00:00 | 00:00:00 | 00:00:00 | |
| DL0LBS | 2026-09-02 19:18:22 | 48.95266 | 8.85919 | 139° | 106km/h | 7870m | -7.7m/s | -26.5°C | 13.6% | 380.3hPa | 2.5V | 02:29:00 | 00:00:00 | 00:00:00 | |
| DM0DOS-11 | 2026-09-02 19:18:19 | 48.95326 | 8.85837 | 136° | 106km/h | 7893m | -7.4m/s | -26.6°C | 13.9% | 379.1hPa | 2.5V | 02:29:39 | 02:45:55 | 00:00:00 | |
| DK7TD | 2026-09-02 19:18:15 | 48.95306 | 8.85864 | 138° | 106km/h | 7885m | -8m/s | -26.6°C | 16.3% | 379.5hPa | 2.5V | 02:29:49 | 02:45:56 | 00:00:00 | |
| DF3TZ-5 | 2026-09-02 19:18:14 | 48.95326 | 8.85837 | 136° | 104km/h | 7893m | -7.4m/s | -26.7°C | 12.3% | 379.1hPa | 2.6V | 00:00:00 | 00:00:00 | 00:00:00 | |
| DK5PH-5 | 2026-09-02 19:18:12 | 48.95364 | 8.85781 | 138° | 104km/h | 7909m | -8.7m/s | -26.7°C | 13.6% | 378.2hPa | 2.6V | 00:00:00 | 02:45:53 | 00:00:00 | |
| SFWM-10 | 2026-09-02 19:18:11 | 48.95364 | 8.85781 | 138° | 104km/h | 7909m | -8.7m/s | -26.7°C | 12.1% | 378.2hPa | 2.6V | 00:00:00 | 00:00:00 | 00:00:00 | |
| DM0DOS-11 | 2026-09-02 19:18:09 | 48.95518 | 8.85559 | 135° | 106km/h | 7973m | -8.2m/s | -27.1°C | 13.1% | 374.9hPa | 2.6V | 02:29:49 | 02:45:45 | 00:00:00 | |
| DK7TD | 2026-09-02 19:18:04 | 48.95518 | 8.85559 | 136° | 106km/h | 7973m | -8.2m/s | -27.1°C | 15% | 374.9hPa | 2.6V | 02:29:49 | 02:45:45 | 00:00:00 | |
| BIOWL1-15 | 2026-09-02 19:18:03 | 48.95537 | 8.85531 | 135° | 104km/h | 7981m | -7.7m/s | -27.1°C | 14.7% | 374.5hPa | 2.6V | 02:30:40 | 02:45:44 | 00:00:00 | |
| AZAK | 2026-09-02 19:18:00 | 48.95575 | 8.85475 | 138° | 108km/h | 7997m | -7.8m/s | -27.2°C | 9.5% | 373.7hPa | 2.5V | 00:00:00 | 00:00:00 | 00:00:00 | |
| DM0DOS-11 | 2026-09-02 19:17:59 | 48.95707 | 8.85278 | 136° | 104km/h | 8053m | -8.1m/s | -27.6°C | 14.3% | 370.8hPa | 2.5V | 02:29:59 | 02:45:35 | 00:00:00 | |
| DK7TD | 2026-09-02 19:17:54 | 48.95707 | 8.85278 | 137° | 104km/h | 8053m | -8.1m/s | -27.6°C | 16.5% | 370.8hPa | 2.5V | 02:30:40 | 02:45:35 | 00:00:00 | |
| BIOWL1-15 | 2026-09-02 19:17:52 | 48.95746 | 8.85222 | 135° | 104km/h | 8070m | -7.6m/s | -27.7°C | 18.1% | 370hPa | 2.6V | 02:30:40 | 02:45:33 | 00:00:00 | |
| DM7RM-13 | 2026-09-02 19:17:51 | 48.95746 | 8.85222 | 136° | 104km/h | 8070m | -7.6m/s | -27.7°C | 13.9% | 370.0hPa | 2.5V | 02:30:00 | 00:00:00 | 00:00:00 | |
| DM0DOS-11 | 2026-09-02 19:17:49 | 48.95894 | 8.84998 | 135° | 106km/h | 8134m | -7.8m/s | -28.3°C | 19.5% | 366.7hPa | 2.5V | 02:30:09 | 02:45:25 | 00:00:00 | |
| BIOWL9-15 | 2026-09-02 19:17:46 | 48.95857 | 8.85054 | 135° | 102km/h | 8117m | -8.5m/s | -28.2°C | 16.4% | 367.5hPa | 2.5V | 00:00:00 | 00:00:00 | 00:00:00 | |
| DK7TD | 2026-09-02 19:17:44 | 48.95894 | 8.84998 | 135° | 106km/h | 8134m | -7.8m/s | -28.3°C | 22.5% | 366.7hPa | 2.5V | 02:30:40 | 02:45:25 | 00:00:00 | |
| BIOWL1-15 | 2026-09-02 19:17:43 | 48.95951 | 8.84912 | 134° | 106km/h | 8157m | -7.2m/s | -28.5°C | 24.6% | 365.5hPa | 2.5V | 02:30:40 | 02:45:22 | 00:00:00 | |
| DK7TD | 2026-09-02 19:17:33 | 48.96098 | 8.84677 | 132° | 104km/h | 8220m | -8.3m/s | -29°C | 25.8% | 362.3hPa | 2.5V | 02:30:40 | 02:45:14 | 00:00:00 | |
| DM0DOS-11 | 2026-09-02 19:17:33 | 48.96187 | 8.84523 | 130° | 108km/h | 8258m | -7.2m/s | -29.3°C | 22.5% | 360.2hPa | 2.5V | 02:30:25 | 02:45:09 | 00:00:00 | |
| BIOWL1-15 | 2026-09-02 19:17:33 | 48.96134 | 8.84617 | 131° | 108km/h | 8236m | -7.4m/s | -29.1°C | 26.1% | 361.4hPa | 2.5V | 02:30:40 | 02:45:12 | 00:00:00 | |
| DL0LBS | 2026-09-02 19:17:33 | 48.96116 | 8.84647 | 133° | 106km/h | 8228m | -8.2m/s | -29.1°C | 20.7% | 361.9hPa | 2.5V | 02:30:00 | 00:00:00 | 00:00:00 | |
| KANTATE | 2026-09-02 19:17:31 | 48.96116 | 8.84647 | 133° | 106km/h | 8228m | -8.2m/s | -29.1°C | 20.7% | 361.9hPa | 2.5V | 02:30:00 | 00:00:00 | 00:00:00 | |
| DM7RM-13 | 2026-09-02 19:17:30 | 48.96134 | 8.84617 | 132° | 108km/h | 8236m | -7.4m/s | -29.1°C | 20.7% | 361.4hPa | 2.5V | 02:30:00 | 00:00:00 | 00:00:00 | |
| DO3MHA-11 | 2026-09-02 19:17:26 | 48.96222 | 8.84460 | 131° | 106km/h | 8273m | -8.3m/s | -29.3°C | 22.0% | 359.4hPa | 2.5V | 02:30:00 | 02:45:07 | 00:00:00 | |
| DB0NH | 2026-09-02 19:17:25 | 48.96239 | 8.84430 | 131° | 108km/h | 8282m | -8.1m/s | -29.4°C | 21.8% | 359.0hPa | 2.5V | 00:00:00 | 02:45:06 | 00:00:00 | |
| DN1GJH-1 | 2026-09-02 19:17:24 | 48.96239 | 8.84430 | 132° | 104km/h | 8282m | -8.1m/s | -29.4°C | 19.5% | 359.0hPa | 2.5V | 02:30:00 | 00:00:00 | 00:00:00 | |
| DM0DOS-11 | 2026-09-02 19:17:23 | 48.96360 | 8.84211 | 129° | 108km/h | 8338m | -8m/s | -29.8°C | 23.1% | 356.2hPa | 2.5V | 02:30:35 | 02:44:59 | 00:00:00 | |
| DK7TD | 2026-09-02 19:17:23 | 48.96274 | 8.84367 | 130° | 104km/h | 8298m | -8.4m/s | -29.5°C | 25.4% | 358.2hPa | 2.5V | 02:30:40 | 02:45:04 | 00:00:00 | |
| BIOWL1-15 | 2026-09-02 19:17:21 | 48.96309 | 8.84305 | 130° | 108km/h | 8314m | -8m/s | -29.6°C | 25.5% | 357.4hPa | 2.5V | 02:30:40 | 02:45:02 | 00:00:00 | |
| DK7TD | 2026-09-02 19:17:12 | 48.96461 | 8.84021 | 129° | 108km/h | 8387m | -7.9m/s | -30.2°C | 28.7% | 353.7hPa | 2.5V | 02:31:31 | 02:44:53 | 00:00:00 | |
| BIOWL1-15 | 2026-09-02 19:17:10 | 48.96495 | 8.83957 | 129° | 106km/h | 8403m | -8.7m/s | -30.3°C | 29.5% | 353hPa | 2.5V | 02:31:31 | 02:44:51 | 00:00:00 | |
| DK7TD | 2026-09-02 19:17:01 | 48.96651 | 8.83665 | 130° | 111km/h | 8475m | -8.3m/s | -31°C | 31.3% | 349.4hPa | 2.5V | 02:31:31 | 02:44:42 | 00:00:00 | |
| BIOWL1-15 | 2026-09-02 19:16:59 | 48.96686 | 8.83599 | 130° | 108km/h | 8491m | -8.7m/s | -31.1°C | 35.5% | 348.6hPa | 2.5V | 02:31:31 | 02:44:40 | 00:00:00 | |
| DM0DOS-11 | 2026-09-02 19:16:58 | 48.96792 | 8.83405 | 130° | 110km/h | 8540m | -9m/s | -31.6°C | 45.6% | 346.2hPa | 2.5V | 02:31:00 | 02:44:34 | 00:00:00 | |
| DK7TD | 2026-09-02 19:16:50 | 48.96847 | 8.83309 | 132° | 111km/h | 8565m | -8.6m/s | -31.8°C | 51.6% | 345hPa | 2.5V | 02:31:31 | 02:44:31 | 00:00:00 | |
| DK7TD | 2026-09-02 19:16:39 | 48.97052 | 8.82958 | 132° | 113km/h | 8656m | -8.3m/s | -32.5°C | 70.9% | 340.6hPa | 2.5V | 02:31:31 | 02:44:20 | 00:00:00 | |
| BIOWL1-15 | 2026-09-02 19:16:37 | 48.97091 | 8.82895 | 134° | 113km/h | 8673m | -8.2m/s | -32.7°C | 73% | 339.9hPa | 2.5V | 02:31:31 | 02:44:18 | 00:00:00 | |
| DO3MHA-11 | 2026-09-02 19:16:36 | 48.97110 | 8.82864 | 133° | 113km/h | 8681m | -8.3m/s | -32.7°C | 73.7% | 339.4hPa | 2.5V | 00:00:00 | 02:44:17 | 00:00:00 | |
| AZAK | 2026-09-02 19:16:34 | 48.97129 | 8.82832 | 135° | 111km/h | 8690m | -8.8m/s | -32.8°C | 67.7% | 339.0hPa | 2.5V | 00:00:00 | 00:00:00 | 00:00:00 | |
| DB0UT-9 | 2026-09-02 19:16:33 | 48.97149 | 8.82801 | 135° | 115km/h | 8698m | -8.0m/s | -32.8°C | 67.2% | 338.6hPa | 2.5V | 02:31:00 | 00:00:00 | 00:00:00 | |
| KANTATE | 2026-09-02 19:16:29 | 48.97228 | 8.82675 | 135° | 113km/h | 8730m | -8.8m/s | -32.9°C | 65.9% | 337.1hPa | 2.5V | 02:31:00 | 00:00:00 | 00:00:00 | |
| DM0DOS-11 | 2026-09-02 19:16:28 | 48.97369 | 8.82455 | 134° | 113km/h | 8789m | -8.8m/s | -33.3°C | 72.3% | 334.3hPa | 2.5V | 02:31:30 | 02:44:04 | 00:00:00 | |
| DK7TD | 2026-09-02 19:16:28 | 48.97268 | 8.82612 | 134° | 111km/h | 8747m | -8.7m/s | -33°C | 73% | 336.2hPa | 2.5V | 02:31:31 | 02:44:09 | 00:00:00 | |
| BIOWL1-15 | 2026-09-02 19:16:28 | 48.97308 | 8.82550 | 134° | 113km/h | 8764m | -8.8m/s | -33.2°C | 73.6% | 335.5hPa | 2.6V | 02:31:31 | 02:44:07 | 00:00:00 | |
| DO3MHA-11 | 2026-09-02 19:16:26 | 48.97308 | 8.82550 | 135° | 115km/h | 8764m | -8.7m/s | -33.1°C | 73.2% | 335.4hPa | 2.6V | 02:31:00 | 02:44:07 | 00:00:00 | |
| DF1GD-15 | 2026-09-02 19:16:23 | 48.97349 | 8.82487 | 135° | 115km/h | 8781m | -8.2m/s | -33.3°C | 66.6% | 334.6hPa | 2.5V | 02:31:00 | 00:00:00 | 00:00:00 | |
| CB1BUN | 2026-09-02 19:16:22 | 48.97369 | 8.82455 | 136° | 113km/h | 8789m | -8.8m/s | -33.3°C | 66.2% | 334.3hPa | 2.5V | 02:31:00 | 00:00:00 | 00:00:00 | |
| DF7PN | 2026-09-02 19:16:21 | 48.97410 | 8.82393 | 133° | 115km/h | 8806m | -8.0m/s | -33.2°C | 63.3% | 333.4hPa | 2.5V | 00:00:00 | 00:00:00 | 00:00:00 | |
| DB0UT-7 | 2026-09-02 19:16:19 | 48.97451 | 8.82329 | 135° | 120km/h | 8823m | -7.9m/s | -33.2°C | 68.6% | 332.6hPa | 2.5V | 02:31:00 | 00:00:00 | 00:00:00 | |
| DM0DOS-11 | 2026-09-02 19:16:18 | 48.97574 | 8.82135 | 132° | 119km/h | 8872m | -7.7m/s | -33.7°C | 71.4% | 330.3hPa | 2.5V | 02:31:40 | 02:43:54 | 00:00:00 | |
| DK7TD | 2026-09-02 19:16:18 | 48.97472 | 8.82297 | 135° | 115km/h | 8831m | -8.8m/s | -33.4°C | 70.2% | 332.3hPa | 2.5V | 02:32:22 | 02:43:59 | 00:00:00 | |
| BIOWL1-15 | 2026-09-02 19:16:16 | 48.97513 | 8.82232 | 135° | 117km/h | 8847m | -8.9m/s | -33.5°C | 71.3% | 331.5hPa | 2.6V | 02:32:22 | 02:43:57 | 00:00:00 | |
| DO3MHA-11 | 2026-09-02 19:16:16 | 48.97512 | 8.82232 | 135° | 119km/h | 8847m | -8.9m/s | -33.4°C | 69.6% | 331.4hPa | 2.5V | 00:00:00 | 02:43:57 | 00:00:00 | |
| BIOWL9-15 | 2026-09-02 19:16:13 | 48.97574 | 8.82135 | 132° | 119km/h | 8872m | -7.7m/s | 0°C | -1.0% | -1.0hPa | 2.5V | 00:00:00 | 00:00:00 | 00:00:00 | |
| DN1GJH-1 | 2026-09-02 19:16:12 | 48.97595 | 8.82101 | 135° | 117km/h | 8880m | -9.2m/s | -33.7°C | 65.6% | 329.9hPa | 2.5V | 02:32:00 | 00:00:00 | 00:00:00 | |
| HARRO8 | 2026-09-02 19:16:11 | 48.97616 | 8.82069 | 134° | 120km/h | 8889m | -8.3m/s | -33.8°C | 65.9% | 329.5hPa | 2.5V | 00:00:00 | 00:00:00 | 00:00:00 | |
| DF3TZ-5 | 2026-09-02 19:16:10 | 48.97637 | 8.82036 | 134° | 117km/h | 8897m | -9.1m/s | -33.9°C | 66.6% | 329.1hPa | 2.5V | 00:00:00 | 00:00:00 | 00:00:00 | |
| NBG1-10 | 2026-09-02 19:16:09 | 48.97658 | 8.82003 | 135° | 126km/h | 8906m | -8.1m/s | -33.9°C | 73.6% | 328.6hPa | 2.5V | 00:00:00 | 02:43:50 | 00:00:00 | |
| DM0DOS-11 | 2026-09-02 19:16:08 | 48.97784 | 8.81804 | 134° | 122km/h | 8957m | -8.8m/s | -34.3°C | 74.5% | 326.4hPa | 2.5V | 02:31:50 | 02:43:44 | 00:00:00 | |
| DK7TD | 2026-09-02 19:16:07 | 48.97700 | 8.81937 | 134° | 120km/h | 8923m | -8.4m/s | -34.1°C | 75.1% | 327.9hPa | 2.5V | 02:32:22 | 02:43:48 | 00:00:00 | |
| BIOWL1-15 | 2026-09-02 19:16:06 | 48.97721 | 8.81903 | 134° | 119km/h | 8932m | -9.1m/s | -34.1°C | 74.8% | 327.5hPa | 2.5V | 02:32:22 | 02:43:47 | 00:00:00 | |
| BIOWL1-15 | 2026-09-02 19:16:03 | 48.97955 | 8.81530 | 133° | 124km/h | 9025m | -8.5m/s | -34.8°C | 78.5% | 323.3hPa | 2.5V | 02:32:22 | 02:43:36 | 00:00:00 | |
| DK7TD | 2026-09-02 19:15:57 | 48.97912 | 8.81598 | 133° | 124km/h | 9007m | -8m/s | -34.7°C | 78.4% | 324hPa | 2.5V | 02:32:22 | 02:43:38 | 00:00:00 | |
| BIOWL1-15 | 2026-09-02 19:15:47 | 48.98173 | 8.81182 | 134° | 126km/h | 9110m | -8.9m/s | -35.4°C | 77.9% | 319.3hPa | 2.5V | 02:32:22 | 02:43:26 | 00:00:00 | |
| DK7TD | 2026-09-02 19:15:46 | 48.98151 | 8.81217 | 134° | 124km/h | 9101m | -8.5m/s | -35.3°C | 78.1% | 319.6hPa | 2.5V | 02:32:22 | 02:43:27 | 00:00:00 | |
| BIOWL1-15 | 2026-09-02 19:15:36 | 48.98420 | 8.80798 | 136° | 130km/h | 9205m | -8.5m/s | -36°C | 75.9% | 315.1hPa | 2.5V | 02:32:22 | 02:43:15 | 00:00:00 | |
| DK7TD | 2026-09-02 19:15:35 | 48.98397 | 8.80833 | 134° | 126km/h | 9196m | -8.8m/s | -35.9°C | 76.1% | 315.4hPa | 2.5V | 02:32:22 | 02:43:16 | 00:00:00 | |
| DM0DOS-11 | 2026-09-02 19:15:35 | 48.98510 | 8.80660 | 135° | 126km/h | 9238m | -9m/s | -36.1°C | 73.5% | 313.5hPa | 2.6V | 02:32:23 | 02:43:11 | 00:00:00 | |
| DK7TD | 2026-09-02 19:15:25 | 48.98624 | 8.80490 | 136° | 126km/h | 9280m | -8.9m/s | -36.4°C | 74% | 311.5hPa | 2.6V | 02:33:13 | 02:43:06 | 00:00:00 | |
| DM0DOS-11 | 2026-09-02 19:15:25 | 48.98739 | 8.80319 | 136° | 126km/h | 9324m | -9.2m/s | -36.8°C | 71.5% | 309.6hPa | 2.5V | 02:32:33 | 02:43:01 | 00:00:00 | |
| BIOWL1-15 | 2026-09-02 19:15:25 | 48.98670 | 8.80421 | 136° | 126km/h | 9297m | -9.6m/s | -36.6°C | 73.6% | 310.8hPa | 2.5V | 02:33:13 | 02:43:04 | 00:00:00 | |
| DL0LBS | 2026-09-02 19:15:20 | 48.98716 | 8.80353 | 136° | 126km/h | 9316m | -8.6m/s | -36.7°C | 65.1% | 310.0hPa | 2.5V | 02:33:00 | 00:00:00 | 00:00:00 | |
| DB0UT-7 | 2026-09-02 19:15:19 | 48.98762 | 8.80285 | 136° | 131km/h | 9333m | -8.1m/s | -36.8°C | 71.2% | 309.2hPa | 2.5V | 00:00:00 | 00:00:00 | 00:00:00 | |
| NBG1-10 | 2026-09-02 19:15:18 | 48.98785 | 8.80251 | 137° | 131km/h | 9342m | -9.2m/s | -36.8°C | 70.6% | 308.8hPa | 2.5V | 02:32:00 | 02:42:59 | 00:00:00 | |
| DM0DOS-11 | 2026-09-02 19:15:16 | 48.98974 | 8.79981 | 137° | 128km/h | 9411m | -9m/s | -37.5°C | 70.8% | 305.8hPa | 2.5V | 02:32:43 | 02:42:51 | 00:00:00 | |
| DK7TD | 2026-09-02 19:15:15 | 48.98878 | 8.80116 | 138° | 130km/h | 9376m | -8.9m/s | -37.2°C | 71.8% | 307.4hPa | 2.6V | 02:33:13 | 02:42:55 | 00:00:00 | |
| BIOWL1-15 | 2026-09-02 19:15:15 | 48.98926 | 8.80048 | 137° | 130km/h | 9394m | -8.4m/s | -37.3°C | 71.8% | 306.5hPa | 2.5V | 02:33:13 | 02:42:53 | 00:00:00 | |
| DK5PH-5 | 2026-09-02 19:15:12 | 48.98926 | 8.80048 | 137° | 131km/h | 9394m | -8.3m/s | -37.3°C | 70.5% | 306.5hPa | 2.5V | 00:00:00 | 02:42:53 | 00:00:00 | |
| DB0UT-9 | 2026-09-02 19:15:11 | 48.98926 | 8.80048 | 138° | 130km/h | 9394m | -8.4m/s | -37.3°C | 63.7% | 306.5hPa | 2.5V | 02:33:00 | 00:00:00 | 00:00:00 | |
| DM7RM-13 | 2026-09-02 19:15:10 | 48.98950 | 8.80014 | 139° | 131km/h | 9402m | -9.3m/s | -37.4°C | 63.9% | 306.2hPa | 2.5V | 02:33:00 | 00:00:00 | 00:00:00 | |
| HARRO8 | 2026-09-02 19:15:09 | 48.98998 | 8.79947 | 137° | 130km/h | 9420m | -8.4m/s | -37.6°C | 64.0% | 305.4hPa | 2.5V | 00:00:00 | 00:00:00 | 00:00:00 | |
| DF3TZ-5 | 2026-09-02 19:15:08 | 48.99022 | 8.79913 | 137° | 128km/h | 9428m | -9.1m/s | -37.7°C | 63.9% | 305.0hPa | 2.5V | 00:00:00 | 00:00:00 | 00:00:00 | |
| DO3MHA-11 | 2026-09-02 19:15:06 | 48.99070 | 8.79845 | 139° | 131km/h | 9445m | -8.8m/s | -37.8°C | 70.7% | 304.2hPa | 2.5V | 00:00:00 | 02:42:47 | 00:00:00 | |
| DM0DOS-11 | 2026-09-02 19:15:05 | 48.99217 | 8.79642 | 137° | 131km/h | 9497m | -9.1m/s | -38.2°C | 70.9% | 302hPa | 2.5V | 02:32:53 | 02:42:41 | 00:00:00 | |
| DK7TD | 2026-09-02 19:15:04 | 48.99119 | 8.79778 | 138° | 131km/h | 9463m | -8.9m/s | -38°C | 71.7% | 303.5hPa | 2.5V | 02:33:13 | 02:42:45 | 00:00:00 | |
| BIOWL1-15 | 2026-09-02 19:15:02 | 48.99168 | 8.79710 | 138° | 131km/h | 9480m | -9m/s | -38.1°C | 71.7% | 302.8hPa | 2.5V | 02:33:13 | 02:42:43 | 00:00:00 | |
| DF1GD-15 | 2026-09-02 19:15:01 | 48.99168 | 8.79710 | 139° | 131km/h | 9480m | -9.0m/s | -38.1°C | 63.8% | 302.8hPa | 2.5V | 02:33:00 | 00:00:00 | 00:00:00 | |
| DL0LBS | 2026-09-02 19:14:59 | 48.99217 | 8.79642 | 139° | 131km/h | 9497m | -9.1m/s | -38.2°C | 64.0% | 302.0hPa | 2.5V | 02:33:00 | 00:00:00 | 00:00:00 | |
| DO3MHA-11 | 2026-09-02 19:14:56 | 48.99315 | 8.79504 | 137° | 133km/h | 9532m | -8.6m/s | -38.5°C | 71.3% | 300.4hPa | 2.5V | 02:32:00 | 02:42:37 | 00:00:00 | |
| DM0DOS-11 | 2026-09-02 19:14:55 | 48.99461 | 8.79294 | 137° | 135km/h | 9584m | -8.1m/s | -38.9°C | 70.1% | 298.2hPa | 2.5V | 02:33:03 | 02:42:31 | 00:00:00 | |
| DK7TD | 2026-09-02 19:14:53 | 48.99388 | 8.79400 | 137° | 133km/h | 9558m | -9.3m/s | -38.7°C | 71.4% | 299.3hPa | 2.5V | 02:33:13 | 02:42:34 | 00:00:00 | |
| BIOWL1-15 | 2026-09-02 19:14:51 | 48.99436 | 8.79329 | 136° | 131km/h | 9575m | -8.7m/s | -38.8°C | 70.8% | 298.6hPa | 2.5V | 02:33:13 | 02:42:32 | 00:00:00 | |
| DB0UT-7 | 2026-09-02 19:14:49 | 48.99486 | 8.79258 | 136° | 133km/h | 9592m | -8.3m/s | -38.9°C | 69.9% | 297.8hPa | 2.5V | 02:33:00 | 02:42:30 | 00:00:00 | |
| KANTATE | 2026-09-02 19:14:48 | 48.99485 | 8.79258 | 137° | 133km/h | 9592m | -8.4m/s | -39.0°C | 62.9% | 297.8hPa | 2.5V | 02:33:00 | 00:00:00 | 00:00:00 | |
| CB1BUN | 2026-09-02 19:14:47 | 48.99510 | 8.79223 | 138° | 131km/h | 9601m | -9.6m/s | -39.0°C | 62.5% | 297.4hPa | 2.5V | 02:33:00 | 00:00:00 | 00:00:00 | |
| DO3MHA-11 | 2026-09-02 19:14:46 | 48.99558 | 8.79152 | 136° | 133km/h | 9619m | -9.2m/s | -39.1°C | 70.2% | 296.7hPa | 2.5V | 00:00:00 | 02:42:27 | 00:00:00 | |
| DM0DOS-11 | 2026-09-02 19:14:45 | 48.99704 | 8.78937 | 134° | 133km/h | 9671m | -8.6m/s | -39.5°C | 71.1% | 294.4hPa | 2.5V | 02:33:13 | 02:42:21 | 00:00:00 | |
| DK7TD | 2026-09-02 19:14:42 | 48.99656 | 8.79009 | 135° | 131km/h | 9653m | -9.1m/s | -39.4°C | 71.4% | 295.3hPa | 2.5V | 02:33:13 | 02:42:23 | 00:00:00 | |
| BIOWL1-15 | 2026-09-02 19:14:41 | 48.99680 | 8.78973 | 136° | 135km/h | 9662m | -8.9m/s | -39.5°C | 71.2% | 294.8hPa | 2.5V | 02:33:13 | 02:42:22 | 00:00:00 | |
| BIOWL9-15 | 2026-09-02 19:14:40 | 48.99704 | 8.78937 | 134° | 131km/h | 9671m | -8.6m/s | -39.5°C | 63.8% | 294.4hPa | 2.5V | 00:00:00 | 00:00:00 | 00:00:00 | |
| HARRO8 | 2026-09-02 19:14:38 | 48.99752 | 8.78865 | 134° | 133km/h | 9689m | -8.6m/s | -39.7°C | 64.9% | 293.7hPa | 2.5V | 00:00:00 | 00:00:00 | 00:00:00 | |
| DF3TZ-5 | 2026-09-02 19:14:37 | 48.99776 | 8.78829 | 135° | 131km/h | 9698m | -9.3m/s | -39.7°C | 65.3% | 293.4hPa | 2.5V | 00:00:00 | 00:00:00 | 00:00:00 | |
| DO3MHA-11 | 2026-09-02 19:14:36 | 48.99800 | 8.78792 | 135° | 133km/h | 9707m | -8.4m/s | -39.8°C | 73.2% | 292.9hPa | 2.5V | 00:00:00 | 02:42:17 | 00:00:00 | |
| DM0DOS-11 | 2026-09-02 19:14:35 | 48.99942 | 8.78574 | 134° | 131km/h | 9759m | -8.9m/s | -40.3°C | 76% | 290.7hPa | 2.5V | 02:33:23 | 02:42:11 | 00:00:00 | |
| DK7TD | 2026-09-02 19:14:32 | 48.99895 | 8.78648 | 135° | 133km/h | 9742m | -9.6m/s | -40.1°C | 75% | 291.4hPa | 2.6V | 02:34:04 | 02:42:13 | 00:00:00 | |
| BIOWL1-15 | 2026-09-02 19:14:30 | 48.99942 | 8.78574 | 134° | 131km/h | 9760m | -8.9m/s | -40.3°C | 75.8% | 290.7hPa | 2.5V | 02:34:04 | 02:42:11 | 00:00:00 | |
| KANTATE | 2026-09-02 19:14:27 | 48.99989 | 8.78501 | 135° | 135km/h | 9777m | -8.1m/s | -40.4°C | 68.8% | 290.0hPa | 2.6V | 02:34:00 | 00:00:00 | 00:00:00 | |
| DO3MHA-11 | 2026-09-02 19:14:26 | 49.00035 | 8.78427 | 135° | 135km/h | 9794m | -9.6m/s | -40.5°C | 76.5% | 289.2hPa | 2.6V | 02:33:00 | 02:42:07 | 00:00:00 | |
| DM0DOS-11 | 2026-09-02 19:14:25 | 49.00175 | 8.78202 | 132° | 133km/h | 9848m | -8.5m/s | -40.9°C | 76.6% | 287.1hPa | 2.5V | 02:33:33 | 02:42:01 | 00:00:00 | |
| DK7TD | 2026-09-02 19:14:21 | 49.00153 | 8.78240 | 133° | 135km/h | 9840m | -8.4m/s | -40.9°C | 76% | 287.3hPa | 2.5V | 02:34:04 | 02:42:02 | 00:00:00 | |
| BIOWL1-15 | 2026-09-02 19:14:21 | 49.00198 | 8.78164 | 133° | 133km/h | 9857m | -9.1m/s | -41°C | 76.2% | 286.6hPa | 2.5V | 02:34:04 | 02:42:00 | 00:00:00 | |
| DB0UT-7 | 2026-09-02 19:14:19 | 49.00198 | 8.78164 | 133° | 137km/h | 9857m | -9.1m/s | -40.9°C | 76.3% | 286.6hPa | 2.5V | 00:00:00 | 00:00:00 | 00:00:00 | |
| DL0LBS | 2026-09-02 19:14:18 | 49.00198 | 8.78164 | 134° | 133km/h | 9857m | -9.1m/s | -41.0°C | 68.4% | 286.7hPa | 2.5V | 02:34:00 | 00:00:00 | 00:00:00 | |
| DF7PN | 2026-09-02 19:14:17 | 49.00268 | 8.78051 | 132° | 135km/h | 9884m | -9.0m/s | -41.2°C | 67.9% | 285.5hPa | 2.5V | 00:00:00 | 00:00:00 | 00:00:00 | |
| DO3MHA-11 | 2026-09-02 19:14:16 | 49.00268 | 8.78051 | 133° | 137km/h | 9884m | -8.9m/s | -41.1°C | 75.8% | 285.5hPa | 2.5V | 00:00:00 | 02:41:57 | 00:00:00 | |
| DM0DOS-11 | 2026-09-02 19:14:15 | 49.00409 | 8.77821 | 131° | 135km/h | 9935m | -8m/s | -41.5°C | 76.2% | 283.3hPa | 2.5V | 02:33:43 | 02:41:51 | 00:00:00 | |
| DK7TD | 2026-09-02 19:14:10 | 49.00409 | 8.77821 | 132° | 135km/h | 9935m | -8m/s | -41.5°C | 76.5% | 283.3hPa | 2.5V | 02:34:04 | 02:41:51 | 00:00:00 | |
| BIOWL1-15 | 2026-09-02 19:14:10 | 49.00455 | 8.77743 | 131° | 137km/h | 9951m | -7.9m/s | -41.7°C | 76.5% | 282.7hPa | 2.5V | 02:34:04 | 02:41:49 | 00:00:00 | |
| BIOWL9-15 | 2026-09-02 19:14:09 | 49.00455 | 8.77743 | 131° | 137km/h | 9951m | -7.9m/s | -41.7°C | 68.3% | 282.7hPa | 2.5V | 00:00:00 | 00:00:00 | 00:00:00 | |
| NBG1-10 | 2026-09-02 19:14:08 | 49.00455 | 8.77742 | 132° | 139km/h | 9951m | -7.8m/s | -41.6°C | 76.4% | 282.6hPa | 2.5V | 00:00:00 | 02:41:49 | 00:00:00 | |
| HARRO8 | 2026-09-02 19:14:07 | 49.00478 | 8.77703 | 131° | 135km/h | 9959m | -8.7m/s | -41.7°C | 68.5% | 282.3hPa | 2.5V | 00:00:00 | 00:00:00 | 00:00:00 | |
| DO3MHA-11 | 2026-09-02 19:14:06 | 49.00501 | 8.77664 | 132° | 139km/h | 9968m | -8.6m/s | -41.8°C | 76.9% | 281.9hPa | 2.5V | 00:00:00 | 02:41:47 | 00:00:00 | |
| DM0DOS-11 | 2026-09-02 19:14:05 | 49.00640 | 8.77426 | 132° | 139km/h | 10016m | -8.2m/s | -42.1°C | 78.6% | 280hPa | 2.5V | 02:33:53 | 02:41:41 | 00:00:00 | |
| BIOWL1-15 | 2026-09-02 19:14:00 | 49.00687 | 8.77347 | 132° | 139km/h | 10032m | -7.2m/s | -42.3°C | 78.7% | 279.3hPa | 2.5V | 02:34:04 | 02:41:39 | 00:00:00 | |
| DK7TD | 2026-09-02 19:13:59 | 49.00664 | 8.77387 | 132° | 139km/h | 10024m | -7.8m/s | -42.2°C | 78.5% | 279.7hPa | 2.5V | 02:34:04 | 02:41:40 | 00:00:00 | |
| DL0LBS | 2026-09-02 19:13:57 | 49.00687 | 8.77347 | 133° | 139km/h | 10032m | -7.2m/s | -42.3°C | 70.3% | 279.3hPa | 2.5V | 02:34:00 | 00:00:00 | 00:00:00 | |
| DO3MHA-11 | 2026-09-02 19:13:56 | 49.00734 | 8.77269 | 134° | 139km/h | 10047m | -8.1m/s | -42.3°C | 78.9% | 278.7hPa | 2.5V | 02:33:00 | 02:41:37 | 00:00:00 | |
| DM0DOS-11 | 2026-09-02 19:13:55 | 49.00878 | 8.77037 | 133° | 139km/h | 10096m | -8.6m/s | -42.8°C | 78.6% | 276.7hPa | 2.5V | 02:34:03 | 02:41:31 | 00:00:00 | |
| BIOWL1-15 | 2026-09-02 19:13:49 | 49.00950 | 8.76920 | 132° | 141km/h | 10120m | -7.6m/s | -43°C | 78.5% | 275.8hPa | 2.5V | 02:34:55 | 02:41:28 | 00:00:00 | |
| DK7TD | 2026-09-02 19:13:48 | 49.00926 | 8.76959 | 133° | 141km/h | 10112m | -8m/s | -42.9°C | 78.6% | 276.1hPa | 2.5V | 02:34:55 | 02:41:29 | 00:00:00 | |
| DF7PN | 2026-09-02 19:13:46 | 49.00997 | 8.76840 | 131° | 137km/h | 10136m | -8.8m/s | -43.1°C | 69.7% | 275.1hPa | 2.5V | 00:00:00 | 00:00:00 | 00:00:00 | |
| DM0DOS-11 | 2026-09-02 19:13:45 | 49.01116 | 8.76643 | 133° | 139km/h | 10176m | -8.4m/s | -43.5°C | 79.1% | 273.4hPa | 2.5V | 02:34:13 | 02:41:21 | 00:00:00 | |
| DK7TD | 2026-09-02 19:13:37 | 49.01189 | 8.76526 | 134° | 141km/h | 10200m | -8.3m/s | -43.7°C | 79.9% | 272.5hPa | 2.6V | 02:34:55 | 02:41:18 | 00:00:00 | |
| BIOWL1-15 | 2026-09-02 19:13:36 | 49.01214 | 8.76488 | 134° | 139km/h | 10208m | -8.5m/s | -43.8°C | 80% | 272.2hPa | 2.5V | 02:34:55 | 02:41:17 | 00:00:00 | |
| BIOWL1-15 | 2026-09-02 19:13:28 | 49.01464 | 8.76100 | 134° | 142km/h | 10289m | -7.8m/s | -44.6°C | 80.9% | 269hPa | 2.5V | 02:34:55 | 02:41:07 | 00:00:00 | |
| DK7TD | 2026-09-02 19:13:27 | 49.01439 | 8.76140 | 134° | 144km/h | 10281m | -7m/s | -44.5°C | 80.9% | 269.3hPa | 2.5V | 02:34:55 | 02:41:08 | 00:00:00 | |
| DO3MHA-11 | 2026-09-02 19:13:26 | 49.01464 | 8.76100 | 135° | 142km/h | 10289m | -7.7m/s | -44.5°C | 81.1% | 268.9hPa | 2.5V | 02:34:00 | 02:41:07 | 00:00:00 | |
| DM0DOS-11 | 2026-09-02 19:13:25 | 49.01616 | 8.75865 | 134° | 142km/h | 10336m | -7.9m/s | -45°C | 80% | 267.1hPa | 2.5V | 02:34:33 | 02:41:01 | 00:00:00 | |
| DK7TD | 2026-09-02 19:13:16 | 49.01716 | 8.75711 | 135° | 141km/h | 10370m | -8.6m/s | -45.3°C | 80% | 265.8hPa | 2.5V | 02:34:55 | 02:40:57 | 00:00:00 | |
| DO3MHA-11 | 2026-09-02 19:13:16 | 49.01716 | 8.75711 | 135° | 142km/h | 10370m | -8.6m/s | -45.2°C | 79.6% | 265.7hPa | 2.5V | 00:00:00 | 02:40:57 | 00:00:00 | |
| DM0DOS-11 | 2026-09-02 19:13:15 | 49.01867 | 8.75476 | 133° | 142km/h | 10420m | -8.9m/s | -45.7°C | 78% | 263.8hPa | 2.5V | 02:34:43 | 02:40:51 | 00:00:00 | |
| BIOWL1-15 | 2026-09-02 19:13:15 | 49.01741 | 8.75672 | 135° | 142km/h | 10378m | -8.1m/s | -45.4°C | 80% | 265.4hPa | 2.6V | 02:34:55 | 02:40:56 | 00:00:00 | |
| DK7TD | 2026-09-02 19:13:06 | 49.01966 | 8.75318 | 133° | 141km/h | 10453m | -7.8m/s | -46°C | 78.1% | 262.5hPa | 2.5V | 02:34:55 | 02:40:47 | 00:00:00 | |
| BIOWL1-15 | 2026-09-02 19:12:58 | 49.02164 | 8.75012 | 135° | 142km/h | 10520m | -7.6m/s | -46.5°C | 76.5% | 259.9hPa | 2.6V | 02:34:55 | 02:40:39 | 00:00:00 | |
| DK7TD | 2026-09-02 19:12:56 | 49.02215 | 8.74934 | 134° | 142km/h | 10536m | -8.1m/s | -46.6°C | 76.3% | 259.3hPa | 2.5V | 02:35:46 | 02:40:37 | 00:00:00 | |
| DO3MHA-11 | 2026-09-02 19:12:56 | 49.02215 | 8.74934 | 135° | 142km/h | 10536m | -8.0m/s | -46.5°C | 76.2% | 259.3hPa | 2.5V | 02:34:00 | 02:40:37 | 00:00:00 | |
| DL0LBS | 2026-09-02 19:12:55 | 49.02215 | 8.74934 | 135° | 142km/h | 10536m | -8.1m/s | -46.6°C | 66.9% | 259.3hPa | 2.5V | 02:35:00 | 00:00:00 | 00:00:00 | |
| DM0DOS-11 | 2026-09-02 19:12:53 | 49.02412 | 8.74617 | 133° | 142km/h | 10599m | -8m/s | -47.1°C | 76.4% | 256.8hPa | 2.5V | 02:35:05 | 02:40:29 | 00:00:00 | |
| BIOWL1-15 | 2026-09-02 19:12:48 | 49.02412 | 8.74617 | 133° | 142km/h | 10599m | -8m/s | -47.1°C | 76.4% | 256.8hPa | 2.5V | 02:35:46 | 02:40:29 | 00:00:00 | |
| DK7TD | 2026-09-02 19:12:45 | 49.02487 | 8.74497 | 134° | 144km/h | 10623m | -8.2m/s | -47.2°C | 76.3% | 255.9hPa | 2.5V | 02:35:46 | 02:40:26 | 00:00:00 | |
| DM0DOS-11 | 2026-09-02 19:12:43 | 49.02664 | 8.74213 | 133° | 146km/h | 10680m | -8.4m/s | -47.6°C | 75.2% | 253.6hPa | 2.5V | 02:35:15 | 02:40:19 | 00:00:00 | |
| BIOWL1-15 | 2026-09-02 19:12:37 | 49.02689 | 8.74172 | 133° | 144km/h | 10688m | -8.4m/s | -47.7°C | 76.1% | 253.3hPa | 2.5V | 02:35:46 | 02:40:18 | 00:00:00 | |
| DK7TD | 2026-09-02 19:12:35 | 49.02739 | 8.74090 | 134° | 146km/h | 10705m | -8.6m/s | -47.8°C | 76.1% | 252.7hPa | 2.5V | 02:35:46 | 02:40:16 | 00:00:00 | |
| BIOWL1-15 | 2026-09-02 19:12:28 | 49.02964 | 8.73721 | 133° | 144km/h | 10778m | -8.5m/s | -48.4°C | 75.4% | 249.9hPa | 2.5V | 02:35:46 | 02:40:07 | 00:00:00 | |
| DK7TD | 2026-09-02 19:12:24 | 49.03013 | 8.73638 | 132° | 144km/h | 10795m | -8.7m/s | -48.5°C | 75.2% | 249.3hPa | 2.6V | 02:35:46 | 02:40:05 | 00:00:00 | |
| BIOWL1-15 | 2026-09-02 19:12:17 | 49.03231 | 8.73263 | 131° | 142km/h | 10869m | -8.7m/s | -49.1°C | 74.6% | 246.5hPa | 2.5V | 02:35:46 | 02:39:56 | 00:00:00 | |
| DK7TD | 2026-09-02 19:12:13 | 49.03278 | 8.73181 | 131° | 142km/h | 10886m | -8.5m/s | -49.2°C | 74.2% | 245.8hPa | 2.5V | 02:35:46 | 02:39:54 | 00:00:00 | |
| DB0NH | 2026-09-02 19:12:13 | 49.03277 | 8.73181 | 132° | 146km/h | 10886m | -8.4m/s | -49.2°C | 73.6% | 245.8hPa | 2.5V | 02:35:00 | 02:39:54 | 00:00:00 | |
| DK5PH-5 | 2026-09-02 19:12:12 | 49.03301 | 8.73140 | 131° | 146km/h | 10894m | -8.3m/s | -49.3°C | 73.4% | 245.5hPa | 2.5V | 00:00:00 | 02:39:53 | 00:00:00 | |
| DM0DOS-11 | 2026-09-02 19:12:11 | 49.03444 | 8.72888 | 130° | 142km/h | 10943m | -8.3m/s | -49.7°C | 72.9% | 243.7hPa | 2.5V | 02:35:47 | 02:39:47 | 00:00:00 | |
| BIOWL1-15 | 2026-09-02 19:12:04 | 49.03492 | 8.72806 | 131° | 142km/h | 10961m | -8.7m/s | -49.8°C | 73% | 243.1hPa | 2.5V | 02:36:37 | 02:39:45 | 00:00:00 | |
| DK7TD | 2026-09-02 19:12:02 | 49.03541 | 8.72723 | 131° | 144km/h | 10977m | -7.8m/s | -49.9°C | 72.9% | 242.4hPa | 2.5V | 02:36:37 | 02:39:43 | 00:00:00 | |
| DF3TZ-5 | 2026-09-02 19:12:02 | 49.03565 | 8.72681 | 132° | 144km/h | 10985m | -8.3m/s | -49.9°C | 62.1% | 242.2hPa | 2.5V | 00:00:00 | 00:00:00 | 00:00:00 | |
| DM0DOS-11 | 2026-09-02 19:12:01 | 49.03690 | 8.72472 | 132° | 148km/h | 11026m | -8.7m/s | -50.2°C | 71.1% | 240.7hPa | 2.5V | 02:35:57 | 02:39:37 | 00:00:00 | |
| BIOWL1-15 | 2026-09-02 19:11:53 | 49.03765 | 8.72345 | 132° | 148km/h | 11051m | -7.9m/s | -50.4°C | 72% | 239.7hPa | 2.5V | 02:36:37 | 02:39:34 | 00:00:00 | |
| DK7TD | 2026-09-02 19:11:52 | 49.03790 | 8.72303 | 133° | 148km/h | 11059m | -8.3m/s | -50.5°C | 71.9% | 239.4hPa | 2.5V | 02:36:37 | 02:39:33 | 00:00:00 | |
| DM0DOS-11 | 2026-09-02 19:11:51 | 49.03938 | 8.72057 | 132° | 144km/h | 11109m | -8.8m/s | -50.9°C | 70.3% | 237.6hPa | 2.5V | 02:36:07 | 02:39:27 | 00:00:00 | |
| BIOWL1-15 | 2026-09-02 19:11:45 | 49.04014 | 8.71934 | 133° | 148km/h | 11134m | -8.6m/s | -51.1°C | 70.8% | 236.7hPa | 2.5V | 02:36:37 | 02:39:24 | 00:00:00 | |
| DK7TD | 2026-09-02 19:11:42 | 49.04041 | 8.71893 | 134° | 151km/h | 11143m | -8.4m/s | -51.2°C | 70.4% | 236.4hPa | 2.5V | 02:36:37 | 02:39:23 | 00:00:00 | |
| DK7TD | 2026-09-02 19:11:32 | 49.04302 | 8.71468 | 133° | 146km/h | 11225m | -8.4m/s | -51.9°C | 67.4% | 233.4hPa | 2.6V | 02:36:37 | 02:39:13 | 00:00:00 | |
| BIOWL1-15 | 2026-09-02 19:11:21 | 49.04580 | 8.71016 | 133° | 146km/h | 11320m | -8.1m/s | -52.7°C | 64.4% | 230hPa | 2.6V | 02:36:37 | 02:39:02 | 00:00:00 | |
| BIOWL1-15 | 2026-09-02 19:11:13 | 49.04836 | 8.70608 | 134° | 148km/h | 11407m | -8.5m/s | -53.4°C | 60% | 227hPa | 2.5V | 02:37:28 | 02:38:52 | 00:00:00 | |
| DK5PH-5 | 2026-09-02 19:11:12 | 49.04810 | 8.70648 | 135° | 142km/h | 11398m | -8.8m/s | -53.2°C | 59.6% | 227.2hPa | 2.5V | 00:00:00 | 02:38:53 | 00:00:00 | |
| DM0DOS-11 | 2026-09-02 19:11:10 | 49.04989 | 8.70366 | 132° | 144km/h | 11460m | -8.6m/s | -53.8°C | 55.5% | 225.1hPa | 2.5V | 02:36:48 | 02:38:46 | 00:00:00 | |
| DK7TD | 2026-09-02 19:11:10 | 49.04862 | 8.70568 | 135° | 148km/h | 11415m | -8.6m/s | -53.4°C | 59.4% | 226.7hPa | 2.6V | 02:37:28 | 02:38:51 | 00:00:00 | |
| HEMX73-11 | 2026-09-02 19:11:08 | 49.04888 | 8.70527 | 135° | 144km/h | 11424m | -8.8m/s | -53.5°C | 48.6% | 226.3hPa | 2.5V | 02:37:00 | 00:00:00 | 00:00:00 | |
| DO3MHA-11 | 2026-09-02 19:11:06 | 49.04964 | 8.70406 | 134° | 142km/h | 11451m | -9.1m/s | -53.7°C | 56.3% | 225.3hPa | 2.5V | 00:00:00 | 02:38:47 | 00:00:00 | |
| DB0NH | 2026-09-02 19:11:05 | 49.04989 | 8.70366 | 133° | 135km/h | 11460m | -8.5m/s | -53.7°C | 55.5% | 225.0hPa | 2.5V | 00:00:00 | 02:38:46 | 00:00:00 | |
| DF2AP-13 | 2026-09-02 19:11:04 | 49.05014 | 8.70325 | 134° | 141km/h | 11468m | -8.7m/s | -53.7°C | 54.6% | 224.7hPa | 2.5V | 00:00:00 | 02:38:45 | 00:00:00 | |
| DO3DL | 2026-09-02 19:11:03 | 49.05014 | 8.70325 | 134° | 144km/h | 11468m | -8.7m/s | -53.8°C | 45.5% | 224.8hPa | 2.5V | 00:00:00 | 00:00:00 | 00:00:00 | |
| DN1GJH-1 | 2026-09-02 19:11:02 | 49.05038 | 8.70285 | 134° | 142km/h | 11477m | -8.7m/s | -53.9°C | 44.8% | 224.5hPa | 2.5V | 02:37:00 | 00:00:00 | 00:00:00 | |
| HARRO8 | 2026-09-02 19:11:01 | 49.05113 | 8.70166 | 133° | 142km/h | 11503m | -8.4m/s | -54.1°C | 42.6% | 223.6hPa | 2.5V | 00:00:00 | 00:00:00 | 00:00:00 | |
| DM0DOS-11 | 2026-09-02 19:11:00 | 49.05238 | 8.69969 | 133° | 141km/h | 11546m | -8.9m/s | -54.4°C | 47.2% | 222hPa | 2.5V | 02:36:58 | 02:38:36 | 00:00:00 | |
| BIOWL1-15 | 2026-09-02 19:11:00 | 49.05113 | 8.70166 | 134° | 142km/h | 11503m | -8.4m/s | -54.1°C | 52.4% | 223.6hPa | 2.5V | 02:37:28 | 02:38:41 | 00:00:00 | |
| DK7TD | 2026-09-02 19:10:59 | 49.05138 | 8.70126 | 134° | 142km/h | 11511m | -8.7m/s | -54.2°C | 51.4% | 223.3hPa | 2.5V | 02:37:28 | 02:38:40 | 00:00:00 | |
| DB0ND-19 | 2026-09-02 19:10:54 | 49.05263 | 8.69930 | 134° | 141km/h | 11555m | -9.1m/s | -54.5°C | 38.2% | 221.7hPa | 2.5V | 00:00:00 | 00:00:00 | 00:00:00 | |
| SFWM-10 | 2026-09-02 19:10:53 | 49.05263 | 8.69930 | 135° | 142km/h | 11555m | -9.1m/s | -54.5°C | 38.2% | 221.7hPa | 2.5V | 00:00:00 | 00:00:00 | 00:00:00 | |
| DL0LBS | 2026-09-02 19:10:51 | 49.05312 | 8.69851 | 135° | 142km/h | 11573m | -9.0m/s | -54.7°C | 37.5% | 221.1hPa | 2.5V | 02:37:00 | 00:00:00 | 00:00:00 | |
| DM0DOS-11 | 2026-09-02 19:10:50 | 49.05485 | 8.69582 | 135° | 141km/h | 11636m | -9.1m/s | -55°C | 45.4% | 219hPa | 2.5V | 02:37:08 | 02:38:26 | 00:00:00 | |
| DK7TD | 2026-09-02 19:10:49 | 49.05386 | 8.69735 | 134° | 141km/h | 11600m | -8.9m/s | -54.8°C | 46.2% | 220.2hPa | 2.5V | 02:37:28 | 02:38:30 | 00:00:00 | |
| BIOWL1-15 | 2026-09-02 19:10:41 | 49.05637 | 8.69356 | 136° | 141km/h | 11690m | -9.1m/s | -55.3°C | 47.3% | 217.2hPa | 2.5V | 02:37:28 | 02:38:20 | 00:00:00 | |
| DK7TD | 2026-09-02 19:10:38 | 49.05662 | 8.69318 | 136° | 141km/h | 11699m | -9.6m/s | -55.4°C | 47.4% | 216.9hPa | 2.5V | 02:37:28 | 02:38:19 | 00:00:00 | |
| DO3DL | 2026-09-02 19:10:37 | 49.05662 | 8.69318 | 137° | 141km/h | 11700m | -9.6m/s | -55.4°C | 38.0% | 216.9hPa | 2.6V | 00:00:00 | 00:00:00 | 00:00:00 | |
| DO3MHA-11 | 2026-09-02 19:10:36 | 49.05713 | 8.69243 | 136° | 142km/h | 11718m | -8.9m/s | -55.5°C | 46.7% | 216.2hPa | 2.6V | 00:00:00 | 02:38:17 | 00:00:00 | |
| DF2AP-13 | 2026-09-02 19:10:34 | 49.05764 | 8.69166 | 136° | 144km/h | 11736m | -9.4m/s | -55.6°C | 46.8% | 215.6hPa | 2.6V | 00:00:00 | 02:38:15 | 00:00:00 | |
| DF1GD-15 | 2026-09-02 19:10:31 | 49.05815 | 8.69090 | 136° | 141km/h | 11754m | -9.2m/s | -55.7°C | 38.4% | 215.0hPa | 2.6V | 02:37:00 | 00:00:00 | 00:00:00 | |
| DL0LBS | 2026-09-02 19:10:30 | 49.05840 | 8.69051 | 136° | 141km/h | 11763m | -9.3m/s | -55.8°C | 38.2% | 214.7hPa | 2.6V | 02:37:00 | 00:00:00 | 00:00:00 | |
| DM0DOS-11 | 2026-09-02 19:10:29 | 49.06025 | 8.68777 | 135° | 150km/h | 11827m | -9.3m/s | -56.2°C | 47.2% | 212.6hPa | 2.6V | 02:37:29 | 02:38:05 | 00:00:00 | |
| BIOWL1-15 | 2026-09-02 19:10:29 | 49.05892 | 8.68975 | 136° | 144km/h | 11781m | -8.6m/s | -55.8°C | 47.8% | 214.1hPa | 2.6V | 02:37:28 | 02:38:10 | 00:00:00 | |
| DK7TD | 2026-09-02 19:10:28 | 49.05918 | 8.68936 | 136° | 144km/h | 11790m | -9.3m/s | -55.9°C | 47.7% | 213.8hPa | 2.5V | 02:37:28 | 02:38:09 | 00:00:00 | |
| BIOWL1-15 | 2026-09-02 19:10:21 | 49.06158 | 8.68579 | 136° | 144km/h | 11871m | -9m/s | -56.5°C | 48.3% | 211.1hPa | 2.6V | 02:38:19 | 02:38:00 | 00:00:00 | |
| DN1GJH-1 | 2026-09-02 19:10:20 | 49.06105 | 8.68656 | 136° | 146km/h | 11854m | -8.2m/s | -56.4°C | 38.8% | 211.6hPa | 2.5V | 02:38:00 | 00:00:00 | 00:00:00 | |
| DM0DOS-11 | 2026-09-02 19:10:19 | 49.06289 | 8.68386 | 135° | 144km/h | 11917m | -9.2m/s | -56.8°C | 48.2% | 209.5hPa | 2.5V | 02:37:39 | 02:37:55 | 00:00:00 | |
| DK7TD | 2026-09-02 19:10:17 | 49.06211 | 8.68501 | 136° | 144km/h | 11890m | -9.6m/s | -56.7°C | 48.5% | 210.4hPa | 2.5V | 02:38:19 | 02:37:58 | 00:00:00 | |
| BIOWL1-15 | 2026-09-02 19:10:12 | 49.06442 | 8.68154 | 135° | 142km/h | 11973m | -9.5m/s | -57.1°C | 48.6% | 207.6hPa | 2.5V | 02:38:19 | 02:37:49 | 00:00:00 | |
| DK5PH-5 | 2026-09-02 19:10:12 | 49.06340 | 8.68309 | 135° | 144km/h | 11936m | -9.4m/s | -56.9°C | 48.3% | 208.9hPa | 2.6V | 02:37:00 | 02:37:53 | 00:00:00 | |
| DF1GD-15 | 2026-09-02 19:10:10 | 49.06366 | 8.68270 | 137° | 142km/h | 11945m | -9.5m/s | -57.0°C | 39.1% | 208.6hPa | 2.5V | 02:38:00 | 00:00:00 | 00:00:00 | |
| DM0DOS-11 | 2026-09-02 19:10:09 | 49.06541 | 8.67997 | 133° | 141km/h | 12010m | -9.3m/s | -57.4°C | 48.5% | 206.4hPa | 2.5V | 02:37:49 | 02:37:45 | 00:00:00 | |
| DK7TD | 2026-09-02 19:10:06 | 49.06492 | 8.68076 | 134° | 142km/h | 11992m | -9.1m/s | -57.2°C | 48.6% | 207.1hPa | 2.6V | 02:38:19 | 02:37:47 | 00:00:00 | |
| DO3MHA-11 | 2026-09-02 19:10:06 | 49.06492 | 8.68076 | 134° | 142km/h | 11992m | -9.0m/s | -57.2°C | 48.2% | 207.0hPa | 2.5V | 00:00:00 | 02:37:47 | 00:00:00 | |
| HEMX73-11 | 2026-09-02 19:10:05 | 49.06491 | 8.68076 | 135° | 142km/h | 11992m | -9.1m/s | -57.2°C | 38.9% | 207.1hPa | 2.5V | 02:38:00 | 00:00:00 | 00:00:00 | |
| DF2AP-13 | 2026-09-02 19:10:04 | 49.06541 | 8.67997 | 134° | 144km/h | 12010m | -9.3m/s | -57.3°C | 48.5% | 206.4hPa | 2.5V | 02:37:00 | 02:37:45 | 00:00:00 | |
| DB0UT-9 | 2026-09-02 19:10:03 | 49.06541 | 8.67997 | 134° | 141km/h | 12010m | -9.3m/s | -57.4°C | 39.1% | 206.4hPa | 2.5V | 02:38:00 | 00:00:00 | 00:00:00 | |
| CB1BUN | 2026-09-02 19:10:01 | 49.06590 | 8.67918 | 134° | 142km/h | 12028m | -9.3m/s | -57.5°C | 38.9% | 205.8hPa | 2.5V | 02:38:00 | 00:00:00 | 00:00:00 | |
| KANTATE | 2026-09-02 19:10:00 | 49.06616 | 8.67879 | 135° | 144km/h | 12037m | -9.7m/s | -57.6°C | 38.8% | 205.5hPa | 2.5V | 02:38:00 | 00:00:00 | 00:00:00 | |
| DM0DOS-11 | 2026-09-02 19:09:59 | 49.06791 | 8.67602 | 134° | 146km/h | 12106m | -19.6m/s | -58.2°C | 47.4% | 203.4hPa | 2.5V | 02:37:59 | 02:37:35 | 00:00:00 | |
| BIOWL1-15 | 2026-09-02 19:09:59 | 49.06715 | 8.67720 | 134° | 142km/h | 12073m | -9.6m/s | -58°C | 47.6% | 204.3hPa | 2.5V | 02:38:19 | 02:37:38 | 00:00:00 | |
| DK7TD | 2026-09-02 19:09:56 | 49.06740 | 8.67681 | 134° | 141km/h | 12083m | -10.1m/s | -58.1°C | 47.3% | 204hPa | 2.6V | 02:38:19 | 02:37:37 | 00:00:00 | |
| DB0ND-19 | 2026-09-02 19:09:52 | 49.06842 | 8.67523 | 134° | 144km/h | 12130m | -9.4m/s | -58.4°C | 37.5% | 202.7hPa | 2.6V | 00:00:00 | 00:00:00 | 00:00:00 | |
| DM0DOS-11 | 2026-09-02 19:09:49 | 49.07053 | 8.67204 | 136° | 148km/h | 12207m | -10m/s | -58.8°C | 44.8% | 200.3hPa | 2.6V | 02:38:09 | 02:37:25 | 00:00:00 | |
| BIOWL1-15 | 2026-09-02 19:09:46 | 49.06999 | 8.67283 | 136° | 146km/h | 12187m | -9.8m/s | -58.7°C | 44.5% | 200.8hPa | 2.5V | 02:38:19 | 02:37:27 | 00:00:00 | |
| DO3MHA-11 | 2026-09-02 19:09:46 | 49.06999 | 8.67282 | 136° | 146km/h | 12188m | -9.7m/s | -58.6°C | 45.4% | 200.8hPa | 2.6V | 00:00:00 | 02:37:27 | 00:00:00 | |
| SFWM-10 | 2026-09-02 19:09:45 | 49.06999 | 8.67283 | 137° | 146km/h | 12188m | -9.8m/s | -58.7°C | 36.0% | 200.8hPa | 2.6V | 00:00:00 | 00:00:00 | 00:00:00 | |
| HEMX73-11 | 2026-09-02 19:09:44 | 49.07025 | 8.67243 | 136° | 146km/h | 12197m | -9.4m/s | -58.7°C | 35.7% | 200.5hPa | 2.6V | 02:38:00 | 00:00:00 | 00:00:00 | |
| DB0UT-9 | 2026-09-02 19:09:43 | 49.07053 | 8.67204 | 138° | 148km/h | 12207m | -10.0m/s | -58.8°C | 35.5% | 200.3hPa | 2.6V | 02:38:00 | 00:00:00 | 00:00:00 | |
| DK5PH-5 | 2026-09-02 19:09:42 | 49.07106 | 8.67127 | 137° | 139km/h | 12227m | -9.6m/s | -58.8°C | 44.4% | 199.6hPa | 2.6V | 00:00:00 | 02:37:23 | 00:00:00 | |
| DM7RM-13 | 2026-09-02 19:09:40 | 49.07133 | 8.67088 | 138° | 146km/h | 12236m | -9.9m/s | -58.9°C | 35.0% | 199.3hPa | 2.6V | 02:38:00 | 00:00:00 | 00:00:00 | |
| KANTATE | 2026-09-02 19:09:39 | 49.07160 | 8.67050 | 138° | 146km/h | 12246m | -9.7m/s | -58.9°C | 34.6% | 199.0hPa | 2.6V | 02:38:00 | 00:00:00 | 00:00:00 | |
| DM0DOS-11 | 2026-09-02 19:09:38 | 49.07353 | 8.66793 | 139° | 142km/h | 12314m | -9.7m/s | -58.9°C | 42.7% | 196.8hPa | 2.6V | 02:38:20 | 02:37:14 | 00:00:00 | |
| BIOWL1-15 | 2026-09-02 19:09:35 | 49.07298 | 8.66865 | 139° | 144km/h | 12294m | -10m/s | -58.8°C | 42.3% | 197.4hPa | 2.5V | 02:38:19 | 02:37:16 | 00:00:00 | |
| DK7TD | 2026-09-02 19:09:24 | 49.07596 | 8.66480 | 140° | 135km/h | 12403m | -10m/s | -59.5°C | 40.3% | 194.1hPa | 2.5V | 02:39:10 | 02:37:05 | 00:00:00 | |
| HEMX73-11 | 2026-09-02 19:09:23 | 49.07596 | 8.66480 | 141° | 135km/h | 12404m | -10.0m/s | -59.5°C | 32.2% | 194.1hPa | 2.6V | 02:39:00 | 00:00:00 | 00:00:00 | |
| DM0DOS-11 | 2026-09-02 19:09:22 | 49.07778 | 8.66253 | 140° | 130km/h | 12473m | -9.9m/s | -60°C | 39.2% | 191.9hPa | 2.6V | 02:38:36 | 02:36:58 | 00:00:00 | |
| BIOWL1-15 | 2026-09-02 19:09:15 | 49.07879 | 8.66125 | 139° | 128km/h | 12514m | -10.3m/s | -60.2°C | 35.3% | 190.7hPa | 2.5V | 02:39:10 | 02:36:54 | 00:00:00 | |
| DK7TD | 2026-09-02 19:09:14 | 49.07854 | 8.66158 | 140° | 131km/h | 12503m | -10.5m/s | -60.2°C | 35.8% | 190.9hPa | 2.5V | 02:39:10 | 02:36:55 | 00:00:00 | |
| DK7TD | 2026-09-02 19:09:03 | 49.08115 | 8.65790 | 135° | 126km/h | 12614m | -10.4m/s | -60.5°C | 29.3% | 187.6hPa | 2.5V | 02:39:10 | 02:36:44 | 00:00:00 | |
| DM0DOS-11 | 2026-09-02 19:09:02 | 49.08245 | 8.65581 | 131° | 124km/h | 12676m | -10.7m/s | -60.2°C | 28.3% | 185.8hPa | 2.5V | 02:38:56 | 02:36:38 | 00:00:00 | |
| DK7TD | 2026-09-02 19:08:53 | 49.08327 | 8.65438 | 130° | 122km/h | 12718m | -10.7m/s | -59.1°C | 22.5% | 184.5hPa | 2.5V | 02:39:10 | 02:36:34 | 00:00:00 | |
| BIOWL1-15 | 2026-09-02 19:08:52 | 49.08347 | 8.65402 | 130° | 122km/h | 12729m | -10.9m/s | -59.1°C | 22.4% | 184.2hPa | 2.5V | 02:39:10 | 02:36:33 | 00:00:00 | |
| DB0ND-19 | 2026-09-02 19:08:50 | 49.08387 | 8.65329 | 129° | 122km/h | 12750m | -10.5m/s | -59.0°C | 16.9% | 183.6hPa | 2.6V | 00:00:00 | 00:00:00 | 00:00:00 | |
| DK7TD | 2026-09-02 19:08:43 | 49.08528 | 8.65078 | 133° | 120km/h | 12824m | -10.9m/s | -58.8°C | 20.4% | 181.5hPa | 2.6V | 02:39:10 | 02:36:24 | 00:00:00 | |
| BIOWL1-15 | 2026-09-02 19:08:41 | 49.08569 | 8.65011 | 133° | 117km/h | 12846m | -10.8m/s | -59°C | 19.7% | 180.9hPa | 2.5V | 02:40:01 | 02:36:22 | 00:00:00 | |
| DK7TD | 2026-09-02 19:08:32 | 49.08745 | 8.64723 | 133° | 108km/h | 12939m | -10.6m/s | -58.7°C | 16.5% | 178.2hPa | 2.6V | 02:40:01 | 02:36:13 | 00:00:00 | |
| BIOWL1-15 | 2026-09-02 19:08:31 | 49.08764 | 8.64692 | 132° | 110km/h | 12950m | -10.3m/s | -58.5°C | 16.1% | 177.8hPa | 2.5V | 02:40:01 | 02:36:12 | 00:00:00 | |
| DK7TD | 2026-09-02 19:08:22 | 49.08941 | 8.64407 | 134° | 117km/h | 13044m | -10.9m/s | -58.7°C | 14% | 175.2hPa | 2.6V | 02:40:01 | 02:36:03 | 00:00:00 | |
| BIOWL1-15 | 2026-09-02 19:08:21 | 49.08962 | 8.64375 | 135° | 117km/h | 13055m | -10.5m/s | -58.8°C | 13.8% | 174.9hPa | 2.6V | 02:40:01 | 02:36:02 | 00:00:00 | |
| BIOWL1-15 | 2026-09-02 19:08:11 | 49.09169 | 8.64061 | 135° | 113km/h | 13160m | -10.8m/s | -58.8°C | 11.3% | 172hPa | 2.6V | 02:40:01 | 02:35:52 | 00:00:00 | |
| DK7TD | 2026-09-02 19:08:01 | 49.09355 | 8.63764 | 131° | 102km/h | 13266m | -10.7m/s | -58.3°C | 9.7% | 169.1hPa | 2.5V | 02:40:01 | 02:35:42 | 00:00:00 | |
| BIOWL1-15 | 2026-09-02 19:08:00 | 49.09372 | 8.63734 | 131° | 102km/h | 13277m | -11m/s | -58.3°C | 9.5% | 168.8hPa | 2.6V | 02:40:01 | 02:35:41 | 00:00:00 | |
| BIOWL9-15 | 2026-09-02 19:07:56 | 49.09439 | 8.63617 | 129° | 97km/h | 13319m | -10.8m/s | -58.4°C | 6.5% | 167.7hPa | 2.5V | 00:00:00 | 00:00:00 | 00:00:00 | |
| DF3TZ-5 | 2026-09-02 19:07:54 | 49.09487 | 8.63528 | 128° | 99km/h | 13351m | -10.9m/s | -58.6°C | 6.3% | 166.9hPa | 2.5V | 00:00:00 | 00:00:00 | 00:00:00 | |
| DM0DOS-11 | 2026-09-02 19:07:51 | 49.09598 | 8.63308 | 126° | 108km/h | 13426m | -10.6m/s | -59°C | 10.3% | 164.8hPa | 2.5V | 02:40:07 | 02:35:27 | 00:00:00 | |
| DK7TD | 2026-09-02 19:07:51 | 49.09519 | 8.63467 | 129° | 102km/h | 13373m | -11.1m/s | -58.7°C | 8.1% | 166.3hPa | 2.5V | 02:40:52 | 02:35:32 | 00:00:00 | |
| BIOWL1-15 | 2026-09-02 19:07:51 | 49.09551 | 8.63405 | 128° | 104km/h | 13395m | -11m/s | -58.8°C | 7.8% | 165.8hPa | 2.6V | 02:40:52 | 02:35:30 | 00:00:00 | |
| DB0ND-19 | 2026-09-02 19:07:48 | 49.09567 | 8.63374 | 126° | 102km/h | 13405m | -10.9m/s | -58.9°C | 6.0% | 165.4hPa | 2.5V | 00:00:00 | 00:00:00 | 00:00:00 | |
| DK7TD | 2026-09-02 19:07:41 | 49.09676 | 8.63137 | 124° | 108km/h | 13479m | -11m/s | -59.3°C | 6.5% | 163.5hPa | 2.5V | 02:40:52 | 02:35:22 | 00:00:00 | |
| DM0DOS-11 | 2026-09-02 19:07:41 | 49.09752 | 8.62962 | 123° | 110km/h | 13533m | -11.2m/s | -59.2°C | 9.3% | 162.1hPa | 2.5V | 02:40:17 | 02:35:17 | 00:00:00 | |
| BIOWL1-15 | 2026-09-02 19:07:38 | 49.09721 | 8.63032 | 124° | 110km/h | 13512m | -10.7m/s | -59.4°C | 6% | 162.6hPa | 2.6V | 02:40:52 | 02:35:19 | 00:00:00 | |
| KANTATE | 2026-09-02 19:07:37 | 49.09721 | 8.63032 | 125° | 110km/h | 13512m | -10.7m/s | -59.4°C | 5.1% | 162.6hPa | 2.5V | 02:40:00 | 00:00:00 | 00:00:00 | |
| DO3MHA-11 | 2026-09-02 19:07:36 | 49.09752 | 8.62962 | 124° | 113km/h | 13533m | -11.2m/s | -59.2°C | 9.3% | 162.1hPa | 2.5V | 00:00:00 | 02:35:17 | 00:00:00 | |
| DF7PN | 2026-09-02 19:07:33 | 49.09799 | 8.62855 | 123° | 111km/h | 13566m | -10.9m/s | -58.9°C | 4.4% | 161.2hPa | 2.5V | 00:00:00 | 00:00:00 | 00:00:00 | |
| DM0DOS-11 | 2026-09-02 19:07:31 | 49.09909 | 8.62599 | 123° | 110km/h | 13640m | -11.1m/s | -57.8°C | 7.4% | 159.3hPa | 2.5V | 02:40:27 | 02:35:07 | 00:00:00 | |
| DK7TD | 2026-09-02 19:07:30 | 49.09846 | 8.62744 | 123° | 113km/h | 13597m | -11.1m/s | -58.5°C | 4.5% | 160.5hPa | 2.5V | 02:40:52 | 02:35:11 | 00:00:00 | |
| BIOWL1-15 | 2026-09-02 19:07:29 | 49.09894 | 8.62635 | 125° | 113km/h | 13629m | -10.7m/s | -58°C | 4.1% | 159.6hPa | 2.6V | 02:40:52 | 02:35:08 | 00:00:00 | |
| DO3MHA-11 | 2026-09-02 19:07:26 | 49.09909 | 8.62599 | 124° | 110km/h | 13640m | -11.0m/s | -57.8°C | 7.4% | 159.3hPa | 2.5V | 02:40:00 | 02:35:07 | 00:00:00 | |
| BIOWL9-15 | 2026-09-02 19:07:25 | 49.09925 | 8.62564 | 124° | 108km/h | 13651m | -10.6m/s | -57.8°C | 3.5% | 159.1hPa | 2.6V | 00:00:00 | 00:00:00 | 00:00:00 | |
| DO8TBO-1 | 2026-09-02 19:07:24 | 49.09941 | 8.62529 | 125° | 106km/h | 13662m | -11.0m/s | -57.7°C | 7.3% | 158.8hPa | 2.6V | 00:00:00 | 02:35:05 | 00:00:00 | |
| HARRO8 | 2026-09-02 19:07:23 | 49.09957 | 8.62495 | 125° | 108km/h | 13672m | -11.1m/s | -57.7°C | 3.4% | 158.5hPa | 2.6V | 00:00:00 | 00:00:00 | 00:00:00 | |
| DN1GJH-1 | 2026-09-02 19:07:22 | 49.09957 | 8.62495 | 126° | 110km/h | 13672m | -11.1m/s | -57.7°C | 3.5% | 158.5hPa | 2.6V | 02:40:00 | 00:00:00 | 00:00:00 | |
| DM0DOS-11 | 2026-09-02 19:07:21 | 49.10069 | 8.62255 | 125° | 110km/h | 13749m | -10.2m/s | -57.3°C | 6.7% | 156.7hPa | 2.6V | 02:40:37 | 02:34:57 | 00:00:00 | |
| DK7TD | 2026-09-02 19:07:20 | 49.10005 | 8.62392 | 126° | 110km/h | 13706m | -11.2m/s | -57.6°C | 3.6% | 157.7hPa | 2.5V | 02:40:52 | 02:35:01 | 00:00:00 | |
| BIOWL1-15 | 2026-09-02 19:07:18 | 49.10069 | 8.62254 | 126° | 110km/h | 13749m | -10.2m/s | -57.3°C | 3.4% | 156.7hPa | 2.6V | 02:40:52 | 02:34:57 | 00:00:00 | |
| DB0ND-19 | 2026-09-02 19:07:17 | 49.10053 | 8.62289 | 124° | 108km/h | 13738m | -11.1m/s | -57.3°C | 3.2% | 156.9hPa | 2.6V | 00:00:00 | 00:00:00 | 00:00:00 | |
| DO3MHA-11 | 2026-09-02 19:07:16 | 49.10069 | 8.62254 | 126° | 110km/h | 13749m | -10.2m/s | -57.3°C | 6.7% | 156.6hPa | 2.6V | 00:00:00 | 02:34:57 | 00:00:00 | |
| DF2AP-13 | 2026-09-02 19:07:13 | 49.10117 | 8.62152 | 126° | 106km/h | 13780m | -10.7m/s | -57.1°C | 6.4% | 155.8hPa | 2.6V | 00:00:00 | 02:34:54 | 00:00:00 | |
| DK5PH-5 | 2026-09-02 19:07:12 | 49.10133 | 8.62118 | 126° | 106km/h | 13791m | -10.9m/s | -57.1°C | 6.4% | 155.5hPa | 2.6V | 02:40:00 | 02:34:53 | 00:00:00 | |
| DM0DOS-11 | 2026-09-02 19:07:11 | 49.10232 | 8.61917 | 128° | 110km/h | 13857m | -11m/s | -57.4°C | 6.3% | 154hPa | 2.6V | 02:40:47 | 02:34:47 | 00:00:00 | |
| DK7TD | 2026-09-02 19:07:09 | 49.10183 | 8.62016 | 126° | 110km/h | 13824m | -10.8m/s | -57.2°C | 3% | 154.8hPa | 2.5V | 02:40:52 | 02:34:50 | 00:00:00 | |
| BIOWL1-15 | 2026-09-02 19:07:06 | 49.10232 | 8.61917 | 128° | 110km/h | 13857m | -11m/s | -57.4°C | 2.9% | 154hPa | 2.6V | 02:40:52 | 02:34:47 | 00:00:00 | |
| DO3MHA-11 | 2026-09-02 19:07:06 | 49.10232 | 8.61917 | 129° | 108km/h | 13857m | -10.9m/s | -57.4°C | 6.3% | 154.0hPa | 2.6V | 00:00:00 | 02:34:47 | 00:00:00 | |
| DL1ZP-14 | 2026-09-02 19:07:05 | 49.10249 | 8.61884 | 127° | 108km/h | 13868m | -11.2m/s | -57.4°C | 2.8% | 153.7hPa | 2.6V | 00:00:00 | 00:00:00 | 00:00:00 | |
| DL0LBS | 2026-09-02 19:07:04 | 49.10249 | 8.61884 | 129° | 110km/h | 13868m | -11.2m/s | -57.4°C | 2.9% | 153.7hPa | 2.6V | 02:40:00 | 00:00:00 | 00:00:00 | |
| DF7PN | 2026-09-02 19:07:02 | 49.10300 | 8.61786 | 128° | 108km/h | 13901m | -10.8m/s | -57.6°C | 2.8% | 152.9hPa | 2.6V | 00:00:00 | 00:00:00 | 00:00:00 | |
| DB0NH | 2026-09-02 19:07:01 | 49.10317 | 8.61753 | 130° | 104km/h | 13912m | -10.7m/s | -57.6°C | 6.3% | 152.6hPa | 2.6V | 00:00:00 | 02:34:42 | 00:00:00 | |
| DM0DOS-11 | 2026-09-02 19:07:00 | 49.10423 | 8.61567 | 132° | 108km/h | 13978m | -11.2m/s | -57.5°C | 6.1% | 151.1hPa | 2.6V | 02:40:58 | 02:34:36 | 00:00:00 | |
| DK7TD | 2026-09-02 19:06:58 | 49.10370 | 8.61659 | 131° | 106km/h | 13945m | -11.4m/s | -57.5°C | 2.6% | 151.9hPa | 2.5V | 02:41:43 | 02:34:39 | 00:00:00 | |
| BIOWL1-15 | 2026-09-02 19:06:55 | 49.10423 | 8.61567 | 132° | 108km/h | 13978m | -11.2m/s | -57.5°C | 2.5% | 151.1hPa | 2.6V | 02:41:43 | 02:34:36 | 00:00:00 | |
| BIOWL9-15 | 2026-09-02 19:06:54 | 49.10441 | 8.61537 | 131° | 106km/h | 13989m | -11.2m/s | -57.6°C | 2.7% | 150.9hPa | 2.6V | 00:00:00 | 00:00:00 | 00:00:00 | |
| DF3TZ-5 | 2026-09-02 19:06:52 | 49.10492 | 8.61445 | 129° | 100km/h | 14021m | -10.9m/s | -57.8°C | 2.6% | 150.0hPa | 2.6V | 00:00:00 | 00:00:00 | 00:00:00 | |
| DM0DOS-11 | 2026-09-02 19:06:50 | 49.10590 | 8.61267 | 129° | 102km/h | 14087m | -10.6m/s | -57.9°C | 6.1% | 148.5hPa | 2.6V | 02:41:08 | 02:34:26 | 00:00:00 | |
| BIOWL1-15 | 2026-09-02 19:06:50 | 49.10606 | 8.61237 | 130° | 100km/h | 14098m | -11.5m/s | -58°C | 2.3% | 148.2hPa | 2.6V | 02:41:43 | 02:34:25 | 00:00:00 | |
| DK7TD | 2026-09-02 19:06:48 | 49.10540 | 8.61356 | 130° | 99km/h | 14054m | -11.4m/s | -57.8°C | 2.3% | 149.3hPa | 2.5V | 02:41:43 | 02:34:29 | 00:00:00 | |
| DJTTGO | 2026-09-02 19:06:47 | 49.10540 | 8.61356 | 131° | 99km/h | 14055m | -11.4m/s | -57.8°C | 2.6% | 149.3hPa | 2.5V | 02:41:00 | 00:00:00 | 00:00:00 | |
| DO3MHA-11 | 2026-09-02 19:06:46 | 49.10573 | 8.61297 | 131° | 102km/h | 14077m | -11.1m/s | -57.8°C | 6.1% | 148.7hPa | 2.5V | 00:00:00 | 02:34:27 | 00:00:00 | |
| DF1GD-15 | 2026-09-02 19:06:44 | 49.10590 | 8.61267 | 131° | 102km/h | 14087m | -10.6m/s | -57.9°C | 2.6% | 148.5hPa | 2.5V | 02:41:00 | 00:00:00 | 00:00:00 | |
| DF2AP-13 | 2026-09-02 19:06:43 | 49.10623 | 8.61207 | 131° | 100km/h | 14109m | -11.1m/s | -58.0°C | 6.2% | 147.9hPa | 2.5V | 00:00:00 | 02:34:24 | 00:00:00 | |
| DK5PH-5 | 2026-09-02 19:06:42 | 49.10640 | 8.61177 | 131° | 100km/h | 14120m | -11.3m/s | -58.0°C | 6.2% | 147.7hPa | 2.5V | 00:00:00 | 02:34:23 | 00:00:00 | |
| DO8TBO-1 | 2026-09-02 19:06:40 | 49.10673 | 8.61115 | 130° | 100km/h | 14142m | -11.2m/s | -57.9°C | 6.1% | 147.1hPa | 2.5V | 02:41:00 | 02:34:21 | 00:00:00 | |
| SFWM-10 | 2026-09-02 19:06:39 | 49.10673 | 8.61115 | 130° | 102km/h | 14142m | -11.2m/s | -57.9°C | 2.5% | 147.2hPa | 2.6V | 02:41:00 | 00:00:00 | 00:00:00 | |
| DM0DOS-11 | 2026-09-02 19:06:38 | 49.10786 | 8.60907 | 131° | 100km/h | 14221m | -11.3m/s | -57.7°C | 5.9% | 145.4hPa | 2.6V | 02:41:20 | 02:34:14 | 00:00:00 | |
| DK7TD | 2026-09-02 19:06:37 | 49.10722 | 8.61024 | 130° | 100km/h | 14175m | -11.4m/s | -57.7°C | 2% | 146.4hPa | 2.5V | 02:41:43 | 02:34:18 | 00:00:00 | |
| BIOWL1-15 | 2026-09-02 19:06:35 | 49.10786 | 8.60907 | 131° | 100km/h | 14221m | -11.3m/s | -57.7°C | 1.9% | 145.4hPa | 2.6V | 02:41:43 | 02:34:14 | 00:00:00 | |
| DL1ZP-14 | 2026-09-02 19:06:34 | 49.10770 | 8.60936 | 130° | 97km/h | 14210m | -11.3m/s | -57.7°C | 2.3% | 145.7hPa | 2.6V | 00:00:00 | 00:00:00 | 00:00:00 | |
| DJ2DS-15 | 2026-09-02 19:06:31 | 49.10818 | 8.60847 | 129° | 100km/h | 14243m | -11.3m/s | -57.6°C | 5.9% | 144.8hPa | 2.6V | 00:00:00 | 02:34:12 | 00:00:00 | |
| DM7RM-13 | 2026-09-02 19:06:29 | 49.10834 | 8.60817 | 129° | 100km/h | 14254m | -11.4m/s | -57.5°C | 2.3% | 144.6hPa | 2.6V | 02:41:00 | 00:00:00 | 00:00:00 | |
| DM0DOS-11 | 2026-09-02 19:06:28 | 49.10939 | 8.60602 | 125° | 99km/h | 14332m | -11.7m/s | -57.1°C | 5.6% | 142.9hPa | 2.6V | 02:41:30 | 02:34:04 | 00:00:00 | |
| DK7TD | 2026-09-02 19:06:27 | 49.10880 | 8.60725 | 127° | 99km/h | 14288m | -11.1m/s | -57.3°C | 1.8% | 143.8hPa | 2.5V | 02:41:43 | 02:34:08 | 00:00:00 | |
| BIOWL1-15 | 2026-09-02 19:06:22 | 49.10954 | 8.60571 | 126° | 100km/h | 14344m | -11.7m/s | -57°C | 1.6% | 142.6hPa | 2.6V | 02:41:43 | 02:34:03 | 00:00:00 | |
| HARRO8 | 2026-09-02 19:06:21 | 49.10969 | 8.60540 | 125° | 99km/h | 14355m | -11.2m/s | -56.9°C | 2.1% | 142.3hPa | 2.6V | 00:00:00 | 00:00:00 | 00:00:00 | |
| DF3TZ-5 | 2026-09-02 19:06:20 | 49.10984 | 8.60509 | 126° | 100km/h | 14367m | -11.3m/s | -56.8°C | 2.0% | 142.1hPa | 2.6V | 00:00:00 | 00:00:00 | 00:00:00 | |
| DB0UT-7 | 2026-09-02 19:06:19 | 49.10999 | 8.60478 | 126° | 106km/h | 14378m | -11.0m/s | -56.6°C | 5.3% | 141.8hPa | 2.6V | 00:00:00 | 00:00:00 | 00:00:00 | |
| DM0DOS-11 | 2026-09-02 19:06:18 | 49.11089 | 8.60286 | 125° | 104km/h | 14445m | -11.4m/s | -56.2°C | 5% | 140.3hPa | 2.6V | 02:41:40 | 02:33:54 | 00:00:00 | |
| DK7TD | 2026-09-02 19:06:17 | 49.11029 | 8.60415 | 127° | 102km/h | 14400m | -11.7m/s | -56.4°C | 1.4% | 141.4hPa | 2.6V | 02:41:43 | 02:33:58 | 00:00:00 | |
| BIOWL1-15 | 2026-09-02 19:06:11 | 49.11120 | 8.60220 | 126° | 106km/h | 14468m | -11.6m/s | -56.2°C | 1.2% | 139.8hPa | 2.5V | 02:41:43 | 02:33:52 | 00:00:00 | |
| DJ2DS-15 | 2026-09-02 19:06:11 | 49.11120 | 8.60220 | 127° | 108km/h | 14469m | -11.6m/s | -56.1°C | 5.0% | 139.7hPa | 2.5V | 00:00:00 | 02:33:52 | 00:00:00 | |
| DO8TBO-1 | 2026-09-02 19:06:10 | 49.11136 | 8.60187 | 128° | 106km/h | 14480m | -11.6m/s | -56.0°C | 5.0% | 139.5hPa | 2.5V | 00:00:00 | 02:33:51 | 00:00:00 | |
| DM7RM-13 | 2026-09-02 19:06:09 | 49.11136 | 8.60187 | 129° | 108km/h | 14480m | -11.6m/s | -56.1°C | 1.9% | 139.5hPa | 2.5V | 02:41:00 | 00:00:00 | 00:00:00 | |
| DM0DOS-11 | 2026-09-02 19:06:08 | 49.11257 | 8.59956 | 129° | 110km/h | 14561m | -11.5m/s | -56.1°C | 4.9% | 137.8hPa | 2.5V | 02:41:50 | 02:33:44 | 00:00:00 | |
| DK7TD | 2026-09-02 19:06:06 | 49.11204 | 8.60054 | 128° | 110km/h | 14526m | -11.8m/s | -56.1°C | 1.1% | 138.6hPa | 2.6V | 02:42:34 | 02:33:47 | 00:00:00 | |
| BIOWL1-15 | 2026-09-02 19:06:01 | 49.11292 | 8.59892 | 131° | 110km/h | 14584m | -11.9m/s | -56.2°C | 1.1% | 137.3hPa | 2.6V | 02:42:34 | 02:33:42 | 00:00:00 | |
| DF7PN | 2026-09-02 19:06:00 | 49.11310 | 8.59861 | 131° | 108km/h | 14595m | -11.4m/s | -56.2°C | 1.8% | 137.1hPa | 2.5V | 00:00:00 | 00:00:00 | 00:00:00 | |
| DM0DOS-11 | 2026-09-02 19:05:58 | 49.11440 | 8.59652 | 136° | 104km/h | 14677m | -11.9m/s | -55.8°C | 4.8% | 135.3hPa | 2.5V | 02:42:00 | 02:33:34 | 00:00:00 | |
| DK7TD | 2026-09-02 19:05:55 | 49.11402 | 8.59709 | 135° | 106km/h | 14653m | -12.2m/s | -55.9°C | 1.1% | 135.8hPa | 2.5V | 02:42:34 | 02:33:36 | 00:00:00 | |
| BIOWL1-15 | 2026-09-02 19:05:50 | 49.11497 | 8.59573 | 139° | 102km/h | 14712m | -11.9m/s | -55.9°C | 1% | 134.6hPa | 2.5V | 02:42:34 | 02:33:31 | 00:00:00 | |
| DJ2DS-15 | 2026-09-02 19:05:50 | 49.11497 | 8.59573 | 139° | 89km/h | 14712m | -11.9m/s | -55.8°C | 4.8% | 134.5hPa | 2.5V | 02:42:00 | 02:33:31 | 00:00:00 | |
| DB0UT-7 | 2026-09-02 19:05:49 | 49.11516 | 8.59547 | 138° | 84km/h | 14724m | -11.9m/s | -55.9°C | 4.8% | 134.2hPa | 2.5V | 02:42:00 | 02:33:30 | 00:00:00 | |
| DM0DOS-11 | 2026-09-02 19:05:48 | 49.11622 | 8.59394 | 136° | 89km/h | 14796m | -12.2m/s | -56°C | 4.8% | 132.8hPa | 2.5V | 02:42:10 | 02:33:24 | 00:00:00 | |
| DK7TD | 2026-09-02 19:05:44 | 49.11606 | 8.59419 | 137° | 93km/h | 14784m | -12.3m/s | -56.2°C | 1% | 133.1hPa | 2.5V | 02:42:34 | 02:33:25 | 00:00:00 | |
| BIOWL1-15 | 2026-09-02 19:05:41 | 49.11688 | 8.59301 | 138° | 86km/h | 14844m | -12m/s | -56°C | 0.9% | 131.8hPa | 2.5V | 02:42:34 | 02:33:20 | 00:00:00 | |
| DO8TBO-1 | 2026-09-02 19:05:40 | 49.11672 | 8.59324 | 137° | 75km/h | 14832m | -11.8m/s | -55.8°C | 4.7% | 132.0hPa | 2.5V | 00:00:00 | 02:33:21 | 00:00:00 | |
| DN1GJH-1 | 2026-09-02 19:05:39 | 49.11672 | 8.59324 | 137° | 88km/h | 14832m | -11.8m/s | -55.9°C | 1.7% | 132.1hPa | 2.5V | 02:42:00 | 00:00:00 | 00:00:00 | |
| DM0DOS-11 | 2026-09-02 19:05:38 | 49.11783 | 8.59171 | 137° | 82km/h | 14916m | -11.6m/s | -55.1°C | 4.4% | 130.3hPa | 2.5V | 02:42:20 | 02:33:14 | 00:00:00 | |
| DK7TD | 2026-09-02 19:05:34 | 49.11768 | 8.59192 | 139° | 84km/h | 14904m | -12m/s | -55.3°C | 0.8% | 130.6hPa | 2.5V | 02:42:34 | 02:33:15 | 00:00:00 | |
| BIOWL1-15 | 2026-09-02 19:05:33 | 49.11844 | 8.59089 | 140° | 80km/h | 14965m | -12m/s | -55.2°C | 0.6% | 129.3hPa | 2.6V | 02:42:34 | 02:33:10 | 00:00:00 | |
| DK7TD | 2026-09-02 19:05:23 | 49.11928 | 8.58971 | 136° | 73km/h | 15037m | -12.5m/s | -55.6°C | 0.6% | 127.9hPa | 2.5V | 02:42:34 | 02:33:04 | 00:00:00 | |
| BIOWL1-15 | 2026-09-02 19:05:21 | 49.11978 | 8.58895 | 134° | 68km/h | 15086m | -12.4m/s | -55.9°C | 0.6% | 126.9hPa | 2.6V | 02:42:34 | 02:33:00 | 00:00:00 | |
| DK7TD | 2026-09-02 19:05:12 | 49.12057 | 8.58762 | 130° | 64km/h | 15174m | -12.8m/s | -56.4°C | 0.6% | 125.1hPa | 2.5V | 02:43:25 | 02:32:53 | 00:00:00 | |
| BIOWL1-15 | 2026-09-02 19:05:12 | 49.12095 | 8.58684 | 124° | 62km/h | 15225m | -12.5m/s | -56.7°C | 0.6% | 124.2hPa | 2.6V | 02:43:25 | 02:32:49 | 00:00:00 | |
| DK5PH-5 | 2026-09-02 19:05:12 | 49.12057 | 8.58762 | 130° | 71km/h | 15175m | -12.8m/s | -56.4°C | 4.5% | 125.1hPa | 2.6V | 00:00:00 | 02:32:53 | 00:00:00 | |
| DJ2DS-15 | 2026-09-02 19:05:10 | 49.12077 | 8.58724 | 129° | 71km/h | 15200m | -12.7m/s | -56.5°C | 4.6% | 124.6hPa | 2.6V | 00:00:00 | 02:32:51 | 00:00:00 | |
| SFWM-10 | 2026-09-02 19:05:09 | 49.12077 | 8.58724 | 130° | 64km/h | 15200m | -12.7m/s | -56.6°C | 1.4% | 124.7hPa | 2.6V | 02:43:00 | 00:00:00 | 00:00:00 | |
| DM0DOS-11 | 2026-09-02 19:05:08 | 49.12137 | 8.58577 | 117° | 68km/h | 15289m | -12.9m/s | -57.2°C | 4.8% | 122.9hPa | 2.6V | 02:42:50 | 02:32:44 | 00:00:00 | |
| DK7TD | 2026-09-02 19:05:02 | 49.12145 | 8.58553 | 116° | 69km/h | 15302m | -12.6m/s | -57.2°C | 0.7% | 122.7hPa | 2.5V | 02:43:25 | 02:32:43 | 00:00:00 | |
| BIOWL1-15 | 2026-09-02 19:05:00 | 49.12174 | 8.58453 | 114° | 75km/h | 15352m | -13.2m/s | -57.5°C | 0.6% | 121.7hPa | 2.6V | 02:43:25 | 02:32:39 | 00:00:00 | |
| NBG1-10 | 2026-09-02 19:04:59 | 49.12167 | 8.58479 | 113° | 75km/h | 15340m | -12.5m/s | -57.4°C | 4.9% | 121.9hPa | 2.6V | 00:00:00 | 02:32:40 | 00:00:00 | |
| DM0DOS-11 | 2026-09-02 19:04:58 | 49.12211 | 8.58319 | 113° | 78km/h | 15417m | -12.7m/s | -56.8°C | 4.7% | 120.5hPa | 2.6V | 02:43:00 | 02:32:34 | 00:00:00 | |
| DK7TD | 2026-09-02 19:04:51 | 49.12227 | 8.58264 | 116° | 78km/h | 15443m | -13.4m/s | -56.7°C | 0.5% | 120hPa | 2.5V | 02:43:25 | 02:32:32 | 00:00:00 | |
| DO3MHA-11 | 2026-09-02 19:04:50 | 49.12236 | 8.58237 | 118° | 78km/h | 15456m | -13.3m/s | -56.5°C | 4.6% | 119.7hPa | 2.5V | 02:43:00 | 02:32:31 | 00:00:00 | |
| DB0UT-7 | 2026-09-02 19:04:49 | 49.12245 | 8.58210 | 117° | 77km/h | 15470m | -13.1m/s | -56.3°C | 4.5% | 119.4hPa | 2.6V | 00:00:00 | 02:32:30 | 00:00:00 | |
| DM0DOS-11 | 2026-09-02 19:04:48 | 49.12302 | 8.58053 | 124° | 80km/h | 15548m | -13.5m/s | -55.9°C | 4.3% | 118hPa | 2.6V | 02:43:10 | 02:32:24 | 00:00:00 | |
| BIOWL1-15 | 2026-09-02 19:04:47 | 49.12262 | 8.58157 | 118° | 77km/h | 15496m | -13.2m/s | -56.2°C | 0.4% | 119hPa | 2.6V | 02:43:25 | 02:32:28 | 00:00:00 | |
| DK7TD | 2026-09-02 19:04:40 | 49.12336 | 8.57980 | 124° | 77km/h | 15588m | -13.2m/s | -56.1°C | 0.3% | 117.3hPa | 2.5V | 02:43:25 | 02:32:21 | 00:00:00 | |
| BIOWL1-15 | 2026-09-02 19:04:36 | 49.12377 | 8.57883 | 123° | 73km/h | 15640m | -13.5m/s | -56.2°C | 0.4% | 116.3hPa | 2.5V | 02:43:25 | 02:32:17 | 00:00:00 | |
| DK7TD | 2026-09-02 19:04:29 | 49.12440 | 8.57717 | 120° | 73km/h | 15732m | -13.7m/s | -55.9°C | 0.3% | 114.7hPa | 2.5V | 02:43:25 | 02:32:10 | 00:00:00 | |
| BIOWL1-15 | 2026-09-02 19:04:28 | 49.12469 | 8.57643 | 119° | 75km/h | 15772m | -13.5m/s | -55.9°C | 0.3% | 114hPa | 2.5V | 02:44:16 | 02:32:07 | 00:00:00 | |
| DF7PN | 2026-09-02 19:04:27 | 49.12469 | 8.57643 | 119° | 75km/h | 15772m | -13.5m/s | -55.9°C | 1.2% | 114.0hPa | 2.5V | 00:00:00 | 00:00:00 | 00:00:00 | |
| DJ2DS-15 | 2026-09-02 19:04:26 | 49.12478 | 8.57617 | 118° | 77km/h | 15786m | -13.0m/s | -55.8°C | 1.2% | 113.7hPa | 2.5V | 00:00:00 | 00:00:00 | 00:00:00 | |
| AU51GT2 | 2026-09-02 19:04:24 | 49.12488 | 8.57591 | 120° | 78km/h | 15799m | -13.1m/s | -55.9°C | 1.2% | 113.5hPa | 2.5V | 00:00:00 | 00:00:00 | 00:00:00 | |
| DF1GD-15 | 2026-09-02 19:04:21 | 49.12509 | 8.57539 | 124° | 80km/h | 15825m | -13.7m/s | -55.5°C | 1.2% | 113.0hPa | 2.5V | 02:44:00 | 00:00:00 | 00:00:00 | |
| DO3MHA-11 | 2026-09-02 19:04:20 | 49.12531 | 8.57487 | 124° | 71km/h | 15852m | -13.1m/s | -55.0°C | 4.2% | 112.5hPa | 2.5V | 02:43:00 | 02:32:01 | 00:00:00 | |
| DB0NH | 2026-09-02 19:04:19 | 49.12542 | 8.57462 | 125° | 49km/h | 15865m | -13.3m/s | -55.0°C | 4.2% | 112.3hPa | 2.5V | 00:00:00 | 02:32:00 | 00:00:00 | |
| DM0DOS-11 | 2026-09-02 19:04:18 | 49.12608 | 8.57328 | 128° | 68km/h | 15945m | -13.4m/s | -54.1°C | 3.9% | 110.9hPa | 2.5V | 02:43:40 | 02:31:54 | 00:00:00 | |
| DK7TD | 2026-09-02 19:04:18 | 49.12553 | 8.57438 | 125° | 75km/h | 15878m | -13.4m/s | -54.9°C | 0.2% | 112hPa | 2.5V | 02:44:16 | 02:31:59 | 00:00:00 | |
| BIOWL1-15 | 2026-09-02 19:04:16 | 49.12575 | 8.57392 | 127° | 73km/h | 15904m | -13.7m/s | -54.6°C | 0.1% | 111.6hPa | 2.6V | 02:44:16 | 02:31:57 | 00:00:00 | |
| KANTATE | 2026-09-02 19:04:15 | 49.12575 | 8.57392 | 128° | 73km/h | 15904m | -13.7m/s | -54.6°C | 1.1% | 111.6hPa | 2.5V | 02:44:00 | 00:00:00 | 00:00:00 | |
| DB0UT-9 | 2026-09-02 19:04:14 | 49.12586 | 8.57370 | 129° | 71km/h | 15918m | -13.9m/s | -54.5°C | 1.1% | 111.4hPa | 2.5V | 02:44:00 | 00:00:00 | 00:00:00 | |
| DH7VM-15 | 2026-09-02 19:04:13 | 49.12597 | 8.57349 | 131° | 71km/h | 15932m | -13.8m/s | -54.3°C | 1.1% | 111.1hPa | 2.5V | 00:00:00 | 00:00:00 | 00:00:00 | |
| DF2AP-13 | 2026-09-02 19:04:12 | 49.12618 | 8.57308 | 128° | 46km/h | 15958m | -13.3m/s | -54.0°C | 3.9% | 110.6hPa | 2.5V | 00:00:00 | 02:31:53 | 00:00:00 | |
| CB1BUN | 2026-09-02 19:04:11 | 49.12618 | 8.57308 | 128° | 64km/h | 15958m | -13.4m/s | -54.0°C | 1.0% | 110.6hPa | 2.5V | 02:44:00 | 00:00:00 | 00:00:00 | |
| DO3MHA-11 | 2026-09-02 19:04:10 | 49.12637 | 8.57270 | 130° | 55km/h | 15985m | -13.5m/s | -53.9°C | 3.9% | 110.1hPa | 2.5V | 00:00:00 | 02:31:51 | 00:00:00 | |
| DM0DOS-11 | 2026-09-02 19:04:08 | 49.12701 | 8.57157 | 131° | 49km/h | 16078m | -14.6m/s | -53.4°C | 3.6% | 108.6hPa | 2.5V | 02:43:50 | 02:31:44 | 00:00:00 | |
| DK7TD | 2026-09-02 19:04:08 | 49.12657 | 8.57235 | 129° | 58km/h | 16011m | -12.9m/s | -53.9°C | 0% | 109.7hPa | 2.5V | 02:44:16 | 02:31:49 | 00:00:00 | |
| BIOWL1-15 | 2026-09-02 19:04:06 | 49.12675 | 8.57203 | 134° | 57km/h | 16037m | -13.7m/s | -53.7°C | 0% | 109.3hPa | 2.6V | 02:44:16 | 02:31:47 | 00:00:00 | |
| SFWM-10 | 2026-09-02 19:04:05 | 49.12675 | 8.57203 | 135° | 57km/h | 16037m | -13.7m/s | -53.7°C | 1.0% | 109.3hPa | 2.5V | 02:44:00 | 00:00:00 | 00:00:00 | |
| DL8DAS-14 | 2026-09-02 19:04:02 | 49.12710 | 8.57142 | 129° | 49km/h | 16092m | -13.8m/s | -53.4°C | 1.0% | 108.3hPa | 2.5V | 00:00:00 | 00:00:00 | 00:00:00 | |
| DL1ZP-14 | 2026-09-02 19:03:59 | 49.12732 | 8.57100 | 130° | 46km/h | 16133m | -14.0m/s | -53.6°C | 1.0% | 107.7hPa | 2.5V | 00:00:00 | 00:00:00 | 00:00:00 | |
| DM0DOS-11 | 2026-09-02 19:03:58 | 49.12770 | 8.57024 | 124° | 37km/h | 16214m | -13.7m/s | -53.5°C | 3.6% | 106.3hPa | 2.5V | 02:44:00 | 02:31:34 | 00:00:00 | |
| DK7TD | 2026-09-02 19:03:57 | 49.12746 | 8.57073 | 130° | 42km/h | 16159m | -13.9m/s | -53.7°C | 0% | 107.2hPa | 2.5V | 02:44:16 | 02:31:38 | 00:00:00 | |
| BIOWL1-15 | 2026-09-02 19:03:57 | 49.12758 | 8.57048 | 128° | 38km/h | 16187m | -14m/s | -53.5°C | 0% | 106.7hPa | 2.6V | 02:44:16 | 02:31:36 | 00:00:00 | |
| DF7PN | 2026-09-02 19:03:56 | 49.12758 | 8.57048 | 127° | 38km/h | 16187m | -14.0m/s | -53.5°C | 1.0% | 106.7hPa | 2.5V | 00:00:00 | 00:00:00 | 00:00:00 | |
| AU51GT2 | 2026-09-02 19:03:53 | 49.12770 | 8.57024 | 124° | 37km/h | 16214m | -13.7m/s | -53.5°C | 1.0% | 106.3hPa | 2.5V | 00:00:00 | 00:00:00 | 00:00:00 | |
| DJ2DS-15 | 2026-09-02 19:03:50 | 49.12791 | 8.56978 | 118° | 35km/h | 16269m | -13.2m/s | -53.8°C | 1.0% | 105.4hPa | 2.5V | 00:00:00 | 00:00:00 | 00:00:00 | |
| DB0UT-7 | 2026-09-02 19:03:49 | 49.12791 | 8.56978 | 119° | 37km/h | 16269m | -13.2m/s | -53.7°C | 3.7% | 105.4hPa | 2.5V | 00:00:00 | 02:31:30 | 00:00:00 | |
| DM0DOS-11 | 2026-09-02 19:03:48 | 49.12816 | 8.56908 | 115° | 37km/h | 16350m | -13.3m/s | -54.4°C | 3.9% | 104.1hPa | 2.5V | 02:44:10 | 02:31:24 | 00:00:00 | |
| DK7TD | 2026-09-02 19:03:46 | 49.12803 | 8.56943 | 120° | 33km/h | 16310m | -13.8m/s | -54.1°C | 0% | 104.8hPa | 2.6V | 02:44:16 | 02:31:27 | 00:00:00 | |
| BIOWL1-15 | 2026-09-02 19:03:45 | 49.12808 | 8.56932 | 116° | 35km/h | 16323m | -13.2m/s | -54.2°C | 0% | 104.5hPa | 2.6V | 02:44:16 | 02:31:26 | 00:00:00 | |
| DB0NH | 2026-09-02 19:03:44 | 49.12812 | 8.56920 | 122° | 40km/h | 16337m | -13.7m/s | -54.3°C | 3.8% | 104.3hPa | 2.5V | 00:00:00 | 02:31:25 | 00:00:00 | |
| DF2AP-13 | 2026-09-02 19:03:42 | 49.12820 | 8.56896 | 117° | 40km/h | 16364m | -14.1m/s | -54.5°C | 3.9% | 103.8hPa | 2.5V | 00:00:00 | 02:31:23 | 00:00:00 | |
| DB0ND-19 | 2026-09-02 19:03:40 | 49.12827 | 8.56871 | 112° | 33km/h | 16392m | -13.9m/s | -54.6°C | 1.0% | 103.5hPa | 2.5V | 00:00:00 | 00:00:00 | 00:00:00 | |
| DL0LBS | 2026-09-02 19:03:39 | 49.12827 | 8.56871 | 114° | 35km/h | 16392m | -13.9m/s | -54.6°C | 1.1% | 103.5hPa | 2.5V | 02:44:00 | 00:00:00 | 00:00:00 | |
| DM0DOS-11 | 2026-09-02 19:03:38 | 49.12848 | 8.56784 | 110° | 38km/h | 16487m | -13.9m/s | -54.5°C | 3.9% | 101.9hPa | 2.5V | 02:44:20 | 02:31:14 | 00:00:00 | |
| DK7TD | 2026-09-02 19:03:35 | 49.12843 | 8.56809 | 114° | 35km/h | 16460m | -14m/s | -54.5°C | 0.1% | 102.4hPa | 2.6V | 02:45:07 | 02:31:16 | 00:00:00 | |
| BIOWL1-15 | 2026-09-02 19:03:34 | 49.12846 | 8.56797 | 108° | 33km/h | 16473m | -13.7m/s | -54.5°C | 0% | 102.1hPa | 2.5V | 02:45:07 | 02:31:15 | 00:00:00 | |
| HEMX73-11 | 2026-09-02 19:03:33 | 49.12845 | 8.56797 | 109° | 33km/h | 16473m | -13.7m/s | -54.5°C | 1.0% | 102.1hPa | 2.5V | 02:45:00 | 00:00:00 | 00:00:00 | |
| DB0UT-9 | 2026-09-02 19:03:32 | 49.12848 | 8.56784 | 111° | 38km/h | 16487m | -13.9m/s | -54.5°C | 1.0% | 101.9hPa | 2.5V | 02:45:00 | 00:00:00 | 00:00:00 | |
| DL8DAS-14 | 2026-09-02 19:03:31 | 49.12858 | 8.56743 | 112° | 38km/h | 16528m | -13.7m/s | -54.5°C | 1.0% | 101.2hPa | 2.5V | 00:00:00 | 00:00:00 | 00:00:00 | |
| DO3MHA-11 | 2026-09-02 19:03:30 | 49.12858 | 8.56743 | 113° | 40km/h | 16528m | -13.7m/s | -54.5°C | 3.9% | 101.2hPa | 2.5V | 00:00:00 | 02:31:11 | 00:00:00 | |
| DM0DOS-11 | 2026-09-02 19:03:28 | 49.12877 | 8.56637 | 101° | 40km/h | 16623m | -13.9m/s | -54.6°C | 3.9% | 99.7hPa | 2.5V | 02:44:30 | 02:31:04 | 00:00:00 | |
| DK7TD | 2026-09-02 19:03:24 | 49.12875 | 8.56653 | 107° | 42km/h | 16609m | -14.2m/s | -54.5°C | 0% | 100hPa | 2.6V | 02:45:07 | 02:31:05 | 00:00:00 | |
| BIOWL1-15 | 2026-09-02 19:03:23 | 49.12877 | 8.56637 | 101° | 40km/h | 16623m | -13.9m/s | -54.6°C | 0% | 99.7hPa | 2.5V | 02:45:07 | 02:31:04 | 00:00:00 | |
| AU51GT2 | 2026-09-02 19:03:22 | 49.12880 | 8.56622 | 107° | 42km/h | 16637m | -14.4m/s | -54.7°C | 1.0% | 99.5hPa | 2.5V | 00:00:00 | 00:00:00 | 00:00:00 | |
| NBG1-10 | 2026-09-02 19:03:20 | 49.12885 | 8.56590 | 107° | 46km/h | 16665m | -14.0m/s | -54.8°C | 4.0% | 99.1hPa | 2.5V | 00:00:00 | 02:31:01 | 00:00:00 | |
| DB0UT-7 | 2026-09-02 19:03:19 | 49.12888 | 8.56574 | 108° | 44km/h | 16678m | -14.1m/s | -54.8°C | 4.0% | 98.9hPa | 2.5V | 00:00:00 | 00:00:00 | 00:00:00 | |
| DM0DOS-11 | 2026-09-02 19:03:18 | 49.12915 | 8.56480 | 116° | 44km/h | 16762m | -13.5m/s | -54.9°C | 3.9% | 97.6hPa | 2.5V | 02:44:40 | 02:30:54 | 00:00:00 | |
| DK7TD | 2026-09-02 19:03:13 | 49.12915 | 8.56480 | 116° | 44km/h | 16762m | -13.5m/s | -54.9°C | 0% | 97.6hPa | 2.5V | 02:45:07 | 02:30:54 | 00:00:00 | |
| BIOWL1-15 | 2026-09-02 19:03:12 | 49.12920 | 8.56465 | 123° | 46km/h | 16775m | -14.1m/s | -54.9°C | 0% | 97.4hPa | 2.5V | 02:45:07 | 02:30:53 | 00:00:00 | |
| DF2AP-13 | 2026-09-02 19:03:12 | 49.12920 | 8.56465 | 123° | 44km/h | 16775m | -14.1m/s | -54.9°C | 3.9% | 97.3hPa | 2.5V | 02:44:00 | 02:30:53 | 00:00:00 | |
| DB0NH | 2026-09-02 19:03:11 | 49.12926 | 8.56449 | 119° | 44km/h | 16789m | -13.4m/s | -54.9°C | 4.0% | 97.2hPa | 2.5V | 02:44:00 | 02:30:52 | 00:00:00 | |
| DJ2DS-15 | 2026-09-02 19:03:10 | 49.12931 | 8.56434 | 121° | 44km/h | 16802m | -14.0m/s | -55.0°C | 4.0% | 97.0hPa | 2.6V | 00:00:00 | 02:30:51 | 00:00:00 | |
| DB0ND-19 | 2026-09-02 19:03:09 | 49.12937 | 8.56419 | 121° | 44km/h | 16816m | -14.4m/s | -55.0°C | 1.0% | 96.8hPa | 2.6V | 00:00:00 | 00:00:00 | 00:00:00 | |
| DM0DOS-11 | 2026-09-02 19:03:08 | 49.12966 | 8.56331 | 113° | 42km/h | 16900m | -13.7m/s | -55°C | 4% | 95.5hPa | 2.6V | 02:44:50 | 02:30:44 | 00:00:00 | |
| DK7TD | 2026-09-02 19:03:03 | 49.12966 | 8.56331 | 114° | 42km/h | 16900m | -13.7m/s | -55°C | 0% | 95.5hPa | 2.6V | 02:45:07 | 02:30:44 | 00:00:00 | |
| BIOWL1-15 | 2026-09-02 19:03:02 | 49.12970 | 8.56316 | 114° | 42km/h | 16913m | -13.5m/s | -55°C | 0.1% | 95.3hPa | 2.6V | 02:45:07 | 02:30:43 | 00:00:00 | |
| DO3MHA-11 | 2026-09-02 19:03:00 | 49.12979 | 8.56286 | 119° | 46km/h | 16940m | -13.8m/s | -55.0°C | 4.0% | 94.8hPa | 2.6V | 00:00:00 | 02:30:41 | 00:00:00 | |
| DL0LBS | 2026-09-02 19:02:58 | 49.12984 | 8.56271 | 122° | 46km/h | 16954m | -14.2m/s | -55.2°C | 1.1% | 94.7hPa | 2.6V | 02:45:00 | 00:00:00 | 00:00:00 | |
| DM0DOS-11 | 2026-09-02 19:02:57 | 49.13028 | 8.56170 | 124° | 46km/h | 17054m | -14.5m/s | -55.1°C | 4% | 93.2hPa | 2.6V | 02:45:01 | 02:30:33 | 00:00:00 | |
| DK7TD | 2026-09-02 19:02:53 | 49.13022 | 8.56185 | 125° | 46km/h | 17039m | -14.4m/s | -55.1°C | 0% | 93.5hPa | 2.5V | 02:45:07 | 02:30:34 | 00:00:00 | |
| BIOWL1-15 | 2026-09-02 19:02:51 | 49.13034 | 8.56156 | 123° | 46km/h | 17068m | -14.7m/s | -55.1°C | 0% | 93.1hPa | 2.6V | 02:45:07 | 02:30:32 | 00:00:00 | |
| DO3MHA-11 | 2026-09-02 19:02:50 | 49.13040 | 8.56141 | 123° | 42km/h | 17082m | -14.5m/s | -55.1°C | 4.1% | 92.8hPa | 2.5V | 02:45:00 | 02:30:31 | 00:00:00 | |
| DB0UT-7 | 2026-09-02 19:02:49 | 49.13047 | 8.56126 | 124° | 37km/h | 17096m | -14.9m/s | -55.1°C | 4.0% | 92.6hPa | 2.5V | 02:45:00 | 02:30:30 | 00:00:00 | |
| DM0DOS-11 | 2026-09-02 19:02:47 | 49.13079 | 8.56028 | 112° | 38km/h | 17199m | -14.1m/s | -55.2°C | 4% | 91.2hPa | 2.6V | 02:45:11 | 02:30:23 | 00:00:00 | |
| BIOWL9-15 | 2026-09-02 19:02:46 | 49.13063 | 8.56083 | 117° | 40km/h | 17141m | -14.5m/s | -55.1°C | 1.0% | 92.0hPa | 2.5V | 00:00:00 | 00:00:00 | 00:00:00 | |
| DK7TD | 2026-09-02 19:02:43 | 49.13076 | 8.56041 | 112° | 38km/h | 17184m | -14.3m/s | -55.2°C | 0.1% | 91.4hPa | 2.5V | 02:45:58 | 02:30:24 | 00:00:00 | |
| BIOWL1-15 | 2026-09-02 19:02:42 | 49.13087 | 8.56001 | 115° | 38km/h | 17227m | -13.9m/s | -54.9°C | 0% | 90.8hPa | 2.5V | 02:45:58 | 02:30:21 | 00:00:00 | |
| DF2AP-13 | 2026-09-02 19:02:42 | 49.13079 | 8.56027 | 113° | 33km/h | 17199m | -14.1m/s | -55.2°C | 4.0% | 91.2hPa | 2.6V | 00:00:00 | 02:30:23 | 00:00:00 | |
| DB0NH | 2026-09-02 19:02:41 | 49.13083 | 8.56014 | 114° | 35km/h | 17213m | -14.0m/s | -55.0°C | 4.0% | 91.0hPa | 2.6V | 00:00:00 | 02:30:22 | 00:00:00 | |
| DO3MHA-11 | 2026-09-02 19:02:40 | 49.13087 | 8.56001 | 115° | 37km/h | 17227m | -13.8m/s | -54.9°C | 3.9% | 90.8hPa | 2.6V | 00:00:00 | 02:30:21 | 00:00:00 | |
| DL8DAS-15 | 2026-09-02 19:02:39 | 49.13087 | 8.56001 | 116° | 38km/h | 17227m | -13.9m/s | -54.9°C | 1.0% | 90.8hPa | 2.6V | 00:00:00 | 00:00:00 | 00:00:00 | |
| DO8TBO-1 | 2026-09-02 19:02:38 | 49.13095 | 8.55974 | 117° | 33km/h | 17254m | -13.9m/s | -54.9°C | 3.9% | 90.4hPa | 2.6V | 00:00:00 | 02:30:19 | 00:00:00 | |
| DM0DOS-11 | 2026-09-02 19:02:37 | 49.13124 | 8.55907 | 128° | 35km/h | 17338m | -13.8m/s | -54.9°C | 3.8% | 89.2hPa | 2.6V | 02:45:21 | 02:30:13 | 00:00:00 | |
| DK7TD | 2026-09-02 19:02:32 | 49.13124 | 8.55907 | 128° | 35km/h | 17338m | -13.8m/s | -54.9°C | 0% | 89.3hPa | 2.6V | 02:45:58 | 02:30:13 | 00:00:00 | |
| BIOWL1-15 | 2026-09-02 19:02:29 | 49.13140 | 8.55878 | 136° | 33km/h | 17379m | -14.8m/s | -54.8°C | 0% | 88.6hPa | 2.5V | 02:45:58 | 02:30:10 | 00:00:00 | |
| CB1BUN | 2026-09-02 19:02:28 | 49.13140 | 8.55877 | 137° | 33km/h | 17379m | -14.8m/s | -54.8°C | 0.9% | 88.6hPa | 2.6V | 02:45:00 | 00:00:00 | 00:00:00 | |
| DM0DOS-11 | 2026-09-02 19:02:27 | 49.13182 | 8.55831 | 154° | 29km/h | 17478m | -14.9m/s | -55.2°C | 3.9% | 87.2hPa | 2.6V | 02:45:31 | 02:30:03 | 00:00:00 | |
| DK7TD | 2026-09-02 19:02:22 | 49.13182 | 8.55831 | 154° | 29km/h | 17478m | -14.9m/s | -55.2°C | 0% | 87.3hPa | 2.6V | 02:45:58 | 02:30:03 | 00:00:00 | |
| BIOWL1-15 | 2026-09-02 19:02:18 | 49.13207 | 8.55812 | 155° | 29km/h | 17537m | -15.2m/s | -55.7°C | 0% | 86.4hPa | 2.5V | 02:45:58 | 02:29:59 | 00:00:00 | |
| DK7TD | 2026-09-02 19:02:12 | 49.13243 | 8.55774 | 138° | 31km/h | 17626m | -15.5m/s | -55.8°C | 0% | 85.3hPa | 2.6V | 02:45:58 | 02:29:53 | 00:00:00 | |
| BIOWL1-15 | 2026-09-02 19:02:12 | 49.13265 | 8.55738 | 130° | 31km/h | 17686m | -15.1m/s | -56.1°C | 0% | 84.5hPa | 2.5V | 02:45:58 | 02:29:49 | 00:00:00 | |
| DK7TD | 2026-09-02 19:02:01 | 49.13293 | 8.55670 | 111° | 27km/h | 17793m | -15.3m/s | -55.4°C | 0% | 83.1hPa | 2.6V | 02:45:58 | 02:29:42 | 00:00:00 | |
| DL8DAS-14 | 2026-09-02 19:01:58 | 49.13299 | 8.55625 | 96° | 33km/h | 17852m | -14.6m/s | -55.5°C | 0.9% | 82.3hPa | 2.6V | 00:00:00 | 00:00:00 | 00:00:00 | |
| DM0DOS-11 | 2026-09-02 19:01:57 | 49.13300 | 8.55549 | 89° | 44km/h | 17926m | -15.5m/s | -55.8°C | 4.2% | 81.4hPa | 2.6V | 02:46:01 | 02:29:33 | 00:00:00 | |
| BIOWL1-15 | 2026-09-02 19:01:57 | 49.13299 | 8.55625 | 97° | 35km/h | 17852m | -14.6m/s | -55.5°C | 0% | 82.3hPa | 2.6V | 02:45:58 | 02:29:38 | 00:00:00 | |
| DK7TD | 2026-09-02 19:01:51 | 49.13300 | 8.55532 | 87° | 46km/h | 17941m | -15.4m/s | -55.9°C | 0.1% | 81.2hPa | 2.6V | 02:46:49 | 02:29:32 | 00:00:00 | |
| DO3MHA-11 | 2026-09-02 19:01:50 | 49.13299 | 8.55515 | 86° | 51km/h | 17956m | -15.0m/s | -55.8°C | 4.3% | 81.0hPa | 2.5V | 02:46:00 | 02:29:31 | 00:00:00 | |
| DB0UT-7 | 2026-09-02 19:01:49 | 49.13298 | 8.55496 | 84° | 47km/h | 17971m | -14.5m/s | -55.9°C | 4.2% | 80.8hPa | 2.5V | 00:00:00 | 02:29:30 | 00:00:00 | |
| DJ2DS-15 | 2026-09-02 19:01:48 | 49.13297 | 8.55477 | 88° | 47km/h | 17985m | -14.7m/s | -55.9°C | 4.3% | 80.6hPa | 2.5V | 02:46:00 | 02:29:29 | 00:00:00 | |
| DM0DOS-11 | 2026-09-02 19:01:47 | 49.13308 | 8.55359 | 108° | 49km/h | 18074m | -15.1m/s | -55.7°C | 4.2% | 79.5hPa | 2.6V | 02:46:11 | 02:29:23 | 00:00:00 | |
| BIOWL1-15 | 2026-09-02 19:01:47 | 49.13296 | 8.55456 | 91° | 53km/h | 17999m | -15.1m/s | -55.9°C | 0% | 80.5hPa | 2.6V | 02:46:49 | 02:29:28 | 00:00:00 | |
| DK7TD | 2026-09-02 19:01:41 | 49.13313 | 8.55342 | 109° | 49km/h | 18090m | -15.1m/s | -55.7°C | 0% | 79.3hPa | 2.6V | 02:46:49 | 02:29:22 | 00:00:00 | |
| BIOWL1-15 | 2026-09-02 19:01:38 | 49.13338 | 8.55260 | 117° | 44km/h | 18167m | -15.8m/s | -55.6°C | 0.1% | 78.4hPa | 2.6V | 02:46:49 | 02:29:17 | 00:00:00 | |
| DM0DOS-11 | 2026-09-02 19:01:37 | 49.13357 | 8.55197 | 109° | 46km/h | 18231m | -16.2m/s | -55°C | 4.1% | 77.7hPa | 2.6V | 02:46:21 | 02:29:13 | 00:00:00 | |
| DK7TD | 2026-09-02 19:01:30 | 49.13365 | 8.55164 | 107° | 46km/h | 18263m | -15.6m/s | -54.6°C | 0% | 77.3hPa | 2.5V | 02:46:49 | 02:29:11 | 00:00:00 | |
| BIOWL1-15 | 2026-09-02 19:01:28 | 49.13381 | 8.55093 | 110° | 49km/h | 18326m | -15.5m/s | -54.6°C | 0% | 76.5hPa | 2.6V | 02:46:49 | 02:29:07 | 00:00:00 | |
| DK7TD | 2026-09-02 19:01:19 | 49.13414 | 8.54974 | 111° | 47km/h | 18436m | -15.5m/s | -54.6°C | 0.1% | 75.2hPa | 2.5V | 02:46:49 | 02:29:00 | 00:00:00 | |
| BIOWL1-15 | 2026-09-02 19:01:18 | 49.13427 | 8.54925 | 111° | 44km/h | 18484m | -15.4m/s | -54.2°C | 0% | 74.7hPa | 2.6V | 02:46:49 | 02:28:57 | 00:00:00 | |
| DK7TD | 2026-09-02 19:01:09 | 49.13458 | 8.54817 | 116° | 42km/h | 18595m | -16.2m/s | -53.1°C | 0% | 73.3hPa | 2.5V | 02:46:49 | 02:28:50 | 00:00:00 | |
| DJ2DS-15 | 2026-09-02 19:01:08 | 49.13463 | 8.54803 | 119° | 29km/h | 18611m | -16.3m/s | -52.9°C | 3.7% | 73.1hPa | 2.5V | 00:00:00 | 02:28:49 | 00:00:00 | |
| DB0UT-9 | 2026-09-02 19:01:07 | 49.13463 | 8.54803 | 119° | 40km/h | 18611m | -16.4m/s | -53.0°C | 0.8% | 73.2hPa | 2.5V | 02:46:00 | 00:00:00 | 00:00:00 | |
| DL8DAS-15 | 2026-09-02 19:01:06 | 49.13469 | 8.54789 | 123° | 40km/h | 18627m | -16.6m/s | -52.7°C | 0.8% | 73.0hPa | 2.5V | 00:00:00 | 00:00:00 | 00:00:00 | |
| DM0DOS-11 | 2026-09-02 19:01:05 | 49.13512 | 8.54706 | 122° | 35km/h | 18744m | -15.7m/s | -51.8°C | 3.4% | 71.7hPa | 2.5V | 02:46:53 | 02:28:41 | 00:00:00 | |
| BIOWL1-15 | 2026-09-02 19:01:05 | 49.13481 | 8.54763 | 128° | 40km/h | 18660m | -16.7m/s | -52.3°C | 0% | 72.6hPa | 2.5V | 02:46:49 | 02:28:46 | 00:00:00 | |
| DO1YAY-16 | 2026-09-02 19:01:04 | 49.13541 | 8.54641 | 122° | 22km/h | 18857m | -16.1m/s | -51.7°C | 0.7% | 70.5hPa | 2.5V | 00:00:00 | 00:00:00 | 00:00:00 | |
| IW2NTF | 2026-09-02 19:01:03 | 49.13521 | 8.54685 | 121° | 31km/h | 18776m | -16m/s | -51.7°C | 3.3% | 71.4hPa | 2.5V | 02:46:55 | 02:28:39 | 00:00:00 | |
| DK7TD | 2026-09-02 19:00:58 | 49.13521 | 8.54685 | 121° | 31km/h | 18776m | -16m/s | -51.7°C | 0% | 71.4hPa | 2.5V | 02:47:40 | 02:28:39 | 00:00:00 | |
| DL8DAS-14 | 2026-09-02 19:00:56 | 49.13533 | 8.54657 | 121° | 26km/h | 18824m | -16.1m/s | -51.6°C | 0.7% | 70.8hPa | 2.5V | 00:00:00 | 00:00:00 | 00:00:00 | |
| DM0DOS-11 | 2026-09-02 19:00:55 | 49.13550 | 8.54621 | 121° | 16km/h | 18907m | -16.5m/s | -51.8°C | 3.3% | 69.9hPa | 2.5V | 02:47:03 | 02:28:31 | 00:00:00 | |
| BIOWL1-15 | 2026-09-02 19:00:55 | 49.13533 | 8.54657 | 122° | 27km/h | 18824m | -16.1m/s | -51.6°C | 0% | 70.8hPa | 2.5V | 02:47:40 | 02:28:36 | 00:00:00 | |
| DK7TD | 2026-09-02 19:00:47 | 49.13558 | 8.54605 | 118° | 15km/h | 18956m | -16.2m/s | -51.7°C | 0% | 69.4hPa | 2.6V | 02:47:40 | 02:28:28 | 00:00:00 | |
| DM0DOS-11 | 2026-09-02 19:00:45 | 49.13565 | 8.54570 | 102° | 13km/h | 19071m | -17.5m/s | -52°C | 3.3% | 68.2hPa | 2.5V | 02:47:13 | 02:28:21 | 00:00:00 | |
| BIOWL1-15 | 2026-09-02 19:00:44 | 49.13562 | 8.54590 | 108° | 11km/h | 19005m | -16.4m/s | -51.5°C | 0% | 68.8hPa | 2.5V | 02:47:40 | 02:28:25 | 00:00:00 | |
| BIOWL9-15 | 2026-09-02 19:00:42 | 49.13565 | 8.54575 | 96° | 11km/h | 19055m | -17.0m/s | -51.9°C | 0.7% | 68.3hPa | 2.5V | 00:00:00 | 00:00:00 | 00:00:00 | |
| HARRO8 | 2026-09-02 19:00:40 | 49.13566 | 8.54564 | 103° | 13km/h | 19089m | -17.9m/s | -52.1°C | 0.7% | 67.9hPa | 2.5V | 00:00:00 | 00:00:00 | 00:00:00 | |
| DF3TZ-5 | 2026-09-02 19:00:39 | 49.13566 | 8.54564 | 103° | 13km/h | 19089m | -17.9m/s | -52.1°C | 0.7% | 67.9hPa | 2.5V | 00:00:00 | 00:00:00 | 00:00:00 | |
| SFWM-10 | 2026-09-02 19:00:38 | 49.13567 | 8.54564 | 104° | 15km/h | 19089m | -17.9m/s | -52.1°C | 0.7% | 67.9hPa | 2.5V | 00:00:00 | 00:00:00 | 00:00:00 | |
| DD1CC8 | 2026-09-02 19:00:37 | 49.13569 | 8.54544 | 102° | 18km/h | 19141m | -17.3m/s | -52.3°C | 0.7% | 67.5hPa | 2.5V | 00:00:00 | 00:00:00 | 00:00:00 | |
| DM0DOS-11 | 2026-09-02 19:00:35 | 49.13579 | 8.54486 | 106° | 27km/h | 19245m | -17.1m/s | -52.8°C | 3.5% | 66.4hPa | 2.5V | 02:47:23 | 02:28:11 | 00:00:00 | |
| BIOWL1-15 | 2026-09-02 19:00:34 | 49.13572 | 8.54526 | 100° | 24km/h | 19176m | -17.5m/s | -52.4°C | 0% | 67.1hPa | 2.5V | 02:47:40 | 02:28:15 | 00:00:00 | |
| DF1GD-15 | 2026-09-02 19:00:33 | 49.13572 | 8.54526 | 101° | 24km/h | 19176m | -17.5m/s | -52.4°C | 0.8% | 67.1hPa | 2.5V | 02:47:00 | 00:00:00 | 00:00:00 | |
| DO3MHA-11 | 2026-09-02 19:00:30 | 49.13579 | 8.54486 | 107° | 24km/h | 19245m | -17.0m/s | -52.8°C | 3.5% | 66.3hPa | 2.5V | 00:00:00 | 02:28:11 | 00:00:00 | |
| DN1GJH-1 | 2026-09-02 19:00:29 | 49.13579 | 8.54486 | 108° | 27km/h | 19245m | -17.1m/s | -52.8°C | 0.8% | 66.4hPa | 2.5V | 02:47:00 | 00:00:00 | 00:00:00 | |
| DJ2DS-15 | 2026-09-02 19:00:28 | 49.13584 | 8.54466 | 112° | 13km/h | 19279m | -17.4m/s | -53.0°C | 3.5% | 66.0hPa | 2.5V | 00:00:00 | 02:28:09 | 00:00:00 | |
| KANTATE | 2026-09-02 19:00:27 | 49.13584 | 8.54466 | 113° | 27km/h | 19279m | -17.5m/s | -53.0°C | 0.8% | 66.0hPa | 2.5V | 02:47:00 | 00:00:00 | 00:00:00 | |
| HEMX73-11 | 2026-09-02 19:00:26 | 49.13586 | 8.54456 | 114° | 26km/h | 19296m | -17.2m/s | -53.1°C | 0.7% | 65.8hPa | 2.5V | 02:47:00 | 00:00:00 | 00:00:00 | |
| DM0DOS-11 | 2026-09-02 19:00:25 | 49.13602 | 8.54404 | 116° | 11km/h | 19416m | -17.7m/s | -53°C | 3.5% | 64.6hPa | 2.5V | 02:47:33 | 02:28:01 | 00:00:00 | |
| BIOWL1-15 | 2026-09-02 19:00:25 | 49.13597 | 8.54422 | 116° | 20km/h | 19364m | -17.3m/s | -53.1°C | 0% | 65.1hPa | 2.5V | 02:47:40 | 02:28:04 | 00:00:00 | |
| DK7TD | 2026-09-02 19:00:22 | 49.13599 | 8.54415 | 115° | 16km/h | 19381m | -17.5m/s | -53.1°C | 0% | 65hPa | 2.6V | 02:47:40 | 02:28:03 | 00:00:00 | |
| DB0NH | 2026-09-02 19:00:22 | 49.13599 | 8.54415 | 116° | 18km/h | 19382m | -17.4m/s | -53.1°C | 3.6% | 64.9hPa | 2.5V | 00:00:00 | 02:28:03 | 00:00:00 | |
| DM7RM-13 | 2026-09-02 19:00:21 | 49.13599 | 8.54415 | 116° | 16km/h | 19382m | -17.5m/s | -53.1°C | 0.8% | 64.9hPa | 2.5V | 02:47:00 | 00:00:00 | 00:00:00 | |
| DO3MHA-11 | 2026-09-02 19:00:20 | 49.13602 | 8.54404 | 117° | 7km/h | 19416m | -17.7m/s | -53.0°C | 3.5% | 64.5hPa | 2.5V | 02:47:00 | 02:28:01 | 00:00:00 | |
| DB0UT-7 | 2026-09-02 19:00:19 | 49.13603 | 8.54400 | 118° | 20km/h | 19433m | -17.5m/s | -53.0°C | 3.5% | 64.4hPa | 2.6V | 00:00:00 | 00:00:00 | 00:00:00 | |
| DF7PN | 2026-09-02 19:00:18 | 49.13604 | 8.54397 | 113° | 7km/h | 19451m | -17.6m/s | -53.1°C | 0.7% | 64.2hPa | 2.6V | 00:00:00 | 00:00:00 | 00:00:00 | |
| DL8DAS-15 | 2026-09-02 19:00:17 | 49.13604 | 8.54397 | 115° | 7km/h | 19451m | -17.6m/s | -53.1°C | 0.8% | 64.2hPa | 2.6V | 00:00:00 | 00:00:00 | 00:00:00 | |
| AU51GT2 | 2026-09-02 19:00:16 | 49.13606 | 8.54391 | 88° | 5km/h | 19486m | -16.9m/s | -53.3°C | 0.8% | 63.9hPa | 2.6V | 00:00:00 | 00:00:00 | 00:00:00 | |
| DM0DOS-11 | 2026-09-02 19:00:15 | 49.13601 | 8.54374 | 60° | 11km/h | 19589m | -18.4m/s | -53.5°C | 3.7% | 62.9hPa | 2.6V | 02:47:43 | 02:27:51 | 00:00:00 | |
| BIOWL1-15 | 2026-09-02 19:00:15 | 49.13604 | 8.54383 | 65° | 7km/h | 19536m | -18m/s | -53.5°C | 0% | 63.4hPa | 2.5V | 02:47:40 | 02:27:54 | 00:00:00 | |
| DK7TD | 2026-09-02 19:00:11 | 49.13602 | 8.54378 | 63° | 7km/h | 19571m | -18.1m/s | -53.5°C | 0% | 63hPa | 2.6V | 02:49:22 | 02:27:52 | 00:00:00 | |
| BIOWL9-15 | 2026-09-02 19:00:11 | 49.13601 | 8.54374 | 60° | 9km/h | 19589m | -18.4m/s | -53.5°C | 0.8% | 62.9hPa | 2.6V | 00:00:00 | 00:00:00 | 00:00:00 | |
| DO3MHA-11 | 2026-09-02 19:00:10 | 49.13601 | 8.54374 | 61° | 20km/h | 19589m | -18.4m/s | -53.5°C | 3.7% | 62.8hPa | 2.6V | 00:00:00 | 02:27:51 | 00:00:00 | |
| HARRO8 | 2026-09-02 19:00:09 | 49.13598 | 8.54365 | 63° | 13km/h | 19625m | -17.8m/s | -53.7°C | 0.8% | 62.5hPa | 2.6V | 00:00:00 | 00:00:00 | 00:00:00 | |
| DJ2DS-15 | 2026-09-02 19:00:08 | 49.13597 | 8.54365 | 64° | 27km/h | 19625m | -17.7m/s | -53.7°C | 3.8% | 62.5hPa | 2.6V | 00:00:00 | 02:27:49 | 00:00:00 | |
| BIOWL7-15 | 2026-09-02 19:00:07 | 49.13597 | 8.54365 | 64° | 15km/h | 19625m | -17.8m/s | -53.7°C | 0.8% | 62.6hPa | 2.6V | 00:00:00 | 00:00:00 | 00:00:00 | |
| DD1CC8 | 2026-09-02 19:00:06 | 49.13591 | 8.54345 | 72° | 20km/h | 19677m | -17.9m/s | -54.0°C | 0.8% | 62.1hPa | 2.6V | 00:00:00 | 00:00:00 | 00:00:00 | |
| DM0DOS-11 | 2026-09-02 19:00:05 | 49.13585 | 8.54297 | 88° | 27km/h | 19766m | -18.2m/s | -53.5°C | 3.7% | 61.2hPa | 2.6V | 02:47:53 | 02:27:41 | 00:00:00 | |
| BIOWL1-15 | 2026-09-02 19:00:04 | 49.13587 | 8.54317 | 81° | 26km/h | 19730m | -18.1m/s | -53.7°C | 0% | 61.5hPa | 2.5V | 02:48:31 | 02:27:43 | 00:00:00 | |
| DM7RM-13 | 2026-09-02 19:00:01 | 49.13586 | 8.54317 | 82° | 26km/h | 19730m | -18.1m/s | -53.7°C | 0.8% | 61.5hPa | 2.6V | 00:00:00 | 00:00:00 | 00:00:00 | |
| DO3MHA-11 | 2026-09-02 19:00:00 | 49.13585 | 8.54297 | 89° | 31km/h | 19766m | -18.2m/s | -53.5°C | 3.7% | 61.2hPa | 2.6V | 00:00:00 | 02:27:41 | 00:00:00 | |
| SFWM-10 | 2026-09-02 18:59:57 | 49.13585 | 8.54275 | 95° | 27km/h | 19802m | -17.8m/s | -53.5°C | 0.8% | 60.9hPa | 2.6V | 00:00:00 | 00:00:00 | 00:00:00 | |
| DL8DAS-15 | 2026-09-02 18:59:56 | 49.13585 | 8.54264 | 97° | 29km/h | 19820m | -17.9m/s | -53.6°C | 0.8% | 60.7hPa | 2.6V | 02:48:00 | 00:00:00 | 00:00:00 | |
| DM0DOS-11 | 2026-09-02 18:59:55 | 49.13597 | 8.54180 | 105° | 38km/h | 19949m | -18.2m/s | -53.5°C | 3.8% | 59.5hPa | 2.6V | 02:48:03 | 02:27:31 | 00:00:00 | |
| BIOWL1-15 | 2026-09-02 18:59:51 | 49.13595 | 8.54194 | 105° | 37km/h | 19931m | -18.2m/s | -53.5°C | 0% | 59.7hPa | 2.5V | 02:48:31 | 02:27:32 | 00:00:00 | |
| DO3MHA-11 | 2026-09-02 18:59:50 | 49.13597 | 8.54180 | 106° | 38km/h | 19949m | -18.1m/s | -53.4°C | 3.8% | 59.5hPa | 2.6V | 02:48:00 | 02:27:31 | 00:00:00 | |
| DB0UT-7 | 2026-09-02 18:59:49 | 49.13600 | 8.54167 | 106° | 26km/h | 19967m | -17.6m/s | -53.4°C | 3.8% | 59.3hPa | 2.6V | 02:48:00 | 02:27:30 | 00:00:00 | |
| DJ2DS-15 | 2026-09-02 18:59:48 | 49.13603 | 8.54153 | 107° | 29km/h | 19985m | -17.7m/s | -53.3°C | 3.8% | 59.2hPa | 2.5V | 02:48:00 | 02:27:29 | 00:00:00 | |
| BIOWL7-15 | 2026-09-02 18:59:47 | 49.13603 | 8.54153 | 107° | 38km/h | 19985m | -17.7m/s | -53.3°C | 0.8% | 59.2hPa | 2.5V | 00:00:00 | 00:00:00 | 00:00:00 | |
| NBG1-10 | 2026-09-02 18:59:46 | 49.13609 | 8.54124 | 111° | 24km/h | 20021m | -17.7m/s | -53.2°C | 3.7% | 58.8hPa | 2.5V | 02:48:00 | 02:27:27 | 00:00:00 | |
| DM0DOS-11 | 2026-09-02 18:59:45 | 49.13636 | 8.54049 | 127° | 35km/h | 20125m | -17.4m/s | -52.9°C | 3.6% | 57.9hPa | 2.6V | 02:48:13 | 02:27:21 | 00:00:00 | |
| BIOWL1-15 | 2026-09-02 18:59:43 | 49.13631 | 8.54060 | 125° | 35km/h | 20108m | -17.3m/s | -52.9°C | 0% | 58.1hPa | 2.5V | 02:48:31 | 02:27:22 | 00:00:00 | |
| DO8TBO-1 | 2026-09-02 18:59:41 | 49.13631 | 8.54060 | 125° | 24km/h | 20108m | -17.3m/s | -52.9°C | 3.6% | 58.0hPa | 2.5V | 02:48:00 | 02:27:22 | 00:00:00 | |
| BIOWL9-15 | 2026-09-02 18:59:40 | 49.13641 | 8.54039 | 128° | 31km/h | 20142m | -17.2m/s | -52.9°C | 0.7% | 57.8hPa | 2.6V | 00:00:00 | 00:00:00 | 00:00:00 | |
| HARRO8 | 2026-09-02 18:59:38 | 49.13651 | 8.54020 | 133° | 27km/h | 20177m | -18.3m/s | -52.9°C | 0.8% | 57.5hPa | 2.6V | 00:00:00 | 00:00:00 | 00:00:00 | |
| DF3TZ-5 | 2026-09-02 18:59:37 | 49.13651 | 8.54020 | 133° | 27km/h | 20177m | -18.3m/s | -52.9°C | 0.8% | 57.5hPa | 2.6V | 00:00:00 | 00:00:00 | 00:00:00 | |
| DM0DOS-11 | 2026-09-02 18:59:35 | 49.13680 | 8.53980 | 137° | 16km/h | 20305m | -18.6m/s | -52.2°C | 3.3% | 56.3hPa | 2.6V | 02:48:23 | 02:27:11 | 00:00:00 | |
| BIOWL1-15 | 2026-09-02 18:59:33 | 49.13676 | 8.53985 | 140° | 18km/h | 20287m | -18.8m/s | -52.1°C | 0% | 56.5hPa | 2.5V | 02:48:31 | 02:27:12 | 00:00:00 | |
| DK7TD | 2026-09-02 18:59:26 | 49.13687 | 8.53964 | 112° | 11km/h | 20380m | -19.1m/s | -52.2°C | 0% | 55.7hPa | 2.5V | 02:49:22 | 02:27:07 | 00:00:00 | |
| DM0DOS-11 | 2026-09-02 18:59:25 | 49.13684 | 8.53938 | 79° | 15km/h | 20494m | -19.2m/s | -52.7°C | 3.4% | 54.7hPa | 2.6V | 02:48:33 | 02:27:01 | 00:00:00 | |
| BIOWL1-15 | 2026-09-02 18:59:22 | 49.13684 | 8.53938 | 80° | 15km/h | 20494m | -19.2m/s | -52.7°C | 0% | 54.7hPa | 2.6V | 02:49:22 | 02:27:01 | 00:00:00 | |
| DK7TD | 2026-09-02 18:59:16 | 49.13682 | 8.53917 | 93° | 16km/h | 20570m | -19.1m/s | -53.1°C | 0% | 54.1hPa | 2.6V | 02:49:22 | 02:26:57 | 00:00:00 | |
| DL1XH1-15 | 2026-09-02 18:59:14 | 49.13676 | 8.53873 | 69° | 16km/h | 20704m | -18.8m/s | -53.2°C | 3.6% | 53hPa | 2.6V | 02:48:44 | 02:26:50 | 00:00:00 | |
| BIOWL1-15 | 2026-09-02 18:59:09 | 49.13676 | 8.53873 | 69° | 16km/h | 20704m | -18.8m/s | -53.2°C | 0% | 53hPa | 2.6V | 02:49:22 | 02:26:50 | 00:00:00 | |
| DL1XH-west | 2026-09-02 18:59:07 | 49.13673 | 8.53861 | 68° | 16km/h | 20741m | -19.3m/s | -53.3°C | 0% | 52.6hPa | 2.5V | 02:50:13 | 02:26:48 | 00:00:00 | |
| DK7TD | 2026-09-02 18:59:06 | 49.13671 | 8.53855 | 69° | 16km/h | 20761m | -19.6m/s | -53.3°C | 0% | 52.5hPa | 2.5V | 02:49:22 | 02:26:47 | 00:00:00 | |
| BIOWL1-15 | 2026-09-02 18:59:00 | 49.13668 | 8.53807 | 109° | 11km/h | 20914m | -19.9m/s | -53.4°C | 0% | 51.2hPa | 2.6V | 02:49:22 | 02:26:39 | 00:00:00 | |
| DL1XH-west | 2026-09-02 18:58:56 | 49.13670 | 8.53801 | 129° | 9km/h | 20954m | -20.1m/s | -53.5°C | 0% | 50.9hPa | 2.6V | 02:50:13 | 02:26:37 | 00:00:00 | |
| DK7TD | 2026-09-02 18:58:55 | 49.13671 | 8.53798 | 138° | 9km/h | 20974m | -19.9m/s | -53.5°C | 0% | 50.8hPa | 2.5V | 02:49:22 | 02:26:36 | 00:00:00 | |
| DM0DOS-11 | 2026-09-02 18:58:55 | 49.13679 | 8.53787 | 132° | 11km/h | 21072m | -20m/s | -53.1°C | 3.6% | 50hPa | 2.5V | 02:49:03 | 02:26:31 | 00:00:00 | |
| BIOWL1-15 | 2026-09-02 18:58:48 | 49.13683 | 8.53781 | 133° | 13km/h | 21112m | -20m/s | -53.3°C | 0% | 49.7hPa | 2.5V | 02:49:22 | 02:26:29 | 00:00:00 | |
| DJ2DS-15 | 2026-09-02 18:58:48 | 49.13683 | 8.53780 | 134° | 15km/h | 21113m | -19.9m/s | -53.2°C | 3.6% | 49.6hPa | 2.5V | 02:49:00 | 02:26:29 | 00:00:00 | |
| DN1GJH-1 | 2026-09-02 18:58:47 | 49.13683 | 8.53780 | 134° | 13km/h | 21113m | -20.0m/s | -53.3°C | 0.8% | 49.7hPa | 2.5V | 02:49:00 | 00:00:00 | 00:00:00 | |
| DM0DOS-11 | 2026-09-02 18:58:45 | 49.13690 | 8.53754 | 67° | 7km/h | 21270m | -20.2m/s | -53°C | 3.5% | 48.5hPa | 2.5V | 02:49:13 | 02:26:21 | 00:00:00 | |
| DL1XH-west | 2026-09-02 18:58:45 | 49.13688 | 8.53770 | 119° | 9km/h | 21171m | -19.8m/s | -53.6°C | 0% | 49.2hPa | 2.5V | 02:50:13 | 02:26:26 | 00:00:00 | |
| BIOWL1-15 | 2026-09-02 18:58:39 | 49.13686 | 8.53741 | 72° | 15km/h | 21331m | -20.5m/s | -53.3°C | 0% | 48.1hPa | 2.6V | 02:49:22 | 02:26:18 | 00:00:00 | |
| DM7RM-13 | 2026-09-02 18:58:37 | 49.13688 | 8.53746 | 68° | 13km/h | 21311m | -20.5m/s | -53.2°C | 0.8% | 48.2hPa | 2.5V | 02:49:00 | 00:00:00 | 00:00:00 | |
| HARRO8 | 2026-09-02 18:58:36 | 49.13683 | 8.53729 | 73° | 18km/h | 21371m | -20.3m/s | -53.3°C | 0.7% | 47.8hPa | 2.5V | 00:00:00 | 00:00:00 | 00:00:00 | |
| DM0DOS-11 | 2026-09-02 18:58:35 | 49.13679 | 8.53691 | 97° | 18km/h | 21470m | -20.6m/s | -53.6°C | 3.8% | 47hPa | 2.5V | 02:49:23 | 02:26:11 | 00:00:00 | |
| DK7TD | 2026-09-02 18:58:34 | 49.13681 | 8.53721 | 77° | 20km/h | 21391m | -20m/s | -53.3°C | 0% | 47.6hPa | 2.5V | 02:49:22 | 02:26:15 | 00:00:00 | |
| BIOWL1-15 | 2026-09-02 18:58:28 | 49.13683 | 8.53662 | 107° | 22km/h | 21553m | -20.8m/s | -53.3°C | 0% | 46.4hPa | 2.6V | 02:50:13 | 02:26:07 | 00:00:00 | |
| DK7TD | 2026-09-02 18:58:24 | 49.13686 | 8.53646 | 103° | 22km/h | 21594m | -20.3m/s | -53.5°C | 0% | 46.1hPa | 2.5V | 02:50:13 | 02:26:05 | 00:00:00 | |
| DB0UT-9 | 2026-09-02 18:58:22 | 49.13688 | 8.53638 | 99° | 22km/h | 21615m | -20.5m/s | -53.5°C | 0.8% | 46.0hPa | 2.6V | 02:50:00 | 00:00:00 | 00:00:00 | |
| DL8DAS-14 | 2026-09-02 18:58:21 | 49.13688 | 8.53612 | 86° | 20km/h | 21676m | -20.3m/s | -53.2°C | 0.7% | 45.6hPa | 2.6V | 00:00:00 | 00:00:00 | 00:00:00 | |
| DO3MHA-11 | 2026-09-02 18:58:20 | 49.13688 | 8.53612 | 87° | 13km/h | 21676m | -20.3m/s | -53.2°C | 3.6% | 45.5hPa | 2.6V | 02:49:00 | 02:26:01 | 00:00:00 | |
| DB0UT-7 | 2026-09-02 18:58:19 | 49.13688 | 8.53604 | 85° | 13km/h | 21697m | -20.2m/s | -53.2°C | 3.7% | 45.4hPa | 2.6V | 02:49:00 | 00:00:00 | 00:00:00 | |
| DL1XH1-15 | 2026-09-02 18:58:17 | 49.13683 | 8.53568 | 96° | 5km/h | 21839m | -21.3m/s | -53.1°C | 3.6% | 44.4hPa | 2.6V | 02:49:41 | 02:25:53 | 00:00:00 | |
| BIOWL1-15 | 2026-09-02 18:58:16 | 49.13686 | 8.53584 | 80° | 15km/h | 21757m | -20.4m/s | -53.4°C | 0% | 45hPa | 2.5V | 02:50:13 | 02:25:57 | 00:00:00 | |
| DL1XH-west | 2026-09-02 18:58:14 | 49.13684 | 8.53574 | 78° | 11km/h | 21798m | -20.9m/s | -53.3°C | 0% | 44.7hPa | 2.5V | 02:50:13 | 02:25:55 | 00:00:00 | |
| DK7TD | 2026-09-02 18:58:13 | 49.13684 | 8.53570 | 87° | 7km/h | 21818m | -21.1m/s | -53.1°C | 0% | 44.6hPa | 2.6V | 02:50:13 | 02:25:54 | 00:00:00 | |
| AU51GT2 | 2026-09-02 18:58:12 | 49.13683 | 8.53567 | 96° | 5km/h | 21839m | -21.3m/s | -53.1°C | 0.7% | 44.4hPa | 2.5V | 00:00:00 | 00:00:00 | 00:00:00 | |
| DO3MHA-11 | 2026-09-02 18:58:10 | 49.13684 | 8.53564 | 120° | 5km/h | 21881m | -21.2m/s | -53.1°C | 3.6% | 44.1hPa | 2.5V | 00:00:00 | 02:25:51 | 00:00:00 | |
| DF1GD-15 | 2026-09-02 18:58:09 | 49.13684 | 8.53564 | 120° | 4km/h | 21881m | -21.3m/s | -53.1°C | 0.8% | 44.1hPa | 2.5V | 02:50:00 | 00:00:00 | 00:00:00 | |
| DJ2DS-15 | 2026-09-02 18:58:08 | 49.13683 | 8.53562 | 82° | 13km/h | 21923m | -21.3m/s | -53.0°C | 3.5% | 43.8hPa | 2.5V | 00:00:00 | 02:25:49 | 00:00:00 | |
| DL8DAS-15 | 2026-09-02 18:58:07 | 49.13683 | 8.53562 | 0° | 0km/h | 21923m | -21.4m/s | -53.0°C | 0.7% | 43.8hPa | 2.5V | 00:00:00 | 00:00:00 | 00:00:00 | |
| DM0DOS-11 | 2026-09-02 18:58:06 | 49.13668 | 8.53550 | 38° | 13km/h | 22093m | -21.6m/s | -53°C | 3.6% | 42.7hPa | 2.5V | 02:49:53 | 02:25:41 | 00:00:00 | |
| BIOWL1-15 | 2026-09-02 18:58:05 | 49.13680 | 8.53560 | 31° | 5km/h | 21987m | -21.9m/s | -53.1°C | 0% | 43.4hPa | 2.6V | 02:50:13 | 02:25:46 | 00:00:00 | |
| DL1XH-west | 2026-09-02 18:58:03 | 49.13676 | 8.53558 | 39° | 9km/h | 22029m | -22.1m/s | -53.2°C | 0% | 43.1hPa | 2.5V | 02:50:13 | 02:25:44 | 00:00:00 | |
| DK7TD | 2026-09-02 18:58:02 | 49.13674 | 8.53556 | 41° | 11km/h | 22051m | -21.6m/s | -53.2°C | 0% | 43hPa | 2.5V | 02:50:13 | 02:25:43 | 00:00:00 | |
| DD1CC8 | 2026-09-02 18:58:01 | 49.13671 | 8.53553 | 40° | 11km/h | 22072m | -21.4m/s | -53.1°C | 0.7% | 42.9hPa | 2.6V | 00:00:00 | 00:00:00 | 00:00:00 | |
| DO1YAY-16 | 2026-09-02 18:57:58 | 49.13663 | 8.53544 | 54° | 11km/h | 22136m | -22.0m/s | -53.1°C | 0.7% | 42.5hPa | 2.6V | 00:00:00 | 00:00:00 | 00:00:00 | |
| DM7RM-13 | 2026-09-02 18:57:56 | 49.13661 | 8.53540 | 59° | 15km/h | 22159m | -22.0m/s | -53.2°C | 0.8% | 42.3hPa | 2.6V | 02:50:00 | 00:00:00 | 00:00:00 | |
| DM0DOS-11 | 2026-09-02 18:57:55 | 49.13651 | 8.53492 | 79° | 26km/h | 22309m | -21.9m/s | -53°C | 3.6% | 41.3hPa | 2.6V | 02:50:03 | 02:25:31 | 00:00:00 | |
| BIOWL1-15 | 2026-09-02 18:57:55 | 49.13657 | 8.53531 | 71° | 15km/h | 22202m | -21.5m/s | -53.3°C | 0% | 42hPa | 2.5V | 02:50:13 | 02:25:36 | 00:00:00 | |
| DL1XH-west | 2026-09-02 18:57:53 | 49.13655 | 8.53518 | 75° | 20km/h | 22245m | -21.4m/s | -53.1°C | 0% | 41.7hPa | 2.5V | 02:50:13 | 02:25:34 | 00:00:00 | |
| DK7TD | 2026-09-02 18:57:52 | 49.13653 | 8.53510 | 76° | 22km/h | 22266m | -21.7m/s | -53°C | 0% | 41.6hPa | 2.6V | 02:50:13 | 02:25:33 | 00:00:00 | |
| DL8DAS-14 | 2026-09-02 18:57:50 | 49.13649 | 8.53482 | 77° | 26km/h | 22331m | -21.8m/s | -53.0°C | 0.7% | 41.2hPa | 2.6V | 00:00:00 | 00:00:00 | 00:00:00 | |
| DJ2DS-15 | 2026-09-02 18:57:49 | 49.13648 | 8.53472 | 77° | 27km/h | 22353m | -21.6m/s | -53.1°C | 0.7% | 41.0hPa | 2.6V | 00:00:00 | 00:00:00 | 00:00:00 | |
| BIOWL1-15 | 2026-09-02 18:57:46 | 49.13646 | 8.53430 | 97° | 26km/h | 22439m | -22m/s | -53.6°C | 0% | 40.5hPa | 2.6V | 02:50:13 | 02:25:25 | 00:00:00 | |
| DM0DOS-11 | 2026-09-02 18:57:45 | 49.13649 | 8.53397 | 110° | 16km/h | 22525m | -22.2m/s | -53.1°C | 3.6% | 40hPa | 2.5V | 02:50:13 | 02:25:21 | 00:00:00 | |
| DL1XH-west | 2026-09-02 18:57:43 | 49.13646 | 8.53421 | 94° | 24km/h | 22461m | -21.6m/s | -53.5°C | 0% | 40.4hPa | 2.6V | 02:50:13 | 02:25:24 | 00:00:00 | |
| DK7TD | 2026-09-02 18:57:41 | 49.13648 | 8.53404 | 100° | 20km/h | 22504m | -21.9m/s | -53.2°C | 0% | 40.1hPa | 2.5V | 02:50:13 | 02:25:22 | 00:00:00 | |
| DO3MHA-11 | 2026-09-02 18:57:40 | 49.13649 | 8.53397 | 111° | 9km/h | 22526m | -22.1m/s | -53.0°C | 3.6% | 39.9hPa | 2.6V | 00:00:00 | 02:25:21 | 00:00:00 | |
| EDDB2-12 | 2026-09-02 18:57:39 | 49.13651 | 8.53392 | 116° | 15km/h | 22548m | -22.1m/s | -53.1°C | 0.7% | 39.8hPa | 2.6V | 00:00:00 | 00:00:00 | 00:00:00 | |
| BIOWL7-15 | 2026-09-02 18:57:38 | 49.13651 | 8.53392 | 118° | 15km/h | 22548m | -22.1m/s | -53.1°C | 0.7% | 39.8hPa | 2.6V | 02:51:00 | 00:00:00 | 00:00:00 | |
| DK5PH-5 | 2026-09-02 18:57:36 | 49.13655 | 8.53380 | 136° | 16km/h | 22613m | -22.8m/s | -52.7°C | 3.6% | 39.4hPa | 2.6V | 02:50:00 | 02:25:17 | 00:00:00 | |
| DM0DOS-11 | 2026-09-02 18:57:35 | 49.13660 | 8.53374 | 23° | 4km/h | 22747m | -22.5m/s | -52.7°C | 3.6% | 38.6hPa | 2.6V | 02:50:23 | 02:25:11 | 00:00:00 | |
| BIOWL1-15 | 2026-09-02 18:57:34 | 49.13658 | 8.53377 | 157° | 5km/h | 22657m | -22.7m/s | -52.8°C | 0% | 39.1hPa | 2.5V | 02:51:04 | 02:25:15 | 00:00:00 | |
| DL1XH-west | 2026-09-02 18:57:32 | 49.13660 | 8.53375 | 171° | 4km/h | 22702m | -22.3m/s | -52.7°C | 0% | 38.9hPa | 2.5V | 02:51:04 | 02:25:13 | 00:00:00 | |
| DK7TD | 2026-09-02 18:57:31 | 49.13660 | 8.53374 | 120° | 4km/h | 22724m | -22.4m/s | -52.8°C | 0% | 38.7hPa | 2.6V | 02:51:04 | 02:25:12 | 00:00:00 | |
| DO3MHA-11 | 2026-09-02 18:57:30 | 49.13660 | 8.53373 | 24° | 13km/h | 22747m | -22.5m/s | -52.7°C | 3.6% | 38.6hPa | 2.5V | 00:00:00 | 02:25:11 | 00:00:00 | |
| EDDB2-11 | 2026-09-02 18:57:28 | 49.13656 | 8.53369 | 25° | 7km/h | 22815m | -23.0m/s | -52.6°C | 0.7% | 38.2hPa | 2.5V | 00:00:00 | 00:00:00 | 00:00:00 | |
| DO1YAY-16 | 2026-09-02 18:57:27 | 49.13656 | 8.53369 | 25° | 7km/h | 22815m | -23.0m/s | -52.6°C | 0.7% | 38.2hPa | 2.5V | 00:00:00 | 00:00:00 | 00:00:00 | |
| DM0DOS-11 | 2026-09-02 18:57:25 | 49.13637 | 8.53339 | 55° | 20km/h | 22976m | -23.5m/s | -53°C | 3.6% | 37.3hPa | 2.5V | 02:50:33 | 02:25:01 | 00:00:00 | |
| BIOWL1-15 | 2026-09-02 18:57:25 | 49.13646 | 8.53357 | 48° | 18km/h | 22906m | -22.9m/s | -52.9°C | 0% | 37.7hPa | 2.6V | 02:51:04 | 02:25:04 | 00:00:00 | |
| DL1XH-west | 2026-09-02 18:57:21 | 49.13640 | 8.53346 | 58° | 20km/h | 22953m | -23.6m/s | -52.9°C | 0% | 37.4hPa | 2.5V | 02:51:04 | 02:25:02 | 00:00:00 | |
| DO3MHA-11 | 2026-09-02 18:57:20 | 49.13637 | 8.53339 | 56° | 24km/h | 22976m | -23.5m/s | -53.0°C | 3.6% | 37.3hPa | 2.5V | 02:50:00 | 02:25:01 | 00:00:00 | |
| DL8DAS-14 | 2026-09-02 18:57:19 | 49.13632 | 8.53324 | 65° | 22km/h | 23022m | -23.7m/s | -53.1°C | 0.7% | 37.0hPa | 2.5V | 00:00:00 | 00:00:00 | 00:00:00 | |
| DL4BBY-15 | 2026-09-02 18:57:18 | 49.13632 | 8.53324 | 66° | 20km/h | 23023m | -23.6m/s | -52.0°C | 0% | 0hPa | 2.5V | 00:00:00 | 00:00:00 | 00:00:00 | |
| DJ2KF-10 | 2026-09-02 18:57:17 | 49.13630 | 8.53316 | 78° | 26km/h | 23046m | -23.7m/s | -53.0°C | 3.7% | 36.8hPa | 2.5V | 00:00:00 | 02:24:58 | 00:00:00 | |
| DM0DOS-11 | 2026-09-02 18:57:15 | 49.13627 | 8.53249 | 104° | 24km/h | 23208m | -23.8m/s | -52.6°C | 3.6% | 36hPa | 2.5V | 02:50:43 | 02:24:51 | 00:00:00 | |
| BIOWL1-15 | 2026-09-02 18:57:13 | 49.13625 | 8.53277 | 91° | 24km/h | 23138m | -23.5m/s | -52.7°C | 0% | 36.4hPa | 2.6V | 02:51:04 | 02:24:54 | 00:00:00 | |
| DL1XH-west | 2026-09-02 18:57:11 | 49.13626 | 8.53257 | 97° | 22km/h | 23185m | -23.7m/s | -52.7°C | 0% | 36.1hPa | 2.5V | 02:51:04 | 02:24:52 | 00:00:00 | |
| DK7TD | 2026-09-02 18:57:10 | 49.13627 | 8.53249 | 105° | 24km/h | 23208m | -23.8m/s | -52.6°C | 0% | 36hPa | 2.5V | 02:51:04 | 02:24:51 | 00:00:00 | |
| DB0NH | 2026-09-02 18:57:10 | 49.13627 | 8.53249 | 105° | 22km/h | 23209m | -23.8m/s | -52.5°C | 3.6% | 35.9hPa | 2.6V | 00:00:00 | 02:24:51 | 00:00:00 | |
| DJ2DS-15 | 2026-09-02 18:57:08 | 49.13630 | 8.53232 | 111° | 18km/h | 23256m | -23.5m/s | -52.5°C | 3.5% | 35.7hPa | 2.6V | 00:00:00 | 02:24:49 | 00:00:00 | |
| DL0LBS | 2026-09-02 18:57:07 | 49.13630 | 8.53232 | 111° | 20km/h | 23256m | -23.5m/s | -52.5°C | 0.7% | 35.7hPa | 2.6V | 02:51:00 | 00:00:00 | 00:00:00 | |
| DK5PH-5 | 2026-09-02 18:57:06 | 49.13632 | 8.53218 | 107° | 20km/h | 23302m | -23.4m/s | -52.5°C | 3.6% | 35.4hPa | 2.6V | 00:00:00 | 02:24:47 | 00:00:00 | |
| DM0DOS-11 | 2026-09-02 18:57:05 | 49.13636 | 8.53185 | 99° | 16km/h | 23441m | -23.9m/s | -52.7°C | 3.6% | 34.7hPa | 2.6V | 02:50:53 | 02:24:41 | 00:00:00 | |
| BIOWL1-15 | 2026-09-02 18:57:03 | 49.13634 | 8.53202 | 100° | 13km/h | 23371m | -23.2m/s | -52.6°C | 0% | 35hPa | 2.5V | 02:51:04 | 02:24:44 | 00:00:00 | |
| DL1XH-west | 2026-09-02 18:57:00 | 49.13636 | 8.53185 | 100° | 16km/h | 23441m | -23.9m/s | -52.7°C | 0% | 34.7hPa | 2.6V | 02:51:04 | 02:24:41 | 00:00:00 | |
| DK7TD | 2026-09-02 18:56:58 | 49.13637 | 8.53173 | 100° | 13km/h | 23488m | -24.1m/s | -52.8°C | 0% | 34.4hPa | 2.5V | 02:51:04 | 02:24:39 | 00:00:00 | |
| EDDB2-11 | 2026-09-02 18:56:57 | 49.13638 | 8.53163 | 95° | 13km/h | 23538m | -24.6m/s | -52.7°C | 0.7% | 34.2hPa | 2.5V | 00:00:00 | 00:00:00 | 00:00:00 | |
| DO1YAY-16 | 2026-09-02 18:56:56 | 49.13638 | 8.53163 | 95° | 13km/h | 23538m | -24.6m/s | -52.7°C | 0.7% | 34.2hPa | 2.5V | 00:00:00 | 00:00:00 | 00:00:00 | |
| DM0DOS-11 | 2026-09-02 18:56:55 | 49.13647 | 8.53122 | 119° | 26km/h | 23684m | -24.7m/s | -52.3°C | 3.5% | 33.4hPa | 2.5V | 02:51:03 | 02:24:31 | 00:00:00 | |
| DM7RM-13 | 2026-09-02 18:56:54 | 49.13638 | 8.53158 | 110° | 16km/h | 23562m | -24.8m/s | -52.8°C | 0.7% | 34.1hPa | 2.6V | 02:51:00 | 00:00:00 | 00:00:00 | |
| SFWM-10 | 2026-09-02 18:56:53 | 49.13639 | 8.53151 | 106° | 18km/h | 23586m | -24.6m/s | -52.7°C | 0.7% | 33.9hPa | 2.6V | 00:00:00 | 00:00:00 | 00:00:00 | |
| DL1XH1-15 | 2026-09-02 18:56:52 | 49.13657 | 8.53095 | 121° | 29km/h | 23756m | -24.3m/s | -52.2°C | 3.5% | 33hPa | 2.6V | 02:51:06 | 02:24:28 | 00:00:00 | |
| BIOWL1-15 | 2026-09-02 18:56:52 | 49.13643 | 8.53138 | 113° | 24km/h | 23635m | -24.7m/s | -52.5°C | 0% | 33.7hPa | 2.6V | 02:51:04 | 02:24:33 | 00:00:00 | |
| DL1XH-west | 2026-09-02 18:56:49 | 49.13650 | 8.53113 | 115° | 27km/h | 23709m | -24.1m/s | -52.2°C | 0% | 33.3hPa | 2.5V | 02:51:04 | 02:24:30 | 00:00:00 | |
| DK7TD | 2026-09-02 18:56:47 | 49.13657 | 8.53095 | 121° | 29km/h | 23756m | -24.3m/s | -52.3°C | 0% | 33hPa | 2.6V | 02:51:55 | 02:24:28 | 00:00:00 | |
| DJ2DS-15 | 2026-09-02 18:56:47 | 49.13657 | 8.53095 | 122° | 20km/h | 23757m | -24.3m/s | -52.2°C | 3.5% | 33.0hPa | 2.6V | 02:51:00 | 02:24:28 | 00:00:00 | |
| DL0LBS | 2026-09-02 18:56:46 | 49.13657 | 8.53095 | 122° | 29km/h | 23757m | -24.3m/s | -52.3°C | 0.7% | 33.0hPa | 2.5V | 02:51:00 | 00:00:00 | 00:00:00 | |
| DN1GJH-1 | 2026-09-02 18:56:45 | 49.13661 | 8.53086 | 133° | 27km/h | 23780m | -24.6m/s | -52.3°C | 0.7% | 32.9hPa | 2.5V | 02:51:00 | 00:00:00 | 00:00:00 | |
| DL1ZP-14 | 2026-09-02 18:56:44 | 49.13670 | 8.53071 | 139° | 26km/h | 23829m | -24.4m/s | -52.2°C | 0.7% | 32.7hPa | 2.5V | 00:00:00 | 00:00:00 | 00:00:00 | |
| DL1XH1-15 | 2026-09-02 18:56:42 | 49.13708 | 8.53050 | 192° | 16km/h | 24000m | -24.2m/s | -51.9°C | 3.5% | 31.8hPa | 2.5V | 02:51:16 | 02:24:18 | 00:00:00 | |
| BIOWL1-15 | 2026-09-02 18:56:42 | 49.13681 | 8.53059 | 149° | 26km/h | 23877m | -24.8m/s | -51.7°C | 0% | 32.4hPa | 2.6V | 02:51:55 | 02:24:23 | 00:00:00 | |
| DL1XH-west | 2026-09-02 18:56:38 | 49.13703 | 8.53049 | 178° | 20km/h | 23976m | -24.9m/s | -51.8°C | 0% | 31.9hPa | 2.6V | 02:51:55 | 02:24:19 | 00:00:00 | |
| DK7TD | 2026-09-02 18:56:36 | 49.13711 | 8.53051 | 191° | 16km/h | 24024m | -24.9m/s | -52°C | 0% | 31.7hPa | 2.5V | 02:51:55 | 02:24:17 | 00:00:00 | |
| DK5PH-5 | 2026-09-02 18:56:36 | 49.13711 | 8.53051 | 191° | 11km/h | 24025m | -24.9m/s | -51.9°C | 3.5% | 31.6hPa | 2.5V | 00:00:00 | 02:24:17 | 00:00:00 | |
| DM0DOS-11 | 2026-09-02 18:56:35 | 49.13728 | 8.53050 | 143° | 13km/h | 24171m | -25.1m/s | -52.4°C | 3.6% | 31hPa | 2.5V | 02:51:23 | 02:24:11 | 00:00:00 | |
| DL6DJ-15 | 2026-09-02 18:56:33 | 49.13723 | 8.53053 | 170° | 9km/h | 24122m | -25.4m/s | -52.2°C | 0.7% | 31.2hPa | 2.6V | 00:00:00 | 00:00:00 | 00:00:00 | |
| DL1XH1-15 | 2026-09-02 18:56:32 | 49.13738 | 8.53043 | 155° | 15km/h | 24244m | -24.4m/s | -52°C | 3.5% | 30.6hPa | 2.6V | 02:51:26 | 02:24:08 | 00:00:00 | |
| BIOWL1-15 | 2026-09-02 18:56:31 | 49.13726 | 8.53052 | 162° | 13km/h | 24146m | -25.1m/s | -52.3°C | 0% | 31.1hPa | 2.5V | 02:51:55 | 02:24:12 | 00:00:00 | |
| DL1XH-west | 2026-09-02 18:56:27 | 49.13738 | 8.53043 | 156° | 15km/h | 24244m | -24.4m/s | -52°C | 0% | 30.6hPa | 2.6V | 02:51:55 | 02:24:08 | 00:00:00 | |
| DK7TD | 2026-09-02 18:56:25 | 49.13746 | 8.53042 | 180° | 16km/h | 24293m | -25.6m/s | -51.9°C | 0% | 30.4hPa | 2.5V | 02:51:55 | 02:24:06 | 00:00:00 | |
| DM0DOS-11 | 2026-09-02 18:56:25 | 49.13763 | 8.53052 | 217° | 13km/h | 24421m | -26.9m/s | -50.9°C | 3.3% | 29.8hPa | 2.6V | 02:51:33 | 02:24:01 | 00:00:00 | |
| BIOWL1-15 | 2026-09-02 18:56:22 | 49.13763 | 8.53052 | 217° | 13km/h | 24421m | -26.9m/s | -50.9°C | 0% | 29.8hPa | 2.6V | 02:51:55 | 02:24:01 | 00:00:00 | |
| DL1XH-west | 2026-09-02 18:56:17 | 49.13769 | 8.53063 | 252° | 11km/h | 24501m | -26.7m/s | -51°C | 0% | 29.5hPa | 2.5V | 02:51:55 | 02:23:58 | 00:00:00 | |
| DK7TD | 2026-09-02 18:56:13 | 49.13771 | 8.53074 | 231° | 5km/h | 24608m | -26.6m/s | -51.1°C | 0% | 29hPa | 2.5V | 02:51:55 | 02:23:54 | 00:00:00 | |
| BIOWL1-15 | 2026-09-02 18:56:09 | 49.13773 | 8.53076 | 140° | 2km/h | 24714m | -26.8m/s | -51.1°C | 0% | 28.5hPa | 2.6V | 02:51:55 | 02:23:50 | 00:00:00 | |
| AU51GT2 | 2026-09-02 18:56:08 | 49.13774 | 8.53075 | 142° | 5km/h | 24741m | -27.0m/s | -50.9°C | 0.6% | 28.4hPa | 2.5V | 00:00:00 | 00:00:00 | 00:00:00 | |
| DO3MHA-11 | 2026-09-02 18:56:07 | 49.13775 | 8.53073 | 121° | 11km/h | 24768m | -26.9m/s | -50.8°C | 3.3% | 28.2hPa | 2.5V | 00:00:00 | 02:23:48 | 00:00:00 | |
| DK5PH-5 | 2026-09-02 18:56:06 | 49.13775 | 8.53070 | 130° | 9km/h | 24795m | -26.2m/s | -50.8°C | 3.2% | 28.2hPa | 2.5V | 02:51:00 | 02:23:47 | 00:00:00 | |
| DL1XH-west | 2026-09-02 18:56:06 | 49.13776 | 8.53070 | 130° | 7km/h | 24794m | -26.3m/s | -50.8°C | 0% | 28.2hPa | 2.5V | 02:51:55 | 02:23:47 | 00:00:00 | |
| DN1GJH-1 | 2026-09-02 18:56:04 | 49.13777 | 8.53067 | 120° | 11km/h | 24821m | -27.5m/s | -50.8°C | 0.6% | 28.0hPa | 2.6V | 02:51:00 | 00:00:00 | 00:00:00 | |
| DM0DOS-11 | 2026-09-02 18:56:03 | 49.13780 | 8.53038 | 104° | 9km/h | 25009m | -26.5m/s | -50.8°C | 3.2% | 27.3hPa | 2.6V | 02:51:55 | 02:23:39 | 00:00:00 | |
| BIOWL1-15 | 2026-09-02 18:56:03 | 49.13780 | 8.53042 | 90° | 11km/h | 24982m | -27.2m/s | -50.9°C | 0% | 27.4hPa | 2.5V | 02:51:55 | 02:23:40 | 00:00:00 | |
| DK7TD | 2026-09-02 18:56:02 | 49.13779 | 8.53055 | 98° | 13km/h | 24902m | -27m/s | -50.9°C | 0% | 27.7hPa | 2.6V | 02:51:55 | 02:23:43 | 00:00:00 | |
| DL1XH1-15 | 2026-09-02 18:56:02 | 49.13781 | 8.53035 | 112° | 11km/h | 25035m | -27.5m/s | -50.9°C | 3.2% | 27.2hPa | 2.6V | 02:51:56 | 02:23:38 | 00:00:00 | |
| DL1XH-west | 2026-09-02 18:55:55 | 49.13783 | 8.53029 | 131° | 11km/h | 25090m | -27.4m/s | -51.1°C | 0% | 26.9hPa | 2.5V | 02:52:46 | 02:23:36 | 00:00:00 | |
| DO1YAY-16 | 2026-09-02 18:55:54 | 49.13786 | 8.53022 | 141° | 9km/h | 25145m | -27.9m/s | -51.1°C | 0.6% | 26.7hPa | 2.5V | 00:00:00 | 00:00:00 | 00:00:00 | |
| DL1XH1-15 | 2026-09-02 18:55:52 | 49.13799 | 8.53001 | 122° | 11km/h | 25311m | -28.1m/s | -51.1°C | 3.4% | 26hPa | 2.5V | 02:52:06 | 02:23:28 | 00:00:00 | |
| DK7TD | 2026-09-02 18:55:52 | 49.13788 | 8.53019 | 129° | 13km/h | 25172m | -28m/s | -51.1°C | 0% | 26.6hPa | 2.6V | 02:52:46 | 02:23:33 | 00:00:00 | |
| BIOWL1-15 | 2026-09-02 18:55:49 | 49.13795 | 8.53008 | 128° | 13km/h | 25255m | -28.3m/s | -51.2°C | 0% | 26.3hPa | 2.5V | 02:52:46 | 02:23:30 | 00:00:00 | |
| HSKMA3-T | 2026-09-02 18:55:48 | 49.13797 | 8.53005 | 135° | 13km/h | 25283m | -28.3m/s | -51.1°C | 0% | 26.1hPa | 2.5V | 02:57:01 | 02:23:29 | 00:00:00 | |
| DL8DAS-14 | 2026-09-02 18:55:45 | 49.13802 | 8.52996 | 139° | 7km/h | 25367m | -27.8m/s | -51.0°C | 0.6% | 25.8hPa | 2.6V | 00:00:00 | 00:00:00 | 00:00:00 | |
| DL1XH-west | 2026-09-02 18:55:44 | 49.13803 | 8.52995 | 147° | 5km/h | 25395m | -27.9m/s | -51°C | 0% | 25.7hPa | 2.6V | 02:52:46 | 02:23:25 | 00:00:00 | |
| DM0DOS-11 | 2026-09-02 18:55:43 | 49.13810 | 8.52993 | 144° | 7km/h | 25562m | -28.2m/s | -50.8°C | 3.3% | 25hPa | 2.5V | 02:52:15 | 02:23:19 | 00:00:00 | |
| DK7TD | 2026-09-02 18:55:41 | 49.13807 | 8.52995 | 211° | 5km/h | 25477m | -27.5m/s | -51°C | 0% | 25.4hPa | 2.5V | 02:52:46 | 02:23:22 | 00:00:00 | |
| BIOWL1-15 | 2026-09-02 18:55:38 | 49.13810 | 8.52993 | 144° | 7km/h | 25562m | -28.2m/s | -50.8°C | 0% | 25hPa | 2.5V | 02:52:46 | 02:23:19 | 00:00:00 | |
| DO3MHA-11 | 2026-09-02 18:55:37 | 49.13811 | 8.52992 | 123° | 7km/h | 25590m | -28.4m/s | -50.8°C | 3.4% | 24.9hPa | 2.6V | 00:00:00 | 02:23:18 | 00:00:00 | |
| DK5PH-5 | 2026-09-02 18:55:36 | 49.13812 | 8.52989 | 131° | 7km/h | 25618m | -28.6m/s | -50.7°C | 3.3% | 24.8hPa | 2.6V | 00:00:00 | 02:23:17 | 00:00:00 | |
| EDDB2-12 | 2026-09-02 18:55:35 | 49.13813 | 8.52986 | 111° | 9km/h | 25646m | -28.4m/s | -50.6°C | 0.6% | 24.7hPa | 2.6V | 00:00:00 | 00:00:00 | 00:00:00 | |
| BIOWL7-15 | 2026-09-02 18:55:34 | 49.13813 | 8.52986 | 113° | 9km/h | 25646m | -28.4m/s | -50.6°C | 0.6% | 24.7hPa | 2.6V | 02:52:00 | 00:00:00 | 00:00:00 | |
| DM0DOS-11 | 2026-09-02 18:55:33 | 49.13819 | 8.52969 | 157° | 4km/h | 25845m | -28.9m/s | -50.1°C | 3.2% | 24hPa | 2.6V | 02:52:25 | 02:23:09 | 00:00:00 | |
| DL1XH-west | 2026-09-02 18:55:33 | 49.13815 | 8.52980 | 108° | 11km/h | 25702m | -28.5m/s | -50.6°C | 0% | 24.5hPa | 2.6V | 02:52:46 | 02:23:14 | 00:00:00 | |
| DJ2KF-10 | 2026-09-02 18:55:33 | 49.13815 | 8.52980 | 109° | 7km/h | 25703m | -28.5m/s | -50.6°C | 3.3% | 24.5hPa | 2.6V | 00:00:00 | 02:23:14 | 00:00:00 | |
| DL1XH1-15 | 2026-09-02 18:55:32 | 49.13820 | 8.52968 | 131° | 4km/h | 25875m | -29.4m/s | -50°C | 3.2% | 23.9hPa | 2.6V | 02:52:26 | 02:23:08 | 00:00:00 | |
| DK7TD | 2026-09-02 18:55:31 | 49.13817 | 8.52974 | 104° | 9km/h | 25760m | -28.8m/s | -50.6°C | 0% | 24.3hPa | 2.5V | 02:52:46 | 02:23:12 | 00:00:00 | |
| DL6DJ-15 | 2026-09-02 18:55:31 | 49.13817 | 8.52972 | 133° | 4km/h | 25788m | -29.1m/s | -50.4°C | 0.6% | 24.2hPa | 2.5V | 00:00:00 | 00:00:00 | 00:00:00 | |
| IW2NTF | 2026-09-02 18:55:30 | 49.13821 | 8.52968 | 159° | 2km/h | 25934m | -29.7m/s | -49.9°C | 3.2% | 23.7hPa | 2.5V | 02:52:28 | 02:23:06 | 00:00:00 | |
| BIOWL1-15 | 2026-09-02 18:55:27 | 49.13819 | 8.52968 | 132° | 4km/h | 25875m | -29.4m/s | -50°C | 0% | 23.9hPa | 2.6V | 02:52:46 | 02:23:08 | 00:00:00 | |
| DJ2DS-15 | 2026-09-02 18:55:27 | 49.13819 | 8.52968 | 132° | 5km/h | 25875m | -29.4m/s | -49.9°C | 3.2% | 23.8hPa | 2.5V | 00:00:00 | 02:23:08 | 00:00:00 | |
| DD1CC8 | 2026-09-02 18:55:26 | 49.13820 | 8.52968 | 204° | 4km/h | 25905m | -29.3m/s | -49.9°C | 0.5% | 23.8hPa | 2.5V | 00:00:00 | 00:00:00 | 00:00:00 | |
| DJ2DS-15 | 2026-09-02 18:55:25 | 49.13821 | 8.52968 | 159° | 2km/h | 25934m | -29.7m/s | -49.9°C | 0.6% | 23.7hPa | 2.5V | 00:00:00 | 00:00:00 | 00:00:00 | |
| DM0DOS-11 | 2026-09-02 18:55:23 | 49.13824 | 8.52967 | 79° | 4km/h | 26139m | -29.7m/s | -50°C | 3.2% | 22.9hPa | 2.5V | 02:52:35 | 02:22:59 | 00:00:00 | |
| DO1YAY-16 | 2026-09-02 18:55:23 | 49.13823 | 8.52969 | 195° | 2km/h | 26022m | -29.7m/s | -50.0°C | 0.6% | 23.4hPa | 2.6V | 00:00:00 | 00:00:00 | 00:00:00 | |
| DL1XH1-15 | 2026-09-02 18:55:22 | 49.13824 | 8.52966 | 34° | 5km/h | 26168m | -29.3m/s | -50.1°C | 3.2% | 22.8hPa | 2.6V | 02:52:36 | 02:22:58 | 00:00:00 | |
| DL1XH-west | 2026-09-02 18:55:22 | 49.13823 | 8.52969 | 196° | 4km/h | 26022m | -29.7m/s | -50°C | 0% | 23.4hPa | 2.6V | 02:52:46 | 02:23:03 | 00:00:00 | |
| DK7TD | 2026-09-02 18:55:20 | 49.13825 | 8.52969 | 129° | 2km/h | 26081m | -29.2m/s | -50°C | 0% | 23.2hPa | 2.5V | 02:52:46 | 02:23:01 | 00:00:00 | |
| BIOWL1-15 | 2026-09-02 18:55:16 | 49.13823 | 8.52965 | 46° | 4km/h | 26197m | -28.6m/s | -50.1°C | 0% | 22.8hPa | 2.6V | 02:52:46 | 02:22:57 | 00:00:00 | |
| DL8DAS-15 | 2026-09-02 18:55:15 | 49.13823 | 8.52965 | 47° | 4km/h | 26198m | -28.6m/s | -50.1°C | 0.6% | 22.8hPa | 2.5V | 02:52:00 | 00:00:00 | 00:00:00 | |
| BIOWL7-15 | 2026-09-02 18:55:14 | 49.13822 | 8.52964 | 63° | 5km/h | 26226m | -28.8m/s | -50.1°C | 0.6% | 22.6hPa | 2.5V | 02:52:00 | 00:00:00 | 00:00:00 | |
| DM0DOS-11 | 2026-09-02 18:55:13 | 49.13831 | 8.52952 | 170° | 16km/h | 26426m | -28.8m/s | -49.5°C | 3.2% | 21.9hPa | 2.5V | 02:52:45 | 02:22:49 | 00:00:00 | |
| DL1XH1-15 | 2026-09-02 18:55:12 | 49.13835 | 8.52950 | 161° | 16km/h | 26455m | -29.2m/s | -49.4°C | 3.1% | 21.8hPa | 2.5V | 02:52:46 | 02:22:48 | 00:00:00 | |
| DL1XH-west | 2026-09-02 18:55:11 | 49.13822 | 8.52957 | 137° | 9km/h | 26340m | -29.3m/s | -50°C | 0% | 22.2hPa | 2.6V | 02:52:46 | 02:22:52 | 00:00:00 | |
| DK7TD | 2026-09-02 18:55:09 | 49.13827 | 8.52954 | 163° | 16km/h | 26397m | -29.2m/s | -49.8°C | 0% | 22.1hPa | 2.5V | 02:52:46 | 02:22:50 | 00:00:00 | |
| BIOWL1-15 | 2026-09-02 18:55:05 | 49.13843 | 8.52947 | 161° | 16km/h | 26513m | -30.5m/s | -49.2°C | 0% | 21.6hPa | 2.6V | 02:53:37 | 02:22:46 | 00:00:00 | |
| EDDB2-12 | 2026-09-02 18:55:04 | 49.13847 | 8.52946 | 169° | 15km/h | 26544m | -30.1m/s | -49.1°C | 0.5% | 21.6hPa | 2.5V | 00:00:00 | 00:00:00 | 00:00:00 | |
| DM0DOS-11 | 2026-09-02 18:55:03 | 49.13863 | 8.52940 | 159° | 5km/h | 26724m | -30.8m/s | -49.3°C | 3.1% | 21hPa | 2.5V | 02:52:55 | 02:22:39 | 00:00:00 | |
| DJ2KF-10 | 2026-09-02 18:55:03 | 49.13850 | 8.52944 | 162° | 13km/h | 26574m | -30.3m/s | -49.1°C | 3.0% | 21.4hPa | 2.5V | 02:52:00 | 02:22:44 | 00:00:00 | |
| DL1XH1-15 | 2026-09-02 18:55:02 | 49.13864 | 8.52939 | 155° | 7km/h | 26755m | -30.9m/s | -49.4°C | 3.1% | 20.9hPa | 2.5V | 02:52:56 | 02:22:38 | 00:00:00 | |
| DL1XH-west | 2026-09-02 18:55:00 | 49.13859 | 8.52941 | 166° | 9km/h | 26664m | -30.1m/s | -49.2°C | 0% | 21.2hPa | 2.6V | 02:53:37 | 02:22:41 | 00:00:00 | |
| DK7TD | 2026-09-02 18:54:59 | 49.13861 | 8.52940 | 160° | 9km/h | 26694m | -30.4m/s | -49.3°C | 0% | 21.1hPa | 2.6V | 02:53:37 | 02:22:40 | 00:00:00 | |
| DO8TBO-1 | 2026-09-02 18:54:58 | 49.13862 | 8.52939 | 160° | 13km/h | 26725m | -30.7m/s | -49.3°C | 3.1% | 20.9hPa | 2.5V | 00:00:00 | 02:22:39 | 00:00:00 | |
| IW2NTF | 2026-09-02 18:54:57 | 49.13869 | 8.52930 | 127° | 9km/h | 26907m | -31.3m/s | -48.9°C | 3.1% | 20.4hPa | 2.5V | 02:53:01 | 02:22:33 | 00:00:00 | |
| BIOWL1-15 | 2026-09-02 18:54:55 | 49.13866 | 8.52936 | 141° | 7km/h | 26815m | -31.1m/s | -49.2°C | 0% | 20.7hPa | 2.6V | 02:53:37 | 02:22:36 | 00:00:00 | |
| BIOWL7-15 | 2026-09-02 18:54:54 | 49.13866 | 8.52936 | 142° | 7km/h | 26815m | -31.1m/s | -49.2°C | 0.5% | 20.7hPa | 2.6V | 02:53:00 | 00:00:00 | 00:00:00 | |
| DM0DOS-11 | 2026-09-02 18:54:53 | 49.13879 | 8.52922 | 148° | 16km/h | 27031m | -31.1m/s | -48.8°C | 3% | 20hPa | 2.6V | 02:53:05 | 02:22:29 | 00:00:00 | |
| DL1XH1-15 | 2026-09-02 18:54:52 | 49.13882 | 8.52919 | 145° | 15km/h | 27062m | -30.7m/s | -48.8°C | 3% | 19.9hPa | 2.5V | 02:53:06 | 02:22:28 | 00:00:00 | |
| DL1XH-west | 2026-09-02 18:54:49 | 49.13876 | 8.52924 | 156° | 13km/h | 27000m | -31.4m/s | -48.7°C | 0% | 20.1hPa | 2.6V | 02:53:37 | 02:22:30 | 00:00:00 | |
| DK7TD | 2026-09-02 18:54:48 | 49.13879 | 8.52922 | 149° | 16km/h | 27031m | -31.1m/s | -48.8°C | 0% | 20hPa | 2.6V | 02:53:37 | 02:22:29 | 00:00:00 | |
| BIOWL1-15 | 2026-09-02 18:54:46 | 49.13891 | 8.52906 | 132° | 16km/h | 27156m | -31.4m/s | -48.9°C | 0% | 19.6hPa | 2.6V | 02:53:37 | 02:22:25 | 00:00:00 | |
| KANTATE | 2026-09-02 18:54:45 | 49.13885 | 8.52915 | 146° | 18km/h | 27093m | -31.7m/s | -48.9°C | 0.5% | 19.8hPa | 2.6V | 00:00:00 | 00:00:00 | 00:00:00 | |
| DL8DAS-14 | 2026-09-02 18:54:43 | 49.13893 | 8.52901 | 119° | 16km/h | 27187m | -31.5m/s | -48.9°C | 0.5% | 19.6hPa | 2.6V | 00:00:00 | 00:00:00 | 00:00:00 | |
| DL1XH1-15 | 2026-09-02 18:54:42 | 49.13910 | 8.52877 | 163° | 22km/h | 27373m | -31.5m/s | -48.7°C | 3.2% | 19hPa | 2.6V | 02:53:16 | 02:22:18 | 00:00:00 | |
| DN1GJH-1 | 2026-09-02 18:54:41 | 49.13895 | 8.52896 | 127° | 15km/h | 27218m | -31.2m/s | -48.8°C | 0.6% | 19.5hPa | 2.5V | 02:53:00 | 00:00:00 | 00:00:00 | |
| IW2NTF | 2026-09-02 18:54:40 | 49.13919 | 8.52875 | 172° | 18km/h | 27436m | -32.5m/s | -48.6°C | 3.2% | 18.8hPa | 2.5V | 02:53:18 | 02:22:16 | 00:00:00 | |
| DL1XH-west | 2026-09-02 18:54:38 | 49.13905 | 8.52880 | 155° | 18km/h | 27342m | -31.1m/s | -48.9°C | 0% | 19.1hPa | 2.6V | 02:53:37 | 02:22:19 | 00:00:00 | |
| BIOWL1-15 | 2026-09-02 18:54:34 | 49.13924 | 8.52874 | 173° | 16km/h | 27469m | -32.5m/s | -48.6°C | 0% | 18.7hPa | 2.5V | 02:53:37 | 02:22:15 | 00:00:00 | |
| EDDB2-12 | 2026-09-02 18:54:33 | 49.13927 | 8.52874 | 178° | 13km/h | 27501m | -32.7m/s | -48.6°C | 0.5% | 18.6hPa | 2.6V | 00:00:00 | 00:00:00 | 00:00:00 | |
| DL1XH1-15 | 2026-09-02 18:54:32 | 49.13936 | 8.52873 | 117° | 4km/h | 27698m | -32.5m/s | -47.9°C | 3% | 18.1hPa | 2.6V | 02:53:26 | 02:22:08 | 00:00:00 | |
| DL1XH-west | 2026-09-02 18:54:28 | 49.13935 | 8.52874 | 159° | 4km/h | 27665m | -32.9m/s | -48.2°C | 0% | 18.2hPa | 2.5V | 02:53:37 | 02:22:09 | 00:00:00 | |
| DK7TD | 2026-09-02 18:54:27 | 49.13936 | 8.52873 | 118° | 4km/h | 27698m | -32.5m/s | -47.9°C | 0% | 18.1hPa | 2.6V | 02:53:37 | 02:22:08 | 00:00:00 | |
| BIOWL1-15 | 2026-09-02 18:54:23 | 49.13937 | 8.52865 | 108° | 9km/h | 27828m | -33m/s | -46.9°C | 0% | 17.7hPa | 2.5V | 02:53:37 | 02:22:04 | 00:00:00 | |
| DL1XH1-15 | 2026-09-02 18:54:22 | 49.13942 | 8.52852 | 149° | 5km/h | 28029m | -33.6m/s | -46.1°C | 2.7% | 17.2hPa | 2.5V | 02:53:36 | 02:21:58 | 00:00:00 | |
| DL1XH-west | 2026-09-02 18:54:17 | 49.13942 | 8.52852 | 150° | 5km/h | 28029m | -33.6m/s | -46.1°C | 0% | 17.2hPa | 2.5V | 02:53:37 | 02:21:58 | 00:00:00 | |
| DK7TD | 2026-09-02 18:54:16 | 49.13943 | 8.52851 | 156° | 5km/h | 28063m | -33.6m/s | -45.9°C | 0% | 17.1hPa | 2.6V | 02:53:37 | 02:21:57 | 00:00:00 | |
| BIOWL1-15 | 2026-09-02 18:54:15 | 49.13950 | 8.52849 | 172° | 13km/h | 28163m | -33.7m/s | -45.7°C | 0% | 16.9hPa | 2.5V | 02:54:28 | 02:21:54 | 00:00:00 | |
| DB0UT-9 | 2026-09-02 18:54:14 | 49.13945 | 8.52850 | 169° | 9km/h | 28097m | -33.5m/s | -45.8°C | 0.5% | 17.0hPa | 2.5V | 02:54:00 | 00:00:00 | 00:00:00 | |
| DM0DOS-11 | 2026-09-02 18:54:13 | 49.13967 | 8.52847 | 169° | 11km/h | 28335m | -34.3m/s | -45.6°C | 2.6% | 16.4hPa | 2.5V | 02:53:45 | 02:21:49 | 00:00:00 | |
| DJ2DS-15 | 2026-09-02 18:54:13 | 49.13950 | 8.52849 | 172° | 13km/h | 28164m | -33.7m/s | -45.7°C | 0.4% | 16.9hPa | 2.5V | 00:00:00 | 00:00:00 | 00:00:00 | |
| CB1BUN | 2026-09-02 18:54:12 | 49.13950 | 8.52849 | 173° | 13km/h | 28164m | -33.7m/s | -45.7°C | 0.4% | 16.9hPa | 2.5V | 02:54:00 | 00:00:00 | 00:00:00 | |
| DL1XH-15 | 2026-09-02 18:54:11 | 49.13972 | 8.52846 | 163° | 9km/h | 28403m | -35.1m/s | -45.5°C | 2.5% | 16.3hPa | 2.5V | 02:53:47 | 02:21:47 | 00:00:00 | |
| DL1XH-west | 2026-09-02 18:54:07 | 49.13970 | 8.52847 | 168° | 13km/h | 28369m | -35.4m/s | -45.6°C | 0% | 16.4hPa | 2.5V | 02:54:28 | 02:21:48 | 00:00:00 | |
| DJ2DS-15 | 2026-09-02 18:54:07 | 49.13969 | 8.52847 | 169° | 16km/h | 28369m | -35.4m/s | -45.5°C | 2.6% | 16.3hPa | 2.6V | 00:00:00 | 02:21:48 | 00:00:00 | |
| DK5PH-5 | 2026-09-02 18:54:06 | 49.13972 | 8.52846 | 164° | 18km/h | 28403m | -35.1m/s | -45.5°C | 2.5% | 16.2hPa | 2.6V | 00:00:00 | 02:21:47 | 00:00:00 | |
| DF1GD-15 | 2026-09-02 18:54:05 | 49.13972 | 8.52846 | 164° | 9km/h | 28403m | -35.1m/s | -45.6°C | 0.4% | 16.3hPa | 2.6V | 02:54:00 | 00:00:00 | 00:00:00 | |
| AU51GT2 | 2026-09-02 18:54:04 | 49.13976 | 8.52844 | 149° | 9km/h | 28474m | -36.4m/s | -45.7°C | 0.4% | 16.1hPa | 2.6V | 00:00:00 | 00:00:00 | 00:00:00 | |
| DM0DOS-11 | 2026-09-02 18:54:03 | 49.13994 | 8.52827 | 152° | 22km/h | 28685m | -35.2m/s | -46.1°C | 2.7% | 15.6hPa | 2.6V | 02:53:55 | 02:21:39 | 00:00:00 | |
| BIOWL1-15 | 2026-09-02 18:54:03 | 49.13978 | 8.52843 | 146° | 11km/h | 28509m | -36m/s | -45.7°C | 0% | 16hPa | 2.5V | 02:54:28 | 02:21:44 | 00:00:00 | |
| DJ2KF-10 | 2026-09-02 18:54:02 | 49.13980 | 8.52840 | 141° | 18km/h | 28545m | -35.9m/s | -45.8°C | 2.6% | 15.9hPa | 2.5V | 00:00:00 | 02:21:43 | 00:00:00 | |
| DL1XH-15 | 2026-09-02 18:54:01 | 49.14005 | 8.52820 | 158° | 24km/h | 28755m | -35.2m/s | -46.1°C | 2.7% | 15.4hPa | 2.5V | 02:53:57 | 02:21:37 | 00:00:00 | |
| DL1XH-west | 2026-09-02 18:53:56 | 49.14005 | 8.52820 | 159° | 24km/h | 28755m | -35.2m/s | -46.1°C | 0% | 15.4hPa | 2.5V | 02:54:28 | 02:21:37 | 00:00:00 | |
| BIOWL1-15 | 2026-09-02 18:53:54 | 49.14024 | 8.52813 | 185° | 16km/h | 28896m | -36m/s | -45.8°C | 0% | 15.1hPa | 2.5V | 02:54:28 | 02:21:33 | 00:00:00 | |
| DM0DOS-11 | 2026-09-02 18:53:53 | 49.14041 | 8.52823 | 205° | 26km/h | 29040m | -35.8m/s | -45.6°C | 2.7% | 14.8hPa | 2.6V | 02:54:05 | 02:21:29 | 00:00:00 | |
| CB1BUN | 2026-09-02 18:53:52 | 49.14020 | 8.52813 | 175° | 16km/h | 28861m | -36.2m/s | -45.9°C | 0.4% | 15.2hPa | 2.5V | 02:54:00 | 00:00:00 | 00:00:00 | |
| DL1XH-15 | 2026-09-02 18:53:51 | 49.14053 | 8.52833 | 205° | 29km/h | 29111m | -35m/s | -45.3°C | 2.7% | 14.6hPa | 2.5V | 02:54:07 | 02:21:27 | 00:00:00 | |
| DL1XH-west | 2026-09-02 18:53:45 | 49.14059 | 8.52837 | 197° | 29km/h | 29146m | -35.7m/s | -45.4°C | 0% | 14.6hPa | 2.5V | 02:54:28 | 02:21:26 | 00:00:00 | |
| BIOWL1-15 | 2026-09-02 18:53:44 | 49.14078 | 8.52842 | 171° | 20km/h | 29252m | -34.8m/s | -45.5°C | 0% | 14.3hPa | 2.6V | 02:54:28 | 02:21:23 | 00:00:00 | |
| DL1XH1-15 | 2026-09-02 18:53:42 | 49.14091 | 8.52835 | 185° | 5km/h | 29442m | -37.7m/s | -45°C | 2.7% | 13.9hPa | 2.6V | 02:54:16 | 02:21:18 | 00:00:00 | |
| DL8DAS-14 | 2026-09-02 18:53:41 | 49.14083 | 8.52840 | 161° | 15km/h | 29288m | -38.0m/s | -45.5°C | 0.4% | 14.3hPa | 2.5V | 00:00:00 | 00:00:00 | 00:00:00 | |
| DL1XH-15 | 2026-09-02 18:53:40 | 49.14095 | 8.52838 | 211° | 11km/h | 29522m | -40.8m/s | -44.9°C | 2.8% | 13.8hPa | 2.5V | 02:54:18 | 02:21:16 | 00:00:00 | |
| DL1XH-west | 2026-09-02 18:53:34 | 49.14097 | 8.52840 | 208° | 9km/h | 29560m | -37.4m/s | -44.9°C | 0% | 13.7hPa | 2.5V | 02:54:28 | 02:21:15 | 00:00:00 | |
| DM0DOS-11 | 2026-09-02 18:53:33 | 49.14119 | 8.52852 | 198° | 18km/h | 29780m | -37m/s | -44.2°C | 2.7% | 13.2hPa | 2.5V | 02:54:25 | 02:21:09 | 00:00:00 | |
| BIOWL1-15 | 2026-09-02 18:53:32 | 49.14102 | 8.52844 | 198° | 15km/h | 29633m | -35.7m/s | -44.6°C | 0% | 13.5hPa | 2.6V | 02:54:28 | 02:21:13 | 00:00:00 | |
| DJ2KF-10 | 2026-09-02 18:53:32 | 49.14102 | 8.52844 | 198° | 13km/h | 29633m | -35.7m/s | -44.6°C | 2.7% | 13.5hPa | 2.6V | 02:54:00 | 02:21:13 | 00:00:00 | |
| EDDB2-12 | 2026-09-02 18:53:31 | 49.14106 | 8.52846 | 201° | 16km/h | 29669m | -36.0m/s | -44.6°C | 0.4% | 13.5hPa | 2.5V | 00:00:00 | 00:00:00 | 00:00:00 | |
| DJTTGO | 2026-09-02 18:53:29 | 49.14110 | 8.52848 | 191° | 16km/h | 29705m | -37.2m/s | -44.5°C | 0.4% | 13.4hPa | 2.5V | 00:00:00 | 00:00:00 | 00:00:00 | |
| IW2NTF | 2026-09-02 18:53:28 | 49.14137 | 8.52867 | 221° | 15km/h | 29961m | -35.3m/s | -42.9°C | 2.5% | 12.9hPa | 2.5V | 02:54:30 | 02:21:04 | 00:00:00 | |
| DB0NH | 2026-09-02 18:53:28 | 49.14119 | 8.52852 | 199° | 13km/h | 29780m | -37.0m/s | -44.2°C | 2.7% | 13.2hPa | 2.5V | 02:54:00 | 02:21:09 | 00:00:00 | |
| DO3MHA-11 | 2026-09-02 18:53:27 | 49.14123 | 8.52854 | 196° | 18km/h | 29817m | -37.3m/s | -44.0°C | 2.7% | 13.1hPa | 2.5V | 00:00:00 | 02:21:08 | 00:00:00 | |
| DL6DJ-15 | 2026-09-02 18:53:26 | 49.14127 | 8.52857 | 208° | 16km/h | 29853m | -36.5m/s | -43.7°C | 0.4% | 13.1hPa | 2.5V | 00:00:00 | 00:00:00 | 00:00:00 | |
| NBG1-10 | 2026-09-02 18:53:25 | 49.14131 | 8.52860 | 208° | 15km/h | 29890m | -37.4m/s | -43.4°C | 2.6% | 13.0hPa | 2.5V | 00:00:00 | 02:21:06 | 00:00:00 | |
| DF3TZ-5 | 2026-09-02 18:53:24 | 49.14134 | 8.52863 | 224° | 15km/h | 29926m | -36.5m/s | -43.2°C | 0.3% | 12.9hPa | 2.5V | 00:00:00 | 00:00:00 | 00:00:00 | |
| DM0DOS-11 | 2026-09-02 18:53:23 | 49.14156 | 8.52884 | 202° | 20km/h | 30162m | -44.7m/s | -41.6°C | 2.2% | 12.5hPa | 2.5V | 02:54:35 | 02:20:59 | 00:00:00 | |
| DL1XH-west | 2026-09-02 18:53:23 | 49.14136 | 8.52867 | 222° | 15km/h | 29961m | -35.3m/s | -42.9°C | 0% | 12.9hPa | 2.5V | 02:55:19 | 02:21:04 | 00:00:00 | |
| DL1XH1-15 | 2026-09-02 18:53:22 | 49.14160 | 8.52887 | 197° | 18km/h | 30207m | -45.1m/s | -41.6°C | 2.3% | 12.5hPa | 2.5V | 02:54:36 | 02:20:58 | 00:00:00 | |
| BIOWL1-15 | 2026-09-02 18:53:21 | 49.14143 | 8.52875 | 211° | 18km/h | 30035m | -40m/s | -42.3°C | 0% | 12.8hPa | 2.6V | 02:55:19 | 02:21:02 | 00:00:00 | |
| DB0UT-7 | 2026-09-02 18:53:19 | 49.14151 | 8.52881 | 210° | 13km/h | 30118m | -43.9m/s | -41.7°C | 2.2% | 12.6hPa | 2.5V | 00:00:00 | 00:00:00 | 00:00:00 | |
| DL4BBY-15 | 2026-09-02 18:53:18 | 49.14155 | 8.52884 | 203° | 13km/h | 30162m | -44.7m/s | -40.5°C | 0% | 0hPa | 2.5V | 00:00:00 | 00:00:00 | 00:00:00 | |
| DO3MHA-11 | 2026-09-02 18:53:17 | 49.14160 | 8.52887 | 198° | 9km/h | 30207m | -45.1m/s | -41.5°C | 2.3% | 12.4hPa | 2.5V | 02:54:00 | 02:20:58 | 00:00:00 | |
| IW2NTF | 2026-09-02 18:53:14 | 49.14175 | 8.52891 | 358° | 5km/h | 30541m | -45.5m/s | -41.1°C | 2.2% | 11.8hPa | 2.6V | 02:54:44 | 02:20:50 | 00:00:00 | |
| DL3AQ-11 | 2026-09-02 18:53:14 | 49.14176 | 8.52889 | 189° | 2km/h | 30414m | -43.5m/s | -41.2°C | 0.3% | 12.1hPa | 2.5V | 00:00:00 | 00:00:00 | 00:00:00 | |
| DM0DOS-11 | 2026-09-02 18:53:13 | 49.14174 | 8.52891 | 19° | 7km/h | 30585m | -43.8m/s | -41.1°C | 2.3% | 11.8hPa | 2.5V | 02:54:45 | 02:20:49 | 00:00:00 | |
| DL1XH1-15 | 2026-09-02 18:53:12 | 49.14172 | 8.52889 | 54° | 7km/h | 30628m | -43.5m/s | -41°C | 2.3% | 11.7hPa | 2.5V | 02:54:46 | 02:20:48 | 00:00:00 | |
| DL1XH-west | 2026-09-02 18:53:12 | 49.14176 | 8.52889 | 189° | 2km/h | 30414m | -43.5m/s | -41.2°C | 0% | 12.1hPa | 2.5V | 02:55:19 | 02:20:53 | 00:00:00 | |
| BIOWL1-15 | 2026-09-02 18:53:10 | 49.14177 | 8.52891 | 327° | 2km/h | 30497m | -43.7m/s | -41.2°C | 0% | 11.9hPa | 2.6V | 02:55:19 | 02:20:51 | 00:00:00 | |
| DK7TD | 2026-09-02 18:53:09 | 49.14176 | 8.52891 | 359° | 5km/h | 30541m | -45.5m/s | -41.1°C | 0% | 11.8hPa | 2.6V | 02:55:19 | 02:20:50 | 00:00:00 | |
| DL1ZP-14 | 2026-09-02 18:53:07 | 49.14172 | 8.52887 | 89° | 5km/h | 30671m | -44.3m/s | -40.8°C | 0.3% | 11.6hPa | 2.5V | 00:00:00 | 00:00:00 | 00:00:00 | |
| DK5PH-5 | 2026-09-02 18:53:06 | 49.14172 | 8.52887 | 90° | 15km/h | 30671m | -44.3m/s | -40.8°C | 2.2% | 11.6hPa | 2.5V | 02:54:00 | 02:20:47 | 00:00:00 | |
| IW2NTF | 2026-09-02 18:53:04 | 49.14190 | 8.52857 | 138° | 26km/h | 30968m | -44.1m/s | -39.8°C | 2.1% | 11.1hPa | 2.6V | 02:54:54 | 02:20:40 | 00:00:00 | |
| DM0DOS-11 | 2026-09-02 18:53:03 | 49.14195 | 8.52851 | 145° | 27km/h | 31011m | -42.3m/s | -39.7°C | 2.1% | 11hPa | 2.6V | 02:54:55 | 02:20:39 | 00:00:00 | |
| DL1XH1-15 | 2026-09-02 18:53:02 | 49.14199 | 8.52846 | 138° | 24km/h | 31053m | -42.8m/s | -39.5°C | 2.1% | 11hPa | 2.5V | 02:54:56 | 02:20:38 | 00:00:00 | |
| DL1XH-west | 2026-09-02 18:53:01 | 49.14181 | 8.52869 | 144° | 22km/h | 30886m | -42.4m/s | -39.9°C | 0% | 11.2hPa | 2.5V | 02:55:19 | 02:20:42 | 00:00:00 | |
| BIOWL1-15 | 2026-09-02 18:53:00 | 49.14185 | 8.52863 | 144° | 26km/h | 30927m | -41m/s | -39.8°C | 0% | 11.2hPa | 2.5V | 02:55:19 | 02:20:41 | 00:00:00 | |
| BIOWL9-15 | 2026-09-02 18:52:56 | 49.14203 | 8.52841 | 140° | 16km/h | 31098m | -46.5m/s | -39.2°C | 0.2% | 10.9hPa | 2.5V | 00:00:00 | 00:00:00 | 00:00:00 | |
| DL6DJ-15 | 2026-09-02 18:52:55 | 49.14206 | 8.52837 | 140° | 15km/h | 31143m | -45.1m/s | -39.0°C | 0.2% | 10.8hPa | 2.5V | 00:00:00 | 00:00:00 | 00:00:00 | |
| IW2NTF | 2026-09-02 18:52:54 | 49.14214 | 8.52819 | 138° | 15km/h | 31406m | -44.4m/s | -38.8°C | 2% | 10.4hPa | 2.5V | 02:55:04 | 02:20:30 | 00:00:00 | |
| HARRO8 | 2026-09-02 18:52:54 | 49.14208 | 8.52833 | 124° | 9km/h | 31188m | -45.0m/s | -38.9°C | 0.2% | 10.8hPa | 2.6V | 00:00:00 | 00:00:00 | 00:00:00 | |
| DM0DOS-11 | 2026-09-02 18:52:53 | 49.14217 | 8.52815 | 140° | 18km/h | 31449m | -41.9m/s | -38.8°C | 2% | 10.4hPa | 2.6V | 02:55:05 | 02:20:29 | 00:00:00 | |
| DL1XH1-15 | 2026-09-02 18:52:52 | 49.14221 | 8.52811 | 151° | 22km/h | 31491m | -43.8m/s | -38.8°C | 2% | 10.3hPa | 2.6V | 02:55:06 | 02:20:28 | 00:00:00 | |
| DK7TD | 2026-09-02 18:52:51 | 49.14211 | 8.52825 | 134° | 9km/h | 31321m | -45.3m/s | -38.8°C | 0% | 10.6hPa | 2.5V | 02:55:19 | 02:20:32 | 00:00:00 | |
| DL1XH-west | 2026-09-02 18:52:50 | 49.14212 | 8.52822 | 138° | 9km/h | 31364m | -40.7m/s | -38.9°C | 0% | 10.5hPa | 2.5V | 02:55:19 | 02:20:31 | 00:00:00 | |
| DB0UT-7 | 2026-09-02 18:52:49 | 49.14214 | 8.52819 | 139° | 13km/h | 31406m | -44.3m/s | -38.8°C | 2.0% | 10.4hPa | 2.6V | 00:00:00 | 02:20:30 | 00:00:00 | |
| DL4BBY-15 | 2026-09-02 18:52:48 | 49.14217 | 8.52815 | 141° | 13km/h | 31449m | -41.9m/s | -37.7°C | 0% | 0hPa | 2.6V | 00:00:00 | 00:00:00 | 00:00:00 | |
| DO3MHA-11 | 2026-09-02 18:52:47 | 49.14221 | 8.52811 | 152° | 16km/h | 31492m | -43.7m/s | -38.7°C | 2.0% | 10.3hPa | 2.6V | 02:55:00 | 02:20:28 | 00:00:00 | |
| DO8TBO-1 | 2026-09-02 18:52:46 | 49.14225 | 8.52807 | 154° | 9km/h | 31536m | -45.8m/s | -38.6°C | 2.1% | 10.2hPa | 2.5V | 00:00:00 | 02:20:27 | 00:00:00 | |
| DL1XH-15 | 2026-09-02 18:52:45 | 49.14247 | 8.52787 | 149° | 15km/h | 31806m | -43.8m/s | -37.5°C | 1.9% | 9.8hPa | 2.5V | 02:55:13 | 02:20:21 | 00:00:00 | |
| OE5DRO-10 | 2026-09-02 18:52:45 | 49.14230 | 8.52803 | 149° | 13km/h | 31581m | -44.4m/s | -38.5°C | 2.0% | 10.1hPa | 2.5V | 02:55:00 | 00:00:00 | 00:00:00 | |
| DL3AQ-11 | 2026-09-02 18:52:44 | 49.14234 | 8.52799 | 148° | 18km/h | 31626m | -48.4m/s | -38.3°C | 0.2% | 10.1hPa | 2.5V | 00:00:00 | 00:00:00 | 00:00:00 | |
| DM0DOS-11 | 2026-09-02 18:52:43 | 49.14251 | 8.52781 | 147° | 11km/h | 31897m | -46.4m/s | -37.3°C | 1.9% | 9.7hPa | 2.5V | 02:55:15 | 02:20:19 | 00:00:00 | |
| DL1XH1-15 | 2026-09-02 18:52:42 | 49.14253 | 8.52778 | 143° | 13km/h | 31942m | -44.4m/s | -37.2°C | 1.9% | 9.6hPa | 2.6V | 02:55:16 | 02:20:18 | 00:00:00 | |
| DK7TD | 2026-09-02 18:52:41 | 49.14244 | 8.52790 | 150° | 15km/h | 31762m | -46.5m/s | -37.6°C | 0% | 9.9hPa | 2.6V | 02:55:19 | 02:20:22 | 00:00:00 | |
| BIOWL1-15 | 2026-09-02 18:52:40 | 49.14247 | 8.52787 | 150° | 15km/h | 31806m | -43.8m/s | -37.5°C | 0% | 9.8hPa | 2.5V | 02:55:19 | 02:20:21 | 00:00:00 | |
| DL1XH-west | 2026-09-02 18:52:39 | 49.14249 | 8.52784 | 130° | 11km/h | 31851m | -46.2m/s | -37.5°C | 0% | 9.8hPa | 2.5V | 02:55:19 | 02:20:20 | 00:00:00 | |
| DN1GJH-1 | 2026-09-02 18:52:38 | 49.14249 | 8.52784 | 131° | 11km/h | 31851m | -46.2m/s | -37.5°C | 0.3% | 9.8hPa | 2.5V | 02:55:00 | 00:00:00 | 00:00:00 | |
| DO3MHA-11 | 2026-09-02 18:52:37 | 49.14253 | 8.52778 | 144° | 15km/h | 31943m | -44.4m/s | -37.1°C | 1.9% | 9.6hPa | 2.5V | 00:00:00 | 02:20:18 | 00:00:00 | |
| DL1ZP-14 | 2026-09-02 18:52:36 | 49.14257 | 8.52771 | 132° | 13km/h | 32035m | -45.7m/s | -36.3°C | 0.2% | 9.5hPa | 2.5V | 00:00:00 | 00:00:00 | 00:00:00 | |
| DL3AQ-11 | 2026-09-02 18:52:34 | 49.14261 | 8.52763 | 133° | 13km/h | 32129m | -48.7m/s | -35.9°C | 0.2% | 9.4hPa | 2.5V | 00:00:00 | 00:00:00 | 00:00:00 | |
| DM0DOS-11 | 2026-09-02 18:52:33 | 49.14275 | 8.52746 | 149° | 15km/h | 32373m | -48.8m/s | -35.5°C | 1.7% | 9.1hPa | 2.5V | 02:55:25 | 02:20:09 | 00:00:00 | |
| DL1XH1-15 | 2026-09-02 18:52:32 | 49.14278 | 8.52744 | 172° | 13km/h | 32423m | -51m/s | -35.4°C | 1.6% | 9hPa | 2.5V | 02:55:26 | 02:20:08 | 00:00:00 | |
| DK7TD | 2026-09-02 18:52:30 | 49.14269 | 8.52752 | 143° | 16km/h | 32274m | -48.8m/s | -35.7°C | 0% | 9.2hPa | 2.6V | 02:57:52 | 02:20:11 | 00:00:00 | |
| DL1XH-west | 2026-09-02 18:52:29 | 49.14272 | 8.52748 | 155° | 15km/h | 32324m | -50.7m/s | -35.6°C | 0% | 9.2hPa | 2.5V | 02:56:10 | 02:20:10 | 00:00:00 | |
| DF8AY | 2026-09-02 18:52:26 | 49.14281 | 8.52743 | 174° | 11km/h | 32475m | -53.7m/s | 0°C | 0% | 0hPa | 2.6V | 02:56:10 | 02:20:07 | 00:00:00 | |
| DL1XH-15 | 2026-09-02 18:52:25 | 49.14285 | 8.52748 | 279° | 5km/h | 32792m | -51.8m/s | -34.7°C | 1.6% | 8.5hPa | 2.6V | 02:55:33 | 02:20:01 | 00:00:00 | |
| DJ2DS-15 | 2026-09-02 18:52:25 | 49.14285 | 8.52743 | 193° | 4km/h | 32582m | -53.5m/s | -34.9°C | 0.2% | 8.8hPa | 2.5V | 00:00:00 | 00:00:00 | 00:00:00 | |
| OE5DRO-10 | 2026-09-02 18:52:24 | 49.14285 | 8.52743 | 194° | 11km/h | 32582m | -53.4m/s | -34.8°C | 1.6% | 8.8hPa | 2.5V | 00:00:00 | 00:00:00 | 00:00:00 | |
| DM0DOS-11 | 2026-09-02 18:52:23 | 49.14284 | 8.52752 | 293° | 4km/h | 32894m | -51m/s | -34.6°C | 1.6% | 8.4hPa | 2.5V | 02:55:35 | 02:19:59 | 00:00:00 | |
| HARRO8 | 2026-09-02 18:52:23 | 49.14286 | 8.52744 | 264° | 2km/h | 32636m | -52.9m/s | -34.8°C | 0.2% | 8.8hPa | 2.5V | 00:00:00 | 00:00:00 | 00:00:00 | |
| DL1XH1-15 | 2026-09-02 18:52:22 | 49.14284 | 8.52752 | 263° | 2km/h | 32945m | -50.9m/s | -34.5°C | 1.5% | 8.3hPa | 2.5V | 02:55:36 | 02:19:58 | 00:00:00 | |
| DK7TD | 2026-09-02 18:52:19 | 49.14285 | 8.52750 | 283° | 4km/h | 32843m | -51.2m/s | -34.7°C | 0% | 8.5hPa | 2.6V | 02:57:52 | 02:20:00 | 00:00:00 | |
| DL1XH-west | 2026-09-02 18:52:18 | 49.14284 | 8.52752 | 293° | 4km/h | 32894m | -51m/s | -34.6°C | 0% | 8.4hPa | 2.5V | 02:56:10 | 02:19:59 | 00:00:00 | |
| DL4BBY-15 | 2026-09-02 18:52:18 | 49.14284 | 8.52751 | 294° | 15km/h | 32895m | -51.0m/s | -33.4°C | 0% | 0hPa | 2.5V | 00:00:00 | 00:00:00 | 00:00:00 | |
| DO3MHA-11 | 2026-09-02 18:52:17 | 49.14284 | 8.52752 | 264° | 13km/h | 32945m | -50.8m/s | -34.4°C | 1.5% | 8.3hPa | 2.5V | 02:55:00 | 02:19:58 | 00:00:00 | |
| DO1YAY-16 | 2026-09-02 18:52:16 | 49.14284 | 8.52753 | 248° | 2km/h | 32995m | -50.2m/s | -34.4°C | 0.2% | 8.3hPa | 2.6V | 00:00:00 | 00:00:00 | 00:00:00 | |
| SONCRA | 2026-09-02 18:52:15 | 49.14284 | 8.52755 | 270° | 4km/h | 33045m | -49.1m/s | -34.5°C | 0.2% | 8.3hPa | 2.6V | 00:00:00 | 00:00:00 | 00:00:00 | |
| DL1XH-15 | 2026-09-02 18:52:14 | 49.14264 | 8.52773 | 330° | 20km/h | 33345m | -48.1m/s | -34.8°C | 1.6% | 7.9hPa | 2.6V | 02:55:44 | 02:19:50 | 00:00:00 | |
| DM0DOS-11 | 2026-09-02 18:52:13 | 49.14259 | 8.52777 | 327° | 20km/h | 33393m | -47.2m/s | -34.7°C | 1.6% | 7.8hPa | 2.6V | 02:55:45 | 02:19:49 | 00:00:00 | |
| DL1XH1-15 | 2026-09-02 18:52:12 | 49.14255 | 8.52780 | 327° | 15km/h | 33441m | -50.2m/s | -34.6°C | 1.6% | 7.8hPa | 2.5V | 02:55:46 | 02:19:48 | 00:00:00 | |
| DB0UT-9 | 2026-09-02 18:52:11 | 49.14278 | 8.52763 | 337° | 18km/h | 33196m | -50.3m/s | -34.7°C | 0.2% | 8.1hPa | 2.5V | 02:56:00 | 00:00:00 | 00:00:00 | |
| IW2NTF | 2026-09-02 18:52:10 | 49.14250 | 8.52787 | 311° | 11km/h | 33539m | -50.2m/s | -34.7°C | 1.6% | 7.7hPa | 2.5V | 02:55:48 | 02:19:46 | 00:00:00 | |
| DK7TD | 2026-09-02 18:52:09 | 49.14264 | 8.52773 | 330° | 20km/h | 33345m | -48.1m/s | -34.8°C | 0% | 7.9hPa | 2.6V | 02:57:52 | 02:19:50 | 00:00:00 | |
| BIOWL1-15 | 2026-09-02 18:52:07 | 49.14255 | 8.52780 | 327° | 15km/h | 33441m | -50.2m/s | -34.6°C | 0% | 7.8hPa | 2.5V | 02:56:10 | 02:19:48 | 00:00:00 | |
| DG1MJG | 2026-09-02 18:52:07 | 49.14255 | 8.52780 | 328° | 15km/h | 33441m | -50.2m/s | -34.6°C | 0.2% | 7.8hPa | 2.6V | 02:56:00 | 00:00:00 | 00:00:00 | |
| DK5PH-5 | 2026-09-02 18:52:06 | 49.14252 | 8.52784 | 320° | 16km/h | 33491m | -47.3m/s | -34.6°C | 1.6% | 7.7hPa | 2.6V | 00:00:00 | 02:19:47 | 00:00:00 | |
| DL3AQ-11 | 2026-09-02 18:52:05 | 49.14248 | 8.52789 | 336° | 9km/h | 33590m | -52.9m/s | -34.7°C | 0.2% | 7.6hPa | 2.6V | 00:00:00 | 00:00:00 | 00:00:00 | |
| DL1XH-15 | 2026-09-02 18:52:04 | 49.14233 | 8.52787 | 18° | 22km/h | 33847m | -54.3m/s | -34.4°C | 1.6% | 7.3hPa | 2.6V | 02:55:54 | 02:19:40 | 00:00:00 | |
| DM0DOS-11 | 2026-09-02 18:52:03 | 49.14228 | 8.52784 | 19° | 24km/h | 33900m | -54m/s | -34.6°C | 1.6% | 7.3hPa | 2.6V | 02:55:55 | 02:19:39 | 00:00:00 | |
| DF1GD-15 | 2026-09-02 18:52:02 | 49.14246 | 8.52790 | 335° | 7km/h | 33641m | -49.9m/s | -34.6°C | 0.2% | 7.5hPa | 2.6V | 02:56:00 | 00:00:00 | 00:00:00 | |
| DF7PN | 2026-09-02 18:52:01 | 49.14241 | 8.52791 | 14° | 9km/h | 33743m | -49.5m/s | -34.2°C | 0.1% | 7.4hPa | 2.6V | 00:00:00 | 00:00:00 | 00:00:00 | |
| DL8DAS-15 | 2026-09-02 18:52:00 | 49.14241 | 8.52790 | 15° | 9km/h | 33744m | -49.5m/s | -34.2°C | 0.2% | 7.4hPa | 2.6V | 00:00:00 | 00:00:00 | 00:00:00 | |
| IW2NTF | 2026-09-02 18:51:58 | 49.14206 | 8.52772 | 82° | 7km/h | 34180m | -55.1m/s | -34.2°C | 1.6% | 7hPa | 2.6V | 02:56:00 | 02:19:34 | 00:00:00 | |
| DL1XH-west | 2026-09-02 18:51:57 | 49.14222 | 8.52782 | 18° | 26km/h | 33956m | -57.5m/s | -34.7°C | 0% | 7.2hPa | 2.6V | 02:56:10 | 02:19:38 | 00:00:00 | |
| BIOWL1-15 | 2026-09-02 18:51:56 | 49.14216 | 8.52779 | 12° | 24km/h | 34012m | -55.2m/s | -34.7°C | 0% | 7.2hPa | 2.5V | 02:56:10 | 02:19:37 | 00:00:00 | |
| DB0NH | 2026-09-02 18:51:55 | 49.14210 | 8.52777 | 26° | 20km/h | 34068m | -57.1m/s | -34.5°C | 1.7% | 7.1hPa | 2.5V | 02:55:00 | 02:19:36 | 00:00:00 | |
| DL1XH-15 | 2026-09-02 18:51:54 | 49.14212 | 8.52755 | 113° | 15km/h | 34414m | -59.5m/s | -32.6°C | 1.4% | 6.8hPa | 2.5V | 02:56:04 | 02:19:30 | 00:00:00 | |
| DL3AQ-11 | 2026-09-02 18:51:54 | 49.14205 | 8.52772 | 82° | 7km/h | 34180m | -55.1m/s | -34.2°C | 0.1% | 7.0hPa | 2.6V | 00:00:00 | 00:00:00 | 00:00:00 | |
| DM0DOS-11 | 2026-09-02 18:51:53 | 49.14213 | 8.52749 | 96° | 15km/h | 34473m | -60.7m/s | -32.2°C | 1.3% | 6.7hPa | 2.6V | 02:56:05 | 02:19:29 | 00:00:00 | |
| DL6DJ-15 | 2026-09-02 18:51:53 | 49.14205 | 8.52772 | 82° | 7km/h | 34180m | -55.1m/s | -34.2°C | 0.1% | 7.0hPa | 2.6V | 00:00:00 | 00:00:00 | 00:00:00 | |
| DL1XH1-15 | 2026-09-02 18:51:52 | 49.14212 | 8.52745 | 59° | 11km/h | 34534m | -60.6m/s | -32°C | 1.3% | 6.7hPa | 2.6V | 02:56:06 | 02:19:28 | 00:00:00 | |
| HSKMA3-T | 2026-09-02 18:51:49 | 49.14212 | 8.52755 | 113° | 15km/h | 34414m | -59.5m/s | -32.6°C | 0% | 6.8hPa | 2.5V | 02:57:01 | 02:19:30 | 00:00:00 | |
| IW2NTF | 2026-09-02 18:51:49 | 49.14199 | 8.52740 | 334° | 15km/h | 34772m | -56.5m/s | -31.9°C | 1.3% | 6.4hPa | 2.5V | 02:56:10 | 02:19:24 | 00:00:00 | |
| DL1XH-west | 2026-09-02 18:51:46 | 49.14210 | 8.52741 | 36° | 16km/h | 34595m | -60.5m/s | -31.7°C | 0% | 6.6hPa | 2.6V | 02:56:10 | 02:19:27 | 00:00:00 | |
| DK7TD | 2026-09-02 18:51:45 | 49.14206 | 8.52738 | 19° | 16km/h | 34654m | -59m/s | -31.5°C | 0% | 6.5hPa | 2.5V | 02:57:52 | 02:19:26 | 00:00:00 | |
| DF8AY | 2026-09-02 18:51:42 | 49.14199 | 8.52743 | 216° | 13km/h | 34832m | -62.2m/s | 0°C | 0% | 0hPa | 2.6V | 18:12:15 | 02:19:23 | 00:00:00 | |
| HSKMA3-T | 2026-09-02 18:51:37 | 49.14223 | 8.52765 | 204° | 27km/h | 35072m | -31.4m/s | -32.9°C | 0% | 6.1hPa | 2.6V | 02:57:01 | 02:19:18 | 00:00:00 | |
| DL1XH-west | 2026-09-02 18:51:36 | 49.14230 | 8.52768 | 185° | 29km/h | 35099m | -23.4m/s | -33°C | 0% | 6hPa | 2.6V | 02:57:01 | 02:19:17 | 00:00:00 | |
| DK5PH-5 | 2026-09-02 18:51:36 | 49.14230 | 8.52768 | 186° | 33km/h | 35100m | -23.3m/s | -33.0°C | 1.4% | 6.0hPa | 2.6V | 02:56:00 | 02:19:17 | 00:00:00 | |
| DL0LBS | 2026-09-02 18:51:35 | 49.14230 | 8.52768 | 186° | 29km/h | 35100m | -23.4m/s | -33.0°C | 0.2% | 6.0hPa | 2.5V | 02:57:00 | 00:00:00 | 00:00:00 | |
| DL1ZP-14 | 2026-09-02 18:51:33 | 49.14250 | 8.52748 | 136° | 38km/h | 35136m | 0.4m/s | -33.0°C | 0.2% | 6.0hPa | 2.5V | 00:00:00 | 00:00:00 | 00:00:00 | |
| DL1XH1-15 | 2026-09-02 18:51:32 | 49.14243 | 8.52745 | 338° | 33km/h | 35098m | 2m/s | -33.1°C | 1.4% | 6hPa | 2.5V | 02:56:26 | 02:19:08 | 00:00:00 | |
| DK7TD | 2026-09-02 18:51:27 | 49.14243 | 8.52745 | 339° | 33km/h | 35098m | 2m/s | -33.1°C | 0% | 6hPa | 2.5V | 02:57:52 | 02:19:08 | 00:00:00 | |
| BIOWL1-15 | 2026-09-02 18:51:27 | 49.14231 | 8.52729 | 110° | 35km/h | 35085m | 7.2m/s | -33.1°C | 0% | 6hPa | 2.5V | 02:57:01 | 02:19:04 | 00:00:00 | |
| DL1XH-west | 2026-09-02 18:51:22 | 49.14236 | 8.52714 | 119° | 49km/h | 35078m | 7.6m/s | -33.1°C | 0% | 6.1hPa | 2.5V | 02:57:01 | 02:19:03 | 00:00:00 | |
| DF8AY | 2026-09-02 18:51:19 | 49.14260 | 8.52660 | 127° | 53km/h | 35063m | 2.2m/s | 0°C | 0% | 0hPa | 2.6V | 18:12:15 | 02:19:00 | 00:00:00 | |
| IW2NTF | 2026-09-02 18:51:19 | 49.14263 | 8.52629 | 348° | 24km/h | 35034m | 4.1m/s | -33.2°C | 1.4% | 6.1hPa | 2.6V | 02:56:40 | 02:18:54 | 00:00:00 | |
| HSKMA3-T | 2026-09-02 18:51:14 | 49.14269 | 8.52627 | 348° | 20km/h | 35040m | 5.9m/s | -33.1°C | 0% | 6.1hPa | 2.6V | 02:57:01 | 02:18:55 | 00:00:00 | |
| DM0DOS-11 | 2026-09-02 18:51:13 | 49.14254 | 8.52597 | 112° | 46km/h | 35014m | 7.2m/s | -33.4°C | 1.5% | 6.1hPa | 2.6V | 02:56:45 | 02:18:49 | 00:00:00 | |
| DK7TD | 2026-09-02 18:51:13 | 49.14263 | 8.52629 | 349° | 24km/h | 35034m | 4.1m/s | -33.2°C | 0% | 6.1hPa | 2.6V | 02:57:52 | 02:18:54 | 00:00:00 | |
| DJ2DS-15 | 2026-09-02 18:51:13 | 49.14258 | 8.52629 | 2° | 20km/h | 35032m | 2.6m/s | -33.2°C | 0.1% | 6.1hPa | 2.5V | 00:00:00 | 00:00:00 | 00:00:00 | |
| DL1XH1-15 | 2026-09-02 18:51:12 | 49.14260 | 8.52579 | 118° | 57km/h | 35007m | 6.7m/s | -33.5°C | 1.5% | 6.1hPa | 2.5V | 02:56:46 | 02:18:48 | 00:00:00 | |
| DL1XH-west | 2026-09-02 18:51:11 | 49.14253 | 8.52627 | 37° | 18km/h | 35029m | 2.6m/s | -33.2°C | 0% | 6.1hPa | 2.5V | 02:57:01 | 02:18:52 | 00:00:00 | |
| DB0UT-9 | 2026-09-02 18:51:09 | 49.14251 | 8.52621 | 80° | 22km/h | 35026m | 4.0m/s | -33.3°C | 0.2% | 6.1hPa | 2.6V | 02:57:00 | 00:00:00 | 00:00:00 | |
| OE5DRO-10 | 2026-09-02 18:51:08 | 49.14254 | 8.52597 | 113° | 33km/h | 35014m | 7.2m/s | -33.4°C | 1.5% | 6.1hPa | 2.6V | 00:00:00 | 00:00:00 | 00:00:00 | |
| DJ2DS-15 | 2026-09-02 18:51:07 | 49.14260 | 8.52579 | 119° | 38km/h | 35007m | 6.6m/s | -33.5°C | 1.5% | 6.1hPa | 2.6V | 00:00:00 | 02:18:48 | 00:00:00 | |
| DL8DAS-14 | 2026-09-02 18:51:06 | 49.14268 | 8.52559 | 121° | 62km/h | 35001m | 4.5m/s | -33.6°C | 0.1% | 6.2hPa | 2.6V | 00:00:00 | 00:00:00 | 00:00:00 | |
| DM7RM-13 | 2026-09-02 18:51:05 | 49.14267 | 8.52559 | 122° | 62km/h | 35002m | 4.5m/s | -33.6°C | 0.2% | 6.2hPa | 2.6V | 02:57:00 | 00:00:00 | 00:00:00 | |
| DK5PH-5 | 2026-09-02 18:51:04 | 49.14283 | 8.52521 | 121° | 33km/h | 34996m | 2.5m/s | -33.5°C | 1.5% | 6.1hPa | 2.6V | 00:00:00 | 02:18:45 | 00:00:00 | |
| DM0DOS-11 | 2026-09-02 18:51:03 | 49.14277 | 8.52477 | 23° | 24km/h | 34965m | 3.8m/s | -33.6°C | 1.5% | 6.2hPa | 2.6V | 02:56:55 | 02:18:39 | 00:00:00 | |
| HSKMA3-T | 2026-09-02 18:51:03 | 49.14288 | 8.52506 | 115° | 37km/h | 34992m | 3.8m/s | -33.6°C | 0% | 6.2hPa | 2.6V | 02:57:01 | 02:18:44 | 00:00:00 | |
| DL1XH1-15 | 2026-09-02 18:51:02 | 49.14272 | 8.52472 | 42° | 24km/h | 34961m | 3.4m/s | -33.5°C | 1.5% | 6.2hPa | 2.6V | 02:56:56 | 02:18:38 | 00:00:00 | |
| BIOWL1-15 | 2026-09-02 18:51:02 | 49.14290 | 8.52495 | 102° | 24km/h | 34987m | 5.4m/s | -33.6°C | 0% | 6.1hPa | 2.6V | 02:57:01 | 02:18:43 | 00:00:00 | |
| DL1XH-west | 2026-09-02 18:51:01 | 49.14290 | 8.52488 | 67° | 16km/h | 34981m | 6.5m/s | -33.7°C | 0% | 6.2hPa | 2.5V | 02:57:01 | 02:18:42 | 00:00:00 | |
| DK7TD | 2026-09-02 18:50:57 | 49.14272 | 8.52472 | 43° | 24km/h | 34961m | 3.4m/s | -33.6°C | 0% | 6.2hPa | 2.6V | 02:57:52 | 02:18:38 | 00:00:00 | |
| EDDB2-12 | 2026-09-02 18:50:56 | 49.14269 | 8.52464 | 68° | 26km/h | 34958m | 4.0m/s | -33.5°C | 0.1% | 6.2hPa | 2.5V | 00:00:00 | 00:00:00 | 00:00:00 | |
| DN1GJH-1 | 2026-09-02 18:50:55 | 49.14268 | 8.52464 | 69° | 27km/h | 34958m | 4.0m/s | -33.5°C | 0.2% | 6.2hPa | 2.5V | 02:57:00 | 00:00:00 | 00:00:00 | |
| DL1XH-15 | 2026-09-02 18:50:54 | 49.14290 | 8.52354 | 103° | 31km/h | 34927m | 4.1m/s | -33.5°C | 1.5% | 6.2hPa | 2.5V | 02:57:04 | 02:18:30 | 00:00:00 | |
| DM0DOS-11 | 2026-09-02 18:50:53 | 49.14291 | 8.52344 | 83° | 22km/h | 34922m | 5.7m/s | -33.5°C | 1.5% | 6.2hPa | 2.5V | 02:57:05 | 02:18:29 | 00:00:00 | |
| BIOWL1-15 | 2026-09-02 18:50:51 | 49.14282 | 8.52384 | 115° | 51km/h | 34933m | 2.8m/s | -33.5°C | 0% | 6.2hPa | 2.6V | 02:57:52 | 02:18:32 | 00:00:00 | |
| DL1XH-west | 2026-09-02 18:50:50 | 49.14287 | 8.52368 | 112° | 42km/h | 34930m | 2.7m/s | -33.5°C | 0% | 6.2hPa | 2.5V | 02:57:52 | 02:18:31 | 00:00:00 | |
| HSKMA3-T | 2026-09-02 18:50:49 | 49.14290 | 8.52354 | 104° | 31km/h | 34927m | 4.1m/s | -33.5°C | 0% | 6.2hPa | 2.5V | 02:57:52 | 02:18:30 | 00:00:00 | |
| DB0UT-7 | 2026-09-02 18:50:48 | 49.14290 | 8.52344 | 84° | 29km/h | 34922m | 5.6m/s | -33.5°C | 1.5% | 6.1hPa | 2.5V | 02:57:00 | 02:18:29 | 00:00:00 | |
| IW2NTF | 2026-09-02 18:50:47 | 49.14261 | 8.52325 | 53° | 22km/h | 34893m | 4.1m/s | -33.3°C | 1.5% | 6.2hPa | 2.5V | 02:57:11 | 02:18:23 | 00:00:00 | |
| DD1CC8 | 2026-09-02 18:50:47 | 49.14284 | 8.52335 | 11° | 22km/h | 34909m | 6.3m/s | -33.4°C | 0.1% | 6.2hPa | 2.5V | 00:00:00 | 00:00:00 | 00:00:00 | |
| EDDB2-11 | 2026-09-02 18:50:44 | 49.14271 | 8.52333 | 7° | 26km/h | 34900m | 3.3m/s | -33.3°C | 0.1% | 6.2hPa | 2.5V | 00:00:00 | 00:00:00 | 00:00:00 | |
| DK7TD | 2026-09-02 18:50:44 | 49.14271 | 8.52333 | 7° | 27km/h | 34900m | 3.3m/s | -33.3°C | 0% | 6.2hPa | 2.6V | 02:57:52 | 02:18:25 | 00:00:00 | |
| DM0DOS-11 | 2026-09-02 18:50:43 | 49.14265 | 8.52271 | 110° | 49km/h | 34870m | 4.2m/s | -33.2°C | 1.5% | 6.2hPa | 2.5V | 02:57:15 | 02:18:19 | 00:00:00 | |
| DL1XH1-15 | 2026-09-02 18:50:42 | 49.14269 | 8.52254 | 109° | 47km/h | 34867m | 2.7m/s | -33.2°C | 1.5% | 6.3hPa | 2.5V | 02:57:16 | 02:18:18 | 00:00:00 | |
| BIOWL1-15 | 2026-09-02 18:50:41 | 49.14259 | 8.52316 | 81° | 27km/h | 34888m | 5.9m/s | -33.3°C | 0% | 6.2hPa | 2.5V | 02:57:52 | 02:18:22 | 00:00:00 | |
| DL1XH-west | 2026-09-02 18:50:40 | 49.14259 | 8.52304 | 98° | 37km/h | 34882m | 6.5m/s | -33.2°C | 0% | 6.2hPa | 2.6V | 02:57:52 | 02:18:21 | 00:00:00 | |
| HSKMA3-T | 2026-09-02 18:50:37 | 49.14269 | 8.52254 | 110° | 47km/h | 34867m | 2.7m/s | -33.2°C | 0% | 6.3hPa | 2.5V | 02:57:52 | 02:18:18 | 00:00:00 | |
| DO3MHA-11 | 2026-09-02 18:50:37 | 49.14269 | 8.52254 | 110° | 29km/h | 34868m | 2.7m/s | -33.2°C | 1.5% | 6.2hPa | 2.5V | 00:00:00 | 02:18:18 | 00:00:00 | |
| IW2NTF | 2026-09-02 18:50:36 | 49.14256 | 8.52209 | 354° | 31km/h | 34838m | 4.5m/s | -33°C | 1.5% | 6.3hPa | 2.5V | 02:57:22 | 02:18:12 | 00:00:00 | |
| DL8DAS-14 | 2026-09-02 18:50:35 | 49.14274 | 8.52225 | 91° | 27km/h | 34861m | 4.1m/s | -33.1°C | 0.2% | 6.3hPa | 2.6V | 00:00:00 | 00:00:00 | 00:00:00 | |
| DK5PH-5 | 2026-09-02 18:50:34 | 49.14273 | 8.52216 | 64° | 29km/h | 34856m | 5.7m/s | -33.0°C | 1.5% | 6.2hPa | 2.6V | 00:00:00 | 02:18:15 | 00:00:00 | |
| DM0DOS-11 | 2026-09-02 18:50:33 | 49.14238 | 8.52206 | 41° | 18km/h | 34827m | 4.3m/s | -32.9°C | 1.4% | 6.3hPa | 2.6V | 02:57:25 | 02:18:09 | 00:00:00 | |
| DL1XH1-15 | 2026-09-02 18:50:32 | 49.14235 | 8.52199 | 77° | 22km/h | 34822m | 5.6m/s | -32.9°C | 1.4% | 6.3hPa | 2.5V | 02:57:26 | 02:18:08 | 00:00:00 | |
| DK7TD | 2026-09-02 18:50:32 | 49.14263 | 8.52208 | 3° | 27km/h | 34844m | 6.1m/s | -33°C | 0% | 6.3hPa | 2.5V | 02:57:52 | 02:18:13 | 00:00:00 | |
| BIOWL1-15 | 2026-09-02 18:50:31 | 49.14256 | 8.52208 | 355° | 31km/h | 34838m | 4.5m/s | -33°C | 0% | 6.3hPa | 2.5V | 02:57:52 | 02:18:12 | 00:00:00 | |
| DL1XH-west | 2026-09-02 18:50:30 | 49.14248 | 8.52209 | 357° | 29km/h | 34834m | 3.5m/s | -33°C | 0% | 6.3hPa | 2.5V | 02:57:52 | 02:18:11 | 00:00:00 | |
| DB0UT-9 | 2026-09-02 18:50:29 | 49.14249 | 8.52209 | 358° | 29km/h | 34835m | 3.5m/s | -33.0°C | 0.2% | 6.3hPa | 2.6V | 02:57:00 | 00:00:00 | 00:00:00 | |
| DL1XH-15 | 2026-09-02 18:50:28 | 49.14243 | 8.52143 | 102° | 42km/h | 34802m | 2.3m/s | -32.8°C | 1.4% | 6.3hPa | 2.6V | 02:57:30 | 02:18:04 | 00:00:00 | |
| HSKMA3-T | 2026-09-02 18:50:26 | 49.14235 | 8.52189 | 97° | 31km/h | 34816m | 6.4m/s | -32.8°C | 0% | 6.3hPa | 2.5V | 02:57:52 | 02:18:07 | 00:00:00 | |
| IW2NTF | 2026-09-02 18:50:25 | 49.14240 | 8.52109 | 43° | 24km/h | 34790m | 6.1m/s | -32.7°C | 1.4% | 6.3hPa | 2.5V | 02:57:33 | 02:18:01 | 00:00:00 | |
| EDDB2-12 | 2026-09-02 18:50:25 | 49.14237 | 8.52175 | 105° | 40km/h | 34810m | 5.7m/s | -32.8°C | 0.1% | 6.3hPa | 2.6V | 00:00:00 | 00:00:00 | 00:00:00 | |
| DM7RM-13 | 2026-09-02 18:50:24 | 49.14237 | 8.52175 | 106° | 40km/h | 34810m | 5.7m/s | -32.8°C | 0.2% | 6.3hPa | 2.6V | 02:57:00 | 00:00:00 | 00:00:00 | |
| DM0DOS-11 | 2026-09-02 18:50:23 | 49.14228 | 8.52104 | 353° | 33km/h | 34777m | 6.2m/s | -32.6°C | 1.4% | 6.3hPa | 2.6V | 02:57:35 | 02:17:59 | 00:00:00 | |
| DL1XH1-15 | 2026-09-02 18:50:22 | 49.14219 | 8.52107 | 345° | 37km/h | 34772m | 4.1m/s | -32.6°C | 1.4% | 6.3hPa | 2.6V | 02:57:36 | 02:17:58 | 00:00:00 | |
| DK7TD | 2026-09-02 18:50:21 | 49.14243 | 8.52117 | 75° | 27km/h | 34796m | 4.3m/s | -32.7°C | 0% | 6.3hPa | 2.5V | 02:57:52 | 02:18:02 | 00:00:00 | |
| BIOWL9-15 | 2026-09-02 18:50:21 | 49.14243 | 8.52117 | 74° | 26km/h | 34796m | 4.3m/s | -32.7°C | 0.2% | 6.3hPa | 2.5V | 00:00:00 | 00:00:00 | 00:00:00 | |
| PG1ADW-2 | 2026-09-02 18:50:20 | 49.14240 | 8.52109 | 44° | 29km/h | 34791m | 6.1m/s | -32.7°C | 1.4% | 6.3hPa | 2.5V | 02:57:00 | 02:18:01 | 00:00:00 | |
| DL1XH-west | 2026-09-02 18:50:20 | 49.14240 | 8.52109 | 44° | 24km/h | 34791m | 6.1m/s | -32.7°C | 0% | 6.3hPa | 2.5V | 02:57:52 | 02:18:01 | 00:00:00 | |
| HARRO8 | 2026-09-02 18:50:19 | 49.14228 | 8.52104 | 353° | 33km/h | 34778m | 6.2m/s | -32.7°C | 0.1% | 6.3hPa | 2.6V | 00:00:00 | 00:00:00 | 00:00:00 | |
| DB0UT-7 | 2026-09-02 18:50:18 | 49.14227 | 8.52104 | 354° | 29km/h | 34778m | 6.2m/s | -32.6°C | 1.4% | 6.3hPa | 2.6V | 00:00:00 | 00:00:00 | 00:00:00 | |
| DO3MHA-11 | 2026-09-02 18:50:17 | 49.14219 | 8.52107 | 346° | 31km/h | 34773m | 4.0m/s | -32.6°C | 1.4% | 6.3hPa | 2.6V | 02:57:00 | 02:17:58 | 00:00:00 | |
| DD1CC8 | 2026-09-02 18:50:16 | 49.14204 | 8.52112 | 357° | 22km/h | 34767m | 2.7m/s | -32.6°C | 0.1% | 6.4hPa | 2.5V | 00:00:00 | 00:00:00 | 00:00:00 | |
| IW2NTF | 2026-09-02 18:50:15 | 49.14202 | 8.52069 | 106° | 42km/h | 34740m | 4m/s | -32.5°C | 1.4% | 6.3hPa | 2.5V | 02:57:43 | 02:17:51 | 00:00:00 | |
| HSKMA3-T | 2026-09-02 18:50:15 | 49.14204 | 8.52112 | 357° | 24km/h | 34766m | 2.7m/s | -32.6°C | 0% | 6.4hPa | 2.5V | 02:57:52 | 02:17:56 | 00:00:00 | |
| DN1GJH-1 | 2026-09-02 18:50:14 | 49.14204 | 8.52112 | 358° | 24km/h | 34767m | 2.7m/s | -32.6°C | 0.2% | 6.4hPa | 2.5V | 02:57:00 | 00:00:00 | 00:00:00 | |
| DB0ND-19 | 2026-09-02 18:50:13 | 49.14197 | 8.52106 | 78° | 16km/h | 34758m | 6.0m/s | -32.5°C | 0.1% | 6.3hPa | 2.5V | 00:00:00 | 00:00:00 | 00:00:00 | |
| DL1XH1-15 | 2026-09-02 18:50:12 | 49.14205 | 8.52030 | 69° | 24km/h | 34730m | 4.2m/s | -32.4°C | 1.3% | 6.4hPa | 2.5V | 02:57:46 | 02:17:48 | 00:00:00 | |
| DK7TD | 2026-09-02 18:50:11 | 49.14200 | 8.52084 | 107° | 38km/h | 34745m | 5.8m/s | -32.5°C | 0% | 6.3hPa | 2.6V | 02:57:52 | 02:17:52 | 00:00:00 | |
| BIOWL1-15 | 2026-09-02 18:50:10 | 49.14202 | 8.52069 | 107° | 42km/h | 34740m | 4m/s | -32.5°C | 0% | 6.4hPa | 2.5V | 02:57:52 | 02:17:51 | 00:00:00 | |
| DL1XH-west | 2026-09-02 18:50:09 | 49.14205 | 8.52054 | 102° | 40km/h | 34737m | 2.8m/s | -32.5°C | 0% | 6.4hPa | 2.5V | 02:57:52 | 02:17:50 | 00:00:00 | |
| DO8TBO-1 | 2026-09-02 18:50:08 | 49.14206 | 8.52040 | 91° | 26km/h | 34734m | 3.0m/s | -32.4°C | 1.4% | 6.3hPa | 2.6V | 00:00:00 | 02:17:49 | 00:00:00 | |
| DO3MHA-11 | 2026-09-02 18:50:07 | 49.14205 | 8.52030 | 70° | 22km/h | 34731m | 4.1m/s | -32.4°C | 1.3% | 6.3hPa | 2.6V | 00:00:00 | 02:17:48 | 00:00:00 | |
| OE5DRO-10 | 2026-09-02 18:50:06 | 49.14202 | 8.52023 | 34° | 29km/h | 34726m | 5.6m/s | -32.4°C | 1.4% | 6.3hPa | 2.6V | 00:00:00 | 00:00:00 | 00:00:00 | |
| IW2NTF | 2026-09-02 18:50:05 | 49.14166 | 8.52040 | 351° | 7km/h | 34699m | 4.5m/s | -32.5°C | 1.4% | 6.4hPa | 2.6V | 02:57:53 | 02:17:41 | 00:00:00 | |
| HSKMA3-T | 2026-09-02 18:50:04 | 49.14189 | 8.52023 | 343° | 33km/h | 34713m | 5.7m/s | -32.4°C | 0% | 6.4hPa | 2.6V | 02:57:52 | 02:17:45 | 00:00:00 | |
| DK5PH-5 | 2026-09-02 18:50:04 | 49.14189 | 8.52023 | 344° | 27km/h | 34714m | 5.7m/s | -32.4°C | 1.4% | 6.3hPa | 2.6V | 02:57:00 | 02:17:45 | 00:00:00 | |
| DM0DOS-11 | 2026-09-02 18:50:03 | 49.14167 | 8.52032 | 118° | 24km/h | 34687m | 6.6m/s | -32.6°C | 1.4% | 6.4hPa | 2.5V | 02:57:55 | 02:17:39 | 00:00:00 | |
| DL1XH1-15 | 2026-09-02 18:50:02 | 49.14170 | 8.52022 | 117° | 35km/h | 34681m | 5.7m/s | -32.6°C | 1.4% | 6.4hPa | 2.5V | 02:57:56 | 02:17:38 | 00:00:00 | |
| DK7TD | 2026-09-02 18:50:01 | 49.14169 | 8.52038 | 331° | 18km/h | 34702m | 2.8m/s | -32.5°C | 0% | 6.4hPa | 2.5V | 02:57:52 | 02:17:42 | 00:00:00 | |
| BIOWL1-15 | 2026-09-02 18:49:59 | 49.14165 | 8.52038 | 107° | 9km/h | 34694m | 6.1m/s | -32.6°C | 0% | 6.4hPa | 2.6V | 02:58:43 | 02:17:40 | 00:00:00 | |
| DL1XH-west | 2026-09-02 18:49:58 | 49.14167 | 8.52032 | 118° | 24km/h | 34687m | 6.6m/s | -32.6°C | 0% | 6.4hPa | 2.5V | 02:58:43 | 02:17:39 | 00:00:00 | |
| DJ2KF-10 | 2026-09-02 18:49:58 | 49.14167 | 8.52032 | 119° | 31km/h | 34687m | 6.6m/s | -32.6°C | 1.4% | 6.4hPa | 2.5V | 00:00:00 | 02:17:39 | 00:00:00 | |
| DO3MHA-11 | 2026-09-02 18:49:57 | 49.14171 | 8.52022 | 118° | 31km/h | 34681m | 5.6m/s | -32.5°C | 1.4% | 6.4hPa | 2.5V | 00:00:00 | 02:17:38 | 00:00:00 | |
| DL8DAS-15 | 2026-09-02 18:49:56 | 49.14170 | 8.52022 | 119° | 35km/h | 34681m | 5.7m/s | -32.6°C | 0.2% | 6.4hPa | 2.5V | 00:00:00 | 00:00:00 | 00:00:00 | |
| IW2NTF | 2026-09-02 18:49:55 | 49.14160 | 8.51971 | 333° | 37km/h | 34649m | 5.6m/s | -32.8°C | 1.4% | 6.4hPa | 2.5V | 02:58:03 | 02:17:31 | 00:00:00 | |
| DL3AQ-11 | 2026-09-02 18:49:54 | 49.14177 | 8.51974 | 63° | 22km/h | 34668m | 4.3m/s | -32.7°C | 0.1% | 6.4hPa | 2.6V | 00:00:00 | 00:00:00 | 00:00:00 | |
| DM0DOS-11 | 2026-09-02 18:49:53 | 49.14146 | 8.51988 | 309° | 31km/h | 34642m | 2.2m/s | -32.8°C | 1.4% | 6.5hPa | 2.6V | 02:58:05 | 02:17:29 | 00:00:00 | |
| HSKMA3-T | 2026-09-02 18:49:53 | 49.14177 | 8.51974 | 63° | 22km/h | 34667m | 4.3m/s | -32.7°C | 0% | 6.4hPa | 2.6V | 02:59:34 | 02:17:34 | 00:00:00 | |
| DL1XH1-15 | 2026-09-02 18:49:52 | 49.14143 | 8.51997 | 294° | 22km/h | 34639m | 2.8m/s | -32.9°C | 1.4% | 6.5hPa | 2.5V | 02:58:06 | 02:17:28 | 00:00:00 | |
| DK7TD | 2026-09-02 18:49:50 | 49.14160 | 8.51971 | 334° | 37km/h | 34649m | 5.6m/s | -32.8°C | 0% | 6.4hPa | 2.5V | 02:58:43 | 02:17:31 | 00:00:00 | |
| BIOWL1-15 | 2026-09-02 18:49:50 | 49.14146 | 8.51988 | 310° | 31km/h | 34642m | 2.2m/s | -32.8°C | 0% | 6.5hPa | 2.6V | 02:58:43 | 02:17:29 | 00:00:00 | |
| DL1XH-west | 2026-09-02 18:49:47 | 49.14143 | 8.51996 | 294° | 22km/h | 34640m | 2.8m/s | -32.9°C | 0% | 6.5hPa | 2.5V | 02:58:43 | 02:17:28 | 00:00:00 | |
| DO3MHA-11 | 2026-09-02 18:49:47 | 49.14142 | 8.51996 | 295° | 26km/h | 34640m | 2.8m/s | -32.8°C | 1.4% | 6.4hPa | 2.5V | 02:58:00 | 02:17:28 | 00:00:00 | |
| DJ2DS-15 | 2026-09-02 18:49:46 | 49.14142 | 8.52003 | 256° | 31km/h | 34636m | 4.5m/s | -32.9°C | 1.4% | 6.4hPa | 2.5V | 02:58:00 | 02:17:27 | 00:00:00 | |
| IW2NTF | 2026-09-02 18:49:45 | 49.14172 | 8.51962 | 106° | 29km/h | 34606m | 3.1m/s | -33.1°C | 1.4% | 6.5hPa | 2.5V | 02:58:13 | 02:17:21 | 00:00:00 | |
| DD1CC8 | 2026-09-02 18:49:45 | 49.14149 | 8.52003 | 155° | 26km/h | 34624m | 6.6m/s | -33.0°C | 0.2% | 6.5hPa | 2.5V | 00:00:00 | 00:00:00 | 00:00:00 | |
| DM0DOS-11 | 2026-09-02 18:49:43 | 49.14171 | 8.51946 | 38° | 18km/h | 34597m | 5.9m/s | -33.2°C | 1.4% | 6.5hPa | 2.5V | 02:58:15 | 02:17:19 | 00:00:00 | |
| DL1XH1-15 | 2026-09-02 18:49:42 | 49.14166 | 8.51945 | 356° | 22km/h | 34591m | 6.1m/s | -33.3°C | 1.4% | 6.5hPa | 2.6V | 02:58:16 | 02:17:18 | 00:00:00 | |
| HSKMA3-T | 2026-09-02 18:49:41 | 49.14169 | 8.51974 | 121° | 38km/h | 34609m | 2.7m/s | -33.1°C | 0% | 6.5hPa | 2.5V | 02:59:34 | 02:17:22 | 00:00:00 | |
| DK7TD | 2026-09-02 18:49:40 | 49.14172 | 8.51962 | 107° | 29km/h | 34606m | 3.2m/s | -33.1°C | 0% | 6.5hPa | 2.5V | 02:58:43 | 02:17:21 | 00:00:00 | |
| DL1XH-west | 2026-09-02 18:49:37 | 49.14166 | 8.51945 | 357° | 22km/h | 34591m | 6.1m/s | -33.3°C | 0% | 6.5hPa | 2.6V | 02:58:43 | 02:17:18 | 00:00:00 | |
| DO3MHA-11 | 2026-09-02 18:49:37 | 49.14166 | 8.51945 | 357° | 33km/h | 34592m | 6.1m/s | -33.3°C | 1.4% | 6.5hPa | 2.5V | 00:00:00 | 02:17:18 | 00:00:00 | |
| IW2NTF | 2026-09-02 18:49:34 | 49.14178 | 8.51969 | 152° | 51km/h | 34555m | 5.2m/s | -33.6°C | 1.5% | 6.5hPa | 2.5V | 02:58:24 | 02:17:10 | 00:00:00 | |
| DK5PH-5 | 2026-09-02 18:49:34 | 49.14150 | 8.51962 | 295° | 31km/h | 34580m | 1.9m/s | -33.4°C | 1.5% | 6.5hPa | 2.5V | 00:00:00 | 02:17:15 | 00:00:00 | |
| DM0DOS-11 | 2026-09-02 18:49:33 | 49.14189 | 8.51958 | 142° | 55km/h | 34551m | 3m/s | -33.6°C | 1.5% | 6.5hPa | 2.5V | 02:58:25 | 02:17:09 | 00:00:00 | |
| DL1XH1-15 | 2026-09-02 18:49:32 | 49.14198 | 8.51945 | 132° | 47km/h | 34549m | 1.5m/s | -33.6°C | 1.5% | 6.6hPa | 2.5V | 02:58:26 | 02:17:08 | 00:00:00 | |
| BIOWL1-15 | 2026-09-02 18:49:29 | 49.14198 | 8.51945 | 132° | 47km/h | 34549m | 1.5m/s | -33.6°C | 0% | 6.6hPa | 2.5V | 02:58:43 | 02:17:08 | 00:00:00 | |
| DK7TD | 2026-09-02 18:49:29 | 49.14178 | 8.51969 | 152° | 51km/h | 34555m | 5.2m/s | -33.6°C | 0% | 6.5hPa | 2.5V | 02:58:43 | 02:17:10 | 00:00:00 | |
| DL1XH-west | 2026-09-02 18:49:26 | 49.14204 | 8.51932 | 120° | 37km/h | 34547m | 2.1m/s | -33.6°C | 0% | 6.5hPa | 2.6V | 02:58:43 | 02:17:07 | 00:00:00 | |
| DJ2DS-15 | 2026-09-02 18:49:26 | 49.14204 | 8.51932 | 120° | 31km/h | 34547m | 2.1m/s | -33.6°C | 1.5% | 6.5hPa | 2.6V | 00:00:00 | 02:17:07 | 00:00:00 | |
| HEMX73-11 | 2026-09-02 18:49:25 | 49.14204 | 8.51932 | 121° | 37km/h | 34547m | 2.1m/s | -33.6°C | 0.1% | 6.6hPa | 2.6V | 02:58:00 | 00:00:00 | 00:00:00 | |
| IW2NTF | 2026-09-02 18:49:24 | 49.14177 | 8.51924 | 319° | 13km/h | 34516m | 2m/s | -33.7°C | 1.4% | 6.6hPa | 2.6V | 02:58:34 | 02:17:00 | 00:00:00 | |
| DM0DOS-11 | 2026-09-02 18:49:23 | 49.14177 | 8.51926 | 181° | 4km/h | 34514m | 4m/s | -33.7°C | 1.5% | 6.6hPa | 2.5V | 02:58:35 | 02:16:59 | 00:00:00 | |
| EDDB2-12 | 2026-09-02 18:49:23 | 49.14196 | 8.51910 | 346° | 31km/h | 34525m | 5.7m/s | -33.7°C | 0.2% | 6.6hPa | 2.5V | 00:00:00 | 00:00:00 | 00:00:00 | |
| DL1XH1-15 | 2026-09-02 18:49:22 | 49.14179 | 8.51924 | 149° | 20km/h | 34508m | 6.4m/s | -33.7°C | 1.4% | 6.6hPa | 2.5V | 02:58:36 | 02:16:58 | 00:00:00 | |
| DL1XH-15 | 2026-09-02 18:49:19 | 49.14204 | 8.51894 | 136° | 57km/h | 34489m | 3.8m/s | -33.7°C | 1.4% | 6.6hPa | 2.6V | 02:58:39 | 02:16:55 | 00:00:00 | |
| DK7TD | 2026-09-02 18:49:18 | 49.14176 | 8.51926 | 182° | 4km/h | 34514m | 4m/s | -33.7°C | 0% | 6.6hPa | 2.5V | 02:58:43 | 02:16:59 | 00:00:00 | |
| DL1XH-west | 2026-09-02 18:49:16 | 49.14185 | 8.51918 | 144° | 37km/h | 34502m | 7.5m/s | -33.7°C | 0% | 6.6hPa | 2.5V | 02:58:43 | 02:16:57 | 00:00:00 | |
| HSKMA3-T | 2026-09-02 18:49:15 | 49.14193 | 8.51907 | 140° | 51km/h | 34495m | 6.5m/s | -33.7°C | 0% | 6.6hPa | 2.6V | 02:59:34 | 02:16:56 | 00:00:00 | |
| SONDE2-11 | 2026-09-02 18:49:15 | 49.14204 | 8.51893 | 136° | 57km/h | 34490m | 3.8m/s | -33.7°C | 0.2% | 6.6hPa | 2.6V | 00:00:00 | 00:00:00 | 00:00:00 | |
| DD1CC8 | 2026-09-02 18:49:14 | 49.14213 | 8.51878 | 131° | 53km/h | 34487m | 1.6m/s | -33.7°C | 0.2% | 6.6hPa | 2.6V | 00:00:00 | 00:00:00 | 00:00:00 | |
| DM0DOS-11 | 2026-09-02 18:49:13 | 49.14216 | 8.51836 | 0° | 31km/h | 34465m | 7.5m/s | -33.8°C | 1.4% | 6.6hPa | 2.6V | 02:58:45 | 02:16:49 | 00:00:00 | |
| DL1XH1-15 | 2026-09-02 18:49:12 | 49.14207 | 8.51837 | 351° | 38km/h | 34458m | 5.6m/s | -33.8°C | 1.4% | 6.6hPa | 2.6V | 02:58:46 | 02:16:48 | 00:00:00 | |
| EDDB2-11 | 2026-09-02 18:49:11 | 49.14225 | 8.51852 | 108° | 27km/h | 34483m | 3.1m/s | -33.7°C | 0.2% | 6.6hPa | 2.5V | 00:00:00 | 00:00:00 | 00:00:00 | |
| IW2NTF | 2026-09-02 18:49:10 | 49.14188 | 8.51840 | 359° | 31km/h | 34451m | 1.8m/s | -34°C | 1.5% | 6.6hPa | 2.5V | 02:58:48 | 02:16:46 | 00:00:00 | |
| DL1XH-west | 2026-09-02 18:49:05 | 49.14188 | 8.51840 | 360° | 31km/h | 34451m | 1.8m/s | -34°C | 0% | 6.6hPa | 2.5V | 02:59:34 | 02:16:46 | 00:00:00 | |
| DK5PH-5 | 2026-09-02 18:49:04 | 49.14182 | 8.51838 | 23° | 37km/h | 34449m | 2.5m/s | -34.0°C | 1.5% | 6.6hPa | 2.6V | 00:00:00 | 02:16:45 | 00:00:00 | |
| CB1BUN | 2026-09-02 18:49:03 | 49.14182 | 8.51838 | 24° | 22km/h | 34449m | 2.6m/s | -34.0°C | 0.2% | 6.6hPa | 2.6V | 02:59:00 | 00:00:00 | 00:00:00 | |
| DL1XH1-15 | 2026-09-02 18:49:02 | 49.14211 | 8.51752 | 126° | 40km/h | 34416m | 1.5m/s | -34.7°C | 1.5% | 6.7hPa | 2.6V | 02:58:56 | 02:16:38 | 00:00:00 | |
| DM7RM-13 | 2026-09-02 18:49:01 | 49.14178 | 8.51825 | 103° | 27km/h | 34440m | 6.6m/s | -34.2°C | 0.2% | 6.7hPa | 2.5V | 02:59:00 | 00:00:00 | 00:00:00 | |
| DO8TBO-1 | 2026-09-02 18:49:00 | 49.14188 | 8.51798 | 126° | 38km/h | 34426m | 6.5m/s | -34.4°C | 1.5% | 6.6hPa | 2.5V | 02:58:00 | 02:16:41 | 00:00:00 | |
| DO3MHA-11 | 2026-09-02 18:48:57 | 49.14211 | 8.51752 | 127° | 35km/h | 34416m | 1.4m/s | -34.6°C | 1.5% | 6.6hPa | 2.6V | 00:00:00 | 02:16:38 | 00:00:00 | |
| DL1XH-15 | 2026-09-02 18:48:56 | 49.14189 | 8.51723 | 14° | 44km/h | 34387m | 2.7m/s | -34.9°C | 1.6% | 6.7hPa | 2.6V | 02:59:02 | 02:16:32 | 00:00:00 | |
| BIOWL1-15 | 2026-09-02 18:48:55 | 49.14217 | 8.51734 | 83° | 15km/h | 34409m | 5.2m/s | -34.7°C | 0% | 6.7hPa | 2.6V | 02:59:34 | 02:16:36 | 00:00:00 | |
| DL1XH-west | 2026-09-02 18:48:54 | 49.14214 | 8.51730 | 27° | 18km/h | 34403m | 6.8m/s | -34.8°C | 0% | 6.7hPa | 2.5V | 02:59:34 | 02:16:35 | 00:00:00 | |
| DM0DOS-11 | 2026-09-02 18:48:53 | 49.14165 | 8.51693 | 68° | 44km/h | 34377m | 5.5m/s | -34.9°C | 1.5% | 6.7hPa | 2.5V | 02:59:05 | 02:16:29 | 00:00:00 | |
| HSKMA3-T | 2026-09-02 18:48:49 | 49.14171 | 8.51707 | 47° | 42km/h | 34382m | 3.8m/s | -34.9°C | 0% | 6.7hPa | 2.5V | 02:59:34 | 02:16:30 | 00:00:00 | |
| BIOWL1-15 | 2026-09-02 18:48:49 | 49.14168 | 8.51638 | 112° | 53km/h | 34360m | 4.1m/s | -35°C | 0% | 6.7hPa | 2.6V | 02:59:34 | 02:16:26 | 00:00:00 | |
| DB0UT-7 | 2026-09-02 18:48:48 | 49.14165 | 8.51693 | 69° | 35km/h | 34377m | 5.4m/s | -34.9°C | 1.5% | 6.6hPa | 2.5V | 00:00:00 | 02:16:29 | 00:00:00 | |
| DO3MHA-11 | 2026-09-02 18:48:47 | 49.14163 | 8.51676 | 88° | 37km/h | 34372m | 6.4m/s | -34.9°C | 1.5% | 6.6hPa | 2.5V | 02:59:00 | 02:16:28 | 00:00:00 | |
| DL1XH-15 | 2026-09-02 18:48:46 | 49.14181 | 8.51593 | 55° | 9km/h | 34346m | 5.1m/s | -35.1°C | 1.6% | 6.7hPa | 2.5V | 02:59:12 | 02:16:22 | 00:00:00 | |
| DL1XH-west | 2026-09-02 18:48:43 | 49.14178 | 8.51607 | 120° | 35km/h | 34354m | 2.5m/s | -35°C | 0% | 6.7hPa | 2.5V | 02:59:34 | 02:16:24 | 00:00:00 | |
| HSKMA3-T | 2026-09-02 18:48:37 | 49.14151 | 8.51593 | 6° | 46km/h | 34324m | 4.3m/s | -35.3°C | 0% | 6.8hPa | 2.6V | 02:59:34 | 02:16:18 | 00:00:00 | |
| BIOWL1-15 | 2026-09-02 18:48:34 | 49.14122 | 8.51569 | 54° | 44km/h | 34312m | 5.4m/s | -35.4°C | 0% | 6.8hPa | 2.5V | 02:59:34 | 02:16:15 | 00:00:00 | |
| DL3AQ-11 | 2026-09-02 18:48:34 | 49.14117 | 8.51554 | 71° | 44km/h | 34306m | 6.0m/s | -35.4°C | 0.2% | 6.8hPa | 2.6V | 00:00:00 | 00:00:00 | 00:00:00 | |
| DM0DOS-11 | 2026-09-02 18:48:33 | 49.14125 | 8.51485 | 118° | 18km/h | 34282m | 3.9m/s | -35.4°C | 1.6% | 6.8hPa | 2.6V | 02:59:25 | 02:16:09 | 00:00:00 | |
| DL1XH-west | 2026-09-02 18:48:32 | 49.14115 | 8.51537 | 88° | 46km/h | 34300m | 5.9m/s | -35.4°C | 0% | 6.8hPa | 2.6V | 02:59:34 | 02:16:13 | 00:00:00 | |
| HSKMA3-T | 2026-09-02 18:48:27 | 49.14126 | 8.51481 | 85° | 5km/h | 34278m | 4.8m/s | -35.4°C | 0% | 6.8hPa | 2.6V | 02:59:34 | 02:16:08 | 00:00:00 | |
| BIOWL1-15 | 2026-09-02 18:48:25 | 49.14104 | 8.51489 | 351° | 38km/h | 34256m | 4.5m/s | -35.3°C | 0% | 6.8hPa | 2.5V | 02:59:34 | 02:16:04 | 00:00:00 | |
| DF7PN | 2026-09-02 18:48:24 | 49.14113 | 8.51486 | 344° | 33km/h | 34261m | 5.4m/s | -35.3°C | 0.2% | 6.8hPa | 2.5V | 00:00:00 | 00:00:00 | 00:00:00 | |
| DM0DOS-11 | 2026-09-02 18:48:23 | 49.14068 | 8.51468 | 66° | 27km/h | 34232m | 5.8m/s | -35.4°C | 1.6% | 6.8hPa | 2.5V | 02:59:35 | 02:15:59 | 00:00:00 | |
| DL1XH-west | 2026-09-02 18:48:22 | 49.14095 | 8.51490 | 0° | 38km/h | 34252m | 4m/s | -35.3°C | 0% | 6.8hPa | 2.6V | 02:59:34 | 02:16:03 | 00:00:00 | |
| HSKMA3-T | 2026-09-02 18:48:16 | 49.14065 | 8.51448 | 86° | 26km/h | 34222m | 4.5m/s | -35.4°C | 0% | 6.9hPa | 2.6V | 03:00:25 | 02:15:57 | 00:00:00 | |
| DL6DJ-15 | 2026-09-02 18:48:16 | 49.14065 | 8.51439 | 82° | 20km/h | 34218m | 3.9m/s | -35.5°C | 0.2% | 6.9hPa | 2.6V | 00:00:00 | 00:00:00 | 00:00:00 | |
| DF3TZ-5 | 2026-09-02 18:48:14 | 49.14063 | 8.51432 | 67° | 16km/h | 34214m | 4.1m/s | -35.5°C | 0.2% | 6.9hPa | 2.6V | 00:00:00 | 00:00:00 | 00:00:00 | |
| DM0DOS-11 | 2026-09-02 18:48:13 | 49.14029 | 8.51419 | 7° | 27km/h | 34184m | 4.6m/s | -35.6°C | 1.6% | 6.9hPa | 2.6V | 02:59:45 | 02:15:49 | 00:00:00 | |
| BIOWL1-15 | 2026-09-02 18:48:12 | 49.14057 | 8.51423 | 17° | 22km/h | 34204m | 5.3m/s | -35.5°C | 0% | 6.9hPa | 2.5V | 03:00:25 | 02:15:53 | 00:00:00 | |
| DL1XH-west | 2026-09-02 18:48:11 | 49.14051 | 8.51422 | 6° | 27km/h | 34199m | 5.5m/s | -35.6°C | 0% | 6.9hPa | 2.5V | 03:00:25 | 02:15:52 | 00:00:00 | |
| HSKMA3-T | 2026-09-02 18:48:06 | 49.14019 | 8.51415 | 35° | 15km/h | 34174m | 5.5m/s | -35.6°C | 0% | 6.9hPa | 2.5V | 03:00:25 | 02:15:47 | 00:00:00 | |
| DJ2DS-15 | 2026-09-02 18:48:06 | 49.14019 | 8.51415 | 35° | 22km/h | 34174m | 5.4m/s | -35.5°C | 1.6% | 6.9hPa | 2.5V | 00:00:00 | 02:15:47 | 00:00:00 | |
| IW2NTF | 2026-09-02 18:48:05 | 49.14020 | 8.51397 | 11° | 7km/h | 34146m | 4m/s | -35.5°C | 1.6% | 6.9hPa | 2.5V | 02:59:53 | 02:15:41 | 00:00:00 | |
| DL3AQ-11 | 2026-09-02 18:48:05 | 49.14017 | 8.51407 | 110° | 11km/h | 34163m | 5.3m/s | -35.6°C | 0.2% | 6.9hPa | 2.6V | 00:00:00 | 00:00:00 | 00:00:00 | |
| DK5PH-5 | 2026-09-02 18:48:04 | 49.14017 | 8.51407 | 111° | 26km/h | 34163m | 5.3m/s | -35.5°C | 1.6% | 6.9hPa | 2.6V | 00:00:00 | 02:15:45 | 00:00:00 | |
| DM0DOS-11 | 2026-09-02 18:48:03 | 49.14011 | 8.51398 | 353° | 27km/h | 34136m | 6.2m/s | -35.6°C | 1.6% | 6.9hPa | 2.6V | 02:59:55 | 02:15:39 | 00:00:00 | |
| DL1XH1-15 | 2026-09-02 18:48:02 | 49.14003 | 8.51399 | 354° | 37km/h | 34130m | 5.9m/s | -35.6°C | 1.6% | 6.9hPa | 2.6V | 02:59:56 | 02:15:38 | 00:00:00 | |
| DK7TD | 2026-09-02 18:48:02 | 49.14020 | 8.51400 | 130° | 11km/h | 34153m | 3.5m/s | -35.5°C | 0% | 6.9hPa | 2.5V | 03:00:25 | 02:15:43 | 00:00:00 | |
| DL1XH-west | 2026-09-02 18:48:00 | 49.14020 | 8.51397 | 12° | 7km/h | 34146m | 4m/s | -35.6°C | 0% | 7hPa | 2.5V | 03:00:25 | 02:15:41 | 00:00:00 | |
| DL1ZP-14 | 2026-09-02 18:47:56 | 49.13994 | 8.51399 | 359° | 40km/h | 34125m | 4.6m/s | -35.6°C | 0.2% | 7.0hPa | 2.5V | 00:00:00 | 00:00:00 | 00:00:00 | |
| IW2NTF | 2026-09-02 18:47:55 | 49.13956 | 8.51364 | 90° | 24km/h | 34096m | 4.6m/s | -35.8°C | 1.7% | 7hPa | 2.6V | 03:00:03 | 02:15:31 | 00:00:00 | |
| HSKMA3-T | 2026-09-02 18:47:55 | 49.13983 | 8.51399 | 7° | 42km/h | 34121m | 3.3m/s | -35.6°C | 0% | 7hPa | 2.5V | 03:00:25 | 02:15:36 | 00:00:00 | |
| DL3AQ-11 | 2026-09-02 18:47:54 | 49.13965 | 8.51390 | 31° | 31km/h | 34113m | 4.9m/s | -35.7°C | 0.2% | 7.0hPa | 2.5V | 00:00:00 | 00:00:00 | 00:00:00 | |
| DF7PN | 2026-09-02 18:47:53 | 49.13965 | 8.51390 | 31° | 31km/h | 34113m | 4.9m/s | -35.7°C | 0.2% | 7.0hPa | 2.5V | 00:00:00 | 00:00:00 | 00:00:00 | |
| DL1XH1-15 | 2026-09-02 18:47:52 | 49.13955 | 8.51344 | 38° | 11km/h | 34085m | 4.3m/s | -35.9°C | 1.6% | 7hPa | 2.5V | 03:00:06 | 02:15:28 | 00:00:00 | |
| BIOWL1-15 | 2026-09-02 18:47:52 | 49.13960 | 8.51382 | 51° | 29km/h | 34107m | 6.1m/s | -35.7°C | 0% | 7hPa | 2.6V | 03:00:25 | 02:15:33 | 00:00:00 | |
| DK7TD | 2026-09-02 18:47:51 | 49.13956 | 8.51373 | 74° | 26km/h | 34102m | 5.9m/s | -35.8°C | 0% | 7hPa | 2.6V | 03:00:25 | 02:15:32 | 00:00:00 | |
| DL1XH-west | 2026-09-02 18:47:50 | 49.13956 | 8.51364 | 90° | 24km/h | 34096m | 4.6m/s | -35.8°C | 0% | 7hPa | 2.6V | 03:00:25 | 02:15:31 | 00:00:00 | |
| EDDB2-12 | 2026-09-02 18:47:50 | 49.13956 | 8.51355 | 96° | 20km/h | 34092m | 3.5m/s | -35.8°C | 0.2% | 7.0hPa | 2.6V | 00:00:00 | 00:00:00 | 00:00:00 | |
| BIOWL9-15 | 2026-09-02 18:47:46 | 49.13945 | 8.51344 | 349° | 29km/h | 34074m | 6.6m/s | -35.9°C | 0.2% | 7.0hPa | 2.6V | 00:00:00 | 00:00:00 | 00:00:00 | |
| IW2NTF | 2026-09-02 18:47:45 | 49.13895 | 8.51347 | 25° | 33km/h | 34053m | 4.6m/s | -35.9°C | 1.7% | 7hPa | 2.6V | 03:00:13 | 02:15:21 | 00:00:00 | |
| HSKMA3-T | 2026-09-02 18:47:44 | 49.13937 | 8.51347 | 348° | 40km/h | 34067m | 6m/s | -35.9°C | 0% | 7hPa | 2.5V | 03:00:25 | 02:15:25 | 00:00:00 | |
| DB0NH | 2026-09-02 18:47:43 | 49.13926 | 8.51350 | 352° | 29km/h | 34063m | 4.1m/s | -35.8°C | 1.7% | 7.0hPa | 2.5V | 00:00:00 | 02:15:24 | 00:00:00 | |
| DL1XH1-15 | 2026-09-02 18:47:42 | 49.13886 | 8.51319 | 99° | 31km/h | 34035m | 5.5m/s | -35.8°C | 1.6% | 7hPa | 2.5V | 03:00:16 | 02:15:18 | 00:00:00 | |
| BIOWL1-15 | 2026-09-02 18:47:41 | 49.13904 | 8.51351 | 9° | 40km/h | 34056m | 2.6m/s | -35.9°C | 0% | 7hPa | 2.6V | 03:00:25 | 02:15:22 | 00:00:00 | |
| DL1XH-west | 2026-09-02 18:47:40 | 49.13895 | 8.51347 | 25° | 33km/h | 34053m | 4.6m/s | -35.9°C | 0% | 7hPa | 2.6V | 03:00:25 | 02:15:21 | 00:00:00 | |
| PG1ADW-2 | 2026-09-02 18:47:39 | 49.13889 | 8.51340 | 50° | 26km/h | 34047m | 6.2m/s | -35.8°C | 1.6% | 7.0hPa | 2.5V | 00:00:00 | 02:15:20 | 00:00:00 | |
| DL3AQ-11 | 2026-09-02 18:47:38 | 49.13886 | 8.51319 | 99° | 29km/h | 34035m | 5.5m/s | -35.8°C | 0.2% | 7.1hPa | 2.5V | 00:00:00 | 00:00:00 | 00:00:00 | |
| DO3MHA-11 | 2026-09-02 18:47:37 | 49.13886 | 8.51319 | 100° | 29km/h | 34035m | 5.4m/s | -35.8°C | 1.6% | 7.0hPa | 2.5V | 00:00:00 | 02:15:18 | 00:00:00 | |
| SONCRA | 2026-09-02 18:47:36 | 49.13890 | 8.51300 | 117° | 20km/h | 34027m | 2.3m/s | -35.8°C | 0.2% | 7.0hPa | 2.5V | 00:00:00 | 00:00:00 | 00:00:00 | |
| IW2NTF | 2026-09-02 18:47:35 | 49.13873 | 8.51311 | 330° | 47km/h | 34001m | 5.3m/s | -35.8°C | 1.6% | 7.1hPa | 2.5V | 03:00:23 | 02:15:11 | 00:00:00 | |
| DO8TBO-1 | 2026-09-02 18:47:35 | 49.13890 | 8.51299 | 118° | 24km/h | 34028m | 2.2m/s | -35.8°C | 1.7% | 7.0hPa | 2.6V | 03:00:00 | 02:15:16 | 00:00:00 | |
| DK5PH-5 | 2026-09-02 18:47:34 | 49.13892 | 8.51295 | 111° | 26km/h | 34025m | 3.1m/s | -35.8°C | 1.6% | 7.0hPa | 2.6V | 00:00:00 | 02:15:15 | 00:00:00 | |
| DM0DOS-11 | 2026-09-02 18:47:33 | 49.13850 | 8.51325 | 344° | 44km/h | 33994m | 2.3m/s | -35.8°C | 1.6% | 7.1hPa | 2.6V | 03:00:25 | 02:15:09 | 00:00:00 | |
| HSKMA3-T | 2026-09-02 18:47:33 | 49.13891 | 8.51294 | 340° | 7km/h | 34020m | 5.1m/s | -35.8°C | 0% | 7.1hPa | 2.6V | 03:00:25 | 02:15:14 | 00:00:00 | |
| BIOWL1-15 | 2026-09-02 18:47:33 | 49.13882 | 8.51303 | 327° | 37km/h | 34007m | 7m/s | -35.8°C | 0% | 7.1hPa | 2.5V | 03:00:25 | 02:15:12 | 00:00:00 | |
| BIOWL7-15 | 2026-09-02 18:47:32 | 49.13891 | 8.51293 | 341° | 7km/h | 34021m | 5.1m/s | -35.8°C | 0.2% | 7.1hPa | 2.5V | 03:00:00 | 00:00:00 | 00:00:00 | |
| DL1XH-15 | 2026-09-02 18:47:31 | 49.13833 | 8.51327 | 19° | 26km/h | 33987m | 5.2m/s | -35.7°C | 1.7% | 7.1hPa | 2.5V | 03:00:27 | 02:15:07 | 00:00:00 | |
| DL1XH-west | 2026-09-02 18:47:30 | 49.13872 | 8.51311 | 331° | 47km/h | 34001m | 5.3m/s | -35.8°C | 0% | 7.1hPa | 2.5V | 03:00:25 | 02:15:11 | 00:00:00 | |
| DK7TD | 2026-09-02 18:47:29 | 49.13861 | 8.51319 | 336° | 49km/h | 33997m | 2.9m/s | -35.8°C | 0% | 7.1hPa | 2.5V | 03:00:25 | 02:15:10 | 00:00:00 | |
| OE5DRO-10 | 2026-09-02 18:47:29 | 49.13861 | 8.51319 | 337° | 29km/h | 33997m | 2.9m/s | -35.7°C | 1.6% | 7.0hPa | 2.6V | 03:00:00 | 00:00:00 | 00:00:00 | |
| DJ2KF-10 | 2026-09-02 18:47:28 | 49.13850 | 8.51325 | 345° | 26km/h | 33995m | 2.2m/s | -35.7°C | 1.6% | 7.1hPa | 2.6V | 00:00:00 | 02:15:09 | 00:00:00 | |
| DO3MHA-11 | 2026-09-02 18:47:27 | 49.13840 | 8.51328 | 357° | 22km/h | 33992m | 3.4m/s | -35.7°C | 1.7% | 7.0hPa | 2.5V | 03:00:00 | 02:15:08 | 00:00:00 | |
| DJ2DS-15 | 2026-09-02 18:47:26 | 49.13833 | 8.51327 | 20° | 26km/h | 33988m | 5.2m/s | -35.7°C | 1.7% | 7.1hPa | 2.5V | 03:00:00 | 02:15:07 | 00:00:00 | |
| DL1ZP-14 | 2026-09-02 18:47:25 | 49.13829 | 8.51322 | 57° | 20km/h | 33982m | 6.4m/s | -35.7°C | 0.2% | 7.1hPa | 2.5V | 00:00:00 | 00:00:00 | 00:00:00 | |
| DL3AQ-11 | 2026-09-02 18:47:24 | 49.13827 | 8.51314 | 92° | 24km/h | 33975m | 6.5m/s | -35.7°C | 0.2% | 7.1hPa | 2.5V | 00:00:00 | 00:00:00 | 00:00:00 | |
| DM0DOS-11 | 2026-09-02 18:47:23 | 49.13839 | 8.51292 | 295° | 22km/h | 33947m | 5.9m/s | -35.5°C | 1.6% | 7.1hPa | 2.5V | 03:00:35 | 02:14:59 | 00:00:00 | |
| HSKMA3-T | 2026-09-02 18:47:23 | 49.13829 | 8.51304 | 113° | 29km/h | 33969m | 5.5m/s | -35.6°C | 0% | 7.1hPa | 2.6V | 03:01:16 | 02:15:04 | 00:00:00 | |
| BIOWL1-15 | 2026-09-02 18:47:22 | 49.13839 | 8.51285 | 170° | 9km/h | 33957m | 3.7m/s | -35.6°C | 0% | 7.2hPa | 2.5V | 03:01:16 | 02:15:01 | 00:00:00 | |
| DF7PN | 2026-09-02 18:47:22 | 49.13832 | 8.51295 | 126° | 26km/h | 33964m | 4.1m/s | -35.6°C | 0.2% | 7.1hPa | 2.6V | 00:00:00 | 00:00:00 | 00:00:00 | |
| DL1XH-15 | 2026-09-02 18:47:21 | 49.13829 | 8.51311 | 316° | 40km/h | 33936m | 4.6m/s | -35.5°C | 1.7% | 7.2hPa | 2.6V | 03:00:37 | 02:14:57 | 00:00:00 | |
| DL1XH-west | 2026-09-02 18:47:19 | 49.13841 | 8.51287 | 265° | 9km/h | 33952m | 4.9m/s | -35.6°C | 0% | 7.1hPa | 2.5V | 03:01:16 | 02:15:00 | 00:00:00 | |
| DK7TD | 2026-09-02 18:47:18 | 49.13839 | 8.51292 | 296° | 22km/h | 33947m | 5.9m/s | -35.5°C | 0% | 7.1hPa | 2.5V | 03:01:16 | 02:14:59 | 00:00:00 | |
| DL4BBY-15 | 2026-09-02 18:47:18 | 49.13840 | 8.51292 | 296° | 24km/h | 33947m | 5.8m/s | -34.4°C | 0% | 0hPa | 2.5V | 00:00:00 | 00:00:00 | 00:00:00 | |
| DO3MHA-11 | 2026-09-02 18:47:17 | 49.13836 | 8.51301 | 309° | 31km/h | 33941m | 5.8m/s | -35.5°C | 1.6% | 7.1hPa | 2.5V | 00:00:00 | 02:14:58 | 00:00:00 | |
| NBG1-10 | 2026-09-02 18:47:16 | 49.13829 | 8.51311 | 317° | 22km/h | 33936m | 4.6m/s | -35.5°C | 1.7% | 7.1hPa | 2.5V | 00:00:00 | 02:14:57 | 00:00:00 | |
| BIOWL9-15 | 2026-09-02 18:47:15 | 49.13813 | 8.51329 | 336° | 37km/h | 33928m | 3.6m/s | -35.5°C | 0.2% | 7.2hPa | 2.5V | 00:00:00 | 00:00:00 | 00:00:00 | |
| DL6DJ-15 | 2026-09-02 18:47:14 | 49.13804 | 8.51332 | 352° | 29km/h | 33924m | 4.2m/s | -35.4°C | 0.2% | 7.2hPa | 2.5V | 00:00:00 | 00:00:00 | 00:00:00 | |
| DM0DOS-11 | 2026-09-02 18:47:13 | 49.13790 | 8.51298 | 95° | 26km/h | 33898m | 3.7m/s | -35.3°C | 1.6% | 7.2hPa | 2.5V | 03:00:45 | 02:14:49 | 00:00:00 | |
| HSKMA3-T | 2026-09-02 18:47:12 | 49.13798 | 8.51332 | 18° | 24km/h | 33919m | 5.2m/s | -35.4°C | 0% | 7.2hPa | 2.5V | 03:01:16 | 02:14:53 | 00:00:00 | |
| BIOWL1-15 | 2026-09-02 18:47:12 | 49.13790 | 8.51319 | 76° | 26km/h | 33908m | 5.6m/s | -35.4°C | 0% | 7.2hPa | 2.6V | 03:01:16 | 02:14:51 | 00:00:00 | |
| DL1XH-west | 2026-09-02 18:47:09 | 49.13790 | 8.51308 | 90° | 27km/h | 33902m | 4.8m/s | -35.3°C | 0% | 7.2hPa | 2.6V | 03:01:16 | 02:14:50 | 00:00:00 | |
| DK7TD | 2026-09-02 18:47:08 | 49.13790 | 8.51298 | 95° | 26km/h | 33898m | 3.7m/s | -35.3°C | 0% | 7.2hPa | 2.5V | 03:01:16 | 02:14:49 | 00:00:00 | |
| IW2NTF | 2026-09-02 18:47:07 | 49.13773 | 8.51297 | 327° | 33km/h | 33868m | 4.8m/s | -35.2°C | 1.6% | 7.2hPa | 2.5V | 03:00:51 | 02:14:43 | 00:00:00 | |
| DO3MHA-11 | 2026-09-02 18:47:07 | 49.13790 | 8.51290 | 93° | 22km/h | 33895m | 3.6m/s | -35.3°C | 1.6% | 7.1hPa | 2.6V | 00:00:00 | 02:14:48 | 00:00:00 | |
| DO1YAY-16 | 2026-09-02 18:47:06 | 49.13788 | 8.51283 | 351° | 9km/h | 33886m | 5.5m/s | -35.3°C | 0.2% | 7.2hPa | 2.6V | 00:00:00 | 00:00:00 | 00:00:00 | |
| DJ2DS-15 | 2026-09-02 18:47:05 | 49.13788 | 8.51283 | 351° | 9km/h | 33886m | 5.5m/s | -35.3°C | 0.2% | 7.2hPa | 2.6V | 00:00:00 | 00:00:00 | 00:00:00 | |
| DK5PH-5 | 2026-09-02 18:47:04 | 49.13784 | 8.51286 | 330° | 18km/h | 33880m | 6.0m/s | -35.2°C | 1.6% | 7.1hPa | 2.6V | 00:00:00 | 02:14:45 | 00:00:00 | |
| DM0DOS-11 | 2026-09-02 18:47:03 | 49.13748 | 8.51307 | 31° | 18km/h | 33850m | 5.5m/s | -35.1°C | 1.6% | 7.2hPa | 2.6V | 03:00:55 | 02:14:39 | 00:00:00 | |
| DL1XH1-15 | 2026-09-02 18:47:02 | 49.13745 | 8.51302 | 63° | 18km/h | 33844m | 5.7m/s | -35°C | 1.6% | 7.2hPa | 2.6V | 03:00:56 | 02:14:38 | 00:00:00 | |
| HSKMA3-T | 2026-09-02 18:47:02 | 49.13773 | 8.51297 | 327° | 33km/h | 33868m | 4.9m/s | -35.2°C | 0% | 7.2hPa | 2.5V | 03:01:16 | 02:14:43 | 00:00:00 | |
| BIOWL1-15 | 2026-09-02 18:47:00 | 49.13759 | 8.51308 | 343° | 27km/h | 33860m | 4m/s | -35.1°C | 0% | 7.2hPa | 2.5V | 03:01:16 | 02:14:41 | 00:00:00 | |
| DL1XH-west | 2026-09-02 18:46:59 | 49.13753 | 8.51309 | 2° | 22km/h | 33855m | 4.8m/s | -35.1°C | 0% | 7.2hPa | 2.5V | 03:01:16 | 02:14:40 | 00:00:00 | |
| DK7TD | 2026-09-02 18:46:58 | 49.13748 | 8.51307 | 32° | 18km/h | 33850m | 5.5m/s | -35.1°C | 0% | 7.2hPa | 2.6V | 03:01:16 | 02:14:39 | 00:00:00 | |
| DJ2KF-10 | 2026-09-02 18:46:58 | 49.13748 | 8.51307 | 32° | 15km/h | 33850m | 5.5m/s | -35.0°C | 1.6% | 7.2hPa | 2.5V | 00:00:00 | 02:14:39 | 00:00:00 | |
| DO3MHA-11 | 2026-09-02 18:46:57 | 49.13745 | 8.51302 | 64° | 18km/h | 33845m | 5.7m/s | -35.0°C | 1.6% | 7.2hPa | 2.5V | 00:00:00 | 02:14:38 | 00:00:00 | |
| DH7VM-15 | 2026-09-02 18:46:56 | 49.13745 | 8.51302 | 64° | 18km/h | 33845m | 5.7m/s | -35.0°C | 0.2% | 7.3hPa | 2.5V | 00:00:00 | 00:00:00 | 00:00:00 | |
| DJTTGO | 2026-09-02 18:46:55 | 49.13743 | 8.51295 | 87° | 20km/h | 33840m | 4.9m/s | -35.0°C | 0.2% | 7.3hPa | 2.5V | 00:00:00 | 00:00:00 | 00:00:00 | |
| DM0DOS-11 | 2026-09-02 18:46:54 | 49.13734 | 8.51305 | 314° | 29km/h | 33800m | 4.6m/s | -34.9°C | 1.6% | 7.3hPa | 2.5V | 03:01:05 | 02:14:29 | 00:00:00 | |
| DL1ZP-14 | 2026-09-02 18:46:54 | 49.13745 | 8.51281 | 106° | 13km/h | 33831m | 3.8m/s | -35.0°C | 0.2% | 7.3hPa | 2.5V | 00:00:00 | 00:00:00 | 00:00:00 | |
| DL1XH1-15 | 2026-09-02 18:46:52 | 49.13729 | 8.51312 | 326° | 26km/h | 33795m | 4.8m/s | -34.9°C | 1.6% | 7.3hPa | 2.6V | 03:01:06 | 02:14:28 | 00:00:00 | |
| HSKMA3-T | 2026-09-02 18:46:52 | 49.13746 | 8.51278 | 286° | 5km/h | 33821m | 5.7m/s | -34.9°C | 0% | 7.3hPa | 2.6V | 03:01:16 | 02:14:33 | 00:00:00 | |
| BIOWL1-15 | 2026-09-02 18:46:49 | 49.13739 | 8.51297 | 306° | 27km/h | 33805m | 4.8m/s | -34.9°C | 0% | 7.3hPa | 2.5V | 03:01:16 | 02:14:30 | 00:00:00 | |
| DL1XH-west | 2026-09-02 18:46:48 | 49.13734 | 8.51305 | 315° | 29km/h | 33800m | 4.6m/s | -34.9°C | 0% | 7.3hPa | 2.5V | 03:01:16 | 02:14:29 | 00:00:00 | |
| EDDB2-12 | 2026-09-02 18:46:48 | 49.13729 | 8.51312 | 326° | 24km/h | 33796m | 4.9m/s | -34.9°C | 0.2% | 7.3hPa | 2.5V | 00:00:00 | 00:00:00 | 00:00:00 | |
| DL1XH-15 | 2026-09-02 18:46:47 | 49.13709 | 8.51303 | 62° | 15km/h | 33770m | 4.2m/s | -34.8°C | 1.5% | 7.3hPa | 2.5V | 03:01:11 | 02:14:23 | 00:00:00 | |
| DK7TD | 2026-09-02 18:46:46 | 49.13724 | 8.51315 | 345° | 20km/h | 33790m | 5.1m/s | -34.9°C | 0% | 7.3hPa | 2.6V | 03:01:16 | 02:14:27 | 00:00:00 | |
| DJ2DS-15 | 2026-09-02 18:46:46 | 49.13724 | 8.51315 | 346° | 15km/h | 33791m | 5.1m/s | -34.8°C | 1.6% | 7.2hPa | 2.6V | 00:00:00 | 02:14:27 | 00:00:00 | |
| DL3AQ-11 | 2026-09-02 18:46:45 | 49.13712 | 8.51308 | 52° | 16km/h | 33775m | 4.6m/s | -34.8°C | 0.2% | 7.3hPa | 2.6V | 00:00:00 | 00:00:00 | 00:00:00 | |
| BIOWL9-15 | 2026-09-02 18:46:44 | 49.13712 | 8.51308 | 52° | 16km/h | 33775m | 4.6m/s | -34.8°C | 0.2% | 7.3hPa | 2.6V | 00:00:00 | 00:00:00 | 00:00:00 | |
| DM0DOS-11 | 2026-09-02 18:46:43 | 49.13708 | 8.51303 | 260° | 15km/h | 33750m | 5.4m/s | -34.8°C | 1.6% | 7.3hPa | 2.6V | 03:01:15 | 02:14:19 | 00:00:00 | |
| NBG1-10 | 2026-09-02 18:46:43 | 49.13712 | 8.51308 | 53° | 15km/h | 33775m | 4.6m/s | -34.8°C | 1.6% | 7.3hPa | 2.5V | 03:01:00 | 02:14:24 | 00:00:00 | |
| DL1XH1-15 | 2026-09-02 18:46:42 | 49.13708 | 8.51310 | 261° | 20km/h | 33744m | 5m/s | -34.9°C | 1.6% | 7.4hPa | 2.5V | 03:01:16 | 02:14:18 | 00:00:00 | |
| HSKMA3-T | 2026-09-02 18:46:41 | 49.13708 | 8.51299 | 67° | 9km/h | 33766m | 4.8m/s | -34.8°C | 0% | 7.3hPa | 2.5V | 03:01:16 | 02:14:22 | 00:00:00 | |
| BIOWL1-15 | 2026-09-02 18:46:40 | 49.13708 | 8.51303 | 261° | 15km/h | 33750m | 5.4m/s | -34.8°C | 0% | 7.3hPa | 2.6V | 03:01:16 | 02:14:19 | 00:00:00 | |
| DL1XH-west | 2026-09-02 18:46:37 | 49.13709 | 8.51310 | 261° | 20km/h | 33745m | 5m/s | -34.9°C | 0% | 7.4hPa | 2.5V | 03:01:16 | 02:14:18 | 00:00:00 | |
| DK7TD | 2026-09-02 18:46:35 | 49.13710 | 8.51325 | 263° | 18km/h | 33735m | 4.7m/s | -35°C | 0% | 7.4hPa | 2.5V | 03:02:07 | 02:14:16 | 00:00:00 | |
| DO1YAY-16 | 2026-09-02 18:46:35 | 49.13710 | 8.51331 | 267° | 13km/h | 33730m | 5.4m/s | -35.0°C | 0.2% | 7.4hPa | 2.6V | 00:00:00 | 00:00:00 | 00:00:00 | |
| DK5PH-5 | 2026-09-02 18:46:34 | 49.13710 | 8.51331 | 268° | 15km/h | 33730m | 5.3m/s | -35.0°C | 1.6% | 7.3hPa | 2.6V | 00:00:00 | 02:14:15 | 00:00:00 | |
| DM0DOS-11 | 2026-09-02 18:46:33 | 49.13698 | 8.51331 | 359° | 15km/h | 33698m | 5.5m/s | -35.3°C | 1.6% | 7.4hPa | 2.6V | 03:01:25 | 02:14:09 | 00:00:00 | |
| DL1XH1-15 | 2026-09-02 18:46:32 | 49.13695 | 8.51332 | 340° | 15km/h | 33693m | 5.3m/s | -35.3°C | 1.6% | 7.4hPa | 2.6V | 03:01:26 | 02:14:08 | 00:00:00 | |
| HSKMA3-T | 2026-09-02 18:46:31 | 49.13707 | 8.51335 | 26° | 9km/h | 33714m | 5.1m/s | -35.2°C | 0% | 7.4hPa | 2.5V | 03:02:07 | 02:14:12 | 00:00:00 | |
| BIOWL1-15 | 2026-09-02 18:46:28 | 49.13698 | 8.51331 | 360° | 15km/h | 33699m | 5.5m/s | -35.3°C | 0% | 7.4hPa | 2.6V | 03:02:07 | 02:14:09 | 00:00:00 | |
| DJ2KF-10 | 2026-09-02 18:46:28 | 49.13698 | 8.51330 | 360° | 15km/h | 33699m | 5.5m/s | -35.2°C | 1.6% | 7.4hPa | 2.6V | 03:01:00 | 02:14:09 | 00:00:00 | |
| DL1XH-15 | 2026-09-02 18:46:27 | 49.13686 | 8.51348 | 250° | 4km/h | 33669m | 5.7m/s | -35.4°C | 1.6% | 7.4hPa | 2.6V | 03:01:31 | 02:14:03 | 00:00:00 | |
| DL1XH-west | 2026-09-02 18:46:26 | 49.13691 | 8.51334 | 322° | 15km/h | 33688m | 4.6m/s | -35.3°C | 0% | 7.4hPa | 2.5V | 03:02:07 | 02:14:07 | 00:00:00 | |
| DK7TD | 2026-09-02 18:46:25 | 49.13689 | 8.51338 | 310° | 15km/h | 33683m | 4.4m/s | -35.4°C | 0% | 7.4hPa | 2.5V | 03:02:07 | 02:14:06 | 00:00:00 | |
| DL1ZP-14 | 2026-09-02 18:46:23 | 49.13686 | 8.51346 | 281° | 7km/h | 33675m | 5.1m/s | -35.4°C | 0.2% | 7.4hPa | 2.6V | 00:00:00 | 00:00:00 | 00:00:00 | |
| DL1XH1-15 | 2026-09-02 18:46:22 | 49.13684 | 8.51347 | 340° | 11km/h | 33645m | 4.6m/s | -35.5°C | 1.6% | 7.5hPa | 2.6V | 03:01:36 | 02:13:58 | 00:00:00 | |
| HSKMA3-T | 2026-09-02 18:46:18 | 49.13687 | 8.51346 | 9° | 5km/h | 33649m | 4.1m/s | -35.5°C | 0% | 7.5hPa | 2.6V | 03:02:07 | 02:13:59 | 00:00:00 | |
| DB0UT-7 | 2026-09-02 18:46:18 | 49.13686 | 8.51346 | 9° | 24km/h | 33649m | 4.0m/s | -35.4°C | 1.6% | 7.4hPa | 2.6V | 00:00:00 | 00:00:00 | 00:00:00 | |
| DL1XH-15 | 2026-09-02 18:46:17 | 49.13658 | 8.51376 | 326° | 29km/h | 33618m | 3.5m/s | -35.5°C | 1.7% | 7.5hPa | 2.5V | 03:01:41 | 02:13:53 | 00:00:00 | |
| BIOWL1-15 | 2026-09-02 18:46:17 | 49.13685 | 8.51347 | 341° | 11km/h | 33645m | 4.6m/s | -35.5°C | 0% | 7.5hPa | 2.6V | 03:02:07 | 02:13:58 | 00:00:00 | |
| DL1XH-west | 2026-09-02 18:46:16 | 49.13681 | 8.51349 | 328° | 20km/h | 33640m | 5.6m/s | -35.5°C | 0% | 7.5hPa | 2.5V | 03:02:07 | 02:13:57 | 00:00:00 | |
| DK7TD | 2026-09-02 18:46:14 | 49.13671 | 8.51361 | 321° | 33km/h | 33627m | 5.8m/s | -35.5°C | 0% | 7.5hPa | 2.6V | 03:02:07 | 02:13:55 | 00:00:00 | |
| OE5DRO-10 | 2026-09-02 18:46:13 | 49.13664 | 8.51369 | 322° | 27km/h | 33622m | 4.5m/s | -35.5°C | 1.6% | 7.4hPa | 2.5V | 03:01:00 | 00:00:00 | 00:00:00 | |
| DL1XH1-15 | 2026-09-02 18:46:12 | 49.13641 | 8.51367 | 80° | 20km/h | 33591m | 4.8m/s | -35.5°C | 1.6% | 7.5hPa | 2.5V | 03:01:46 | 02:13:48 | 00:00:00 | |
| DB0NH | 2026-09-02 18:46:12 | 49.13658 | 8.51376 | 327° | 24km/h | 33619m | 3.5m/s | -35.5°C | 1.7% | 7.5hPa | 2.5V | 00:00:00 | 02:13:53 | 00:00:00 | |
| DL6DJ-15 | 2026-09-02 18:46:11 | 49.13652 | 8.51381 | 338° | 20km/h | 33615m | 4.0m/s | -35.5°C | 0.2% | 7.5hPa | 2.5V | 00:00:00 | 00:00:00 | 00:00:00 | |
| NBG1-10 | 2026-09-02 18:46:10 | 49.13647 | 8.51382 | 4° | 20km/h | 33610m | 5.7m/s | -35.5°C | 1.6% | 7.4hPa | 2.5V | 00:00:00 | 02:13:51 | 00:00:00 | |
| SONDE2-11 | 2026-09-02 18:46:09 | 49.13642 | 8.51375 | 69° | 18km/h | 33597m | 6.3m/s | -35.5°C | 0.2% | 7.5hPa | 2.5V | 00:00:00 | 00:00:00 | 00:00:00 | |
| IW2NTF | 2026-09-02 18:46:08 | 49.13633 | 8.51355 | 326° | 20km/h | 33573m | 6.2m/s | -35.4°C | 1.6% | 7.5hPa | 2.5V | 03:01:50 | 02:13:44 | 00:00:00 | |
| DL1XH-15 | 2026-09-02 18:46:07 | 49.13628 | 8.51361 | 319° | 31km/h | 33567m | 6.2m/s | -35.4°C | 1.6% | 7.5hPa | 2.5V | 03:01:51 | 02:13:43 | 00:00:00 | |
| DL1XH-west | 2026-09-02 18:46:06 | 49.13640 | 8.51360 | 81° | 18km/h | 33587m | 3.5m/s | -35.5°C | 0% | 7.5hPa | 2.5V | 03:02:07 | 02:13:47 | 00:00:00 | |
| HSKMA3-T | 2026-09-02 18:46:05 | 49.13639 | 8.51355 | 60° | 11km/h | 33583m | 3.7m/s | -35.4°C | 0% | 7.5hPa | 2.6V | 03:02:07 | 02:13:46 | 00:00:00 | |
| DB0ND-19 | 2026-09-02 18:46:05 | 49.13639 | 8.51355 | 59° | 11km/h | 33583m | 3.7m/s | -35.4°C | 0.2% | 7.5hPa | 2.5V | 00:00:00 | 00:00:00 | 00:00:00 | |
| DO1YAY-16 | 2026-09-02 18:46:04 | 49.13633 | 8.51355 | 326° | 18km/h | 33573m | 6.2m/s | -35.4°C | 0.2% | 7.5hPa | 2.5V | 00:00:00 | 00:00:00 | 00:00:00 | |
| DM0DOS-11 | 2026-09-02 18:46:03 | 49.13595 | 8.51394 | 343° | 37km/h | 33547m | 4.9m/s | -35.4°C | 1.6% | 7.6hPa | 2.5V | 03:01:55 | 02:13:39 | 00:00:00 | |
| DK7TD | 2026-09-02 18:46:03 | 49.13633 | 8.51355 | 327° | 20km/h | 33573m | 6.2m/s | -35.4°C | 0% | 7.5hPa | 2.5V | 03:02:07 | 02:13:44 | 00:00:00 | |
| IW2NTF | 2026-09-02 18:45:58 | 49.13567 | 8.51377 | 59° | 18km/h | 33520m | 4.9m/s | -35.3°C | 1.6% | 7.6hPa | 2.5V | 03:02:00 | 02:13:34 | 00:00:00 | |
| DL1XH-west | 2026-09-02 18:45:55 | 49.13573 | 8.51390 | 40° | 26km/h | 33531m | 5.6m/s | -35.3°C | 0% | 7.6hPa | 2.6V | 03:02:07 | 02:13:36 | 00:00:00 | |
| DK7TD | 2026-09-02 18:45:53 | 49.13567 | 8.51377 | 59° | 18km/h | 33520m | 4.9m/s | -35.3°C | 0% | 7.6hPa | 2.5V | 03:02:07 | 02:13:34 | 00:00:00 | |
| HSKMA3-T | 2026-09-02 18:45:49 | 49.13555 | 8.51374 | 324° | 24km/h | 33500m | 5.6m/s | -35.2°C | 0% | 7.6hPa | 2.5V | 03:02:07 | 02:13:30 | 00:00:00 | |
| DF7PN | 2026-09-02 18:45:49 | 49.13550 | 8.51380 | 322° | 29km/h | 33495m | 5.4m/s | -35.2°C | 0.2% | 7.6hPa | 2.5V | 00:00:00 | 00:00:00 | 00:00:00 | |
| IW2NTF | 2026-09-02 18:45:48 | 49.13521 | 8.51406 | 340° | 13km/h | 33469m | 5.8m/s | -35.2°C | 1.6% | 7.7hPa | 2.5V | 03:02:10 | 02:13:24 | 00:00:00 | |
| DL4BBY-15 | 2026-09-02 18:45:48 | 49.13549 | 8.51380 | 323° | 22km/h | 33495m | 5.4m/s | -34.1°C | 0% | 0hPa | 2.5V | 00:00:00 | 00:00:00 | 00:00:00 | |
| DL1XH-15 | 2026-09-02 18:45:47 | 49.13519 | 8.51407 | 349° | 5km/h | 33463m | 6.3m/s | -35.2°C | 1.6% | 7.7hPa | 2.5V | 03:02:11 | 02:13:23 | 00:00:00 | |
| BIOWL1-15 | 2026-09-02 18:45:45 | 49.13530 | 8.51400 | 332° | 27km/h | 33480m | 4.6m/s | -35.2°C | 0% | 7.7hPa | 2.6V | 03:02:58 | 02:13:26 | 00:00:00 | |
| DL1XH-west | 2026-09-02 18:45:44 | 49.13525 | 8.51404 | 336° | 20km/h | 33475m | 5.1m/s | -35.2°C | 0% | 7.6hPa | 2.6V | 03:02:58 | 02:13:25 | 00:00:00 | |
| DK7TD | 2026-09-02 18:45:42 | 49.13519 | 8.51407 | 350° | 5km/h | 33463m | 6.3m/s | -35.2°C | 0% | 7.7hPa | 2.5V | 03:02:58 | 02:13:23 | 00:00:00 | |
| DL1XH1-15 | 2026-09-02 18:45:42 | 49.13516 | 8.51405 | 0° | 13km/h | 33438m | 4.6m/s | -35.2°C | 1.6% | 7.7hPa | 2.6V | 03:02:16 | 02:13:18 | 00:00:00 | |
| DB0NH | 2026-09-02 18:45:42 | 49.13519 | 8.51407 | 350° | 26km/h | 33464m | 6.2m/s | -35.1°C | 1.6% | 7.6hPa | 2.6V | 00:00:00 | 02:13:23 | 00:00:00 | |
| BIOWL9-15 | 2026-09-02 18:45:41 | 49.13518 | 8.51407 | 75° | 0km/h | 33457m | 6.0m/s | -35.2°C | 0.2% | 7.7hPa | 2.6V | 00:00:00 | 00:00:00 | 00:00:00 | |
| DL6DJ-15 | 2026-09-02 18:45:40 | 49.13518 | 8.51407 | 129° | 2km/h | 33452m | 5.2m/s | -35.2°C | 0.2% | 7.7hPa | 2.6V | 00:00:00 | 00:00:00 | 00:00:00 | |
| DF3TZ-5 | 2026-09-02 18:45:39 | 49.13519 | 8.51406 | 95° | 2km/h | 33447m | 4.4m/s | -35.2°C | 0.2% | 7.7hPa | 2.6V | 00:00:00 | 00:00:00 | 00:00:00 | |
| SONDE2-11 | 2026-09-02 18:45:38 | 49.13516 | 8.51405 | 0° | 11km/h | 33438m | 4.6m/s | -35.2°C | 0.2% | 7.7hPa | 2.6V | 00:00:00 | 00:00:00 | 00:00:00 | |
| DL1XH-15 | 2026-09-02 18:45:37 | 49.13482 | 8.51414 | 336° | 31km/h | 33411m | 3.8m/s | -35.4°C | 1.6% | 7.7hPa | 2.6V | 03:02:21 | 02:13:13 | 00:00:00 | |
| HSKMA3-T | 2026-09-02 18:45:37 | 49.13516 | 8.51405 | 1° | 13km/h | 33438m | 4.6m/s | -35.2°C | 0% | 7.7hPa | 2.6V | 03:07:13 | 02:13:18 | 00:00:00 | |
| BIOWL1-15 | 2026-09-02 18:45:36 | 49.13498 | 8.51407 | 351° | 33km/h | 33420m | 6.1m/s | -35.3°C | 0% | 7.7hPa | 2.5V | 03:02:58 | 02:13:15 | 00:00:00 | |
| DL1XH-west | 2026-09-02 18:45:33 | 49.13490 | 8.51410 | 346° | 35km/h | 33415m | 4.8m/s | -35.4°C | 0% | 7.7hPa | 2.6V | 03:02:58 | 02:13:14 | 00:00:00 | |
| DK7TD | 2026-09-02 18:45:32 | 49.13482 | 8.51414 | 337° | 31km/h | 33411m | 3.8m/s | -35.4°C | 0% | 7.7hPa | 2.6V | 03:02:58 | 02:13:13 | 00:00:00 | |
| SONCRA | 2026-09-02 18:45:31 | 49.13476 | 8.51419 | 320° | 26km/h | 33407m | 3.9m/s | -35.4°C | 0.2% | 7.7hPa | 2.5V | 00:00:00 | 00:00:00 | 00:00:00 | |
| IW2NTF | 2026-09-02 18:45:28 | 49.13491 | 8.51454 | 58° | 11km/h | 33365m | 6.4m/s | -35.5°C | 1.6% | 7.8hPa | 2.5V | 03:02:30 | 02:13:04 | 00:00:00 | |
| HSKMA3-T | 2026-09-02 18:45:26 | 49.13483 | 8.51455 | 203° | 26km/h | 33378m | 3.8m/s | -35.5°C | 0% | 7.8hPa | 2.6V | 03:07:13 | 02:13:07 | 00:00:00 | |
| DL8DAS-14 | 2026-09-02 18:45:25 | 49.13488 | 8.51457 | 186° | 16km/h | 33375m | 3.4m/s | -35.5°C | 0.2% | 7.8hPa | 2.6V | 00:00:00 | 00:00:00 | 00:00:00 | |
| DB0UT-9 | 2026-09-02 18:45:24 | 49.13491 | 8.51456 | 144° | 9km/h | 33371m | 4.3m/s | -35.5°C | 0.2% | 7.8hPa | 2.6V | 03:02:00 | 00:00:00 | 00:00:00 | |
| KANTATE | 2026-09-02 18:45:23 | 49.13491 | 8.51456 | 144° | 9km/h | 33371m | 4.3m/s | -35.5°C | 0.2% | 7.8hPa | 2.6V | 03:02:00 | 00:00:00 | 00:00:00 | |
| BIOWL1-15 | 2026-09-02 18:45:23 | 49.13492 | 8.51454 | 58° | 11km/h | 33365m | 6.4m/s | -35.5°C | 0% | 7.8hPa | 2.5V | 03:02:58 | 02:13:04 | 00:00:00 | |
| DL1ZP-14 | 2026-09-02 18:45:21 | 49.13471 | 8.51442 | 2° | 44km/h | 33347m | 4.0m/s | -35.5°C | 0.2% | 7.8hPa | 2.6V | 00:00:00 | 00:00:00 | 00:00:00 | |
| IW2NTF | 2026-09-02 18:45:18 | 49.13449 | 8.51515 | 214° | 44km/h | 33311m | 5m/s | -35.3°C | 1.6% | 7.8hPa | 2.5V | 03:02:40 | 02:12:54 | 00:00:00 | |
| DK7TD | 2026-09-02 18:45:18 | 49.13449 | 8.51450 | 330° | 44km/h | 33340m | 3.2m/s | -35.5°C | 0% | 7.8hPa | 2.5V | 03:02:58 | 02:12:59 | 00:00:00 | |
| DF7PN | 2026-09-02 18:45:18 | 49.13441 | 8.51460 | 308° | 40km/h | 33336m | 5.2m/s | -35.4°C | 0.2% | 7.8hPa | 2.5V | 00:00:00 | 00:00:00 | 00:00:00 | |
| DO3MHA-11 | 2026-09-02 18:45:17 | 49.13441 | 8.51460 | 309° | 35km/h | 33336m | 5.1m/s | -35.4°C | 1.6% | 7.8hPa | 2.5V | 00:00:00 | 02:12:58 | 00:00:00 | |
| OE5DRO-10 | 2026-09-02 18:45:16 | 49.13437 | 8.51474 | 283° | 37km/h | 33330m | 6.6m/s | -35.4°C | 1.6% | 7.8hPa | 2.5V | 00:00:00 | 00:00:00 | 00:00:00 | |
| EDDB2-12 | 2026-09-02 18:45:15 | 49.13441 | 8.51504 | 233° | 44km/h | 33317m | 6.3m/s | -35.4°C | 0.2% | 7.8hPa | 2.5V | 00:00:00 | 00:00:00 | 00:00:00 | |
| DM0DOS-11 | 2026-09-02 18:45:13 | 49.13470 | 8.51508 | 44° | 26km/h | 33285m | 5.9m/s | -35.4°C | 1.6% | 7.9hPa | 2.5V | 03:02:45 | 02:12:49 | 00:00:00 | |
| HSKMA3-T | 2026-09-02 18:45:13 | 49.13449 | 8.51515 | 215° | 44km/h | 33311m | 5m/s | -35.3°C | 0% | 7.8hPa | 2.5V | 03:07:13 | 02:12:54 | 00:00:00 | |
| DL1XH-west | 2026-09-02 18:45:12 | 49.13458 | 8.51522 | 197° | 38km/h | 33306m | 4.4m/s | -35.4°C | 0% | 7.8hPa | 2.5V | 03:02:58 | 02:12:53 | 00:00:00 | |
| BIOWL1-15 | 2026-09-02 18:45:04 | 49.13433 | 8.51525 | 286° | 38km/h | 33262m | 5.4m/s | -35.4°C | 0% | 7.9hPa | 2.5V | 03:02:58 | 02:12:44 | 00:00:00 | |
| DM0DOS-11 | 2026-09-02 18:45:03 | 49.13465 | 8.51576 | 176° | 40km/h | 33234m | 4.3m/s | -35.4°C | 1.6% | 7.9hPa | 2.5V | 03:02:55 | 02:12:39 | 00:00:00 | |
| EDDB2-11 | 2026-09-02 18:45:03 | 49.13433 | 8.51539 | 260° | 40km/h | 33256m | 6.1m/s | -35.4°C | 0.2% | 7.9hPa | 2.5V | 00:00:00 | 00:00:00 | 00:00:00 | |
| DL1XH1-15 | 2026-09-02 18:45:02 | 49.13474 | 8.51572 | 152° | 33km/h | 33229m | 4.5m/s | -35.3°C | 1.6% | 7.9hPa | 2.5V | 03:02:56 | 02:12:38 | 00:00:00 | |
| DL1XH-west | 2026-09-02 18:45:02 | 49.13433 | 8.51539 | 260° | 40km/h | 33256m | 6.1m/s | -35.4°C | 0% | 7.9hPa | 2.5V | 03:02:58 | 02:12:43 | 00:00:00 | |
| HSKMA3-T | 2026-09-02 18:45:00 | 49.13445 | 8.51566 | 216° | 46km/h | 33243m | 5.8m/s | -35.4°C | 0% | 7.9hPa | 2.6V | 03:07:13 | 02:12:41 | 00:00:00 | |
| BIOWL1-15 | 2026-09-02 18:44:54 | 49.13464 | 8.51546 | 343° | 33km/h | 33202m | 5m/s | -35.3°C | 0% | 7.9hPa | 2.5V | 03:03:49 | 02:12:33 | 00:00:00 | |
| DL8DAS-14 | 2026-09-02 18:44:54 | 49.13478 | 8.51549 | 42° | 24km/h | 33213m | 6.1m/s | -35.3°C | 0.2% | 7.9hPa | 2.6V | 00:00:00 | 00:00:00 | 00:00:00 | |
| DM0DOS-11 | 2026-09-02 18:44:53 | 49.13455 | 8.51589 | 236° | 38km/h | 33182m | 5.7m/s | -35.2°C | 1.6% | 8hPa | 2.6V | 03:03:05 | 02:12:29 | 00:00:00 | |
| DL1XH1-15 | 2026-09-02 18:44:52 | 49.13462 | 8.51600 | 212° | 44km/h | 33177m | 6m/s | -35.2°C | 1.6% | 8hPa | 2.6V | 03:03:06 | 02:12:28 | 00:00:00 | |
| DL1XH-west | 2026-09-02 18:44:51 | 49.13457 | 8.51552 | 317° | 35km/h | 33197m | 4.3m/s | -35.3°C | 0% | 8hPa | 2.5V | 03:03:49 | 02:12:32 | 00:00:00 | |
| HSKMA3-T | 2026-09-02 18:44:48 | 49.13455 | 8.51589 | 236° | 38km/h | 33182m | 5.7m/s | -35.2°C | 0% | 8hPa | 2.6V | 03:07:13 | 02:12:29 | 00:00:00 | |
| DF7PN | 2026-09-02 18:44:47 | 49.13473 | 8.51606 | 191° | 44km/h | 33171m | 5.9m/s | -35.2°C | 0.2% | 8.0hPa | 2.5V | 00:00:00 | 00:00:00 | 00:00:00 | |
| IW2NTF | 2026-09-02 18:44:46 | 49.13505 | 8.51571 | 65° | 26km/h | 33145m | 5.2m/s | -35.1°C | 1.6% | 8hPa | 2.5V | 03:03:12 | 02:12:22 | 00:00:00 | |
| DJ2DS-15 | 2026-09-02 18:44:46 | 49.13473 | 8.51606 | 192° | 35km/h | 33171m | 5.9m/s | -35.1°C | 1.6% | 7.9hPa | 2.5V | 03:03:00 | 02:12:27 | 00:00:00 | |
| DL3AQ-11 | 2026-09-02 18:44:45 | 49.13494 | 8.51601 | 152° | 42km/h | 33160m | 4.9m/s | -35.1°C | 0.2% | 8.0hPa | 2.6V | 00:00:00 | 00:00:00 | 00:00:00 | |
| EDDB2-12 | 2026-09-02 18:44:44 | 49.13502 | 8.51592 | 129° | 35km/h | 33155m | 4.5m/s | -35.1°C | 0.2% | 8.0hPa | 2.6V | 00:00:00 | 00:00:00 | 00:00:00 | |
| DB0UT-9 | 2026-09-02 18:44:43 | 49.13502 | 8.51592 | 130° | 37km/h | 33155m | 4.5m/s | -35.1°C | 0.2% | 8.0hPa | 2.6V | 03:03:00 | 00:00:00 | 00:00:00 | |
| DL1XH1-15 | 2026-09-02 18:44:42 | 49.13480 | 8.51577 | 305° | 38km/h | 33122m | 5m/s | -35°C | 1.6% | 8.1hPa | 2.6V | 03:03:16 | 02:12:18 | 00:00:00 | |
| DL1XH-15 | 2026-09-02 18:44:41 | 49.13476 | 8.51590 | 284° | 37km/h | 33117m | 4.6m/s | -35°C | 1.6% | 8hPa | 2.5V | 03:03:17 | 02:12:17 | 00:00:00 | |
| DL1XH-west | 2026-09-02 18:44:41 | 49.13505 | 8.51571 | 66° | 26km/h | 33145m | 5.3m/s | -35.1°C | 0% | 8hPa | 2.5V | 03:03:49 | 02:12:22 | 00:00:00 | |
| HSKMA3-T | 2026-09-02 18:44:37 | 49.13480 | 8.51577 | 306° | 38km/h | 33122m | 5m/s | -35°C | 0% | 8.1hPa | 2.6V | 03:07:13 | 02:12:18 | 00:00:00 | |
| DB0NH | 2026-09-02 18:44:37 | 49.13480 | 8.51577 | 306° | 27km/h | 33122m | 5.0m/s | -35.0°C | 1.6% | 8.0hPa | 2.6V | 00:00:00 | 02:12:18 | 00:00:00 | |
| IW2NTF | 2026-09-02 18:44:36 | 49.13501 | 8.51621 | 154° | 37km/h | 33088m | 6.3m/s | -34.9°C | 1.6% | 8.1hPa | 2.5V | 03:03:22 | 02:12:12 | 00:00:00 | |
| DK7TD | 2026-09-02 18:44:34 | 49.13478 | 8.51614 | 234° | 31km/h | 33107m | 5.5m/s | -35°C | 0% | 8.1hPa | 2.6V | 03:04:40 | 02:12:15 | 00:00:00 | |
| DK5PH-5 | 2026-09-02 18:44:34 | 49.13478 | 8.51614 | 235° | 26km/h | 33107m | 5.5m/s | -34.9°C | 1.6% | 8.0hPa | 2.5V | 00:00:00 | 02:12:15 | 00:00:00 | |
| DM7RM-13 | 2026-09-02 18:44:33 | 49.13478 | 8.51614 | 235° | 31km/h | 33107m | 5.5m/s | -35.0°C | 0.2% | 8.1hPa | 2.5V | 03:03:00 | 00:00:00 | 00:00:00 | |
| DL1XH1-15 | 2026-09-02 18:44:32 | 49.13514 | 8.51581 | 61° | 22km/h | 33069m | 4.7m/s | -34.9°C | 1.6% | 8.1hPa | 2.5V | 03:03:26 | 02:12:08 | 00:00:00 | |
| EDDB2-11 | 2026-09-02 18:44:32 | 49.13500 | 8.51621 | 154° | 35km/h | 33088m | 6.3m/s | -34.9°C | 0.2% | 8.1hPa | 2.5V | 00:00:00 | 00:00:00 | 00:00:00 | |
| DL1XH-15 | 2026-09-02 18:44:31 | 49.13510 | 8.51577 | 18° | 20km/h | 33064m | 6.2m/s | -34.9°C | 1.6% | 8.1hPa | 2.5V | 03:03:27 | 02:12:07 | 00:00:00 | |
| DL1XH-west | 2026-09-02 18:44:30 | 49.13508 | 8.51612 | 135° | 38km/h | 33082m | 5.2m/s | -34.9°C | 0% | 8.1hPa | 2.5V | 03:03:49 | 02:12:11 | 00:00:00 | |
| SONCRA | 2026-09-02 18:44:29 | 49.13513 | 8.51601 | 114° | 33km/h | 33078m | 4.0m/s | -34.9°C | 0.2% | 8.1hPa | 2.6V | 00:00:00 | 00:00:00 | 00:00:00 | |
| DJ2KF-10 | 2026-09-02 18:44:28 | 49.13515 | 8.51590 | 93° | 22km/h | 33074m | 3.8m/s | -34.9°C | 1.6% | 8.1hPa | 2.6V | 03:03:00 | 02:12:09 | 00:00:00 | |
| DO3MHA-11 | 2026-09-02 18:44:27 | 49.13514 | 8.51581 | 62° | 26km/h | 33070m | 4.7m/s | -34.9°C | 1.6% | 8.1hPa | 2.5V | 00:00:00 | 02:12:08 | 00:00:00 | |
| IW2NTF | 2026-09-02 18:44:26 | 49.13485 | 8.51618 | 279° | 29km/h | 33036m | 3.5m/s | -34.9°C | 1.6% | 8.2hPa | 2.5V | 03:03:32 | 02:12:02 | 00:00:00 | |
| HSKMA3-T | 2026-09-02 18:44:25 | 49.13505 | 8.51577 | 342° | 26km/h | 33057m | 7.1m/s | -34.9°C | 0% | 8.1hPa | 2.5V | 03:07:13 | 02:12:06 | 00:00:00 | |
| DF1GD-15 | 2026-09-02 18:44:24 | 49.13505 | 8.51577 | 343° | 26km/h | 33057m | 7.1m/s | -34.9°C | 0.2% | 8.1hPa | 2.5V | 03:03:00 | 00:00:00 | 00:00:00 | |
| DM0DOS-11 | 2026-09-02 18:44:23 | 49.13490 | 8.51632 | 152° | 15km/h | 33021m | 6.5m/s | -34.9°C | 1.6% | 8.2hPa | 2.5V | 03:03:35 | 02:11:59 | 00:00:00 | |
| DK7TD | 2026-09-02 18:44:23 | 49.13492 | 8.51593 | 305° | 38km/h | 33044m | 5.2m/s | -34.9°C | 0% | 8.1hPa | 2.6V | 03:04:40 | 02:12:04 | 00:00:00 | |
| DL8DAS-14 | 2026-09-02 18:44:23 | 49.13492 | 8.51593 | 304° | 38km/h | 33044m | 5.2m/s | -34.9°C | 0.2% | 8.1hPa | 2.6V | 00:00:00 | 00:00:00 | 00:00:00 | |
| DO8TBO-1 | 2026-09-02 18:44:22 | 49.13488 | 8.51606 | 293° | 22km/h | 33040m | 3.8m/s | -34.8°C | 1.6% | 8.1hPa | 2.6V | 03:03:00 | 02:12:03 | 00:00:00 | |
| DL1XH-15 | 2026-09-02 18:44:21 | 49.13496 | 8.51618 | 112° | 31km/h | 33008m | 5.6m/s | -34.9°C | 1.6% | 8.2hPa | 2.6V | 03:03:37 | 02:11:57 | 00:00:00 | |
| DL1XH-west | 2026-09-02 18:44:20 | 49.13485 | 8.51627 | 259° | 20km/h | 33032m | 4.1m/s | -34.9°C | 0% | 8.2hPa | 2.5V | 03:03:49 | 02:12:01 | 00:00:00 | |
| BIOWL1-15 | 2026-09-02 18:44:19 | 49.13487 | 8.51632 | 216° | 11km/h | 33027m | 5.4m/s | -34.9°C | 0% | 8.2hPa | 2.5V | 03:03:49 | 02:12:00 | 00:00:00 | |
| DL1ZP-14 | 2026-09-02 18:44:19 | 49.13490 | 8.51632 | 152° | 15km/h | 33021m | 6.5m/s | -34.9°C | 0.2% | 8.2hPa | 2.5V | 00:00:00 | 00:00:00 | 00:00:00 | |
| DL4BBY-15 | 2026-09-02 18:44:18 | 49.13490 | 8.51632 | 153° | 18km/h | 33022m | 6.5m/s | -33.7°C | 0% | 0hPa | 2.6V | 00:00:00 | 00:00:00 | 00:00:00 | |
| DO3MHA-11 | 2026-09-02 18:44:17 | 49.13493 | 8.51627 | 126° | 24km/h | 33015m | 6.7m/s | -34.8°C | 1.6% | 8.1hPa | 2.6V | 00:00:00 | 02:11:58 | 00:00:00 | |
| IW2NTF | 2026-09-02 18:44:16 | 49.13493 | 8.51588 | 318° | 18km/h | 32984m | 6.8m/s | -34.8°C | 1.5% | 8.2hPa | 2.6V | 03:03:42 | 02:11:52 | 00:00:00 | |
| DK7TD | 2026-09-02 18:44:13 | 49.13498 | 8.51589 | 65° | 15km/h | 32995m | 4.6m/s | -34.9°C | 0% | 8.2hPa | 2.5V | 03:04:40 | 02:11:54 | 00:00:00 | |
| PG1ADW-2 | 2026-09-02 18:44:13 | 49.13498 | 8.51589 | 65° | 15km/h | 32996m | 4.5m/s | 0°C | 0% | 0hPa | 2.5V | 00:00:00 | 00:00:00 | 00:00:00 | |
| DL1XH1-15 | 2026-09-02 18:44:12 | 49.13481 | 8.51628 | 284° | 27km/h | 32960m | 4.5m/s | -34.9°C | 1.6% | 8.2hPa | 2.5V | 03:03:46 | 02:11:48 | 00:00:00 | |
| DL1XH-west | 2026-09-02 18:44:09 | 49.13486 | 8.51606 | 293° | 33km/h | 32971m | 5.7m/s | -34.8°C | 0% | 8.2hPa | 2.5V | 03:03:49 | 02:11:50 | 00:00:00 | |
| BIOWL1-15 | 2026-09-02 18:44:08 | 49.13483 | 8.51617 | 288° | 33km/h | 32965m | 4.8m/s | -34.9°C | 0% | 8.2hPa | 2.5V | 03:03:49 | 02:11:49 | 00:00:00 | |
| IW2NTF | 2026-09-02 18:44:07 | 49.13482 | 8.51624 | 102° | 18km/h | 32928m | 4.5m/s | -35.1°C | 1.6% | 8.3hPa | 2.6V | 03:03:52 | 02:11:42 | 00:00:00 | |
| HSKMA3-T | 2026-09-02 18:44:05 | 49.13479 | 8.51641 | 282° | 7km/h | 32950m | 5.7m/s | -35°C | 0% | 8.2hPa | 2.6V | 03:07:13 | 02:11:46 | 00:00:00 | |
| DF1GD-15 | 2026-09-02 18:44:04 | 49.13479 | 8.51641 | 283° | 7km/h | 32951m | 5.7m/s | -35.0°C | 0.2% | 8.2hPa | 2.5V | 03:03:00 | 00:00:00 | 00:00:00 | |
| DM0DOS-11 | 2026-09-02 18:44:03 | 49.13484 | 8.51615 | 266° | 5km/h | 32912m | 6.1m/s | -35.1°C | 1.6% | 8.3hPa | 2.5V | 03:03:55 | 02:11:39 | 00:00:00 | |
| DK7TD | 2026-09-02 18:44:02 | 49.13481 | 8.51632 | 102° | 20km/h | 32933m | 5.2m/s | -35.1°C | 0% | 8.3hPa | 2.6V | 03:04:40 | 02:11:43 | 00:00:00 | |
| DL1XH1-15 | 2026-09-02 18:44:02 | 49.13483 | 8.51619 | 279° | 16km/h | 32906m | 6.1m/s | -35.1°C | 1.6% | 8.3hPa | 2.6V | 03:03:56 | 02:11:38 | 00:00:00 | |
| DL1XH-west | 2026-09-02 18:43:58 | 49.13484 | 8.51615 | 266° | 5km/h | 32912m | 6.1m/s | -35.1°C | 0% | 8.3hPa | 2.5V | 03:04:40 | 02:11:39 | 00:00:00 | |
| BIOWL1-15 | 2026-09-02 18:43:57 | 49.13484 | 8.51619 | 280° | 16km/h | 32906m | 6.1m/s | -35.1°C | 0% | 8.3hPa | 2.6V | 03:04:40 | 02:11:38 | 00:00:00 | |
| DO3MHA-11 | 2026-09-02 18:43:57 | 49.13484 | 8.51619 | 280° | 18km/h | 32907m | 6.0m/s | -35.1°C | 1.6% | 8.3hPa | 2.6V | 00:00:00 | 02:11:38 | 00:00:00 | |
| IW2NTF | 2026-09-02 18:43:56 | 49.13467 | 8.51659 | 5° | 9km/h | 32874m | 5.4m/s | -35.3°C | 1.6% | 8.3hPa | 2.6V | 03:04:02 | 02:11:32 | 00:00:00 | |
| HSKMA3-T | 2026-09-02 18:43:53 | 49.13473 | 8.51652 | 313° | 22km/h | 32884m | 4.9m/s | -35.3°C | 0% | 8.3hPa | 2.5V | 03:07:13 | 02:11:34 | 00:00:00 | |
| DL1XH1-15 | 2026-09-02 18:43:52 | 49.13470 | 8.51641 | 140° | 20km/h | 32852m | 5.1m/s | -35.6°C | 1.6% | 8.4hPa | 2.5V | 03:04:06 | 02:11:28 | 00:00:00 | |
| DL8DAS-14 | 2026-09-02 18:43:52 | 49.13469 | 8.51657 | 329° | 15km/h | 32880m | 5.1m/s | -35.3°C | 0.2% | 8.3hPa | 2.5V | 00:00:00 | 00:00:00 | 00:00:00 | |
| DL1XH-15 | 2026-09-02 18:43:51 | 49.13475 | 8.51638 | 159° | 20km/h | 32847m | 5.4m/s | -35.5°C | 1.6% | 8.4hPa | 2.5V | 03:04:07 | 02:11:27 | 00:00:00 | |
| DK7TD | 2026-09-02 18:43:51 | 49.13467 | 8.51659 | 5° | 9km/h | 32874m | 5.4m/s | -35.3°C | 0% | 8.3hPa | 2.6V | 03:04:40 | 02:11:32 | 00:00:00 | |
| DL1XH-west | 2026-09-02 18:43:47 | 49.13470 | 8.51641 | 141° | 20km/h | 32852m | 5.1m/s | -35.6°C | 0% | 8.4hPa | 2.5V | 03:04:40 | 02:11:28 | 00:00:00 | |
| DJ2DS-15 | 2026-09-02 18:43:46 | 49.13475 | 8.51638 | 160° | 16km/h | 32847m | 5.4m/s | -35.5°C | 1.6% | 8.3hPa | 2.5V | 00:00:00 | 02:11:27 | 00:00:00 | |
| SSTOLZ84 | 2026-09-02 18:43:45 | 49.13489 | 8.51641 | 214° | 20km/h | 32831m | 5.4m/s | -35.5°C | -1.0% | -1.0hPa | 2.6V | 00:00:00 | 00:00:00 | 00:00:00 | |
| IW2NTF | 2026-09-02 18:43:44 | 49.13501 | 8.51658 | 209° | 9km/h | 32808m | 5.6m/s | -35.5°C | 1.6% | 8.4hPa | 2.6V | 03:04:14 | 02:11:20 | 00:00:00 | |
| DO8TBO-1 | 2026-09-02 18:43:44 | 49.13484 | 8.51638 | 201° | 15km/h | 32836m | 5.5m/s | -35.5°C | 1.6% | 8.3hPa | 2.5V | 00:00:00 | 02:11:25 | 00:00:00 | |
| AU51GT2 | 2026-09-02 18:43:43 | 49.13489 | 8.51641 | 214° | 20km/h | 32831m | 5.4m/s | -35.5°C | 0.2% | -1.0hPa | 2.5V | 00:00:00 | 00:00:00 | 00:00:00 | |
| DL1XH1-15 | 2026-09-02 18:43:42 | 49.13504 | 8.51659 | 168° | 9km/h | 32798m | 4.8m/s | -35.4°C | 1.6% | 8.4hPa | 2.5V | 03:04:16 | 02:11:18 | 00:00:00 | |
| EDDB2-12 | 2026-09-02 18:43:42 | 49.13496 | 8.51651 | 227° | 16km/h | 32820m | 5.5m/s | -35.5°C | -1.0% | -1.0hPa | 2.5V | 00:00:00 | 00:00:00 | 00:00:00 | |
| DL1XH-15 | 2026-09-02 18:43:41 | 49.13507 | 8.51658 | 168° | 11km/h | 32793m | 5m/s | -35.4°C | 1.6% | 8.4hPa | 2.5V | 03:04:17 | 02:11:17 | 00:00:00 | |
| HSKMA3-T | 2026-09-02 18:43:41 | 49.13496 | 8.51651 | 227° | 16km/h | 32820m | 5.5m/s | -35.5°C | 0% | 8.4hPa | 2.5V | 03:07:13 | 02:11:22 | 00:00:00 | |
| DK7TD | 2026-09-02 18:43:40 | 49.13498 | 8.51655 | 225° | 13km/h | 32814m | 5.8m/s | -35.5°C | 0% | 8.4hPa | 2.5V | 03:04:40 | 02:11:21 | 00:00:00 | |
| BIOWL1-15 | 2026-09-02 18:43:37 | 49.13504 | 8.51659 | 169° | 9km/h | 32798m | 4.8m/s | -35.4°C | 0% | 8.4hPa | 2.5V | 03:04:40 | 02:11:18 | 00:00:00 | |
| DO3MHA-11 | 2026-09-02 18:43:37 | 49.13504 | 8.51658 | 169° | 18km/h | 32799m | 4.8m/s | -35.4°C | 1.6% | 8.4hPa | 2.6V | 00:00:00 | 02:11:18 | 00:00:00 | |
| DL6DJ-15 | 2026-09-02 18:43:36 | 49.13507 | 8.51658 | 168° | 9km/h | 32793m | 5.0m/s | -35.4°C | 0.2% | 8.4hPa | 2.6V | 00:00:00 | 00:00:00 | 00:00:00 | |
| DF3TZ-5 | 2026-09-02 18:43:35 | 49.13510 | 8.51657 | 176° | 13km/h | 32788m | 5.8m/s | -35.4°C | 0.2% | 8.5hPa | 2.6V | 00:00:00 | 00:00:00 | 00:00:00 | |
| BIOWL7-15 | 2026-09-02 18:43:34 | 49.13510 | 8.51657 | 178° | 13km/h | 32788m | 5.8m/s | -35.4°C | 0.2% | 8.5hPa | 2.6V | 00:00:00 | 00:00:00 | 00:00:00 | |
| SONDE2-11 | 2026-09-02 18:43:33 | 49.13518 | 8.51658 | 186° | 20km/h | 32777m | 5.2m/s | -35.4°C | 0.2% | 8.5hPa | 2.6V | 00:00:00 | 00:00:00 | 00:00:00 | |
| DL1XH1-15 | 2026-09-02 18:43:32 | 49.13551 | 8.51652 | 158° | 15km/h | 32745m | 4.6m/s | -35.3°C | 1.6% | 8.5hPa | 2.6V | 03:04:26 | 02:11:08 | 00:00:00 | |
| DD1CC8 | 2026-09-02 18:43:32 | 49.13524 | 8.51659 | 184° | 22km/h | 32772m | 4.7m/s | -35.4°C | 0.2% | 8.5hPa | 2.5V | 00:00:00 | 00:00:00 | 00:00:00 | |
| DL1XH-15 | 2026-09-02 18:43:31 | 49.13554 | 8.51650 | 170° | 9km/h | 32740m | 4.8m/s | -35.3°C | 1.6% | 8.5hPa | 2.5V | 03:04:27 | 02:11:07 | 00:00:00 | |
| BIOWL1-15 | 2026-09-02 18:43:31 | 49.13551 | 8.51652 | 158° | 15km/h | 32745m | 4.6m/s | -35.3°C | 0% | 8.5hPa | 2.6V | 03:04:40 | 02:11:08 | 00:00:00 | |
| HSKMA3-T | 2026-09-02 18:43:29 | 49.13542 | 8.51657 | 165° | 24km/h | 32756m | 5.8m/s | -35.3°C | 0% | 8.5hPa | 2.6V | 03:07:13 | 02:11:10 | 00:00:00 | |
| DJ2KF-10 | 2026-09-02 18:43:28 | 49.13547 | 8.51654 | 159° | 24km/h | 32750m | 5.2m/s | -35.3°C | 1.6% | 8.4hPa | 2.5V | 00:00:00 | 02:11:09 | 00:00:00 | |
| DO3MHA-11 | 2026-09-02 18:43:27 | 49.13551 | 8.51651 | 159° | 13km/h | 32746m | 4.6m/s | -35.3°C | 1.6% | 8.5hPa | 2.5V | 03:04:00 | 02:11:08 | 00:00:00 | |
| DL1XH-west | 2026-09-02 18:43:26 | 49.13554 | 8.51650 | 170° | 9km/h | 32740m | 4.8m/s | -35.3°C | 0% | 8.5hPa | 2.5V | 03:04:40 | 02:11:07 | 00:00:00 | |
| DJ2DS-15 | 2026-09-02 18:43:26 | 49.13553 | 8.51650 | 171° | 20km/h | 32741m | 4.8m/s | -35.3°C | 1.6% | 8.5hPa | 2.5V | 03:04:00 | 02:11:07 | 00:00:00 | |
| NBG1-10 | 2026-09-02 18:43:25 | 49.13555 | 8.51651 | 227° | 24km/h | 32736m | 5.6m/s | -35.2°C | 1.6% | 8.4hPa | 2.5V | 00:00:00 | 02:11:06 | 00:00:00 | |
| IW2NTF | 2026-09-02 18:43:24 | 49.13558 | 8.51676 | 170° | 13km/h | 32705m | 5.3m/s | -35.4°C | 1.6% | 8.6hPa | 2.5V | 03:04:34 | 02:11:00 | 00:00:00 | |
| DK7TD | 2026-09-02 18:43:19 | 49.13558 | 8.51676 | 171° | 13km/h | 32705m | 5.3m/s | -35.4°C | 0% | 8.6hPa | 2.5V | 03:04:40 | 02:11:00 | 00:00:00 | |
| BIOWL1-15 | 2026-09-02 18:43:16 | 49.13573 | 8.51659 | 137° | 37km/h | 32686m | 5.2m/s | -35.5°C | 0% | 8.6hPa | 2.5V | 03:04:40 | 02:10:57 | 00:00:00 | |
| DL1XH-west | 2026-09-02 18:43:15 | 49.13579 | 8.51650 | 139° | 35km/h | 32681m | 3.6m/s | -35.6°C | 0% | 8.6hPa | 2.6V | 03:04:40 | 02:10:56 | 00:00:00 | |
| HSKMA3-T | 2026-09-02 18:43:14 | 49.13585 | 8.51642 | 147° | 29km/h | 32678m | 3.1m/s | -35.6°C | 0% | 8.6hPa | 2.6V | 03:07:13 | 02:10:55 | 00:00:00 | |
| BIOWL7-15 | 2026-09-02 18:43:13 | 49.13586 | 8.51642 | 148° | 29km/h | 32679m | 3.1m/s | -35.6°C | 0.2% | 8.6hPa | 2.5V | 00:00:00 | 00:00:00 | 00:00:00 | |
| DL1XH1-15 | 2026-09-02 18:43:12 | 49.13597 | 8.51677 | 281° | 13km/h | 32643m | 3.3m/s | -35.8°C | 1.6% | 8.6hPa | 2.5V | 03:04:46 | 02:10:48 | 00:00:00 | |
| BIOWL1-15 | 2026-09-02 18:43:08 | 49.13597 | 8.51679 | 203° | 2km/h | 32640m | 4.8m/s | -35.8°C | 0% | 8.6hPa | 2.5V | 03:05:31 | 02:10:47 | 00:00:00 | |
| DK7TD | 2026-09-02 18:43:07 | 49.13597 | 8.51677 | 282° | 13km/h | 32643m | 3.3m/s | -35.8°C | 0% | 8.6hPa | 2.5V | 03:05:31 | 02:10:48 | 00:00:00 | |
| DO3MHA-11 | 2026-09-02 18:43:07 | 49.13597 | 8.51677 | 282° | 35km/h | 32644m | 3.3m/s | -35.8°C | 1.6% | 8.6hPa | 2.5V | 00:00:00 | 02:10:48 | 00:00:00 | |
| DL1XH-15 | 2026-09-02 18:43:06 | 49.13628 | 8.51640 | 155° | 51km/h | 32612m | 4.3m/s | -35.9°C | 1.7% | 8.6hPa | 2.5V | 03:04:52 | 02:10:42 | 00:00:00 | |
| DL1XH-west | 2026-09-02 18:43:05 | 49.13599 | 8.51677 | 131° | 15km/h | 32634m | 6m/s | -35.9°C | 0% | 8.6hPa | 2.5V | 03:05:31 | 02:10:46 | 00:00:00 | |
| HARRO8 | 2026-09-02 18:43:04 | 49.13603 | 8.51671 | 130° | 29km/h | 32628m | 6.3m/s | -35.9°C | 0.2% | 8.7hPa | 2.6V | 00:00:00 | 00:00:00 | 00:00:00 | |
| OE5DRO-10 | 2026-09-02 18:43:03 | 49.13609 | 8.51661 | 137° | 35km/h | 32622m | 5.5m/s | 0°C | 0% | 0hPa | 2.6V | 00:00:00 | 00:00:00 | 00:00:00 | |
| DL1XH1-15 | 2026-09-02 18:43:02 | 49.13672 | 8.51643 | 215° | 38km/h | 32593m | 5.2m/s | -36°C | 1.7% | 8.7hPa | 2.6V | 03:04:56 | 02:10:38 | 00:00:00 | |
| HSKMA3-T | 2026-09-02 18:43:02 | 49.13618 | 8.51650 | 144° | 47km/h | 32617m | 4.7m/s | -35.9°C | 0% | 8.7hPa | 2.5V | 03:07:13 | 02:10:43 | 00:00:00 | |
| BIOWL1-15 | 2026-09-02 18:42:58 | 49.13678 | 8.51652 | 231° | 31km/h | 32588m | 4.5m/s | -36°C | 0% | 8.7hPa | 2.5V | 03:05:31 | 02:10:37 | 00:00:00 | |
| DJ2KF-10 | 2026-09-02 18:42:58 | 49.13663 | 8.51636 | 200° | 24km/h | 32598m | 5.3m/s | -35.9°C | 1.7% | 8.6hPa | 2.6V | 00:00:00 | 02:10:39 | 00:00:00 | |
| DO3MHA-11 | 2026-09-02 18:42:57 | 49.13672 | 8.51643 | 216° | 24km/h | 32593m | 5.2m/s | -35.9°C | 1.7% | 8.6hPa | 2.6V | 00:00:00 | 02:10:38 | 00:00:00 | |
| DL1XH-15 | 2026-09-02 18:42:56 | 49.13683 | 8.51658 | 94° | 24km/h | 32562m | 5.4m/s | -36.1°C | 1.7% | 8.7hPa | 2.6V | 03:05:02 | 02:10:32 | 00:00:00 | |
| DK7TD | 2026-09-02 18:42:55 | 49.13682 | 8.51660 | 245° | 22km/h | 32583m | 4.5m/s | -36°C | 0% | 8.7hPa | 2.5V | 03:05:31 | 02:10:36 | 00:00:00 | |
| DL1XH-west | 2026-09-02 18:42:54 | 49.13683 | 8.51666 | 260° | 11km/h | 32579m | 5m/s | -36.1°C | 0% | 8.7hPa | 2.5V | 03:05:31 | 02:10:35 | 00:00:00 | |
| DJ2DS-15 | 2026-09-02 18:42:53 | 49.13683 | 8.51668 | 19° | 2km/h | 32573m | 5.7m/s | -36.1°C | 0.2% | 8.7hPa | 2.6V | 00:00:00 | 00:00:00 | 00:00:00 | |
| NBG1-10 | 2026-09-02 18:42:52 | 49.13683 | 8.51666 | 82° | 24km/h | 32568m | 5.8m/s | -36.0°C | 1.7% | 8.7hPa | 2.6V | 00:00:00 | 02:10:33 | 00:00:00 | |
| IW2NTF | 2026-09-02 18:42:51 | 49.13708 | 8.51617 | 177° | 33km/h | 32538m | 5.7m/s | -36.1°C | 1.6% | 8.7hPa | 2.5V | 03:05:07 | 02:10:27 | 00:00:00 | |
| HSKMA3-T | 2026-09-02 18:42:51 | 49.13683 | 8.51658 | 95° | 24km/h | 32562m | 5.4m/s | -36.1°C | 0% | 8.7hPa | 2.6V | 03:07:13 | 02:10:32 | 00:00:00 | |
| DL8DAS-14 | 2026-09-02 18:42:50 | 49.13684 | 8.51648 | 108° | 31km/h | 32557m | 4.6m/s | -36.1°C | 0.2% | 8.7hPa | 2.5V | 00:00:00 | 00:00:00 | 00:00:00 | |
| HEMX73-6 | 2026-09-02 18:42:48 | 49.13693 | 8.51627 | 139° | 15km/h | 32548m | 4.4m/s | -36.0°C | 1.7% | 8.7hPa | 2.5V | 00:00:00 | 02:10:29 | 00:00:00 | |
| DO3MHA-11 | 2026-09-02 18:42:47 | 49.13701 | 8.51620 | 158° | 24km/h | 32543m | 5.1m/s | -36.1°C | 1.7% | 8.7hPa | 2.5V | 03:05:00 | 02:10:28 | 00:00:00 | |
| DL1XH-15 | 2026-09-02 18:42:46 | 49.13737 | 8.51640 | 212° | 13km/h | 32512m | 4.6m/s | -36.2°C | 1.7% | 8.8hPa | 2.5V | 03:05:12 | 02:10:22 | 00:00:00 | |
| BIOWL1-15 | 2026-09-02 18:42:45 | 49.13716 | 8.51619 | 196° | 31km/h | 32532m | 5.8m/s | -36.2°C | 0% | 8.8hPa | 2.6V | 03:05:31 | 02:10:26 | 00:00:00 | |
| DK7TD | 2026-09-02 18:42:44 | 49.13724 | 8.51623 | 211° | 31km/h | 32526m | 5.4m/s | -36.2°C | 0% | 8.8hPa | 2.6V | 03:05:31 | 02:10:25 | 00:00:00 | |
| DL1XH-west | 2026-09-02 18:42:43 | 49.13729 | 8.51630 | 221° | 27km/h | 32521m | 4.9m/s | -36.2°C | 0% | 8.8hPa | 2.6V | 03:05:31 | 02:10:24 | 00:00:00 | |
| DL1XH1-15 | 2026-09-02 18:42:42 | 49.13745 | 8.51619 | 106° | 31km/h | 32490m | 5m/s | -36.2°C | 1.7% | 8.8hPa | 2.6V | 03:05:16 | 02:10:18 | 00:00:00 | |
| DN1GJH-1 | 2026-09-02 18:42:41 | 49.13734 | 8.51636 | 224° | 20km/h | 32517m | 4.5m/s | -36.2°C | 0.2% | 8.8hPa | 2.6V | 03:05:00 | 00:00:00 | 00:00:00 | |
| DH7VM-15 | 2026-09-02 18:42:40 | 49.13741 | 8.51637 | 117° | 16km/h | 32502m | 5.8m/s | -36.2°C | 0.2% | 8.8hPa | 2.6V | 00:00:00 | 00:00:00 | 00:00:00 | |
| DL0LBS | 2026-09-02 18:42:38 | 49.13741 | 8.51637 | 117° | 16km/h | 32502m | 5.8m/s | -36.2°C | 0.2% | 8.8hPa | 2.6V | 03:05:00 | 00:00:00 | 00:00:00 | |
| DB0NH | 2026-09-02 18:42:37 | 49.13745 | 8.51619 | 107° | 24km/h | 32490m | 4.9m/s | -36.1°C | 1.7% | 8.8hPa | 2.6V | 00:00:00 | 02:10:18 | 00:00:00 | |
| DL1XH-15 | 2026-09-02 18:42:36 | 49.13766 | 8.51580 | 202° | 18km/h | 32459m | 5.9m/s | -36.3°C | 1.7% | 8.8hPa | 2.6V | 03:05:22 | 02:10:12 | 00:00:00 | |
| BIOWL1-15 | 2026-09-02 18:42:34 | 49.13754 | 8.51587 | 126° | 26km/h | 32477m | 5m/s | -36.3°C | 0% | 8.8hPa | 2.5V | 03:05:31 | 02:10:15 | 00:00:00 | |
| DF3TZ-5 | 2026-09-02 18:42:33 | 49.13758 | 8.51581 | 144° | 18km/h | 32472m | 6.1m/s | -36.3°C | 0.2% | 8.8hPa | 2.6V | 00:00:00 | 00:00:00 | 00:00:00 | |
| DL1XH1-15 | 2026-09-02 18:42:32 | 49.13784 | 8.51587 | 157° | 20km/h | 32441m | 5.3m/s | -36.5°C | 1.7% | 8.9hPa | 2.6V | 03:05:26 | 02:10:08 | 00:00:00 | |
| DL1XH-west | 2026-09-02 18:42:32 | 49.13762 | 8.51579 | 176° | 16km/h | 32465m | 6.4m/s | -36.3°C | 0% | 8.8hPa | 2.6V | 03:05:31 | 02:10:13 | 00:00:00 | |
| HSKMA3-T | 2026-09-02 18:42:29 | 49.13775 | 8.51587 | 203° | 20km/h | 32450m | 3.7m/s | -36.4°C | 0% | 8.9hPa | 2.5V | 03:07:13 | 02:10:10 | 00:00:00 | |
| IW2NTF | 2026-09-02 18:42:29 | 49.13799 | 8.51548 | 104° | 35km/h | 32418m | 4m/s | -36.4°C | 1.7% | 8.9hPa | 2.5V | 03:05:30 | 02:10:04 | 00:00:00 | |
| EDDB2-11 | 2026-09-02 18:42:28 | 49.13784 | 8.51587 | 157° | 18km/h | 32441m | 5.3m/s | -36.5°C | 0.2% | 8.9hPa | 2.6V | 00:00:00 | 00:00:00 | 00:00:00 | |
| DO3MHA-11 | 2026-09-02 18:42:27 | 49.13784 | 8.51587 | 158° | 22km/h | 32442m | 5.2m/s | -36.4°C | 1.7% | 8.8hPa | 2.6V | 00:00:00 | 02:10:08 | 00:00:00 | |
| DL1XH-15 | 2026-09-02 18:42:26 | 49.13802 | 8.51527 | 93° | 20km/h | 32410m | 5m/s | -36.4°C | 1.7% | 8.9hPa | 2.6V | 03:05:32 | 02:10:02 | 00:00:00 | |
| BIOWL1-15 | 2026-09-02 18:42:26 | 49.13796 | 8.51562 | 111° | 37km/h | 32423m | 5.5m/s | -36.4°C | 0% | 8.9hPa | 2.5V | 03:05:31 | 02:10:05 | 00:00:00 | |
| DK7TD | 2026-09-02 18:42:23 | 49.13799 | 8.51548 | 104° | 35km/h | 32418m | 4m/s | -36.4°C | 0% | 8.9hPa | 2.5V | 03:05:31 | 02:10:04 | 00:00:00 | |
| DL1XH-west | 2026-09-02 18:42:21 | 49.13801 | 8.51527 | 93° | 20km/h | 32410m | 5m/s | -36.4°C | 0% | 8.9hPa | 2.6V | 03:06:22 | 02:10:02 | 00:00:00 | |
| DN1GJH-1 | 2026-09-02 18:42:20 | 49.13801 | 8.51527 | 94° | 20km/h | 32411m | 5.0m/s | -36.4°C | 0.2% | 8.9hPa | 2.6V | 03:06:00 | 00:00:00 | 00:00:00 | |
| NBG1-10 | 2026-09-02 18:42:19 | 49.13801 | 8.51519 | 294° | 11km/h | 32398m | 6.3m/s | -36.4°C | 1.7% | 8.9hPa | 2.6V | 03:05:00 | 02:10:00 | 00:00:00 | |
| IW2NTF | 2026-09-02 18:42:18 | 49.13820 | 8.51529 | 142° | 29km/h | 32367m | 5.7m/s | -36.7°C | 1.7% | 9hPa | 2.6V | 03:05:40 | 02:09:54 | 00:00:00 | |
| DL4BBY-15 | 2026-09-02 18:42:18 | 49.13801 | 8.51522 | 261° | 20km/h | 32393m | 5.3m/s | -35.3°C | 0% | 0hPa | 2.5V | 00:00:00 | 00:00:00 | 00:00:00 | |
| DO3MHA-11 | 2026-09-02 18:42:17 | 49.13803 | 8.51527 | 243° | 26km/h | 32388m | 4.3m/s | -36.4°C | 1.7% | 8.9hPa | 2.5V | 00:00:00 | 02:09:58 | 00:00:00 | |
| BIOWL7-15 | 2026-09-02 18:42:16 | 49.13802 | 8.51527 | 244° | 16km/h | 32388m | 4.4m/s | -36.5°C | 0.2% | 9.0hPa | 2.5V | 03:06:00 | 00:00:00 | 00:00:00 | |
| DB0UT-7 | 2026-09-02 18:42:15 | 49.13809 | 8.51534 | 192° | 20km/h | 32379m | 5.1m/s | -36.5°C | 1.7% | 8.9hPa | 2.5V | 00:00:00 | 00:00:00 | 00:00:00 | |
| DL1XH-15 | 2026-09-02 18:42:14 | 49.13836 | 8.51483 | 98° | 31km/h | 32346m | 5.2m/s | -36.7°C | 1.7% | 9hPa | 2.5V | 03:05:44 | 02:09:50 | 00:00:00 | |
| BIOWL1-15 | 2026-09-02 18:42:13 | 49.13820 | 8.51529 | 143° | 29km/h | 32367m | 5.7m/s | -36.7°C | 0% | 9hPa | 2.6V | 03:06:22 | 02:09:54 | 00:00:00 | |
| DL1XH-west | 2026-09-02 18:42:10 | 49.13834 | 8.51496 | 108° | 37km/h | 32351m | 5.2m/s | -36.7°C | 0% | 9hPa | 2.5V | 03:06:22 | 02:09:51 | 00:00:00 | |
| IW2NTF | 2026-09-02 18:42:08 | 49.13834 | 8.51454 | 152° | 7km/h | 32314m | 6m/s | -36.6°C | 1.7% | 9.1hPa | 2.5V | 03:05:50 | 02:09:44 | 00:00:00 | |
| DO3MHA-11 | 2026-09-02 18:42:07 | 49.13836 | 8.51465 | 75° | 13km/h | 32336m | 5.0m/s | -36.6°C | 1.7% | 9.0hPa | 2.6V | 03:05:00 | 02:09:48 | 00:00:00 | |
| DJ2DS-15 | 2026-09-02 18:42:06 | 49.13834 | 8.51460 | 63° | 16km/h | 32331m | 5.0m/s | -36.6°C | 1.7% | 9.0hPa | 2.6V | 03:05:00 | 02:09:47 | 00:00:00 | |
| DL1XH-15 | 2026-09-02 18:42:04 | 49.13846 | 8.51439 | 121° | 20km/h | 32293m | 4.7m/s | -36.5°C | 1.7% | 9.1hPa | 2.6V | 03:05:54 | 02:09:40 | 00:00:00 | |
| DK7TD | 2026-09-02 18:42:03 | 49.13834 | 8.51454 | 152° | 7km/h | 32314m | 6m/s | -36.6°C | 0% | 9.1hPa | 2.5V | 03:06:22 | 02:09:44 | 00:00:00 | |
| DL6DJ-15 | 2026-09-02 18:42:03 | 49.13834 | 8.51454 | 152° | 7km/h | 32314m | 6.0m/s | -36.6°C | 0.2% | 9.1hPa | 2.5V | 00:00:00 | 00:00:00 | 00:00:00 | |
| DL1XH1-15 | 2026-09-02 18:42:02 | 49.13849 | 8.51425 | 93° | 18km/h | 32282m | 5.9m/s | -36.5°C | 1.7% | 9.1hPa | 2.5V | 03:05:56 | 02:09:38 | 00:00:00 | |
| BIOWL1-15 | 2026-09-02 18:42:02 | 49.13836 | 8.51452 | 152° | 13km/h | 32308m | 5.6m/s | -36.6°C | 0% | 9.1hPa | 2.5V | 03:06:22 | 02:09:43 | 00:00:00 | |
| DL1XH-west | 2026-09-02 18:42:00 | 49.13843 | 8.51445 | 133° | 20km/h | 32298m | 4.7m/s | -36.6°C | 0% | 9.1hPa | 2.6V | 03:06:22 | 02:09:41 | 00:00:00 | |
| DD1CC8 | 2026-09-02 18:41:59 | 49.13848 | 8.51432 | 108° | 18km/h | 32288m | 5.7m/s | -36.5°C | 0.2% | 9.1hPa | 2.5V | 00:00:00 | 00:00:00 | 00:00:00 | |
| DO3MHA-11 | 2026-09-02 18:41:57 | 49.13849 | 8.51425 | 94° | 22km/h | 32283m | 5.9m/s | -36.5°C | 1.7% | 9.0hPa | 2.5V | 00:00:00 | 02:09:38 | 00:00:00 | |
| IW2NTF | 2026-09-02 18:41:56 | 49.13845 | 8.51376 | 102° | 24km/h | 32250m | 5.8m/s | -36.4°C | 1.7% | 9.1hPa | 2.5V | 03:06:02 | 02:09:32 | 00:00:00 | |
| DO1YAY-16 | 2026-09-02 18:41:55 | 49.13848 | 8.51410 | 74° | 20km/h | 32271m | 5.2m/s | -36.5°C | 0.2% | 9.1hPa | 2.5V | 00:00:00 | 00:00:00 | 00:00:00 | |
| DL1XH-15 | 2026-09-02 18:41:54 | 49.13850 | 8.51359 | 124° | 24km/h | 32239m | 4.9m/s | -36.5°C | 1.7% | 9.2hPa | 2.5V | 03:06:04 | 02:09:30 | 00:00:00 | |
| BIOWL1-15 | 2026-09-02 18:41:53 | 49.13845 | 8.51376 | 102° | 24km/h | 32250m | 5.8m/s | -36.4°C | 0% | 9.1hPa | 2.5V | 03:06:22 | 02:09:32 | 00:00:00 | |
| DM0DOS-11 | 2026-09-02 18:41:52 | 49.13857 | 8.51349 | 145° | 15km/h | 32230m | 4.9m/s | -36.5°C | 1.7% | 9.2hPa | 2.6V | 03:06:06 | 02:09:28 | 00:00:00 | |
| DK7TD | 2026-09-02 18:41:52 | 49.13845 | 8.51385 | 90° | 24km/h | 32256m | 5.4m/s | -36.4°C | 0% | 9.1hPa | 2.6V | 03:06:22 | 02:09:33 | 00:00:00 | |
| HSKMA3-T | 2026-09-02 18:41:50 | 49.13847 | 8.51367 | 114° | 24km/h | 32245m | 5.6m/s | -36.5°C | 0% | 9.2hPa | 2.5V | 03:07:13 | 02:09:31 | 00:00:00 | |
| DL1XH-west | 2026-09-02 18:41:49 | 49.13850 | 8.51359 | 125° | 24km/h | 32240m | 4.9m/s | -36.5°C | 0% | 9.2hPa | 2.5V | 03:06:22 | 02:09:30 | 00:00:00 | |
| DL4BBY-15 | 2026-09-02 18:41:48 | 49.13853 | 8.51353 | 136° | 20km/h | 32235m | 4.5m/s | -35.3°C | 0% | 0hPa | 2.6V | 00:00:00 | 00:00:00 | 00:00:00 | |
| DO3MHA-11 | 2026-09-02 18:41:47 | 49.13856 | 8.51349 | 146° | 15km/h | 32230m | 4.8m/s | -36.4°C | 1.7% | 9.1hPa | 2.6V | 00:00:00 | 02:09:28 | 00:00:00 | |
| DJ2DS-15 | 2026-09-02 18:41:46 | 49.13859 | 8.51347 | 160° | 18km/h | 32225m | 6.0m/s | -36.4°C | 1.7% | 9.1hPa | 2.5V | 00:00:00 | 02:09:27 | 00:00:00 | |
| DB0UT-7 | 2026-09-02 18:41:45 | 49.13860 | 8.51347 | 205° | 22km/h | 32219m | 6.1m/s | -36.4°C | 1.7% | 9.1hPa | 2.5V | 00:00:00 | 02:09:26 | 00:00:00 | |
| DL1XH-15 | 2026-09-02 18:41:44 | 49.13864 | 8.51325 | 112° | 33km/h | 32188m | 6.4m/s | -36.6°C | 1.7% | 9.2hPa | 2.5V | 03:06:14 | 02:09:20 | 00:00:00 | |
| OE5DRO-10 | 2026-09-02 18:41:43 | 49.13860 | 8.51347 | 24° | 20km/h | 32209m | 3.8m/s | 0°C | 0% | 0hPa | 2.6V | 00:00:00 | 00:00:00 | 00:00:00 | |
| DL1XH1-15 | 2026-09-02 18:41:42 | 49.13871 | 8.51300 | 117° | 37km/h | 32177m | 4m/s | -36.7°C | 1.7% | 9.2hPa | 2.6V | 03:06:16 | 02:09:18 | 00:00:00 | |
| BIOWL1-15 | 2026-09-02 18:41:41 | 49.13860 | 8.51342 | 102° | 15km/h | 32200m | 5.2m/s | -36.5°C | 0% | 9.2hPa | 2.5V | 03:06:22 | 02:09:22 | 00:00:00 | |
| DL1XH-west | 2026-09-02 18:41:38 | 49.13867 | 8.51313 | 115° | 38km/h | 32182m | 5.1m/s | -36.6°C | 0% | 9.2hPa | 2.6V | 03:06:22 | 02:09:19 | 00:00:00 | |
| DO3MHA-11 | 2026-09-02 18:41:37 | 49.13871 | 8.51300 | 118° | 22km/h | 32178m | 4.0m/s | -36.6°C | 1.7% | 9.2hPa | 2.6V | 00:00:00 | 02:09:18 | 00:00:00 | |
| DB0NH | 2026-09-02 18:41:36 | 49.13875 | 8.51288 | 120° | 20km/h | 32174m | 3.9m/s | -36.7°C | 1.7% | 9.2hPa | 2.6V | 00:00:00 | 02:09:17 | 00:00:00 | |
| IW2NTF | 2026-09-02 18:41:34 | 49.13896 | 8.51291 | 219° | 24km/h | 32136m | 5.3m/s | -37°C | 1.7% | 9.3hPa | 2.6V | 03:06:24 | 02:09:10 | 00:00:00 | |
| BIOWL1-15 | 2026-09-02 18:41:31 | 49.13888 | 8.51278 | 238° | 18km/h | 32147m | 5.3m/s | -37°C | 0% | 9.3hPa | 2.6V | 03:06:22 | 02:09:12 | 00:00:00 | |
| DK7TD | 2026-09-02 18:41:29 | 49.13896 | 8.51291 | 219° | 24km/h | 32136m | 5.3m/s | -37°C | 0% | 9.3hPa | 2.6V | 03:08:04 | 02:09:10 | 00:00:00 | |
| DL1XH-west | 2026-09-02 18:41:27 | 49.13906 | 8.51297 | 179° | 22km/h | 32126m | 4.5m/s | -37°C | 0% | 9.3hPa | 2.5V | 03:07:13 | 02:09:08 | 00:00:00 | |
| HSKMA3-T | 2026-09-02 18:41:26 | 49.13911 | 8.51295 | 154° | 20km/h | 32122m | 4.9m/s | -37°C | 0% | 9.3hPa | 2.5V | 03:07:13 | 02:09:07 | 00:00:00 | |
| DB0ND-19 | 2026-09-02 18:41:26 | 49.13916 | 8.51290 | 130° | 22km/h | 32116m | 5.9m/s | -37.0°C | 0.2% | 9.3hPa | 2.5V | 00:00:00 | 00:00:00 | 00:00:00 | |
| DL1XH-15 | 2026-09-02 18:41:25 | 49.13923 | 8.51242 | 106° | 24km/h | 32090m | 4.1m/s | -37°C | 1.7% | 9.4hPa | 2.5V | 03:06:33 | 02:09:01 | 00:00:00 | |
| BIOWL1-15 | 2026-09-02 18:41:25 | 49.13921 | 8.51252 | 96° | 27km/h | 32094m | 3.9m/s | -37°C | 0% | 9.3hPa | 2.5V | 03:07:13 | 02:09:02 | 00:00:00 | |
| IW2NTF | 2026-09-02 18:41:24 | 49.13925 | 8.51234 | 125° | 22km/h | 32085m | 5.2m/s | -37.1°C | 1.7% | 9.3hPa | 2.5V | 03:06:34 | 02:09:00 | 00:00:00 | |
| DK7TD | 2026-09-02 18:41:18 | 49.13929 | 8.51228 | 150° | 22km/h | 32079m | 6.1m/s | -37.2°C | 0% | 9.4hPa | 2.5V | 03:08:04 | 02:08:59 | 00:00:00 | |
| DL1XH-west | 2026-09-02 18:41:17 | 49.13935 | 8.51225 | 172° | 26km/h | 32073m | 5.9m/s | -37.2°C | 0% | 9.4hPa | 2.6V | 03:07:13 | 02:08:58 | 00:00:00 | |
| DO3MHA-11 | 2026-09-02 18:41:17 | 49.13935 | 8.51225 | 172° | 16km/h | 32074m | 5.9m/s | -37.1°C | 1.7% | 9.3hPa | 2.6V | 00:00:00 | 02:08:58 | 00:00:00 | |
| DN1GJH-1 | 2026-09-02 18:41:16 | 49.13935 | 8.51225 | 173° | 26km/h | 32074m | 5.9m/s | -37.2°C | 0.2% | 9.4hPa | 2.6V | 00:00:00 | 00:00:00 | 00:00:00 | |
| DL1XH-15 | 2026-09-02 18:41:15 | 49.13958 | 8.51237 | 64° | 9km/h | 32038m | 4.5m/s | -37.5°C | 1.7% | 9.4hPa | 2.6V | 03:06:43 | 02:08:51 | 00:00:00 | |
| DB0UT-7 | 2026-09-02 18:41:15 | 49.13947 | 8.51227 | 199° | 18km/h | 32063m | 4.4m/s | -37.1°C | 1.7% | 9.3hPa | 2.6V | 00:00:00 | 00:00:00 | 00:00:00 | |
| IW2NTF | 2026-09-02 18:41:14 | 49.13958 | 8.51233 | 86° | 13km/h | 32033m | 4.5m/s | -37.6°C | 1.8% | 9.4hPa | 2.6V | 03:06:44 | 02:08:50 | 00:00:00 | |
| DL8DAS-15 | 2026-09-02 18:41:14 | 49.13948 | 8.51227 | 200° | 26km/h | 32063m | 4.4m/s | -37.2°C | 0.3% | 9.4hPa | 2.5V | 00:00:00 | 00:00:00 | 00:00:00 | |
| SFWM-10 | 2026-09-02 18:41:13 | 49.13953 | 8.51231 | 210° | 22km/h | 32059m | 4.7m/s | -37.3°C | 0.2% | 9.4hPa | 2.5V | 03:07:00 | 00:00:00 | 00:00:00 | |
| DL1XH1-15 | 2026-09-02 18:41:12 | 49.13961 | 8.51222 | 136° | 20km/h | 32023m | 5.4m/s | -37.8°C | 1.8% | 9.4hPa | 2.5V | 03:06:46 | 02:08:48 | 00:00:00 | |
| HSKMA3-T | 2026-09-02 18:41:12 | 49.13959 | 8.51238 | 236° | 5km/h | 32048m | 5.7m/s | -37.4°C | 0% | 9.4hPa | 2.5V | 03:07:13 | 02:08:53 | 00:00:00 | |
| BIOWL1-15 | 2026-09-02 18:41:10 | 49.13958 | 8.51237 | 64° | 9km/h | 32038m | 4.6m/s | -37.5°C | 0% | 9.4hPa | 2.6V | 03:07:13 | 02:08:51 | 00:00:00 | |
| DK7TD | 2026-09-02 18:41:08 | 49.13958 | 8.51228 | 111° | 16km/h | 32028m | 4.9m/s | -37.7°C | 0% | 9.4hPa | 2.6V | 03:08:04 | 02:08:49 | 00:00:00 | |
| DL1XH-west | 2026-09-02 18:41:07 | 49.13961 | 8.51222 | 136° | 20km/h | 32023m | 5.4m/s | -37.8°C | 0% | 9.4hPa | 2.5V | 03:07:13 | 02:08:48 | 00:00:00 | |
| DO3MHA-11 | 2026-09-02 18:41:07 | 49.13960 | 8.51222 | 137° | 20km/h | 32024m | 5.4m/s | -37.7°C | 1.8% | 9.4hPa | 2.5V | 00:00:00 | 02:08:48 | 00:00:00 | |
| DJ2DS-15 | 2026-09-02 18:41:06 | 49.13965 | 8.51218 | 159° | 20km/h | 32018m | 5.5m/s | -37.8°C | 1.8% | 9.4hPa | 2.5V | 00:00:00 | 02:08:47 | 00:00:00 | |
| DM7RM-13 | 2026-09-02 18:41:04 | 49.13971 | 8.51216 | 178° | 27km/h | 32013m | 5.4m/s | -37.9°C | 0.3% | 9.5hPa | 2.5V | 03:07:00 | 00:00:00 | 00:00:00 | |
| DL1XH1-15 | 2026-09-02 18:41:02 | 49.13993 | 8.51247 | 67° | 7km/h | 31971m | 5.2m/s | -38.1°C | 1.8% | 9.5hPa | 2.5V | 03:06:56 | 02:08:38 | 00:00:00 | |
| HSKMA3-T | 2026-09-02 18:41:02 | 49.13991 | 8.51227 | 226° | 26km/h | 31997m | 5m/s | -38°C | 0% | 9.5hPa | 2.6V | 03:07:13 | 02:08:43 | 00:00:00 | |
| BIOWL1-15 | 2026-09-02 18:41:00 | 49.13995 | 8.51241 | 265° | 16km/h | 31987m | 5.2m/s | -38°C | 0% | 9.5hPa | 2.5V | 03:07:13 | 02:08:41 | 00:00:00 | |
| DK7TD | 2026-09-02 18:40:57 | 49.13993 | 8.51247 | 68° | 7km/h | 31972m | 5.2m/s | -38.1°C | 0% | 9.5hPa | 2.5V | 03:08:04 | 02:08:38 | 00:00:00 | |
| DL1XH-west | 2026-09-02 18:40:56 | 49.13993 | 8.51244 | 111° | 11km/h | 31967m | 5.1m/s | -38.2°C | 0% | 9.5hPa | 2.6V | 03:07:13 | 02:08:37 | 00:00:00 | |
| DB0ND-19 | 2026-09-02 18:40:55 | 49.14000 | 8.51235 | 156° | 22km/h | 31956m | 5.4m/s | -38.2°C | 0.3% | 9.5hPa | 2.6V | 00:00:00 | 00:00:00 | 00:00:00 | |
| DL1XH-15 | 2026-09-02 18:40:54 | 49.14034 | 8.51247 | 224° | 26km/h | 31930m | 5.3m/s | -38.1°C | 1.8% | 9.6hPa | 2.6V | 03:07:04 | 02:08:30 | 00:00:00 | |
| DO1YAY-16 | 2026-09-02 18:40:53 | 49.14006 | 8.51233 | 172° | 27km/h | 31951m | 5.4m/s | -38.2°C | 0.3% | 9.6hPa | 2.6V | 00:00:00 | 00:00:00 | 00:00:00 | |
| DL1XH1-15 | 2026-09-02 18:40:52 | 49.14039 | 8.51258 | 241° | 11km/h | 31920m | 4.9m/s | -38.2°C | 1.8% | 9.6hPa | 2.6V | 03:07:06 | 02:08:28 | 00:00:00 | |
| HSKMA3-T | 2026-09-02 18:40:51 | 49.14021 | 8.51236 | 200° | 33km/h | 31940m | 4.7m/s | -38.2°C | 0% | 9.6hPa | 2.5V | 03:07:13 | 02:08:32 | 00:00:00 | |
| IW2NTF | 2026-09-02 18:40:50 | 49.14041 | 8.51259 | 122° | 9km/h | 31910m | 5.5m/s | -38.2°C | 1.8% | 9.6hPa | 2.5V | 03:07:08 | 02:08:26 | 00:00:00 | |
| BIOWL1-15 | 2026-09-02 18:40:49 | 49.14034 | 8.51247 | 224° | 26km/h | 31930m | 5.3m/s | -38.2°C | 0% | 9.6hPa | 2.6V | 03:07:13 | 02:08:30 | 00:00:00 | |
| DL1XH-west | 2026-09-02 18:40:46 | 49.14040 | 8.51260 | 193° | 4km/h | 31915m | 5m/s | -38.2°C | 0% | 9.6hPa | 2.5V | 03:07:13 | 02:08:27 | 00:00:00 | |
| DK7TD | 2026-09-02 18:40:44 | 49.14043 | 8.51254 | 124° | 18km/h | 31904m | 5.9m/s | -38.2°C | 0% | 9.6hPa | 2.5V | 03:08:04 | 02:08:25 | 00:00:00 | |
| DL1XH1-15 | 2026-09-02 18:40:42 | 49.14089 | 8.51227 | 206° | 22km/h | 31867m | 5.8m/s | -38.4°C | 1.8% | 9.6hPa | 2.5V | 03:07:16 | 02:08:18 | 00:00:00 | |
| DL1ZP-14 | 2026-09-02 18:40:41 | 49.14060 | 8.51232 | 150° | 35km/h | 31888m | 4.6m/s | -38.3°C | 0.3% | 9.6hPa | 2.6V | 00:00:00 | 00:00:00 | 00:00:00 | |
| DL1XH-15 | 2026-09-02 18:40:38 | 49.14099 | 8.51235 | 128° | 11km/h | 31848m | 5.2m/s | -38.4°C | 1.8% | 9.7hPa | 2.6V | 03:07:20 | 02:08:14 | 00:00:00 | |
| HSKMA3-T | 2026-09-02 18:40:38 | 49.14083 | 8.51224 | 189° | 27km/h | 31873m | 5.6m/s | -38.4°C | 0% | 9.7hPa | 2.5V | 03:08:04 | 02:08:19 | 00:00:00 | |
| DL1XH-west | 2026-09-02 18:40:35 | 49.14096 | 8.51234 | 230° | 11km/h | 31857m | 4.3m/s | -38.4°C | 0% | 9.7hPa | 2.6V | 03:08:04 | 02:08:16 | 00:00:00 | |
| DL3AQ-11 | 2026-09-02 18:40:34 | 49.14099 | 8.51235 | 128° | 9km/h | 31848m | 5.2m/s | -38.4°C | 0.2% | 9.7hPa | 2.6V | 00:00:00 | 00:00:00 | 00:00:00 | |
| DL1XH1-15 | 2026-09-02 18:40:32 | 49.14138 | 8.51182 | 155° | 40km/h | 31816m | 5m/s | -38.3°C | 1.8% | 9.7hPa | 2.6V | 03:07:26 | 02:08:08 | 00:00:00 | |
| DK7TD | 2026-09-02 18:40:31 | 49.14105 | 8.51221 | 129° | 33km/h | 31837m | 5.9m/s | -38.3°C | 0% | 9.7hPa | 2.5V | 03:08:04 | 02:08:12 | 00:00:00 | |
| BIOWL1-15 | 2026-09-02 18:40:29 | 49.14138 | 8.51182 | 156° | 40km/h | 31816m | 5m/s | -38.3°C | 0% | 9.7hPa | 2.6V | 03:08:04 | 02:08:08 | 00:00:00 | |
| DF3TZ-5 | 2026-09-02 18:40:29 | 49.14128 | 8.51190 | 147° | 44km/h | 31821m | 4.7m/s | -38.3°C | 0.3% | 9.7hPa | 2.5V | 00:00:00 | 00:00:00 | 00:00:00 | |
| DL1XH-15 | 2026-09-02 18:40:28 | 49.14163 | 8.51174 | 182° | 11km/h | 31795m | 5.3m/s | -38.4°C | 1.8% | 9.7hPa | 2.5V | 03:07:30 | 02:08:04 | 00:00:00 | |
| DL1XH-west | 2026-09-02 18:40:24 | 49.14159 | 8.51174 | 181° | 18km/h | 31800m | 5.3m/s | -38.4°C | 0% | 9.7hPa | 2.5V | 03:08:04 | 02:08:05 | 00:00:00 | |
| DK7TD | 2026-09-02 18:40:19 | 49.14172 | 8.51162 | 134° | 24km/h | 31774m | 5.2m/s | -38.6°C | 0% | 9.8hPa | 2.6V | 03:08:04 | 02:08:00 | 00:00:00 | |
| NBG1-10 | 2026-09-02 18:40:19 | 49.14172 | 8.51162 | 134° | 31km/h | 31775m | 5.2m/s | -38.5°C | 1.9% | 9.8hPa | 2.6V | 00:00:00 | 02:08:00 | 00:00:00 | |
| DL3AQ-11 | 2026-09-02 18:40:18 | 49.14184 | 8.51148 | 148° | 33km/h | 31764m | 5.5m/s | -38.6°C | 0.3% | 9.8hPa | 2.6V | 00:00:00 | 00:00:00 | 00:00:00 | |
| DL1XH-15 | 2026-09-02 18:40:17 | 49.14221 | 8.51131 | 172° | 22km/h | 31736m | 5.1m/s | -38.7°C | 1.9% | 9.8hPa | 2.6V | 03:07:41 | 02:07:53 | 00:00:00 | |
| BIOWL1-15 | 2026-09-02 18:40:17 | 49.14184 | 8.51148 | 148° | 33km/h | 31764m | 5.5m/s | -38.6°C | 0% | 9.8hPa | 2.5V | 03:08:04 | 02:07:58 | 00:00:00 | |
| DL1XH-west | 2026-09-02 18:40:14 | 49.14207 | 8.51134 | 168° | 31km/h | 31747m | 5.7m/s | -38.7°C | 0% | 9.8hPa | 2.6V | 03:08:04 | 02:07:55 | 00:00:00 | |
| HSKMA3-T | 2026-09-02 18:40:13 | 49.14215 | 8.51132 | 173° | 27km/h | 31741m | 5.3m/s | -38.7°C | 0% | 9.8hPa | 2.6V | 03:08:04 | 02:07:54 | 00:00:00 | |
| DK7TD | 2026-09-02 18:40:09 | 49.14233 | 8.51122 | 136° | 22km/h | 31721m | 5.8m/s | -38.7°C | 0% | 9.9hPa | 2.5V | 03:08:04 | 02:07:50 | 00:00:00 | |
| BIOWL1-15 | 2026-09-02 18:40:09 | 49.14242 | 8.51107 | 132° | 29km/h | 31709m | 5.1m/s | -38.7°C | 0% | 9.9hPa | 2.6V | 03:08:04 | 02:07:48 | 00:00:00 | |
| IW2NTF | 2026-09-02 18:40:09 | 49.14267 | 8.51084 | 171° | 27km/h | 31689m | 5.6m/s | -38.9°C | 1.9% | 9.9hPa | 2.5V | 03:07:50 | 02:07:44 | 00:00:00 | |
| DL1XH-west | 2026-09-02 18:40:03 | 49.14267 | 8.51084 | 172° | 27km/h | 31689m | 5.6m/s | -38.9°C | 0% | 9.9hPa | 2.5V | 03:08:04 | 02:07:44 | 00:00:00 | |
| HSKMA3-T | 2026-09-02 18:40:02 | 49.14273 | 8.51084 | 184° | 26km/h | 31684m | 5.1m/s | -38.9°C | 0% | 9.9hPa | 2.5V | 03:08:04 | 02:07:43 | 00:00:00 | |
| BIOWL9-15 | 2026-09-02 18:40:00 | 49.14283 | 8.51086 | 188° | 13km/h | 31675m | 4.3m/s | -39.0°C | 0.2% | 9.9hPa | 2.6V | 00:00:00 | 00:00:00 | 00:00:00 | |
| DL6DJ-15 | 2026-09-02 18:39:59 | 49.14288 | 8.51083 | 112° | 11km/h | 31664m | 6.4m/s | -39.0°C | 0.3% | 9.9hPa | 2.6V | 00:00:00 | 00:00:00 | 00:00:00 | |
| IW2NTF | 2026-09-02 18:39:58 | 49.14303 | 8.51033 | 137° | 38km/h | 31638m | 5.5m/s | -39.3°C | 1.9% | 10hPa | 2.6V | 03:08:00 | 02:07:34 | 00:00:00 | |
| DK7TD | 2026-09-02 18:39:58 | 49.14288 | 8.51083 | 113° | 13km/h | 31664m | 6.4m/s | -39°C | 0% | 9.9hPa | 2.6V | 03:08:04 | 02:07:39 | 00:00:00 | |
| HARRO8 | 2026-09-02 18:39:58 | 49.14288 | 8.51083 | 112° | 11km/h | 31664m | 6.4m/s | -39.0°C | 0.3% | 9.9hPa | 2.5V | 00:00:00 | 00:00:00 | 00:00:00 | |
| SONDE2-11 | 2026-09-02 18:39:56 | 49.14290 | 8.51067 | 102° | 29km/h | 31653m | 4.8m/s | -39.1°C | 0.3% | 9.9hPa | 2.5V | 00:00:00 | 00:00:00 | 00:00:00 | |
| BIOWL1-15 | 2026-09-02 18:39:56 | 49.14290 | 8.51067 | 103° | 29km/h | 31653m | 4.8m/s | -39.1°C | 0% | 9.9hPa | 2.5V | 03:08:04 | 02:07:37 | 00:00:00 | |
| DD1CC8 | 2026-09-02 18:39:54 | 49.14297 | 8.51043 | 123° | 37km/h | 31644m | 4.5m/s | -39.2°C | 0.3% | 10.0hPa | 2.5V | 00:00:00 | 00:00:00 | 00:00:00 | |
| DJ2DS-15 | 2026-09-02 18:39:53 | 49.14311 | 8.51024 | 152° | 38km/h | 31633m | 6.0m/s | -39.3°C | 0.3% | 10.0hPa | 2.5V | 00:00:00 | 00:00:00 | 00:00:00 | |
| DL1XH1-15 | 2026-09-02 18:39:52 | 49.14355 | 8.51015 | 168° | 22km/h | 31607m | 5.3m/s | -39.4°C | 1.9% | 10hPa | 2.5V | 03:08:06 | 02:07:28 | 00:00:00 | |
| HSKMA3-T | 2026-09-02 18:39:52 | 49.14311 | 8.51024 | 153° | 40km/h | 31632m | 6m/s | -39.3°C | 0% | 10hPa | 2.6V | 03:08:04 | 02:07:33 | 00:00:00 | |
| DK7TD | 2026-09-02 18:39:47 | 49.14355 | 8.51015 | 169° | 22km/h | 31607m | 5.3m/s | -39.4°C | 0% | 10hPa | 2.5V | 03:08:55 | 02:07:28 | 00:00:00 | |
| BIOWL1-15 | 2026-09-02 18:39:46 | 49.14360 | 8.51012 | 144° | 18km/h | 31602m | 6m/s | -39.5°C | 0% | 10hPa | 2.6V | 03:08:55 | 02:07:27 | 00:00:00 | |
| NBG1-10 | 2026-09-02 18:39:46 | 49.14360 | 8.51012 | 144° | 16km/h | 31602m | 6.0m/s | -39.4°C | 2.0% | 10.0hPa | 2.5V | 00:00:00 | 02:07:27 | 00:00:00 | |
| DL1XH-15 | 2026-09-02 18:39:45 | 49.14370 | 8.50966 | 130° | 18km/h | 31569m | 5.3m/s | -39.6°C | 1.9% | 10.1hPa | 2.5V | 03:08:13 | 02:07:21 | 00:00:00 | |
| DB0UT-7 | 2026-09-02 18:39:45 | 49.14362 | 8.51006 | 114° | 16km/h | 31596m | 5.9m/s | -39.4°C | 1.9% | 10.0hPa | 2.6V | 00:00:00 | 02:07:26 | 00:00:00 | |
| KANTATE | 2026-09-02 18:39:44 | 49.14362 | 8.51006 | 114° | 18km/h | 31596m | 6.0m/s | -39.5°C | 0.3% | 10.1hPa | 2.6V | 00:00:00 | 00:00:00 | 00:00:00 | |
| DM7RM-13 | 2026-09-02 18:39:43 | 49.14364 | 8.50999 | 101° | 22km/h | 31590m | 5.5m/s | -39.5°C | 0.3% | 10.1hPa | 2.6V | 03:08:00 | 00:00:00 | 00:00:00 | |
| DL1XH1-15 | 2026-09-02 18:39:42 | 49.14382 | 8.50957 | 168° | 18km/h | 31552m | 5.5m/s | -39.6°C | 2% | 10.1hPa | 2.6V | 03:08:16 | 02:07:18 | 00:00:00 | |
| DL1XH-west | 2026-09-02 18:39:42 | 49.14366 | 8.50981 | 103° | 24km/h | 31579m | 5.2m/s | -39.6°C | 0% | 10.1hPa | 2.5V | 03:08:55 | 02:07:23 | 00:00:00 | |
| HSKMA3-T | 2026-09-02 18:39:41 | 49.14367 | 8.50973 | 114° | 22km/h | 31574m | 5.3m/s | -39.6°C | 0% | 10.1hPa | 2.5V | 03:09:46 | 02:07:22 | 00:00:00 | |
| DK7TD | 2026-09-02 18:39:37 | 49.14382 | 8.50957 | 168° | 18km/h | 31552m | 5.5m/s | -39.6°C | 0% | 10.1hPa | 2.6V | 03:08:55 | 02:07:18 | 00:00:00 | |
| BIOWL1-15 | 2026-09-02 18:39:35 | 49.14391 | 8.50954 | 161° | 16km/h | 31541m | 5.5m/s | -39.6°C | 0% | 10.1hPa | 2.5V | 03:08:55 | 02:07:16 | 00:00:00 | |
| DM0DOS-11 | 2026-09-02 18:39:32 | 49.14413 | 8.50928 | 95° | 11km/h | 31500m | 4.9m/s | -39.6°C | 2% | 10.2hPa | 2.5V | 03:08:26 | 02:07:08 | 00:00:00 | |
| DL1XH-west | 2026-09-02 18:39:31 | 49.14404 | 8.50941 | 143° | 16km/h | 31520m | 5.8m/s | -39.6°C | 0% | 10.2hPa | 2.6V | 03:08:55 | 02:07:12 | 00:00:00 | |
| DK5PH-5 | 2026-09-02 18:39:31 | 49.14404 | 8.50941 | 143° | 16km/h | 31520m | 5.7m/s | -39.5°C | 2.0% | 10.1hPa | 2.6V | 00:00:00 | 02:07:12 | 00:00:00 | |
| SFWM-10 | 2026-09-02 18:39:29 | 49.14410 | 8.50934 | 141° | 13km/h | 31509m | 4.9m/s | -39.6°C | 0.3% | 10.2hPa | 2.5V | 03:08:00 | 00:00:00 | 00:00:00 | |
| DN1GJH-1 | 2026-09-02 18:39:28 | 49.14410 | 8.50934 | 141° | 13km/h | 31509m | 4.9m/s | -39.6°C | 0.3% | 10.2hPa | 2.5V | 03:08:00 | 00:00:00 | 00:00:00 | |
| IW2NTF | 2026-09-02 18:39:27 | 49.14408 | 8.50905 | 172° | 7km/h | 31468m | 6.4m/s | -39.5°C | 2% | 10.2hPa | 2.5V | 03:08:32 | 02:07:02 | 00:00:00 | |
| DK7TD | 2026-09-02 18:39:26 | 49.14412 | 8.50923 | 75° | 13km/h | 31494m | 6.2m/s | -39.5°C | 0% | 10.2hPa | 2.5V | 03:08:55 | 02:07:07 | 00:00:00 | |
| BIOWL1-15 | 2026-09-02 18:39:26 | 49.14409 | 8.50913 | 59° | 15km/h | 31482m | 4.6m/s | -39.5°C | 0% | 10.2hPa | 2.6V | 03:08:55 | 02:07:05 | 00:00:00 | |
| DJ2DS-15 | 2026-09-02 18:39:26 | 49.14412 | 8.50923 | 75° | 16km/h | 31494m | 6.1m/s | -39.5°C | 1.9% | 10.2hPa | 2.6V | 03:08:00 | 02:07:07 | 00:00:00 | |
| SONDE2-11 | 2026-09-02 18:39:25 | 49.14411 | 8.50918 | 62° | 15km/h | 31488m | 6.0m/s | -39.5°C | 0.3% | 10.2hPa | 2.6V | 00:00:00 | 00:00:00 | 00:00:00 | |
| DH7VM-15 | 2026-09-02 18:39:24 | 49.14411 | 8.50918 | 63° | 15km/h | 31488m | 6.0m/s | -39.5°C | 0.3% | 10.2hPa | 2.6V | 00:00:00 | 00:00:00 | 00:00:00 | |
| DM7RM-13 | 2026-09-02 18:39:23 | 49.14409 | 8.50913 | 59° | 15km/h | 31483m | 4.6m/s | -39.5°C | 0.3% | 10.2hPa | 2.6V | 03:08:00 | 00:00:00 | 00:00:00 | |
| DL1XH-15 | 2026-09-02 18:39:22 | 49.14427 | 8.50908 | 172° | 20km/h | 31447m | 4.2m/s | -39.6°C | 2% | 10.3hPa | 2.6V | 03:08:36 | 02:06:58 | 00:00:00 | |
| DL1XH-west | 2026-09-02 18:39:21 | 49.14409 | 8.50905 | 173° | 7km/h | 31468m | 6.4m/s | -39.5°C | 0% | 10.2hPa | 2.5V | 03:08:55 | 02:07:02 | 00:00:00 | |
| HSKMA3-T | 2026-09-02 18:39:20 | 49.14412 | 8.50905 | 191° | 15km/h | 31462m | 6.4m/s | -39.6°C | 0% | 10.2hPa | 2.5V | 03:09:46 | 02:07:01 | 00:00:00 | |
| DO1YAY-16 | 2026-09-02 18:39:20 | 49.14416 | 8.50907 | 192° | 20km/h | 31456m | 5.2m/s | -39.6°C | 0.3% | 10.2hPa | 2.6V | 00:00:00 | 00:00:00 | 00:00:00 | |
| SONCRA | 2026-09-02 18:39:19 | 49.14422 | 8.50908 | 185° | 22km/h | 31452m | 4.2m/s | -39.6°C | 0.3% | 10.3hPa | 2.6V | 00:00:00 | 00:00:00 | 00:00:00 | |
| DL4BBY-15 | 2026-09-02 18:39:18 | 49.14421 | 8.50908 | 186° | 15km/h | 31452m | 4.1m/s | -38.5°C | 0% | 0hPa | 2.6V | 00:00:00 | 00:00:00 | 00:00:00 | |
| DJ2DS-15 | 2026-09-02 18:39:17 | 49.14431 | 8.50906 | 148° | 16km/h | 31443m | 5.7m/s | -39.6°C | 0.3% | 10.3hPa | 2.6V | 00:00:00 | 00:00:00 | 00:00:00 | |
| IW2NTF | 2026-09-02 18:39:16 | 49.14431 | 8.50869 | 66° | 18km/h | 31415m | 4.9m/s | -39.7°C | 2% | 10.3hPa | 2.6V | 03:08:42 | 02:06:52 | 00:00:00 | |
| DK7TD | 2026-09-02 18:39:16 | 49.14431 | 8.50906 | 148° | 18km/h | 31442m | 5.7m/s | -39.6°C | 0% | 10.3hPa | 2.6V | 03:08:55 | 02:06:57 | 00:00:00 | |
| BIOWL1-15 | 2026-09-02 18:39:13 | 49.14435 | 8.50885 | 76° | 24km/h | 31425m | 4.8m/s | -39.7°C | 0% | 10.3hPa | 2.5V | 03:08:55 | 02:06:54 | 00:00:00 | |
| DL1XH-west | 2026-09-02 18:39:10 | 49.14430 | 8.50864 | 75° | 11km/h | 31410m | 5.2m/s | -39.7°C | 0% | 10.3hPa | 2.6V | 03:08:55 | 02:06:51 | 00:00:00 | |
| HSKMA3-T | 2026-09-02 18:39:09 | 49.14430 | 8.50860 | 116° | 5km/h | 31405m | 4.9m/s | -39.7°C | 0% | 10.3hPa | 2.6V | 03:09:46 | 02:06:50 | 00:00:00 | |
| DL1ZP-14 | 2026-09-02 18:39:08 | 49.14431 | 8.50859 | 168° | 9km/h | 31400m | 4.8m/s | -39.7°C | 0.3% | 10.3hPa | 2.5V | 00:00:00 | 00:00:00 | 00:00:00 | |
| IW2NTF | 2026-09-02 18:39:07 | 49.14458 | 8.50839 | 127° | 15km/h | 31364m | 5m/s | -39.7°C | 2% | 10.4hPa | 2.5V | 03:08:52 | 02:06:42 | 00:00:00 | |
| DK7TD | 2026-09-02 18:39:05 | 49.14443 | 8.50856 | 163° | 20km/h | 31384m | 5.8m/s | -39.8°C | 0% | 10.4hPa | 2.5V | 03:08:55 | 02:06:46 | 00:00:00 | |
| BIOWL1-15 | 2026-09-02 18:39:03 | 49.14452 | 8.50849 | 141° | 20km/h | 31373m | 5m/s | -39.7°C | 0% | 10.4hPa | 2.6V | 03:08:55 | 02:06:44 | 00:00:00 | |
| DL1XH1-15 | 2026-09-02 18:39:02 | 49.14462 | 8.50831 | 93° | 4km/h | 31342m | 4.5m/s | -39.7°C | 2% | 10.4hPa | 2.6V | 03:08:56 | 02:06:38 | 00:00:00 | |
| DK5PH-5 | 2026-09-02 18:39:01 | 49.14458 | 8.50839 | 128° | 16km/h | 31364m | 5.0m/s | -39.6°C | 2.0% | 10.3hPa | 2.6V | 00:00:00 | 02:06:42 | 00:00:00 | |
| DL1XH-15 | 2026-09-02 18:39:00 | 49.14462 | 8.50826 | 89° | 9km/h | 31332m | 6m/s | -39.7°C | 2% | 10.4hPa | 2.6V | 03:08:58 | 02:06:36 | 00:00:00 | |
| DL1XH-west | 2026-09-02 18:39:00 | 49.14460 | 8.50836 | 126° | 11km/h | 31358m | 5.9m/s | -39.7°C | 0% | 10.4hPa | 2.5V | 03:08:55 | 02:06:41 | 00:00:00 | |
| HSKMA3-T | 2026-09-02 18:38:59 | 49.14461 | 8.50833 | 128° | 5km/h | 31352m | 5.6m/s | -39.7°C | 0% | 10.4hPa | 2.5V | 03:09:46 | 02:06:40 | 00:00:00 | |
| DL3AQ-11 | 2026-09-02 18:38:58 | 49.14462 | 8.50829 | 87° | 4km/h | 31338m | 4.8m/s | -39.7°C | 0.3% | 10.4hPa | 2.5V | 00:00:00 | 00:00:00 | 00:00:00 | |
| DO3MHA-11 | 2026-09-02 18:38:57 | 49.14462 | 8.50830 | 94° | 15km/h | 31343m | 4.5m/s | -39.7°C | 2.0% | 10.4hPa | 2.5V | 00:00:00 | 02:06:38 | 00:00:00 | |
| IW2NTF | 2026-09-02 18:38:56 | 49.14469 | 8.50810 | 162° | 18km/h | 31312m | 5.2m/s | -39.7°C | 2% | 10.5hPa | 2.5V | 03:09:02 | 02:06:32 | 00:00:00 | |
| DK7TD | 2026-09-02 18:38:54 | 49.14462 | 8.50822 | 99° | 11km/h | 31327m | 5.5m/s | -39.7°C | 0% | 10.4hPa | 2.5V | 03:11:28 | 02:06:35 | 00:00:00 | |
| BIOWL1-15 | 2026-09-02 18:38:54 | 49.14465 | 8.50813 | 140° | 15km/h | 31317m | 4.4m/s | -39.7°C | 0% | 10.5hPa | 2.5V | 03:09:46 | 02:06:33 | 00:00:00 | |
| SONDE2-11 | 2026-09-02 18:38:54 | 49.14463 | 8.50818 | 116° | 13km/h | 31322m | 4.6m/s | -39.7°C | 0.3% | 10.5hPa | 2.5V | 00:00:00 | 00:00:00 | 00:00:00 | |
| DL1XH1-15 | 2026-09-02 18:38:52 | 49.14491 | 8.50818 | 205° | 22km/h | 31291m | 3.5m/s | -39.8°C | 2% | 10.5hPa | 2.5V | 03:09:06 | 02:06:28 | 00:00:00 | |
| DL1XH-west | 2026-09-02 18:38:50 | 49.14473 | 8.50810 | 181° | 22km/h | 31306m | 6.5m/s | -39.8°C | 0% | 10.5hPa | 2.6V | 03:09:46 | 02:06:31 | 00:00:00 | |
| HSKMA3-T | 2026-09-02 18:38:48 | 49.14485 | 8.50814 | 203° | 26km/h | 31295m | 4.6m/s | -39.8°C | 0% | 10.5hPa | 2.6V | 03:09:46 | 02:06:29 | 00:00:00 | |
| DB0NH | 2026-09-02 18:38:48 | 49.14485 | 8.50814 | 203° | 18km/h | 31295m | 4.6m/s | -39.8°C | 2.0% | 10.5hPa | 2.6V | 00:00:00 | 02:06:29 | 00:00:00 | |
| DO3MHA-11 | 2026-09-02 18:38:47 | 49.14491 | 8.50818 | 206° | 15km/h | 31291m | 3.5m/s | -39.8°C | 2.0% | 10.5hPa | 2.5V | 03:09:00 | 02:06:28 | 00:00:00 | |
| IW2NTF | 2026-09-02 18:38:46 | 49.14496 | 8.50806 | 74° | 15km/h | 31260m | 3.5m/s | -39.9°C | 2% | 10.6hPa | 2.6V | 03:09:12 | 02:06:22 | 00:00:00 | |
| DK7TD | 2026-09-02 18:38:44 | 49.14499 | 8.50821 | 95° | 7km/h | 31276m | 6.7m/s | -39.8°C | 0% | 10.5hPa | 2.5V | 03:11:28 | 02:06:25 | 00:00:00 | |
| BIOWL1-15 | 2026-09-02 18:38:43 | 49.14496 | 8.50806 | 74° | 15km/h | 31260m | 3.5m/s | -39.9°C | 0% | 10.6hPa | 2.6V | 03:09:46 | 02:06:22 | 00:00:00 | |
| DL1XH1-15 | 2026-09-02 18:38:42 | 49.14506 | 8.50801 | 200° | 27km/h | 31239m | 5.8m/s | -40°C | 2% | 10.6hPa | 2.5V | 03:09:16 | 02:06:18 | 00:00:00 | |
| DL1XH-west | 2026-09-02 18:38:39 | 49.14497 | 8.50799 | 157° | 11km/h | 31251m | 5.7m/s | -39.9°C | 0% | 10.6hPa | 2.5V | 03:09:46 | 02:06:20 | 00:00:00 | |
| KANTATE | 2026-09-02 18:38:39 | 49.14500 | 8.50799 | 190° | 18km/h | 31246m | 6.1m/s | -39.9°C | 0.3% | 10.6hPa | 2.5V | 03:09:00 | 00:00:00 | 00:00:00 | |
| IW2NTF | 2026-09-02 18:38:37 | 49.14540 | 8.50811 | 127° | 13km/h | 31208m | 5.3m/s | -40°C | 2% | 10.6hPa | 2.5V | 03:09:22 | 02:06:12 | 00:00:00 | |
| HSKMA3-T | 2026-09-02 18:38:33 | 49.14533 | 8.50815 | 184° | 20km/h | 31219m | 5.3m/s | -40°C | 0% | 10.6hPa | 2.5V | 03:09:46 | 02:06:14 | 00:00:00 | |
| NBG1-10 | 2026-09-02 18:38:33 | 49.14533 | 8.50815 | 185° | 15km/h | 31220m | 5.3m/s | -39.9°C | 2.0% | 10.6hPa | 2.5V | 00:00:00 | 02:06:14 | 00:00:00 | |
| DK5PH-5 | 2026-09-02 18:38:31 | 49.14540 | 8.50811 | 128° | 15km/h | 31209m | 5.3m/s | -40.0°C | 2.0% | 10.6hPa | 2.5V | 00:00:00 | 02:06:12 | 00:00:00 | |
| DL1XH-15 | 2026-09-02 18:38:30 | 49.14549 | 8.50787 | 168° | 13km/h | 31177m | 4.8m/s | -40.2°C | 2% | 10.7hPa | 2.5V | 03:09:28 | 02:06:06 | 00:00:00 | |
| BIOWL1-15 | 2026-09-02 18:38:30 | 49.14541 | 8.50807 | 107° | 15km/h | 31203m | 5.1m/s | -40°C | 0% | 10.7hPa | 2.5V | 03:09:46 | 02:06:11 | 00:00:00 | |
| DL1XH-west | 2026-09-02 18:38:29 | 49.14542 | 8.50801 | 101° | 15km/h | 31198m | 5.2m/s | -40.1°C | 0% | 10.7hPa | 2.6V | 03:09:46 | 02:06:10 | 00:00:00 | |
| DO3MHA-11 | 2026-09-02 18:38:27 | 49.14544 | 8.50791 | 123° | 15km/h | 31188m | 5.3m/s | -40.1°C | 2.0% | 10.6hPa | 2.6V | 00:00:00 | 02:06:08 | 00:00:00 | |
| IW2NTF | 2026-09-02 18:38:26 | 49.14563 | 8.50783 | 158° | 15km/h | 31156m | 5.5m/s | -40.4°C | 2% | 10.7hPa | 2.6V | 03:09:32 | 02:06:02 | 00:00:00 | |
| DK7TD | 2026-09-02 18:38:23 | 49.14556 | 8.50785 | 173° | 15km/h | 31167m | 5.3m/s | -40.3°C | 0% | 10.7hPa | 2.5V | 03:11:28 | 02:06:04 | 00:00:00 | |
| SONDE2-11 | 2026-09-02 18:38:23 | 49.14559 | 8.50784 | 165° | 13km/h | 31162m | 5.8m/s | -40.3°C | 0.3% | 10.7hPa | 2.5V | 00:00:00 | 00:00:00 | 00:00:00 | |
| DL1XH1-15 | 2026-09-02 18:38:22 | 49.14578 | 8.50773 | 158° | 16km/h | 31135m | 5.3m/s | -40.4°C | 2% | 10.7hPa | 2.5V | 03:09:36 | 02:05:58 | 00:00:00 | |
| BIOWL1-15 | 2026-09-02 18:38:21 | 49.14570 | 8.50778 | 155° | 16km/h | 31146m | 5m/s | -40.4°C | 0% | 10.7hPa | 2.5V | 03:09:46 | 02:06:00 | 00:00:00 | |
| DL1XH-15 | 2026-09-02 18:38:20 | 49.14584 | 8.50768 | 127° | 11km/h | 31126m | 4.5m/s | -40.5°C | 2% | 10.8hPa | 2.6V | 03:09:38 | 02:05:56 | 00:00:00 | |
| HSKMA3-T | 2026-09-02 18:38:20 | 49.14566 | 8.50780 | 155° | 16km/h | 31151m | 5.1m/s | -40.4°C | 0% | 10.7hPa | 2.6V | 03:09:46 | 02:06:01 | 00:00:00 | |
| DL1XH-west | 2026-09-02 18:38:18 | 49.14574 | 8.50775 | 158° | 18km/h | 31141m | 5.8m/s | -40.4°C | 0% | 10.8hPa | 2.5V | 03:09:46 | 02:05:59 | 00:00:00 | |
| DL4BBY-15 | 2026-09-02 18:38:18 | 49.14574 | 8.50775 | 159° | 13km/h | 31141m | 5.8m/s | -39.3°C | 0% | 0hPa | 2.5V | 00:00:00 | 00:00:00 | 00:00:00 | |
| DO3MHA-11 | 2026-09-02 18:38:17 | 49.14578 | 8.50773 | 159° | 11km/h | 31135m | 5.2m/s | -40.4°C | 2.0% | 10.7hPa | 2.5V | 00:00:00 | 02:05:58 | 00:00:00 | |
| IW2NTF | 2026-09-02 18:38:16 | 49.14579 | 8.50753 | 32° | 15km/h | 31103m | 4.2m/s | -40.7°C | 2.1% | 10.8hPa | 2.5V | 03:09:42 | 02:05:52 | 00:00:00 | |
| DB0NH | 2026-09-02 18:38:16 | 49.14582 | 8.50770 | 152° | 15km/h | 31130m | 4.3m/s | -40.4°C | 2.0% | 10.7hPa | 2.6V | 00:00:00 | 02:05:57 | 00:00:00 | |
| DB0UT-7 | 2026-09-02 18:38:15 | 49.14584 | 8.50767 | 128° | 13km/h | 31126m | 4.4m/s | -40.5°C | 2.0% | 10.7hPa | 2.6V | 00:00:00 | 00:00:00 | 00:00:00 | |
| DF1GD-15 | 2026-09-02 18:38:14 | 49.14584 | 8.50768 | 129° | 11km/h | 31126m | 4.5m/s | -40.5°C | 0.3% | 10.8hPa | 2.6V | 03:09:00 | 00:00:00 | 00:00:00 | |
| BIOWL7-15 | 2026-09-02 18:38:13 | 49.14585 | 8.50764 | 90° | 9km/h | 31121m | 5.7m/s | -40.6°C | 0.3% | 10.8hPa | 2.6V | 00:00:00 | 00:00:00 | 00:00:00 | |
| DL1XH1-15 | 2026-09-02 18:38:12 | 49.14577 | 8.50754 | 206° | 15km/h | 31083m | 5.3m/s | -40.9°C | 2.1% | 10.8hPa | 2.6V | 03:09:46 | 02:05:48 | 00:00:00 | |
| DK7TD | 2026-09-02 18:38:12 | 49.14582 | 8.50757 | 42° | 15km/h | 31108m | 5.5m/s | -40.6°C | 0% | 10.8hPa | 2.5V | 03:11:28 | 02:05:53 | 00:00:00 | |
| DL8DAS-14 | 2026-09-02 18:38:11 | 49.14576 | 8.50751 | 23° | 7km/h | 31100m | 3.9m/s | -40.7°C | 0.3% | 10.8hPa | 2.5V | 00:00:00 | 00:00:00 | 00:00:00 | |
| DL1XH-15 | 2026-09-02 18:38:10 | 49.14586 | 8.50757 | 180° | 20km/h | 31073m | 4.9m/s | -40.9°C | 2.1% | 10.8hPa | 2.5V | 03:09:48 | 02:05:46 | 00:00:00 | |
| BIOWL1-15 | 2026-09-02 18:38:09 | 49.14575 | 8.50750 | 346° | 4km/h | 31094m | 5.9m/s | -40.8°C | 0% | 10.8hPa | 2.5V | 03:09:46 | 02:05:50 | 00:00:00 | |
| DL1XH-west | 2026-09-02 18:38:08 | 49.14575 | 8.50751 | 222° | 7km/h | 31088m | 6.1m/s | -40.8°C | 0% | 10.8hPa | 2.6V | 03:09:46 | 02:05:49 | 00:00:00 | |
| DO3MHA-11 | 2026-09-02 18:38:07 | 49.14577 | 8.50753 | 207° | 16km/h | 31083m | 5.3m/s | -40.8°C | 2.1% | 10.8hPa | 2.6V | 03:09:00 | 02:05:48 | 00:00:00 | |
| IW2NTF | 2026-09-02 18:38:06 | 49.14600 | 8.50740 | 109° | 18km/h | 31052m | 4.6m/s | -40.8°C | 2.1% | 10.9hPa | 2.6V | 03:09:52 | 02:05:42 | 00:00:00 | |
| DJ2DS-15 | 2026-09-02 18:38:06 | 49.14581 | 8.50756 | 195° | 15km/h | 31078m | 4.7m/s | -40.8°C | 2.1% | 10.8hPa | 2.5V | 03:09:00 | 02:05:47 | 00:00:00 | |
| DN1GJH-1 | 2026-09-02 18:38:05 | 49.14581 | 8.50756 | 195° | 18km/h | 31078m | 4.8m/s | -40.9°C | 0.3% | 10.9hPa | 2.5V | 03:10:00 | 00:00:00 | 00:00:00 | |
| DJ2DS-15 | 2026-09-02 18:38:04 | 49.14591 | 8.50756 | 162° | 18km/h | 31068m | 5.7m/s | -40.9°C | 0.3% | 10.9hPa | 2.5V | 00:00:00 | 00:00:00 | 00:00:00 | |
| DL1XH1-15 | 2026-09-02 18:38:02 | 49.14604 | 8.50723 | 157° | 5km/h | 31031m | 5.6m/s | -40.8°C | 2.1% | 10.9hPa | 2.5V | 03:09:56 | 02:05:38 | 00:00:00 | |
| BIOWL1-15 | 2026-09-02 18:38:01 | 49.14602 | 8.50728 | 102° | 13km/h | 31042m | 5.6m/s | -40.8°C | 0% | 10.9hPa | 2.6V | 03:10:37 | 02:05:40 | 00:00:00 | |
| DK5PH-5 | 2026-09-02 18:38:01 | 49.14600 | 8.50740 | 110° | 15km/h | 31052m | 4.5m/s | -40.8°C | 2.1% | 10.8hPa | 2.6V | 03:09:00 | 02:05:42 | 00:00:00 | |
| DL1XH-15 | 2026-09-02 18:38:00 | 49.14608 | 8.50723 | 190° | 9km/h | 31021m | 4.5m/s | -40.8°C | 2.1% | 10.9hPa | 2.5V | 03:09:58 | 02:05:36 | 00:00:00 | |
| HSKMA3-T | 2026-09-02 18:37:58 | 49.14603 | 8.50725 | 113° | 7km/h | 31037m | 5.9m/s | -40.8°C | 0% | 10.9hPa | 2.5V | 03:10:37 | 02:05:39 | 00:00:00 | |
| DL1XH-west | 2026-09-02 18:37:57 | 49.14604 | 8.50723 | 157° | 5km/h | 31031m | 5.6m/s | -40.8°C | 0% | 10.9hPa | 2.5V | 03:10:37 | 02:05:38 | 00:00:00 | |
| BIOWL9-15 | 2026-09-02 18:37:56 | 49.14606 | 8.50723 | 191° | 5km/h | 31026m | 4.8m/s | -40.8°C | 0.3% | -1.0hPa | 2.6V | 00:00:00 | 00:00:00 | 00:00:00 | |
| HARRO8 | 2026-09-02 18:37:54 | 49.14612 | 8.50723 | 158° | 9km/h | 31011m | 5.6m/s | -40.8°C | 0.3% | 11.0hPa | 2.6V | 00:00:00 | 00:00:00 | 00:00:00 | |
| DF3TZ-5 | 2026-09-02 18:37:53 | 49.14612 | 8.50723 | 158° | 9km/h | 31011m | 5.6m/s | -40.8°C | 0.3% | 11.0hPa | 2.6V | 00:00:00 | 00:00:00 | 00:00:00 | |
| DL1XH1-15 | 2026-09-02 18:37:52 | 49.14633 | 8.50705 | 173° | 20km/h | 30978m | 5.7m/s | -41°C | 2.1% | 11hPa | 2.6V | 03:10:06 | 02:05:28 | 00:00:00 | |
| HSKMA3-T | 2026-09-02 18:37:48 | 49.14629 | 8.50707 | 163° | 18km/h | 30984m | 6.2m/s | -40.9°C | 0% | 11hPa | 2.5V | 03:10:37 | 02:05:29 | 00:00:00 | |
| DL1XH-west | 2026-09-02 18:37:47 | 49.14633 | 8.50705 | 174° | 20km/h | 30978m | 5.7m/s | -41°C | 0% | 11hPa | 2.6V | 03:10:37 | 02:05:28 | 00:00:00 | |
| DO1YAY-16 | 2026-09-02 18:37:46 | 49.14638 | 8.50705 | 177° | 20km/h | 30973m | 4.6m/s | -41.0°C | 0.3% | 11.0hPa | 2.5V | 00:00:00 | 00:00:00 | 00:00:00 | |
| SONCRA | 2026-09-02 18:37:45 | 49.14644 | 8.50704 | 173° | 20km/h | 30969m | 4.3m/s | -41.0°C | 0.3% | 11.0hPa | 2.5V | 00:00:00 | 00:00:00 | 00:00:00 | |
| DK7TD | 2026-09-02 18:37:43 | 49.14653 | 8.50700 | 148° | 18km/h | 30959m | 5.9m/s | -41.1°C | 0% | 11.1hPa | 2.5V | 03:11:28 | 02:05:24 | 00:00:00 | |
| DM0DOS-11 | 2026-09-02 18:37:42 | 49.14671 | 8.50671 | 169° | 15km/h | 30927m | 5.9m/s | -41.2°C | 2.1% | 11.1hPa | 2.5V | 03:10:16 | 02:05:18 | 00:00:00 | |
| BIOWL1-15 | 2026-09-02 18:37:38 | 49.14668 | 8.50673 | 146° | 15km/h | 30933m | 6m/s | -41.2°C | 0% | 11.1hPa | 2.6V | 03:10:37 | 02:05:19 | 00:00:00 | |
| DL1XH-west | 2026-09-02 18:37:36 | 49.14674 | 8.50671 | 190° | 15km/h | 30921m | 5.1m/s | -41.2°C | 0% | 11.1hPa | 2.5V | 03:10:37 | 02:05:17 | 00:00:00 | |
| DL1ZP-14 | 2026-09-02 18:37:35 | 49.14680 | 8.50674 | 205° | 7km/h | 30912m | 4.3m/s | -41.2°C | 0.3% | 11.1hPa | 2.6V | 00:00:00 | 00:00:00 | 00:00:00 | |
| DL1XH-15 | 2026-09-02 18:37:34 | 49.14676 | 8.50667 | 36° | 11km/h | 30885m | 4.8m/s | -41.3°C | 2.1% | 11.2hPa | 2.6V | 03:10:24 | 02:05:10 | 00:00:00 | |
| DF1GD-15 | 2026-09-02 18:37:33 | 49.14680 | 8.50674 | 207° | 9km/h | 30913m | 4.3m/s | -41.2°C | 0.3% | 11.1hPa | 2.5V | 03:10:00 | 00:00:00 | 00:00:00 | |
| DL1XH1-15 | 2026-09-02 18:37:32 | 49.14673 | 8.50664 | 67° | 2km/h | 30874m | 5.9m/s | -41.3°C | 2.1% | 11.2hPa | 2.5V | 03:10:26 | 02:05:08 | 00:00:00 | |
| DK7TD | 2026-09-02 18:37:30 | 49.14678 | 8.50670 | 40° | 13km/h | 30890m | 4.7m/s | -41.3°C | 0% | 11.1hPa | 2.5V | 03:11:28 | 02:05:11 | 00:00:00 | |
| BIOWL1-15 | 2026-09-02 18:37:27 | 49.14673 | 8.50664 | 67° | 2km/h | 30874m | 5.9m/s | -41.3°C | 0% | 11.2hPa | 2.5V | 03:10:37 | 02:05:08 | 00:00:00 | |
| DL1XH-west | 2026-09-02 18:37:26 | 49.14674 | 8.50664 | 183° | 5km/h | 30869m | 5.5m/s | -41.3°C | 0% | 11.2hPa | 2.5V | 03:10:37 | 02:05:07 | 00:00:00 | |
| DJ2KF-10 | 2026-09-02 18:37:26 | 49.14674 | 8.50664 | 184° | 13km/h | 30869m | 5.4m/s | -41.3°C | 2.1% | 11.2hPa | 2.6V | 00:00:00 | 02:05:07 | 00:00:00 | |
| BIOWL9-15 | 2026-09-02 18:37:25 | 49.14676 | 8.50664 | 177° | 9km/h | 30864m | 4.9m/s | -41.3°C | -1.0% | -1.0hPa | 2.6V | 00:00:00 | 00:00:00 | 00:00:00 | |
| DL1XH-15 | 2026-09-02 18:37:24 | 49.14689 | 8.50642 | 90° | 11km/h | 30832m | 4.5m/s | -41.5°C | 2.1% | 11.2hPa | 2.6V | 03:10:34 | 02:05:00 | 00:00:00 | |
| HARRO8 | 2026-09-02 18:37:23 | 49.14685 | 8.50658 | 134° | 15km/h | 30848m | 5.8m/s | -41.4°C | 0.3% | 11.2hPa | 2.5V | 00:00:00 | 00:00:00 | 00:00:00 | |
| DL1XH1-15 | 2026-09-02 18:37:22 | 49.14688 | 8.50638 | 354° | 5km/h | 30822m | 5.7m/s | -41.7°C | 2.1% | 11.2hPa | 2.5V | 03:10:36 | 02:04:58 | 00:00:00 | |
| DK7TD | 2026-09-02 18:37:19 | 49.14689 | 8.50642 | 90° | 11km/h | 30833m | 4.5m/s | -41.6°C | 0% | 11.2hPa | 2.6V | 03:11:28 | 02:05:00 | 00:00:00 | |
| BIOWL1-15 | 2026-09-02 18:37:16 | 49.14686 | 8.50640 | 321° | 11km/h | 30816m | 5.6m/s | -41.7°C | 0% | 11.3hPa | 2.5V | 03:10:37 | 02:04:57 | 00:00:00 | |
| DL1XH-west | 2026-09-02 18:37:15 | 49.14684 | 8.50643 | 314° | 13km/h | 30811m | 5m/s | -41.8°C | 0% | 11.3hPa | 2.5V | 03:11:28 | 02:04:56 | 00:00:00 | |
| DB0NH | 2026-09-02 18:37:15 | 49.14684 | 8.50642 | 315° | 15km/h | 30812m | 5.0m/s | -41.7°C | 2.1% | 11.2hPa | 2.5V | 00:00:00 | 02:04:56 | 00:00:00 | |
| SONCRA | 2026-09-02 18:37:14 | 49.14681 | 8.50646 | 317° | 13km/h | 30806m | 4.7m/s | -41.7°C | 0.3% | 11.3hPa | 2.6V | 00:00:00 | 00:00:00 | 00:00:00 | |
| DF1GD-15 | 2026-09-02 18:37:13 | 49.14681 | 8.50646 | 318° | 15km/h | 30807m | 4.7m/s | -41.7°C | 0.3% | 11.3hPa | 2.6V | 03:11:00 | 00:00:00 | 00:00:00 | |
| DL1XH1-15 | 2026-09-02 18:37:12 | 49.14663 | 8.50652 | 334° | 15km/h | 30768m | 5.6m/s | -41.9°C | 2.2% | 11.4hPa | 2.6V | 03:10:46 | 02:04:48 | 00:00:00 | |
| BIOWL1-15 | 2026-09-02 18:37:10 | 49.14660 | 8.50655 | 332° | 16km/h | 30763m | 4.4m/s | -41.9°C | 0% | 11.4hPa | 2.5V | 03:11:28 | 02:04:47 | 00:00:00 | |
| DL1XH-west | 2026-09-02 18:37:05 | 49.14656 | 8.50658 | 335° | 18km/h | 30759m | 4.3m/s | -41.9°C | 0% | 11.4hPa | 2.5V | 03:11:28 | 02:04:46 | 00:00:00 | |
| DL1XH-15 | 2026-09-02 18:37:04 | 49.14629 | 8.50668 | 327° | 15km/h | 30729m | 4.9m/s | -42°C | 2.2% | 11.4hPa | 2.5V | 03:10:54 | 02:04:40 | 00:00:00 | |
| DL8DAS-15 | 2026-09-02 18:37:03 | 49.14651 | 8.50661 | 342° | 20km/h | 30754m | 5.3m/s | -41.9°C | 0.4% | 11.4hPa | 2.6V | 03:11:00 | 00:00:00 | 00:00:00 | |
| DL1XH1-15 | 2026-09-02 18:37:02 | 49.14624 | 8.50678 | 287° | 18km/h | 30717m | 6.3m/s | -42°C | 2.2% | 11.4hPa | 2.6V | 03:10:56 | 02:04:38 | 00:00:00 | |
| DK7TD | 2026-09-02 18:37:01 | 49.14637 | 8.50665 | 354° | 18km/h | 30738m | 4.6m/s | -42°C | 0% | 11.4hPa | 2.5V | 03:11:28 | 02:04:42 | 00:00:00 | |
| BIOWL1-15 | 2026-09-02 18:36:56 | 49.14623 | 8.50685 | 277° | 22km/h | 30711m | 5.5m/s | -42°C | 0% | 11.4hPa | 2.5V | 03:11:28 | 02:04:37 | 00:00:00 | |
| HSKMA3-T | 2026-09-02 18:36:55 | 49.14623 | 8.50693 | 271° | 20km/h | 30706m | 4.5m/s | -42°C | 0% | 11.5hPa | 2.5V | 03:11:28 | 02:04:36 | 00:00:00 | |
| DL1XH-west | 2026-09-02 18:36:54 | 49.14623 | 8.50700 | 272° | 15km/h | 30702m | 4.5m/s | -42.1°C | 0% | 11.5hPa | 2.6V | 03:11:28 | 02:04:35 | 00:00:00 | |
| BIOWL1-15 | 2026-09-02 18:36:47 | 49.14598 | 8.50711 | 312° | 20km/h | 30654m | 4.9m/s | -42.4°C | 0% | 11.6hPa | 2.5V | 03:11:28 | 02:04:26 | 00:00:00 | |
| DB0ND-19 | 2026-09-02 18:36:46 | 49.14601 | 8.50706 | 323° | 18km/h | 30659m | 4.7m/s | -42.3°C | 0.4% | 11.6hPa | 2.5V | 00:00:00 | 00:00:00 | 00:00:00 | |
| DL1XH-west | 2026-09-02 18:36:43 | 49.14593 | 8.50722 | 287° | 15km/h | 30643m | 5.7m/s | -42.4°C | 0% | 11.6hPa | 2.5V | 03:11:28 | 02:04:24 | 00:00:00 | |
| DK7TD | 2026-09-02 18:36:39 | 49.14597 | 8.50739 | 236° | 15km/h | 30622m | 5.9m/s | -42.4°C | 0% | 11.6hPa | 2.6V | 03:11:28 | 02:04:20 | 00:00:00 | |
| HSKMA3-T | 2026-09-02 18:36:36 | 49.14602 | 8.50752 | 237° | 9km/h | 30606m | 4.4m/s | -42.4°C | 0% | 11.6hPa | 2.5V | 03:11:28 | 02:04:17 | 00:00:00 | |
| BIOWL1-15 | 2026-09-02 18:36:36 | 49.14603 | 8.50753 | 116° | 4km/h | 30596m | 6.3m/s | -42.4°C | 0% | 11.7hPa | 2.6V | 03:11:28 | 02:04:15 | 00:00:00 | |
| DL1XH-15 | 2026-09-02 18:36:34 | 49.14603 | 8.50748 | 264° | 11km/h | 30570m | 6.2m/s | -42.4°C | 2.3% | 11.7hPa | 2.6V | 03:11:24 | 02:04:10 | 00:00:00 | |
| DL1XH-west | 2026-09-02 18:36:32 | 49.14603 | 8.50748 | 87° | 9km/h | 30584m | 4.6m/s | -42.4°C | 0% | 11.7hPa | 2.5V | 03:11:28 | 02:04:13 | 00:00:00 | |
| HSKMA3-T | 2026-09-02 18:36:25 | 49.14608 | 8.50787 | 253° | 29km/h | 30549m | 4.1m/s | -42.4°C | 0% | 11.7hPa | 2.6V | 03:11:28 | 02:04:06 | 00:00:00 | |
| DL1XH-15 | 2026-09-02 18:36:24 | 49.14612 | 8.50803 | 19° | 7km/h | 30517m | 5.6m/s | -42.4°C | 2.2% | 11.8hPa | 2.5V | 03:11:34 | 02:04:00 | 00:00:00 | |
| DK7TD | 2026-09-02 18:36:24 | 49.14611 | 8.50797 | 248° | 22km/h | 30544m | 5.3m/s | -42.4°C | 0% | 11.7hPa | 2.6V | 03:16:34 | 02:04:05 | 00:00:00 | |
| BIOWL1-15 | 2026-09-02 18:36:23 | 49.14613 | 8.50803 | 238° | 15km/h | 30539m | 5.6m/s | -42.4°C | 0% | 11.8hPa | 2.5V | 03:12:19 | 02:04:04 | 00:00:00 | |
| DL1XH1-15 | 2026-09-02 18:36:22 | 49.14609 | 8.50806 | 292° | 9km/h | 30507m | 4.6m/s | -42.4°C | 2.2% | 11.8hPa | 2.5V | 03:11:36 | 02:03:58 | 00:00:00 | |
| DL1XH-west | 2026-09-02 18:36:22 | 49.14614 | 8.50806 | 223° | 4km/h | 30533m | 5.5m/s | -42.4°C | 0% | 11.8hPa | 2.5V | 03:12:19 | 02:04:03 | 00:00:00 | |
| HSKMA3-T | 2026-09-02 18:36:15 | 49.14610 | 8.50815 | 242° | 18km/h | 30496m | 5.7m/s | -42.4°C | 0% | 11.8hPa | 2.6V | 03:12:19 | 02:03:56 | 00:00:00 | |
| BIOWL1-15 | 2026-09-02 18:36:14 | 49.14622 | 8.50836 | 224° | 27km/h | 30479m | 4.7m/s | -42.4°C | 0% | 11.9hPa | 2.5V | 03:12:19 | 02:03:53 | 00:00:00 | |
| DO1YAY-16 | 2026-09-02 18:36:13 | 49.14617 | 8.50828 | 224° | 26km/h | 30485m | 5.7m/s | -42.4°C | 0.3% | 11.8hPa | 2.6V | 00:00:00 | 00:00:00 | 00:00:00 | |
| DL1XH1-15 | 2026-09-02 18:36:12 | 49.14635 | 8.50865 | 260° | 5km/h | 30453m | 5.4m/s | -42.6°C | 2.2% | 11.9hPa | 2.6V | 03:11:46 | 02:03:48 | 00:00:00 | |
| DL1XH-west | 2026-09-02 18:36:11 | 49.14627 | 8.50843 | 228° | 26km/h | 30475m | 4.5m/s | -42.4°C | 0% | 11.9hPa | 2.5V | 03:12:19 | 02:03:52 | 00:00:00 | |
| DK7TD | 2026-09-02 18:36:06 | 49.14635 | 8.50866 | 170° | 2km/h | 30447m | 6.4m/s | -42.6°C | 0% | 11.9hPa | 2.6V | 03:16:34 | 02:03:47 | 00:00:00 | |
| HSKMA3-T | 2026-09-02 18:36:05 | 49.14636 | 8.50865 | 124° | 5km/h | 30441m | 6m/s | -42.7°C | 0% | 11.9hPa | 2.5V | 03:12:19 | 02:03:46 | 00:00:00 | |
| BIOWL1-15 | 2026-09-02 18:36:03 | 49.14644 | 8.50863 | 220° | 15km/h | 30422m | 6.2m/s | -42.8°C | 0% | 11.9hPa | 2.6V | 03:12:19 | 02:03:42 | 00:00:00 | |
| DL1XH1-15 | 2026-09-02 18:36:02 | 49.14658 | 8.50895 | 231° | 31km/h | 30399m | 4.8m/s | -42.9°C | 2.3% | 12hPa | 2.5V | 03:11:56 | 02:03:38 | 00:00:00 | |
| DL1XH-west | 2026-09-02 18:36:00 | 49.14647 | 8.50868 | 236° | 20km/h | 30416m | 6.3m/s | -42.8°C | 0% | 12hPa | 2.6V | 03:12:19 | 02:03:41 | 00:00:00 | |
| HSKMA3-T | 2026-09-02 18:35:54 | 49.14675 | 8.50915 | 200° | 24km/h | 30383m | 4.7m/s | -42.9°C | 0% | 12hPa | 2.6V | 03:12:19 | 02:03:35 | 00:00:00 | |
| DL8DAS-15 | 2026-09-02 18:35:53 | 49.14675 | 8.50915 | 201° | 24km/h | 30383m | 4.7m/s | -42.9°C | 0.4% | 12.0hPa | 2.6V | 00:00:00 | 00:00:00 | 00:00:00 | |
| DL1XH1-15 | 2026-09-02 18:35:52 | 49.14688 | 8.50935 | 271° | 11km/h | 30346m | 5.3m/s | -43°C | 2.3% | 12.1hPa | 2.6V | 03:12:06 | 02:03:28 | 00:00:00 | |
| BIOWL1-15 | 2026-09-02 18:35:50 | 49.14689 | 8.50924 | 256° | 7km/h | 30362m | 6.1m/s | -43°C | 0% | 12.1hPa | 2.5V | 03:12:19 | 02:03:31 | 00:00:00 | |
| DL1XH-west | 2026-09-02 18:35:49 | 49.14689 | 8.50927 | 279° | 11km/h | 30356m | 5.4m/s | -43°C | 0% | 12.1hPa | 2.5V | 03:12:19 | 02:03:30 | 00:00:00 | |
| DK7TD | 2026-09-02 18:35:48 | 49.14688 | 8.50931 | 285° | 11km/h | 30351m | 5m/s | -43°C | 0% | 12.1hPa | 2.6V | 03:16:34 | 02:03:29 | 00:00:00 | |
| SONDE2-11 | 2026-09-02 18:35:48 | 49.14688 | 8.50935 | 271° | 11km/h | 30346m | 5.3m/s | -43.1°C | 0.3% | 12.1hPa | 2.5V | 00:00:00 | 00:00:00 | 00:00:00 | |
| DD1CC8 | 2026-09-02 18:35:46 | 49.14688 | 8.50940 | 248° | 9km/h | 30340m | 6.0m/s | -43.1°C | 0.4% | 12.1hPa | 2.5V | 00:00:00 | 00:00:00 | 00:00:00 | |
| HSKMA3-T | 2026-09-02 18:35:44 | 49.14693 | 8.50947 | 217° | 18km/h | 30329m | 4.9m/s | -43.1°C | 0% | 12.1hPa | 2.5V | 03:12:19 | 02:03:25 | 00:00:00 | |
| BIOWL7-15 | 2026-09-02 18:35:43 | 49.14693 | 8.50947 | 218° | 18km/h | 30329m | 4.9m/s | -43.1°C | 0.4% | 12.1hPa | 2.6V | 03:12:00 | 00:00:00 | 00:00:00 | |
| DL1XH1-15 | 2026-09-02 18:35:42 | 49.14715 | 8.50980 | 192° | 7km/h | 30292m | 6.6m/s | -43.1°C | 2.3% | 12.2hPa | 2.6V | 03:12:16 | 02:03:18 | 00:00:00 | |
| BIOWL1-15 | 2026-09-02 18:35:42 | 49.14708 | 8.50970 | 233° | 20km/h | 30307m | 4.8m/s | -43.1°C | 0% | 12.2hPa | 2.5V | 03:12:19 | 02:03:21 | 00:00:00 | |
| DL1XH-west | 2026-09-02 18:35:39 | 49.14711 | 8.50975 | 231° | 15km/h | 30303m | 4.5m/s | -43.1°C | 0% | 12.2hPa | 2.5V | 03:12:19 | 02:03:20 | 00:00:00 | |
| DK7TD | 2026-09-02 18:35:36 | 49.14717 | 8.50980 | 160° | 7km/h | 30286m | 5.8m/s | -43.1°C | 0% | 12.2hPa | 2.5V | 03:16:34 | 02:03:17 | 00:00:00 | |
| HSKMA3-T | 2026-09-02 18:35:34 | 49.14720 | 8.50978 | 168° | 5km/h | 30276m | 4.7m/s | -43.2°C | 0% | 12.2hPa | 2.6V | 03:12:19 | 02:03:15 | 00:00:00 | |
| BIOWL1-15 | 2026-09-02 18:35:34 | 49.14727 | 8.50993 | 241° | 22km/h | 30254m | 4.5m/s | -43.3°C | 0% | 12.3hPa | 2.5V | 03:13:10 | 02:03:11 | 00:00:00 | |
| DL1XH1-15 | 2026-09-02 18:35:32 | 49.14738 | 8.51010 | 200° | 22km/h | 30239m | 6m/s | -43.3°C | 2.3% | 12.3hPa | 2.6V | 03:12:26 | 02:03:08 | 00:00:00 | |
| DK5PH-5 | 2026-09-02 18:35:31 | 49.14724 | 8.50986 | 247° | 16km/h | 30260m | 5.3m/s | -43.2°C | 2.3% | 12.2hPa | 2.5V | 00:00:00 | 02:03:12 | 00:00:00 | |
| DF1GD-15 | 2026-09-02 18:35:30 | 49.14724 | 8.50986 | 247° | 18km/h | 30260m | 5.3m/s | -43.2°C | 0.4% | 12.2hPa | 2.5V | 03:13:00 | 00:00:00 | 00:00:00 | |
| DL1XH-15 | 2026-09-02 18:35:29 | 49.14752 | 8.51010 | 157° | 13km/h | 30223m | 4.9m/s | -43.4°C | 2.3% | 12.3hPa | 2.5V | 03:12:29 | 02:03:05 | 00:00:00 | |
| DL1XH-west | 2026-09-02 18:35:28 | 49.14734 | 8.51006 | 218° | 22km/h | 30244m | 5.6m/s | -43.3°C | 0% | 12.3hPa | 2.6V | 03:13:10 | 02:03:09 | 00:00:00 | |
| HSKMA3-T | 2026-09-02 18:35:24 | 49.14752 | 8.51010 | 158° | 13km/h | 30223m | 4.9m/s | -43.4°C | 0% | 12.3hPa | 2.5V | 03:13:10 | 02:03:05 | 00:00:00 | |
| BIOWL1-15 | 2026-09-02 18:35:21 | 49.14756 | 8.51010 | 240° | 5km/h | 30195m | 5.8m/s | -43.6°C | 0% | 12.4hPa | 2.6V | 03:13:10 | 02:03:00 | 00:00:00 | |
| DN1GJH-1 | 2026-09-02 18:35:20 | 49.14756 | 8.51007 | 296° | 2km/h | 30206m | 5.2m/s | -43.5°C | 0.4% | 12.4hPa | 2.6V | 03:13:00 | 00:00:00 | 00:00:00 | |
| DL1XH-15 | 2026-09-02 18:35:19 | 49.14774 | 8.51029 | 216° | 27km/h | 30167m | 6.2m/s | -43.7°C | 2.3% | 12.4hPa | 2.6V | 03:12:39 | 02:02:55 | 00:00:00 | |
| DL1XH-west | 2026-09-02 18:35:18 | 49.14757 | 8.51012 | 217° | 11km/h | 30190m | 5.9m/s | -43.6°C | 0% | 12.4hPa | 2.5V | 03:13:10 | 02:02:59 | 00:00:00 | |
| HSKMA3-T | 2026-09-02 18:35:13 | 49.14780 | 8.51035 | 218° | 26km/h | 30161m | 5.2m/s | -43.7°C | 0% | 12.4hPa | 2.6V | 03:13:10 | 02:02:54 | 00:00:00 | |
| DO1YAY-16 | 2026-09-02 18:35:11 | 49.14790 | 8.51044 | 200° | 18km/h | 30152m | 4.2m/s | -43.8°C | 0.4% | 12.4hPa | 2.5V | 00:00:00 | 00:00:00 | 00:00:00 | |
| SONCRA | 2026-09-02 18:35:10 | 49.14794 | 8.51045 | 181° | 18km/h | 30147m | 6.1m/s | -43.8°C | 0.4% | 12.5hPa | 2.5V | 00:00:00 | 00:00:00 | 00:00:00 | |
| BIOWL1-15 | 2026-09-02 18:35:10 | 49.14803 | 8.51041 | 145° | 20km/h | 30134m | 5.7m/s | -43.9°C | 0% | 12.5hPa | 2.5V | 03:13:10 | 02:02:49 | 00:00:00 | |
| DL1XH-15 | 2026-09-02 18:35:09 | 49.14814 | 8.51034 | 230° | 13km/h | 30114m | 5.8m/s | -44°C | 2.4% | 12.5hPa | 2.5V | 03:12:49 | 02:02:45 | 00:00:00 | |
| DL1XH-west | 2026-09-02 18:35:07 | 49.14807 | 8.51037 | 140° | 16km/h | 30129m | 4.2m/s | -43.9°C | 0% | 12.5hPa | 2.6V | 03:13:10 | 02:02:48 | 00:00:00 | |
| DK7TD | 2026-09-02 18:35:06 | 49.14810 | 8.51033 | 148° | 13km/h | 30125m | 4.5m/s | -44°C | 0% | 12.5hPa | 2.6V | 03:16:34 | 02:02:47 | 00:00:00 | |
| DJ2DS-15 | 2026-09-02 18:35:06 | 49.14810 | 8.51033 | 149° | 20km/h | 30125m | 4.5m/s | -43.9°C | 2.3% | 12.5hPa | 2.5V | 00:00:00 | 02:02:47 | 00:00:00 | |
| DL8DAS-14 | 2026-09-02 18:35:05 | 49.14814 | 8.51034 | 230° | 11km/h | 30114m | 5.8m/s | -44.0°C | 0.4% | 12.5hPa | 2.5V | 00:00:00 | 00:00:00 | 00:00:00 | |
| DJ2DS-15 | 2026-09-02 18:35:04 | 49.14814 | 8.51034 | 230° | 11km/h | 30114m | 5.8m/s | -44.0°C | 0.4% | 12.5hPa | 2.5V | 00:00:00 | 00:00:00 | 00:00:00 | |
| DL1XH1-15 | 2026-09-02 18:35:02 | 49.14847 | 8.51073 | 188° | 27km/h | 30076m | 5m/s | -44.2°C | 2.4% | 12.6hPa | 2.5V | 03:12:56 | 02:02:38 | 00:00:00 | |
| HSKMA3-T | 2026-09-02 18:35:02 | 49.14819 | 8.51046 | 237° | 24km/h | 30103m | 4.7m/s | -44.1°C | 0% | 12.5hPa | 2.5V | 03:13:10 | 02:02:43 | 00:00:00 | |
| DL1ZP-14 | 2026-09-02 18:35:00 | 49.14834 | 8.51067 | 206° | 27km/h | 30087m | 5.7m/s | -44.2°C | 0.4% | 12.6hPa | 2.6V | 00:00:00 | 00:00:00 | 00:00:00 | |
| DL1XH-15 | 2026-09-02 18:34:59 | 49.14865 | 8.51077 | 199° | 20km/h | 30061m | 5.9m/s | -44.2°C | 2.4% | 12.6hPa | 2.5V | 03:12:59 | 02:02:35 | 00:00:00 | |
| BIOWL1-15 | 2026-09-02 18:34:59 | 49.14847 | 8.51073 | 188° | 27km/h | 30076m | 5m/s | -44.2°C | 0% | 12.6hPa | 2.5V | 03:13:10 | 02:02:38 | 00:00:00 | |
| DL1XH-west | 2026-09-02 18:34:56 | 49.14854 | 8.51074 | 186° | 26km/h | 30071m | 4.7m/s | -44.2°C | 0% | 12.6hPa | 2.5V | 03:13:10 | 02:02:37 | 00:00:00 | |
| DJ2KF-10 | 2026-09-02 18:34:56 | 49.14854 | 8.51074 | 186° | 15km/h | 30072m | 4.7m/s | -44.2°C | 2.4% | 12.6hPa | 2.6V | 00:00:00 | 02:02:37 | 00:00:00 | |
| DM7RM-13 | 2026-09-02 18:34:54 | 49.14860 | 8.51075 | 191° | 24km/h | 30067m | 5.2m/s | -44.2°C | 0.4% | 12.6hPa | 2.6V | 03:13:00 | 00:00:00 | 00:00:00 | |
| DK7TD | 2026-09-02 18:34:54 | 49.14865 | 8.51077 | 199° | 20km/h | 30061m | 5.9m/s | -44.3°C | 0% | 12.6hPa | 2.5V | 03:16:34 | 02:02:35 | 00:00:00 | |
| DL1XH1-15 | 2026-09-02 18:34:52 | 49.14889 | 8.51095 | 174° | 16km/h | 30022m | 5m/s | -44.7°C | 2.5% | 12.7hPa | 2.6V | 03:13:06 | 02:02:28 | 00:00:00 | |
| HSKMA3-T | 2026-09-02 18:34:52 | 49.14873 | 8.51085 | 221° | 16km/h | 30049m | 5.2m/s | -44.3°C | 0% | 12.6hPa | 2.6V | 03:13:10 | 02:02:33 | 00:00:00 | |
| DL1XH-15 | 2026-09-02 18:34:49 | 49.14901 | 8.51095 | 200° | 15km/h | 30006m | 6m/s | -44.7°C | 2.4% | 12.7hPa | 2.5V | 03:13:09 | 02:02:25 | 00:00:00 | |
| BIOWL1-15 | 2026-09-02 18:34:47 | 49.14889 | 8.51095 | 175° | 16km/h | 30022m | 5.1m/s | -44.7°C | 0% | 12.7hPa | 2.6V | 03:13:10 | 02:02:28 | 00:00:00 | |
| DL1XH-west | 2026-09-02 18:34:46 | 49.14893 | 8.51094 | 177° | 16km/h | 30017m | 4.6m/s | -44.7°C | 0% | 12.7hPa | 2.6V | 03:13:10 | 02:02:27 | 00:00:00 | |
| SONDE2-11 | 2026-09-02 18:34:45 | 49.14897 | 8.51094 | 186° | 15km/h | 30012m | 5.8m/s | -44.6°C | 0.4% | 12.7hPa | 2.5V | 00:00:00 | 00:00:00 | 00:00:00 | |
| DK7TD | 2026-09-02 18:34:44 | 49.14900 | 8.51096 | 200° | 15km/h | 30006m | 6m/s | -44.7°C | 0% | 12.7hPa | 2.5V | 03:16:34 | 02:02:25 | 00:00:00 | |
| HSKMA3-T | 2026-09-02 18:34:41 | 49.14909 | 8.51102 | 197° | 11km/h | 29991m | 5.2m/s | -44.7°C | 0% | 12.8hPa | 2.6V | 03:14:01 | 02:02:22 | 00:00:00 | |
| DO1YAY-16 | 2026-09-02 18:34:41 | 49.14912 | 8.51102 | 172° | 9km/h | 29985m | 6.5m/s | -44.8°C | 0.4% | 12.8hPa | 2.5V | 00:00:00 | 00:00:00 | 00:00:00 | |
| DL1XH-15 | 2026-09-02 18:34:39 | 49.14927 | 8.51092 | 192° | 9km/h | 29950m | 5.5m/s | -45°C | 2.5% | 12.8hPa | 2.5V | 03:13:19 | 02:02:15 | 00:00:00 | |
| BIOWL1-15 | 2026-09-02 18:34:37 | 49.14920 | 8.51095 | 144° | 13km/h | 29968m | 5m/s | -44.9°C | 0% | 12.8hPa | 2.6V | 03:14:01 | 02:02:18 | 00:00:00 | |
| DL1XH-west | 2026-09-02 18:34:35 | 49.14924 | 8.51092 | 175° | 9km/h | 29956m | 6.3m/s | -45°C | 0% | 12.8hPa | 2.5V | 03:14:01 | 02:02:16 | 00:00:00 | |
| DK7TD | 2026-09-02 18:34:33 | 49.14929 | 8.51093 | 194° | 11km/h | 29945m | 5.2m/s | -45.1°C | 0% | 12.9hPa | 2.6V | 03:16:34 | 02:02:14 | 00:00:00 | |
| DL1XH1-15 | 2026-09-02 18:34:32 | 49.14951 | 8.51086 | 171° | 15km/h | 29913m | 6m/s | -45.2°C | 2.5% | 12.9hPa | 2.6V | 03:13:26 | 02:02:08 | 00:00:00 | |
| HSKMA3-T | 2026-09-02 18:34:31 | 49.14935 | 8.51093 | 171° | 15km/h | 29933m | 6.4m/s | -45.1°C | 0% | 12.9hPa | 2.5V | 03:14:01 | 02:02:12 | 00:00:00 | |
| BIOWL1-15 | 2026-09-02 18:34:28 | 49.14955 | 8.51086 | 187° | 13km/h | 29907m | 6.6m/s | -45.3°C | 0% | 12.9hPa | 2.6V | 03:14:01 | 02:02:07 | 00:00:00 | |
| DL1XH-west | 2026-09-02 18:34:24 | 49.14960 | 8.51088 | 198° | 11km/h | 29895m | 4.9m/s | -45.3°C | 0% | 12.9hPa | 2.5V | 03:14:01 | 02:02:05 | 00:00:00 | |
| DL1XH1-15 | 2026-09-02 18:34:22 | 49.14980 | 8.51080 | 194° | 11km/h | 29856m | 6.6m/s | -45.4°C | 2.6% | 13hPa | 2.5V | 03:13:36 | 02:01:58 | 00:00:00 | |
| DK7TD | 2026-09-02 18:34:22 | 49.14965 | 8.51089 | 167° | 11km/h | 29884m | 6.6m/s | -45.3°C | 0% | 13hPa | 2.5V | 03:16:34 | 02:02:03 | 00:00:00 | |
| IW2NTF | 2026-09-02 18:34:21 | 49.14983 | 8.51082 | 217° | 11km/h | 29850m | 5.6m/s | -45.4°C | 2.5% | 13hPa | 2.5V | 03:13:37 | 02:01:57 | 00:00:00 | |
| HSKMA3-T | 2026-09-02 18:34:20 | 49.14971 | 8.51084 | 149° | 15km/h | 29873m | 5.2m/s | -45.4°C | 0% | 13hPa | 2.6V | 03:14:01 | 02:02:01 | 00:00:00 | |
| BIOWL1-15 | 2026-09-02 18:34:16 | 49.14985 | 8.51085 | 222° | 13km/h | 29844m | 4.8m/s | -45.4°C | 0% | 13hPa | 2.5V | 03:14:01 | 02:01:56 | 00:00:00 | |
| DL1XH-west | 2026-09-02 18:34:14 | 49.14987 | 8.51088 | 212° | 11km/h | 29840m | 4.8m/s | -45.4°C | 0% | 13hPa | 2.5V | 03:14:01 | 02:01:55 | 00:00:00 | |
| DD1CC8 | 2026-09-02 18:34:13 | 49.14993 | 8.51089 | 167° | 13km/h | 29828m | 6.5m/s | -45.4°C | 0.4% | 13.1hPa | 2.5V | 00:00:00 | 00:00:00 | 00:00:00 | |
| DM0DOS-11 | 2026-09-02 18:34:12 | 49.15013 | 8.51077 | 170° | 15km/h | 29799m | 5.6m/s | -45.5°C | 2.6% | 13.1hPa | 2.5V | 03:13:46 | 02:01:48 | 00:00:00 | |
| IW2NTF | 2026-09-02 18:34:11 | 49.15017 | 8.51076 | 171° | 15km/h | 29794m | 5.3m/s | -45.5°C | 2.6% | 13.1hPa | 2.6V | 03:13:47 | 02:01:47 | 00:00:00 | |
| DK7TD | 2026-09-02 18:34:11 | 49.14997 | 8.51087 | 155° | 16km/h | 29822m | 5.8m/s | -45.4°C | 0% | 13.1hPa | 2.6V | 03:16:34 | 02:01:52 | 00:00:00 | |
| HSKMA3-T | 2026-09-02 18:34:09 | 49.15005 | 8.51081 | 156° | 18km/h | 29811m | 5.8m/s | -45.4°C | 0% | 13.1hPa | 2.5V | 03:14:01 | 02:01:50 | 00:00:00 | |
| DL1XH-west | 2026-09-02 18:34:04 | 49.15025 | 8.51074 | 165° | 16km/h | 29782m | 6.5m/s | -45.5°C | 0% | 13.2hPa | 2.6V | 03:14:01 | 02:01:45 | 00:00:00 | |
| DH7VM-15 | 2026-09-02 18:34:02 | 49.15029 | 8.51072 | 163° | 18km/h | 29776m | 5.6m/s | -45.5°C | 0.4% | 13.2hPa | 2.5V | 00:00:00 | 00:00:00 | 00:00:00 | |
| IW2NTF | 2026-09-02 18:34:01 | 49.15051 | 8.51075 | 178° | 11km/h | 29740m | 4.7m/s | -45.5°C | 2.6% | 13.2hPa | 2.5V | 03:13:57 | 02:01:37 | 00:00:00 | |
| HSKMA3-T | 2026-09-02 18:33:59 | 49.15043 | 8.51070 | 206° | 13km/h | 29755m | 6.3m/s | -45.5°C | 0% | 13.2hPa | 2.6V | 03:14:01 | 02:01:40 | 00:00:00 | |
| DK7TD | 2026-09-02 18:33:58 | 49.15046 | 8.51072 | 215° | 11km/h | 29749m | 5.5m/s | -45.5°C | 0% | 13.2hPa | 2.6V | 03:16:34 | 02:01:39 | 00:00:00 | |
| DL1XH-15 | 2026-09-02 18:33:57 | 49.15070 | 8.51055 | 141° | 33km/h | 29716m | 4.8m/s | -45.5°C | 2.6% | 13.3hPa | 2.6V | 03:14:01 | 02:01:33 | 00:00:00 | |
| DL1XH-west | 2026-09-02 18:33:53 | 49.15064 | 8.51063 | 139° | 31km/h | 29721m | 6m/s | -45.5°C | 0% | 13.3hPa | 2.5V | 03:14:01 | 02:01:34 | 00:00:00 | |
| HSKMA3-T | 2026-09-02 18:33:49 | 49.15090 | 8.51039 | 171° | 24km/h | 29701m | 5.9m/s | -45.4°C | 0% | 13.3hPa | 2.5V | 03:14:52 | 02:01:30 | 00:00:00 | |
| BIOWL9-15 | 2026-09-02 18:33:48 | 49.15099 | 8.51041 | 209° | 15km/h | 29690m | 5.1m/s | -45.4°C | 0.4% | 13.3hPa | 2.5V | 00:00:00 | 00:00:00 | 00:00:00 | |
| DL1XH-15 | 2026-09-02 18:33:47 | 49.15108 | 8.51044 | 143° | 11km/h | 29662m | 5m/s | -45.5°C | 2.6% | 13.4hPa | 2.5V | 03:14:11 | 02:01:23 | 00:00:00 | |
| DK7TD | 2026-09-02 18:33:45 | 49.15104 | 8.51046 | 217° | 7km/h | 29678m | 6.3m/s | -45.4°C | 0% | 13.4hPa | 2.6V | 03:16:34 | 02:01:26 | 00:00:00 | |
| BIOWL1-15 | 2026-09-02 18:33:43 | 49.15106 | 8.51046 | 141° | 7km/h | 29667m | 4.9m/s | -45.4°C | 0% | 13.4hPa | 2.6V | 03:14:52 | 02:01:24 | 00:00:00 | |
| DL1XH1-15 | 2026-09-02 18:33:42 | 49.15135 | 8.51030 | 164° | 33km/h | 29634m | 4.7m/s | -45.6°C | 2.6% | 13.4hPa | 2.6V | 03:14:16 | 02:01:18 | 00:00:00 | |
| DL1XH-west | 2026-09-02 18:33:42 | 49.15108 | 8.51044 | 143° | 11km/h | 29662m | 5m/s | -45.5°C | 0% | 13.4hPa | 2.5V | 03:14:52 | 02:01:23 | 00:00:00 | |
| HSKMA3-T | 2026-09-02 18:33:38 | 49.15127 | 8.51033 | 166° | 29km/h | 29638m | 5m/s | -45.6°C | 0% | 13.4hPa | 2.6V | 03:14:52 | 02:01:19 | 00:00:00 | |
| DO3MHA-11 | 2026-09-02 18:33:37 | 49.15135 | 8.51030 | 165° | 22km/h | 29634m | 4.7m/s | -45.6°C | 2.6% | 13.4hPa | 2.6V | 00:00:00 | 02:01:18 | 00:00:00 | |
| NBG1-10 | 2026-09-02 18:33:36 | 49.15143 | 8.51026 | 161° | 29km/h | 29629m | 5.1m/s | -45.6°C | 2.6% | 13.4hPa | 2.6V | 00:00:00 | 02:01:17 | 00:00:00 | |
| DB0UT-9 | 2026-09-02 18:33:35 | 49.15143 | 8.51026 | 161° | 33km/h | 29629m | 5.1m/s | -45.6°C | 0.5% | 13.4hPa | 2.5V | 03:14:00 | 00:00:00 | 00:00:00 | |
| IW2NTF | 2026-09-02 18:33:33 | 49.15178 | 8.51009 | 232° | 13km/h | 29584m | 5m/s | -45.7°C | 2.6% | 13.6hPa | 2.5V | 03:14:25 | 02:01:09 | 00:00:00 | |
| DL1XH1-15 | 2026-09-02 18:33:32 | 49.15180 | 8.51012 | 224° | 11km/h | 29579m | 4.8m/s | -45.7°C | 2.6% | 13.6hPa | 2.5V | 03:14:26 | 02:01:08 | 00:00:00 | |
| DL1XH-west | 2026-09-02 18:33:32 | 49.15168 | 8.51005 | 149° | 18km/h | 29607m | 4.8m/s | -45.7°C | 0% | 13.5hPa | 2.5V | 03:14:52 | 02:01:13 | 00:00:00 | |
| DK7TD | 2026-09-02 18:33:31 | 49.15171 | 8.51003 | 166° | 13km/h | 29602m | 5.8m/s | -45.7°C | 0% | 13.5hPa | 2.6V | 03:16:34 | 02:01:12 | 00:00:00 | |
| HSKMA3-T | 2026-09-02 18:33:28 | 49.15178 | 8.51009 | 232° | 13km/h | 29584m | 5m/s | -45.7°C | 0% | 13.6hPa | 2.5V | 03:14:52 | 02:01:09 | 00:00:00 | |
| DL1XH-15 | 2026-09-02 18:33:27 | 49.15198 | 8.51001 | 152° | 29km/h | 29551m | 6m/s | -45.8°C | 2.6% | 13.6hPa | 2.6V | 03:14:31 | 02:01:03 | 00:00:00 | |
| DO3MHA-11 | 2026-09-02 18:33:27 | 49.15180 | 8.51012 | 225° | 22km/h | 29579m | 4.8m/s | -45.7°C | 2.6% | 13.5hPa | 2.5V | 03:14:00 | 02:01:08 | 00:00:00 | |
| DJ2KF-10 | 2026-09-02 18:33:26 | 49.15182 | 8.51014 | 196° | 20km/h | 29574m | 5.9m/s | -45.7°C | 2.6% | 13.5hPa | 2.5V | 00:00:00 | 02:01:07 | 00:00:00 | |
| DL3AQ-11 | 2026-09-02 18:33:25 | 49.15187 | 8.51010 | 145° | 18km/h | 29562m | 5.3m/s | -45.8°C | -1.0% | -1.0hPa | 2.5V | 00:00:00 | 00:00:00 | 00:00:00 | |
| IW2NTF | 2026-09-02 18:33:23 | 49.15226 | 8.50989 | 175° | 24km/h | 29530m | 4.7m/s | -45.8°C | 2.6% | 13.6hPa | 2.5V | 03:14:35 | 02:00:59 | 00:00:00 | |
| AU51GT2 | 2026-09-02 18:33:23 | 49.15198 | 8.51001 | 152° | 27km/h | 29551m | 6.0m/s | -45.8°C | 0.4% | 13.6hPa | 2.6V | 00:00:00 | 00:00:00 | 00:00:00 | |
| DL1XH1-15 | 2026-09-02 18:33:22 | 49.15231 | 8.50989 | 174° | 16km/h | 29524m | 6.2m/s | -45.8°C | 2.6% | 13.7hPa | 2.6V | 03:14:36 | 02:00:58 | 00:00:00 | |
| BIOWL1-15 | 2026-09-02 18:33:21 | 49.15205 | 8.50996 | 160° | 31km/h | 29545m | 6.4m/s | -45.8°C | 0% | 13.6hPa | 2.5V | 03:14:52 | 02:01:02 | 00:00:00 | |
| DL4BBY-15 | 2026-09-02 18:33:18 | 49.15226 | 8.50989 | 176° | 20km/h | 29531m | 4.6m/s | -44.7°C | 0% | 0hPa | 2.5V | 00:00:00 | 00:00:00 | 00:00:00 | |
| DL1XH-15 | 2026-09-02 18:33:17 | 49.15239 | 8.50994 | 239° | 13km/h | 29496m | 6.2m/s | -45.8°C | 2.6% | 13.7hPa | 2.5V | 03:14:41 | 02:00:53 | 00:00:00 | |
| HSKMA3-T | 2026-09-02 18:33:17 | 49.15231 | 8.50989 | 175° | 16km/h | 29524m | 6.2m/s | -45.8°C | 0% | 13.7hPa | 2.6V | 03:14:52 | 02:00:58 | 00:00:00 | |
| DK7TD | 2026-09-02 18:33:14 | 49.15237 | 8.50989 | 246° | 4km/h | 29507m | 5m/s | -45.8°C | 0% | 13.7hPa | 2.5V | 03:16:34 | 02:00:55 | 00:00:00 | |
| DL1XH1-15 | 2026-09-02 18:33:12 | 49.15265 | 8.51012 | 177° | 27km/h | 29469m | 5.9m/s | -45.7°C | 2.6% | 13.8hPa | 2.5V | 03:14:46 | 02:00:48 | 00:00:00 | |
| DL1XH-west | 2026-09-02 18:33:10 | 49.15245 | 8.51004 | 213° | 24km/h | 29485m | 5.3m/s | -45.7°C | 0% | 13.8hPa | 2.6V | 03:14:52 | 02:00:51 | 00:00:00 | |
| DB0ND-19 | 2026-09-02 18:33:09 | 49.15251 | 8.51009 | 200° | 27km/h | 29480m | 4.9m/s | -45.7°C | 0.4% | 13.8hPa | 2.6V | 00:00:00 | 00:00:00 | 00:00:00 | |
| DL1XH-15 | 2026-09-02 18:33:07 | 49.15287 | 8.50998 | 182° | 9km/h | 29442m | 5.9m/s | -45.7°C | 2.6% | 13.8hPa | 2.6V | 03:14:51 | 02:00:43 | 00:00:00 | |
| HSKMA3-T | 2026-09-02 18:33:04 | 49.15282 | 8.51003 | 143° | 18km/h | 29453m | 4.7m/s | -45.7°C | 0% | 13.8hPa | 2.5V | 03:14:52 | 02:00:45 | 00:00:00 | |
| BIOWL1-15 | 2026-09-02 18:33:00 | 49.15293 | 8.51005 | 230° | 20km/h | 29430m | 5.9m/s | -45.8°C | 0% | 13.9hPa | 2.5V | 03:15:43 | 02:00:41 | 00:00:00 | |
| DL1XH-west | 2026-09-02 18:32:59 | 49.15297 | 8.51012 | 230° | 26km/h | 29424m | 4.9m/s | -45.8°C | 0% | 13.9hPa | 2.5V | 03:15:43 | 02:00:40 | 00:00:00 | |
| DL3AQ-11 | 2026-09-02 18:32:58 | 49.15355 | 8.51032 | 192° | 26km/h | 29375m | 5.4m/s | -45.8°C | -1.0% | -1.0hPa | 2.5V | 00:00:00 | 00:00:00 | 00:00:00 | |
| DL1XH-15 | 2026-09-02 18:32:57 | 49.15340 | 8.51030 | 179° | 31km/h | 29386m | 6.1m/s | -45.8°C | 2.6% | 14hPa | 2.5V | 03:15:01 | 02:00:33 | 00:00:00 | |
| DL1ZP-14 | 2026-09-02 18:32:55 | 49.15318 | 8.51031 | 185° | 26km/h | 29403m | 5.6m/s | -45.8°C | 0.4% | 13.9hPa | 2.6V | 00:00:00 | 00:00:00 | 00:00:00 | |
| HEMX73-11 | 2026-09-02 18:32:54 | 49.15318 | 8.51031 | 186° | 26km/h | 29403m | 5.6m/s | -45.8°C | 0.4% | 13.9hPa | 2.6V | 03:15:00 | 00:00:00 | 00:00:00 | |
| IW2NTF | 2026-09-02 18:32:53 | 49.15366 | 8.51037 | 198° | 18km/h | 29364m | 5.5m/s | -45.8°C | 2.7% | 14hPa | 2.6V | 03:15:05 | 02:00:29 | 00:00:00 | |
| HSKMA3-T | 2026-09-02 18:32:53 | 49.15332 | 8.51031 | 176° | 31km/h | 29392m | 6m/s | -45.8°C | 0% | 13.9hPa | 2.5V | 03:15:43 | 02:00:34 | 00:00:00 | |
| DL1XH1-15 | 2026-09-02 18:32:52 | 49.15369 | 8.51039 | 196° | 15km/h | 29358m | 6.8m/s | -45.8°C | 2.6% | 14hPa | 2.6V | 03:15:06 | 02:00:28 | 00:00:00 | |
| DL1XH-west | 2026-09-02 18:32:49 | 49.15361 | 8.51035 | 197° | 24km/h | 29369m | 4.9m/s | -45.8°C | 0% | 14hPa | 2.6V | 03:15:43 | 02:00:30 | 00:00:00 | |
| BIOWL9-15 | 2026-09-02 18:32:46 | 49.15375 | 8.51041 | 193° | 11km/h | 29347m | 4.8m/s | -45.8°C | 0.4% | 14.0hPa | 2.5V | 00:00:00 | 00:00:00 | 00:00:00 | |
| DB0UT-7 | 2026-09-02 18:32:45 | 49.15375 | 8.51041 | 194° | 22km/h | 29347m | 4.7m/s | -45.7°C | 2.6% | 14.0hPa | 2.5V | 03:15:00 | 02:00:26 | 00:00:00 | |
| DL6DJ-15 | 2026-09-02 18:32:44 | 49.15383 | 8.51045 | 200° | 20km/h | 29336m | 6.4m/s | -45.7°C | 0.4% | 14.1hPa | 2.5V | 00:00:00 | 00:00:00 | 00:00:00 | |
| IW2NTF | 2026-09-02 18:32:43 | 49.15420 | 8.51053 | 172° | 33km/h | 29306m | 6m/s | -45.7°C | 2.6% | 14.1hPa | 2.5V | 03:15:15 | 02:00:19 | 00:00:00 | |
| DK7TD | 2026-09-02 18:32:43 | 49.15383 | 8.51045 | 201° | 20km/h | 29336m | 6.4m/s | -45.7°C | 0% | 14.1hPa | 2.5V | 03:16:34 | 02:00:24 | 00:00:00 | |
| DF3TZ-5 | 2026-09-02 18:32:43 | 49.15388 | 8.51048 | 199° | 26km/h | 29330m | 5.9m/s | -45.7°C | 0.4% | 14.1hPa | 2.5V | 00:00:00 | 00:00:00 | 00:00:00 | |
| DL1XH1-15 | 2026-09-02 18:32:42 | 49.15428 | 8.51051 | 166° | 31km/h | 29301m | 4.9m/s | -45.7°C | 2.6% | 14.1hPa | 2.5V | 03:15:16 | 02:00:18 | 00:00:00 | |
| HSKMA3-T | 2026-09-02 18:32:42 | 49.15388 | 8.51048 | 199° | 27km/h | 29330m | 5.9m/s | -45.7°C | 0% | 14.1hPa | 2.6V | 03:15:43 | 02:00:23 | 00:00:00 | |
| DL1XH-west | 2026-09-02 18:32:39 | 49.15412 | 8.51054 | 180° | 35km/h | 29313m | 6.4m/s | -45.7°C | 0% | 14.1hPa | 2.5V | 03:15:43 | 02:00:20 | 00:00:00 | |
| DB0ND-19 | 2026-09-02 18:32:38 | 49.15420 | 8.51053 | 172° | 33km/h | 29307m | 6.0m/s | -45.7°C | 0.4% | 14.1hPa | 2.5V | 00:00:00 | 00:00:00 | 00:00:00 | |
| BIOWL1-15 | 2026-09-02 18:32:38 | 49.15420 | 8.51053 | 172° | 33km/h | 29307m | 6m/s | -45.7°C | 0% | 14.1hPa | 2.5V | 03:15:43 | 02:00:19 | 00:00:00 | |
| CB1BUN | 2026-09-02 18:32:37 | 49.15428 | 8.51051 | 168° | 31km/h | 29301m | 4.9m/s | -45.7°C | 0.4% | 14.1hPa | 2.5V | 03:15:00 | 00:00:00 | 00:00:00 | |
| DB0NH | 2026-09-02 18:32:36 | 49.15436 | 8.51048 | 165° | 22km/h | 29296m | 4.7m/s | -45.7°C | 2.6% | 14.1hPa | 2.5V | 00:00:00 | 02:00:17 | 00:00:00 | |
| SONCRA | 2026-09-02 18:32:35 | 49.15442 | 8.51046 | 168° | 26km/h | 29291m | 5.9m/s | -45.8°C | 0.4% | 14.2hPa | 2.6V | 00:00:00 | 00:00:00 | 00:00:00 | |
| HEMX73-11 | 2026-09-02 18:32:33 | 49.15449 | 8.51044 | 176° | 24km/h | 29285m | 5.8m/s | -45.8°C | 0.4% | 14.2hPa | 2.6V | 03:15:00 | 00:00:00 | 00:00:00 | |
| DL1XH1-15 | 2026-09-02 18:32:32 | 49.15470 | 8.51045 | 176° | 11km/h | 29246m | 4.5m/s | -45.7°C | 2.6% | 14.3hPa | 2.6V | 03:15:26 | 02:00:08 | 00:00:00 | |
| HSKMA3-T | 2026-09-02 18:32:31 | 49.15462 | 8.51046 | 190° | 11km/h | 29269m | 5.2m/s | -45.8°C | 0% | 14.2hPa | 2.5V | 03:15:43 | 02:00:12 | 00:00:00 | |
| BIOWL1-15 | 2026-09-02 18:32:29 | 49.15470 | 8.51045 | 177° | 11km/h | 29246m | 4.5m/s | -45.7°C | 0% | 14.3hPa | 2.6V | 03:15:43 | 02:00:08 | 00:00:00 | |
| DL1XH-west | 2026-09-02 18:32:28 | 49.15468 | 8.51046 | 166° | 7km/h | 29251m | 4.7m/s | -45.7°C | 0% | 14.3hPa | 2.6V | 03:15:43 | 02:00:09 | 00:00:00 | |
| DK7TD | 2026-09-02 18:32:26 | 49.15474 | 8.51045 | 185° | 16km/h | 29241m | 6.1m/s | -45.7°C | 0% | 14.3hPa | 2.6V | 03:16:34 | 02:00:07 | 00:00:00 | |
| SFWM-10 | 2026-09-02 18:32:26 | 49.15474 | 8.51045 | 186° | 16km/h | 29242m | 6.1m/s | -45.7°C | 0.4% | 14.3hPa | 2.5V | 00:00:00 | 00:00:00 | 00:00:00 | |
| DL1ZP-14 | 2026-09-02 18:32:24 | 49.15486 | 8.51048 | 189° | 29km/h | 29229m | 5.9m/s | -45.6°C | 0.5% | 14.3hPa | 2.5V | 00:00:00 | 00:00:00 | 00:00:00 | |
| IW2NTF | 2026-09-02 18:32:23 | 49.15526 | 8.51045 | 172° | 15km/h | 29195m | 5.1m/s | -45.5°C | 2.6% | 14.4hPa | 2.5V | 03:15:35 | 01:59:59 | 00:00:00 | |
| BIOWL7-15 | 2026-09-02 18:32:23 | 49.15485 | 8.51048 | 190° | 29km/h | 29229m | 5.9m/s | -45.6°C | 0.5% | 14.3hPa | 2.5V | 00:00:00 | 00:00:00 | 00:00:00 | |
| DL1XH1-15 | 2026-09-02 18:32:22 | 49.15529 | 8.51045 | 191° | 13km/h | 29189m | 6.5m/s | -45.5°C | 2.6% | 14.4hPa | 2.5V | 03:15:36 | 01:59:58 | 00:00:00 | |
| HSKMA3-T | 2026-09-02 18:32:21 | 49.15509 | 8.51050 | 175° | 29km/h | 29211m | 6.3m/s | -45.6°C | 0% | 14.3hPa | 2.6V | 03:15:43 | 02:00:02 | 00:00:00 | |
| DL1XH-west | 2026-09-02 18:32:17 | 49.15529 | 8.51045 | 191° | 13km/h | 29189m | 6.5m/s | -45.5°C | 0% | 14.4hPa | 2.5V | 03:15:43 | 01:59:58 | 00:00:00 | |
| DO3MHA-11 | 2026-09-02 18:32:17 | 49.15529 | 8.51045 | 192° | 15km/h | 29189m | 6.5m/s | -45.5°C | 2.6% | 14.3hPa | 2.5V | 00:00:00 | 01:59:58 | 00:00:00 | |
| DN1GJH-1 | 2026-09-02 18:32:16 | 49.15529 | 8.51045 | 192° | 13km/h | 29189m | 6.5m/s | -45.5°C | 0.4% | 14.4hPa | 2.5V | 03:15:00 | 00:00:00 | 00:00:00 | |
| DB0UT-7 | 2026-09-02 18:32:15 | 49.15535 | 8.51050 | 228° | 18km/h | 29178m | 5.2m/s | -45.5°C | 2.6% | 14.4hPa | 2.5V | 00:00:00 | 00:00:00 | 00:00:00 | |
| DB0UT-9 | 2026-09-02 18:32:14 | 49.15535 | 8.51050 | 228° | 13km/h | 29178m | 5.2m/s | -45.6°C | 0.4% | 14.4hPa | 2.5V | 03:15:00 | 00:00:00 | 00:00:00 | |
| DL1XH-15 | 2026-09-02 18:32:13 | 49.15559 | 8.51067 | 198° | 26km/h | 29138m | 6m/s | -45.6°C | 2.6% | 14.5hPa | 2.5V | 03:15:45 | 01:59:49 | 00:00:00 | |
| DK7TD | 2026-09-02 18:32:13 | 49.15539 | 8.51057 | 222° | 11km/h | 29166m | 6.2m/s | -45.6°C | 0% | 14.4hPa | 2.6V | 03:16:34 | 01:59:54 | 00:00:00 | |
| DL6DJ-15 | 2026-09-02 18:32:13 | 49.15541 | 8.51059 | 204° | 11km/h | 29161m | 5.6m/s | -45.6°C | 0.4% | 14.4hPa | 2.6V | 00:00:00 | 00:00:00 | 00:00:00 | |
| DL1XH1-15 | 2026-09-02 18:32:12 | 49.15566 | 8.51070 | 196° | 26km/h | 29133m | 4.9m/s | -45.6°C | 2.6% | 14.5hPa | 2.6V | 03:15:46 | 01:59:48 | 00:00:00 | |
| HSKMA3-T | 2026-09-02 18:32:10 | 49.15549 | 8.51063 | 193° | 18km/h | 29150m | 5m/s | -45.6°C | 0% | 14.5hPa | 2.5V | 03:15:43 | 01:59:51 | 00:00:00 | |
| DL1XH-west | 2026-09-02 18:32:07 | 49.15566 | 8.51070 | 197° | 26km/h | 29133m | 4.9m/s | -45.6°C | 0% | 14.5hPa | 2.6V | 03:16:34 | 01:59:48 | 00:00:00 | |
| BIOWL1-15 | 2026-09-02 18:32:06 | 49.15572 | 8.51073 | 192° | 24km/h | 29128m | 4.8m/s | -45.6°C | 0% | 14.5hPa | 2.6V | 03:16:34 | 01:59:47 | 00:00:00 | |
| DJ2DS-15 | 2026-09-02 18:32:06 | 49.15572 | 8.51073 | 192° | 20km/h | 29128m | 4.8m/s | -45.5°C | 2.6% | 14.5hPa | 2.6V | 00:00:00 | 01:59:47 | 00:00:00 | |
| DO1YAY-16 | 2026-09-02 18:32:05 | 49.15582 | 8.51074 | 172° | 15km/h | 29116m | 6.3m/s | -45.5°C | 0.4% | 14.6hPa | 2.6V | 00:00:00 | 00:00:00 | 00:00:00 | |
| SONCRA | 2026-09-02 18:32:04 | 49.15585 | 8.51073 | 164° | 11km/h | 29111m | 5.4m/s | -45.5°C | 0.4% | 14.6hPa | 2.6V | 00:00:00 | 00:00:00 | 00:00:00 | |
| DL1XH-15 | 2026-09-02 18:32:03 | 49.15598 | 8.51083 | 220° | 20km/h | 29083m | 4.7m/s | -45.5°C | 2.6% | 14.6hPa | 2.6V | 03:15:55 | 01:59:39 | 00:00:00 | |
| DL1XH1-15 | 2026-09-02 18:32:02 | 49.15602 | 8.51088 | 211° | 22km/h | 29079m | 4.8m/s | -45.5°C | 2.6% | 14.6hPa | 2.5V | 03:15:56 | 01:59:38 | 00:00:00 | |
| HSKMA3-T | 2026-09-02 18:31:59 | 49.15595 | 8.51079 | 225° | 16km/h | 29089m | 5.5m/s | -45.5°C | 0% | 14.6hPa | 2.6V | 03:16:34 | 01:59:40 | 00:00:00 | |
| DL1XH-west | 2026-09-02 18:31:57 | 49.15602 | 8.51088 | 212° | 22km/h | 29079m | 4.8m/s | -45.5°C | 0% | 14.6hPa | 2.5V | 03:16:34 | 01:59:38 | 00:00:00 | |
| BIOWL1-15 | 2026-09-02 18:31:55 | 49.15613 | 8.51093 | 183° | 24km/h | 29068m | 6m/s | -45.6°C | 0% | 14.7hPa | 2.5V | 03:16:34 | 01:59:36 | 00:00:00 | |
| DL3AQ-11 | 2026-09-02 18:31:54 | 49.15619 | 8.51093 | 171° | 26km/h | 29062m | 5.4m/s | -45.6°C | -1.0% | -1.0hPa | 2.5V | 00:00:00 | 00:00:00 | 00:00:00 | |
| DL1XH-15 | 2026-09-02 18:31:53 | 49.15660 | 8.51087 | 189° | 20km/h | 29030m | 5.5m/s | -45.8°C | 2.6% | 14.7hPa | 2.5V | 03:16:05 | 01:59:29 | 00:00:00 | |
| DB0NH | 2026-09-02 18:31:53 | 49.15625 | 8.51091 | 168° | 26km/h | 29057m | 4.8m/s | -45.6°C | 2.6% | 14.6hPa | 2.5V | 00:00:00 | 01:59:34 | 00:00:00 | |
| DL1XH1-15 | 2026-09-02 18:31:52 | 49.15664 | 8.51089 | 193° | 15km/h | 29024m | 6.8m/s | -45.9°C | 2.6% | 14.7hPa | 2.5V | 03:16:06 | 01:59:28 | 00:00:00 | |
| HSKMA3-T | 2026-09-02 18:31:49 | 49.15655 | 8.51086 | 185° | 24km/h | 29036m | 4.9m/s | -45.8°C | 0% | 14.7hPa | 2.5V | 03:16:34 | 01:59:30 | 00:00:00 | |
| DK7TD | 2026-09-02 18:31:47 | 49.15664 | 8.51089 | 194° | 15km/h | 29024m | 6.8m/s | -45.9°C | 0% | 14.8hPa | 2.5V | 03:16:34 | 01:59:28 | 00:00:00 | |
| DL1XH-west | 2026-09-02 18:31:46 | 49.15667 | 8.51090 | 199° | 11km/h | 29018m | 6m/s | -45.9°C | 0% | 14.8hPa | 2.6V | 03:16:34 | 01:59:27 | 00:00:00 | |
| BIOWL1-15 | 2026-09-02 18:31:45 | 49.15670 | 8.51091 | 198° | 11km/h | 29012m | 4.8m/s | -45.9°C | 0% | 14.8hPa | 2.6V | 03:16:34 | 01:59:26 | 00:00:00 | |
| DB0UT-7 | 2026-09-02 18:31:45 | 49.15670 | 8.51091 | 199° | 27km/h | 29013m | 4.8m/s | -45.8°C | 2.6% | 14.7hPa | 2.6V | 00:00:00 | 01:59:26 | 00:00:00 | |
| BIOWL9-15 | 2026-09-02 18:31:44 | 49.15677 | 8.51095 | 193° | 18km/h | 29002m | 5.9m/s | -45.9°C | 0.4% | 14.8hPa | 2.6V | 00:00:00 | 00:00:00 | 00:00:00 | |
| DL1XH-15 | 2026-09-02 18:31:43 | 49.15717 | 8.51091 | 160° | 37km/h | 28975m | 6.3m/s | -45.9°C | 2.7% | 14.8hPa | 2.6V | 03:16:15 | 01:59:19 | 00:00:00 | |
| DL1XH1-15 | 2026-09-02 18:31:42 | 49.15726 | 8.51086 | 154° | 35km/h | 28969m | 6m/s | -45.8°C | 2.7% | 14.8hPa | 2.6V | 03:16:16 | 01:59:18 | 00:00:00 | |
| HSKMA3-T | 2026-09-02 18:31:38 | 49.15717 | 8.51091 | 161° | 37km/h | 28975m | 6.3m/s | -45.9°C | 0% | 14.8hPa | 2.6V | 03:16:34 | 01:59:19 | 00:00:00 | |
| DL1XH-west | 2026-09-02 18:31:35 | 49.15741 | 8.51074 | 153° | 33km/h | 28958m | 5.8m/s | -45.8°C | 0% | 14.9hPa | 2.5V | 03:16:34 | 01:59:16 | 00:00:00 | |
| BIOWL1-15 | 2026-09-02 18:31:34 | 49.15748 | 8.51069 | 157° | 31km/h | 28952m | 5.9m/s | -45.8°C | 0% | 14.9hPa | 2.5V | 03:16:34 | 01:59:15 | 00:00:00 | |
| DO1YAY-16 | 2026-09-02 18:31:34 | 49.15755 | 8.51065 | 161° | 26km/h | 28947m | 5.0m/s | -45.8°C | 0.4% | 14.9hPa | 2.5V | 00:00:00 | 00:00:00 | 00:00:00 | |
| DL1XH-15 | 2026-09-02 18:31:33 | 49.15777 | 8.51048 | 145° | 20km/h | 28919m | 4.6m/s | -45.8°C | 2.6% | 15hPa | 2.5V | 03:16:25 | 01:59:09 | 00:00:00 | |
| SONCRA | 2026-09-02 18:31:33 | 49.15755 | 8.51065 | 161° | 26km/h | 28947m | 5.0m/s | -45.8°C | 0.4% | 14.9hPa | 2.5V | 00:00:00 | 00:00:00 | 00:00:00 | |
| DL1XH1-15 | 2026-09-02 18:31:32 | 49.15782 | 8.51044 | 152° | 24km/h | 28915m | 5.7m/s | -45.8°C | 2.6% | 15hPa | 2.5V | 03:16:26 | 01:59:08 | 00:00:00 | |
| HSKMA3-T | 2026-09-02 18:31:28 | 49.15777 | 8.51048 | 146° | 20km/h | 28920m | 4.6m/s | -45.8°C | 0% | 15hPa | 2.5V | 03:16:34 | 01:59:09 | 00:00:00 | |
| DL1XH-west | 2026-09-02 18:31:25 | 49.15795 | 8.51035 | 161° | 35km/h | 28903m | 5.3m/s | -45.7°C | 0% | 15hPa | 2.6V | 03:16:34 | 01:59:06 | 00:00:00 | |
| DK7TD | 2026-09-02 18:31:24 | 49.15803 | 8.51031 | 159° | 37km/h | 28897m | 4.6m/s | -45.7°C | 0% | 15hPa | 2.6V | 03:16:34 | 01:59:05 | 00:00:00 | |
| DL1XH-15 | 2026-09-02 18:31:23 | 49.15840 | 8.50988 | 131° | 22km/h | 28865m | 6m/s | -45.7°C | 2.6% | 15.1hPa | 2.6V | 03:16:35 | 01:58:59 | 00:00:00 | |
| HSKMA3-T | 2026-09-02 18:31:17 | 49.15844 | 8.50982 | 139° | 20km/h | 28859m | 6m/s | -45.7°C | 0% | 15.1hPa | 2.6V | 18:12:15 | 01:58:58 | 00:00:00 | |
| DL1XH-west | 2026-09-02 18:31:15 | 49.15851 | 8.50974 | 146° | 18km/h | 28849m | 4.7m/s | -45.7°C | 0% | 15.1hPa | 2.5V | 03:17:25 | 01:58:56 | 00:00:00 | |
| DK7TD | 2026-09-02 18:31:14 | 49.15855 | 8.50970 | 139° | 18km/h | 28844m | 5m/s | -45.7°C | 0% | 15.2hPa | 2.5V | 03:17:25 | 01:58:55 | 00:00:00 | |
| KANTATE | 2026-09-02 18:31:14 | 49.15855 | 8.50969 | 139° | 18km/h | 28844m | 5.0m/s | -45.7°C | 0.4% | 15.2hPa | 2.5V | 03:17:00 | 00:00:00 | 00:00:00 | |
| DL1XH-15 | 2026-09-02 18:31:13 | 49.15879 | 8.50932 | 147° | 27km/h | 28810m | 5.2m/s | -45.9°C | 2.7% | 15.2hPa | 2.5V | 03:16:45 | 01:58:49 | 00:00:00 | |
| BIOWL9-15 | 2026-09-02 18:31:13 | 49.15861 | 8.50958 | 124° | 20km/h | 28833m | 5.7m/s | -45.8°C | 0.4% | 15.2hPa | 2.5V | 00:00:00 | 00:00:00 | 00:00:00 | |
| DL1XH1-15 | 2026-09-02 18:31:12 | 49.15885 | 8.50926 | 147° | 26km/h | 28805m | 4.3m/s | -45.9°C | 2.6% | 15.2hPa | 2.5V | 03:16:46 | 01:58:48 | 00:00:00 | |
| HSKMA3-T | 2026-09-02 18:31:07 | 49.15885 | 8.50926 | 148° | 26km/h | 28805m | 4.3m/s | -45.9°C | 0% | 0hPa | 2.5V | 18:12:15 | 01:58:48 | 00:00:00 | |
| BIOWL1-15 | 2026-09-02 18:31:04 | 49.15897 | 8.50908 | 116° | 22km/h | 28790m | 6.1m/s | -45.9°C | 0% | 15.3hPa | 2.6V | 03:17:25 | 01:58:45 | 00:00:00 | |
| DO1YAY-16 | 2026-09-02 18:31:03 | 49.15900 | 8.50892 | 100° | 20km/h | 28779m | 5.4m/s | -45.9°C | 0.4% | 15.3hPa | 2.6V | 00:00:00 | 00:00:00 | 00:00:00 | |
| DL1XH1-15 | 2026-09-02 18:31:02 | 49.15910 | 8.50853 | 110° | 26km/h | 28751m | 5.9m/s | -45.9°C | 2.6% | 15.4hPa | 2.6V | 03:16:56 | 01:58:38 | 00:00:00 | |
| DK7TD | 2026-09-02 18:31:02 | 49.15900 | 8.50892 | 101° | 22km/h | 28778m | 5.4m/s | -45.9°C | 0% | 15.3hPa | 2.6V | 03:17:25 | 01:58:43 | 00:00:00 | |
| HSKMA3-T | 2026-09-02 18:30:57 | 49.15910 | 8.50853 | 111° | 26km/h | 28752m | 5.9m/s | -45.9°C | 0% | 0hPa | 2.6V | 18:12:15 | 01:58:38 | 00:00:00 | |
| BIOWL1-15 | 2026-09-02 18:30:54 | 49.15917 | 8.50823 | 114° | 27km/h | 28735m | 4.7m/s | -45.8°C | 0% | 15.4hPa | 2.5V | 03:17:25 | 01:58:35 | 00:00:00 | |
| CB1BUN | 2026-09-02 18:30:53 | 49.15916 | 8.50823 | 115° | 27km/h | 28735m | 4.7m/s | -45.8°C | 0.5% | 15.4hPa | 2.5V | 03:17:00 | 00:00:00 | 00:00:00 | |
| DL1XH1-15 | 2026-09-02 18:30:52 | 49.15931 | 8.50784 | 65° | 16km/h | 28697m | 5.6m/s | -45.9°C | 2.6% | 15.5hPa | 2.5V | 03:17:06 | 01:58:28 | 00:00:00 | |
| DK7TD | 2026-09-02 18:30:52 | 49.15926 | 8.50802 | 137° | 18km/h | 28719m | 4.7m/s | -45.9°C | 0% | 15.4hPa | 2.5V | 03:17:25 | 01:58:32 | 00:00:00 | |
| DJ2DS-15 | 2026-09-02 18:30:52 | 49.15923 | 8.50807 | 131° | 22km/h | 28724m | 5.7m/s | -45.8°C | 0.4% | 15.4hPa | 2.5V | 00:00:00 | 00:00:00 | 00:00:00 | |
| DL1ZP-14 | 2026-09-02 18:30:51 | 49.15926 | 8.50802 | 137° | 16km/h | 28719m | 4.7m/s | -45.9°C | 0.4% | 15.4hPa | 2.5V | 00:00:00 | 00:00:00 | 00:00:00 | |
| DF7PN | 2026-09-02 18:30:48 | 49.15932 | 8.50789 | 82° | 11km/h | 28703m | 6.4m/s | -45.9°C | 0.5% | 15.5hPa | 2.6V | 00:00:00 | 00:00:00 | 00:00:00 | |
| AU51GT2 | 2026-09-02 18:30:47 | 49.15931 | 8.50784 | 65° | 15km/h | 28697m | 5.6m/s | -45.9°C | 0.4% | 15.5hPa | 2.6V | 00:00:00 | 00:00:00 | 00:00:00 | |
| BIOWL1-15 | 2026-09-02 18:30:45 | 49.15928 | 8.50757 | 111° | 18km/h | 28677m | 5.7m/s | -45.9°C | 0% | 15.5hPa | 2.6V | 03:17:25 | 01:58:24 | 00:00:00 | |
| DL1XH-west | 2026-09-02 18:30:44 | 49.15927 | 8.50764 | 91° | 18km/h | 28683m | 5.7m/s | -45.9°C | 0% | 15.5hPa | 2.5V | 03:17:25 | 01:58:25 | 00:00:00 | |
| DL1XH1-15 | 2026-09-02 18:30:42 | 49.15942 | 8.50728 | 113° | 11km/h | 28645m | 5.2m/s | -45.9°C | 2.6% | 15.6hPa | 2.5V | 03:17:16 | 01:58:18 | 00:00:00 | |
| DK7TD | 2026-09-02 18:30:40 | 49.15936 | 8.50741 | 135° | 18km/h | 28662m | 5.4m/s | -45.9°C | 0% | 15.6hPa | 2.5V | 03:17:25 | 01:58:21 | 00:00:00 | |
| DF3TZ-5 | 2026-09-02 18:30:39 | 49.15941 | 8.50732 | 120° | 11km/h | 28651m | 5.6m/s | -45.9°C | 0.5% | 15.6hPa | 2.5V | 00:00:00 | 00:00:00 | 00:00:00 | |
| NBG1-10 | 2026-09-02 18:30:38 | 49.15941 | 8.50732 | 121° | 11km/h | 28651m | 5.5m/s | -45.9°C | 2.7% | 15.5hPa | 2.5V | 03:17:00 | 01:58:19 | 00:00:00 | |
| DO3MHA-11 | 2026-09-02 18:30:37 | 49.15942 | 8.50728 | 114° | 7km/h | 28646m | 5.1m/s | -45.8°C | 2.6% | 15.6hPa | 2.5V | 00:00:00 | 01:58:18 | 00:00:00 | |
| DL1XH-15 | 2026-09-02 18:30:36 | 49.15950 | 8.50712 | 121° | 5km/h | 28613m | 5.4m/s | -45.8°C | 2.6% | 15.7hPa | 2.5V | 03:17:22 | 01:58:12 | 00:00:00 | |
| DL1XH-west | 2026-09-02 18:30:34 | 49.15946 | 8.50718 | 136° | 9km/h | 28629m | 5.9m/s | -45.9°C | 0% | 15.7hPa | 2.6V | 03:17:25 | 01:58:15 | 00:00:00 | |
| BIOWL1-15 | 2026-09-02 18:30:33 | 49.15948 | 8.50716 | 145° | 9km/h | 28623m | 5m/s | -45.9°C | 0% | 15.7hPa | 2.5V | 03:17:25 | 01:58:14 | 00:00:00 | |
| DK7TD | 2026-09-02 18:30:29 | 49.15950 | 8.50709 | 52° | 5km/h | 28602m | 5.2m/s | -45.8°C | 0% | 15.7hPa | 2.6V | 03:17:25 | 01:58:10 | 00:00:00 | |
| IW2NTF | 2026-09-02 18:30:28 | 49.15962 | 8.50695 | 150° | 18km/h | 28570m | 5.5m/s | -45.8°C | 2.6% | 15.8hPa | 2.5V | 03:17:30 | 01:58:04 | 00:00:00 | |
| DO3MHA-11 | 2026-09-02 18:30:27 | 49.15950 | 8.50706 | 124° | 13km/h | 28593m | 5.0m/s | -45.8°C | 2.7% | 15.7hPa | 2.6V | 00:00:00 | 01:58:08 | 00:00:00 | |
| DL1XH-15 | 2026-09-02 18:30:26 | 49.15968 | 8.50688 | 137° | 13km/h | 28558m | 5.2m/s | -45.8°C | 2.6% | 15.8hPa | 2.6V | 03:17:32 | 01:58:02 | 00:00:00 | |
| DL1XH-west | 2026-09-02 18:30:23 | 49.15962 | 8.50695 | 151° | 18km/h | 28570m | 5.5m/s | -45.8°C | 0% | 15.8hPa | 2.5V | 03:18:16 | 01:58:04 | 00:00:00 | |
| DB0NH | 2026-09-02 18:30:22 | 49.15966 | 8.50691 | 145° | 11km/h | 28564m | 5.8m/s | -45.7°C | 2.6% | 15.8hPa | 2.6V | 00:00:00 | 01:58:03 | 00:00:00 | |
| DL1ZP-14 | 2026-09-02 18:30:20 | 49.15970 | 8.50685 | 135° | 9km/h | 28554m | 4.5m/s | -45.8°C | 0.4% | 15.8hPa | 2.6V | 00:00:00 | 00:00:00 | 00:00:00 | |
| DF1GD-15 | 2026-09-02 18:30:19 | 49.15971 | 8.50685 | 136° | 9km/h | 28554m | 4.5m/s | -45.8°C | 0.5% | 15.8hPa | 2.6V | 03:18:00 | 00:00:00 | 00:00:00 | |
| IW2NTF | 2026-09-02 18:30:18 | 49.15977 | 8.50671 | 68° | 9km/h | 28515m | 5.1m/s | -45.8°C | 2.6% | 15.9hPa | 2.6V | 03:17:40 | 01:57:54 | 00:00:00 | |
| DK7TD | 2026-09-02 18:30:18 | 49.15974 | 8.50681 | 151° | 9km/h | 28542m | 6.2m/s | -45.8°C | 0% | 15.9hPa | 2.5V | 03:18:16 | 01:57:59 | 00:00:00 | |
| DL4BBY-15 | 2026-09-02 18:30:18 | 49.15974 | 8.50681 | 151° | 11km/h | 28543m | 6.2m/s | -44.7°C | 0% | 0hPa | 2.5V | 00:00:00 | 00:00:00 | 00:00:00 | |
| AU51GT2 | 2026-09-02 18:30:17 | 49.15977 | 8.50678 | 137° | 5km/h | 28532m | 4.8m/s | -45.8°C | 0.4% | 15.9hPa | 2.5V | 00:00:00 | 00:00:00 | 00:00:00 | |
| DL1XH-15 | 2026-09-02 18:30:16 | 49.15977 | 8.50663 | 114° | 11km/h | 28506m | 4.7m/s | -45.7°C | 2.6% | 15.9hPa | 2.5V | 03:17:42 | 01:57:52 | 00:00:00 | |
| BIOWL1-15 | 2026-09-02 18:30:13 | 49.15977 | 8.50671 | 69° | 9km/h | 28515m | 5.1m/s | -45.8°C | 0% | 15.9hPa | 2.6V | 03:18:16 | 01:57:54 | 00:00:00 | |
| DL1XH-west | 2026-09-02 18:30:12 | 49.15976 | 8.50667 | 86° | 9km/h | 28510m | 4.2m/s | -45.8°C | 0% | 15.9hPa | 2.5V | 03:18:16 | 01:57:53 | 00:00:00 | |
| DB0UT-9 | 2026-09-02 18:30:11 | 49.15977 | 8.50663 | 116° | 11km/h | 28506m | 4.7m/s | -45.7°C | 0.5% | 15.9hPa | 2.5V | 03:18:00 | 00:00:00 | 00:00:00 | |
| KANTATE | 2026-09-02 18:30:10 | 49.15977 | 8.50663 | 116° | 11km/h | 28506m | 4.7m/s | -45.7°C | 0.4% | 15.9hPa | 2.5V | 03:18:00 | 00:00:00 | 00:00:00 | |
| HEMX73-11 | 2026-09-02 18:30:09 | 49.15979 | 8.50659 | 138° | 15km/h | 28501m | 6.2m/s | -45.7°C | 0.4% | 16.0hPa | 2.5V | 03:18:00 | 00:00:00 | 00:00:00 | |
| IW2NTF | 2026-09-02 18:30:08 | 49.16004 | 8.50639 | 98° | 5km/h | 28463m | 5m/s | -45.7°C | 2.6% | 16hPa | 2.5V | 03:17:50 | 01:57:44 | 00:00:00 | |
| DF3TZ-5 | 2026-09-02 18:30:08 | 49.15993 | 8.50650 | 160° | 22km/h | 28485m | 4.1m/s | -45.7°C | 0.4% | 16.0hPa | 2.6V | 00:00:00 | 00:00:00 | 00:00:00 | |
| SONDE2-11 | 2026-09-02 18:30:07 | 49.15997 | 8.50647 | 157° | 18km/h | 28481m | 5.2m/s | -45.7°C | 0.4% | 16.0hPa | 2.6V | 00:00:00 | 00:00:00 | 00:00:00 | |
| DL1XH-15 | 2026-09-02 18:30:06 | 49.16004 | 8.50635 | 75° | 4km/h | 28453m | 6m/s | -45.7°C | 2.6% | 16.1hPa | 2.6V | 03:17:52 | 01:57:42 | 00:00:00 | |
| DK7TD | 2026-09-02 18:30:04 | 49.16003 | 8.50641 | 129° | 9km/h | 28469m | 5.7m/s | -45.7°C | 0% | 16hPa | 2.5V | 03:18:16 | 01:57:45 | 00:00:00 | |
| BIOWL1-15 | 2026-09-02 18:30:02 | 49.16004 | 8.50637 | 76° | 5km/h | 28459m | 4.9m/s | -45.7°C | 0% | 16.1hPa | 2.5V | 03:18:16 | 01:57:43 | 00:00:00 | |
| SONCRA | 2026-09-02 18:30:00 | 49.16004 | 8.50634 | 146° | 2km/h | 28442m | 5.0m/s | -45.7°C | 0% | 16.1hPa | 2.6V | 00:00:00 | 00:00:00 | 00:00:00 | |
| IW2NTF | 2026-09-02 18:29:58 | 49.16014 | 8.50626 | 171° | 18km/h | 28411m | 6m/s | -45.7°C | 2.6% | 16.1hPa | 2.6V | 03:18:00 | 01:57:34 | 00:00:00 | |
| DO3MHA-11 | 2026-09-02 18:29:57 | 49.16005 | 8.50632 | 128° | 15km/h | 28432m | 6.1m/s | -45.7°C | 2.6% | 16.1hPa | 2.5V | 00:00:00 | 01:57:38 | 00:00:00 | |
| DL1XH-15 | 2026-09-02 18:29:56 | 49.16025 | 8.50626 | 184° | 24km/h | 28399m | 4.7m/s | -45.7°C | 2.6% | 16.2hPa | 2.5V | 03:18:02 | 01:57:32 | 00:00:00 | |
| DK7TD | 2026-09-02 18:29:53 | 49.16014 | 8.50626 | 172° | 18km/h | 28411m | 6m/s | -45.7°C | 0% | 16.1hPa | 2.6V | 03:18:16 | 01:57:34 | 00:00:00 | |
| DL1XH-west | 2026-09-02 18:29:52 | 49.16019 | 8.50625 | 179° | 24km/h | 28405m | 6.1m/s | -45.7°C | 0% | 16.2hPa | 2.6V | 03:18:16 | 01:57:33 | 00:00:00 | |
| BIOWL1-15 | 2026-09-02 18:29:51 | 49.16025 | 8.50626 | 185° | 24km/h | 28399m | 4.7m/s | -45.7°C | 0% | 16.2hPa | 2.5V | 03:18:16 | 01:57:32 | 00:00:00 | |
| DL1ZP-14 | 2026-09-02 18:29:49 | 49.16035 | 8.50628 | 194° | 13km/h | 28391m | 4.7m/s | -45.8°C | 0.4% | 16.2hPa | 2.5V | 00:00:00 | 00:00:00 | 00:00:00 | |
| IW2NTF | 2026-09-02 18:29:48 | 49.16033 | 8.50626 | 102° | 5km/h | 28359m | 5.5m/s | -46°C | 2.6% | 16.3hPa | 2.5V | 03:18:10 | 01:57:24 | 00:00:00 | |
| DL4BBY-15 | 2026-09-02 18:29:48 | 49.16038 | 8.50629 | 202° | 16km/h | 28386m | 6.2m/s | -44.7°C | 0% | 0hPa | 2.6V | 00:00:00 | 00:00:00 | 00:00:00 | |
| DO3MHA-11 | 2026-09-02 18:29:47 | 49.16038 | 8.50630 | 331° | 13km/h | 28380m | 5.9m/s | -45.8°C | 2.6% | 16.2hPa | 2.6V | 00:00:00 | 01:57:28 | 00:00:00 | |
| DL1XH-15 | 2026-09-02 18:29:46 | 49.16037 | 8.50620 | 144° | 16km/h | 28348m | 5.3m/s | 0°C | 0% | 0hPa | 2.5V | 03:18:12 | 01:57:22 | 00:00:00 | |
| DF7PN | 2026-09-02 18:29:46 | 49.16037 | 8.50630 | 9° | 5km/h | 28374m | 4.8m/s | -45.9°C | 0.4% | 16.2hPa | 2.5V | 00:00:00 | 00:00:00 | 00:00:00 | |
| AU51GT2 | 2026-09-02 18:29:45 | 49.16035 | 8.50629 | 20° | 7km/h | 28370m | 4.2m/s | -45.9°C | 0.5% | 16.3hPa | 2.5V | 00:00:00 | 00:00:00 | 00:00:00 | |
| DK7TD | 2026-09-02 18:29:43 | 49.16033 | 8.50626 | 102° | 5km/h | 28359m | 5.5m/s | -46°C | 0% | 16.3hPa | 2.5V | 03:18:16 | 01:57:24 | 00:00:00 | |
| DL1XH-west | 2026-09-02 18:29:42 | 49.16034 | 8.50623 | 136° | 11km/h | 28353m | 5.4m/s | -46°C | 0% | 16.3hPa | 2.5V | 03:18:16 | 01:57:23 | 00:00:00 | |
| BIOWL1-15 | 2026-09-02 18:29:41 | 49.16037 | 8.50620 | 144° | 16km/h | 28348m | 5.3m/s | -46°C | 0% | 16.3hPa | 2.5V | 03:18:16 | 01:57:22 | 00:00:00 | |
| DL8DAS-15 | 2026-09-02 18:29:39 | 49.16040 | 8.50616 | 146° | 20km/h | 28343m | 6.2m/s | -46.0°C | 0.5% | 16.3hPa | 2.6V | 03:18:00 | 00:00:00 | 00:00:00 | |
| DF1GD-15 | 2026-09-02 18:29:38 | 49.16045 | 8.50612 | 147° | 22km/h | 28337m | 6.0m/s | -46.0°C | 0.5% | 16.4hPa | 2.6V | 03:18:00 | 00:00:00 | 00:00:00 | |
| DF3TZ-5 | 2026-09-02 18:29:37 | 49.16061 | 8.50599 | 159° | 24km/h | 28321m | 5.8m/s | -46.0°C | 0.4% | 16.4hPa | 2.6V | 00:00:00 | 00:00:00 | 00:00:00 | |
| DL1XH-15 | 2026-09-02 18:29:36 | 49.16076 | 8.50587 | 46° | 11km/h | 28294m | 6.6m/s | 0°C | 0% | 0hPa | 2.6V | 03:18:22 | 01:57:12 | 00:00:00 | |
| SONDE2-11 | 2026-09-02 18:29:35 | 49.16067 | 8.50596 | 164° | 22km/h | 28316m | 5.4m/s | -46.0°C | 0.5% | 16.4hPa | 2.5V | 00:00:00 | 00:00:00 | 00:00:00 | |
| IW2NTF | 2026-09-02 18:29:34 | 49.16069 | 8.50579 | 41° | 18km/h | 28284m | 3.5m/s | -46.1°C | 2.6% | 16.5hPa | 2.5V | 03:18:24 | 01:57:10 | 00:00:00 | |
| OE5DXL-15 | 2026-09-02 18:29:33 | 49.16075 | 8.50592 | 153° | 16km/h | 28306m | 4.7m/s | -46.0°C | 2.6% | 16.4hPa | 2.5V | 03:18:00 | 00:00:00 | 00:00:00 | |
| DL1XH1-15 | 2026-09-02 18:29:32 | 49.16066 | 8.50570 | 96° | 11km/h | 28276m | 5.3m/s | -46.1°C | 2.6% | 16.5hPa | 2.5V | 03:18:26 | 01:57:08 | 00:00:00 | |
| BIOWL1-15 | 2026-09-02 18:29:32 | 49.16073 | 8.50583 | 37° | 16km/h | 28288m | 4.9m/s | -46.1°C | 0% | 16.5hPa | 2.5V | 03:19:07 | 01:57:11 | 00:00:00 | |
| DL1XH-west | 2026-09-02 18:29:32 | 49.16076 | 8.50590 | 99° | 5km/h | 28301m | 6.3m/s | -46.1°C | 0% | 16.4hPa | 2.6V | 03:19:07 | 01:57:13 | 00:00:00 | |
| DB0ND-19 | 2026-09-02 18:29:32 | 49.16076 | 8.50590 | 98° | 5km/h | 28301m | 6.3m/s | -46.1°C | 0.4% | 16.4hPa | 2.5V | 00:00:00 | 00:00:00 | 00:00:00 | |
| CB1BUN | 2026-09-02 18:29:30 | 49.16075 | 8.50587 | 48° | 11km/h | 28295m | 6.6m/s | -46.1°C | 0.4% | 16.4hPa | 2.5V | 03:19:00 | 00:00:00 | 00:00:00 | |
| DB0UT-9 | 2026-09-02 18:29:29 | 49.16073 | 8.50583 | 38° | 16km/h | 28289m | 4.9m/s | -46.1°C | 0.5% | 16.5hPa | 2.5V | 03:19:00 | 00:00:00 | 00:00:00 | |
| HEMX73-11 | 2026-09-02 18:29:28 | 49.16069 | 8.50579 | 42° | 18km/h | 28285m | 3.5m/s | -46.1°C | 0.4% | 16.5hPa | 2.5V | 03:19:00 | 00:00:00 | 00:00:00 | |
| DO3MHA-11 | 2026-09-02 18:29:27 | 49.16066 | 8.50570 | 97° | 20km/h | 28276m | 5.3m/s | -46.0°C | 2.6% | 16.4hPa | 2.5V | 03:18:00 | 01:57:08 | 00:00:00 | |
| DL1XH-15 | 2026-09-02 18:29:26 | 49.16100 | 8.50553 | 160° | 20km/h | 28245m | 5.3m/s | 0°C | 0% | 0hPa | 2.5V | 03:18:32 | 01:57:02 | 00:00:00 | |
| DJ2DS-15 | 2026-09-02 18:29:26 | 49.16068 | 8.50567 | 145° | 15km/h | 28271m | 5.9m/s | -46.1°C | 2.6% | 16.5hPa | 2.6V | 00:00:00 | 01:57:07 | 00:00:00 | |
| DL8DAS-14 | 2026-09-02 18:29:23 | 49.16087 | 8.50558 | 168° | 31km/h | 28255m | 4.0m/s | -46.2°C | 0.4% | 16.6hPa | 2.6V | 00:00:00 | 00:00:00 | 00:00:00 | |
| IW2NTF | 2026-09-02 18:29:23 | 49.16103 | 8.50544 | 44° | 11km/h | 28229m | 5.3m/s | -46.3°C | 2.6% | 16.6hPa | 2.6V | 03:18:35 | 01:56:59 | 00:00:00 | |
| DL1XH1-15 | 2026-09-02 18:29:22 | 49.16100 | 8.50541 | 32° | 15km/h | 28224m | 5m/s | -46.3°C | 2.7% | 16.6hPa | 2.6V | 03:18:36 | 01:56:58 | 00:00:00 | |
| DL1XH-west | 2026-09-02 18:29:22 | 49.16094 | 8.50556 | 167° | 27km/h | 28250m | 4.5m/s | -46.2°C | 0% | 16.6hPa | 2.5V | 03:19:07 | 01:57:03 | 00:00:00 | |
| BIOWL1-15 | 2026-09-02 18:29:22 | 49.16103 | 8.50550 | 140° | 11km/h | 28240m | 5.6m/s | -46.2°C | 0% | 16.6hPa | 2.5V | 03:19:07 | 01:57:01 | 00:00:00 | |
| DL4BBY-15 | 2026-09-02 18:29:18 | 49.16103 | 8.50544 | 45° | 11km/h | 28230m | 5.2m/s | -45.2°C | 0% | 0hPa | 2.6V | 00:00:00 | 00:00:00 | 00:00:00 | |
| DO3MHA-11 | 2026-09-02 18:29:17 | 49.16101 | 8.50541 | 33° | 11km/h | 28224m | 4.9m/s | -46.2°C | 2.7% | 16.6hPa | 2.6V | 00:00:00 | 01:56:58 | 00:00:00 | |
| DL1XH-15 | 2026-09-02 18:29:16 | 49.16099 | 8.50533 | 152° | 13km/h | 28193m | 5.4m/s | 0°C | 0% | 0hPa | 2.6V | 03:18:42 | 01:56:52 | 00:00:00 | |
| DB0NH | 2026-09-02 18:29:15 | 49.16095 | 8.50537 | 24° | 11km/h | 28214m | 5.2m/s | -46.3°C | 2.6% | 16.6hPa | 2.5V | 03:18:00 | 01:56:56 | 00:00:00 | |
| DL3AQ-11 | 2026-09-02 18:29:14 | 49.16096 | 8.50534 | 160° | 9km/h | 28199m | 4.7m/s | -46.4°C | -1.0% | -1.0hPa | 2.5V | 00:00:00 | 00:00:00 | 00:00:00 | |
| IW2NTF | 2026-09-02 18:29:13 | 49.16108 | 8.50519 | 125° | 18km/h | 28177m | 4.6m/s | -46.6°C | 2.6% | 16.8hPa | 2.5V | 03:18:45 | 01:56:49 | 00:00:00 | |
| DN1GJH-1 | 2026-09-02 18:29:13 | 49.16094 | 8.50536 | 44° | 2km/h | 28209m | 5.2m/s | -46.3°C | 0.5% | 16.7hPa | 2.5V | 03:19:00 | 00:00:00 | 00:00:00 | |
| DL1XH1-15 | 2026-09-02 18:29:12 | 49.16110 | 8.50513 | 125° | 18km/h | 28173m | 4.4m/s | -46.6°C | 2.7% | 16.8hPa | 2.5V | 03:18:46 | 01:56:48 | 00:00:00 | |
| DL1XH-west | 2026-09-02 18:29:11 | 49.16099 | 8.50533 | 152° | 13km/h | 28194m | 5.4m/s | -46.4°C | 0% | 16.7hPa | 2.6V | 03:19:07 | 01:56:52 | 00:00:00 | |
| BIOWL1-15 | 2026-09-02 18:29:09 | 49.16105 | 8.50525 | 130° | 18km/h | 28182m | 5.2m/s | -46.5°C | 0% | 16.7hPa | 2.5V | 03:19:07 | 01:56:50 | 00:00:00 | |
| DB0UT-9 | 2026-09-02 18:29:08 | 49.16105 | 8.50525 | 131° | 18km/h | 28183m | 5.2m/s | -46.5°C | 0.5% | 16.7hPa | 2.5V | 03:19:00 | 00:00:00 | 00:00:00 | |
| DO3MHA-11 | 2026-09-02 18:29:07 | 49.16110 | 8.50513 | 126° | 13km/h | 28173m | 4.4m/s | -46.6°C | 2.7% | 16.7hPa | 2.5V | 00:00:00 | 01:56:48 | 00:00:00 | |
| DL1XH-15 | 2026-09-02 18:29:06 | 49.16119 | 8.50490 | 79° | 13km/h | 28141m | 6.3m/s | 0°C | 0% | 0hPa | 2.5V | 03:18:52 | 01:56:42 | 00:00:00 | |
| DF3TZ-5 | 2026-09-02 18:29:06 | 49.16115 | 8.50504 | 135° | 13km/h | 28162m | 5.7m/s | -46.7°C | 0.4% | 16.8hPa | 2.6V | 00:00:00 | 00:00:00 | 00:00:00 | |
| DJ2DS-15 | 2026-09-02 18:29:04 | 49.16119 | 8.50497 | 116° | 9km/h | 28153m | 4.2m/s | -46.7°C | 0.5% | 16.8hPa | 2.6V | 00:00:00 | 00:00:00 | 00:00:00 | |
| IW2NTF | 2026-09-02 18:29:03 | 49.16118 | 8.50476 | 98° | 9km/h | 28125m | 5.5m/s | -47°C | 2.7% | 16.9hPa | 2.6V | 03:18:55 | 01:56:39 | 00:00:00 | |
| DM0DOS-11 | 2026-09-02 18:29:02 | 49.16119 | 8.50473 | 128° | 9km/h | 28119m | 6.2m/s | -47°C | 2.8% | 16.9hPa | 2.6V | 03:18:56 | 01:56:38 | 00:00:00 | |
| BIOWL1-15 | 2026-09-02 18:29:02 | 49.16118 | 8.50476 | 99° | 9km/h | 28125m | 5.5m/s | -47°C | 0% | 16.9hPa | 2.6V | 03:19:07 | 01:56:39 | 00:00:00 | |
| DL1XH-west | 2026-09-02 18:29:00 | 49.16119 | 8.50485 | 75° | 13km/h | 28135m | 5m/s | -46.9°C | 0% | 16.9hPa | 2.5V | 03:19:07 | 01:56:41 | 00:00:00 | |
| SONCRA | 2026-09-02 18:28:58 | 49.16119 | 8.50473 | 128° | 7km/h | 28120m | 6.2m/s | -47.0°C | 0.5% | 16.9hPa | 2.6V | 00:00:00 | 00:00:00 | 00:00:00 | |
| DO3MHA-11 | 2026-09-02 18:28:57 | 49.16119 | 8.50473 | 129° | 11km/h | 28120m | 6.1m/s | -47.0°C | 2.8% | 16.8hPa | 2.6V | 00:00:00 | 01:56:38 | 00:00:00 | |
| DJ2KF-10 | 2026-09-02 18:28:56 | 49.16121 | 8.50471 | 152° | 11km/h | 28114m | 5.0m/s | -47.0°C | 2.8% | 16.9hPa | 2.6V | 00:00:00 | 01:56:37 | 00:00:00 | |
| DL0LBS | 2026-09-02 18:28:55 | 49.16121 | 8.50471 | 153° | 9km/h | 28114m | 5.1m/s | -47.0°C | 0.5% | 16.9hPa | 2.6V | 03:19:00 | 00:00:00 | 00:00:00 | |
| DL1XH1-15 | 2026-09-02 18:28:52 | 49.16127 | 8.50440 | 136° | 7km/h | 28066m | 5.2m/s | -47.1°C | 2.7% | 17hPa | 2.6V | 03:19:06 | 01:56:28 | 00:00:00 | |
| IW2NTF | 2026-09-02 18:28:52 | 49.16128 | 8.50438 | 142° | 9km/h | 28060m | 4.8m/s | -47.1°C | 2.8% | 17.1hPa | 2.6V | 03:19:07 | 01:56:27 | 00:00:00 | |
| DL1XH-west | 2026-09-02 18:28:50 | 49.16126 | 8.50450 | 80° | 13km/h | 28082m | 5m/s | -47.1°C | 0% | 17hPa | 2.5V | 03:19:07 | 01:56:31 | 00:00:00 | |
| DK7TD | 2026-09-02 18:28:49 | 49.16126 | 8.50446 | 89° | 9km/h | 28077m | 5.6m/s | -47.1°C | 0% | 17hPa | 2.5V | 03:19:07 | 01:56:30 | 00:00:00 | |
| BIOWL1-15 | 2026-09-02 18:28:47 | 49.16127 | 8.50440 | 137° | 7km/h | 28066m | 5.3m/s | -47.1°C | 0% | 17hPa | 2.6V | 03:19:07 | 01:56:28 | 00:00:00 | |
| DO3MHA-11 | 2026-09-02 18:28:47 | 49.16127 | 8.50440 | 137° | 9km/h | 28066m | 5.2m/s | -47.1°C | 2.7% | 17.0hPa | 2.6V | 03:19:00 | 01:56:28 | 00:00:00 | |
| DJ2DS-15 | 2026-09-02 18:28:46 | 49.16128 | 8.50438 | 143° | 11km/h | 28061m | 4.8m/s | -47.1°C | 2.8% | 17.0hPa | 2.6V | 03:19:00 | 01:56:27 | 00:00:00 | |
| DB0NH | 2026-09-02 18:28:45 | 49.16130 | 8.50436 | 132° | 9km/h | 28056m | 5.8m/s | -47.1°C | 2.8% | 17.0hPa | 2.5V | 00:00:00 | 01:56:26 | 00:00:00 | |
| DF7PN | 2026-09-02 18:28:44 | 49.16132 | 8.50433 | 120° | 11km/h | 28050m | 6.0m/s | -47.2°C | 0.5% | 17.1hPa | 2.5V | 00:00:00 | 00:00:00 | 00:00:00 | |
| DL1XH-15 | 2026-09-02 18:28:43 | 49.16140 | 8.50417 | 154° | 5km/h | 28017m | 4.8m/s | 0°C | 0% | 0hPa | 2.5V | 03:19:15 | 01:56:19 | 00:00:00 | |
| DL1XH1-15 | 2026-09-02 18:28:42 | 49.16141 | 8.50415 | 129° | 5km/h | 28012m | 5.1m/s | -47.4°C | 2.8% | 17.1hPa | 2.5V | 03:19:16 | 01:56:18 | 00:00:00 | |
| IW2NTF | 2026-09-02 18:28:41 | 49.16142 | 8.50413 | 103° | 9km/h | 28006m | 6.4m/s | -47.5°C | 2.8% | 17.2hPa | 2.5V | 03:19:17 | 01:56:17 | 00:00:00 | |
| DL1XH-west | 2026-09-02 18:28:39 | 49.16138 | 8.50417 | 161° | 7km/h | 28022m | 5.3m/s | -47.4°C | 0% | 17.1hPa | 2.5V | 03:19:58 | 01:56:20 | 00:00:00 | |
| BIOWL1-15 | 2026-09-02 18:28:37 | 49.16141 | 8.50415 | 130° | 5km/h | 28012m | 5.1m/s | -47.4°C | 0% | 17.1hPa | 2.5V | 03:19:58 | 01:56:18 | 00:00:00 | |
| DO3MHA-11 | 2026-09-02 18:28:37 | 49.16140 | 8.50415 | 130° | 11km/h | 28013m | 5.1m/s | -47.4°C | 2.8% | 17.1hPa | 2.6V | 00:00:00 | 01:56:18 | 00:00:00 | |
| DL6DJ-15 | 2026-09-02 18:28:35 | 49.16142 | 8.50409 | 92° | 13km/h | 28000m | 5.8m/s | -47.5°C | 0.5% | 17.2hPa | 2.6V | 00:00:00 | 00:00:00 | 00:00:00 | |
| DL0LBS | 2026-09-02 18:28:34 | 49.16142 | 8.50408 | 93° | 13km/h | 28001m | 5.8m/s | -47.5°C | 0.5% | 17.2hPa | 2.6V | 03:19:00 | 00:00:00 | 00:00:00 | |
| SONDE2-11 | 2026-09-02 18:28:33 | 49.16142 | 8.50397 | 96° | 15km/h | 27991m | 4.4m/s | -47.5°C | 0.5% | 17.2hPa | 2.6V | 00:00:00 | 00:00:00 | 00:00:00 | |
| DL1XH1-15 | 2026-09-02 18:28:32 | 49.16153 | 8.50380 | 127° | 7km/h | 27958m | 6.2m/s | -47.6°C | 2.8% | 17.3hPa | 2.6V | 03:19:26 | 01:56:08 | 00:00:00 | |
| OE5DXL-15 | 2026-09-02 18:28:32 | 49.16143 | 8.50392 | 110° | 9km/h | 27986m | 5.3m/s | -47.5°C | 2.8% | 17.2hPa | 2.6V | 00:00:00 | 00:00:00 | 00:00:00 | |
| DL1XH-15 | 2026-09-02 18:28:31 | 49.16153 | 8.50378 | 97° | 7km/h | 27952m | 5.1m/s | 0°C | 0% | 0hPa | 2.6V | 03:19:27 | 01:56:07 | 00:00:00 | |
| BIOWL1-15 | 2026-09-02 18:28:28 | 49.16153 | 8.50378 | 98° | 7km/h | 27952m | 5.1m/s | -47.7°C | 0% | 17.3hPa | 2.6V | 03:19:58 | 01:56:07 | 00:00:00 | |
| DL1XH-west | 2026-09-02 18:28:28 | 49.16151 | 8.50382 | 151° | 9km/h | 27964m | 5.4m/s | -47.6°C | 0% | 17.3hPa | 2.6V | 03:19:58 | 01:56:09 | 00:00:00 | |
| DJ2DS-15 | 2026-09-02 18:28:28 | 49.16152 | 8.50380 | 127° | 7km/h | 27958m | 6.3m/s | -47.6°C | 0.5% | 17.3hPa | 2.6V | 00:00:00 | 00:00:00 | 00:00:00 | |
| DO3MHA-11 | 2026-09-02 18:28:27 | 49.16152 | 8.50380 | 128° | 7km/h | 27958m | 6.2m/s | -47.6°C | 2.8% | 17.3hPa | 2.6V | 00:00:00 | 01:56:08 | 00:00:00 | |
| NBG1-10 | 2026-09-02 18:28:26 | 49.16153 | 8.50378 | 98° | 9km/h | 27953m | 5.1m/s | -47.6°C | 2.9% | 17.3hPa | 2.6V | 03:19:00 | 01:56:07 | 00:00:00 | |
| KANTATE | 2026-09-02 18:28:23 | 49.16153 | 8.50373 | 66° | 5km/h | 27943m | 5.4m/s | -47.7°C | 0.5% | 17.4hPa | 2.5V | 03:19:00 | 00:00:00 | 00:00:00 | |
| DL1XH1-15 | 2026-09-02 18:28:22 | 49.16145 | 8.50354 | 74° | 15km/h | 27904m | 4.3m/s | -47.9°C | 2.9% | 17.5hPa | 2.5V | 03:19:36 | 01:55:58 | 00:00:00 | |
| DF2AP-13 | 2026-09-02 18:28:22 | 49.16151 | 8.50369 | 32° | 9km/h | 27931m | 5.4m/s | -47.7°C | 2.8% | 17.3hPa | 2.5V | 03:19:00 | 01:56:03 | 00:00:00 | |
| DL8DAS-14 | 2026-09-02 18:28:21 | 49.16150 | 8.50369 | 36° | 4km/h | 27925m | 5.0m/s | -47.8°C | 0.5% | 17.4hPa | 2.5V | 00:00:00 | 00:00:00 | 00:00:00 | |
| DL1XH-15 | 2026-09-02 18:28:20 | 49.16145 | 8.50346 | 110° | 7km/h | 27895m | 5.2m/s | 0°C | 0% | 0hPa | 2.5V | 03:19:38 | 01:55:56 | 00:00:00 | |
| DL1XH-west | 2026-09-02 18:28:18 | 49.16146 | 8.50359 | 69° | 15km/h | 27909m | 5.6m/s | -47.9°C | 0% | 17.4hPa | 2.5V | 03:19:58 | 01:55:59 | 00:00:00 | |
| BIOWL1-15 | 2026-09-02 18:28:16 | 49.16145 | 8.50349 | 84° | 11km/h | 27900m | 4.1m/s | -48°C | 0% | 17.5hPa | 2.5V | 03:19:58 | 01:55:57 | 00:00:00 | |
| DL1ZP-14 | 2026-09-02 18:28:16 | 49.16145 | 8.50346 | 110° | 5km/h | 27895m | 5.2m/s | -48.0°C | 0.5% | 17.5hPa | 2.5V | 00:00:00 | 00:00:00 | 00:00:00 | |
| DB0NH | 2026-09-02 18:28:15 | 49.16145 | 8.50346 | 111° | 9km/h | 27895m | 5.2m/s | -47.9°C | 2.9% | 17.4hPa | 2.6V | 00:00:00 | 01:55:56 | 00:00:00 | |
| DF7PN | 2026-09-02 18:28:13 | 49.16150 | 8.50348 | 223° | 13km/h | 27879m | 4.2m/s | -48.1°C | 0.5% | 17.5hPa | 2.6V | 00:00:00 | 00:00:00 | 00:00:00 | |
| DL1XH1-15 | 2026-09-02 18:28:12 | 49.16150 | 8.50353 | 28° | 13km/h | 27852m | 5.3m/s | -48.2°C | 2.9% | 17.6hPa | 2.6V | 03:19:46 | 01:55:48 | 00:00:00 | |
| DN1GJH-1 | 2026-09-02 18:28:11 | 49.16150 | 8.50348 | 224° | 13km/h | 27879m | 4.2m/s | -48.1°C | 0.5% | 17.5hPa | 2.6V | 03:19:00 | 00:00:00 | 00:00:00 | |
| DL1XH-15 | 2026-09-02 18:28:10 | 49.16144 | 8.50349 | 11° | 13km/h | 27841m | 5.8m/s | 0°C | 0% | 0hPa | 2.6V | 03:19:48 | 01:55:46 | 00:00:00 | |
| BIOWL1-15 | 2026-09-02 18:28:09 | 49.16144 | 8.50349 | 12° | 13km/h | 27841m | 5.8m/s | -48.3°C | 0% | 17.6hPa | 2.6V | 03:19:58 | 01:55:46 | 00:00:00 | |
| DL1XH-west | 2026-09-02 18:28:08 | 49.16153 | 8.50355 | 30° | 7km/h | 27858m | 5.9m/s | -48.2°C | 0% | 17.6hPa | 2.5V | 03:19:58 | 01:55:49 | 00:00:00 | |
| DO3MHA-11 | 2026-09-02 18:28:07 | 49.16150 | 8.50353 | 29° | 11km/h | 27852m | 5.2m/s | -48.1°C | 2.9% | 17.5hPa | 2.5V | 03:19:00 | 01:55:48 | 00:00:00 | |
| HEMX73-11 | 2026-09-02 18:28:06 | 49.16147 | 8.50351 | 23° | 15km/h | 27847m | 5.0m/s | -48.2°C | 0.5% | 17.6hPa | 2.5V | 03:19:00 | 00:00:00 | 00:00:00 | |
| DL3AQ-11 | 2026-09-02 18:28:05 | 49.16141 | 8.50349 | 352° | 9km/h | 27836m | 5.3m/s | -48.3°C | -1.0% | -1.0hPa | 2.5V | 00:00:00 | 00:00:00 | 00:00:00 | |
| DF3TZ-5 | 2026-09-02 18:28:04 | 49.16139 | 8.50350 | 318° | 5km/h | 27831m | 4.8m/s | -48.3°C | 0.5% | 17.6hPa | 2.5V | 00:00:00 | 00:00:00 | 00:00:00 | |
| DL1XH1-15 | 2026-09-02 18:28:02 | 49.16150 | 8.50358 | 215° | 13km/h | 27799m | 5.7m/s | -48.3°C | 2.9% | 17.7hPa | 2.5V | 03:19:56 | 01:55:38 | 00:00:00 | |
| OE5DXL-15 | 2026-09-02 18:28:02 | 49.16139 | 8.50351 | 254° | 9km/h | 27826m | 5.3m/s | -48.2°C | 2.9% | 17.6hPa | 2.5V | 00:00:00 | 00:00:00 | 00:00:00 | |
| DL1XH-15 | 2026-09-02 18:28:00 | 49.16153 | 8.50365 | 257° | 11km/h | 27788m | 5.4m/s | 0°C | 0% | 0hPa | 2.5V | 03:19:58 | 01:55:36 | 00:00:00 | |
| DL1XH-west | 2026-09-02 18:27:58 | 49.16148 | 8.50356 | 199° | 13km/h | 27804m | 4.7m/s | -48.3°C | 0% | 17.7hPa | 2.6V | 03:19:58 | 01:55:39 | 00:00:00 | |
| DK7TD | 2026-09-02 18:27:57 | 49.16150 | 8.50358 | 216° | 13km/h | 27799m | 5.7m/s | -48.3°C | 0% | 17.7hPa | 2.5V | 03:19:58 | 01:55:38 | 00:00:00 | |
| BIOWL1-15 | 2026-09-02 18:27:54 | 49.16154 | 8.50369 | 273° | 7km/h | 27783m | 4.8m/s | -48.3°C | 0% | 17.8hPa | 2.5V | 03:20:49 | 01:55:35 | 00:00:00 | |
| DL3AQ-11 | 2026-09-02 18:27:54 | 49.16153 | 8.50371 | 50° | 2km/h | 27772m | 6.6m/s | -48.4°C | -1.0% | -1.0hPa | 2.5V | 00:00:00 | 00:00:00 | 00:00:00 | |
| NBG1-10 | 2026-09-02 18:27:53 | 49.16153 | 8.50371 | 297° | 11km/h | 27778m | 5.0m/s | -48.3°C | 2.9% | 17.8hPa | 2.5V | 00:00:00 | 01:55:34 | 00:00:00 | |
| DL1XH1-15 | 2026-09-02 18:27:52 | 49.16151 | 8.50360 | 332° | 2km/h | 27744m | 5.3m/s | -48.6°C | 2.9% | 17.9hPa | 2.5V | 03:20:06 | 01:55:28 | 00:00:00 | |
| DJ2DS-15 | 2026-09-02 18:27:52 | 49.16153 | 8.50370 | 77° | 7km/h | 27766m | 5.7m/s | -48.4°C | 0.5% | 17.8hPa | 2.6V | 00:00:00 | 00:00:00 | 00:00:00 | |
| DL8DAS-14 | 2026-09-02 18:27:50 | 49.16152 | 8.50366 | 81° | 9km/h | 27760m | 4.8m/s | -48.4°C | 0.5% | 17.8hPa | 2.6V | 00:00:00 | 00:00:00 | 00:00:00 | |
| DL1XH-15 | 2026-09-02 18:27:49 | 49.16152 | 8.50367 | 225° | 11km/h | 27728m | 6.4m/s | 0°C | 0% | 0hPa | 2.6V | 00:00:00 | 01:55:25 | 00:00:00 | |
| DL1XH-west | 2026-09-02 18:27:47 | 49.16150 | 8.50360 | 332° | 2km/h | 27744m | 5.3m/s | -48.6°C | 0% | 17.9hPa | 2.5V | 03:20:49 | 01:55:28 | 00:00:00 | |
| BIOWL1-15 | 2026-09-02 18:27:44 | 49.16152 | 8.50367 | 226° | 11km/h | 27728m | 6.4m/s | -48.6°C | 0% | 17.9hPa | 2.6V | 03:20:49 | 01:55:25 | 00:00:00 | |
| DO2KSM | 2026-09-02 18:27:43 | 49.16152 | 8.50367 | 227° | 11km/h | 27729m | 6.4m/s | 0°C | 0% | 0hPa | 2.6V | 03:20:00 | 00:00:00 | 00:00:00 | |
| DL1XH1-15 | 2026-09-02 18:27:42 | 49.16167 | 8.50384 | 153° | 2km/h | 27690m | 4.9m/s | -48.9°C | 3% | 18hPa | 2.6V | 03:20:16 | 01:55:18 | 00:00:00 | |
| DF7PN | 2026-09-02 18:27:42 | 49.16161 | 8.50376 | 211° | 15km/h | 27711m | 5.1m/s | -48.8°C | 0.5% | 18.0hPa | 2.5V | 00:00:00 | 00:00:00 | 00:00:00 | |
| AU51GT2 | 2026-09-02 18:27:41 | 49.16161 | 8.50376 | 211° | 15km/h | 27711m | 5.1m/s | -48.8°C | 0.5% | 18.0hPa | 2.5V | 00:00:00 | 00:00:00 | 00:00:00 | |
| IW2NTF | 2026-09-02 18:27:40 | 49.16170 | 8.50380 | 132° | 11km/h | 27678m | 6m/s | -48.9°C | 3% | 18.1hPa | 2.5V | 03:20:18 | 01:55:16 | 00:00:00 | |
| DL8DAS-15 | 2026-09-02 18:27:40 | 49.16164 | 8.50379 | 220° | 13km/h | 27706m | 6.2m/s | -48.8°C | 0.6% | 18.0hPa | 2.5V | 00:00:00 | 00:00:00 | 00:00:00 | |
| DL1XH-15 | 2026-09-02 18:27:39 | 49.16172 | 8.50377 | 142° | 15km/h | 27673m | 4.5m/s | 0°C | 0% | 0hPa | 2.5V | 00:00:00 | 01:55:15 | 00:00:00 | |
| DK7TD | 2026-09-02 18:27:37 | 49.16167 | 8.50384 | 153° | 2km/h | 27690m | 4.9m/s | -48.9°C | 0% | 18hPa | 2.6V | 03:20:49 | 01:55:18 | 00:00:00 | |
| DL1XH-west | 2026-09-02 18:27:36 | 49.16168 | 8.50383 | 128° | 7km/h | 27684m | 6.1m/s | -48.9°C | 0% | 18.1hPa | 2.5V | 03:20:49 | 01:55:17 | 00:00:00 | |
| BIOWL1-15 | 2026-09-02 18:27:36 | 49.16172 | 8.50377 | 142° | 15km/h | 27673m | 4.5m/s | -48.9°C | 0% | 18.1hPa | 2.5V | 03:20:49 | 01:55:15 | 00:00:00 | |
| BIOWL9-15 | 2026-09-02 18:27:35 | 49.16170 | 8.50380 | 132° | 11km/h | 27678m | 6.0m/s | -48.9°C | 0.5% | 18.1hPa | 2.5V | 00:00:00 | 00:00:00 | 00:00:00 | |
| HARRO8 | 2026-09-02 18:27:33 | 49.16179 | 8.50372 | 170° | 13km/h | 27664m | 5.3m/s | -48.9°C | 0.5% | 18.1hPa | 2.5V | 00:00:00 | 00:00:00 | 00:00:00 | |
| DL1XH1-15 | 2026-09-02 18:27:32 | 49.16197 | 8.50385 | 202° | 18km/h | 27636m | 6.1m/s | -48.9°C | 3% | 18.2hPa | 2.5V | 03:20:26 | 01:55:08 | 00:00:00 | |
| OE5DXL-15 | 2026-09-02 18:27:31 | 49.16182 | 8.50372 | 191° | 16km/h | 27658m | 6.2m/s | 0°C | 0% | 0hPa | 2.6V | 03:20:00 | 00:00:00 | 00:00:00 | |
| IW2NTF | 2026-09-02 18:27:30 | 49.16206 | 8.50386 | 173° | 18km/h | 27625m | 5.1m/s | -48.9°C | 3.1% | 18.2hPa | 2.6V | 03:20:28 | 01:55:06 | 00:00:00 | |
| DL1XH-15 | 2026-09-02 18:27:29 | 49.16210 | 8.50385 | 163° | 16km/h | 27620m | 4.8m/s | 0°C | 0% | 0hPa | 2.6V | 00:00:00 | 01:55:05 | 00:00:00 | |
| DL1XH-west | 2026-09-02 18:27:26 | 49.16201 | 8.50386 | 187° | 18km/h | 27631m | 5.6m/s | -48.9°C | 0% | 18.2hPa | 2.5V | 03:20:49 | 01:55:07 | 00:00:00 | |
| BIOWL1-15 | 2026-09-02 18:27:25 | 49.16214 | 8.50383 | 160° | 15km/h | 27615m | 5.9m/s | -48.9°C | 0% | 18.2hPa | 2.6V | 03:20:49 | 01:55:04 | 00:00:00 | |
| DL3AQ-11 | 2026-09-02 18:27:25 | 49.16210 | 8.50385 | 163° | 16km/h | 27621m | 4.8m/s | -48.9°C | -1.0% | -1.0hPa | 2.5V | 00:00:00 | 00:00:00 | 00:00:00 | |
| SONCRA | 2026-09-02 18:27:24 | 49.16210 | 8.50385 | 163° | 16km/h | 27621m | 4.8m/s | -48.9°C | 0.5% | 18.2hPa | 2.5V | 00:00:00 | 00:00:00 | 00:00:00 | |
| DL8DAS-15 | 2026-09-02 18:27:23 | 49.16214 | 8.50383 | 161° | 15km/h | 27615m | 5.9m/s | -48.9°C | 0.6% | 18.2hPa | 2.5V | 00:00:00 | 00:00:00 | 00:00:00 | |
| KANTATE | 2026-09-02 18:27:22 | 49.16214 | 8.50383 | 161° | 15km/h | 27615m | 5.9m/s | -48.9°C | 0.5% | 18.2hPa | 2.5V | 03:20:00 | 00:00:00 | 00:00:00 | |
| IW2NTF | 2026-09-02 18:27:21 | 49.16240 | 8.50368 | 178° | 16km/h | 27570m | 6m/s | -48.8°C | 3% | 18.4hPa | 2.5V | 03:20:38 | 01:54:56 | 00:00:00 | |
| DL1XH-west | 2026-09-02 18:27:15 | 49.16240 | 8.50368 | 179° | 16km/h | 27570m | 6m/s | -48.8°C | 0% | 18.4hPa | 2.5V | 03:20:49 | 01:54:56 | 00:00:00 | |
| BIOWL1-15 | 2026-09-02 18:27:13 | 49.16248 | 8.50370 | 200° | 16km/h | 27558m | 5.3m/s | -48.8°C | 0% | 18.4hPa | 2.5V | 03:20:49 | 01:54:54 | 00:00:00 | |
| DF7PN | 2026-09-02 18:27:11 | 49.16260 | 8.50373 | 163° | 15km/h | 27542m | 6.0m/s | -48.8°C | 0.5% | 18.4hPa | 2.5V | 00:00:00 | 00:00:00 | 00:00:00 | |
| IW2NTF | 2026-09-02 18:27:10 | 49.16275 | 8.50356 | 144° | 11km/h | 27514m | 5.3m/s | -48.7°C | 3% | 18.5hPa | 2.5V | 03:20:48 | 01:54:46 | 00:00:00 | |
| HSKMA3-T | 2026-09-02 18:27:06 | 49.16273 | 8.50359 | 140° | 13km/h | 27519m | 6.3m/s | -48.7°C | 0% | 0hPa | 2.5V | 18:12:15 | 01:54:47 | 00:00:00 | |
| DL1XH-west | 2026-09-02 18:27:05 | 49.16275 | 8.50356 | 145° | 11km/h | 27514m | 5.3m/s | -48.7°C | 0% | 18.5hPa | 2.5V | 03:20:49 | 01:54:46 | 00:00:00 | |
| DK7TD | 2026-09-02 18:27:03 | 49.16281 | 8.50351 | 150° | 16km/h | 27502m | 6.3m/s | -48.7°C | 0% | 18.6hPa | 2.6V | 03:21:40 | 01:54:44 | 00:00:00 | |
| BIOWL1-15 | 2026-09-02 18:27:02 | 49.16285 | 8.50347 | 151° | 20km/h | 27496m | 6.2m/s | -48.6°C | 0% | 18.6hPa | 2.6V | 03:21:40 | 01:54:43 | 00:00:00 | |
| HARRO8 | 2026-09-02 18:27:02 | 49.16290 | 8.50344 | 154° | 20km/h | 27491m | 5.0m/s | -48.6°C | 0.5% | 18.6hPa | 2.6V | 00:00:00 | 00:00:00 | 00:00:00 | |
| OE5DXL-15 | 2026-09-02 18:27:01 | 49.16290 | 8.50343 | 155° | 13km/h | 27491m | 5.0m/s | 0°C | 0% | 0hPa | 2.6V | 00:00:00 | 00:00:00 | 00:00:00 | |
| IW2NTF | 2026-09-02 18:27:00 | 49.16316 | 8.50343 | 186° | 16km/h | 27459m | 5.2m/s | -48.6°C | 3% | 18.7hPa | 2.6V | 03:20:58 | 01:54:36 | 00:00:00 | |
| DL1XH-west | 2026-09-02 18:26:55 | 49.16316 | 8.50343 | 187° | 16km/h | 27459m | 5.2m/s | -48.6°C | 0% | 18.7hPa | 2.6V | 03:21:40 | 01:54:36 | 00:00:00 | |
| DK7TD | 2026-09-02 18:26:53 | 49.16324 | 8.50341 | 156° | 18km/h | 27448m | 5.2m/s | -48.6°C | 0% | 18.7hPa | 2.5V | 03:21:40 | 01:54:34 | 00:00:00 | |
| DL1XH1-15 | 2026-09-02 18:26:52 | 49.16341 | 8.50311 | 124° | 18km/h | 27416m | 5.2m/s | -48.5°C | 3% | 18.8hPa | 2.5V | 03:21:06 | 01:54:28 | 00:00:00 | |
| BIOWL1-15 | 2026-09-02 18:26:52 | 49.16329 | 8.50337 | 143° | 20km/h | 27443m | 4.8m/s | -48.6°C | 0% | 18.7hPa | 2.5V | 03:21:40 | 01:54:33 | 00:00:00 | |
| DL0LBS | 2026-09-02 18:26:50 | 49.16332 | 8.50332 | 136° | 18km/h | 27438m | 5.8m/s | -48.6°C | 0.6% | 18.7hPa | 2.6V | 03:21:00 | 00:00:00 | 00:00:00 | |
| DN1GJH-1 | 2026-09-02 18:26:49 | 49.16335 | 8.50327 | 127° | 16km/h | 27432m | 6.3m/s | -48.5°C | 0.6% | 18.8hPa | 2.6V | 03:21:00 | 00:00:00 | 00:00:00 | |
| IW2NTF | 2026-09-02 18:26:48 | 49.16357 | 8.50288 | 146° | 20km/h | 27394m | 4.2m/s | -48.5°C | 2.9% | 18.9hPa | 2.6V | 03:21:10 | 01:54:24 | 00:00:00 | |
| DL1XH-west | 2026-09-02 18:26:45 | 49.16348 | 8.50299 | 135° | 24km/h | 27404m | 5.8m/s | -48.5°C | 0% | 18.8hPa | 2.5V | 03:21:40 | 01:54:26 | 00:00:00 | |
| DB0UT-7 | 2026-09-02 18:26:45 | 49.16348 | 8.50299 | 136° | 15km/h | 27404m | 5.8m/s | -48.5°C | 2.9% | 18.8hPa | 2.5V | 03:21:00 | 01:54:26 | 00:00:00 | |
| DL1XH1-15 | 2026-09-02 18:26:43 | 49.16375 | 8.50284 | 178° | 15km/h | 27360m | 5.7m/s | -48.6°C | 3% | 19hPa | 2.6V | 03:21:16 | 01:54:18 | 00:00:00 | |
| DK7TD | 2026-09-02 18:26:42 | 49.16361 | 8.50284 | 152° | 16km/h | 27389m | 6m/s | -48.5°C | 0% | 18.9hPa | 2.6V | 03:21:40 | 01:54:23 | 00:00:00 | |
| BIOWL1-15 | 2026-09-02 18:26:41 | 49.16364 | 8.50282 | 167° | 11km/h | 27383m | 6.4m/s | -48.6°C | 0% | 18.9hPa | 2.6V | 03:21:40 | 01:54:22 | 00:00:00 | |
| DF7PN | 2026-09-02 18:26:40 | 49.16369 | 8.50283 | 196° | 9km/h | 27372m | 5.0m/s | -48.6°C | 0.5% | 18.9hPa | 2.5V | 00:00:00 | 00:00:00 | 00:00:00 | |
| AU51GT2 | 2026-09-02 18:26:39 | 49.16369 | 8.50283 | 196° | 9km/h | 27372m | 5.0m/s | -48.6°C | 0.5% | 18.9hPa | 2.5V | 00:00:00 | 00:00:00 | 00:00:00 | |
| IW2NTF | 2026-09-02 18:26:38 | 49.16390 | 8.50276 | 147° | 15km/h | 27339m | 6m/s | -48.7°C | 3% | 19hPa | 2.5V | 03:21:20 | 01:54:14 | 00:00:00 | |
| HSKMA3-T | 2026-09-02 18:26:36 | 49.16379 | 8.50283 | 168° | 16km/h | 27355m | 4.4m/s | -48.6°C | 0% | 0hPa | 2.6V | 18:12:15 | 01:54:17 | 00:00:00 | |
| DL1XH-west | 2026-09-02 18:26:34 | 49.16387 | 8.50279 | 153° | 16km/h | 27345m | 5.9m/s | -48.7°C | 0% | 19hPa | 2.5V | 03:21:40 | 01:54:15 | 00:00:00 | |
| DL3AQ-11 | 2026-09-02 18:26:34 | 49.16390 | 8.50276 | 147° | 15km/h | 27340m | 6.0m/s | 0°C | -1.0% | -1.0hPa | 2.6V | 00:00:00 | 00:00:00 | 00:00:00 | |
| BIOWL9-15 | 2026-09-02 18:26:33 | 49.16390 | 8.50276 | 147° | 15km/h | 27340m | 6.0m/s | -48.7°C | 0.5% | 19.0hPa | 2.6V | 00:00:00 | 00:00:00 | 00:00:00 | |
| DL1XH1-15 | 2026-09-02 18:26:32 | 49.16412 | 8.50257 | 153° | 18km/h | 27307m | 3.9m/s | -48.7°C | 3% | 19.1hPa | 2.6V | 03:21:26 | 01:54:08 | 00:00:00 | |
| DK7TD | 2026-09-02 18:26:31 | 49.16396 | 8.50270 | 146° | 15km/h | 27329m | 4.8m/s | -48.7°C | 0% | 19hPa | 2.6V | 03:21:40 | 01:54:12 | 00:00:00 | |
| BIOWL1-15 | 2026-09-02 18:26:30 | 49.16399 | 8.50267 | 149° | 16km/h | 27324m | 6m/s | -48.7°C | 0% | 19.1hPa | 2.5V | 03:21:40 | 01:54:11 | 00:00:00 | |
| SONDE2-11 | 2026-09-02 18:26:29 | 49.16408 | 8.50260 | 154° | 20km/h | 27312m | 4.9m/s | -48.7°C | 0.5% | 19.1hPa | 2.5V | 00:00:00 | 00:00:00 | 00:00:00 | |
| IW2NTF | 2026-09-02 18:26:28 | 49.16418 | 8.50246 | 59° | 7km/h | 27286m | 5.1m/s | -48.6°C | 3.1% | 19.2hPa | 2.5V | 03:21:30 | 01:54:04 | 00:00:00 | |
| DL1XH-west | 2026-09-02 18:26:24 | 49.16419 | 8.50249 | 86° | 5km/h | 27291m | 6.5m/s | -48.7°C | 0% | 19.2hPa | 2.5V | 03:21:40 | 01:54:05 | 00:00:00 | |
| DJ2DS-15 | 2026-09-02 18:26:23 | 49.16418 | 8.50246 | 60° | 13km/h | 27286m | 5.1m/s | -48.6°C | 3.1% | 19.1hPa | 2.5V | 00:00:00 | 01:54:04 | 00:00:00 | |
| DL1XH1-15 | 2026-09-02 18:26:22 | 49.16429 | 8.50224 | 145° | 22km/h | 27254m | 5m/s | -48.5°C | 3% | 19.3hPa | 2.5V | 03:21:36 | 01:53:58 | 00:00:00 | |
| BIOWL1-15 | 2026-09-02 18:26:22 | 49.16418 | 8.50237 | 126° | 13km/h | 27270m | 6m/s | -48.6°C | 0% | 19.2hPa | 2.6V | 03:21:40 | 01:54:01 | 00:00:00 | |
| DK7TD | 2026-09-02 18:26:21 | 49.16417 | 8.50240 | 97° | 9km/h | 27276m | 5.6m/s | -48.6°C | 0% | 19.2hPa | 2.5V | 03:21:40 | 01:54:02 | 00:00:00 | |
| DL1XH-west | 2026-09-02 18:26:13 | 49.16441 | 8.50209 | 154° | 7km/h | 27233m | 4.8m/s | -48.5°C | 0% | 19.3hPa | 2.6V | 03:21:40 | 01:53:54 | 00:00:00 | |
| DK7TD | 2026-09-02 18:26:11 | 49.16445 | 8.50209 | 189° | 7km/h | 27222m | 6m/s | -48.5°C | 0% | 19.4hPa | 2.6V | 03:22:31 | 01:53:52 | 00:00:00 | |
| BIOWL1-15 | 2026-09-02 18:26:09 | 49.16448 | 8.50208 | 137° | 7km/h | 27212m | 4.6m/s | -48.4°C | 0% | 19.4hPa | 2.5V | 03:22:31 | 01:53:50 | 00:00:00 | |
| DL1XH-west | 2026-09-02 18:26:03 | 49.16456 | 8.50165 | 120° | 24km/h | 27177m | 5.3m/s | -48.5°C | 0% | 19.5hPa | 2.5V | 03:22:31 | 01:53:44 | 00:00:00 | |
| DK7TD | 2026-09-02 18:26:01 | 49.16462 | 8.50152 | 129° | 18km/h | 27167m | 5.4m/s | -48.6°C | 0% | 19.5hPa | 2.5V | 03:22:31 | 01:53:42 | 00:00:00 | |
| BIOWL1-15 | 2026-09-02 18:25:58 | 49.16469 | 8.50140 | 149° | 9km/h | 27151m | 4.5m/s | -48.6°C | 0% | 19.6hPa | 2.6V | 03:22:31 | 01:53:39 | 00:00:00 | |
| SONDE2-11 | 2026-09-02 18:25:58 | 49.16471 | 8.50139 | 172° | 7km/h | 27146m | 5.4m/s | -48.7°C | 0.5% | 19.6hPa | 2.5V | 00:00:00 | 00:00:00 | 00:00:00 | |
| DD1CC8 | 2026-09-02 18:25:56 | 49.16476 | 8.50139 | 181° | 11km/h | 27135m | 5.2m/s | -48.7°C | 0.5% | 19.6hPa | 2.5V | 00:00:00 | 00:00:00 | 00:00:00 | |
| DB0ND-19 | 2026-09-02 18:25:54 | 49.16479 | 8.50139 | 165° | 11km/h | 27130m | 4.4m/s | -48.7°C | 0.5% | 19.6hPa | 2.5V | 00:00:00 | 00:00:00 | 00:00:00 | |
| DL8DAS-15 | 2026-09-02 18:25:53 | 49.16479 | 8.50139 | 166° | 13km/h | 27130m | 4.4m/s | -48.7°C | 0.6% | 19.6hPa | 2.5V | 03:22:00 | 00:00:00 | 00:00:00 | |
| DL1XH1-15 | 2026-09-02 18:25:52 | 49.16487 | 8.50092 | 118° | 18km/h | 27093m | 5.4m/s | -48.7°C | 3% | 19.8hPa | 2.5V | 03:22:06 | 01:53:28 | 00:00:00 | |
| DL1XH-west | 2026-09-02 18:25:52 | 49.16483 | 8.50132 | 112° | 15km/h | 27120m | 6.5m/s | -48.7°C | 0% | 19.7hPa | 2.6V | 03:22:31 | 01:53:33 | 00:00:00 | |
| DK7TD | 2026-09-02 18:25:50 | 49.16484 | 8.50117 | 90° | 24km/h | 27108m | 4.7m/s | -48.7°C | 0% | 19.7hPa | 2.6V | 03:22:31 | 01:53:31 | 00:00:00 | |
| BIOWL1-15 | 2026-09-02 18:25:50 | 49.16485 | 8.50099 | 103° | 22km/h | 27098m | 5.7m/s | -48.7°C | 0% | 19.7hPa | 2.5V | 03:22:31 | 01:53:29 | 00:00:00 | |
| DL4BBY-15 | 2026-09-02 18:25:48 | 49.16485 | 8.50099 | 103° | 11km/h | 27099m | 5.7m/s | -47.6°C | 0% | 0hPa | 2.5V | 00:00:00 | 00:00:00 | 00:00:00 | |
| DO3MHA-11 | 2026-09-02 18:25:47 | 49.16487 | 8.50092 | 119° | 7km/h | 27093m | 5.4m/s | -48.6°C | 3.0% | 19.7hPa | 2.5V | 00:00:00 | 01:53:28 | 00:00:00 | |
| CB1BUN | 2026-09-02 18:25:46 | 49.16487 | 8.50092 | 119° | 18km/h | 27093m | 5.4m/s | -48.7°C | 0.5% | 19.8hPa | 2.6V | 03:22:00 | 00:00:00 | 00:00:00 | |
| DB0UT-7 | 2026-09-02 18:25:45 | 49.16492 | 8.50086 | 164° | 11km/h | 27084m | 4.5m/s | -48.6°C | 3.0% | 19.7hPa | 2.6V | 00:00:00 | 01:53:26 | 00:00:00 | |
| DB0NH | 2026-09-02 18:25:44 | 49.16494 | 8.50085 | 183° | 9km/h | 27078m | 5.9m/s | -48.6°C | 3.0% | 19.8hPa | 2.6V | 00:00:00 | 01:53:25 | 00:00:00 | |
| HEMX73-11 | 2026-09-02 18:25:43 | 49.16496 | 8.50085 | 203° | 5km/h | 27072m | 6.1m/s | -48.6°C | 0.5% | 19.8hPa | 2.6V | 03:22:00 | 00:00:00 | 00:00:00 | |
| DM0DOS-11 | 2026-09-02 18:25:42 | 49.16500 | 8.50075 | 121° | 18km/h | 27039m | 5.1m/s | -48.5°C | 3% | 19.9hPa | 2.6V | 03:22:16 | 01:53:18 | 00:00:00 | |
| DL1XH-west | 2026-09-02 18:25:42 | 49.16496 | 8.50086 | 225° | 2km/h | 27066m | 5.3m/s | -48.6°C | 0% | 19.8hPa | 2.5V | 03:22:31 | 01:53:23 | 00:00:00 | |
| HSKMA3-T | 2026-09-02 18:25:40 | 49.16497 | 8.50085 | 102° | 4km/h | 27056m | 4.9m/s | -48.5°C | 0% | 0hPa | 2.5V | 18:12:15 | 01:53:21 | 00:00:00 | |
| BIOWL1-15 | 2026-09-02 18:25:40 | 49.16499 | 8.50080 | 121° | 13km/h | 27045m | 6.3m/s | -48.5°C | 0% | 19.9hPa | 2.6V | 03:22:31 | 01:53:19 | 00:00:00 | |
| DK7TD | 2026-09-02 18:25:39 | 49.16497 | 8.50083 | 115° | 9km/h | 27051m | 5.7m/s | -48.5°C | 0% | 19.9hPa | 2.5V | 03:22:31 | 01:53:20 | 00:00:00 | |
| IW2NTF | 2026-09-02 18:25:38 | 49.16504 | 8.50048 | 68° | 16km/h | 27018m | 5.2m/s | -48.5°C | 3% | 20hPa | 2.5V | 03:22:20 | 01:53:14 | 00:00:00 | |
| DL3AQ-11 | 2026-09-02 18:25:38 | 49.16501 | 8.50075 | 121° | 16km/h | 27039m | 5.1m/s | 0°C | -1.0% | -1.0hPa | 2.5V | 00:00:00 | 00:00:00 | 00:00:00 | |
| DO3MHA-11 | 2026-09-02 18:25:37 | 49.16501 | 8.50075 | 122° | 13km/h | 27039m | 5.1m/s | -48.5°C | 3.0% | 19.9hPa | 2.5V | 00:00:00 | 01:53:18 | 00:00:00 | |
| DM7RM-13 | 2026-09-02 18:25:35 | 49.16503 | 8.50068 | 114° | 20km/h | 27035m | 4.3m/s | -48.5°C | 0.6% | 19.9hPa | 2.5V | 03:22:00 | 00:00:00 | 00:00:00 | |
| DM0DOS-11 | 2026-09-02 18:25:32 | 49.16500 | 8.50041 | 246° | 7km/h | 26986m | 5.8m/s | -48.6°C | 3% | 20.1hPa | 2.5V | 03:22:26 | 01:53:08 | 00:00:00 | |
| DL1XH-west | 2026-09-02 18:25:31 | 49.16500 | 8.50039 | 52° | 9km/h | 27008m | 5.1m/s | -48.6°C | 0% | 20hPa | 2.6V | 03:22:31 | 01:53:12 | 00:00:00 | |
| BIOWL9-15 | 2026-09-02 18:25:31 | 49.16500 | 8.50039 | 52° | 9km/h | 27008m | 5.1m/s | -48.6°C | 0.5% | 20.0hPa | 2.5V | 00:00:00 | 00:00:00 | 00:00:00 | |
| DL1XH1-15 | 2026-09-02 18:25:30 | 49.16502 | 8.50045 | 225° | 4km/h | 26975m | 4.3m/s | -48.5°C | 3% | 20.1hPa | 2.5V | 03:22:28 | 01:53:06 | 00:00:00 | |
| BIOWL1-15 | 2026-09-02 18:25:28 | 49.16500 | 8.50038 | 242° | 7km/h | 26991m | 5.4m/s | -48.6°C | 0% | 20.1hPa | 2.5V | 03:22:31 | 01:53:09 | 00:00:00 | |
| DK5PH-5 | 2026-09-02 18:25:28 | 49.16499 | 8.50038 | 242° | 9km/h | 26992m | 5.3m/s | -48.5°C | 3.0% | 20.0hPa | 2.5V | 00:00:00 | 01:53:09 | 00:00:00 | |
| DO3MHA-11 | 2026-09-02 18:25:27 | 49.16500 | 8.50041 | 247° | 13km/h | 26986m | 5.7m/s | -48.5°C | 3.0% | 20.0hPa | 2.5V | 03:22:00 | 01:53:08 | 00:00:00 | |
| IW2NTF | 2026-09-02 18:25:26 | 49.16508 | 8.50032 | 115° | 20km/h | 26954m | 4.9m/s | -48.5°C | 3% | 20.2hPa | 2.5V | 03:22:32 | 01:53:02 | 00:00:00 | |
| DK7TD | 2026-09-02 18:25:25 | 49.16502 | 8.50045 | 225° | 4km/h | 26975m | 4.3m/s | -48.5°C | 0% | 20.1hPa | 2.5V | 03:22:31 | 01:53:06 | 00:00:00 | |
| HSKMA3-T | 2026-09-02 18:25:24 | 49.16502 | 8.50045 | 136° | 5km/h | 26971m | 4.2m/s | 0°C | 0% | 0hPa | 2.6V | 18:12:15 | 01:53:05 | 00:00:00 | |
| DB0ND-19 | 2026-09-02 18:25:24 | 49.16504 | 8.50042 | 124° | 11km/h | 26966m | 5.8m/s | -48.5°C | 0.5% | 20.1hPa | 2.6V | 00:00:00 | 00:00:00 | 00:00:00 | |
| DJ2DS-15 | 2026-09-02 18:25:23 | 49.16503 | 8.50042 | 125° | 11km/h | 26967m | 5.7m/s | -48.5°C | 3.0% | 20.1hPa | 2.6V | 00:00:00 | 01:53:04 | 00:00:00 | |
| DM0DOS-11 | 2026-09-02 18:25:22 | 49.16508 | 8.50008 | 40° | 9km/h | 26934m | 5.3m/s | -48.6°C | 2.9% | 20.2hPa | 2.6V | 03:22:36 | 01:52:58 | 00:00:00 | |
| DO1YAY-16 | 2026-09-02 18:25:21 | 49.16509 | 8.50024 | 107° | 18km/h | 26950m | 4.0m/s | -48.6°C | 0.5% | 20.2hPa | 2.5V | 00:00:00 | 00:00:00 | 00:00:00 | |
| DL1XH1-15 | 2026-09-02 18:25:20 | 49.16505 | 8.50007 | 339° | 5km/h | 26924m | 5.4m/s | -48.6°C | 3% | 20.3hPa | 2.5V | 03:22:38 | 01:52:56 | 00:00:00 | |
| DL1XH-west | 2026-09-02 18:25:20 | 49.16509 | 8.50024 | 108° | 20km/h | 26950m | 4m/s | -48.6°C | 0% | 20.2hPa | 2.5V | 03:23:22 | 01:53:01 | 00:00:00 | |
| BIOWL1-15 | 2026-09-02 18:25:17 | 49.16509 | 8.50008 | 40° | 9km/h | 26934m | 5.4m/s | -48.6°C | 0% | 20.2hPa | 2.6V | 03:23:22 | 01:52:58 | 00:00:00 | |
| DK7TD | 2026-09-02 18:25:15 | 49.16505 | 8.50007 | 340° | 5km/h | 26924m | 5.4m/s | -48.6°C | 0% | 20.3hPa | 2.5V | 03:23:22 | 01:52:56 | 00:00:00 | |
| DB0UT-7 | 2026-09-02 18:25:15 | 49.16505 | 8.50007 | 340° | 9km/h | 26924m | 5.3m/s | -48.6°C | 3.0% | 20.2hPa | 2.5V | 00:00:00 | 00:00:00 | 00:00:00 | |
| DM7RM-13 | 2026-09-02 18:25:14 | 49.16505 | 8.50007 | 340° | 5km/h | 26924m | 5.4m/s | -48.6°C | 0.6% | 20.3hPa | 2.5V | 03:23:00 | 00:00:00 | 00:00:00 | |
| DL3AQ-11 | 2026-09-02 18:25:13 | 49.16505 | 8.50009 | 219° | 4km/h | 26912m | 5.3m/s | 0°C | -1.0% | -1.0hPa | 2.5V | 00:00:00 | 00:00:00 | 00:00:00 | |
| DL8DAS-15 | 2026-09-02 18:25:11 | 49.16506 | 8.50010 | 193° | 7km/h | 26907m | 4.7m/s | -48.7°C | 0.6% | 20.3hPa | 2.5V | 00:00:00 | 00:00:00 | 00:00:00 | |
| DL1XH1-15 | 2026-09-02 18:25:10 | 49.16512 | 8.49994 | 110° | 15km/h | 26871m | 6m/s | -48.8°C | 3% | 20.4hPa | 2.5V | 03:22:48 | 01:52:46 | 00:00:00 | |
| DL1XH-west | 2026-09-02 18:25:09 | 49.16511 | 8.50008 | 124° | 5km/h | 26892m | 5.7m/s | -48.7°C | 0% | 20.3hPa | 2.5V | 03:23:22 | 01:52:50 | 00:00:00 | |
| BIOWL1-15 | 2026-09-02 18:25:09 | 49.16511 | 8.50003 | 91° | 9km/h | 26882m | 4.4m/s | -48.7°C | 0% | 20.4hPa | 2.6V | 03:23:22 | 01:52:48 | 00:00:00 | |
| NBG1-10 | 2026-09-02 18:25:08 | 49.16511 | 8.50006 | 92° | 9km/h | 26887m | 5.0m/s | -48.7°C | 3.0% | 20.3hPa | 2.6V | 00:00:00 | 01:52:49 | 00:00:00 | |
| DO3MHA-11 | 2026-09-02 18:25:07 | 49.16511 | 8.50003 | 91° | 9km/h | 26882m | 4.3m/s | -48.7°C | 3.0% | 20.3hPa | 2.6V | 00:00:00 | 01:52:48 | 00:00:00 | |
| IW2NTF | 2026-09-02 18:25:06 | 49.16519 | 8.49976 | 121° | 9km/h | 26850m | 6m/s | -48.9°C | 3% | 20.5hPa | 2.6V | 03:22:52 | 01:52:42 | 00:00:00 | |
| DK7TD | 2026-09-02 18:25:05 | 49.16512 | 8.49994 | 110° | 15km/h | 26871m | 6.1m/s | -48.8°C | 0% | 20.4hPa | 2.5V | 03:23:22 | 01:52:46 | 00:00:00 | |
| CB1BUN | 2026-09-02 18:25:04 | 49.16512 | 8.49994 | 111° | 15km/h | 26872m | 6.1m/s | -48.8°C | 0.5% | 20.4hPa | 2.5V | 03:23:00 | 00:00:00 | 00:00:00 | |
| DJ2DS-15 | 2026-09-02 18:25:03 | 49.16516 | 8.49984 | 123° | 9km/h | 26861m | 4.6m/s | -48.8°C | 3.0% | 20.4hPa | 2.5V | 00:00:00 | 01:52:44 | 00:00:00 | |
| DM0DOS-11 | 2026-09-02 18:25:02 | 49.16522 | 8.49976 | 215° | 9km/h | 26830m | 5.7m/s | -49°C | 3% | 20.5hPa | 2.5V | 03:22:56 | 01:52:38 | 00:00:00 | |
| DL1XH1-15 | 2026-09-02 18:25:00 | 49.16528 | 8.49980 | 196° | 15km/h | 26819m | 5.1m/s | -49°C | 3% | 20.6hPa | 2.5V | 03:22:58 | 01:52:36 | 00:00:00 | |
| DL1XH-west | 2026-09-02 18:24:58 | 49.16521 | 8.49974 | 233° | 5km/h | 26836m | 4.8m/s | -48.9°C | 0% | 20.6hPa | 2.5V | 03:23:22 | 01:52:39 | 00:00:00 | |
| BIOWL1-15 | 2026-09-02 18:24:58 | 49.16525 | 8.49978 | 204° | 13km/h | 26824m | 5.8m/s | -49°C | 0% | 20.6hPa | 2.5V | 03:23:22 | 01:52:37 | 00:00:00 | |
| DK5PH-5 | 2026-09-02 18:24:58 | 49.16521 | 8.49974 | 233° | 11km/h | 26836m | 4.8m/s | -48.9°C | 3.0% | 20.5hPa | 2.5V | 03:22:00 | 01:52:39 | 00:00:00 | |
| DO3MHA-11 | 2026-09-02 18:24:57 | 49.16522 | 8.49976 | 216° | 11km/h | 26830m | 5.6m/s | -48.9°C | 3.0% | 20.5hPa | 2.5V | 00:00:00 | 01:52:38 | 00:00:00 | |
| IW2NTF | 2026-09-02 18:24:56 | 49.16537 | 8.49979 | 97° | 7km/h | 26798m | 5.2m/s | -49°C | 3% | 20.6hPa | 2.5V | 03:23:02 | 01:52:32 | 00:00:00 | |
| SONDE2-11 | 2026-09-02 18:24:56 | 49.16528 | 8.49980 | 196° | 15km/h | 26819m | 5.1m/s | -49.0°C | 0.5% | 20.6hPa | 2.5V | 00:00:00 | 00:00:00 | 00:00:00 | |
| DF2AP-13 | 2026-09-02 18:24:55 | 49.16528 | 8.49980 | 197° | 13km/h | 26819m | 5.0m/s | -48.9°C | 3.0% | 20.5hPa | 2.5V | 00:00:00 | 01:52:36 | 00:00:00 | |
| DJ2KF-10 | 2026-09-02 18:24:54 | 49.16531 | 8.49981 | 189° | 11km/h | 26814m | 4.3m/s | -48.9°C | 3.0% | 20.6hPa | 2.6V | 00:00:00 | 01:52:35 | 00:00:00 | |
| KANTATE | 2026-09-02 18:24:53 | 49.16531 | 8.49981 | 189° | 15km/h | 26814m | 4.3m/s | -49.0°C | 0.5% | 20.6hPa | 2.6V | 03:23:00 | 00:00:00 | 00:00:00 | |
| DM0DOS-11 | 2026-09-02 18:24:52 | 49.16537 | 8.49963 | 106° | 11km/h | 26778m | 5.3m/s | -49°C | 3.1% | 20.7hPa | 2.6V | 03:23:06 | 01:52:28 | 00:00:00 | |
| DK7TD | 2026-09-02 18:24:52 | 49.16537 | 8.49981 | 155° | 7km/h | 26804m | 6.2m/s | -49°C | 0% | 20.6hPa | 2.6V | 03:23:22 | 01:52:33 | 00:00:00 | |
| DF1GD-15 | 2026-09-02 18:24:51 | 49.16537 | 8.49981 | 155° | 7km/h | 26804m | 6.2m/s | -49.0°C | 0.6% | 20.6hPa | 2.6V | 03:23:00 | 00:00:00 | 00:00:00 | |
| DL1XH1-15 | 2026-09-02 18:24:50 | 49.16539 | 8.49956 | 122° | 5km/h | 26768m | 5m/s | -49°C | 3.1% | 20.7hPa | 2.6V | 03:23:08 | 01:52:26 | 00:00:00 | |
| DL1XH-west | 2026-09-02 18:24:48 | 49.16537 | 8.49967 | 95° | 13km/h | 26783m | 5.8m/s | -49°C | 0% | 20.7hPa | 2.5V | 03:23:22 | 01:52:29 | 00:00:00 | |
| DO3MHA-11 | 2026-09-02 18:24:47 | 49.16538 | 8.49963 | 107° | 9km/h | 26778m | 5.3m/s | -49.0°C | 3.1% | 20.7hPa | 2.6V | 03:23:00 | 01:52:28 | 00:00:00 | |
| IW2NTF | 2026-09-02 18:24:46 | 49.16542 | 8.49958 | 221° | 7km/h | 26746m | 4.9m/s | -49.1°C | 3.1% | 20.8hPa | 2.5V | 03:23:12 | 01:52:22 | 00:00:00 | |
| BIOWL1-15 | 2026-09-02 18:24:45 | 49.16540 | 8.49956 | 123° | 7km/h | 26768m | 5m/s | -49°C | 0% | 20.8hPa | 2.6V | 03:23:22 | 01:52:26 | 00:00:00 | |
| DB0UT-7 | 2026-09-02 18:24:45 | 49.16540 | 8.49956 | 123° | 11km/h | 26768m | 4.9m/s | -49.0°C | 3.1% | 20.7hPa | 2.5V | 03:23:00 | 01:52:26 | 00:00:00 | |
| DL8DAS-14 | 2026-09-02 18:24:44 | 49.16540 | 8.49955 | 137° | 2km/h | 26762m | 6.4m/s | -49.0°C | 0.6% | 20.8hPa | 2.5V | 00:00:00 | 00:00:00 | 00:00:00 | |
| DJ2DS-15 | 2026-09-02 18:24:43 | 49.16540 | 8.49955 | 255° | 11km/h | 26756m | 5.4m/s | -49.0°C | 3.1% | 20.7hPa | 2.5V | 03:23:00 | 01:52:24 | 00:00:00 | |
| DM0DOS-11 | 2026-09-02 18:24:42 | 49.16553 | 8.49957 | 142° | 15km/h | 26725m | 5m/s | -49°C | 3.1% | 20.9hPa | 2.5V | 03:23:16 | 01:52:18 | 00:00:00 | |
| DK7TD | 2026-09-02 18:24:41 | 49.16542 | 8.49958 | 222° | 7km/h | 26747m | 4.9m/s | -49.1°C | 0% | 20.8hPa | 2.5V | 03:23:22 | 01:52:22 | 00:00:00 | |
| DL1XH1-15 | 2026-09-02 18:24:40 | 49.16557 | 8.49948 | 105° | 13km/h | 26713m | 5.9m/s | -49°C | 3.1% | 20.9hPa | 2.5V | 03:23:18 | 01:52:16 | 00:00:00 | |
| DL1ZP-14 | 2026-09-02 18:24:39 | 49.16550 | 8.49959 | 160° | 15km/h | 26730m | 4.6m/s | -49.1°C | 0.6% | 20.9hPa | 2.6V | 00:00:00 | 00:00:00 | 00:00:00 | |
| DO8TBO-1 | 2026-09-02 18:24:38 | 49.16550 | 8.49959 | 161° | 13km/h | 26730m | 4.6m/s | -49.0°C | 3.1% | 20.8hPa | 2.6V | 00:00:00 | 01:52:19 | 00:00:00 | |
| DL1XH-west | 2026-09-02 18:24:38 | 49.16550 | 8.49959 | 160° | 15km/h | 26730m | 4.6m/s | -49.1°C | 0% | 20.9hPa | 2.6V | 03:23:22 | 01:52:19 | 00:00:00 | |
| DJTTGO | 2026-09-02 18:24:37 | 49.16553 | 8.49957 | 144° | 15km/h | 26725m | 5.0m/s | -49.0°C | 0.6% | 20.9hPa | 2.6V | 03:23:00 | 00:00:00 | 00:00:00 | |
| IW2NTF | 2026-09-02 18:24:36 | 49.16561 | 8.49929 | 130° | 11km/h | 26691m | 4.6m/s | -49°C | 3.1% | 21hPa | 2.6V | 03:23:22 | 01:52:12 | 00:00:00 | |
| BIOWL1-15 | 2026-09-02 18:24:34 | 49.16558 | 8.49943 | 99° | 15km/h | 26708m | 5.3m/s | -49.1°C | 0% | 20.9hPa | 2.5V | 03:23:22 | 01:52:15 | 00:00:00 | |
| DH7VM-15 | 2026-09-02 18:24:33 | 49.16558 | 8.49943 | 100° | 15km/h | 26708m | 5.3m/s | -49.1°C | 0.6% | 20.9hPa | 2.5V | 00:00:00 | 00:00:00 | 00:00:00 | |
| DM0DOS-11 | 2026-09-02 18:24:32 | 49.16565 | 8.49930 | 266° | 7km/h | 26670m | 5.3m/s | -49°C | 3% | 21hPa | 2.5V | 03:23:26 | 01:52:08 | 00:00:00 | |
| DK7TD | 2026-09-02 18:24:31 | 49.16561 | 8.49929 | 130° | 11km/h | 26691m | 4.6m/s | -49°C | 0% | 21hPa | 2.6V | 03:23:22 | 01:52:12 | 00:00:00 | |
| DL1XH1-15 | 2026-09-02 18:24:30 | 49.16566 | 8.49936 | 226° | 7km/h | 26660m | 5.4m/s | -49°C | 3% | 21.1hPa | 2.6V | 03:23:28 | 01:52:06 | 00:00:00 | |
| DL1XH-west | 2026-09-02 18:24:28 | 49.16565 | 8.49928 | 249° | 5km/h | 26675m | 6.4m/s | -49°C | 0% | 21.1hPa | 2.5V | 03:24:13 | 01:52:09 | 00:00:00 | |
| DK5PH-5 | 2026-09-02 18:24:28 | 49.16565 | 8.49928 | 250° | 15km/h | 26676m | 6.4m/s | -49.0°C | 3.0% | 21.0hPa | 2.5V | 00:00:00 | 01:52:09 | 00:00:00 | |
| DL6DJ-15 | 2026-09-02 18:24:27 | 49.16566 | 8.49933 | 255° | 7km/h | 26665m | 4.5m/s | -49.0°C | 0.5% | 21.1hPa | 2.5V | 00:00:00 | 00:00:00 | 00:00:00 | |
| IW2NTF | 2026-09-02 18:24:26 | 49.16577 | 8.49931 | 138° | 15km/h | 26638m | 5.8m/s | -48.9°C | 2.9% | 21.1hPa | 2.5V | 03:23:32 | 01:52:02 | 00:00:00 | |
| BIOWL1-15 | 2026-09-02 18:24:26 | 49.16568 | 8.49937 | 189° | 9km/h | 26654m | 6.2m/s | -48.9°C | 0% | 21.1hPa | 2.6V | 03:24:13 | 01:52:05 | 00:00:00 | |
| SONDE2-11 | 2026-09-02 18:24:25 | 49.16568 | 8.49937 | 188° | 9km/h | 26654m | 6.2m/s | -48.9°C | 0.5% | 21.1hPa | 2.6V | 00:00:00 | 00:00:00 | 00:00:00 | |
| DJ2KF-10 | 2026-09-02 18:24:24 | 49.16568 | 8.49937 | 189° | 15km/h | 26654m | 6.2m/s | -48.9°C | 3.0% | 21.1hPa | 2.6V | 03:23:00 | 01:52:05 | 00:00:00 | |
| DJ2DS-15 | 2026-09-02 18:24:23 | 49.16571 | 8.49936 | 164° | 15km/h | 26649m | 5.2m/s | -48.9°C | 3.0% | 21.1hPa | 2.6V | 00:00:00 | 01:52:04 | 00:00:00 | |
| DM0DOS-11 | 2026-09-02 18:24:22 | 49.16585 | 8.49915 | 134° | 13km/h | 26616m | 6.2m/s | -49°C | 3% | 21.2hPa | 2.6V | 03:23:36 | 01:51:58 | 00:00:00 | |
| DF2AP-13 | 2026-09-02 18:24:21 | 49.16577 | 8.49931 | 139° | 16km/h | 26639m | 5.7m/s | -48.9°C | 2.9% | 21.1hPa | 2.5V | 00:00:00 | 01:52:02 | 00:00:00 | |
| DL1XH1-15 | 2026-09-02 18:24:20 | 49.16590 | 8.49909 | 153° | 15km/h | 26605m | 4.8m/s | -49.1°C | 3% | 21.3hPa | 2.5V | 03:23:38 | 01:51:56 | 00:00:00 | |
| DL1XH-west | 2026-09-02 18:24:18 | 49.16583 | 8.49919 | 124° | 13km/h | 26622m | 4.9m/s | -49°C | 0% | 21.2hPa | 2.6V | 03:24:13 | 01:51:59 | 00:00:00 | |
| HSKMA3-T | 2026-09-02 18:24:14 | 49.16593 | 8.49907 | 158° | 13km/h | 26600m | 5.3m/s | 0°C | 0% | 0hPa | 2.5V | 18:12:15 | 01:51:55 | 00:00:00 | |
| BIOWL1-15 | 2026-09-02 18:24:13 | 49.16596 | 8.49905 | 158° | 9km/h | 26594m | 6.2m/s | -49.1°C | 0% | 21.3hPa | 2.5V | 03:24:13 | 01:51:54 | 00:00:00 | |
| DM0DOS-11 | 2026-09-02 18:24:12 | 49.16618 | 8.49893 | 154° | 20km/h | 26562m | 5.1m/s | -49.2°C | 3.1% | 21.4hPa | 2.5V | 03:23:46 | 01:51:48 | 00:00:00 | |
| DL1XH1-15 | 2026-09-02 18:24:10 | 49.16626 | 8.49886 | 143° | 16km/h | 26551m | 5.2m/s | -49.1°C | 3% | 21.4hPa | 2.6V | 03:23:48 | 01:51:46 | 00:00:00 | |
| DK7TD | 2026-09-02 18:24:08 | 49.16613 | 8.49897 | 159° | 20km/h | 26567m | 4.7m/s | -49.2°C | 0% | 21.4hPa | 2.5V | 03:24:13 | 01:51:49 | 00:00:00 | |
| DL1XH-west | 2026-09-02 18:24:07 | 49.16617 | 8.49893 | 154° | 20km/h | 26562m | 5.1m/s | -49.2°C | 0% | 21.4hPa | 2.5V | 03:24:13 | 01:51:48 | 00:00:00 | |
| BIOWL1-15 | 2026-09-02 18:24:03 | 49.16633 | 8.49878 | 149° | 18km/h | 26541m | 5.8m/s | -49.1°C | 0% | 21.5hPa | 2.6V | 03:24:13 | 01:51:44 | 00:00:00 | |
| DL1XH1-15 | 2026-09-02 18:24:01 | 49.16659 | 8.49852 | 147° | 15km/h | 26498m | 5.5m/s | -49.4°C | 3% | 21.6hPa | 2.5V | 03:23:58 | 01:51:36 | 00:00:00 | |
| DL1XH-west | 2026-09-02 18:23:56 | 49.16656 | 8.49855 | 141° | 13km/h | 26504m | 4.3m/s | -49.3°C | 0% | 21.6hPa | 2.5V | 03:24:13 | 01:51:37 | 00:00:00 | |
| BIOWL1-15 | 2026-09-02 18:23:55 | 49.16668 | 8.49846 | 156° | 22km/h | 26488m | 5m/s | -49.4°C | 0% | 21.6hPa | 2.6V | 03:24:13 | 01:51:34 | 00:00:00 | |
| SONDE2-11 | 2026-09-02 18:23:53 | 49.16668 | 8.49846 | 155° | 20km/h | 26488m | 5.0m/s | -49.4°C | 0.6% | 21.6hPa | 2.5V | 00:00:00 | 00:00:00 | 00:00:00 | |
| DD1CC8 | 2026-09-02 18:23:52 | 49.16677 | 8.49839 | 151° | 18km/h | 26479m | 4.5m/s | -49.6°C | 0.6% | 21.7hPa | 2.5V | 00:00:00 | 00:00:00 | 00:00:00 | |
| KANTATE | 2026-09-02 18:23:51 | 49.16673 | 8.49842 | 156° | 22km/h | 26483m | 3.9m/s | -49.5°C | 0.6% | 21.7hPa | 2.5V | 03:24:00 | 00:00:00 | 00:00:00 | |
| DL1XH1-15 | 2026-09-02 18:23:50 | 49.16694 | 8.49818 | 153° | 16km/h | 26446m | 5.1m/s | -49.9°C | 3.2% | 21.8hPa | 2.5V | 03:24:08 | 01:51:26 | 00:00:00 | |
| DK7TD | 2026-09-02 18:23:46 | 49.16691 | 8.49821 | 144° | 15km/h | 26452m | 6m/s | -49.8°C | 0% | 21.8hPa | 2.5V | 03:24:13 | 01:51:27 | 00:00:00 | |
| DB0UT-7 | 2026-09-02 18:23:45 | 49.16694 | 8.49818 | 154° | 9km/h | 26447m | 5.1m/s | -49.8°C | 3.2% | 21.7hPa | 2.5V | 00:00:00 | 01:51:26 | 00:00:00 | |
| DN1GJH-1 | 2026-09-02 18:23:44 | 49.16694 | 8.49818 | 154° | 16km/h | 26447m | 5.1m/s | -49.9°C | 0.6% | 21.8hPa | 2.5V | 03:24:00 | 00:00:00 | 00:00:00 | |
| DJ2DS-15 | 2026-09-02 18:23:43 | 49.16702 | 8.49813 | 162° | 9km/h | 26437m | 4.8m/s | -50.0°C | 3.2% | 21.8hPa | 2.5V | 00:00:00 | 01:51:24 | 00:00:00 | |
| DM0DOS-11 | 2026-09-02 18:23:42 | 49.16719 | 8.49806 | 163° | 13km/h | 26404m | 4.6m/s | -50.1°C | 3.1% | 21.9hPa | 2.5V | 03:24:16 | 01:51:18 | 00:00:00 | |
| BIOWL1-15 | 2026-09-02 18:23:42 | 49.16705 | 8.49811 | 162° | 13km/h | 26431m | 6.3m/s | -50.1°C | 0% | 21.8hPa | 2.6V | 03:24:13 | 01:51:23 | 00:00:00 | |
| OE5DXL-15 | 2026-09-02 18:23:42 | 49.16705 | 8.49811 | 163° | 7km/h | 26432m | 6.3m/s | 0°C | 0% | 0hPa | 2.6V | 03:24:00 | 00:00:00 | 00:00:00 | |
| DB0UT-9 | 2026-09-02 18:23:41 | 49.16705 | 8.49811 | 163° | 13km/h | 26432m | 6.3m/s | -50.1°C | 0.6% | 21.8hPa | 2.6V | 03:24:00 | 00:00:00 | 00:00:00 | |
| DL1XH1-15 | 2026-09-02 18:23:40 | 49.16724 | 8.49803 | 131° | 7km/h | 26395m | 5.2m/s | -50.2°C | 3.1% | 21.9hPa | 2.6V | 03:24:18 | 01:51:16 | 00:00:00 | |
| DJ2DS-15 | 2026-09-02 18:23:39 | 49.16716 | 8.49807 | 168° | 11km/h | 26409m | 5.9m/s | -50.1°C | 0.6% | 21.9hPa | 2.5V | 00:00:00 | 00:00:00 | 00:00:00 | |
| IW2NTF | 2026-09-02 18:23:37 | 49.16720 | 8.49791 | 54° | 11km/h | 26373m | 5.2m/s | -50.2°C | 3.2% | 22hPa | 2.5V | 03:24:22 | 01:51:12 | 00:00:00 | |
| BIOWL1-15 | 2026-09-02 18:23:37 | 49.16722 | 8.49795 | 48° | 11km/h | 26378m | 4.5m/s | -50.2°C | 0% | 22hPa | 2.5V | 03:25:04 | 01:51:13 | 00:00:00 | |
| DL1XH-west | 2026-09-02 18:23:36 | 49.16722 | 8.49805 | 154° | 11km/h | 26400m | 4.1m/s | -50.1°C | 0% | 21.9hPa | 2.5V | 03:25:04 | 01:51:17 | 00:00:00 | |
| DL1ZP-14 | 2026-09-02 18:23:36 | 49.16722 | 8.49805 | 153° | 9km/h | 26400m | 4.1m/s | -50.1°C | 0.6% | 21.9hPa | 2.5V | 00:00:00 | 00:00:00 | 00:00:00 | |
| AU51GT2 | 2026-09-02 18:23:33 | 49.16722 | 8.49795 | 47° | 11km/h | 26379m | 4.5m/s | -50.2°C | 0.6% | 22.0hPa | 2.6V | 00:00:00 | 00:00:00 | 00:00:00 | |
| DM0DOS-11 | 2026-09-02 18:23:32 | 49.16721 | 8.49785 | 183° | 5km/h | 26354m | 5.1m/s | -50.3°C | 3.3% | 22.1hPa | 2.6V | 03:24:26 | 01:51:08 | 00:00:00 | |
| KANTATE | 2026-09-02 18:23:31 | 49.16722 | 8.49795 | 49° | 11km/h | 26379m | 4.5m/s | -50.2°C | 0.6% | 22.0hPa | 2.5V | 03:25:00 | 00:00:00 | 00:00:00 | |
| DL1XH1-15 | 2026-09-02 18:23:30 | 49.16723 | 8.49786 | 216° | 4km/h | 26343m | 5.2m/s | -50.2°C | 3.2% | 22.1hPa | 2.5V | 03:24:28 | 01:51:06 | 00:00:00 | |
| DB0NH | 2026-09-02 18:23:29 | 49.16719 | 8.49786 | 114° | 9km/h | 26363m | 4.7m/s | -50.2°C | 3.3% | 22.0hPa | 2.6V | 00:00:00 | 01:51:10 | 00:00:00 | |
| DK5PH-5 | 2026-09-02 18:23:28 | 49.16720 | 8.49785 | 158° | 7km/h | 26359m | 4.2m/s | -50.2°C | 3.3% | 22.0hPa | 2.6V | 00:00:00 | 01:51:09 | 00:00:00 | |
| DO3MHA-11 | 2026-09-02 18:23:27 | 49.16721 | 8.49785 | 184° | 9km/h | 26354m | 5.1m/s | -50.2°C | 3.3% | 22.0hPa | 2.6V | 03:24:00 | 01:51:08 | 00:00:00 | |
| IW2NTF | 2026-09-02 18:23:26 | 49.16730 | 8.49783 | 144° | 13km/h | 26322m | 5.4m/s | -50.3°C | 3.3% | 22.2hPa | 2.6V | 03:24:32 | 01:51:02 | 00:00:00 | |
| DL1XH-west | 2026-09-02 18:23:26 | 49.16722 | 8.49785 | 206° | 4km/h | 26348m | 5.8m/s | -50.2°C | 0% | 22.1hPa | 2.6V | 03:25:04 | 01:51:07 | 00:00:00 | |
| DK7TD | 2026-09-02 18:23:25 | 49.16723 | 8.49786 | 217° | 4km/h | 26343m | 5.2m/s | -50.2°C | 0% | 22.1hPa | 2.5V | 03:25:04 | 01:51:06 | 00:00:00 | |
| DL6DJ-15 | 2026-09-02 18:23:25 | 49.16724 | 8.49787 | 194° | 4km/h | 26338m | 4.5m/s | -50.3°C | 0.6% | 22.1hPa | 2.5V | 00:00:00 | 00:00:00 | 00:00:00 | |
| DJ2KF-10 | 2026-09-02 18:23:24 | 49.16724 | 8.49787 | 195° | 9km/h | 26338m | 4.5m/s | -50.2°C | 3.3% | 22.1hPa | 2.5V | 00:00:00 | 01:51:05 | 00:00:00 | |
| DN1GJH-1 | 2026-09-02 18:23:23 | 49.16724 | 8.49786 | 195° | 4km/h | 26338m | 4.5m/s | -50.3°C | 0.6% | 22.1hPa | 2.5V | 03:25:00 | 00:00:00 | 00:00:00 | |
| DM0DOS-11 | 2026-09-02 18:23:22 | 49.16734 | 8.49769 | 58° | 7km/h | 26301m | 5.4m/s | -50.3°C | 3.2% | 22.3hPa | 2.5V | 03:24:36 | 01:50:58 | 00:00:00 | |
| BIOWL1-15 | 2026-09-02 18:23:21 | 49.16730 | 8.49783 | 145° | 13km/h | 26322m | 5.4m/s | -50.3°C | 0% | 22.2hPa | 2.6V | 03:25:04 | 01:51:02 | 00:00:00 | |
| HEMX73-11 | 2026-09-02 18:23:20 | 49.16730 | 8.49783 | 146° | 13km/h | 26322m | 5.4m/s | -50.3°C | 0.6% | 22.2hPa | 2.6V | 03:25:00 | 00:00:00 | 00:00:00 | |
| DF2AP-13 | 2026-09-02 18:23:19 | 49.16734 | 8.49776 | 119° | 7km/h | 26313m | 5.0m/s | -50.2°C | 3.2% | 22.2hPa | 2.6V | 03:24:00 | 01:51:00 | 00:00:00 | |
| DO1YAY-16 | 2026-09-02 18:23:17 | 49.16733 | 8.49767 | 34° | 7km/h | 26296m | 4.9m/s | -50.3°C | 0.6% | 22.3hPa | 2.5V | 00:00:00 | 00:00:00 | 00:00:00 | |
| IW2NTF | 2026-09-02 18:23:16 | 49.16730 | 8.49769 | 263° | 5km/h | 26269m | 6.2m/s | -50.3°C | 3.2% | 22.4hPa | 2.5V | 03:24:42 | 01:50:52 | 00:00:00 | |
| DL1XH-west | 2026-09-02 18:23:15 | 49.16731 | 8.49766 | 22° | 5km/h | 26291m | 5.7m/s | -50.3°C | 0% | 22.3hPa | 2.5V | 03:25:04 | 01:50:56 | 00:00:00 | |
| DK7TD | 2026-09-02 18:23:14 | 49.16730 | 8.49765 | 4° | 4km/h | 26285m | 5.8m/s | -50.3°C | 0% | 22.3hPa | 2.6V | 03:25:04 | 01:50:55 | 00:00:00 | |
| DM0DOS-11 | 2026-09-02 18:23:12 | 49.16735 | 8.49772 | 164° | 13km/h | 26248m | 6.3m/s | -50.3°C | 3.2% | 22.4hPa | 2.6V | 03:24:46 | 01:50:48 | 00:00:00 | |
| DL8DAS-14 | 2026-09-02 18:23:11 | 49.16730 | 8.49769 | 263° | 5km/h | 26269m | 6.2m/s | -50.3°C | 0.6% | 22.4hPa | 2.6V | 00:00:00 | 00:00:00 | 00:00:00 | |
| BIOWL1-15 | 2026-09-02 18:23:11 | 49.16730 | 8.49769 | 264° | 5km/h | 26269m | 6.2m/s | -50.3°C | 0% | 22.4hPa | 2.5V | 03:25:04 | 01:50:52 | 00:00:00 | |
| DL1XH1-15 | 2026-09-02 18:23:10 | 49.16742 | 8.49767 | 145° | 16km/h | 26237m | 4.3m/s | -50.3°C | 3.2% | 22.5hPa | 2.6V | 03:24:48 | 01:50:46 | 00:00:00 | |
| DJTTGO | 2026-09-02 18:23:08 | 49.16733 | 8.49773 | 180° | 9km/h | 26254m | 5.1m/s | -50.3°C | 0.6% | 22.4hPa | 2.5V | 03:25:00 | 00:00:00 | 00:00:00 | |
| DO3MHA-11 | 2026-09-02 18:23:07 | 49.16735 | 8.49772 | 165° | 9km/h | 26248m | 6.3m/s | -50.2°C | 3.2% | 22.4hPa | 2.5V | 00:00:00 | 01:50:48 | 00:00:00 | |
| IW2NTF | 2026-09-02 18:23:06 | 49.16747 | 8.49755 | 26° | 5km/h | 26218m | 4.5m/s | -50.3°C | 3.2% | 22.6hPa | 2.5V | 03:24:52 | 01:50:42 | 00:00:00 | |
| DL1XH-west | 2026-09-02 18:23:05 | 49.16742 | 8.49767 | 146° | 16km/h | 26237m | 4.3m/s | -50.3°C | 0% | 22.5hPa | 2.6V | 03:25:04 | 01:50:46 | 00:00:00 | |
| DK7TD | 2026-09-02 18:23:04 | 49.16745 | 8.49763 | 135° | 13km/h | 26233m | 4.3m/s | -50.3°C | 0% | 22.5hPa | 2.5V | 03:25:04 | 01:50:45 | 00:00:00 | |
| OE5DXL-15 | 2026-09-02 18:23:03 | 49.16747 | 8.49760 | 117° | 5km/h | 26229m | 5.8m/s | 0°C | 0% | 0hPa | 2.5V | 00:00:00 | 00:00:00 | 00:00:00 | |
| DM0DOS-11 | 2026-09-02 18:23:02 | 49.16743 | 8.49756 | 225° | 4km/h | 26197m | 4.8m/s | -50.4°C | 3.3% | 22.6hPa | 2.5V | 03:24:56 | 01:50:38 | 00:00:00 | |
| HTAHTA | 2026-09-02 18:23:01 | 49.16744 | 8.49756 | 225° | 2km/h | 26197m | 4.8m/s | -50.4°C | 0.6% | 22.6hPa | 2.5V | 00:00:00 | 00:00:00 | 00:00:00 | |
| DL1XH1-15 | 2026-09-02 18:23:00 | 49.16745 | 8.49758 | 225° | 4km/h | 26187m | 5.8m/s | -50.4°C | 3.3% | 22.7hPa | 2.5V | 03:24:58 | 01:50:36 | 00:00:00 | |
| BIOWL1-15 | 2026-09-02 18:23:00 | 49.16745 | 8.49755 | 6° | 5km/h | 26213m | 4.8m/s | -50.3°C | 0% | 22.6hPa | 2.6V | 03:25:04 | 01:50:41 | 00:00:00 | |
| DL9PN | 2026-09-02 18:22:59 | 49.16744 | 8.49756 | 225° | 2km/h | 26197m | 4.8m/s | 0°C | -1.0% | -1.0hPa | 2.6V | 00:00:00 | 00:00:00 | 00:00:00 | |
| DK5PH-5 | 2026-09-02 18:22:58 | 49.16743 | 8.49755 | 283° | 5km/h | 26202m | 5.4m/s | -50.3°C | 3.3% | 22.6hPa | 2.6V | 03:24:00 | 01:50:39 | 00:00:00 | |
| DO3MHA-11 | 2026-09-02 18:22:57 | 49.16743 | 8.49756 | 226° | 7km/h | 26198m | 4.8m/s | -50.3°C | 3.3% | 22.6hPa | 2.6V | 00:00:00 | 01:50:38 | 00:00:00 | |
| IW2NTF | 2026-09-02 18:22:56 | 49.16751 | 8.49763 | 191° | 13km/h | 26166m | 6.1m/s | -50.4°C | 3.2% | 22.7hPa | 2.6V | 03:25:02 | 01:50:32 | 00:00:00 | |
| DL1XH-west | 2026-09-02 18:22:54 | 49.16746 | 8.49759 | 224° | 4km/h | 26182m | 5.4m/s | -50.4°C | 0% | 22.7hPa | 2.5V | 03:25:04 | 01:50:35 | 00:00:00 | |
| DL6DJ-15 | 2026-09-02 18:22:54 | 49.16747 | 8.49761 | 208° | 5km/h | 26177m | 4.5m/s | -50.4°C | 0.6% | 22.7hPa | 2.6V | 00:00:00 | 00:00:00 | 00:00:00 | |
| DF3TZ-5 | 2026-09-02 18:22:53 | 49.16747 | 8.49761 | 208° | 5km/h | 26177m | 4.5m/s | -50.4°C | 0.6% | 22.7hPa | 2.6V | 00:00:00 | 00:00:00 | 00:00:00 | |
| SONDE2-11 | 2026-09-02 18:22:52 | 49.16751 | 8.49763 | 191° | 11km/h | 26166m | 6.1m/s | -50.4°C | 0.6% | 22.7hPa | 2.6V | 00:00:00 | 00:00:00 | 00:00:00 | |
| DM7RM-13 | 2026-09-02 18:22:51 | 49.16749 | 8.49762 | 199° | 9km/h | 26172m | 5.2m/s | -50.4°C | 0.6% | 22.7hPa | 2.6V | 03:25:00 | 00:00:00 | 00:00:00 | |
| DL1XH1-15 | 2026-09-02 18:22:50 | 49.16762 | 8.49761 | 30° | 5km/h | 26136m | 3.7m/s | -50.3°C | 3.3% | 22.8hPa | 2.6V | 03:25:08 | 01:50:26 | 00:00:00 | |
| BIOWL1-15 | 2026-09-02 18:22:49 | 49.16758 | 8.49764 | 180° | 13km/h | 26156m | 4.2m/s | -50.4°C | 0% | 22.8hPa | 2.5V | 03:25:04 | 01:50:30 | 00:00:00 | |
| DB0ND-19 | 2026-09-02 18:22:48 | 49.16761 | 8.49763 | 170° | 7km/h | 26152m | 5.1m/s | -50.4°C | 0.6% | 22.8hPa | 2.5V | 00:00:00 | 00:00:00 | 00:00:00 | |
| DO3MHA-11 | 2026-09-02 18:22:47 | 49.16762 | 8.49762 | 144° | 5km/h | 26146m | 5.9m/s | -50.3°C | 3.2% | 22.8hPa | 2.5V | 03:25:00 | 01:50:28 | 00:00:00 | |
| IW2NTF | 2026-09-02 18:22:46 | 49.16763 | 8.49761 | 203° | 7km/h | 26116m | 4.8m/s | -50.3°C | 3.3% | 22.9hPa | 2.5V | 03:25:12 | 01:50:22 | 00:00:00 | |
| DO1YAY-16 | 2026-09-02 18:22:46 | 49.16762 | 8.49761 | 30° | 4km/h | 26136m | 3.7m/s | -50.3°C | 0.6% | 22.8hPa | 2.6V | 00:00:00 | 00:00:00 | 00:00:00 | |
| SONCRA | 2026-09-02 18:22:45 | 49.16762 | 8.49761 | 30° | 4km/h | 26136m | 3.7m/s | -50.3°C | 0.6% | 22.8hPa | 2.6V | 00:00:00 | 00:00:00 | 00:00:00 | |
| DK7TD | 2026-09-02 18:22:44 | 49.16761 | 8.49760 | 21° | 4km/h | 26132m | 5.3m/s | -50.3°C | 0% | 22.9hPa | 2.6V | 03:25:55 | 01:50:25 | 00:00:00 | |
| DL1XH-west | 2026-09-02 18:22:43 | 49.16761 | 8.49760 | 238° | 0km/h | 26126m | 5.6m/s | -50.3°C | 0% | 22.9hPa | 2.5V | 03:25:55 | 01:50:24 | 00:00:00 | |
| BIOWL1-15 | 2026-09-02 18:22:41 | 49.16766 | 8.49764 | 203° | 7km/h | 26106m | 5.3m/s | -50.3°C | 0% | 23hPa | 2.6V | 03:25:55 | 01:50:20 | 00:00:00 | |
| DL1XH1-15 | 2026-09-02 18:22:40 | 49.16770 | 8.49765 | 168° | 4km/h | 26086m | 4.8m/s | -50.2°C | 3.2% | 23hPa | 2.6V | 03:25:18 | 01:50:16 | 00:00:00 | |
| DB0UT-9 | 2026-09-02 18:22:39 | 49.16764 | 8.49762 | 205° | 9km/h | 26111m | 4.6m/s | -50.3°C | 0.7% | 22.9hPa | 2.5V | 03:25:00 | 00:00:00 | 00:00:00 | |
| DO3MHA-11 | 2026-09-02 18:22:37 | 49.16768 | 8.49765 | 193° | 5km/h | 26095m | 4.8m/s | -50.2°C | 3.2% | 22.9hPa | 2.5V | 00:00:00 | 01:50:18 | 00:00:00 | |
| IW2NTF | 2026-09-02 18:22:36 | 49.16779 | 8.49761 | 157° | 9km/h | 26066m | 4.4m/s | -50.2°C | 3.2% | 23.1hPa | 2.5V | 03:25:22 | 01:50:12 | 00:00:00 | |
| DL1ZP-14 | 2026-09-02 18:22:34 | 49.16771 | 8.49764 | 169° | 7km/h | 26081m | 6.0m/s | -50.2°C | 0.6% | 23.0hPa | 2.6V | 00:00:00 | 00:00:00 | 00:00:00 | |
| DM0DOS-11 | 2026-09-02 18:22:32 | 49.16781 | 8.49756 | 103° | 4km/h | 26045m | 4.6m/s | -50.3°C | 3.2% | 23.2hPa | 2.5V | 03:25:26 | 01:50:08 | 00:00:00 | |
| DL1XH-west | 2026-09-02 18:22:32 | 49.16776 | 8.49763 | 165° | 11km/h | 26070m | 4.3m/s | -50.2°C | 0% | 23.1hPa | 2.5V | 03:25:55 | 01:50:13 | 00:00:00 | |
| BIOWL1-15 | 2026-09-02 18:22:28 | 49.16781 | 8.49757 | 84° | 4km/h | 26050m | 4.4m/s | -50.3°C | 0% | 23.1hPa | 2.6V | 03:25:55 | 01:50:09 | 00:00:00 | |
| DK5PH-5 | 2026-09-02 18:22:28 | 49.16781 | 8.49757 | 85° | 7km/h | 26050m | 4.4m/s | -50.2°C | 3.2% | 23.1hPa | 2.6V | 00:00:00 | 01:50:09 | 00:00:00 | |
| DB0NH | 2026-09-02 18:22:27 | 49.16781 | 8.49756 | 104° | 9km/h | 26046m | 4.6m/s | -50.2°C | 3.2% | 23.1hPa | 2.6V | 00:00:00 | 01:50:08 | 00:00:00 | |
| IW2NTF | 2026-09-02 18:22:26 | 49.16787 | 8.49755 | 100° | 0km/h | 26016m | 5.3m/s | -50.3°C | 3.3% | 23.3hPa | 2.6V | 03:25:32 | 01:50:02 | 00:00:00 | |
| DJ2KF-10 | 2026-09-02 18:22:24 | 49.16784 | 8.49754 | 186° | 7km/h | 26031m | 3.9m/s | -50.2°C | 3.3% | 23.2hPa | 2.5V | 03:25:00 | 01:50:05 | 00:00:00 | |
| DL6DJ-15 | 2026-09-02 18:22:23 | 49.16787 | 8.49755 | 100° | 0km/h | 26016m | 5.3m/s | -50.3°C | 0.6% | 23.3hPa | 2.5V | 00:00:00 | 00:00:00 | 00:00:00 | |
| DM0DOS-11 | 2026-09-02 18:22:22 | 49.16789 | 8.49749 | 145° | 11km/h | 25995m | 5.9m/s | -50.2°C | 3.2% | 23.4hPa | 2.5V | 03:25:36 | 01:49:58 | 00:00:00 | |
| DL1XH-west | 2026-09-02 18:22:22 | 49.16787 | 8.49755 | 188° | 4km/h | 26021m | 5.5m/s | -50.3°C | 0% | 23.3hPa | 2.6V | 03:25:55 | 01:50:03 | 00:00:00 | |
| DK7TD | 2026-09-02 18:22:21 | 49.16787 | 8.49755 | 101° | 0km/h | 26016m | 5.3m/s | -50.3°C | 0% | 23.3hPa | 2.6V | 03:25:55 | 01:50:02 | 00:00:00 | |
| BIOWL1-15 | 2026-09-02 18:22:17 | 49.16789 | 8.49749 | 146° | 11km/h | 25995m | 5.9m/s | -50.3°C | 0% | 23.4hPa | 2.5V | 03:25:55 | 01:49:58 | 00:00:00 | |
| DO3MHA-11 | 2026-09-02 18:22:17 | 49.16789 | 8.49749 | 146° | 7km/h | 25996m | 5.8m/s | -50.2°C | 3.2% | 23.3hPa | 2.5V | 00:00:00 | 01:49:58 | 00:00:00 | |
| DB0UT-7 | 2026-09-02 18:22:15 | 49.16794 | 8.49746 | 165° | 9km/h | 25986m | 4.1m/s | -50.2°C | 3.2% | 23.3hPa | 2.6V | 00:00:00 | 00:00:00 | 00:00:00 | |
| SONCRA | 2026-09-02 18:22:14 | 49.16796 | 8.49745 | 177° | 5km/h | 25981m | 6.0m/s | -50.2°C | 0.6% | 23.4hPa | 2.6V | 00:00:00 | 00:00:00 | 00:00:00 | |
| DM0DOS-11 | 2026-09-02 18:22:12 | 49.16801 | 8.49757 | 260° | 2km/h | 25943m | 5.7m/s | -50.1°C | 3.2% | 23.5hPa | 2.6V | 03:25:46 | 01:49:48 | 00:00:00 | |
| DL1XH-west | 2026-09-02 18:22:11 | 49.16798 | 8.49750 | 258° | 7km/h | 25965m | 5.3m/s | -50.1°C | 0% | 23.5hPa | 2.5V | 03:25:55 | 01:49:52 | 00:00:00 | |
| DK7TD | 2026-09-02 18:22:10 | 49.16799 | 8.49752 | 246° | 7km/h | 25960m | 5.9m/s | -50.2°C | 0% | 23.5hPa | 2.5V | 03:25:55 | 01:49:51 | 00:00:00 | |
| BIOWL1-15 | 2026-09-02 18:22:07 | 49.16801 | 8.49757 | 260° | 2km/h | 25944m | 5.7m/s | -50.1°C | 0% | 23.5hPa | 2.6V | 03:25:55 | 01:49:48 | 00:00:00 | |
| DO3MHA-11 | 2026-09-02 18:22:07 | 49.16801 | 8.49757 | 261° | 9km/h | 25944m | 5.7m/s | -50.1°C | 3.2% | 23.5hPa | 2.5V | 03:25:00 | 01:49:48 | 00:00:00 | |
| IW2NTF | 2026-09-02 18:22:07 | 49.16808 | 8.49747 | 147° | 18km/h | 25913m | 4.4m/s | -50.2°C | 3.3% | 23.6hPa | 2.6V | 03:25:52 | 01:49:42 | 00:00:00 | |
| DF1GD-15 | 2026-09-02 18:22:06 | 49.16801 | 8.49757 | 0° | 0km/h | 25944m | 5.7m/s | -50.1°C | 0.6% | 23.5hPa | 2.5V | 03:25:00 | 00:00:00 | 00:00:00 | |
| DL1ZP-14 | 2026-09-02 18:22:03 | 49.16802 | 8.49754 | 142° | 9km/h | 25924m | 5.8m/s | -50.1°C | 0.6% | 23.6hPa | 2.5V | 00:00:00 | 00:00:00 | 00:00:00 | |
| DM0DOS-11 | 2026-09-02 18:22:02 | 49.16818 | 8.49732 | 80° | 7km/h | 25894m | 5.4m/s | -50.3°C | 3.1% | 23.7hPa | 2.5V | 03:25:56 | 01:49:38 | 00:00:00 | |
| DJ2DS-15 | 2026-09-02 18:22:02 | 49.16805 | 8.49751 | 149° | 11km/h | 25918m | 5.9m/s | -50.1°C | 3.2% | 23.6hPa | 2.6V | 03:25:00 | 01:49:43 | 00:00:00 | |
| DJTTGO | 2026-09-02 18:22:01 | 49.16805 | 8.49751 | 149° | 15km/h | 25918m | 5.9m/s | -50.2°C | 0.6% | 23.6hPa | 2.6V | 00:00:00 | 00:00:00 | 00:00:00 | |
| DL1XH1-15 | 2026-09-02 18:22:00 | 49.16816 | 8.49729 | 18° | 5km/h | 25884m | 4.1m/s | -50.4°C | 3.1% | 23.8hPa | 2.6V | 03:25:58 | 01:49:36 | 00:00:00 | |
| DL1XH-west | 2026-09-02 18:22:00 | 49.16812 | 8.49743 | 143° | 18km/h | 25909m | 3.6m/s | -50.2°C | 0% | 23.6hPa | 2.6V | 03:25:55 | 01:49:41 | 00:00:00 | |
| DK7TD | 2026-09-02 18:21:59 | 49.16815 | 8.49739 | 134° | 15km/h | 25905m | 4.7m/s | -50.2°C | 0% | 23.7hPa | 2.5V | 03:25:55 | 01:49:40 | 00:00:00 | |
| BIOWL1-15 | 2026-09-02 18:21:58 | 49.16817 | 8.49730 | 43° | 7km/h | 25889m | 4.6m/s | -50.3°C | 0% | 23.7hPa | 2.5V | 03:26:46 | 01:49:37 | 00:00:00 | |
| DL9PN | 2026-09-02 18:21:57 | 49.16817 | 8.49730 | 42° | 5km/h | 25889m | 4.6m/s | 0°C | -1.0% | -1.0hPa | 2.5V | 00:00:00 | 00:00:00 | 00:00:00 | |
| IW2NTF | 2026-09-02 18:21:56 | 49.16819 | 8.49730 | 181° | 13km/h | 25864m | 4.7m/s | -50.5°C | 3.2% | 23.8hPa | 2.5V | 03:26:02 | 01:49:32 | 00:00:00 | |
| OE5DXL-15 | 2026-09-02 18:21:55 | 49.16816 | 8.49729 | 19° | 5km/h | 25885m | 4.0m/s | 0°C | 0% | 0hPa | 2.6V | 00:00:00 | 00:00:00 | 00:00:00 | |
| DJ2KF-10 | 2026-09-02 18:21:53 | 49.16815 | 8.49729 | 209° | 11km/h | 25875m | 5.6m/s | -50.4°C | 3.2% | 23.7hPa | 2.6V | 00:00:00 | 01:49:34 | 00:00:00 | |
| DM0DOS-11 | 2026-09-02 18:21:52 | 49.16830 | 8.49722 | 125° | 13km/h | 25844m | 4.6m/s | -50.7°C | 3.3% | 23.9hPa | 2.6V | 03:26:06 | 01:49:28 | 00:00:00 | |
| DF3TZ-5 | 2026-09-02 18:21:51 | 49.16819 | 8.49730 | 181° | 11km/h | 25864m | 4.7m/s | -50.5°C | 0.6% | 23.8hPa | 2.5V | 00:00:00 | 00:00:00 | 00:00:00 | |
| DL1XH1-15 | 2026-09-02 18:21:50 | 49.16833 | 8.49713 | 120° | 15km/h | 25833m | 5.8m/s | -50.8°C | 3.3% | 23.9hPa | 2.5V | 03:26:08 | 01:49:26 | 00:00:00 | |
| DL1XH-west | 2026-09-02 18:21:50 | 49.16822 | 8.49729 | 171° | 15km/h | 25860m | 4.5m/s | -50.6°C | 0% | 23.8hPa | 2.5V | 03:26:46 | 01:49:31 | 00:00:00 | |
| DK7TD | 2026-09-02 18:21:49 | 49.16826 | 8.49728 | 157° | 13km/h | 25854m | 5.8m/s | -50.6°C | 0% | 23.9hPa | 2.5V | 03:26:46 | 01:49:30 | 00:00:00 | |
| DF2AP-13 | 2026-09-02 18:21:49 | 49.16825 | 8.49728 | 158° | 11km/h | 25855m | 5.8m/s | -50.5°C | 3.2% | 23.8hPa | 2.5V | 00:00:00 | 01:49:30 | 00:00:00 | |
| DO3MHA-11 | 2026-09-02 18:21:47 | 49.16830 | 8.49722 | 126° | 13km/h | 25844m | 4.5m/s | -50.6°C | 3.3% | 23.8hPa | 2.6V | 00:00:00 | 01:49:28 | 00:00:00 | |
| IW2NTF | 2026-09-02 18:21:46 | 49.16837 | 8.49694 | 73° | 13km/h | 25814m | 6.1m/s | -51°C | 3.4% | 24hPa | 2.6V | 03:26:12 | 01:49:22 | 00:00:00 | |
| BIOWL1-15 | 2026-09-02 18:21:45 | 49.16834 | 8.49713 | 120° | 15km/h | 25833m | 5.8m/s | -50.8°C | 0% | 23.9hPa | 2.5V | 03:26:46 | 01:49:26 | 00:00:00 | |
| DB0UT-7 | 2026-09-02 18:21:45 | 49.16834 | 8.49713 | 121° | 11km/h | 25834m | 5.7m/s | -50.7°C | 3.3% | 23.9hPa | 2.5V | 00:00:00 | 01:49:26 | 00:00:00 | |
| SONCRA | 2026-09-02 18:21:43 | 49.16837 | 8.49703 | 105° | 13km/h | 25824m | 4.2m/s | -50.9°C | -1.0% | -1.0hPa | 2.5V | 00:00:00 | 00:00:00 | 00:00:00 | |
| DM0DOS-11 | 2026-09-02 18:21:42 | 49.16833 | 8.49681 | 131° | 5km/h | 25795m | 5.8m/s | -51°C | 3.4% | 24.1hPa | 2.5V | 03:26:16 | 01:49:18 | 00:00:00 | |
| DJ2DS-15 | 2026-09-02 18:21:42 | 49.16837 | 8.49699 | 89° | 11km/h | 25819m | 4.8m/s | -50.9°C | 3.4% | 23.9hPa | 2.5V | 00:00:00 | 01:49:23 | 00:00:00 | |
| DL0LBS | 2026-09-02 18:21:41 | 49.16837 | 8.49699 | 90° | 13km/h | 25819m | 4.9m/s | -50.9°C | 0.7% | 24.0hPa | 2.5V | 03:26:00 | 00:00:00 | 00:00:00 | |
| DL1XH1-15 | 2026-09-02 18:21:40 | 49.16838 | 8.49678 | 167° | 13km/h | 25783m | 5.2m/s | -51°C | 3.3% | 24.1hPa | 2.5V | 03:26:18 | 01:49:16 | 00:00:00 | |
| DL1XH-west | 2026-09-02 18:21:39 | 49.16834 | 8.49685 | 58° | 11km/h | 25803m | 3.9m/s | -51°C | 0% | 24.1hPa | 2.6V | 03:26:46 | 01:49:20 | 00:00:00 | |
| DK7TD | 2026-09-02 18:21:38 | 49.16833 | 8.49683 | 74° | 7km/h | 25799m | 4.2m/s | -51°C | 0% | 24.1hPa | 2.5V | 03:26:46 | 01:49:19 | 00:00:00 | |
| BIOWL1-15 | 2026-09-02 18:21:34 | 49.16841 | 8.49677 | 159° | 15km/h | 25778m | 5.3m/s | -51°C | 0% | 24.2hPa | 2.6V | 03:26:46 | 01:49:15 | 00:00:00 | |
| BIOWL7-15 | 2026-09-02 18:21:33 | 49.16841 | 8.49677 | 160° | 15km/h | 25778m | 5.3m/s | -51.0°C | 0.6% | 24.2hPa | 2.6V | 03:26:00 | 00:00:00 | 00:00:00 | |
| DL1ZP-14 | 2026-09-02 18:21:32 | 49.16846 | 8.49670 | 122° | 13km/h | 25767m | 4.7m/s | -51.0°C | 0.7% | 24.2hPa | 2.6V | 00:00:00 | 00:00:00 | 00:00:00 | |
| DB0NH | 2026-09-02 18:21:31 | 49.16848 | 8.49666 | 111° | 11km/h | 25763m | 4.3m/s | -51.0°C | 3.3% | 24.2hPa | 2.6V | 00:00:00 | 01:49:12 | 00:00:00 | |
| DL1XH1-15 | 2026-09-02 18:21:30 | 49.16846 | 8.49643 | 46° | 7km/h | 25732m | 4.4m/s | -50.9°C | 3.4% | 24.3hPa | 2.6V | 03:26:28 | 01:49:06 | 00:00:00 | |
| DL1XH-west | 2026-09-02 18:21:28 | 49.16850 | 8.49653 | 83° | 9km/h | 25747m | 4.7m/s | -50.9°C | 0% | 24.2hPa | 2.5V | 03:26:46 | 01:49:09 | 00:00:00 | |
| DK7TD | 2026-09-02 18:21:27 | 49.16849 | 8.49649 | 66° | 11km/h | 25742m | 4.8m/s | -50.9°C | 0% | 24.3hPa | 2.6V | 03:26:46 | 01:49:08 | 00:00:00 | |
| BIOWL1-15 | 2026-09-02 18:21:23 | 49.16845 | 8.49641 | 199° | 5km/h | 25723m | 5.4m/s | -50.9°C | 0% | 24.4hPa | 2.5V | 03:26:46 | 01:49:04 | 00:00:00 | |
| DM0DOS-11 | 2026-09-02 18:21:22 | 49.16867 | 8.49647 | 139° | 7km/h | 25693m | 4.9m/s | -50.9°C | 3.3% | 24.4hPa | 2.5V | 03:26:36 | 01:48:58 | 00:00:00 | |
| DJ2DS-15 | 2026-09-02 18:21:22 | 49.16847 | 8.49642 | 203° | 13km/h | 25717m | 6.3m/s | -50.8°C | 3.3% | 24.3hPa | 2.6V | 00:00:00 | 01:49:03 | 00:00:00 | |
| DJ2KF-10 | 2026-09-02 18:21:21 | 49.16851 | 8.49645 | 199° | 9km/h | 25711m | 5.1m/s | -50.8°C | 3.3% | 24.4hPa | 2.6V | 00:00:00 | 01:49:02 | 00:00:00 | |
| DL1XH1-15 | 2026-09-02 18:21:20 | 49.16867 | 8.49642 | 41° | 7km/h | 25683m | 4.7m/s | -50.9°C | 3.3% | 24.5hPa | 2.6V | 03:26:38 | 01:48:56 | 00:00:00 | |
| DL1XH-west | 2026-09-02 18:21:17 | 49.16868 | 8.49647 | 139° | 7km/h | 25693m | 4.9m/s | -50.9°C | 0% | 24.5hPa | 2.5V | 03:26:46 | 01:48:58 | 00:00:00 | |
| DO3MHA-11 | 2026-09-02 18:21:17 | 49.16868 | 8.49647 | 140° | 7km/h | 25693m | 4.9m/s | -50.9°C | 3.3% | 24.4hPa | 2.5V | 00:00:00 | 01:48:58 | 00:00:00 | |
| IW2NTF | 2026-09-02 18:21:16 | 49.16862 | 8.49640 | 72° | 0km/h | 25664m | 4.6m/s | -51°C | 0% | 24.6hPa | 2.6V | 03:26:42 | 01:48:52 | 00:00:00 | |
| DK7TD | 2026-09-02 18:21:16 | 49.16868 | 8.49644 | 79° | 7km/h | 25688m | 4.7m/s | -50.9°C | 0% | 24.5hPa | 2.6V | 03:26:46 | 01:48:57 | 00:00:00 | |
| BIOWL1-15 | 2026-09-02 18:21:14 | 49.16862 | 8.49640 | 351° | 4km/h | 25668m | 4m/s | -51°C | 0% | 24.6hPa | 2.5V | 03:26:46 | 01:48:53 | 00:00:00 | |
| DL8DAS-15 | 2026-09-02 18:21:13 | 49.16866 | 8.49640 | 23° | 9km/h | 25679m | 5.7m/s | -51.0°C | 0.7% | 24.5hPa | 2.5V | 03:26:00 | 00:00:00 | 00:00:00 | |
| DM0DOS-11 | 2026-09-02 18:21:12 | 49.16871 | 8.49641 | 197° | 20km/h | 25643m | 6m/s | -51.1°C | 3.4% | 24.6hPa | 2.5V | 03:26:46 | 01:48:48 | 00:00:00 | |
| SONCRA | 2026-09-02 18:21:12 | 49.16862 | 8.49640 | 72° | 0km/h | 25664m | 4.6m/s | 0°C | -1.0% | -1.0hPa | 2.5V | 00:00:00 | 00:00:00 | 00:00:00 | |
| DL1XH1-15 | 2026-09-02 18:21:10 | 49.16881 | 8.49649 | 217° | 22km/h | 25632m | 4.5m/s | -51.1°C | 3.4% | 24.7hPa | 2.5V | 03:26:48 | 01:48:46 | 00:00:00 | |
| DM7RM-13 | 2026-09-02 18:21:08 | 49.16867 | 8.49640 | 189° | 15km/h | 25649m | 5.1m/s | -51.1°C | 0.7% | 24.6hPa | 2.5V | 03:26:00 | 00:00:00 | 00:00:00 | |
| DO3MHA-11 | 2026-09-02 18:21:07 | 49.16871 | 8.49641 | 198° | 13km/h | 25643m | 6.0m/s | -51.1°C | 3.4% | 24.6hPa | 2.5V | 00:00:00 | 01:48:48 | 00:00:00 | |
| IW2NTF | 2026-09-02 18:21:06 | 49.16889 | 8.49663 | 327° | 2km/h | 25612m | 4.8m/s | -51°C | 0% | 24.8hPa | 2.5V | 03:26:52 | 01:48:42 | 00:00:00 | |
| DL1XH-west | 2026-09-02 18:21:06 | 49.16876 | 8.49645 | 208° | 22km/h | 25637m | 5.7m/s | -51.1°C | 0% | 24.7hPa | 2.5V | 03:27:37 | 01:48:47 | 00:00:00 | |
| DK7TD | 2026-09-02 18:21:05 | 49.16881 | 8.49649 | 218° | 22km/h | 25632m | 4.5m/s | -51.1°C | 0% | 24.7hPa | 2.5V | 03:27:37 | 01:48:46 | 00:00:00 | |
| BIOWL1-15 | 2026-09-02 18:21:03 | 49.16889 | 8.49663 | 328° | 2km/h | 25612m | 4.8m/s | -51°C | 0% | 24.8hPa | 2.5V | 03:27:37 | 01:48:42 | 00:00:00 | |
| NBG1-10 | 2026-09-02 18:21:03 | 49.16887 | 8.49659 | 231° | 9km/h | 25623m | 5.2m/s | -51.1°C | 3.4% | 24.7hPa | 2.6V | 00:00:00 | 01:48:44 | 00:00:00 | |
| DM0DOS-11 | 2026-09-02 18:21:02 | 49.16888 | 8.49667 | 244° | 11km/h | 25593m | 5.5m/s | -51.1°C | 3.4% | 24.9hPa | 2.6V | 03:26:56 | 01:48:38 | 00:00:00 | |
| DJ2DS-15 | 2026-09-02 18:21:02 | 49.16889 | 8.49662 | 238° | 9km/h | 25618m | 5.9m/s | -51.0°C | 3.3% | 24.7hPa | 2.5V | 00:00:00 | 01:48:43 | 00:00:00 | |
| DB0NH | 2026-09-02 18:21:01 | 49.16889 | 8.49663 | 328° | 9km/h | 25612m | 4.7m/s | -51.0°C | 3.4% | 24.7hPa | 2.5V | 00:00:00 | 01:48:42 | 00:00:00 | |
| DL0LBS | 2026-09-02 18:21:00 | 49.16889 | 8.49663 | 0° | 0km/h | 25612m | 4.8m/s | -51.0°C | 0.7% | 24.8hPa | 2.5V | 03:27:00 | 00:00:00 | 00:00:00 | |
| DN1GJH-1 | 2026-09-02 18:20:59 | 49.16888 | 8.49663 | 14° | 4km/h | 25608m | 3.8m/s | -51.0°C | 0.7% | 24.8hPa | 2.5V | 03:27:00 | 00:00:00 | 00:00:00 | |
| DK5PH-5 | 2026-09-02 18:20:58 | 49.16888 | 8.49664 | 263° | 11km/h | 25599m | 5.7m/s | -51.0°C | 3.3% | 24.8hPa | 2.5V | 03:26:00 | 01:48:39 | 00:00:00 | |
| DO3MHA-11 | 2026-09-02 18:20:57 | 49.16888 | 8.49667 | 245° | 13km/h | 25593m | 5.5m/s | -51.0°C | 3.4% | 24.8hPa | 2.5V | 00:00:00 | 01:48:38 | 00:00:00 | |
| IW2NTF | 2026-09-02 18:20:56 | 49.16906 | 8.49687 | 173° | 13km/h | 25562m | 5.3m/s | -51.1°C | 0% | 25hPa | 2.5V | 03:27:02 | 01:48:32 | 00:00:00 | |
| DL1XH-west | 2026-09-02 18:20:55 | 49.16893 | 8.49676 | 229° | 18km/h | 25583m | 4.4m/s | -51.1°C | 0% | 24.9hPa | 2.6V | 03:27:37 | 01:48:36 | 00:00:00 | |
| DJTTGO | 2026-09-02 18:20:54 | 49.16892 | 8.49676 | 230° | 18km/h | 25584m | 4.4m/s | -51.1°C | 0.6% | 24.9hPa | 2.5V | 03:27:00 | 00:00:00 | 00:00:00 | |
| DM0DOS-11 | 2026-09-02 18:20:52 | 49.16913 | 8.49683 | 88° | 0km/h | 25541m | 4.6m/s | -51.2°C | 3.4% | 25hPa | 2.5V | 03:27:06 | 01:48:28 | 00:00:00 | |
| BIOWL1-15 | 2026-09-02 18:20:51 | 49.16906 | 8.49686 | 174° | 13km/h | 25562m | 5.3m/s | -51.1°C | 0% | 25hPa | 2.5V | 03:27:37 | 01:48:32 | 00:00:00 | |
| DL1XH1-15 | 2026-09-02 18:20:50 | 49.16912 | 8.49681 | 56° | 5km/h | 25531m | 5.9m/s | -51.2°C | 3.4% | 25.1hPa | 2.5V | 03:27:08 | 01:48:26 | 00:00:00 | |
| DF2AP-13 | 2026-09-02 18:20:49 | 49.16911 | 8.49684 | 158° | 9km/h | 25552m | 5.6m/s | -51.1°C | 3.4% | 24.9hPa | 2.5V | 00:00:00 | 01:48:30 | 00:00:00 | |
| DO3MHA-11 | 2026-09-02 18:20:47 | 49.16913 | 8.49683 | 89° | 7km/h | 25542m | 4.5m/s | -51.2°C | 3.4% | 25.0hPa | 2.5V | 03:27:00 | 01:48:28 | 00:00:00 | |
| IW2NTF | 2026-09-02 18:20:46 | 49.16912 | 8.49672 | 160° | 7km/h | 25510m | 6.1m/s | -51.2°C | 0% | 25.2hPa | 2.6V | 03:27:12 | 01:48:22 | 00:00:00 | |
| DD1CC8 | 2026-09-02 18:20:45 | 49.16912 | 8.49681 | 56° | 5km/h | 25532m | 5.9m/s | -51.2°C | 0.7% | 25.1hPa | 2.5V | 00:00:00 | 00:00:00 | 00:00:00 | |
| DL1XH-west | 2026-09-02 18:20:44 | 49.16911 | 8.49679 | 72° | 7km/h | 25525m | 5.5m/s | -51.2°C | 0% | 25.1hPa | 2.5V | 03:27:37 | 01:48:25 | 00:00:00 | |
| DM0DOS-11 | 2026-09-02 18:20:42 | 49.16925 | 8.49670 | 157° | 16km/h | 25490m | 5.7m/s | -51.1°C | 3.4% | 25.2hPa | 2.5V | 03:27:16 | 01:48:18 | 00:00:00 | |
| BIOWL1-15 | 2026-09-02 18:20:42 | 49.16915 | 8.49672 | 181° | 11km/h | 25504m | 5.1m/s | -51.2°C | 0% | 25.2hPa | 2.5V | 03:27:37 | 01:48:21 | 00:00:00 | |
| DJ2DS-15 | 2026-09-02 18:20:42 | 49.16911 | 8.49674 | 124° | 11km/h | 25516m | 4.7m/s | -51.2°C | 3.4% | 25.1hPa | 2.6V | 03:27:00 | 01:48:23 | 00:00:00 | |
| DO1YAY-16 | 2026-09-02 18:20:41 | 49.16912 | 8.49672 | 160° | 5km/h | 25511m | 6.1m/s | -51.2°C | 0.7% | 25.2hPa | 2.6V | 00:00:00 | 00:00:00 | 00:00:00 | |
| DL1XH1-15 | 2026-09-02 18:20:40 | 49.16932 | 8.49663 | 134° | 15km/h | 25480m | 4.4m/s | -51.1°C | 3.4% | 25.3hPa | 2.6V | 03:27:18 | 01:48:16 | 00:00:00 | |
| DL1XH-west | 2026-09-02 18:20:33 | 49.16936 | 8.49656 | 121° | 7km/h | 25470m | 6m/s | -51.1°C | 0% | 25.3hPa | 2.5V | 03:27:37 | 01:48:14 | 00:00:00 | |
| BIOWL1-15 | 2026-09-02 18:20:31 | 49.16932 | 8.49649 | 41° | 9km/h | 25447m | 5.6m/s | -51°C | 0% | 25.4hPa | 2.6V | 03:27:37 | 01:48:10 | 00:00:00 | |
| DB0NH | 2026-09-02 18:20:31 | 49.16935 | 8.49653 | 35° | 9km/h | 25459m | 5.0m/s | -51.0°C | 3.4% | 25.3hPa | 2.6V | 03:27:00 | 01:48:12 | 00:00:00 | |
| DL1XH1-15 | 2026-09-02 18:20:30 | 49.16931 | 8.49642 | 179° | 7km/h | 25427m | 5.9m/s | -51°C | 3.3% | 25.5hPa | 2.6V | 03:27:28 | 01:48:06 | 00:00:00 | |
| DL1XH-west | 2026-09-02 18:20:23 | 49.16936 | 8.49642 | 178° | 15km/h | 25417m | 4.2m/s | -51.1°C | 0% | 25.5hPa | 2.5V | 03:27:37 | 01:48:04 | 00:00:00 | |
| BIOWL9-15 | 2026-09-02 18:20:21 | 49.16947 | 8.49635 | 135° | 15km/h | 25401m | 4.8m/s | -51.2°C | 0.6% | 25.6hPa | 2.5V | 00:00:00 | 00:00:00 | 00:00:00 | |
| DL1XH1-15 | 2026-09-02 18:20:20 | 49.16952 | 8.49624 | 231° | 2km/h | 25377m | 3.8m/s | -51.3°C | 3.4% | 25.7hPa | 2.5V | 03:27:38 | 01:47:56 | 00:00:00 | |
| BIOWL1-15 | 2026-09-02 18:20:19 | 49.16949 | 8.49631 | 124° | 13km/h | 25397m | 4.4m/s | -51.2°C | 0% | 25.6hPa | 2.6V | 03:27:37 | 01:48:00 | 00:00:00 | |
| DF2AP-13 | 2026-09-02 18:20:19 | 49.16949 | 8.49631 | 124° | 11km/h | 25397m | 4.4m/s | -51.1°C | 3.4% | 25.6hPa | 2.6V | 00:00:00 | 01:48:00 | 00:00:00 | |
| HARRO8 | 2026-09-02 18:20:18 | 49.16951 | 8.49627 | 114° | 9km/h | 25392m | 4.9m/s | -51.2°C | 0.7% | 25.6hPa | 2.5V | 00:00:00 | 00:00:00 | 00:00:00 | |
| DO3MHA-11 | 2026-09-02 18:20:17 | 49.16951 | 8.49625 | 108° | 9km/h | 25387m | 5.9m/s | -51.2°C | 3.4% | 25.6hPa | 2.5V | 00:00:00 | 01:47:58 | 00:00:00 | |
| SONDE2-11 | 2026-09-02 18:20:16 | 49.16952 | 8.49624 | 162° | 0km/h | 25381m | 5.0m/s | -51.2°C | 0.7% | 25.6hPa | 2.5V | 00:00:00 | 00:00:00 | 00:00:00 | |
| DB0UT-7 | 2026-09-02 18:20:15 | 49.16952 | 8.49624 | 232° | 11km/h | 25377m | 3.8m/s | -51.2°C | 3.4% | 25.6hPa | 2.5V | 00:00:00 | 00:00:00 | 00:00:00 | |
| DD1CC8 | 2026-09-02 18:20:14 | 49.16953 | 8.49625 | 190° | 2km/h | 25373m | 4.0m/s | -51.3°C | 0.7% | 25.7hPa | 2.5V | 00:00:00 | 00:00:00 | 00:00:00 | |
| DB0ND-19 | 2026-09-02 18:20:13 | 49.16954 | 8.49624 | 146° | 5km/h | 25368m | 5.5m/s | -51.3°C | 0.6% | 25.7hPa | 2.5V | 00:00:00 | 00:00:00 | 00:00:00 | |
| IW2NTF | 2026-09-02 18:20:12 | 49.16969 | 8.49603 | 157° | 11km/h | 25336m | 5m/s | -51.3°C | 0% | 25.9hPa | 2.5V | 03:27:46 | 01:47:48 | 00:00:00 | |
| DL1XH-west | 2026-09-02 18:20:12 | 49.16955 | 8.49622 | 134° | 11km/h | 25363m | 5.8m/s | -51.3°C | 0% | 25.7hPa | 2.6V | 03:28:28 | 01:47:53 | 00:00:00 | |
| DL1XH1-15 | 2026-09-02 18:20:11 | 49.16974 | 8.49600 | 157° | 9km/h | 25326m | 5.4m/s | -51.4°C | 3.4% | 25.9hPa | 2.6V | 03:27:48 | 01:47:46 | 00:00:00 | |
| BIOWL1-15 | 2026-09-02 18:20:09 | 49.16963 | 8.49609 | 138° | 16km/h | 25347m | 5.3m/s | -51.3°C | 0% | 25.8hPa | 2.5V | 03:28:28 | 01:47:50 | 00:00:00 | |
| DL8DAS-15 | 2026-09-02 18:20:08 | 49.16963 | 8.49609 | 139° | 16km/h | 25347m | 5.3m/s | -51.3°C | 0.7% | 25.8hPa | 2.6V | 03:28:00 | 00:00:00 | 00:00:00 | |
| DO3MHA-11 | 2026-09-02 18:20:07 | 49.16969 | 8.49603 | 158° | 7km/h | 25336m | 5.0m/s | -51.3°C | 3.4% | 25.8hPa | 2.6V | 03:27:00 | 01:47:48 | 00:00:00 | |
| DL8DAS-14 | 2026-09-02 18:20:05 | 49.16974 | 8.49600 | 157° | 7km/h | 25326m | 5.4m/s | -51.4°C | 0.7% | 25.9hPa | 2.6V | 00:00:00 | 00:00:00 | 00:00:00 | |
| DJ2DS-15 | 2026-09-02 18:20:03 | 49.16977 | 8.49597 | 135° | 7km/h | 25315m | 4.9m/s | -51.4°C | 0.7% | 25.9hPa | 2.6V | 00:00:00 | 00:00:00 | 00:00:00 | |
| IW2NTF | 2026-09-02 18:20:02 | 49.16987 | 8.49591 | 146° | 11km/h | 25284m | 6.1m/s | -51.4°C | 0% | 26.1hPa | 2.6V | 03:27:56 | 01:47:38 | 00:00:00 | |
| DL1XH-west | 2026-09-02 18:20:02 | 49.16979 | 8.49595 | 139° | 7km/h | 25311m | 4.3m/s | -51.4°C | 0% | 26hPa | 2.5V | 03:28:28 | 01:47:43 | 00:00:00 | |
| BIOWL1-15 | 2026-09-02 18:19:58 | 49.16985 | 8.49592 | 166° | 9km/h | 25290m | 5m/s | -51.5°C | 0% | 26hPa | 2.6V | 03:28:28 | 01:47:39 | 00:00:00 | |
| BIOWL1-15 | 2026-09-02 18:19:52 | 49.17012 | 8.49567 | 155° | 9km/h | 25238m | 6m/s | -51.4°C | 0% | 26.2hPa | 2.6V | 03:28:28 | 01:47:29 | 00:00:00 | |
| DM0DOS-11 | 2026-09-02 18:19:51 | 49.17016 | 8.49562 | 121° | 13km/h | 25227m | 5m/s | -51.4°C | 3.4% | 26.3hPa | 2.5V | 03:28:07 | 01:47:27 | 00:00:00 | |
| DL1XH-west | 2026-09-02 18:19:51 | 49.17005 | 8.49568 | 173° | 11km/h | 25253m | 4.9m/s | -51.4°C | 0% | 26.2hPa | 2.5V | 03:28:28 | 01:47:32 | 00:00:00 | |
| BIOWL9-15 | 2026-09-02 18:19:50 | 49.17010 | 8.49568 | 176° | 7km/h | 25244m | 4.9m/s | -51.4°C | 0.7% | 26.2hPa | 2.6V | 00:00:00 | 00:00:00 | 00:00:00 | |
| DF2AP-13 | 2026-09-02 18:19:49 | 49.17010 | 8.49568 | 177° | 11km/h | 25244m | 4.8m/s | -51.4°C | 3.5% | 26.2hPa | 2.6V | 00:00:00 | 01:47:30 | 00:00:00 | |
| BIOWL7-15 | 2026-09-02 18:19:48 | 49.17010 | 8.49568 | 177° | 9km/h | 25244m | 4.9m/s | -51.4°C | 0.7% | 26.2hPa | 2.6V | 00:00:00 | 00:00:00 | 00:00:00 | |
| DO3MHA-11 | 2026-09-02 18:19:47 | 49.17014 | 8.49565 | 133° | 11km/h | 25233m | 5.5m/s | -51.3°C | 3.4% | 26.2hPa | 2.6V | 00:00:00 | 01:47:28 | 00:00:00 | |
| DJTTGO | 2026-09-02 18:19:46 | 49.17014 | 8.49565 | 134° | 11km/h | 25233m | 5.6m/s | -51.4°C | 0.7% | 26.3hPa | 2.6V | 03:28:00 | 00:00:00 | 00:00:00 | |
| DB0UT-7 | 2026-09-02 18:19:45 | 49.17017 | 8.49558 | 118° | 11km/h | 25223m | 4.7m/s | -51.4°C | 3.5% | 26.2hPa | 2.6V | 00:00:00 | 01:47:26 | 00:00:00 | |
| DM7RM-13 | 2026-09-02 18:19:44 | 49.17017 | 8.49557 | 119° | 11km/h | 25223m | 4.8m/s | -51.4°C | 0.7% | 26.3hPa | 2.6V | 03:28:00 | 00:00:00 | 00:00:00 | |
| DD1CC8 | 2026-09-02 18:19:43 | 49.17020 | 8.49551 | 136° | 7km/h | 25212m | 5.8m/s | -51.4°C | 0.6% | 26.4hPa | 2.6V | 00:00:00 | 00:00:00 | 00:00:00 | |
| DB0ND-19 | 2026-09-02 18:19:42 | 49.17022 | 8.49549 | 149° | 7km/h | 25207m | 4.5m/s | -51.4°C | 0.7% | 26.4hPa | 2.6V | 00:00:00 | 00:00:00 | 00:00:00 | |
| DM0DOS-11 | 2026-09-02 18:19:41 | 49.17033 | 8.49527 | 97° | 11km/h | 25176m | 5.6m/s | -51.4°C | 3.4% | 26.5hPa | 2.6V | 03:28:17 | 01:47:17 | 00:00:00 | |
| DL1XH-west | 2026-09-02 18:19:41 | 49.17024 | 8.49547 | 149° | 9km/h | 25202m | 4.2m/s | -51.4°C | 0% | 26.4hPa | 2.6V | 03:28:28 | 01:47:22 | 00:00:00 | |
| DK7TD | 2026-09-02 18:19:40 | 49.17026 | 8.49545 | 140° | 13km/h | 25197m | 5.5m/s | -51.4°C | 0% | 26.4hPa | 2.5V | 03:29:19 | 01:47:21 | 00:00:00 | |
| BIOWL1-15 | 2026-09-02 18:19:37 | 49.17032 | 8.49532 | 110° | 13km/h | 25182m | 4.5m/s | -51.4°C | 0% | 26.5hPa | 2.5V | 03:28:28 | 01:47:18 | 00:00:00 | |
| DO3MHA-11 | 2026-09-02 18:19:37 | 49.17032 | 8.49532 | 111° | 11km/h | 25182m | 4.4m/s | -51.3°C | 3.4% | 26.4hPa | 2.5V | 00:00:00 | 01:47:18 | 00:00:00 | |
| DL8DAS-14 | 2026-09-02 18:19:34 | 49.17031 | 8.49521 | 40° | 7km/h | 25165m | 5.0m/s | -51.4°C | 0.7% | 26.5hPa | 2.5V | 00:00:00 | 00:00:00 | 00:00:00 | |
| CB1BUN | 2026-09-02 18:19:32 | 49.17030 | 8.49519 | 35° | 9km/h | 25161m | 4.7m/s | -51.4°C | 0.7% | 26.6hPa | 2.5V | 03:28:00 | 00:00:00 | 00:00:00 | |
| DM0DOS-11 | 2026-09-02 18:19:31 | 49.17020 | 8.49492 | 87° | 5km/h | 25123m | 5m/s | -51.2°C | 3.4% | 26.7hPa | 2.5V | 03:28:27 | 01:47:07 | 00:00:00 | |
| DB0NH | 2026-09-02 18:19:31 | 49.17025 | 8.49513 | 52° | 11km/h | 25151m | 6.0m/s | -51.3°C | 3.4% | 26.5hPa | 2.5V | 00:00:00 | 01:47:12 | 00:00:00 | |
| DL1XH1-15 | 2026-09-02 18:19:30 | 49.17020 | 8.49490 | 102° | 4km/h | 25119m | 4.5m/s | -51.2°C | 3.4% | 26.7hPa | 2.5V | 03:28:28 | 01:47:06 | 00:00:00 | |
| DL1XH-west | 2026-09-02 18:19:30 | 49.17023 | 8.49508 | 64° | 15km/h | 25144m | 5.3m/s | -51.3°C | 0% | 26.6hPa | 2.5V | 03:28:28 | 01:47:11 | 00:00:00 | |
| BIOWL1-15 | 2026-09-02 18:19:27 | 49.17020 | 8.49494 | 82° | 9km/h | 25129m | 6.1m/s | -51.3°C | 0% | 26.7hPa | 2.6V | 03:28:28 | 01:47:08 | 00:00:00 | |
| BIOWL1-15 | 2026-09-02 18:19:23 | 49.17018 | 8.49467 | 67° | 11km/h | 25076m | 5m/s | -51.2°C | 0% | 26.9hPa | 2.5V | 03:29:19 | 01:46:58 | 00:00:00 | |
| DF1GD-15 | 2026-09-02 18:19:22 | 49.17021 | 8.49486 | 103° | 7km/h | 25108m | 5.9m/s | -51.2°C | 0.7% | 26.8hPa | 2.6V | 03:29:00 | 00:00:00 | 00:00:00 | |
| DM0DOS-11 | 2026-09-02 18:19:21 | 49.17017 | 8.49463 | 78° | 13km/h | 25070m | 6.1m/s | -51.2°C | 3.4% | 26.9hPa | 2.6V | 03:28:37 | 01:46:57 | 00:00:00 | |
| DJ2DS-15 | 2026-09-02 18:19:21 | 49.17021 | 8.49479 | 85° | 9km/h | 25098m | 4.8m/s | -51.1°C | 3.4% | 26.8hPa | 2.6V | 03:28:00 | 01:47:02 | 00:00:00 | |
| DL1XH1-15 | 2026-09-02 18:19:20 | 49.17016 | 8.49457 | 88° | 15km/h | 25064m | 5.2m/s | -51.1°C | 3.4% | 26.9hPa | 2.6V | 03:28:38 | 01:46:56 | 00:00:00 | |
| DK7TD | 2026-09-02 18:19:20 | 49.17021 | 8.49475 | 72° | 9km/h | 25092m | 6.1m/s | -51.2°C | 0% | 26.8hPa | 2.6V | 03:29:19 | 01:47:01 | 00:00:00 | |
| IW2NTF | 2026-09-02 18:19:19 | 49.17017 | 8.49452 | 96° | 15km/h | 25060m | 4.5m/s | -51.1°C | 0% | 27hPa | 2.5V | 03:28:39 | 01:46:55 | 00:00:00 | |
| DL1XH-west | 2026-09-02 18:19:19 | 49.17020 | 8.49472 | 59° | 7km/h | 25086m | 5.7m/s | -51.2°C | 0% | 26.9hPa | 2.5V | 03:29:19 | 01:47:00 | 00:00:00 | |
| BIOWL9-15 | 2026-09-02 18:19:19 | 49.17019 | 8.49470 | 54° | 7km/h | 25081m | 5.0m/s | -51.2°C | 0.7% | 26.9hPa | 2.5V | 00:00:00 | 00:00:00 | 00:00:00 | |
| DO3MHA-11 | 2026-09-02 18:19:17 | 49.17018 | 8.49483 | 67° | 11km/h | 25076m | 5.0m/s | -51.1°C | 3.4% | 26.9hPa | 2.5V | 00:00:00 | 01:46:58 | 00:00:00 | |
| DF3TZ-5 | 2026-09-02 18:19:16 | 49.17017 | 8.49462 | 78° | 11km/h | 25070m | 6.1m/s | -51.2°C | 0.7% | 26.9hPa | 2.6V | 00:00:00 | 00:00:00 | 00:00:00 | |
| DB0UT-7 | 2026-09-02 18:19:15 | 49.17016 | 8.49457 | 89° | 9km/h | 25065m | 5.1m/s | -51.1°C | 3.4% | 26.9hPa | 2.6V | 00:00:00 | 00:00:00 | 00:00:00 | |
| SONDE2-11 | 2026-09-02 18:19:14 | 49.17017 | 8.49452 | 96° | 13km/h | 25060m | 4.5m/s | -51.1°C | 0.7% | 27.0hPa | 2.6V | 00:00:00 | 00:00:00 | 00:00:00 | |
| DB0UT-9 | 2026-09-02 18:19:13 | 49.17017 | 8.49451 | 97° | 15km/h | 25060m | 4.5m/s | -51.1°C | 0.7% | 27.0hPa | 2.6V | 03:29:00 | 00:00:00 | 00:00:00 | |
| DD1CC8 | 2026-09-02 18:19:12 | 49.17018 | 8.49443 | 116° | 9km/h | 25049m | 6.1m/s | -51.2°C | 0.6% | 27.0hPa | 2.6V | 00:00:00 | 00:00:00 | 00:00:00 | |
| DM0DOS-11 | 2026-09-02 18:19:11 | 49.17027 | 8.49428 | 106° | 11km/h | 25018m | 4.7m/s | -51.3°C | 3.4% | 27.1hPa | 2.6V | 03:28:47 | 01:46:47 | 00:00:00 | |
| BIOWL1-15 | 2026-09-02 18:19:11 | 49.17026 | 8.49432 | 121° | 11km/h | 25023m | 5m/s | -51.3°C | 0% | 27.1hPa | 2.5V | 03:29:19 | 01:46:48 | 00:00:00 | |
| DL1XH1-15 | 2026-09-02 18:19:10 | 49.17027 | 8.49424 | 91° | 9km/h | 25012m | 6.2m/s | -51.3°C | 3.4% | 27.1hPa | 2.6V | 03:28:48 | 01:46:46 | 00:00:00 | |
| DJ2KF-10 | 2026-09-02 18:19:10 | 49.17021 | 8.49439 | 154° | 7km/h | 25039m | 4.4m/s | -51.1°C | 3.3% | 27.0hPa | 2.6V | 00:00:00 | 01:46:51 | 00:00:00 | |
| IW2NTF | 2026-09-02 18:19:09 | 49.17027 | 8.49421 | 75° | 9km/h | 25006m | 5.8m/s | -51.2°C | 0% | 27.2hPa | 2.6V | 03:28:49 | 01:46:45 | 00:00:00 | |
| DL1XH-west | 2026-09-02 18:19:09 | 49.17022 | 8.49437 | 149° | 7km/h | 25034m | 5.6m/s | -51.2°C | 0% | 27.1hPa | 2.5V | 03:29:19 | 01:46:50 | 00:00:00 | |
| DO1YAY-16 | 2026-09-02 18:19:08 | 49.17024 | 8.49435 | 134° | 9km/h | 25028m | 5.9m/s | -51.2°C | 0.6% | 27.1hPa | 2.5V | 00:00:00 | 00:00:00 | 00:00:00 | |
| DO3MHA-11 | 2026-09-02 18:19:07 | 49.17026 | 8.49432 | 122° | 11km/h | 25023m | 4.9m/s | -51.2°C | 3.3% | 27.1hPa | 2.5V | 00:00:00 | 01:46:48 | 00:00:00 | |
| BIOWL7-15 | 2026-09-02 18:19:03 | 49.17027 | 8.49421 | 76° | 9km/h | 25007m | 5.8m/s | -51.2°C | 0.7% | 27.2hPa | 2.5V | 03:29:00 | 00:00:00 | 00:00:00 | |
| DM0DOS-11 | 2026-09-02 18:19:01 | 49.17028 | 8.49391 | 180° | 4km/h | 24964m | 4.7m/s | -51.2°C | 3.4% | 27.3hPa | 2.5V | 03:28:57 | 01:46:37 | 00:00:00 | |
| DJ2DS-15 | 2026-09-02 18:19:01 | 49.17025 | 8.49408 | 87° | 7km/h | 24991m | 6.0m/s | -51.2°C | 3.5% | 27.2hPa | 2.5V | 00:00:00 | 01:46:42 | 00:00:00 | |
| DL1XH1-15 | 2026-09-02 18:19:00 | 49.17028 | 8.49391 | 191° | 4km/h | 24959m | 4.5m/s | -51.2°C | 3.4% | 27.4hPa | 2.5V | 03:28:58 | 01:46:36 | 00:00:00 | |
| DL1XH-west | 2026-09-02 18:18:58 | 49.17026 | 8.49394 | 111° | 9km/h | 24975m | 5.8m/s | -51.2°C | 0% | 27.3hPa | 2.6V | 03:29:19 | 01:46:39 | 00:00:00 | |
| BIOWL1-15 | 2026-09-02 18:18:56 | 49.17028 | 8.49391 | 181° | 4km/h | 24964m | 4.7m/s | -51.2°C | 0% | 27.3hPa | 2.5V | 03:29:19 | 01:46:37 | 00:00:00 | |
| AU51GT2 | 2026-09-02 18:18:54 | 49.17030 | 8.49390 | 123° | 5km/h | 24949m | 5.7m/s | -51.1°C | -1.0% | -1.0hPa | 2.5V | 00:00:00 | 00:00:00 | 00:00:00 | |
| DB0UT-9 | 2026-09-02 18:18:53 | 49.17029 | 8.49391 | 155° | 4km/h | 24955m | 5.7m/s | -51.2°C | 0.7% | 27.4hPa | 2.5V | 03:29:00 | 00:00:00 | 00:00:00 | |
| HEMX73-11 | 2026-09-02 18:18:52 | 49.17030 | 8.49390 | 124° | 5km/h | 24949m | 5.7m/s | -51.1°C | 0.7% | 27.4hPa | 2.5V | 03:29:00 | 00:00:00 | 00:00:00 | |
| DM0DOS-11 | 2026-09-02 18:18:51 | 49.17029 | 8.49370 | 68° | 7km/h | 24911m | 6.1m/s | -51°C | 3.3% | 27.6hPa | 2.5V | 03:29:07 | 01:46:27 | 00:00:00 | |
| NBG1-10 | 2026-09-02 18:18:51 | 49.17031 | 8.49384 | 101° | 7km/h | 24939m | 4.6m/s | -51.0°C | 3.4% | 27.4hPa | 2.6V | 00:00:00 | 01:46:32 | 00:00:00 | |
| DL1XH1-15 | 2026-09-02 18:18:50 | 49.17028 | 8.49367 | 82° | 9km/h | 24905m | 5.3m/s | -51°C | 3.3% | 27.6hPa | 2.6V | 03:29:08 | 01:46:26 | 00:00:00 | |
| DL1XH-west | 2026-09-02 18:18:47 | 49.17030 | 8.49373 | 57° | 7km/h | 24916m | 5.1m/s | -51°C | 0% | 27.6hPa | 2.5V | 03:29:19 | 01:46:28 | 00:00:00 | |
| DK7TD | 2026-09-02 18:18:46 | 49.17029 | 8.49370 | 69° | 7km/h | 24911m | 6.1m/s | -51°C | 0% | 27.6hPa | 2.5V | 03:29:19 | 01:46:27 | 00:00:00 | |
| DB0UT-7 | 2026-09-02 18:18:45 | 49.17028 | 8.49367 | 83° | 7km/h | 24905m | 5.2m/s | -51.0°C | 3.3% | 27.6hPa | 2.5V | 03:29:00 | 01:46:26 | 00:00:00 | |
| SONDE2-11 | 2026-09-02 18:18:43 | 49.17028 | 8.49362 | 108° | 4km/h | 24896m | 4.5m/s | -51.1°C | 0.7% | 27.7hPa | 2.5V | 00:00:00 | 00:00:00 | 00:00:00 | |
| OE5DXL-15 | 2026-09-02 18:18:42 | 49.17029 | 8.49360 | 155° | 11km/h | 24891m | 6.0m/s | 0°C | 0% | 0hPa | 2.5V | 00:00:00 | 00:00:00 | 00:00:00 | |
| DM0DOS-11 | 2026-09-02 18:18:41 | 49.17028 | 8.49362 | 51° | 7km/h | 24858m | 5m/s | -51.1°C | 3.4% | 27.8hPa | 2.5V | 03:29:17 | 01:46:17 | 00:00:00 | |
| DJ2DS-15 | 2026-09-02 18:18:41 | 49.17029 | 8.49361 | 251° | 7km/h | 24885m | 6.0m/s | -51.1°C | 3.4% | 27.6hPa | 2.5V | 00:00:00 | 01:46:22 | 00:00:00 | |
| DL1XH1-15 | 2026-09-02 18:18:40 | 49.17027 | 8.49360 | 39° | 7km/h | 24852m | 5.3m/s | -51.1°C | 3.4% | 27.8hPa | 2.5V | 03:29:18 | 01:46:16 | 00:00:00 | |
| DL1XH-west | 2026-09-02 18:18:37 | 49.17029 | 8.49364 | 55° | 5km/h | 24863m | 5.5m/s | -51.1°C | 0% | 27.8hPa | 2.5V | 03:29:19 | 01:46:18 | 00:00:00 | |
| DO3MHA-11 | 2026-09-02 18:18:37 | 49.17029 | 8.49364 | 55° | 7km/h | 24863m | 5.5m/s | -51.1°C | 3.4% | 27.7hPa | 2.5V | 00:00:00 | 01:46:18 | 00:00:00 | |
| DN1GJH-1 | 2026-09-02 18:18:36 | 49.17029 | 8.49364 | 56° | 5km/h | 24863m | 5.5m/s | -51.1°C | 0.7% | 27.8hPa | 2.5V | 03:29:00 | 00:00:00 | 00:00:00 | |
| IW2NTF | 2026-09-02 18:18:35 | 49.17021 | 8.49355 | 128° | 4km/h | 24826m | 5.5m/s | -51.2°C | 0% | 27.9hPa | 2.5V | 03:29:23 | 01:46:11 | 00:00:00 | |
| DK7TD | 2026-09-02 18:18:35 | 49.17026 | 8.49360 | 39° | 7km/h | 24852m | 5.3m/s | -51.1°C | 0% | 27.8hPa | 2.5V | 03:29:19 | 01:46:16 | 00:00:00 | |
| DL8DAS-14 | 2026-09-02 18:18:32 | 49.17021 | 8.49356 | 58° | 2km/h | 24832m | 5.8m/s | -51.2°C | 0.6% | 27.9hPa | 2.5V | 00:00:00 | 00:00:00 | 00:00:00 | |
| DM0DOS-11 | 2026-09-02 18:18:31 | 49.17031 | 8.49358 | 214° | 16km/h | 24804m | 5.2m/s | -51.2°C | 3.3% | 28.1hPa | 2.5V | 03:29:27 | 01:46:07 | 00:00:00 | |
| DL1XH1-15 | 2026-09-02 18:18:30 | 49.17035 | 8.49362 | 217° | 16km/h | 24800m | 4m/s | -51.2°C | 3.3% | 28.1hPa | 2.5V | 03:29:28 | 01:46:06 | 00:00:00 | |
| DL1XH-west | 2026-09-02 18:18:27 | 49.17028 | 8.49355 | 203° | 15km/h | 24810m | 6.3m/s | -51.2°C | 0% | 28hPa | 2.6V | 03:30:10 | 01:46:08 | 00:00:00 | |
| BIOWL1-15 | 2026-09-02 18:18:25 | 49.17035 | 8.49362 | 218° | 16km/h | 24800m | 4.1m/s | -51.2°C | 0% | 28.1hPa | 2.5V | 03:30:10 | 01:46:06 | 00:00:00 | |
| DK7TD | 2026-09-02 18:18:24 | 49.17038 | 8.49365 | 217° | 13km/h | 24795m | 5.2m/s | -51.2°C | 0% | 28.1hPa | 2.5V | 03:31:01 | 01:46:05 | 00:00:00 | |
| AU51GT2 | 2026-09-02 18:18:23 | 49.17040 | 8.49368 | 306° | 0km/h | 24785m | 4.8m/s | 0°C | -1.0% | -1.0hPa | 2.5V | 00:00:00 | 00:00:00 | 00:00:00 | |
| HTAHTA | 2026-09-02 18:18:22 | 49.17039 | 8.49368 | 3° | 4km/h | 24780m | 4.9m/s | -51.1°C | 0.7% | 28.1hPa | 2.5V | 00:00:00 | 00:00:00 | 00:00:00 | |
| DM0DOS-11 | 2026-09-02 18:18:21 | 49.17027 | 8.49371 | 357° | 9km/h | 24752m | 5.9m/s | -51.1°C | 3.4% | 28.2hPa | 2.5V | 03:29:37 | 01:45:57 | 00:00:00 | |
| DJ2DS-15 | 2026-09-02 18:18:21 | 49.17039 | 8.49368 | 4° | 9km/h | 24780m | 4.8m/s | -51.1°C | 3.3% | 28.1hPa | 2.6V | 00:00:00 | 01:46:02 | 00:00:00 | |
| DL1XH1-15 | 2026-09-02 18:18:20 | 49.17024 | 8.49372 | 350° | 5km/h | 24747m | 4.9m/s | -51.2°C | 3.4% | 28.3hPa | 2.6V | 03:29:38 | 01:45:56 | 00:00:00 | |
| DL1XH-west | 2026-09-02 18:18:16 | 49.17026 | 8.49371 | 357° | 9km/h | 24753m | 5.9m/s | -51.1°C | 0% | 28.2hPa | 2.5V | 03:30:10 | 01:45:57 | 00:00:00 | |
| DK7TD | 2026-09-02 18:18:14 | 49.17023 | 8.49373 | 305° | 4km/h | 24742m | 4.4m/s | -51.2°C | 0% | 28.3hPa | 2.6V | 03:31:01 | 01:45:55 | 00:00:00 | |
| HARRO8 | 2026-09-02 18:18:14 | 49.17023 | 8.49375 | 268° | 7km/h | 24737m | 5.9m/s | -51.2°C | -1.0% | -1.0hPa | 2.5V | 00:00:00 | 00:00:00 | 00:00:00 | |
| OE5DXL-15 | 2026-09-02 18:18:11 | 49.17024 | 8.49383 | 251° | 16km/h | 24726m | 4.8m/s | 0°C | 0% | 0hPa | 2.5V | 00:00:00 | 01:45:52 | 00:00:00 | |
| DL1XH1-15 | 2026-09-02 18:18:10 | 49.17028 | 8.49400 | 323° | 7km/h | 24695m | 6m/s | -51.4°C | 3.4% | 28.5hPa | 2.5V | 03:29:48 | 01:45:46 | 00:00:00 | |
| IW2NTF | 2026-09-02 18:18:09 | 49.17026 | 8.49402 | 335° | 7km/h | 24689m | 5.3m/s | -51.3°C | 0% | 28.5hPa | 2.6V | 03:29:49 | 01:45:45 | 00:00:00 | |
| DL1XH-west | 2026-09-02 18:18:05 | 49.17028 | 8.49400 | 323° | 7km/h | 24695m | 6m/s | -51.4°C | 0% | 28.5hPa | 2.5V | 03:30:10 | 01:45:46 | 00:00:00 | |
| BIOWL1-15 | 2026-09-02 18:18:03 | 49.17024 | 8.49403 | 345° | 7km/h | 24684m | 4.9m/s | -51.3°C | 0% | 28.5hPa | 2.6V | 03:30:10 | 01:45:44 | 00:00:00 | |
| DK7TD | 2026-09-02 18:18:02 | 49.17023 | 8.49403 | 360° | 5km/h | 24679m | 6m/s | -51.3°C | 0% | 28.6hPa | 2.5V | 03:31:01 | 01:45:43 | 00:00:00 | |
| DM0DOS-11 | 2026-09-02 18:18:01 | 49.17028 | 8.49426 | 249° | 24km/h | 24648m | 4.4m/s | -51.2°C | 3.4% | 28.7hPa | 2.5V | 03:29:57 | 01:45:37 | 00:00:00 | |
| DJ2DS-15 | 2026-09-02 18:18:01 | 49.17021 | 8.49403 | 3° | 11km/h | 24674m | 4.5m/s | -51.2°C | 3.4% | 28.5hPa | 2.5V | 03:29:00 | 01:45:42 | 00:00:00 | |
| DM7RM-13 | 2026-09-02 18:18:00 | 49.17021 | 8.49403 | 4° | 2km/h | 24674m | 4.5m/s | -51.3°C | 0.7% | 28.6hPa | 2.5V | 03:30:00 | 00:00:00 | 00:00:00 | |
| IW2NTF | 2026-09-02 18:17:59 | 49.17031 | 8.49440 | 247° | 15km/h | 24639m | 5.9m/s | -51.2°C | 0% | 28.8hPa | 2.5V | 03:29:59 | 01:45:35 | 00:00:00 | |
| BIOWL1-15 | 2026-09-02 18:17:55 | 49.17032 | 8.49444 | 244° | 7km/h | 24633m | 5.4m/s | -51.3°C | 0% | 28.8hPa | 2.5V | 03:30:10 | 01:45:34 | 00:00:00 | |
| DL1XH-west | 2026-09-02 18:17:54 | 49.17031 | 8.49440 | 248° | 15km/h | 24639m | 5.9m/s | -51.2°C | 0% | 28.8hPa | 2.5V | 03:30:10 | 01:45:35 | 00:00:00 | |
| DJTTGO | 2026-09-02 18:17:53 | 49.17031 | 8.49440 | 249° | 15km/h | 24639m | 5.9m/s | -51.2°C | 0.7% | 28.8hPa | 2.5V | 03:30:00 | 00:00:00 | 00:00:00 | |
| KANTATE | 2026-09-02 18:17:52 | 49.17032 | 8.49444 | 245° | 7km/h | 24633m | 5.4m/s | -51.3°C | 0.7% | 28.8hPa | 2.5V | 00:00:00 | 00:00:00 | 00:00:00 | |
| DM0DOS-11 | 2026-09-02 18:17:51 | 49.17034 | 8.49453 | 246° | 7km/h | 24598m | 5.3m/s | -51.2°C | 3.4% | 28.9hPa | 2.5V | 03:30:07 | 01:45:27 | 00:00:00 | |
| DK7TD | 2026-09-02 18:17:51 | 49.17033 | 8.49446 | 141° | 0km/h | 24623m | 4.7m/s | -51.3°C | 0% | 28.8hPa | 2.6V | 03:31:01 | 01:45:32 | 00:00:00 | |
| HEMX73-11 | 2026-09-02 18:17:51 | 49.17033 | 8.49446 | 0° | 0km/h | 24624m | 4.7m/s | -51.3°C | 0.7% | 28.8hPa | 2.6V | 03:30:00 | 00:00:00 | 00:00:00 | |
| DB0UT-9 | 2026-09-02 18:17:50 | 49.17033 | 8.49446 | 0° | 0km/h | 24624m | 4.7m/s | -51.3°C | 0.7% | 28.8hPa | 2.6V | 03:30:00 | 00:00:00 | 00:00:00 | |
| IW2NTF | 2026-09-02 18:17:49 | 49.17038 | 8.49460 | 228° | 15km/h | 24587m | 4.5m/s | -51.2°C | 0% | 29hPa | 2.6V | 03:30:09 | 01:45:25 | 00:00:00 | |
| BIOWL9-15 | 2026-09-02 18:17:45 | 49.17035 | 8.49456 | 234° | 9km/h | 24592m | 5.6m/s | -51.2°C | 0.7% | 29.0hPa | 2.6V | 00:00:00 | 00:00:00 | 00:00:00 | |
| DL1XH-west | 2026-09-02 18:17:44 | 49.17038 | 8.49460 | 228° | 16km/h | 24587m | 4.5m/s | -51.2°C | 0% | 29hPa | 2.6V | 03:30:10 | 01:45:25 | 00:00:00 | |
| BIOWL1-15 | 2026-09-02 18:17:43 | 49.17041 | 8.49465 | 230° | 20km/h | 24583m | 4.6m/s | -51.1°C | 0% | 29hPa | 2.6V | 03:30:10 | 01:45:24 | 00:00:00 | |
| HARRO8 | 2026-09-02 18:17:43 | 49.17044 | 8.49472 | 232° | 26km/h | 24578m | 6.3m/s | 0°C | -1.0% | -1.0hPa | 2.5V | 00:00:00 | 00:00:00 | 00:00:00 | |
| DM0DOS-11 | 2026-09-02 18:17:41 | 49.17065 | 8.49512 | 197° | 5km/h | 24547m | 4.9m/s | -51.1°C | 3.3% | 29.1hPa | 2.5V | 03:30:17 | 01:45:17 | 00:00:00 | |
| DK7TD | 2026-09-02 18:17:40 | 49.17053 | 8.49490 | 236° | 29km/h | 24567m | 4m/s | -51.1°C | 0% | 29.1hPa | 2.5V | 03:31:01 | 01:45:21 | 00:00:00 | |
| DL1XH1-15 | 2026-09-02 18:17:40 | 49.17065 | 8.49512 | 149° | 2km/h | 24542m | 4.6m/s | -51.1°C | 3.4% | 29.2hPa | 2.5V | 03:30:18 | 01:45:16 | 00:00:00 | |
| IW2NTF | 2026-09-02 18:17:39 | 49.17065 | 8.49512 | 346° | 0km/h | 24537m | 5.7m/s | -51°C | 0% | 29.2hPa | 2.6V | 03:30:19 | 01:45:15 | 00:00:00 | |
| BIOWL1-15 | 2026-09-02 18:17:37 | 49.17065 | 8.49512 | 281° | 4km/h | 24532m | 5m/s | -51°C | 0% | 29.2hPa | 2.6V | 03:31:01 | 01:45:14 | 00:00:00 | |
| DL1XH-west | 2026-09-02 18:17:34 | 49.17066 | 8.49512 | 346° | 0km/h | 24537m | 5.7m/s | -51°C | 0% | 29.2hPa | 2.6V | 03:31:01 | 01:45:15 | 00:00:00 | |
| DL0LBS | 2026-09-02 18:17:33 | 49.17065 | 8.49512 | 0° | 0km/h | 24538m | 5.7m/s | -51.0°C | 0.7% | 29.2hPa | 2.5V | 03:31:00 | 00:00:00 | 00:00:00 | |
| KANTATE | 2026-09-02 18:17:32 | 49.17065 | 8.49512 | 282° | 4km/h | 24532m | 5.0m/s | -51.0°C | 0.7% | 29.2hPa | 2.5V | 03:31:00 | 00:00:00 | 00:00:00 | |
| DM0DOS-11 | 2026-09-02 18:17:31 | 49.17088 | 8.49542 | 213° | 24km/h | 24500m | 4.4m/s | -51.1°C | 3.3% | 29.4hPa | 2.5V | 03:30:27 | 01:45:07 | 00:00:00 | |
| DK7TD | 2026-09-02 18:17:30 | 49.17069 | 8.49523 | 228° | 16km/h | 24519m | 5.2m/s | -51°C | 0% | 29.3hPa | 2.5V | 03:31:01 | 01:45:11 | 00:00:00 | |
| DL1XH1-15 | 2026-09-02 18:17:30 | 49.17092 | 8.49548 | 220° | 24km/h | 24495m | 5.4m/s | -51°C | 3.3% | 29.4hPa | 2.5V | 03:30:28 | 01:45:06 | 00:00:00 | |
| DL1XH-west | 2026-09-02 18:17:24 | 49.17096 | 8.49554 | 228° | 22km/h | 24489m | 5.1m/s | -51°C | 0% | 29.4hPa | 2.5V | 03:31:01 | 01:45:05 | 00:00:00 | |
| BIOWL1-15 | 2026-09-02 18:17:23 | 49.17100 | 8.49560 | 231° | 20km/h | 24485m | 4.5m/s | -51°C | 0% | 29.4hPa | 2.5V | 03:31:01 | 01:45:04 | 00:00:00 | |
| DL8DAS-15 | 2026-09-02 18:17:21 | 49.17103 | 8.49566 | 228° | 20km/h | 24480m | 4.5m/s | -51.0°C | 0.7% | 29.5hPa | 2.6V | 00:00:00 | 00:00:00 | 00:00:00 | |
| DL1XH1-15 | 2026-09-02 18:17:20 | 49.17130 | 8.49584 | 186° | 18km/h | 24445m | 4.5m/s | -51.4°C | 3.3% | 29.6hPa | 2.6V | 03:30:38 | 01:44:56 | 00:00:00 | |
| DK7TD | 2026-09-02 18:17:16 | 49.17126 | 8.49583 | 191° | 15km/h | 24449m | 4.5m/s | -51.4°C | 0% | 29.6hPa | 2.5V | 03:31:01 | 01:44:57 | 00:00:00 | |
| DB0UT-7 | 2026-09-02 18:17:15 | 49.17130 | 8.49584 | 187° | 15km/h | 24445m | 4.5m/s | -51.3°C | 3.3% | 29.6hPa | 2.6V | 00:00:00 | 00:00:00 | 00:00:00 | |
| BIOWL9-15 | 2026-09-02 18:17:14 | 49.17135 | 8.49585 | 183° | 20km/h | 24440m | 6.0m/s | -51.4°C | 0.6% | 29.7hPa | 2.6V | 00:00:00 | 00:00:00 | 00:00:00 | |
| IW2NTF | 2026-09-02 18:17:13 | 49.17167 | 8.49592 | 197° | 15km/h | 24410m | 4.3m/s | -51.5°C | 0% | 29.8hPa | 2.6V | 03:30:45 | 01:44:49 | 00:00:00 | |
| DL1XH-west | 2026-09-02 18:17:13 | 49.17141 | 8.49585 | 183° | 26km/h | 24434m | 5.4m/s | -51.4°C | 0% | 29.7hPa | 2.6V | 03:31:01 | 01:44:54 | 00:00:00 | |
| BIOWL1-15 | 2026-09-02 18:17:12 | 49.17147 | 8.49586 | 185° | 26km/h | 24429m | 4.2m/s | -51.4°C | 0% | 29.7hPa | 2.5V | 03:31:01 | 01:44:53 | 00:00:00 | |
| NBG1-10 | 2026-09-02 18:17:12 | 49.17147 | 8.49586 | 185° | 16km/h | 24429m | 4.2m/s | -51.4°C | 3.4% | 29.7hPa | 2.5V | 00:00:00 | 01:44:53 | 00:00:00 | |
| BIOWL7-15 | 2026-09-02 18:17:11 | 49.17147 | 8.49586 | 186° | 26km/h | 24429m | 4.2m/s | -51.4°C | 0.7% | 29.7hPa | 2.5V | 03:31:00 | 00:00:00 | 00:00:00 | |
| DL1XH1-15 | 2026-09-02 18:17:10 | 49.17178 | 8.49593 | 168° | 16km/h | 24395m | 4.7m/s | -51.6°C | 3.4% | 29.9hPa | 2.5V | 03:30:48 | 01:44:46 | 00:00:00 | |
| DK7TD | 2026-09-02 18:17:05 | 49.17178 | 8.49593 | 168° | 16km/h | 24395m | 4.7m/s | -51.6°C | 0% | 29.9hPa | 2.5V | 03:31:01 | 01:44:46 | 00:00:00 | |
| DL1XH-west | 2026-09-02 18:17:03 | 49.17187 | 8.49590 | 167° | 18km/h | 24387m | 4.7m/s | -51.7°C | 0% | 29.9hPa | 2.6V | 03:31:01 | 01:44:44 | 00:00:00 | |
| BIOWL1-15 | 2026-09-02 18:17:01 | 49.17196 | 8.49588 | 174° | 18km/h | 24376m | 5m/s | -51.8°C | 0% | 29.9hPa | 2.5V | 03:31:01 | 01:44:42 | 00:00:00 | |
| DK7TD | 2026-09-02 18:16:54 | 49.17224 | 8.49579 | 176° | 7km/h | 24340m | 5.3m/s | -52°C | 0% | 30.1hPa | 2.5V | 03:31:01 | 01:44:35 | 00:00:00 | |
| IW2NTF | 2026-09-02 18:16:53 | 49.17234 | 8.49569 | 151° | 9km/h | 24311m | 5.7m/s | 0°C | 0% | 0hPa | 2.5V | 00:00:00 | 01:44:29 | 00:00:00 | |
| DL1XH-west | 2026-09-02 18:16:52 | 49.17227 | 8.49578 | 153° | 7km/h | 24330m | 5.6m/s | -52°C | 0% | 30.2hPa | 2.6V | 03:31:01 | 01:44:33 | 00:00:00 | |
| DM0DOS-11 | 2026-09-02 18:16:51 | 49.17239 | 8.49566 | 153° | 9km/h | 24301m | 4.5m/s | -52°C | 3.6% | 30.3hPa | 2.5V | 03:31:07 | 01:44:27 | 00:00:00 | |
| BIOWL1-15 | 2026-09-02 18:16:51 | 49.17228 | 8.49576 | 141° | 9km/h | 24325m | 5.2m/s | -52.1°C | 0% | 30.2hPa | 2.6V | 03:31:52 | 01:44:32 | 00:00:00 | |
| HTAHTA | 2026-09-02 18:16:49 | 49.17234 | 8.49569 | 151° | 9km/h | 24311m | 5.7m/s | -52.0°C | 0.7% | 30.2hPa | 2.6V | 00:00:00 | 00:00:00 | 00:00:00 | |
| DK7TD | 2026-09-02 18:16:43 | 49.17246 | 8.49557 | 139° | 16km/h | 24286m | 4.4m/s | -52.1°C | 0% | 30.4hPa | 2.6V | 03:31:52 | 01:44:24 | 00:00:00 | |
| BIOWL1-15 | 2026-09-02 18:16:42 | 49.17254 | 8.49549 | 173° | 7km/h | 24272m | 5.9m/s | -52.1°C | 0% | 30.4hPa | 2.5V | 03:31:52 | 01:44:21 | 00:00:00 | |
| DM0DOS-11 | 2026-09-02 18:16:41 | 49.17257 | 8.49556 | 211° | 5km/h | 24252m | 5.7m/s | -52°C | 3.5% | 30.5hPa | 2.5V | 03:31:17 | 01:44:17 | 00:00:00 | |
| DL1XH-west | 2026-09-02 18:16:41 | 49.17252 | 8.49550 | 150° | 11km/h | 24278m | 5.2m/s | -52.1°C | 0% | 30.4hPa | 2.5V | 03:31:52 | 01:44:22 | 00:00:00 | |
| DK7TD | 2026-09-02 18:16:32 | 49.17268 | 8.49554 | 177° | 15km/h | 24231m | 5.5m/s | -52°C | 0% | 30.6hPa | 2.5V | 03:31:52 | 01:44:13 | 00:00:00 | |
| DL1XH1-15 | 2026-09-02 18:16:30 | 49.17294 | 8.49548 | 174° | 7km/h | 24198m | 5.9m/s | -52.2°C | 3.6% | 30.8hPa | 2.5V | 03:31:28 | 01:44:06 | 00:00:00 | |
| DL1XH-west | 2026-09-02 18:16:30 | 49.17276 | 8.49554 | 178° | 16km/h | 24222m | 3.9m/s | -52°C | 0% | 30.7hPa | 2.5V | 03:31:52 | 01:44:11 | 00:00:00 | |
| BIOWL1-15 | 2026-09-02 18:16:29 | 49.17280 | 8.49554 | 171° | 18km/h | 24218m | 4.5m/s | -52.1°C | 0% | 30.7hPa | 2.6V | 03:31:52 | 01:44:10 | 00:00:00 | |
| DK7TD | 2026-09-02 18:16:22 | 49.17298 | 8.49554 | 239° | 11km/h | 24184m | 3.9m/s | -52.3°C | 0% | 30.9hPa | 2.6V | 03:31:52 | 01:44:03 | 00:00:00 | |
| DM0DOS-11 | 2026-09-02 18:16:21 | 49.17322 | 8.49565 | 194° | 20km/h | 24154m | 5.4m/s | -52.2°C | 3.6% | 31hPa | 2.6V | 03:31:37 | 01:43:57 | 00:00:00 | |
| DL1XH-west | 2026-09-02 18:16:20 | 49.17302 | 8.49559 | 201° | 15km/h | 24174m | 5.4m/s | -52.2°C | 0% | 30.9hPa | 2.6V | 03:31:52 | 01:44:01 | 00:00:00 | |
| BIOWL1-15 | 2026-09-02 18:16:19 | 49.17306 | 8.49561 | 190° | 18km/h | 24169m | 4.7m/s | -52.2°C | 0% | 30.9hPa | 2.5V | 03:31:52 | 01:44:00 | 00:00:00 | |
| DF2AP-13 | 2026-09-02 18:16:19 | 49.17306 | 8.49561 | 191° | 22km/h | 24169m | 4.7m/s | -52.2°C | 3.6% | 30.9hPa | 2.5V | 00:00:00 | 01:44:00 | 00:00:00 | |
| DF7PN | 2026-09-02 18:16:18 | 49.17311 | 8.49562 | 186° | 20km/h | 24165m | 4.5m/s | -52.2°C | 0.7% | 30.9hPa | 2.5V | 00:00:00 | 00:00:00 | 00:00:00 | |
| DO3MHA-11 | 2026-09-02 18:16:17 | 49.17317 | 8.49563 | 190° | 18km/h | 24160m | 4.9m/s | -52.2°C | 3.6% | 30.9hPa | 2.5V | 00:00:00 | 01:43:58 | 00:00:00 | |
| DF1GD-15 | 2026-09-02 18:16:16 | 49.17317 | 8.49563 | 190° | 22km/h | 24160m | 4.9m/s | -52.2°C | 0.8% | 31.0hPa | 2.6V | 03:31:00 | 00:00:00 | 00:00:00 | |
| DB0UT-7 | 2026-09-02 18:16:15 | 49.17327 | 8.49568 | 203° | 22km/h | 24150m | 4.6m/s | -52.1°C | 3.6% | 31.0hPa | 2.6V | 00:00:00 | 00:00:00 | 00:00:00 | |
| DN1GJH-1 | 2026-09-02 18:16:13 | 49.17331 | 8.49570 | 205° | 18km/h | 24146m | 4.0m/s | -52.1°C | 0.8% | 31.1hPa | 2.6V | 03:31:00 | 00:00:00 | 00:00:00 | |
| BIOWL9-15 | 2026-09-02 18:16:12 | 49.17339 | 8.49574 | 187° | 15km/h | 24136m | 5.8m/s | -52.1°C | 0.7% | 31.1hPa | 2.6V | 00:00:00 | 00:00:00 | 00:00:00 | |
| DM0DOS-11 | 2026-09-02 18:16:11 | 49.17365 | 8.49573 | 180° | 18km/h | 24105m | 4m/s | -52.1°C | 3.6% | 31.2hPa | 2.6V | 03:31:47 | 01:43:47 | 00:00:00 | |
| DK7TD | 2026-09-02 18:16:11 | 49.17343 | 8.49574 | 177° | 16km/h | 24130m | 5.9m/s | -52.1°C | 0% | 31.1hPa | 2.6V | 03:31:52 | 01:43:52 | 00:00:00 | |
| DL1XH-west | 2026-09-02 18:16:09 | 49.17351 | 8.49573 | 174° | 16km/h | 24120m | 5m/s | -52.1°C | 0% | 31.2hPa | 2.5V | 03:31:52 | 01:43:50 | 00:00:00 | |
| BIOWL1-15 | 2026-09-02 18:16:08 | 49.17356 | 8.49572 | 179° | 16km/h | 24115m | 5.8m/s | -52.1°C | 0% | 31.2hPa | 2.5V | 03:31:52 | 01:43:49 | 00:00:00 | |
| DO3MHA-11 | 2026-09-02 18:16:07 | 49.17360 | 8.49572 | 184° | 22km/h | 24110m | 4.4m/s | -52.1°C | 3.6% | 31.1hPa | 2.5V | 03:31:00 | 01:43:48 | 00:00:00 | |
| DD1CC8 | 2026-09-02 18:16:06 | 49.17370 | 8.49572 | 174° | 20km/h | 24100m | 5.7m/s | -52.1°C | 0.7% | 31.2hPa | 2.5V | 00:00:00 | 00:00:00 | 00:00:00 | |
| IW2NTF | 2026-09-02 18:16:05 | 49.17399 | 8.49566 | 181° | 24km/h | 24074m | 5m/s | 0°C | 0% | 0hPa | 2.5V | 00:00:00 | 01:43:41 | 00:00:00 | |
| DB0ND-19 | 2026-09-02 18:16:05 | 49.17370 | 8.49572 | 174° | 20km/h | 24100m | 5.7m/s | -52.1°C | 0.7% | 31.2hPa | 2.5V | 00:00:00 | 00:00:00 | 00:00:00 | |
| DO1YAY-16 | 2026-09-02 18:16:02 | 49.17393 | 8.49566 | 175° | 24km/h | 24080m | 5.7m/s | -52.0°C | 0.7% | 31.3hPa | 2.5V | 00:00:00 | 00:00:00 | 00:00:00 | |
| DM0DOS-11 | 2026-09-02 18:16:01 | 49.17424 | 8.49563 | 163° | 27km/h | 24055m | 5.3m/s | -51.9°C | 3.6% | 31.5hPa | 2.5V | 03:31:57 | 01:43:37 | 00:00:00 | |
| DJ2DS-15 | 2026-09-02 18:16:01 | 49.17393 | 8.49566 | 176° | 24km/h | 24080m | 5.7m/s | -52.0°C | 3.5% | 31.3hPa | 2.5V | 00:00:00 | 01:43:42 | 00:00:00 | |
| DL1XH1-15 | 2026-09-02 18:16:00 | 49.17430 | 8.49559 | 160° | 27km/h | 24050m | 4.7m/s | -51.9°C | 3.6% | 31.5hPa | 2.5V | 03:31:58 | 01:43:36 | 00:00:00 | |
| DK7TD | 2026-09-02 18:16:00 | 49.17399 | 8.49566 | 181° | 24km/h | 24074m | 5m/s | -52°C | 0% | 31.4hPa | 2.5V | 03:32:43 | 01:43:41 | 00:00:00 | |
| DL1XH-west | 2026-09-02 18:15:58 | 49.17411 | 8.49566 | 178° | 24km/h | 24065m | 4.6m/s | -52°C | 0% | 31.4hPa | 2.6V | 03:32:43 | 01:43:39 | 00:00:00 | |
| BIOWL1-15 | 2026-09-02 18:15:57 | 49.17417 | 8.49565 | 171° | 26km/h | 24060m | 5.6m/s | -51.9°C | 0% | 31.4hPa | 2.6V | 03:32:43 | 01:43:38 | 00:00:00 | |
| DO3MHA-11 | 2026-09-02 18:15:57 | 49.17417 | 8.49565 | 171° | 26km/h | 24060m | 5.6m/s | -51.9°C | 3.6% | 31.4hPa | 2.6V | 00:00:00 | 01:43:38 | 00:00:00 | |
| DM7RM-13 | 2026-09-02 18:15:56 | 49.17417 | 8.49565 | 172° | 26km/h | 24060m | 5.6m/s | -51.9°C | 0.8% | 31.4hPa | 2.6V | 03:32:00 | 00:00:00 | 00:00:00 | |
| DF1GD-15 | 2026-09-02 18:15:55 | 49.17424 | 8.49562 | 165° | 27km/h | 24055m | 5.3m/s | -51.9°C | 0.8% | 31.5hPa | 2.6V | 03:32:00 | 00:00:00 | 00:00:00 | |
| DN1GJH-1 | 2026-09-02 18:15:52 | 49.17443 | 8.49552 | 161° | 24km/h | 24040m | 5.8m/s | -51.9°C | 0.7% | 31.5hPa | 2.6V | 03:32:00 | 00:00:00 | 00:00:00 | |
| DM0DOS-11 | 2026-09-02 18:15:51 | 49.17472 | 8.49518 | 144° | 20km/h | 24005m | 5.4m/s | -51.8°C | 3.5% | 31.7hPa | 2.6V | 03:32:07 | 01:43:27 | 00:00:00 | |
| DJ2DS-15 | 2026-09-02 18:15:51 | 49.17458 | 8.49541 | 139° | 20km/h | 24024m | 5.9m/s | -51.9°C | 0.7% | 31.6hPa | 2.6V | 00:00:00 | 00:00:00 | 00:00:00 | |
| DL1XH1-15 | 2026-09-02 18:15:50 | 49.17477 | 8.49514 | 156° | 18km/h | 24000m | 5.2m/s | -51.8°C | 3.5% | 31.7hPa | 2.6V | 03:32:08 | 01:43:26 | 00:00:00 | |
| DK7TD | 2026-09-02 18:15:50 | 49.17458 | 8.49541 | 139° | 20km/h | 24024m | 5.9m/s | -51.9°C | 0% | 31.6hPa | 2.6V | 03:32:43 | 01:43:31 | 00:00:00 | |
| DL1XH-west | 2026-09-02 18:15:47 | 49.17469 | 8.49523 | 135° | 20km/h | 24010m | 3.7m/s | -51.8°C | 0% | 31.7hPa | 2.5V | 03:32:43 | 01:43:28 | 00:00:00 | |
| DL4BBY-15 | 2026-09-02 18:15:47 | 49.17469 | 8.49523 | 135° | 27km/h | 24011m | 3.7m/s | -50.8°C | 0% | 0hPa | 2.6V | 00:00:00 | 00:00:00 | 00:00:00 | |
| DO3MHA-11 | 2026-09-02 18:15:46 | 49.17472 | 8.49518 | 145° | 26km/h | 24005m | 5.3m/s | -51.7°C | 3.5% | 31.7hPa | 2.6V | 00:00:00 | 01:43:27 | 00:00:00 | |
| DB0UT-7 | 2026-09-02 18:15:45 | 49.17477 | 8.49514 | 157° | 27km/h | 24000m | 5.1m/s | -51.7°C | 3.5% | 31.7hPa | 2.6V | 00:00:00 | 01:43:26 | 00:00:00 | |
| DM0DOS-11 | 2026-09-02 18:15:41 | 49.17528 | 8.49469 | 141° | 24km/h | 23956m | 4.3m/s | -51.7°C | 3.4% | 31.9hPa | 2.6V | 03:32:17 | 01:43:17 | 00:00:00 | |
| DJ2DS-15 | 2026-09-02 18:15:41 | 49.17499 | 8.49501 | 150° | 27km/h | 23981m | 5.4m/s | -51.7°C | 3.5% | 31.8hPa | 2.6V | 00:00:00 | 01:43:22 | 00:00:00 | |
| DL1XH1-15 | 2026-09-02 18:15:40 | 49.17532 | 8.49463 | 136° | 24km/h | 23952m | 4.4m/s | -51.7°C | 3.4% | 31.9hPa | 2.6V | 03:32:18 | 01:43:16 | 00:00:00 | |
| DK7TD | 2026-09-02 18:15:39 | 49.17511 | 8.49488 | 143° | 31km/h | 23971m | 4.1m/s | -51.8°C | 0% | 31.9hPa | 2.5V | 03:32:43 | 01:43:20 | 00:00:00 | |
| DL1XH-west | 2026-09-02 18:15:37 | 49.17523 | 8.49475 | 144° | 26km/h | 23961m | 5m/s | -51.7°C | 0% | 31.9hPa | 2.5V | 03:32:43 | 01:43:18 | 00:00:00 | |
| SONDE2-11 | 2026-09-02 18:15:37 | 49.17523 | 8.49475 | 143° | 26km/h | 23961m | 5.0m/s | -51.7°C | 0.6% | 31.9hPa | 2.6V | 00:00:00 | 00:00:00 | 00:00:00 | |
| DO3MHA-11 | 2026-09-02 18:15:36 | 49.17528 | 8.49469 | 142° | 26km/h | 23957m | 4.3m/s | -51.7°C | 3.4% | 31.9hPa | 2.6V | 00:00:00 | 01:43:17 | 00:00:00 | |
| DD1CC8 | 2026-09-02 18:15:35 | 49.17537 | 8.49457 | 132° | 24km/h | 23947m | 5.8m/s | -51.8°C | 0.7% | 32.0hPa | 2.6V | 00:00:00 | 00:00:00 | 00:00:00 | |
| DO8TBO-1 | 2026-09-02 18:15:34 | 49.17536 | 8.49456 | 133° | 27km/h | 23947m | 5.7m/s | -51.7°C | 3.4% | 31.9hPa | 2.6V | 00:00:00 | 01:43:15 | 00:00:00 | |
| DM0DOS-11 | 2026-09-02 18:15:31 | 49.17575 | 8.49402 | 141° | 33km/h | 23906m | 5.3m/s | -52°C | 3.5% | 32.2hPa | 2.5V | 03:32:27 | 01:43:07 | 00:00:00 | |
| DO1YAY-16 | 2026-09-02 18:15:31 | 49.17553 | 8.49426 | 135° | 24km/h | 23927m | 5.8m/s | -51.9°C | 0.7% | 32.1hPa | 2.5V | 00:00:00 | 00:00:00 | 00:00:00 | |
| DL1XH1-15 | 2026-09-02 18:15:30 | 49.17581 | 8.49393 | 138° | 33km/h | 23901m | 4m/s | -52.1°C | 3.5% | 32.2hPa | 2.5V | 03:32:28 | 01:43:06 | 00:00:00 | |
| DK7TD | 2026-09-02 18:15:28 | 49.17563 | 8.49415 | 146° | 26km/h | 23917m | 4.6m/s | -52°C | 0% | 32.1hPa | 2.6V | 03:32:43 | 01:43:09 | 00:00:00 | |
| BIOWL1-15 | 2026-09-02 18:15:27 | 49.17568 | 8.49409 | 145° | 29km/h | 23912m | 5.8m/s | -52°C | 0% | 32.2hPa | 2.6V | 03:32:43 | 01:43:08 | 00:00:00 | |
| DO3MHA-11 | 2026-09-02 18:15:26 | 49.17575 | 8.49401 | 142° | 31km/h | 23906m | 5.2m/s | -52.0°C | 3.5% | 32.1hPa | 2.5V | 03:32:00 | 01:43:07 | 00:00:00 | |
| DJ2KF-10 | 2026-09-02 18:15:25 | 49.17581 | 8.49393 | 139° | 26km/h | 23902m | 4.0m/s | -52.0°C | 3.5% | 32.2hPa | 2.5V | 00:00:00 | 01:43:06 | 00:00:00 | |
| DM0DOS-11 | 2026-09-02 18:15:21 | 49.17623 | 8.49310 | 117° | 31km/h | 23859m | 4.3m/s | -52.4°C | 3.6% | 32.4hPa | 2.6V | 03:32:37 | 01:42:57 | 00:00:00 | |
| DJ2DS-15 | 2026-09-02 18:15:21 | 49.17603 | 8.49360 | 130° | 27km/h | 23883m | 4.0m/s | -52.2°C | 3.6% | 32.3hPa | 2.6V | 03:32:00 | 01:43:02 | 00:00:00 | |
| DL1XH1-15 | 2026-09-02 18:15:20 | 49.17627 | 8.49300 | 116° | 27km/h | 23854m | 5.5m/s | -52.4°C | 3.6% | 32.5hPa | 2.6V | 03:32:38 | 01:42:56 | 00:00:00 | |
| DK7TD | 2026-09-02 18:15:17 | 49.17619 | 8.49321 | 119° | 33km/h | 23863m | 4.2m/s | -52.4°C | 0% | 32.4hPa | 2.6V | 03:32:43 | 01:42:58 | 00:00:00 | |
| BIOWL1-15 | 2026-09-02 18:15:16 | 49.17623 | 8.49310 | 117° | 31km/h | 23859m | 4.3m/s | -52.4°C | 0% | 32.4hPa | 2.6V | 03:32:43 | 01:42:57 | 00:00:00 | |
| DO3MHA-11 | 2026-09-02 18:15:16 | 49.17623 | 8.49310 | 118° | 26km/h | 23859m | 4.3m/s | -52.4°C | 3.6% | 32.4hPa | 2.6V | 00:00:00 | 01:42:57 | 00:00:00 | |
| DB0UT-7 | 2026-09-02 18:15:15 | 49.17627 | 8.49300 | 117° | 26km/h | 23854m | 5.4m/s | -52.4°C | 3.6% | 32.4hPa | 2.6V | 00:00:00 | 00:00:00 | 00:00:00 | |
| DF1GD-15 | 2026-09-02 18:15:14 | 49.17627 | 8.49300 | 118° | 27km/h | 23854m | 5.5m/s | -52.4°C | 0.8% | 32.5hPa | 2.6V | 03:32:00 | 00:00:00 | 00:00:00 | |
| DL8DAS-15 | 2026-09-02 18:15:12 | 49.17632 | 8.49284 | 116° | 22km/h | 23843m | 5.1m/s | -52.4°C | 0.8% | 32.5hPa | 2.6V | 03:32:00 | 00:00:00 | 00:00:00 | |
| DM0DOS-11 | 2026-09-02 18:15:11 | 49.17652 | 8.49219 | 115° | 29km/h | 23808m | 4.6m/s | -52.5°C | 3.5% | 32.7hPa | 2.6V | 03:32:47 | 01:42:47 | 00:00:00 | |
| DL1XH1-15 | 2026-09-02 18:15:10 | 49.17655 | 8.49208 | 116° | 33km/h | 23803m | 5.5m/s | -52.5°C | 3.6% | 32.7hPa | 2.6V | 03:32:48 | 01:42:46 | 00:00:00 | |
| DL1XH-west | 2026-09-02 18:15:06 | 49.17652 | 8.49219 | 115° | 29km/h | 23808m | 4.6m/s | -52.5°C | 0% | 32.7hPa | 2.6V | 03:33:34 | 01:42:47 | 00:00:00 | |
| DO3MHA-11 | 2026-09-02 18:15:06 | 49.17652 | 8.49219 | 116° | 26km/h | 23808m | 4.6m/s | -52.4°C | 3.5% | 32.6hPa | 2.5V | 00:00:00 | 01:42:47 | 00:00:00 | |
| CB1BUN | 2026-09-02 18:15:05 | 49.17652 | 8.49219 | 116° | 29km/h | 23808m | 4.6m/s | -52.5°C | 0.7% | 32.7hPa | 2.5V | 03:33:00 | 00:00:00 | 00:00:00 | |
| DD1CC8 | 2026-09-02 18:15:04 | 49.17663 | 8.49185 | 118° | 31km/h | 23793m | 3.8m/s | -52.5°C | 0.8% | 32.8hPa | 2.5V | 00:00:00 | 00:00:00 | 00:00:00 | |
| DM0DOS-11 | 2026-09-02 18:15:01 | 49.17681 | 8.49136 | 126° | 22km/h | 23760m | 5.2m/s | -52.5°C | 3.6% | 32.9hPa | 2.5V | 03:32:57 | 01:42:37 | 00:00:00 | |
| DJ2DS-15 | 2026-09-02 18:15:01 | 49.17670 | 8.49166 | 119° | 22km/h | 23784m | 5.6m/s | -52.5°C | 3.6% | 32.8hPa | 2.5V | 00:00:00 | 01:42:42 | 00:00:00 | |
| DL1XH1-15 | 2026-09-02 18:15:00 | 49.17685 | 8.49129 | 130° | 27km/h | 23755m | 4.5m/s | -52.5°C | 3.6% | 33hPa | 2.5V | 03:32:58 | 01:42:36 | 00:00:00 | |
| DL1XH-west | 2026-09-02 18:14:55 | 49.17685 | 8.49129 | 130° | 27km/h | 23755m | 4.5m/s | -52.6°C | 0% | 33hPa | 2.5V | 03:33:34 | 01:42:36 | 00:00:00 | |
| DL8DAS-14 | 2026-09-02 18:14:55 | 49.17689 | 8.49121 | 131° | 27km/h | 23751m | 4.1m/s | -52.6°C | 0.7% | 33.0hPa | 2.6V | 00:00:00 | 00:00:00 | 00:00:00 | |
| DK5PH-5 | 2026-09-02 18:14:54 | 49.17689 | 8.49121 | 132° | 22km/h | 23751m | 4.1m/s | -52.5°C | 3.6% | 32.9hPa | 2.6V | 03:32:00 | 01:42:35 | 00:00:00 | |
| DM0DOS-11 | 2026-09-02 18:14:51 | 49.17709 | 8.49051 | 91° | 26km/h | 23711m | 4.2m/s | -52.8°C | 3.6% | 33.2hPa | 2.6V | 03:33:07 | 01:42:27 | 00:00:00 | |
| DL1XH1-15 | 2026-09-02 18:14:50 | 49.17709 | 8.49042 | 90° | 22km/h | 23706m | 5m/s | -52.8°C | 3.7% | 33.2hPa | 2.6V | 03:33:08 | 01:42:26 | 00:00:00 | |
| DL1ZP-14 | 2026-09-02 18:14:48 | 49.17708 | 8.49071 | 97° | 24km/h | 23721m | 5.8m/s | -52.7°C | 0.7% | 33.1hPa | 2.5V | 00:00:00 | 00:00:00 | 00:00:00 | |
| DL4BBY-15 | 2026-09-02 18:14:47 | 49.17708 | 8.49061 | 94° | 20km/h | 23716m | 5.1m/s | -51.7°C | 0% | 0hPa | 2.6V | 00:00:00 | 00:00:00 | 00:00:00 | |
| IW2NTF | 2026-09-02 18:14:46 | 49.17713 | 8.49021 | 136° | 15km/h | 23687m | 5.4m/s | 0°C | 0% | 0hPa | 2.6V | 00:00:00 | 01:42:22 | 00:00:00 | |
| DF7PN | 2026-09-02 18:14:45 | 49.17709 | 8.49042 | 90° | 20km/h | 23707m | 5.0m/s | -52.8°C | 0.8% | 33.2hPa | 2.5V | 00:00:00 | 00:00:00 | 00:00:00 | |
| DL1XH-west | 2026-09-02 18:14:44 | 49.17709 | 8.49035 | 92° | 16km/h | 23701m | 5.6m/s | -52.8°C | 0% | 33.2hPa | 2.5V | 03:33:34 | 01:42:25 | 00:00:00 | |
| DB0NH | 2026-09-02 18:14:44 | 49.17709 | 8.49035 | 92° | 18km/h | 23702m | 5.6m/s | -52.7°C | 3.6% | 33.2hPa | 2.5V | 00:00:00 | 01:42:25 | 00:00:00 | |
| DM0DOS-11 | 2026-09-02 18:14:41 | 49.17729 | 8.48994 | 105° | 16km/h | 23662m | 5.6m/s | -52.9°C | 3.7% | 33.4hPa | 2.6V | 03:33:17 | 01:42:17 | 00:00:00 | |
| DJ2DS-15 | 2026-09-02 18:14:41 | 49.17713 | 8.49021 | 137° | 20km/h | 23687m | 5.3m/s | -52.9°C | 3.7% | 33.2hPa | 2.6V | 00:00:00 | 01:42:22 | 00:00:00 | |
| DL1XH1-15 | 2026-09-02 18:14:40 | 49.17730 | 8.48987 | 86° | 18km/h | 23656m | 4.5m/s | -52.9°C | 3.6% | 33.5hPa | 2.6V | 03:33:18 | 01:42:16 | 00:00:00 | |
| DJ2DS-15 | 2026-09-02 18:14:39 | 49.17724 | 8.49006 | 131° | 20km/h | 23672m | 4.3m/s | -53.0°C | 0.8% | 33.4hPa | 2.5V | 00:00:00 | 00:00:00 | 00:00:00 | |
| IW2NTF | 2026-09-02 18:14:36 | 49.17726 | 8.48953 | 84° | 26km/h | 23637m | 4.3m/s | 0°C | 0% | 0hPa | 2.5V | 00:00:00 | 01:42:12 | 00:00:00 | |
| DL1XH-west | 2026-09-02 18:14:34 | 49.17729 | 8.48980 | 80° | 20km/h | 23652m | 4.5m/s | -52.9°C | 0% | 33.5hPa | 2.6V | 03:33:34 | 01:42:15 | 00:00:00 | |
| DO8TBO-1 | 2026-09-02 18:14:33 | 49.17728 | 8.48972 | 81° | 18km/h | 23647m | 5.7m/s | -52.9°C | 3.7% | 33.5hPa | 2.5V | 00:00:00 | 01:42:14 | 00:00:00 | |
| DB0ND-19 | 2026-09-02 18:14:32 | 49.17726 | 8.48953 | 84° | 24km/h | 23637m | 4.3m/s | -53.0°C | 0.8% | 33.6hPa | 2.5V | 00:00:00 | 00:00:00 | 00:00:00 | |
| DM0DOS-11 | 2026-09-02 18:14:31 | 49.17725 | 8.48914 | 95° | 18km/h | 23612m | 5.6m/s | -53.1°C | 3.7% | 33.7hPa | 2.5V | 03:33:27 | 01:42:07 | 00:00:00 | |
| NBG1-10 | 2026-09-02 18:14:31 | 49.17726 | 8.48953 | 85° | 16km/h | 23637m | 4.3m/s | -53.0°C | 3.7% | 33.5hPa | 2.5V | 00:00:00 | 01:42:12 | 00:00:00 | |
| DL1XH1-15 | 2026-09-02 18:14:30 | 49.17726 | 8.48906 | 102° | 20km/h | 23607m | 5.7m/s | -53.1°C | 3.7% | 33.7hPa | 2.5V | 03:33:28 | 01:42:06 | 00:00:00 | |
| BIOWL1-15 | 2026-09-02 18:14:24 | 49.17727 | 8.48898 | 105° | 22km/h | 23602m | 4.3m/s | -53.1°C | 0% | 33.8hPa | 2.5V | 03:33:34 | 01:42:05 | 00:00:00 | |
| DL1XH-west | 2026-09-02 18:14:23 | 49.17728 | 8.48891 | 104° | 20km/h | 23598m | 4.2m/s | -53°C | 0% | 33.8hPa | 2.6V | 03:33:34 | 01:42:04 | 00:00:00 | |
| DM0DOS-11 | 2026-09-02 18:14:21 | 49.17730 | 8.48841 | 87° | 20km/h | 23563m | 4.6m/s | -53°C | 3.7% | 34hPa | 2.6V | 03:33:37 | 01:41:57 | 00:00:00 | |
| DJ2DS-15 | 2026-09-02 18:14:21 | 49.17730 | 8.48877 | 96° | 15km/h | 23587m | 4.9m/s | -53.0°C | 3.7% | 33.8hPa | 2.6V | 00:00:00 | 01:42:02 | 00:00:00 | |
| DL1XH1-15 | 2026-09-02 18:14:20 | 49.17730 | 8.48833 | 83° | 16km/h | 23558m | 5.5m/s | -53°C | 3.7% | 34hPa | 2.6V | 03:33:38 | 01:41:56 | 00:00:00 | |
| BIOWL1-15 | 2026-09-02 18:14:13 | 49.17730 | 8.48823 | 98° | 11km/h | 23548m | 3.8m/s | -53°C | 0% | 34hPa | 2.5V | 03:34:25 | 01:41:54 | 00:00:00 | |
| DK7TD | 2026-09-02 18:14:12 | 49.17730 | 8.48819 | 116° | 11km/h | 23544m | 4.5m/s | -53°C | 0% | 34.1hPa | 2.6V | 03:34:25 | 01:41:53 | 00:00:00 | |
| DL1XH1-15 | 2026-09-02 18:14:10 | 49.17739 | 8.48785 | 71° | 11km/h | 23509m | 4.2m/s | -53°C | 3.8% | 34.3hPa | 2.6V | 03:33:48 | 01:41:46 | 00:00:00 | |
| BIOWL1-15 | 2026-09-02 18:14:03 | 49.17738 | 8.48776 | 83° | 13km/h | 23500m | 5.5m/s | -53°C | 0% | 34.3hPa | 2.5V | 03:34:25 | 01:41:44 | 00:00:00 | |
| DL1XH-west | 2026-09-02 18:14:02 | 49.17738 | 8.48771 | 95° | 15km/h | 23495m | 5.1m/s | -53°C | 0% | 34.3hPa | 2.5V | 03:34:25 | 01:41:43 | 00:00:00 | |
| BIOWL1-15 | 2026-09-02 18:13:52 | 49.17754 | 8.48727 | 114° | 13km/h | 23444m | 5.4m/s | -52.9°C | 0% | 34.6hPa | 2.6V | 03:34:25 | 01:41:33 | 00:00:00 | |
| DL1XH-west | 2026-09-02 18:13:51 | 49.17755 | 8.48723 | 101° | 13km/h | 23439m | 4.2m/s | -52.8°C | 0% | 34.6hPa | 2.5V | 03:34:25 | 01:41:32 | 00:00:00 | |
| DH7VM-15 | 2026-09-02 18:13:51 | 49.17756 | 8.48717 | 98° | 15km/h | 23435m | 4.1m/s | -52.8°C | 0.8% | 34.6hPa | 2.5V | 00:00:00 | 00:00:00 | 00:00:00 | |
| DL1XH1-15 | 2026-09-02 18:13:50 | 49.17762 | 8.48683 | 113° | 16km/h | 23408m | 5.5m/s | -52.8°C | 3.7% | 34.8hPa | 2.5V | 03:34:08 | 01:41:26 | 00:00:00 | |
| DL1ZP-14 | 2026-09-02 18:13:46 | 49.17760 | 8.48690 | 111° | 18km/h | 23414m | 5.4m/s | -52.8°C | 0.8% | 34.7hPa | 2.5V | 00:00:00 | 00:00:00 | 00:00:00 | |
| BIOWL1-15 | 2026-09-02 18:13:42 | 49.17768 | 8.48666 | 121° | 20km/h | 23394m | 5.8m/s | -52.8°C | 0% | 34.9hPa | 2.6V | 03:34:25 | 01:41:23 | 00:00:00 | |
| DM0DOS-11 | 2026-09-02 18:13:41 | 49.17781 | 8.48627 | 99° | 18km/h | 23364m | 4.4m/s | -52.7°C | 3.7% | 35hPa | 2.6V | 03:34:17 | 01:41:17 | 00:00:00 | |
| DK7TD | 2026-09-02 18:13:41 | 49.17771 | 8.48659 | 121° | 22km/h | 23389m | 5.3m/s | -52.8°C | 0% | 34.9hPa | 2.6V | 03:34:25 | 01:41:22 | 00:00:00 | |
| DL1XH-west | 2026-09-02 18:13:40 | 49.17773 | 8.48652 | 121° | 22km/h | 23384m | 4m/s | -52.8°C | 0% | 34.9hPa | 2.5V | 03:34:25 | 01:41:21 | 00:00:00 | |
| DL8DAS-15 | 2026-09-02 18:13:39 | 49.17773 | 8.48652 | 122° | 22km/h | 23384m | 4.0m/s | -52.8°C | 0.8% | 34.9hPa | 2.6V | 00:00:00 | 00:00:00 | 00:00:00 | |
| BIOWL9-15 | 2026-09-02 18:13:37 | 49.17780 | 8.48633 | 106° | 15km/h | 23369m | 4.6m/s | -52.7°C | 0.8% | 35.0hPa | 2.6V | 00:00:00 | 00:00:00 | 00:00:00 | |
| DO3MHA-11 | 2026-09-02 18:13:36 | 49.17780 | 8.48627 | 100° | 24km/h | 23364m | 4.3m/s | -52.6°C | 3.7% | 35.0hPa | 2.6V | 00:00:00 | 01:41:17 | 00:00:00 | |
| DF3TZ-5 | 2026-09-02 18:13:34 | 49.17782 | 8.48611 | 94° | 24km/h | 23353m | 5.3m/s | -52.7°C | 0.8% | 35.1hPa | 2.6V | 00:00:00 | 00:00:00 | 00:00:00 | |
| DM7RM-13 | 2026-09-02 18:13:33 | 49.17782 | 8.48611 | 95° | 24km/h | 23354m | 5.3m/s | -52.7°C | 0.8% | 35.1hPa | 2.6V | 03:34:00 | 00:00:00 | 00:00:00 | |
| DM0DOS-11 | 2026-09-02 18:13:31 | 49.17789 | 8.48539 | 109° | 27km/h | 23313m | 4.3m/s | -52.5°C | 3.6% | 35.3hPa | 2.6V | 03:34:27 | 01:41:07 | 00:00:00 | |
| DK7TD | 2026-09-02 18:13:31 | 49.17783 | 8.48582 | 92° | 22km/h | 23339m | 5.6m/s | -52.7°C | 0% | 35.2hPa | 2.5V | 03:34:25 | 01:41:12 | 00:00:00 | |
| DL1XH-west | 2026-09-02 18:13:29 | 49.17784 | 8.48566 | 101° | 22km/h | 23328m | 4.6m/s | -52.6°C | 0% | 35.2hPa | 2.6V | 03:34:25 | 01:41:10 | 00:00:00 | |
| DN1GJH-1 | 2026-09-02 18:13:28 | 49.17784 | 8.48566 | 102° | 22km/h | 23329m | 4.6m/s | -52.6°C | 0.8% | 35.2hPa | 2.6V | 03:34:00 | 00:00:00 | 00:00:00 | |
| DL0LBS | 2026-09-02 18:13:27 | 49.17785 | 8.48558 | 107° | 24km/h | 23324m | 5.6m/s | -52.6°C | 0.8% | 35.2hPa | 2.6V | 03:34:00 | 00:00:00 | 00:00:00 | |
| DO3MHA-11 | 2026-09-02 18:13:26 | 49.17789 | 8.48539 | 110° | 20km/h | 23313m | 4.3m/s | -52.5°C | 3.6% | 35.2hPa | 2.6V | 03:34:00 | 01:41:07 | 00:00:00 | |
| NBG1-10 | 2026-09-02 18:13:25 | 49.17791 | 8.48529 | 108° | 22km/h | 23309m | 4.6m/s | -52.5°C | 3.6% | 35.3hPa | 2.6V | 00:00:00 | 01:41:06 | 00:00:00 | |
| DK5PH-5 | 2026-09-02 18:13:24 | 49.17793 | 8.48521 | 103° | 24km/h | 23303m | 5.8m/s | -52.4°C | 3.6% | 35.3hPa | 2.5V | 00:00:00 | 01:41:05 | 00:00:00 | |
| DL8DAS-15 | 2026-09-02 18:13:23 | 49.17793 | 8.48521 | 104° | 22km/h | 23303m | 5.8m/s | -52.5°C | 0.8% | 35.3hPa | 2.5V | 00:00:00 | 00:00:00 | 00:00:00 | |
| DL8DAS-14 | 2026-09-02 18:13:22 | 49.17794 | 8.48498 | 85° | 20km/h | 23288m | 6.0m/s | -52.5°C | 0.7% | 35.4hPa | 2.5V | 00:00:00 | 00:00:00 | 00:00:00 | |
| DM0DOS-11 | 2026-09-02 18:13:21 | 49.17788 | 8.48463 | 72° | 16km/h | 23261m | 4.2m/s | -52.6°C | 3.7% | 35.6hPa | 2.5V | 03:34:37 | 01:40:57 | 00:00:00 | |
| DJ2DS-15 | 2026-09-02 18:13:21 | 49.17794 | 8.48497 | 86° | 24km/h | 23288m | 5.9m/s | -52.4°C | 3.6% | 35.4hPa | 2.5V | 00:00:00 | 01:41:02 | 00:00:00 | |
| DL1XH1-15 | 2026-09-02 18:13:20 | 49.17788 | 8.48457 | 83° | 18km/h | 23256m | 4.8m/s | -52.5°C | 3.6% | 35.6hPa | 2.5V | 03:34:38 | 01:40:56 | 00:00:00 | |
| BIOWL1-15 | 2026-09-02 18:13:20 | 49.17793 | 8.48490 | 82° | 20km/h | 23282m | 5.4m/s | -52.5°C | 0% | 35.5hPa | 2.6V | 03:35:16 | 01:41:01 | 00:00:00 | |
| DL1XH-west | 2026-09-02 18:13:19 | 49.17792 | 8.48482 | 78° | 20km/h | 23277m | 4.9m/s | -52.5°C | 0% | 35.5hPa | 2.6V | 03:35:16 | 01:41:00 | 00:00:00 | |
| BIOWL1-15 | 2026-09-02 18:13:12 | 49.17794 | 8.48412 | 109° | 24km/h | 23230m | 5.5m/s | -52.5°C | 0% | 35.7hPa | 2.5V | 03:35:16 | 01:40:51 | 00:00:00 | |
| DF7PN | 2026-09-02 18:13:12 | 49.17792 | 8.48421 | 109° | 26km/h | 23236m | 5.3m/s | -52.5°C | 0.8% | 35.7hPa | 2.6V | 00:00:00 | 00:00:00 | 00:00:00 | |
| DM0DOS-11 | 2026-09-02 18:13:11 | 49.17797 | 8.48378 | 84° | 27km/h | 23210m | 6m/s | -52.6°C | 3.7% | 35.9hPa | 2.6V | 03:34:47 | 01:40:47 | 00:00:00 | |
| DL1XH1-15 | 2026-09-02 18:13:10 | 49.17796 | 8.48367 | 77° | 29km/h | 23205m | 4.6m/s | -52.6°C | 3.7% | 35.9hPa | 2.5V | 03:34:48 | 01:40:46 | 00:00:00 | |
| DK7TD | 2026-09-02 18:13:09 | 49.17796 | 8.48404 | 105° | 22km/h | 23225m | 4.6m/s | -52.5°C | 0% | 35.8hPa | 2.5V | 03:35:16 | 01:40:50 | 00:00:00 | |
| DL1XH-west | 2026-09-02 18:13:08 | 49.17797 | 8.48396 | 98° | 20km/h | 23221m | 4.1m/s | -52.5°C | 0% | 35.8hPa | 2.6V | 03:35:16 | 01:40:49 | 00:00:00 | |
| DO3DL | 2026-09-02 18:13:07 | 49.17797 | 8.48396 | 99° | 20km/h | 23221m | 4.1m/s | -52.5°C | 0% | 0hPa | 2.6V | 00:00:00 | 00:00:00 | 00:00:00 | |
| DO3MHA-11 | 2026-09-02 18:13:06 | 49.17797 | 8.48378 | 85° | 27km/h | 23211m | 5.9m/s | -52.5°C | 3.7% | 35.8hPa | 2.6V | 00:00:00 | 01:40:47 | 00:00:00 | |
| BIOWL7-15 | 2026-09-02 18:13:04 | 49.17796 | 8.48367 | 79° | 29km/h | 23205m | 4.6m/s | -52.6°C | 0.8% | 35.9hPa | 2.6V | 03:35:00 | 00:00:00 | 00:00:00 | |
| DL6DJ-15 | 2026-09-02 18:13:03 | 49.17791 | 8.48346 | 67° | 27km/h | 23196m | 5.9m/s | -52.5°C | 0.7% | 35.9hPa | 2.6V | 00:00:00 | 00:00:00 | 00:00:00 | |
| SONDE2-11 | 2026-09-02 18:13:02 | 49.17786 | 8.48327 | 67° | 26km/h | 23185m | 4.6m/s | -52.6°C | 0.7% | 36.0hPa | 2.6V | 00:00:00 | 00:00:00 | 00:00:00 | |
| DM0DOS-11 | 2026-09-02 18:13:01 | 49.17782 | 8.48276 | 93° | 22km/h | 23160m | 5.8m/s | -52.5°C | 3.6% | 36.1hPa | 2.6V | 03:34:57 | 01:40:37 | 00:00:00 | |
| DJ2DS-15 | 2026-09-02 18:13:01 | 49.17786 | 8.48327 | 68° | 26km/h | 23186m | 4.5m/s | -52.5°C | 3.6% | 36.0hPa | 2.6V | 00:00:00 | 01:40:42 | 00:00:00 | |
| DL1XH1-15 | 2026-09-02 18:13:00 | 49.17782 | 8.48268 | 91° | 18km/h | 23154m | 5.2m/s | -52.5°C | 3.6% | 36.2hPa | 2.6V | 03:34:58 | 01:40:36 | 00:00:00 | |
| DK7TD | 2026-09-02 18:12:59 | 49.17782 | 8.48306 | 82° | 27km/h | 23175m | 5.5m/s | -52.5°C | 0% | 36hPa | 2.6V | 03:35:16 | 01:40:40 | 00:00:00 | |
| DL1XH-west | 2026-09-02 18:12:57 | 49.17782 | 8.48285 | 93° | 26km/h | 23165m | 4.7m/s | -52.5°C | 0% | 36.1hPa | 2.6V | 03:35:16 | 01:40:38 | 00:00:00 | |
| DO1YAY-16 | 2026-09-02 18:12:55 | 49.17782 | 8.48268 | 91° | 18km/h | 23155m | 5.2m/s | -52.5°C | 0.8% | 36.2hPa | 2.5V | 00:00:00 | 00:00:00 | 00:00:00 | |
| DK5PH-5 | 2026-09-02 18:12:54 | 49.17782 | 8.48261 | 86° | 22km/h | 23150m | 4.2m/s | -52.5°C | 3.7% | 36.2hPa | 2.5V | 03:34:00 | 01:40:35 | 00:00:00 | |
| NBG1-10 | 2026-09-02 18:12:52 | 49.17780 | 8.48245 | 77° | 22km/h | 23141m | 5.8m/s | -52.5°C | 3.6% | 36.2hPa | 2.5V | 00:00:00 | 01:40:33 | 00:00:00 | |
| DM0DOS-11 | 2026-09-02 18:12:51 | 49.17763 | 8.48185 | 64° | 27km/h | 23111m | 4.5m/s | -52.7°C | 3.7% | 36.4hPa | 2.5V | 03:35:07 | 01:40:27 | 00:00:00 | |
| DL8DAS-14 | 2026-09-02 18:12:51 | 49.17776 | 8.48225 | 68° | 29km/h | 23131m | 4.3m/s | -52.6°C | 0.8% | 36.3hPa | 2.6V | 00:00:00 | 00:00:00 | 00:00:00 | |
| DL1XH1-15 | 2026-09-02 18:12:50 | 49.17760 | 8.48175 | 69° | 27km/h | 23105m | 5.9m/s | -52.7°C | 3.6% | 36.4hPa | 2.6V | 03:35:08 | 01:40:26 | 00:00:00 | |
| DK7TD | 2026-09-02 18:12:49 | 49.17773 | 8.48214 | 64° | 31km/h | 23125m | 5.4m/s | -52.6°C | 0% | 36.3hPa | 2.6V | 03:35:16 | 01:40:30 | 00:00:00 | |
| DL1XH-west | 2026-09-02 18:12:46 | 49.17763 | 8.48185 | 64° | 27km/h | 23111m | 4.5m/s | -52.7°C | 0% | 36.4hPa | 2.5V | 03:35:16 | 01:40:27 | 00:00:00 | |
| DO3MHA-11 | 2026-09-02 18:12:46 | 49.17762 | 8.48185 | 65° | 22km/h | 23111m | 4.5m/s | -52.7°C | 3.7% | 36.4hPa | 2.5V | 03:35:00 | 01:40:27 | 00:00:00 | |
| DB0UT-7 | 2026-09-02 18:12:45 | 49.17760 | 8.48175 | 70° | 20km/h | 23106m | 5.8m/s | -52.7°C | 3.6% | 36.4hPa | 2.6V | 03:35:00 | 01:40:26 | 00:00:00 | |
| DL1ZP-14 | 2026-09-02 18:12:44 | 49.17757 | 8.48156 | 78° | 24km/h | 23095m | 4.4m/s | -52.7°C | 0.8% | 36.5hPa | 2.6V | 00:00:00 | 00:00:00 | 00:00:00 | |
| HEMX73-11 | 2026-09-02 18:12:42 | 49.17756 | 8.48156 | 80° | 24km/h | 23096m | 4.4m/s | -52.7°C | 0.8% | 36.5hPa | 2.6V | 03:35:00 | 00:00:00 | 00:00:00 | |
| DM0DOS-11 | 2026-09-02 18:12:41 | 49.17739 | 8.48109 | 59° | 26km/h | 23061m | 4.7m/s | -52.6°C | 3.7% | 36.7hPa | 2.6V | 03:35:17 | 01:40:17 | 00:00:00 | |
| DF7PN | 2026-09-02 18:12:41 | 49.17752 | 8.48134 | 53° | 16km/h | 23080m | 4.8m/s | -52.7°C | 0.8% | 36.6hPa | 2.6V | 00:00:00 | 00:00:00 | 00:00:00 | |
| DL1XH1-15 | 2026-09-02 18:12:40 | 49.17736 | 8.48101 | 62° | 26km/h | 23056m | 4.2m/s | -52.6°C | 3.7% | 36.7hPa | 2.6V | 03:35:18 | 01:40:16 | 00:00:00 | |
| BIOWL1-15 | 2026-09-02 18:12:39 | 49.17749 | 8.48129 | 47° | 18km/h | 23075m | 3.9m/s | -52.7°C | 0% | 36.6hPa | 2.7V | 03:35:16 | 01:40:20 | 00:00:00 | |
| DK7TD | 2026-09-02 18:12:38 | 49.17746 | 8.48124 | 48° | 20km/h | 23071m | 5m/s | -52.7°C | 0% | 36.6hPa | 2.6V | 03:35:16 | 01:40:19 | 00:00:00 | |
| DL1XH-west | 2026-09-02 18:12:35 | 49.17736 | 8.48101 | 62° | 26km/h | 23056m | 4.2m/s | -52.6°C | 0% | 36.7hPa | 2.6V | 03:36:07 | 01:40:16 | 00:00:00 | |
| SFWM-10 | 2026-09-02 18:12:34 | 49.17736 | 8.48101 | 63° | 26km/h | 23056m | 4.2m/s | -52.6°C | 0.8% | 36.7hPa | 2.6V | 03:36:00 | 00:00:00 | 00:00:00 | |
| DL6DJ-15 | 2026-09-02 18:12:32 | 49.17728 | 8.48078 | 61° | 18km/h | 23041m | 5.0m/s | -52.6°C | 0.8% | 36.8hPa | 2.6V | 00:00:00 | 00:00:00 | 00:00:00 | |
| DM0DOS-11 | 2026-09-02 18:12:31 | 49.17713 | 8.48042 | 40° | 18km/h | 23012m | 5.9m/s | -52.6°C | 3.7% | 37hPa | 2.6V | 03:35:27 | 01:40:07 | 00:00:00 | |
| SONDE2-11 | 2026-09-02 18:12:31 | 49.17724 | 8.48066 | 62° | 18km/h | 23031m | 5.8m/s | 0°C | -1.0% | 36.9hPa | 2.6V | 00:00:00 | 00:00:00 | 00:00:00 | |
| DL1XH1-15 | 2026-09-02 18:12:30 | 49.17709 | 8.48038 | 29° | 16km/h | 23007m | 5.4m/s | -52.6°C | 3.7% | 37hPa | 2.6V | 03:35:28 | 01:40:06 | 00:00:00 | |
| BIOWL1-15 | 2026-09-02 18:12:28 | 49.17719 | 8.48053 | 57° | 20km/h | 23021m | 3.9m/s | -52.6°C | 0% | 36.9hPa | 2.6V | 03:36:07 | 01:40:09 | 00:00:00 | |
| DL1XH-west | 2026-09-02 18:12:24 | 49.17705 | 8.48035 | 26° | 16km/h | 23001m | 4.7m/s | -52.6°C | 0% | 37hPa | 2.5V | 03:36:07 | 01:40:05 | 00:00:00 | |
| DK5PH-5 | 2026-09-02 18:12:24 | 49.17705 | 8.48035 | 26° | 16km/h | 23002m | 4.6m/s | -52.6°C | 3.7% | 37.0hPa | 2.5V | 00:00:00 | 01:40:05 | 00:00:00 | |
| BIOWL7-15 | 2026-09-02 18:12:23 | 49.17705 | 8.48035 | 27° | 16km/h | 23002m | 4.7m/s | -52.6°C | 0.8% | 37.0hPa | 2.5V | 03:36:00 | 00:00:00 | 00:00:00 | |
| HEMX73-11 | 2026-09-02 18:12:22 | 49.17701 | 8.48032 | 32° | 18km/h | 22997m | 4.6m/s | -52.6°C | 0.8% | 37.1hPa | 2.5V | 03:36:00 | 00:00:00 | 00:00:00 | |
| DM0DOS-11 | 2026-09-02 18:12:21 | 49.17684 | 8.47990 | 72° | 13km/h | 22963m | 3.9m/s | -52.5°C | 3.6% | 37.3hPa | 2.5V | 03:35:37 | 01:39:57 | 00:00:00 | |
| DL1XH1-15 | 2026-09-02 18:12:20 | 49.17683 | 8.47985 | 68° | 15km/h | 22959m | 4.6m/s | -52.5°C | 3.6% | 37.3hPa | 2.6V | 03:35:38 | 01:39:56 | 00:00:00 | |
| DK7TD | 2026-09-02 18:12:17 | 49.17685 | 8.47995 | 73° | 15km/h | 22968m | 4.4m/s | -52.5°C | 0% | 37.2hPa | 2.5V | 03:36:07 | 01:39:58 | 00:00:00 | |
| DL1XH-west | 2026-09-02 18:12:13 | 49.17679 | 8.47973 | 63° | 18km/h | 22949m | 4.6m/s | -52.4°C | 0% | 37.3hPa | 2.6V | 03:36:07 | 01:39:54 | 00:00:00 | |
| DL1ZP-14 | 2026-09-02 18:12:13 | 49.17677 | 8.47966 | 61° | 18km/h | 22945m | 4.3m/s | -52.4°C | 0.7% | 37.4hPa | 2.5V | 00:00:00 | 00:00:00 | 00:00:00 | |
| DF2AP-13 | 2026-09-02 18:12:12 | 49.17677 | 8.47966 | 62° | 11km/h | 22945m | 4.2m/s | -52.4°C | 3.6% | 37.3hPa | 2.6V | 00:00:00 | 01:39:53 | 00:00:00 | |
| DL1XH1-15 | 2026-09-02 18:12:10 | 49.17658 | 8.47932 | 25° | 18km/h | 22911m | 3.8m/s | -52.3°C | 3.6% | 37.5hPa | 2.6V | 03:35:48 | 01:39:46 | 00:00:00 | |
| BIOWL1-15 | 2026-09-02 18:12:07 | 49.17666 | 8.47940 | 43° | 18km/h | 22920m | 5.6m/s | -52.4°C | 0% | 37.5hPa | 2.6V | 03:36:07 | 01:39:48 | 00:00:00 | |
| DK7TD | 2026-09-02 18:12:06 | 49.17662 | 8.47935 | 33° | 18km/h | 22915m | 4.4m/s | -52.3°C | 0% | 37.5hPa | 2.6V | 03:36:07 | 01:39:47 | 00:00:00 | |
| DL1XH-west | 2026-09-02 18:12:02 | 49.17648 | 8.47927 | 6° | 11km/h | 22896m | 4.5m/s | -52.4°C | 0% | 37.7hPa | 2.6V | 03:36:07 | 01:39:43 | 00:00:00 | |
| DM0DOS-11 | 2026-09-02 18:12:01 | 49.17631 | 8.47916 | 35° | 9km/h | 22866m | 5.6m/s | -52.2°C | 3.6% | 37.8hPa | 2.6V | 03:35:57 | 01:39:37 | 00:00:00 | |
| DK7TD | 2026-09-02 18:11:56 | 49.17631 | 8.47916 | 35° | 9km/h | 22866m | 5.6m/s | -52.2°C | 0% | 37.8hPa | 2.6V | 03:36:07 | 01:39:37 | 00:00:00 | |
| DO1YAY-16 | 2026-09-02 18:11:53 | 49.17626 | 8.47909 | 47° | 9km/h | 22851m | 5.7m/s | -52.2°C | 0.8% | 37.9hPa | 2.6V | 00:00:00 | 00:00:00 | 00:00:00 | |
| DM0DOS-11 | 2026-09-02 18:11:51 | 49.17618 | 8.47897 | 22° | 2km/h | 22816m | 5.6m/s | -52°C | 3.5% | 38.1hPa | 2.6V | 03:36:07 | 01:39:27 | 00:00:00 | |
| DL1XH-west | 2026-09-02 18:11:51 | 49.17622 | 8.47903 | 47° | 11km/h | 22841m | 4m/s | -52.2°C | 0% | 38hPa | 2.6V | 03:36:07 | 01:39:32 | 00:00:00 | |
| DL1XH1-15 | 2026-09-02 18:11:50 | 49.17617 | 8.47896 | 52° | 4km/h | 22810m | 5.3m/s | -52°C | 3.5% | 38.1hPa | 2.5V | 03:36:08 | 01:39:26 | 00:00:00 | |
| DK7TD | 2026-09-02 18:11:45 | 49.17617 | 8.47896 | 53° | 4km/h | 22810m | 5.3m/s | -52°C | 0% | 38.1hPa | 2.5V | 03:39:31 | 01:39:26 | 00:00:00 | |
| DB0UT-7 | 2026-09-02 18:11:45 | 49.17617 | 8.47896 | 53° | 5km/h | 22811m | 5.2m/s | -52.0°C | 3.5% | 38.1hPa | 2.5V | 00:00:00 | 01:39:26 | 00:00:00 | |
| DL0LBS | 2026-09-02 18:11:43 | 49.17617 | 8.47895 | 64° | 5km/h | 22806m | 4.0m/s | -52.1°C | 0.8% | 38.2hPa | 2.5V | 03:36:00 | 00:00:00 | 00:00:00 | |
| BIOWL7-15 | 2026-09-02 18:11:42 | 49.17616 | 8.47892 | 74° | 2km/h | 22797m | 5.6m/s | -52.1°C | 0.7% | 38.2hPa | 2.5V | 03:36:00 | 00:00:00 | 00:00:00 | |
| DH7VM-15 | 2026-09-02 18:11:41 | 49.17616 | 8.47892 | 74° | 2km/h | 22797m | 5.6m/s | -52.1°C | 0.7% | 38.2hPa | 2.5V | 00:00:00 | 00:00:00 | 00:00:00 | |
| DM0DOS-11 | 2026-09-02 18:11:41 | 49.17611 | 8.47889 | 359° | 4km/h | 22769m | 4.3m/s | -52.2°C | 3.6% | 38.4hPa | 2.6V | 03:36:17 | 01:39:17 | 00:00:00 | |
| DL1XH1-15 | 2026-09-02 18:11:40 | 49.17610 | 8.47890 | 288° | 4km/h | 22764m | 5.7m/s | -52.2°C | 3.6% | 38.4hPa | 2.5V | 03:36:18 | 01:39:16 | 00:00:00 | |
| DL1XH-west | 2026-09-02 18:11:40 | 49.17615 | 8.47891 | 14° | 2km/h | 22787m | 3.8m/s | -52.1°C | 0% | 38.3hPa | 2.5V | 03:36:58 | 01:39:21 | 00:00:00 | |
| BIOWL1-15 | 2026-09-02 18:11:36 | 49.17610 | 8.47891 | 240° | 5km/h | 22759m | 4.8m/s | -52.3°C | 0% | 38.5hPa | 2.6V | 03:36:58 | 01:39:15 | 00:00:00 | |
| DK7TD | 2026-09-02 18:11:33 | 49.17611 | 8.47893 | 223° | 7km/h | 22754m | 4.5m/s | -52.3°C | 0% | 38.5hPa | 2.6V | 03:39:31 | 01:39:14 | 00:00:00 | |
| DJTTGO | 2026-09-02 18:11:32 | 49.17611 | 8.47893 | 224° | 7km/h | 22754m | 4.5m/s | -52.3°C | 0.8% | 38.5hPa | 2.6V | 03:36:00 | 00:00:00 | 00:00:00 | |
| DL1XH1-15 | 2026-09-02 18:11:30 | 49.17630 | 8.47896 | 145° | 11km/h | 22717m | 5.2m/s | -52.3°C | 3.6% | 38.7hPa | 2.6V | 03:36:28 | 01:39:06 | 00:00:00 | |
| DL1XH-west | 2026-09-02 18:11:29 | 49.17618 | 8.47896 | 188° | 11km/h | 22735m | 4.4m/s | -52.3°C | 0% | 38.6hPa | 2.5V | 03:36:58 | 01:39:10 | 00:00:00 | |
| BIOWL1-15 | 2026-09-02 18:11:23 | 49.17632 | 8.47889 | 97° | 11km/h | 22706m | 4.7m/s | -52.3°C | 0% | 38.8hPa | 2.6V | 03:36:58 | 01:39:04 | 00:00:00 | |
| DK7TD | 2026-09-02 18:11:22 | 49.17632 | 8.47885 | 86° | 9km/h | 22702m | 4.5m/s | -52.4°C | 0% | 38.8hPa | 2.5V | 03:39:31 | 01:39:03 | 00:00:00 | |
| DM0DOS-11 | 2026-09-02 18:11:21 | 49.17634 | 8.47882 | 214° | 7km/h | 22673m | 3.8m/s | -52.4°C | 3.6% | 38.9hPa | 2.6V | 03:36:37 | 01:38:57 | 00:00:00 | |
| DL1XH-west | 2026-09-02 18:11:18 | 49.17632 | 8.47879 | 229° | 2km/h | 22682m | 4.9m/s | -52.4°C | 0% | 38.9hPa | 2.6V | 03:36:58 | 01:38:59 | 00:00:00 | |
| BIOWL1-15 | 2026-09-02 18:11:15 | 49.17643 | 8.47887 | 189° | 18km/h | 22659m | 4.4m/s | -52.4°C | 0% | 39.1hPa | 2.6V | 03:36:58 | 01:38:54 | 00:00:00 | |
| DB0UT-7 | 2026-09-02 18:11:15 | 49.17636 | 8.47883 | 205° | 15km/h | 22669m | 4.5m/s | -52.3°C | 3.6% | 38.9hPa | 2.6V | 00:00:00 | 00:00:00 | 00:00:00 | |
| NBG1-10 | 2026-09-02 18:11:13 | 49.17643 | 8.47886 | 190° | 15km/h | 22659m | 4.3m/s | -52.3°C | 3.6% | 39.0hPa | 2.6V | 00:00:00 | 01:38:54 | 00:00:00 | |
| DF2AP-13 | 2026-09-02 18:11:12 | 49.17648 | 8.47887 | 179° | 15km/h | 22655m | 3.7m/s | -52.3°C | 3.6% | 39.0hPa | 2.6V | 03:36:00 | 01:38:53 | 00:00:00 | |
| DM0DOS-11 | 2026-09-02 18:11:11 | 49.17662 | 8.47867 | 106° | 7km/h | 22626m | 4.8m/s | -52.3°C | 3.6% | 39.2hPa | 2.6V | 03:36:47 | 01:38:47 | 00:00:00 | |
| DK7TD | 2026-09-02 18:11:11 | 49.17653 | 8.47886 | 163° | 18km/h | 22650m | 5m/s | -52.4°C | 0% | 39.1hPa | 2.6V | 03:39:31 | 01:38:52 | 00:00:00 | |
| DL1ZP-14 | 2026-09-02 18:11:11 | 49.17657 | 8.47883 | 141° | 15km/h | 22645m | 5.0m/s | -52.4°C | 0.8% | 39.1hPa | 2.6V | 00:00:00 | 00:00:00 | 00:00:00 | |
| DL1XH1-15 | 2026-09-02 18:11:10 | 49.17663 | 8.47864 | 123° | 7km/h | 22622m | 4.2m/s | -52.3°C | 3.6% | 39.3hPa | 2.7V | 03:36:48 | 01:38:46 | 00:00:00 | |
| DL1XH-west | 2026-09-02 18:11:07 | 49.17661 | 8.47870 | 103° | 11km/h | 22631m | 5.1m/s | -52.3°C | 0% | 39.2hPa | 2.6V | 03:36:58 | 01:38:48 | 00:00:00 | |
| BIOWL1-15 | 2026-09-02 18:11:03 | 49.17666 | 8.47858 | 137° | 13km/h | 22613m | 4.9m/s | -52.4°C | 0% | 39.3hPa | 2.6V | 03:36:58 | 01:38:44 | 00:00:00 | |
| DL0LBS | 2026-09-02 18:11:03 | 49.17664 | 8.47861 | 137° | 9km/h | 22618m | 3.9m/s | -52.3°C | 0.8% | 39.3hPa | 2.6V | 03:36:00 | 00:00:00 | 00:00:00 | |
| BIOWL9-15 | 2026-09-02 18:11:02 | 49.17669 | 8.47855 | 135° | 15km/h | 22609m | 4.9m/s | -52.4°C | 0.7% | 39.4hPa | 2.6V | 00:00:00 | 00:00:00 | 00:00:00 | |
| DL1XH1-15 | 2026-09-02 18:11:00 | 49.17686 | 8.47830 | 123° | 11km/h | 22577m | 5.3m/s | -52.4°C | 3.6% | 39.5hPa | 2.6V | 03:36:58 | 01:38:36 | 00:00:00 | |
| DK7TD | 2026-09-02 18:11:00 | 49.17675 | 8.47845 | 133° | 16km/h | 22599m | 3.3m/s | -52.4°C | 0% | 39.4hPa | 2.7V | 03:39:31 | 01:38:41 | 00:00:00 | |
| DL1XH-west | 2026-09-02 18:10:56 | 49.17684 | 8.47833 | 137° | 9km/h | 22582m | 4.3m/s | -52.4°C | 0% | 39.5hPa | 2.5V | 03:36:58 | 01:38:37 | 00:00:00 | |
| BIOWL1-15 | 2026-09-02 18:10:52 | 49.17690 | 8.47813 | 104° | 16km/h | 22563m | 4.6m/s | -52.4°C | 0% | 39.6hPa | 2.6V | 03:37:49 | 01:38:33 | 00:00:00 | |
| DM0DOS-11 | 2026-09-02 18:10:51 | 49.17692 | 8.47772 | 92° | 20km/h | 22534m | 4m/s | -52.4°C | 3.5% | 39.8hPa | 2.6V | 03:37:07 | 01:38:27 | 00:00:00 | |
| DK7TD | 2026-09-02 18:10:46 | 49.17692 | 8.47772 | 92° | 20km/h | 22535m | 4m/s | -52.4°C | 0% | 39.8hPa | 2.6V | 03:39:31 | 01:38:27 | 00:00:00 | |
| DL1XH-west | 2026-09-02 18:10:45 | 49.17692 | 8.47765 | 96° | 16km/h | 22530m | 4.6m/s | -52.5°C | 0% | 39.8hPa | 2.5V | 03:37:49 | 01:38:26 | 00:00:00 | |
| BIOWL1-15 | 2026-09-02 18:10:43 | 49.17694 | 8.47749 | 104° | 11km/h | 22511m | 5.2m/s | -52.6°C | 0% | 39.9hPa | 2.6V | 03:37:49 | 01:38:22 | 00:00:00 | |
| DF2AP-13 | 2026-09-02 18:10:42 | 49.17693 | 8.47753 | 108° | 20km/h | 22516m | 4.0m/s | -52.5°C | 3.6% | 39.9hPa | 2.6V | 00:00:00 | 01:38:23 | 00:00:00 | |
| DM0DOS-11 | 2026-09-02 18:10:41 | 49.17691 | 8.47722 | 68° | 16km/h | 22488m | 4.5m/s | -52.8°C | 3.6% | 40.1hPa | 2.6V | 03:37:17 | 01:38:17 | 00:00:00 | |
| DL1XH-west | 2026-09-02 18:10:35 | 49.17690 | 8.47715 | 76° | 18km/h | 22483m | 4.6m/s | -52.9°C | 0% | 40.1hPa | 2.6V | 03:37:49 | 01:38:16 | 00:00:00 | |
| DB0UT-9 | 2026-09-02 18:10:34 | 49.17690 | 8.47715 | 76° | 18km/h | 22484m | 4.6m/s | -52.9°C | 0.8% | 40.1hPa | 2.6V | 03:37:00 | 00:00:00 | 00:00:00 | |
| DL1XH1-15 | 2026-09-02 18:10:31 | 49.17691 | 8.47657 | 92° | 20km/h | 22442m | 4.9m/s | -53.3°C | 3.8% | 40.4hPa | 2.6V | 03:37:27 | 01:38:07 | 00:00:00 | |
| BIOWL1-15 | 2026-09-02 18:10:30 | 49.17690 | 8.47679 | 97° | 13km/h | 22459m | 4.4m/s | -53.1°C | 0% | 40.3hPa | 2.7V | 03:37:49 | 01:38:11 | 00:00:00 | |
| DL1XH-west | 2026-09-02 18:10:24 | 49.17691 | 8.47640 | 87° | 24km/h | 22432m | 4.7m/s | -53.3°C | 0% | 40.4hPa | 2.7V | 03:37:49 | 01:38:05 | 00:00:00 | |
| BIOWL1-15 | 2026-09-02 18:10:23 | 49.17682 | 8.47598 | 57° | 27km/h | 22407m | 5.7m/s | -53.1°C | 0% | 40.6hPa | 2.7V | 03:37:49 | 01:38:00 | 00:00:00 | |
| DL0LBS | 2026-09-02 18:10:23 | 49.17690 | 8.47631 | 86° | 22km/h | 22427m | 5.4m/s | -53.2°C | 0.9% | 40.4hPa | 2.6V | 03:37:00 | 00:00:00 | 00:00:00 | |
| DN1GJH-1 | 2026-09-02 18:10:22 | 49.17690 | 8.47631 | 86° | 22km/h | 22427m | 5.4m/s | -53.2°C | 0.9% | 40.4hPa | 2.6V | 03:37:00 | 00:00:00 | 00:00:00 | |
| DL1XH1-15 | 2026-09-02 18:10:21 | 49.17670 | 8.47573 | 55° | 24km/h | 22393m | 5.4m/s | -53.1°C | 3.8% | 40.6hPa | 2.6V | 03:37:37 | 01:37:57 | 00:00:00 | |
| DL1XH-west | 2026-09-02 18:10:13 | 49.17662 | 8.47549 | 67° | 24km/h | 22379m | 5.6m/s | -53°C | 0% | 40.8hPa | 2.5V | 03:37:49 | 01:37:54 | 00:00:00 | |
| DF2AP-13 | 2026-09-02 18:10:12 | 49.17660 | 8.47540 | 72° | 16km/h | 22374m | 4.7m/s | -52.9°C | 3.8% | 40.7hPa | 2.7V | 00:00:00 | 01:37:53 | 00:00:00 | |
| DL8DAS-15 | 2026-09-02 18:10:11 | 49.17660 | 8.47540 | 73° | 26km/h | 22374m | 4.7m/s | -52.9°C | 0.8% | 40.8hPa | 2.7V | 03:37:00 | 00:00:00 | 00:00:00 | |
| DL1XH1-15 | 2026-09-02 18:10:10 | 49.17653 | 8.47490 | 64° | 22km/h | 22341m | 4.8m/s | -52.7°C | 3.7% | 41hPa | 2.7V | 03:37:48 | 01:37:46 | 00:00:00 | |
| BIOWL1-15 | 2026-09-02 18:10:09 | 49.17656 | 8.47516 | 86° | 18km/h | 22359m | 4.8m/s | -52.9°C | 0% | 40.9hPa | 2.6V | 03:37:49 | 01:37:50 | 00:00:00 | |
| DL1ZP-14 | 2026-09-02 18:10:08 | 49.17656 | 8.47509 | 86° | 15km/h | 22355m | 3.6m/s | -52.8°C | 0.8% | 40.9hPa | 2.5V | 00:00:00 | 00:00:00 | 00:00:00 | |
| NBG1-10 | 2026-09-02 18:10:07 | 49.17655 | 8.47503 | 79° | 16km/h | 22351m | 3.8m/s | -52.8°C | 3.7% | 40.9hPa | 2.6V | 00:00:00 | 01:37:48 | 00:00:00 | |
| DO3MHA-11 | 2026-09-02 18:10:06 | 49.17654 | 8.47497 | 71° | 18km/h | 22346m | 5.2m/s | -52.7°C | 3.7% | 40.9hPa | 2.6V | 03:37:00 | 01:37:47 | 00:00:00 | |
| IW2NTF | 2026-09-02 18:10:05 | 49.17639 | 8.47457 | 56° | 15km/h | 22317m | 4.3m/s | 0°C | 0% | 0hPa | 2.6V | 00:00:00 | 01:37:41 | 00:00:00 | |
| DL1XH-west | 2026-09-02 18:10:02 | 49.17644 | 8.47468 | 56° | 20km/h | 22327m | 5.4m/s | -52.6°C | 0% | 41.1hPa | 2.5V | 03:38:40 | 01:37:43 | 00:00:00 | |
| DL0LBS | 2026-09-02 18:10:02 | 49.17644 | 8.47468 | 57° | 20km/h | 22328m | 5.4m/s | -52.6°C | 0.8% | 41.1hPa | 2.5V | 03:38:00 | 00:00:00 | 00:00:00 | |
| DN1GJH-1 | 2026-09-02 18:10:01 | 49.17644 | 8.47468 | 57° | 20km/h | 22328m | 5.4m/s | -52.6°C | 0.8% | 41.1hPa | 2.5V | 03:38:00 | 00:00:00 | 00:00:00 | |
| DL1XH1-15 | 2026-09-02 18:10:00 | 49.17633 | 8.47428 | 96° | 15km/h | 22294m | 5.7m/s | -52.6°C | 3.7% | 41.3hPa | 2.5V | 03:37:58 | 01:37:36 | 00:00:00 | |
| BIOWL1-15 | 2026-09-02 18:09:58 | 49.17635 | 8.47446 | 65° | 16km/h | 22308m | 5.1m/s | -52.6°C | 0% | 41.2hPa | 2.7V | 03:38:40 | 01:37:39 | 00:00:00 | |
| DJ2DS-15 | 2026-09-02 18:09:58 | 49.17635 | 8.47446 | 65° | 13km/h | 22308m | 5.0m/s | -52.6°C | 3.7% | 41.2hPa | 2.7V | 03:37:00 | 01:37:39 | 00:00:00 | |
| DO8TBO-1 | 2026-09-02 18:09:57 | 49.17634 | 8.47440 | 74° | 13km/h | 22303m | 4.0m/s | -52.6°C | 3.7% | 41.2hPa | 2.7V | 03:37:00 | 01:37:38 | 00:00:00 | |
| DO3MHA-11 | 2026-09-02 18:09:56 | 49.17633 | 8.47434 | 84° | 15km/h | 22299m | 4.2m/s | -52.6°C | 3.7% | 41.2hPa | 2.7V | 00:00:00 | 01:37:37 | 00:00:00 | |
| IW2NTF | 2026-09-02 18:09:55 | 49.17635 | 8.47403 | 72° | 16km/h | 22269m | 4.6m/s | 0°C | 0% | 0hPa | 2.7V | 00:00:00 | 01:37:31 | 00:00:00 | |
| DD1CC8 | 2026-09-02 18:09:53 | 49.17635 | 8.47419 | 111° | 11km/h | 22284m | 4.4m/s | -52.6°C | 0.8% | 41.4hPa | 2.6V | 00:00:00 | 00:00:00 | 00:00:00 | |
| DB0ND-19 | 2026-09-02 18:09:52 | 49.17636 | 8.47414 | 101° | 13km/h | 22279m | 4.6m/s | -52.6°C | 0.8% | 41.4hPa | 2.6V | 00:00:00 | 00:00:00 | 00:00:00 | |
| DM0DOS-11 | 2026-09-02 18:09:51 | 49.17628 | 8.47382 | 60° | 11km/h | 22249m | 4.5m/s | -52.6°C | 3.6% | 41.6hPa | 2.6V | 03:38:07 | 01:37:27 | 00:00:00 | |
| DL1XH-west | 2026-09-02 18:09:51 | 49.17636 | 8.47409 | 87° | 15km/h | 22274m | 5.4m/s | -52.6°C | 0% | 41.4hPa | 2.7V | 03:38:40 | 01:37:32 | 00:00:00 | |
| DK7TD | 2026-09-02 18:09:49 | 49.17633 | 8.47397 | 63° | 16km/h | 22264m | 4.4m/s | -52.6°C | 0% | 41.5hPa | 2.6V | 03:39:31 | 01:37:30 | 00:00:00 | |
| BIOWL1-15 | 2026-09-02 18:09:48 | 49.17631 | 8.47391 | 59° | 16km/h | 22260m | 4.9m/s | -52.6°C | 0% | 41.5hPa | 2.5V | 03:38:40 | 01:37:29 | 00:00:00 | |
| DB0NH | 2026-09-02 18:09:48 | 49.17631 | 8.47391 | 59° | 13km/h | 22260m | 4.9m/s | -52.5°C | 3.6% | 41.5hPa | 2.6V | 00:00:00 | 01:37:29 | 00:00:00 | |
| DO3MHA-11 | 2026-09-02 18:09:46 | 49.17628 | 8.47382 | 61° | 11km/h | 22249m | 4.5m/s | -52.5°C | 3.6% | 41.5hPa | 2.6V | 00:00:00 | 01:37:27 | 00:00:00 | |
| DJ2KF-10 | 2026-09-02 18:09:45 | 49.17627 | 8.47379 | 64° | 13km/h | 22245m | 4.7m/s | -52.5°C | 3.6% | 41.6hPa | 2.6V | 03:38:00 | 01:37:26 | 00:00:00 | |
| DL8DAS-15 | 2026-09-02 18:09:44 | 49.17627 | 8.47379 | 64° | 11km/h | 22245m | 4.7m/s | -52.6°C | 0.8% | 41.6hPa | 2.6V | 03:38:00 | 00:00:00 | 00:00:00 | |
| DF1GD-15 | 2026-09-02 18:09:43 | 49.17625 | 8.47375 | 70° | 11km/h | 22240m | 5.7m/s | -52.6°C | 0.8% | 41.7hPa | 2.6V | 03:38:00 | 00:00:00 | 00:00:00 | |
| DF2AP-13 | 2026-09-02 18:09:42 | 49.17625 | 8.47367 | 96° | 13km/h | 22230m | 4.2m/s | -52.7°C | 3.7% | 41.7hPa | 2.6V | 00:00:00 | 01:37:23 | 00:00:00 | |
| DM0DOS-11 | 2026-09-02 18:09:41 | 49.17622 | 8.47344 | 55° | 20km/h | 22203m | 4.5m/s | -52.9°C | 3.7% | 41.9hPa | 2.7V | 03:38:17 | 01:37:17 | 00:00:00 | |
| DL1XH-west | 2026-09-02 18:09:41 | 49.17625 | 8.47364 | 111° | 9km/h | 22225m | 5.6m/s | -52.8°C | 0% | 41.8hPa | 2.6V | 03:38:40 | 01:37:22 | 00:00:00 | |
| DL1XH1-15 | 2026-09-02 18:09:40 | 49.17619 | 8.47338 | 53° | 20km/h | 22198m | 4.2m/s | -52.9°C | 3.7% | 41.9hPa | 2.6V | 03:38:18 | 01:37:16 | 00:00:00 | |
| BIOWL1-15 | 2026-09-02 18:09:37 | 49.17624 | 8.47350 | 61° | 16km/h | 22208m | 5.1m/s | -52.9°C | 0% | 41.9hPa | 2.6V | 03:38:40 | 01:37:18 | 00:00:00 | |
| DO3MHA-11 | 2026-09-02 18:09:36 | 49.17622 | 8.47344 | 56° | 15km/h | 22203m | 4.4m/s | -52.9°C | 3.7% | 41.8hPa | 2.6V | 00:00:00 | 01:37:17 | 00:00:00 | |
| CB1BUN | 2026-09-02 18:09:35 | 49.17622 | 8.47344 | 56° | 20km/h | 22203m | 4.5m/s | -52.9°C | 0.8% | 41.9hPa | 2.6V | 03:38:00 | 00:00:00 | 00:00:00 | |
| NBG1-10 | 2026-09-02 18:09:34 | 49.17616 | 8.47332 | 53° | 11km/h | 22194m | 5.1m/s | -52.8°C | 3.8% | 41.9hPa | 2.6V | 03:38:00 | 01:37:15 | 00:00:00 | |
| IW2NTF | 2026-09-02 18:09:33 | 49.17601 | 8.47314 | 17° | 13km/h | 22164m | 4.7m/s | 0°C | 0% | 0hPa | 2.6V | 00:00:00 | 01:37:09 | 00:00:00 | |
| DB0UT-9 | 2026-09-02 18:09:33 | 49.17616 | 8.47332 | 53° | 18km/h | 22194m | 5.2m/s | -52.9°C | 0.9% | 42.0hPa | 2.7V | 03:38:00 | 00:00:00 | 00:00:00 | |
| BIOWL7-15 | 2026-09-02 18:09:32 | 49.17614 | 8.47327 | 51° | 15km/h | 22189m | 5.1m/s | -52.8°C | 0.8% | 42.0hPa | 2.7V | 00:00:00 | 00:00:00 | 00:00:00 | |
| DM0DOS-11 | 2026-09-02 18:09:31 | 49.17595 | 8.47312 | 11° | 9km/h | 22153m | 5.4m/s | -52.6°C | 3.7% | 42.2hPa | 2.7V | 03:38:27 | 01:37:07 | 00:00:00 | |
| DL1XH1-15 | 2026-09-02 18:09:30 | 49.17593 | 8.47311 | 10° | 9km/h | 22148m | 4.1m/s | -52.6°C | 3.7% | 42.2hPa | 2.6V | 03:38:28 | 01:37:06 | 00:00:00 | |
| DL1XH-west | 2026-09-02 18:09:30 | 49.17606 | 8.47318 | 27° | 11km/h | 22174m | 5.4m/s | -52.8°C | 0.1% | 42.1hPa | 2.6V | 03:38:40 | 01:37:11 | 00:00:00 | |
| BIOWL1-15 | 2026-09-02 18:09:27 | 49.17598 | 8.47313 | 17° | 11km/h | 22159m | 5.4m/s | -52.7°C | 0% | 42.2hPa | 2.6V | 03:38:40 | 01:37:08 | 00:00:00 | |
| DK7TD | 2026-09-02 18:09:25 | 49.17593 | 8.47311 | 10° | 9km/h | 22149m | 4.1m/s | -52.6°C | 0% | 42.2hPa | 2.6V | 03:39:31 | 01:37:06 | 00:00:00 | |
| DK5PH-5 | 2026-09-02 18:09:24 | 49.17590 | 8.47310 | 14° | 11km/h | 22144m | 4.4m/s | -52.5°C | 3.7% | 42.2hPa | 2.5V | 00:00:00 | 01:37:05 | 00:00:00 | |
| DD1CC8 | 2026-09-02 18:09:22 | 49.17583 | 8.47308 | 13° | 16km/h | 22134m | 4.5m/s | -52.5°C | 0.8% | 42.3hPa | 2.5V | 00:00:00 | 00:00:00 | 00:00:00 | |
| DM0DOS-11 | 2026-09-02 18:09:21 | 49.17565 | 8.47308 | 351° | 9km/h | 22105m | 5.5m/s | -52.3°C | 3.6% | 42.5hPa | 2.5V | 03:38:37 | 01:36:57 | 00:00:00 | |
| DL1XH1-15 | 2026-09-02 18:09:20 | 49.17562 | 8.47308 | 1° | 9km/h | 22100m | 4.4m/s | -52.3°C | 3.5% | 42.6hPa | 2.6V | 03:38:38 | 01:36:56 | 00:00:00 | |
| DL1XH-west | 2026-09-02 18:09:19 | 49.17572 | 8.47306 | 353° | 11km/h | 22119m | 5.2m/s | -52.4°C | 0% | 42.4hPa | 2.7V | 03:38:40 | 01:37:00 | 00:00:00 | |
| BIOWL1-15 | 2026-09-02 18:09:16 | 49.17565 | 8.47308 | 351° | 9km/h | 22105m | 5.5m/s | -52.3°C | 0% | 42.5hPa | 2.5V | 03:38:40 | 01:36:57 | 00:00:00 | |
| DO3MHA-11 | 2026-09-02 18:09:16 | 49.17565 | 8.47308 | 352° | 9km/h | 22105m | 5.5m/s | -52.3°C | 3.6% | 42.5hPa | 2.5V | 00:00:00 | 01:36:57 | 00:00:00 | |
| DJ2KF-10 | 2026-09-02 18:09:15 | 49.17562 | 8.47308 | 2° | 9km/h | 22100m | 4.3m/s | -52.2°C | 3.5% | 42.5hPa | 2.6V | 00:00:00 | 01:36:56 | 00:00:00 | |
| DJ2DS-15 | 2026-09-02 18:09:14 | 49.17560 | 8.47308 | 1° | 7km/h | 22095m | 4.2m/s | -52.2°C | 0.7% | 42.6hPa | 2.5V | 00:00:00 | 00:00:00 | 00:00:00 | |
| DB0UT-9 | 2026-09-02 18:09:13 | 49.17560 | 8.47308 | 3° | 7km/h | 22096m | 4.2m/s | -52.2°C | 0.8% | 42.6hPa | 2.5V | 03:38:00 | 00:00:00 | 00:00:00 | |
| DF2AP-13 | 2026-09-02 18:09:12 | 49.17558 | 8.47309 | 334° | 9km/h | 22085m | 5.3m/s | -52.2°C | 3.5% | 42.6hPa | 2.5V | 03:38:00 | 01:36:53 | 00:00:00 | |
| DM0DOS-11 | 2026-09-02 18:09:11 | 49.17542 | 8.47313 | 339° | 15km/h | 22056m | 5.8m/s | -52.1°C | 3.6% | 42.8hPa | 2.5V | 03:38:47 | 01:36:47 | 00:00:00 | |
| DL1XH1-15 | 2026-09-02 18:09:10 | 49.17539 | 8.47315 | 323° | 15km/h | 22050m | 5.2m/s | -52.1°C | 3.6% | 42.9hPa | 2.6V | 03:38:48 | 01:36:46 | 00:00:00 | |
| DL1XH-west | 2026-09-02 18:09:09 | 49.17553 | 8.47310 | 359° | 11km/h | 22070m | 5.3m/s | -52.1°C | 0% | 42.8hPa | 2.6V | 03:39:31 | 01:36:50 | 00:00:00 | |
| BIOWL1-15 | 2026-09-02 18:09:08 | 49.17542 | 8.47313 | 339° | 15km/h | 22056m | 5.8m/s | -52.1°C | 0% | 42.8hPa | 2.5V | 03:39:31 | 01:36:47 | 00:00:00 | |
| DO3MHA-11 | 2026-09-02 18:09:06 | 49.17542 | 8.47313 | 340° | 11km/h | 22056m | 5.7m/s | -52.0°C | 3.6% | 42.8hPa | 2.7V | 00:00:00 | 01:36:47 | 00:00:00 | |
| AU51GT2 | 2026-09-02 18:09:04 | 49.17536 | 8.47319 | 314° | 13km/h | 22045m | 4.4m/s | -52.1°C | 0.8% | 42.9hPa | 2.7V | 00:00:00 | 00:00:00 | 00:00:00 | |
| HARRO8 | 2026-09-02 18:09:03 | 49.17532 | 8.47326 | 316° | 11km/h | 22035m | 5.8m/s | -52.2°C | 0.7% | 43.0hPa | 2.7V | 00:00:00 | 00:00:00 | 00:00:00 | |
| DM0DOS-11 | 2026-09-02 18:09:01 | 49.17527 | 8.47342 | 264° | 4km/h | 22005m | 4.4m/s | -52.2°C | 3.5% | 43.1hPa | 2.7V | 03:38:57 | 01:36:37 | 00:00:00 | |
| NBG1-10 | 2026-09-02 18:09:01 | 49.17530 | 8.47329 | 320° | 9km/h | 22030m | 4.5m/s | -52.1°C | 3.5% | 43.0hPa | 2.7V | 00:00:00 | 01:36:42 | 00:00:00 | |
| DL1XH1-15 | 2026-09-02 18:09:00 | 49.17527 | 8.47343 | 316° | 2km/h | 22000m | 5.6m/s | -52.2°C | 3.5% | 43.2hPa | 2.7V | 03:38:58 | 01:36:36 | 00:00:00 | |
| DL1XH-west | 2026-09-02 18:08:59 | 49.17527 | 8.47333 | 291° | 7km/h | 22021m | 5.2m/s | -52.3°C | 0% | 43.1hPa | 2.6V | 03:39:31 | 01:36:40 | 00:00:00 | |
| BIOWL1-15 | 2026-09-02 18:08:55 | 49.17527 | 8.47343 | 316° | 2km/h | 22000m | 5.6m/s | -52.2°C | 0% | 43.2hPa | 2.7V | 03:39:31 | 01:36:36 | 00:00:00 | |
| DL6DJ-15 | 2026-09-02 18:08:55 | 49.17526 | 8.47343 | 20° | 4km/h | 21994m | 4.9m/s | -52.3°C | 0.8% | 43.2hPa | 2.6V | 00:00:00 | 00:00:00 | 00:00:00 | |
| DK5PH-5 | 2026-09-02 18:08:54 | 49.17526 | 8.47343 | 21° | 5km/h | 21994m | 4.8m/s | -52.2°C | 3.6% | 43.2hPa | 2.6V | 03:38:00 | 01:36:35 | 00:00:00 | |
| CB1BUN | 2026-09-02 18:08:53 | 49.17527 | 8.47343 | 21° | 5km/h | 21994m | 4.9m/s | -52.3°C | 0.8% | 43.2hPa | 2.6V | 03:39:00 | 00:00:00 | 00:00:00 | |
| DB0UT-9 | 2026-09-02 18:08:52 | 49.17525 | 8.47342 | 17° | 7km/h | 21990m | 4.0m/s | -52.2°C | 0.8% | 43.3hPa | 2.6V | 03:39:00 | 00:00:00 | 00:00:00 | |
| DM0DOS-11 | 2026-09-02 18:08:51 | 49.17515 | 8.47356 | 323° | 7km/h | 21954m | 4.7m/s | -52.3°C | 3.6% | 43.5hPa | 2.6V | 03:39:07 | 01:36:27 | 00:00:00 | |
| DB0ND-19 | 2026-09-02 18:08:51 | 49.17520 | 8.47345 | 308° | 7km/h | 21974m | 5.0m/s | -52.2°C | 0.8% | 43.3hPa | 2.7V | 00:00:00 | 00:00:00 | 00:00:00 | |
| DL1XH1-15 | 2026-09-02 18:08:50 | 49.17514 | 8.47357 | 323° | 4km/h | 21949m | 4.2m/s | -52.3°C | 3.6% | 43.5hPa | 2.7V | 03:39:08 | 01:36:26 | 00:00:00 | |
| DL1XH-west | 2026-09-02 18:08:48 | 49.17518 | 8.47351 | 301° | 11km/h | 21964m | 4.6m/s | -52.2°C | 0% | 43.4hPa | 2.6V | 03:39:31 | 01:36:29 | 00:00:00 | |
| DO1YAY-16 | 2026-09-02 18:08:47 | 49.17515 | 8.47356 | 323° | 5km/h | 21954m | 4.7m/s | -52.3°C | 0.8% | 43.5hPa | 2.6V | 00:00:00 | 00:00:00 | 00:00:00 | |
| BIOWL1-15 | 2026-09-02 18:08:44 | 49.17514 | 8.47358 | 187° | 2km/h | 21944m | 5.4m/s | -52.4°C | 0% | 43.6hPa | 2.6V | 03:39:31 | 01:36:25 | 00:00:00 | |
| DF2AP-13 | 2026-09-02 18:08:42 | 49.17517 | 8.47357 | 165° | 5km/h | 21933m | 4.3m/s | -52.4°C | 3.6% | 43.6hPa | 2.5V | 00:00:00 | 01:36:23 | 00:00:00 | |
| DM0DOS-11 | 2026-09-02 18:08:41 | 49.17518 | 8.47351 | 320° | 4km/h | 21912m | 5m/s | -52.5°C | 3.7% | 43.8hPa | 2.5V | 03:39:17 | 01:36:17 | 00:00:00 | |
| DL1XH1-15 | 2026-09-02 18:08:40 | 49.17517 | 8.47351 | 320° | 4km/h | 21907m | 4m/s | -52.5°C | 3.7% | 43.9hPa | 2.6V | 03:39:18 | 01:36:16 | 00:00:00 | |
| DL1XH-west | 2026-09-02 18:08:38 | 49.17519 | 8.47350 | 35° | 4km/h | 21922m | 4.6m/s | -52.5°C | 0% | 43.8hPa | 2.6V | 03:39:31 | 01:36:19 | 00:00:00 | |
| BIOWL1-15 | 2026-09-02 18:08:33 | 49.17515 | 8.47353 | 357° | 4km/h | 21897m | 5.3m/s | -52.5°C | 0% | 43.9hPa | 2.7V | 03:39:31 | 01:36:14 | 00:00:00 | |
| DF7PN | 2026-09-02 18:08:32 | 49.17515 | 8.47352 | 32° | 2km/h | 21893m | 4.2m/s | -52.4°C | 0.8% | 44.0hPa | 2.5V | 00:00:00 | 00:00:00 | 00:00:00 | |
| DB0UT-9 | 2026-09-02 18:08:31 | 49.17514 | 8.47352 | 33° | 2km/h | 21893m | 4.2m/s | -52.4°C | 0.8% | 44.0hPa | 2.5V | 03:39:00 | 00:00:00 | 00:00:00 | |
| DL1XH1-15 | 2026-09-02 18:08:30 | 49.17524 | 8.47344 | 73° | 5km/h | 21859m | 4.3m/s | -52.3°C | 3.6% | 44.2hPa | 2.5V | 03:39:28 | 01:36:06 | 00:00:00 | |
| DL1XH-west | 2026-09-02 18:08:28 | 49.17520 | 8.47349 | 163° | 11km/h | 21873m | 4.3m/s | -52.3°C | 0% | 44.1hPa | 2.6V | 03:39:31 | 01:36:09 | 00:00:00 | |
| BIOWL1-15 | 2026-09-02 18:08:22 | 49.17521 | 8.47340 | 27° | 2km/h | 21845m | 5.3m/s | -52.3°C | 0% | 44.3hPa | 2.7V | 03:39:31 | 01:36:03 | 00:00:00 | |
| DM0DOS-11 | 2026-09-02 18:08:21 | 49.17518 | 8.47335 | 74° | 4km/h | 21815m | 4.7m/s | -52.3°C | 3.6% | 44.5hPa | 2.5V | 03:39:37 | 01:35:57 | 00:00:00 | |
| DL1XH-west | 2026-09-02 18:08:17 | 49.17518 | 8.47336 | 50° | 5km/h | 21820m | 4.4m/s | -52.3°C | 0% | 44.5hPa | 2.6V | 03:40:22 | 01:35:58 | 00:00:00 | |
| BIOWL1-15 | 2026-09-02 18:08:13 | 49.17518 | 8.47333 | 8° | 4km/h | 21790m | 4.7m/s | -52.5°C | 0% | 44.6hPa | 2.6V | 03:40:22 | 01:35:52 | 00:00:00 | |
| DF2AP-13 | 2026-09-02 18:08:12 | 49.17519 | 8.47333 | 360° | 11km/h | 21796m | 5.5m/s | -52.4°C | 3.5% | 44.6hPa | 2.6V | 00:00:00 | 01:35:53 | 00:00:00 | |
| DM0DOS-11 | 2026-09-02 18:08:11 | 49.17517 | 8.47326 | 105° | 9km/h | 21766m | 4.4m/s | -52.5°C | 3.7% | 44.8hPa | 2.6V | 03:39:47 | 01:35:47 | 00:00:00 | |
| DL1XH1-15 | 2026-09-02 18:08:09 | 49.17517 | 8.47319 | 83° | 11km/h | 21756m | 4.9m/s | -52.5°C | 3.7% | 44.9hPa | 2.6V | 03:39:49 | 01:35:45 | 00:00:00 | |
| DL1XH-west | 2026-09-02 18:08:06 | 49.17517 | 8.47326 | 106° | 9km/h | 21766m | 4.4m/s | -52.6°C | 0% | 44.8hPa | 2.6V | 03:40:22 | 01:35:47 | 00:00:00 | |
| BIOWL1-15 | 2026-09-02 18:08:00 | 49.17518 | 8.47303 | 110° | 9km/h | 21737m | 4.8m/s | -52.6°C | 0% | 45hPa | 2.7V | 03:40:22 | 01:35:41 | 00:00:00 | |
| DL1XH1-15 | 2026-09-02 18:07:59 | 49.17513 | 8.47280 | 73° | 15km/h | 21708m | 5.2m/s | -52.8°C | 3.6% | 45.2hPa | 2.7V | 03:39:59 | 01:35:35 | 00:00:00 | |
| DL1XH-west | 2026-09-02 18:07:56 | 49.17516 | 8.47289 | 57° | 13km/h | 21717m | 3.9m/s | -52.8°C | 0% | 45.2hPa | 2.6V | 03:40:22 | 01:35:37 | 00:00:00 | |
| DK7TD | 2026-09-02 18:07:54 | 49.17513 | 8.47280 | 73° | 15km/h | 21708m | 5.2m/s | -52.8°C | 0% | 45.2hPa | 2.7V | 03:40:22 | 01:35:35 | 00:00:00 | |
| BIOWL1-15 | 2026-09-02 18:07:50 | 49.17511 | 8.47255 | 81° | 18km/h | 21688m | 5.4m/s | -52.8°C | 0% | 45.4hPa | 2.6V | 03:40:22 | 01:35:31 | 00:00:00 | |
| DL1XH-west | 2026-09-02 18:07:45 | 49.17510 | 8.47225 | 100° | 13km/h | 21665m | 4.7m/s | -52.9°C | 0% | 45.6hPa | 2.5V | 03:40:22 | 01:35:26 | 00:00:00 | |
| DO1YAY-16 | 2026-09-02 18:07:45 | 49.17511 | 8.47220 | 92° | 13km/h | 21660m | 4.6m/s | -53.0°C | 0.8% | 45.6hPa | 2.6V | 00:00:00 | 00:00:00 | 00:00:00 | |
| DJ2KF-10 | 2026-09-02 18:07:44 | 49.17510 | 8.47220 | 93° | 18km/h | 21661m | 4.6m/s | -52.9°C | 3.6% | 45.5hPa | 2.6V | 03:40:00 | 01:35:25 | 00:00:00 | |
| BIOWL7-15 | 2026-09-02 18:07:43 | 49.17510 | 8.47220 | 94° | 13km/h | 21661m | 4.6m/s | -53.0°C | 0.8% | 45.6hPa | 2.6V | 03:40:00 | 00:00:00 | 00:00:00 | |
| DF2AP-13 | 2026-09-02 18:07:42 | 49.17510 | 8.47208 | 74° | 18km/h | 21650m | 5.1m/s | -53.0°C | 3.7% | 45.6hPa | 2.6V | 00:00:00 | 01:35:23 | 00:00:00 | |
| DM0DOS-11 | 2026-09-02 18:07:41 | 49.17505 | 8.47154 | 87° | 24km/h | 21623m | 5m/s | -53.2°C | 3.8% | 45.8hPa | 2.6V | 03:40:17 | 01:35:17 | 00:00:00 | |
| DK7TD | 2026-09-02 18:07:41 | 49.17508 | 8.47201 | 72° | 22km/h | 21645m | 4m/s | -53.2°C | 0% | 45.7hPa | 2.5V | 03:40:22 | 01:35:22 | 00:00:00 | |
| BIOWL1-15 | 2026-09-02 18:07:40 | 49.17507 | 8.47193 | 76° | 24km/h | 21641m | 4.4m/s | -53.2°C | 0% | 45.7hPa | 2.6V | 03:40:22 | 01:35:21 | 00:00:00 | |
| DL1XH-west | 2026-09-02 18:07:35 | 49.17504 | 8.47146 | 86° | 20km/h | 21617m | 5.1m/s | -53.2°C | 0% | 45.9hPa | 2.6V | 03:40:22 | 01:35:16 | 00:00:00 | |
| HEMX73-11 | 2026-09-02 18:07:34 | 49.17505 | 8.47146 | 86° | 20km/h | 21618m | 5.1m/s | -53.2°C | 0.8% | 45.9hPa | 2.6V | 03:40:00 | 00:00:00 | 00:00:00 | |
| DL1ZP-14 | 2026-09-02 18:07:33 | 49.17504 | 8.47134 | 96° | 11km/h | 21608m | 4.8m/s | -53.2°C | 0% | 45.9hPa | 2.6V | 00:00:00 | 00:00:00 | 00:00:00 | |
| DM0DOS-11 | 2026-09-02 18:07:31 | 49.17515 | 8.47110 | 98° | 18km/h | 21575m | 4.4m/s | -53.2°C | 3.7% | 46.2hPa | 2.5V | 03:40:27 | 01:35:07 | 00:00:00 | |
| DK7TD | 2026-09-02 18:07:31 | 49.17507 | 8.47127 | 148° | 11km/h | 21597m | 5.1m/s | -53.2°C | 0% | 46hPa | 2.6V | 03:40:22 | 01:35:12 | 00:00:00 | |
| BIOWL1-15 | 2026-09-02 18:07:29 | 49.17511 | 8.47123 | 145° | 11km/h | 21589m | 4.5m/s | -53.2°C | 0% | 46.1hPa | 2.7V | 03:41:13 | 01:35:10 | 00:00:00 | |
| DL1XH-west | 2026-09-02 18:07:24 | 49.17517 | 8.47093 | 100° | 26km/h | 21564m | 4.9m/s | -53.3°C | 0% | 46.2hPa | 2.5V | 03:41:13 | 01:35:05 | 00:00:00 | |
| DK5PH-5 | 2026-09-02 18:07:24 | 49.17517 | 8.47092 | 100° | 18km/h | 21565m | 4.8m/s | -53.3°C | 3.7% | 46.2hPa | 2.7V | 00:00:00 | 01:35:05 | 00:00:00 | |
| DH7VM-15 | 2026-09-02 18:07:23 | 49.17517 | 8.47092 | 101° | 26km/h | 21565m | 4.9m/s | -53.3°C | 0.8% | 46.3hPa | 2.7V | 00:00:00 | 00:00:00 | 00:00:00 | |
| DL6DJ-15 | 2026-09-02 18:07:22 | 49.17518 | 8.47063 | 88° | 22km/h | 21550m | 4.7m/s | -53.7°C | 0.8% | 46.4hPa | 2.7V | 00:00:00 | 00:00:00 | 00:00:00 | |
| DM0DOS-11 | 2026-09-02 18:07:21 | 49.17522 | 8.47034 | 105° | 11km/h | 21527m | 4.3m/s | -53.7°C | 3.9% | 46.5hPa | 2.7V | 03:40:37 | 01:34:57 | 00:00:00 | |
| DK7TD | 2026-09-02 18:07:20 | 49.17518 | 8.47055 | 91° | 20km/h | 21545m | 3.9m/s | -53.7°C | 0% | 46.4hPa | 2.6V | 03:41:13 | 01:35:01 | 00:00:00 | |
| DL1XH1-15 | 2026-09-02 18:07:19 | 49.17521 | 8.47024 | 78° | 15km/h | 21517m | 4.6m/s | -53.7°C | 0% | 0hPa | 2.5V | 03:40:39 | 01:34:55 | 00:00:00 | |
| BIOWL1-15 | 2026-09-02 18:07:19 | 49.17519 | 8.47048 | 98° | 16km/h | 21541m | 5.5m/s | -53.7°C | 0% | 46.4hPa | 2.5V | 03:41:13 | 01:35:00 | 00:00:00 | |
| DL1XH-west | 2026-09-02 18:07:14 | 49.17521 | 8.47024 | 78° | 15km/h | 21517m | 4.6m/s | -53.7°C | 0.2% | 46.6hPa | 2.5V | 03:41:13 | 01:34:55 | 00:00:00 | |
| DJ2KF-10 | 2026-09-02 18:07:14 | 49.17521 | 8.47024 | 79° | 16km/h | 21517m | 4.5m/s | -53.7°C | 4.0% | 46.6hPa | 2.6V | 00:00:00 | 01:34:55 | 00:00:00 | |
| DF2AP-13 | 2026-09-02 18:07:12 | 49.17520 | 8.47010 | 83° | 16km/h | 21508m | 4.8m/s | -53.7°C | 4.0% | 46.6hPa | 2.6V | 03:40:00 | 01:34:53 | 00:00:00 | |
| DM0DOS-11 | 2026-09-02 18:07:11 | 49.17515 | 8.46959 | 58° | 22km/h | 21480m | 3.9m/s | -53.5°C | 3.9% | 46.9hPa | 2.6V | 03:40:47 | 01:34:47 | 00:00:00 | |
| DK7TD | 2026-09-02 18:07:10 | 49.17519 | 8.46992 | 91° | 24km/h | 21498m | 4m/s | -53.7°C | 0.1% | 46.7hPa | 2.6V | 03:41:13 | 01:34:51 | 00:00:00 | |
| BIOWL1-15 | 2026-09-02 18:07:09 | 49.17519 | 8.46983 | 89° | 24km/h | 21494m | 4.2m/s | -53.6°C | 0.1% | 46.7hPa | 2.5V | 03:41:13 | 01:34:50 | 00:00:00 | |
| DL1XH-west | 2026-09-02 18:07:03 | 49.17506 | 8.46937 | 67° | 22km/h | 21468m | 4.8m/s | -53.5°C | 0.1% | 47hPa | 2.6V | 03:41:13 | 01:34:44 | 00:00:00 | |
| DK7TD | 2026-09-02 18:07:00 | 49.17503 | 8.46917 | 84° | 15km/h | 21454m | 5m/s | -53.4°C | 0.1% | 47hPa | 2.5V | 03:41:13 | 01:34:41 | 00:00:00 | |
| DF7PN | 2026-09-02 18:06:59 | 49.17503 | 8.46913 | 80° | 11km/h | 21449m | 5.1m/s | -53.4°C | 0.8% | 47.1hPa | 2.5V | 00:00:00 | 00:00:00 | 00:00:00 | |
| DL1XH1-15 | 2026-09-02 18:06:58 | 49.17498 | 8.46876 | 77° | 22km/h | 21421m | 4m/s | -53.5°C | 0% | 0hPa | 2.5V | 03:41:00 | 01:34:34 | 00:00:00 | |
| BIOWL1-15 | 2026-09-02 18:06:58 | 49.17502 | 8.46908 | 75° | 11km/h | 21444m | 4.5m/s | -53.4°C | 0% | 47.1hPa | 2.6V | 03:41:13 | 01:34:39 | 00:00:00 | |
| DL1XH-west | 2026-09-02 18:06:52 | 49.17496 | 8.46869 | 74° | 20km/h | 21417m | 5.1m/s | -53.5°C | 0% | 47.3hPa | 2.6V | 03:41:13 | 01:34:33 | 00:00:00 | |
| DK7TD | 2026-09-02 18:06:49 | 49.17493 | 8.46854 | 76° | 9km/h | 21403m | 4.7m/s | -53.4°C | 0.1% | 47.4hPa | 2.7V | 03:41:13 | 01:34:30 | 00:00:00 | |
| DL1XH1-15 | 2026-09-02 18:06:48 | 49.17496 | 8.46841 | 108° | 5km/h | 21374m | 4.6m/s | 0°C | 0% | 0hPa | 2.6V | 03:41:10 | 01:34:24 | 00:00:00 | |
| BIOWL1-15 | 2026-09-02 18:06:48 | 49.17493 | 8.46851 | 97° | 7km/h | 21398m | 5.4m/s | -53.4°C | 0% | 47.5hPa | 2.6V | 03:41:13 | 01:34:29 | 00:00:00 | |
| DD1CC8 | 2026-09-02 18:06:47 | 49.17494 | 8.46846 | 127° | 5km/h | 21389m | 4.2m/s | -53.4°C | 0.9% | 47.5hPa | 2.6V | 00:00:00 | 00:00:00 | 00:00:00 | |
| DB0ND-19 | 2026-09-02 18:06:46 | 49.17494 | 8.46846 | 127° | 5km/h | 21389m | 4.2m/s | -53.4°C | 0.9% | 47.5hPa | 2.6V | 00:00:00 | 00:00:00 | 00:00:00 | |
| DL1XH-west | 2026-09-02 18:06:41 | 49.17497 | 8.46835 | 103° | 13km/h | 21364m | 5.4m/s | -53.4°C | 0.1% | 47.7hPa | 2.6V | 03:41:13 | 01:34:22 | 00:00:00 | |
| DK7TD | 2026-09-02 18:06:39 | 49.17499 | 8.46824 | 97° | 15km/h | 21356m | 3.9m/s | -53.3°C | 0% | 47.8hPa | 2.7V | 03:42:04 | 01:34:20 | 00:00:00 | |
| BIOWL1-15 | 2026-09-02 18:06:37 | 49.17499 | 8.46814 | 78° | 11km/h | 21346m | 4.9m/s | -53.2°C | 0% | 47.9hPa | 2.5V | 03:42:04 | 01:34:18 | 00:00:00 | |
| DO8TBO-1 | 2026-09-02 18:06:37 | 49.17499 | 8.46814 | 79° | 11km/h | 21347m | 4.9m/s | -53.2°C | 3.8% | 47.8hPa | 2.6V | 00:00:00 | 01:34:18 | 00:00:00 | |
| DL8DAS-15 | 2026-09-02 18:06:36 | 49.17498 | 8.46810 | 78° | 9km/h | 21342m | 4.1m/s | -53.2°C | 0.9% | 47.9hPa | 2.6V | 03:42:00 | 00:00:00 | 00:00:00 | |
| DL0LBS | 2026-09-02 18:06:35 | 49.17498 | 8.46810 | 78° | 9km/h | 21342m | 4.1m/s | -53.2°C | 0.9% | 47.9hPa | 2.6V | 03:42:00 | 00:00:00 | 00:00:00 | |
| DM0DOS-11 | 2026-09-02 18:06:31 | 49.17513 | 8.46785 | 125° | 13km/h | 21295m | 5.4m/s | -52.9°C | 3.7% | 48.2hPa | 2.6V | 03:41:27 | 01:34:07 | 00:00:00 | |
| DL1XH-west | 2026-09-02 18:06:31 | 49.17504 | 8.46797 | 150° | 11km/h | 21319m | 5m/s | -53.1°C | 0% | 48.1hPa | 2.6V | 03:42:04 | 01:34:12 | 00:00:00 | |
| DK7TD | 2026-09-02 18:06:29 | 49.17508 | 8.46793 | 149° | 7km/h | 21309m | 4.2m/s | -53°C | 0% | 48.1hPa | 2.7V | 03:42:04 | 01:34:10 | 00:00:00 | |
| BIOWL1-15 | 2026-09-02 18:06:29 | 49.17511 | 8.46789 | 130° | 11km/h | 21301m | 5.5m/s | -53°C | 0% | 48.2hPa | 2.6V | 03:42:04 | 01:34:08 | 00:00:00 | |
| DL1XH1-15 | 2026-09-02 18:06:28 | 49.17518 | 8.46773 | 129° | 9km/h | 21280m | 5.6m/s | 0°C | 0% | 0hPa | 2.6V | 00:00:00 | 01:34:04 | 00:00:00 | |
| NBG1-10 | 2026-09-02 18:06:27 | 49.17511 | 8.46789 | 130° | 13km/h | 21301m | 5.5m/s | -52.9°C | 3.7% | 48.1hPa | 2.7V | 00:00:00 | 01:34:08 | 00:00:00 | |
| DO3MHA-11 | 2026-09-02 18:06:26 | 49.17512 | 8.46785 | 126° | 13km/h | 21295m | 5.4m/s | -52.9°C | 3.7% | 48.2hPa | 2.7V | 00:00:00 | 01:34:07 | 00:00:00 | |
| DK5PH-5 | 2026-09-02 18:06:24 | 49.17517 | 8.46776 | 126° | 15km/h | 21286m | 4.8m/s | -52.8°C | 3.8% | 48.3hPa | 2.7V | 00:00:00 | 01:34:05 | 00:00:00 | |
| BIOWL9-15 | 2026-09-02 18:06:23 | 49.17520 | 8.46771 | 139° | 7km/h | 21275m | 4.4m/s | -52.8°C | 0.8% | 48.4hPa | 2.7V | 00:00:00 | 00:00:00 | 00:00:00 | |
| DM0DOS-11 | 2026-09-02 18:06:21 | 49.17536 | 8.46757 | 148° | 11km/h | 21247m | 5.3m/s | -52.8°C | 3.6% | 48.6hPa | 2.7V | 03:41:37 | 01:33:57 | 00:00:00 | |
| DL1XH-west | 2026-09-02 18:06:21 | 49.17522 | 8.46769 | 149° | 9km/h | 21271m | 4.3m/s | -52.8°C | 0% | 0hPa | 2.5V | 03:42:04 | 01:34:02 | 00:00:00 | |
| DK7TD | 2026-09-02 18:06:18 | 49.17530 | 8.46762 | 150° | 15km/h | 21256m | 4.2m/s | -52.8°C | 0% | 48.5hPa | 2.7V | 03:42:04 | 01:33:59 | 00:00:00 | |
| BIOWL1-15 | 2026-09-02 18:06:17 | 49.17533 | 8.46759 | 149° | 15km/h | 21252m | 4.2m/s | -52.8°C | 0% | 48.6hPa | 2.7V | 03:42:04 | 01:33:58 | 00:00:00 | |
| DD1CC8 | 2026-09-02 18:06:16 | 49.17538 | 8.46754 | 146° | 9km/h | 21242m | 4.5m/s | -52.8°C | 0.8% | 48.6hPa | 2.5V | 00:00:00 | 00:00:00 | 00:00:00 | |
| DB0UT-7 | 2026-09-02 18:06:15 | 49.17538 | 8.46754 | 147° | 15km/h | 21243m | 4.4m/s | -52.7°C | 3.6% | 48.6hPa | 2.5V | 00:00:00 | 00:00:00 | 00:00:00 | |
| DJ2KF-10 | 2026-09-02 18:06:14 | 49.17540 | 8.46752 | 144° | 15km/h | 21238m | 3.8m/s | -52.8°C | 3.5% | 48.6hPa | 2.5V | 00:00:00 | 01:33:55 | 00:00:00 | |
| HEMX73-11 | 2026-09-02 18:06:13 | 49.17540 | 8.46752 | 145° | 11km/h | 21238m | 3.9m/s | -52.8°C | 0.8% | 48.6hPa | 2.7V | 03:42:00 | 00:00:00 | 00:00:00 | |
| DF2AP-13 | 2026-09-02 18:06:12 | 49.17545 | 8.46746 | 142° | 16km/h | 21229m | 5.5m/s | -52.9°C | 3.6% | 48.7hPa | 2.7V | 00:00:00 | 01:33:53 | 00:00:00 | |
| DM0DOS-11 | 2026-09-02 18:06:11 | 49.17561 | 8.46719 | 126° | 15km/h | 21201m | 4.8m/s | -53.5°C | 3.8% | 49hPa | 2.7V | 03:41:47 | 01:33:47 | 00:00:00 | |
| DL1XH-west | 2026-09-02 18:06:10 | 49.17552 | 8.46737 | 135° | 16km/h | 21220m | 3.9m/s | -53.1°C | 0% | 0hPa | 2.5V | 03:42:04 | 01:33:51 | 00:00:00 | |
| BIOWL1-15 | 2026-09-02 18:06:10 | 49.17561 | 8.46719 | 127° | 15km/h | 21201m | 4.8m/s | -53.5°C | 0% | 49hPa | 2.7V | 03:42:04 | 01:33:47 | 00:00:00 | |
| DK7TD | 2026-09-02 18:06:07 | 49.17559 | 8.46724 | 125° | 15km/h | 21206m | 4.2m/s | -53.5°C | 0% | 48.9hPa | 2.7V | 03:42:04 | 01:33:48 | 00:00:00 | |
| DO8TBO-1 | 2026-09-02 18:06:07 | 49.17558 | 8.46724 | 125° | 15km/h | 21206m | 4.1m/s | -53.4°C | 3.8% | 48.8hPa | 2.5V | 00:00:00 | 01:33:48 | 00:00:00 | |
| DO3MHA-11 | 2026-09-02 18:06:06 | 49.17561 | 8.46719 | 127° | 18km/h | 21201m | 4.8m/s | -53.5°C | 3.8% | 48.9hPa | 2.5V | 03:41:00 | 01:33:47 | 00:00:00 | |
| DL8DAS-15 | 2026-09-02 18:06:05 | 49.17561 | 8.46719 | 128° | 15km/h | 21201m | 4.8m/s | -53.5°C | 0.9% | 49.0hPa | 2.5V | 03:42:00 | 00:00:00 | 00:00:00 | |
| DM0DOS-11 | 2026-09-02 18:06:01 | 49.17587 | 8.46658 | 122° | 20km/h | 21155m | 4.9m/s | -53.4°C | 3.9% | 49.3hPa | 2.5V | 03:41:57 | 01:33:37 | 00:00:00 | |
| DK7TD | 2026-09-02 18:05:57 | 49.17584 | 8.46665 | 123° | 22km/h | 21159m | 4.5m/s | -53.4°C | 0.1% | 49.3hPa | 2.7V | 03:42:04 | 01:33:38 | 00:00:00 | |
| BIOWL1-15 | 2026-09-02 18:05:55 | 49.17589 | 8.46652 | 122° | 16km/h | 21149m | 5.6m/s | -53.4°C | 0% | 49.4hPa | 2.6V | 03:42:04 | 01:33:36 | 00:00:00 | |
| DL1XH-west | 2026-09-02 18:05:54 | 49.17591 | 8.46648 | 121° | 11km/h | 21144m | 4.8m/s | 0°C | 0% | 0hPa | 2.6V | 03:42:04 | 01:33:35 | 00:00:00 | |
| BIOWL9-15 | 2026-09-02 18:05:52 | 49.17596 | 8.46640 | 151° | 11km/h | 21132m | 5.3m/s | -53.3°C | 0.9% | 49.5hPa | 2.7V | 00:00:00 | 00:00:00 | 00:00:00 | |
| DM0DOS-11 | 2026-09-02 18:05:51 | 49.17611 | 8.46627 | 143° | 13km/h | 21108m | 4.8m/s | -53.4°C | 3.7% | 49.6hPa | 2.7V | 03:42:07 | 01:33:27 | 00:00:00 | |
| DK7TD | 2026-09-02 18:05:46 | 49.17611 | 8.46627 | 143° | 13km/h | 21109m | 4.8m/s | -53.4°C | 0% | 49.6hPa | 2.7V | 03:42:55 | 01:33:27 | 00:00:00 | |
| BIOWL1-15 | 2026-09-02 18:05:44 | 49.17616 | 8.46621 | 141° | 15km/h | 21099m | 5.5m/s | -53.4°C | 0% | 49.7hPa | 2.6V | 03:42:55 | 01:33:25 | 00:00:00 | |
| DL1XH-west | 2026-09-02 18:05:43 | 49.17619 | 8.46617 | 139° | 16km/h | 21094m | 4.1m/s | 0°C | 0% | 0hPa | 2.5V | 18:12:15 | 01:33:24 | 00:00:00 | |
| DK7TD | 2026-09-02 18:05:34 | 49.17640 | 8.46590 | 163° | 15km/h | 21055m | 4.4m/s | -53.6°C | 0% | 50.1hPa | 2.7V | 03:42:55 | 01:33:15 | 00:00:00 | |
| BIOWL1-15 | 2026-09-02 18:05:33 | 49.17644 | 8.46588 | 159° | 13km/h | 21050m | 5.1m/s | -53.6°C | 0% | 0hPa | 2.5V | 03:42:55 | 01:33:14 | 00:00:00 | |
| HEMX73-11 | 2026-09-02 18:05:32 | 49.17643 | 8.46588 | 160° | 13km/h | 21051m | 5.1m/s | -53.6°C | 0.9% | 50.1hPa | 2.7V | 03:42:00 | 00:00:00 | 00:00:00 | |
| DM0DOS-11 | 2026-09-02 18:05:31 | 49.17660 | 8.46563 | 119° | 15km/h | 21020m | 5.1m/s | -53.7°C | 3.9% | 50.3hPa | 2.7V | 03:42:27 | 01:33:07 | 00:00:00 | |
| DK7TD | 2026-09-02 18:05:24 | 49.17662 | 8.46552 | 94° | 15km/h | 21010m | 4.1m/s | -53.6°C | 0.1% | 50.4hPa | 2.5V | 03:42:55 | 01:33:05 | 00:00:00 | |
| BIOWL1-15 | 2026-09-02 18:05:22 | 49.17662 | 8.46540 | 98° | 16km/h | 21001m | 5.3m/s | -53.6°C | 0% | 0hPa | 2.6V | 03:42:55 | 01:33:03 | 00:00:00 | |
| DL1XH-west | 2026-09-02 18:05:21 | 49.17663 | 8.46534 | 103° | 16km/h | 20996m | 4.4m/s | 0°C | 0% | 0hPa | 2.7V | 18:12:15 | 01:33:02 | 00:00:00 | |
| DK7TD | 2026-09-02 18:05:14 | 49.17669 | 8.46497 | 107° | 16km/h | 20964m | 4m/s | -53.6°C | 0.1% | 50.8hPa | 2.7V | 03:42:55 | 01:32:55 | 00:00:00 | |
| BIOWL1-15 | 2026-09-02 18:05:14 | 49.17670 | 8.46484 | 89° | 18km/h | 20954m | 5.5m/s | -53.5°C | 0.1% | 0hPa | 2.6V | 03:42:55 | 01:32:53 | 00:00:00 | |
| DL0LBS | 2026-09-02 18:05:14 | 49.17669 | 8.46497 | 108° | 16km/h | 20964m | 4.0m/s | -53.6°C | 0.9% | 50.8hPa | 2.7V | 03:42:00 | 00:00:00 | 00:00:00 | |
| DB0ND-19 | 2026-09-02 18:05:13 | 49.17670 | 8.46491 | 98° | 16km/h | 20959m | 4.3m/s | -53.5°C | 0.9% | 50.8hPa | 2.7V | 00:00:00 | 00:00:00 | 00:00:00 | |
| HEMX73-11 | 2026-09-02 18:05:12 | 49.17670 | 8.46484 | 89° | 18km/h | 20955m | 5.5m/s | -53.5°C | 0.9% | 50.8hPa | 2.7V | 03:42:00 | 00:00:00 | 00:00:00 | |
| DM0DOS-11 | 2026-09-02 18:05:11 | 49.17669 | 8.46442 | 93° | 15km/h | 20928m | 4.4m/s | -53.5°C | 3.9% | 51hPa | 2.7V | 03:42:47 | 01:32:47 | 00:00:00 | |
| DL1XH-west | 2026-09-02 18:05:10 | 49.17669 | 8.46470 | 81° | 20km/h | 20946m | 4m/s | 0°C | 0% | 0hPa | 2.7V | 18:12:15 | 01:32:51 | 00:00:00 | |
| DK7TD | 2026-09-02 18:05:04 | 49.17669 | 8.46433 | 77° | 11km/h | 20918m | 4.3m/s | -53.5°C | 0.1% | 51.1hPa | 2.5V | 03:42:55 | 01:32:45 | 00:00:00 | |
| DJ2DS-15 | 2026-09-02 18:05:02 | 49.17668 | 8.46424 | 88° | 11km/h | 20910m | 4.6m/s | -53.4°C | 0.9% | 51.2hPa | 2.7V | 00:00:00 | 00:00:00 | 00:00:00 | |
| DM0DOS-11 | 2026-09-02 18:05:01 | 49.17670 | 8.46391 | 81° | 13km/h | 20883m | 3.9m/s | -53.4°C | 3.8% | 51.4hPa | 2.7V | 03:42:57 | 01:32:37 | 00:00:00 | |
| BIOWL1-15 | 2026-09-02 18:05:01 | 49.17668 | 8.46419 | 98° | 15km/h | 20905m | 4.8m/s | 0°C | 0% | 0hPa | 2.7V | 03:42:55 | 01:32:42 | 00:00:00 | |
| DK7TD | 2026-09-02 18:04:53 | 49.17668 | 8.46375 | 74° | 15km/h | 20869m | 4.2m/s | -53.5°C | 0.1% | 51.5hPa | 2.5V | 03:43:46 | 01:32:34 | 00:00:00 | |
| DF1GD-15 | 2026-09-02 18:04:52 | 49.17668 | 8.46375 | 75° | 15km/h | 20869m | 4.2m/s | -53.5°C | 0.9% | 51.5hPa | 2.6V | 03:43:00 | 00:00:00 | 00:00:00 | |
| DM0DOS-11 | 2026-09-02 18:04:51 | 49.17656 | 8.46339 | 81° | 16km/h | 20837m | 4.2m/s | -53.3°C | 3.9% | 51.8hPa | 2.6V | 03:43:07 | 01:32:27 | 00:00:00 | |
| BIOWL1-15 | 2026-09-02 18:04:50 | 49.17662 | 8.46361 | 50° | 15km/h | 20855m | 3.5m/s | 0°C | 0% | 0hPa | 2.7V | 18:12:15 | 01:32:31 | 00:00:00 | |
| BIOWL9-15 | 2026-09-02 18:04:50 | 49.17660 | 8.46356 | 55° | 13km/h | 20851m | 4.2m/s | -53.4°C | 0.9% | 51.7hPa | 2.6V | 00:00:00 | 00:00:00 | 00:00:00 | |
| DF3TZ-5 | 2026-09-02 18:04:47 | 49.17656 | 8.46339 | 81° | 16km/h | 20837m | 4.2m/s | -53.3°C | 0.9% | 51.8hPa | 2.6V | 00:00:00 | 00:00:00 | 00:00:00 | |
| DL6DJ-15 | 2026-09-02 18:04:46 | 49.17656 | 8.46339 | 81° | 16km/h | 20837m | 4.2m/s | -53.3°C | 0.9% | 51.8hPa | 2.6V | 00:00:00 | 00:00:00 | 00:00:00 | |
| DK7TD | 2026-09-02 18:04:42 | 49.17651 | 8.46317 | 54° | 15km/h | 20819m | 3.7m/s | -53.2°C | 0.1% | 51.9hPa | 2.6V | 03:43:46 | 01:32:23 | 00:00:00 | |
| DF2AP-13 | 2026-09-02 18:04:42 | 49.17651 | 8.46317 | 54° | 15km/h | 20820m | 3.6m/s | -53.1°C | 3.8% | 51.9hPa | 2.7V | 00:00:00 | 01:32:23 | 00:00:00 | |
| DM0DOS-11 | 2026-09-02 18:04:41 | 49.17636 | 8.46293 | 18° | 11km/h | 20791m | 4.4m/s | -53.2°C | 3.7% | 52.1hPa | 2.7V | 03:43:17 | 01:32:17 | 00:00:00 | |
| DK7TD | 2026-09-02 18:04:32 | 49.17627 | 8.46282 | 54° | 15km/h | 20773m | 4.5m/s | -53.2°C | 0% | 52.3hPa | 2.7V | 03:43:46 | 01:32:13 | 00:00:00 | |
| DK7TD | 2026-09-02 18:04:22 | 49.17601 | 8.46235 | 46° | 11km/h | 20726m | 4.9m/s | -52.8°C | 0.1% | 52.7hPa | 2.7V | 03:43:46 | 01:32:03 | 00:00:00 | |
| BIOWL1-15 | 2026-09-02 18:04:19 | 49.17599 | 8.46225 | 98° | 11km/h | 20711m | 4m/s | -52.7°C | 0% | 0hPa | 2.5V | 18:12:15 | 01:32:00 | 00:00:00 | |
| BIOWL1-15 | 2026-09-02 18:04:12 | 49.17587 | 8.46172 | 75° | 11km/h | 20659m | 4.2m/s | 0°C | 0% | 0hPa | 2.7V | 18:12:15 | 01:31:49 | 00:00:00 | |
| DF2AP-13 | 2026-09-02 18:04:12 | 49.17593 | 8.46190 | 69° | 13km/h | 20678m | 4.4m/s | -52.7°C | 3.6% | 53.0hPa | 2.6V | 00:00:00 | 01:31:53 | 00:00:00 | |
| DM0DOS-11 | 2026-09-02 18:04:11 | 49.17588 | 8.46164 | 119° | 11km/h | 20649m | 4.8m/s | -52.7°C | 3.7% | 53.3hPa | 2.6V | 03:43:47 | 01:31:47 | 00:00:00 | |
| DK7TD | 2026-09-02 18:04:11 | 49.17591 | 8.46185 | 63° | 15km/h | 20672m | 5.1m/s | -52.7°C | 0% | 53.1hPa | 2.5V | 03:43:46 | 01:31:52 | 00:00:00 | |
| DH7VM-15 | 2026-09-02 18:04:09 | 49.17590 | 8.46180 | 58° | 15km/h | 20668m | 5.1m/s | -52.7°C | 0.8% | 53.2hPa | 2.7V | 00:00:00 | 00:00:00 | 00:00:00 | |
| HEMX73-11 | 2026-09-02 18:04:08 | 49.17588 | 8.46176 | 62° | 13km/h | 20663m | 3.7m/s | -52.7°C | 0.8% | 53.2hPa | 2.7V | 03:43:00 | 00:00:00 | 00:00:00 | |
| DO8TBO-1 | 2026-09-02 18:04:07 | 49.17586 | 8.46168 | 100° | 15km/h | 20654m | 5.5m/s | 0°C | 0% | 0hPa | 2.7V | 00:00:00 | 01:31:48 | 00:00:00 | |
| DO3MHA-11 | 2026-09-02 18:04:06 | 49.17587 | 8.46164 | 120° | 9km/h | 20649m | 4.7m/s | -52.6°C | 3.7% | 53.2hPa | 2.7V | 03:43:00 | 01:31:47 | 00:00:00 | |
| SFWM-10 | 2026-09-02 18:04:05 | 49.17588 | 8.46164 | 120° | 11km/h | 20649m | 4.8m/s | -52.7°C | 0.8% | 53.3hPa | 2.7V | 00:00:00 | 00:00:00 | 00:00:00 | |
| DJTTGO | 2026-09-02 18:04:04 | 49.17589 | 8.46160 | 128° | 11km/h | 20645m | 4.2m/s | -52.7°C | 0.8% | 53.4hPa | 2.7V | 00:00:00 | 00:00:00 | 00:00:00 | |
| DL8DAS-14 | 2026-09-02 18:04:03 | 49.17592 | 8.46154 | 118° | 7km/h | 20635m | 4.9m/s | -52.7°C | 0.8% | 53.4hPa | 2.7V | 00:00:00 | 00:00:00 | 00:00:00 | |
| BIOWL7-15 | 2026-09-02 18:04:02 | 49.17592 | 8.46154 | 120° | 9km/h | 20635m | 4.9m/s | -52.7°C | 0.8% | 53.4hPa | 2.7V | 00:00:00 | 00:00:00 | 00:00:00 | |
| DM0DOS-11 | 2026-09-02 18:04:01 | 49.17590 | 8.46129 | 44° | 13km/h | 20604m | 5m/s | -52.7°C | 3.7% | 53.7hPa | 2.7V | 03:43:57 | 01:31:37 | 00:00:00 | |
| DK7TD | 2026-09-02 18:04:01 | 49.17593 | 8.46148 | 96° | 9km/h | 20626m | 4.1m/s | -52.7°C | 0% | 53.5hPa | 2.5V | 03:44:37 | 01:31:42 | 00:00:00 | |
| DL1ZP-14 | 2026-09-02 18:03:56 | 49.17588 | 8.46126 | 46° | 13km/h | 20600m | 3.9m/s | -52.7°C | 0.8% | 53.7hPa | 2.7V | 00:00:00 | 00:00:00 | 00:00:00 | |
| AU51GT2 | 2026-09-02 18:03:54 | 49.17586 | 8.46122 | 57° | 13km/h | 20596m | 3.8m/s | -52.7°C | 0.9% | 53.8hPa | 2.7V | 00:00:00 | 00:00:00 | 00:00:00 | |
| DF7PN | 2026-09-02 18:03:53 | 49.17584 | 8.46112 | 86° | 15km/h | 20586m | 4.4m/s | -52.7°C | 0.8% | 53.8hPa | 2.7V | 00:00:00 | 00:00:00 | 00:00:00 | |
| HARRO8 | 2026-09-02 18:03:52 | 49.17584 | 8.46112 | 86° | 15km/h | 20586m | 4.4m/s | -52.7°C | 0.8% | 53.8hPa | 2.7V | 00:00:00 | 00:00:00 | 00:00:00 | |
| DM0DOS-11 | 2026-09-02 18:03:51 | 49.17577 | 8.46074 | 58° | 16km/h | 20560m | 4.9m/s | -52.6°C | 3.7% | 54hPa | 2.7V | 03:44:07 | 01:31:27 | 00:00:00 | |
| DK7TD | 2026-09-02 18:03:50 | 49.17583 | 8.46098 | 86° | 18km/h | 20579m | 4.5m/s | -52.7°C | 0% | 53.9hPa | 2.7V | 03:44:37 | 01:31:31 | 00:00:00 | |
| DJ2DS-15 | 2026-09-02 18:03:50 | 49.17583 | 8.46092 | 75° | 16km/h | 20574m | 5.1m/s | -52.7°C | 0.8% | 53.9hPa | 2.7V | 00:00:00 | 00:00:00 | 00:00:00 | |
| BIOWL9-15 | 2026-09-02 18:03:47 | 49.17579 | 8.46080 | 60° | 16km/h | 20565m | 4.2m/s | -52.7°C | 0.8% | 54.0hPa | 2.7V | 00:00:00 | 00:00:00 | 00:00:00 | |
| DO3MHA-11 | 2026-09-02 18:03:46 | 49.17577 | 8.46074 | 59° | 13km/h | 20560m | 4.8m/s | -52.6°C | 3.7% | 54.0hPa | 2.7V | 00:00:00 | 01:31:27 | 00:00:00 | |
| DB0UT-7 | 2026-09-02 18:03:45 | 49.17575 | 8.46069 | 57° | 13km/h | 20555m | 4.7m/s | -52.6°C | 3.7% | 54.1hPa | 2.7V | 00:00:00 | 01:31:26 | 00:00:00 | |
| DL6DJ-15 | 2026-09-02 18:03:44 | 49.17572 | 8.46064 | 52° | 15km/h | 20551m | 4.3m/s | -52.5°C | 0.8% | 54.1hPa | 2.7V | 00:00:00 | 00:00:00 | 00:00:00 | |
| DJ2KF-10 | 2026-09-02 18:03:42 | 49.17567 | 8.46057 | 28° | 13km/h | 20541m | 5.2m/s | 0°C | 0% | 0hPa | 2.7V | 03:44:00 | 01:31:23 | 00:00:00 | |
| DM0DOS-11 | 2026-09-02 18:03:41 | 49.17559 | 8.46036 | 75° | 16km/h | 20513m | 4.9m/s | -52.3°C | 3.6% | 54.5hPa | 2.7V | 03:44:17 | 01:31:17 | 00:00:00 | |
| DK7TD | 2026-09-02 18:03:39 | 49.17561 | 8.46051 | 62° | 9km/h | 20527m | 5.5m/s | -52.4°C | 0% | 54.3hPa | 2.6V | 03:44:37 | 01:31:20 | 00:00:00 | |
| DJ2DS-15 | 2026-09-02 18:03:38 | 49.17560 | 8.46047 | 82° | 13km/h | 20522m | 4.7m/s | -52.3°C | 3.7% | 54.3hPa | 2.6V | 00:00:00 | 01:31:19 | 00:00:00 | |
| DO3MHA-11 | 2026-09-02 18:03:36 | 49.17559 | 8.46036 | 76° | 13km/h | 20513m | 4.8m/s | -52.3°C | 3.6% | 54.4hPa | 2.5V | 00:00:00 | 01:31:17 | 00:00:00 | |
| DM7RM-13 | 2026-09-02 18:03:33 | 49.17556 | 8.46025 | 59° | 16km/h | 20504m | 4.1m/s | -52.4°C | 0.9% | 54.5hPa | 2.5V | 03:44:00 | 00:00:00 | 00:00:00 | |
| DO8TBO-1 | 2026-09-02 18:03:32 | 49.17551 | 8.46015 | 57° | 16km/h | 20495m | 5.4m/s | 0°C | 0% | 0hPa | 2.5V | 00:00:00 | 01:31:13 | 00:00:00 | |
| DM0DOS-11 | 2026-09-02 18:03:31 | 49.17544 | 8.45998 | 76° | 9km/h | 20466m | 4.8m/s | -52.3°C | 3.7% | 54.8hPa | 2.5V | 03:44:27 | 01:31:07 | 00:00:00 | |
| DK7TD | 2026-09-02 18:03:29 | 49.17548 | 8.46006 | 50° | 7km/h | 20480m | 5.2m/s | -52.4°C | 0% | 54.7hPa | 2.6V | 03:44:37 | 01:31:10 | 00:00:00 | |
| NBG1-10 | 2026-09-02 18:03:27 | 49.17545 | 8.46001 | 51° | 18km/h | 20471m | 4.1m/s | -52.3°C | 3.7% | 54.8hPa | 2.7V | 03:44:00 | 01:31:08 | 00:00:00 | |
| DO3MHA-11 | 2026-09-02 18:03:26 | 49.17544 | 8.45998 | 77° | 16km/h | 20466m | 4.7m/s | -52.3°C | 3.7% | 54.8hPa | 2.6V | 03:44:00 | 01:31:07 | 00:00:00 | |
| DL1ZP-14 | 2026-09-02 18:03:25 | 49.17544 | 8.45989 | 101° | 15km/h | 20456m | 4.6m/s | -52.3°C | 0.8% | 55.0hPa | 2.6V | 00:00:00 | 00:00:00 | 00:00:00 | |
| DK5PH-5 | 2026-09-02 18:03:24 | 49.17544 | 8.45989 | 102° | 18km/h | 20456m | 4.6m/s | -52.2°C | 3.7% | 54.9hPa | 2.7V | 00:00:00 | 01:31:05 | 00:00:00 | |
| AU51GT2 | 2026-09-02 18:03:23 | 49.17545 | 8.45983 | 100° | 16km/h | 20451m | 4.5m/s | -52.2°C | -1.0% | 55.0hPa | 2.7V | 00:00:00 | 00:00:00 | 00:00:00 | |
| DF7PN | 2026-09-02 18:03:22 | 49.17546 | 8.45970 | 93° | 16km/h | 20441m | 4.2m/s | -52.2°C | 0.8% | 55.0hPa | 2.7V | 00:00:00 | 00:00:00 | 00:00:00 | |
| DM0DOS-11 | 2026-09-02 18:03:21 | 49.17550 | 8.45938 | 100° | 16km/h | 20419m | 3.9m/s | -52.1°C | 3.6% | 55.2hPa | 2.7V | 03:44:37 | 01:30:57 | 00:00:00 | |
| DK7TD | 2026-09-02 18:03:18 | 49.17548 | 8.45950 | 105° | 18km/h | 20428m | 5.2m/s | -52.1°C | 0% | 55.2hPa | 2.6V | 03:44:37 | 01:30:59 | 00:00:00 | |
| BIOWL1-15 | 2026-09-02 18:03:17 | 49.17550 | 8.45932 | 90° | 15km/h | 20415m | 5.3m/s | 0°C | 0% | 55.3hPa | 2.7V | 18:12:15 | 01:30:56 | 00:00:00 | |
| DO3MHA-11 | 2026-09-02 18:03:16 | 49.17550 | 8.45938 | 101° | 18km/h | 20420m | 3.9m/s | -52.0°C | 3.6% | 55.2hPa | 2.7V | 00:00:00 | 01:30:57 | 00:00:00 | |
| DB0UT-7 | 2026-09-02 18:03:15 | 49.17550 | 8.45932 | 90° | 20km/h | 20415m | 5.3m/s | -52.1°C | 3.6% | 55.2hPa | 2.6V | 00:00:00 | 00:00:00 | 00:00:00 | |
| DJ2DS-15 | 2026-09-02 18:03:14 | 49.17549 | 8.45921 | 79° | 15km/h | 20406m | 3.5m/s | -52.0°C | 0.8% | 55.4hPa | 2.6V | 00:00:00 | 00:00:00 | 00:00:00 | |
| DL6DJ-15 | 2026-09-02 18:03:13 | 49.17549 | 8.45915 | 89° | 15km/h | 20402m | 4.1m/s | -52.0°C | 0.8% | 55.4hPa | 2.6V | 00:00:00 | 00:00:00 | 00:00:00 | |
| DF2AP-13 | 2026-09-02 18:03:12 | 49.17549 | 8.45915 | 90° | 20km/h | 20402m | 4.0m/s | -52.0°C | 3.6% | 55.3hPa | 2.6V | 03:44:00 | 01:30:53 | 00:00:00 | |
| DM0DOS-11 | 2026-09-02 18:03:11 | 49.17561 | 8.45874 | 123° | 18km/h | 20373m | 3.9m/s | -51.9°C | 3.6% | 55.6hPa | 2.6V | 03:44:47 | 01:30:47 | 00:00:00 | |
| DK7TD | 2026-09-02 18:03:06 | 49.17561 | 8.45874 | 123° | 18km/h | 20373m | 3.9m/s | -51.9°C | 0% | 55.6hPa | 2.6V | 03:45:28 | 01:30:47 | 00:00:00 | |
| BIOWL1-15 | 2026-09-02 18:03:05 | 49.17564 | 8.45868 | 127° | 18km/h | 20369m | 3.9m/s | 0°C | 0% | 0hPa | 2.7V | 18:12:15 | 01:30:46 | 00:00:00 | |
| DN1GJH-1 | 2026-09-02 18:03:04 | 49.17564 | 8.45868 | 128° | 18km/h | 20370m | 3.9m/s | -51.9°C | 0.9% | 55.7hPa | 2.7V | 03:45:00 | 00:00:00 | 00:00:00 | |
| DM0DOS-11 | 2026-09-02 18:03:01 | 49.17580 | 8.45811 | 116° | 22km/h | 20328m | 4.9m/s | -51.7°C | 3.6% | 56hPa | 2.7V | 03:44:57 | 01:30:37 | 00:00:00 | |
| DK7TD | 2026-09-02 18:02:55 | 49.17583 | 8.45804 | 128° | 22km/h | 20324m | 3.8m/s | -51.7°C | 0% | 56.1hPa | 2.7V | 03:45:28 | 01:30:36 | 00:00:00 | |
| BIOWL1-15 | 2026-09-02 18:02:54 | 49.17587 | 8.45798 | 136° | 22km/h | 20320m | 4m/s | 0°C | 0% | 0hPa | 2.6V | 18:12:15 | 01:30:35 | 00:00:00 | |
| DL1ZP-14 | 2026-09-02 18:02:54 | 49.17591 | 8.45792 | 139° | 20km/h | 20316m | 5.0m/s | -51.7°C | 0.8% | 56.1hPa | 2.6V | 00:00:00 | 00:00:00 | 00:00:00 | |
| AU51GT2 | 2026-09-02 18:02:52 | 49.17599 | 8.45782 | 137° | 20km/h | 20307m | 3.7m/s | 0°C | -1.0% | -1.0hPa | 2.7V | 00:00:00 | 00:00:00 | 00:00:00 | |
| DF7PN | 2026-09-02 18:02:51 | 49.17603 | 8.45776 | 133° | 20km/h | 20303m | 3.6m/s | -51.6°C | 0.8% | 56.2hPa | 2.7V | 00:00:00 | 00:00:00 | 00:00:00 | |
| HARRO8 | 2026-09-02 18:02:50 | 49.17603 | 8.45776 | 133° | 20km/h | 20303m | 3.6m/s | -51.6°C | 0.8% | 56.2hPa | 2.7V | 00:00:00 | 00:00:00 | 00:00:00 | |
| NBG1-10 | 2026-09-02 18:02:49 | 49.17607 | 8.45769 | 130° | 29km/h | 20299m | 4.9m/s | -51.6°C | 3.5% | 56.2hPa | 2.7V | 00:00:00 | 01:30:30 | 00:00:00 | |
| DF1GD-15 | 2026-09-02 18:02:48 | 49.17607 | 8.45770 | 130° | 24km/h | 20299m | 4.9m/s | -51.6°C | 0.8% | 56.3hPa | 2.7V | 03:45:00 | 00:00:00 | 00:00:00 | |
| DM0DOS-11 | 2026-09-02 18:02:47 | 49.17618 | 8.45746 | 121° | 24km/h | 20284m | 4.6m/s | -51.6°C | 3.5% | 56.4hPa | 2.7V | 03:45:07 | 01:30:27 | 00:00:00 | |
| DK7TD | 2026-09-02 18:02:45 | 49.17621 | 8.45738 | 120° | 20km/h | 20279m | 4.9m/s | -51.7°C | 0% | 56.5hPa | 2.5V | 03:45:28 | 01:30:26 | 00:00:00 | |
| DB0UT-7 | 2026-09-02 18:02:45 | 49.17621 | 8.45738 | 121° | 31km/h | 20280m | 4.9m/s | -51.7°C | 3.5% | 56.4hPa | 2.5V | 03:45:00 | 01:30:26 | 00:00:00 | |
| CB1BUN | 2026-09-02 18:02:44 | 49.17621 | 8.45738 | 121° | 20km/h | 20280m | 4.9m/s | -51.7°C | 0.8% | 56.5hPa | 2.5V | 03:45:00 | 00:00:00 | 00:00:00 | |
| DN1GJH-1 | 2026-09-02 18:02:43 | 49.17623 | 8.45732 | 119° | 18km/h | 20275m | 4.0m/s | -51.7°C | 0.8% | 56.5hPa | 2.5V | 03:45:00 | 00:00:00 | 00:00:00 | |
| DF2AP-13 | 2026-09-02 18:02:42 | 49.17628 | 8.45718 | 118° | 31km/h | 20266m | 5.5m/s | -51.7°C | 3.5% | 56.5hPa | 2.5V | 00:00:00 | 01:30:23 | 00:00:00 | |
| DB0UT-9 | 2026-09-02 18:02:41 | 49.17628 | 8.45718 | 118° | 22km/h | 20266m | 5.5m/s | -51.8°C | 0.8% | 56.5hPa | 2.5V | 03:45:00 | 00:00:00 | 00:00:00 | |
| DL8DAS-15 | 2026-09-02 18:02:40 | 49.17631 | 8.45710 | 120° | 26km/h | 20261m | 4.6m/s | -51.7°C | 0.8% | 56.6hPa | 2.5V | 00:00:00 | 00:00:00 | 00:00:00 | |
| DJ2DS-15 | 2026-09-02 18:02:38 | 49.17646 | 8.45676 | 127° | 26km/h | 20243m | 4.4m/s | -51.7°C | 0.8% | 56.8hPa | 2.5V | 00:00:00 | 00:00:00 | 00:00:00 | |
| IW2NTF | 2026-09-02 18:02:37 | 49.17667 | 8.45627 | 121° | 35km/h | 20221m | 3.6m/s | 0°C | 0% | 0hPa | 2.5V | 00:00:00 | 01:30:13 | 00:00:00 | |
| DM0DOS-11 | 2026-09-02 18:02:36 | 49.17650 | 8.45668 | 126° | 27km/h | 20239m | 4m/s | -51.7°C | 3.5% | 56.8hPa | 2.6V | 03:45:17 | 01:30:17 | 00:00:00 | |
| DK7TD | 2026-09-02 18:02:35 | 49.17654 | 8.45659 | 125° | 29km/h | 20235m | 4m/s | -51.8°C | 0% | 56.8hPa | 2.7V | 03:45:28 | 01:30:16 | 00:00:00 | |
| DJTTGO | 2026-09-02 18:02:34 | 49.17654 | 8.45659 | 126° | 29km/h | 20235m | 4.0m/s | -51.8°C | 0.8% | 56.8hPa | 2.6V | 03:45:00 | 00:00:00 | 00:00:00 | |
| DM0DOS-11 | 2026-09-02 18:02:31 | 49.17696 | 8.45579 | 141° | 29km/h | 20195m | 5m/s | -52°C | 3.5% | 57.2hPa | 2.6V | 03:45:27 | 01:30:07 | 00:00:00 | |
| DK7TD | 2026-09-02 18:02:25 | 49.17702 | 8.45572 | 139° | 33km/h | 20191m | 4.3m/s | -52°C | 0% | 57.2hPa | 2.6V | 03:45:28 | 01:30:06 | 00:00:00 | |
| BIOWL1-15 | 2026-09-02 18:02:25 | 49.17714 | 8.45553 | 132° | 35km/h | 20182m | 4.6m/s | 0°C | 0% | 0hPa | 2.7V | 18:12:15 | 01:30:04 | 00:00:00 | |
| DK5PH-5 | 2026-09-02 18:02:24 | 49.17708 | 8.45562 | 135° | 40km/h | 20187m | 4.0m/s | -51.9°C | 3.6% | 57.2hPa | 2.7V | 00:00:00 | 01:30:05 | 00:00:00 | |
| CB1BUN | 2026-09-02 18:02:23 | 49.17708 | 8.45562 | 135° | 35km/h | 20187m | 4.1m/s | -52.0°C | 0.8% | 57.3hPa | 2.6V | 03:46:00 | 00:00:00 | 00:00:00 | |
| IW2NTF | 2026-09-02 18:02:22 | 49.17749 | 8.45483 | 126° | 40km/h | 20156m | 4.4m/s | 0°C | 0% | 0hPa | 2.6V | 00:00:00 | 01:29:58 | 00:00:00 | |
| DM0DOS-11 | 2026-09-02 18:02:21 | 49.17754 | 8.45471 | 124° | 38km/h | 20152m | 4.3m/s | -52°C | 3.6% | 57.5hPa | 2.6V | 03:45:37 | 01:29:57 | 00:00:00 | |
| DK7TD | 2026-09-02 18:02:14 | 49.17764 | 8.45447 | 121° | 35km/h | 20142m | 4m/s | -52.1°C | 0% | 57.7hPa | 2.7V | 03:46:19 | 01:29:55 | 00:00:00 | |
| BIOWL1-15 | 2026-09-02 18:02:13 | 49.17769 | 8.45436 | 123° | 33km/h | 20138m | 3.2m/s | 0°C | 0% | 0hPa | 2.5V | 18:12:15 | 01:29:54 | 00:00:00 | |
| IW2NTF | 2026-09-02 18:02:12 | 49.17807 | 8.45372 | 128° | 40km/h | 20112m | 4.6m/s | 0°C | 0% | 0hPa | 2.5V | 00:00:00 | 01:29:48 | 00:00:00 | |
| DF2AP-13 | 2026-09-02 18:02:12 | 49.17774 | 8.45426 | 129° | 42km/h | 20134m | 4.6m/s | -52.1°C | 3.5% | 57.7hPa | 2.5V | 00:00:00 | 01:29:53 | 00:00:00 | |
| DM0DOS-11 | 2026-09-02 18:02:11 | 49.17813 | 8.45359 | 124° | 42km/h | 20108m | 4.4m/s | -52.1°C | 3.5% | 58hPa | 2.6V | 03:45:47 | 01:29:47 | 00:00:00 | |
| DK7TD | 2026-09-02 18:02:03 | 49.17832 | 8.45316 | 122° | 47km/h | 20094m | 4.6m/s | -52.2°C | 0% | 58.1hPa | 2.7V | 03:46:19 | 01:29:44 | 00:00:00 | |
| DJ2DS-15 | 2026-09-02 18:02:02 | 49.17844 | 8.45285 | 118° | 44km/h | 20085m | 5.4m/s | -52.4°C | 0.8% | 58.2hPa | 2.6V | 00:00:00 | 00:00:00 | 00:00:00 | |
| DM0DOS-11 | 2026-09-02 18:02:01 | 49.17869 | 8.45214 | 121° | 40km/h | 20062m | 3.7m/s | -52.5°C | 3.7% | 58.4hPa | 2.6V | 03:45:57 | 01:29:37 | 00:00:00 | |
| DK7TD | 2026-09-02 18:01:53 | 49.17883 | 8.45174 | 115° | 40km/h | 20048m | 3.7m/s | -52.6°C | 0% | 58.5hPa | 2.5V | 03:46:19 | 01:29:34 | 00:00:00 | |
| IW2NTF | 2026-09-02 18:01:52 | 49.17909 | 8.45079 | 108° | 46km/h | 20021m | 4m/s | 0°C | 0% | 0hPa | 2.6V | 00:00:00 | 01:29:28 | 00:00:00 | |
| DL1ZP-14 | 2026-09-02 18:01:51 | 49.17892 | 8.45144 | 114° | 44km/h | 20039m | 4.7m/s | -52.6°C | 0.9% | 58.6hPa | 2.6V | 00:00:00 | 00:00:00 | 00:00:00 | |
| AU51GT2 | 2026-09-02 18:01:50 | 49.17905 | 8.45095 | 108° | 44km/h | 20026m | 4.7m/s | 0°C | -1.0% | -1.0hPa | 2.6V | 00:00:00 | 00:00:00 | 00:00:00 | |
| DF7PN | 2026-09-02 18:01:49 | 49.17905 | 8.45095 | 108° | 44km/h | 20026m | 4.7m/s | -52.6°C | 0.9% | 58.7hPa | 2.6V | 00:00:00 | 00:00:00 | 00:00:00 | |
| HARRO8 | 2026-09-02 18:01:48 | 49.17905 | 8.45095 | 108° | 44km/h | 20026m | 4.7m/s | -52.6°C | -1.0% | 58.7hPa | 2.6V | 00:00:00 | 00:00:00 | 00:00:00 | |
| DO3MHA-11 | 2026-09-02 18:01:46 | 49.17913 | 8.45062 | 110° | 44km/h | 20017m | 5.0m/s | -52.6°C | 3.6% | 58.7hPa | 2.6V | 00:00:00 | 01:29:27 | 00:00:00 | |
| DB0UT-7 | 2026-09-02 18:01:45 | 49.17917 | 8.45044 | 111° | 38km/h | 20012m | 4.8m/s | -52.6°C | 3.6% | 58.8hPa | 2.7V | 00:00:00 | 01:29:26 | 00:00:00 | |
| NBG1-10 | 2026-09-02 18:01:43 | 49.17925 | 8.45009 | 108° | 37km/h | 20003m | 4.8m/s | -52.6°C | 3.6% | 58.9hPa | 2.7V | 00:00:00 | 01:29:24 | 00:00:00 | |
| IW2NTF | 2026-09-02 18:01:42 | 49.17943 | 8.44915 | 108° | 38km/h | 19976m | 3.5m/s | 0°C | 0% | 0hPa | 2.7V | 00:00:00 | 01:29:18 | 00:00:00 | |
| BIOWL1-15 | 2026-09-02 18:01:42 | 49.17928 | 8.44991 | 105° | 47km/h | 19997m | 5.3m/s | -52.7°C | 0% | 58.9hPa | 2.6V | 03:46:19 | 01:29:23 | 00:00:00 | |
| DF2AP-13 | 2026-09-02 18:01:42 | 49.17928 | 8.44991 | 106° | 37km/h | 19998m | 5.2m/s | -52.6°C | 3.7% | 58.9hPa | 2.6V | 00:00:00 | 01:29:23 | 00:00:00 | |
| DN1GJH-1 | 2026-09-02 18:01:41 | 49.17928 | 8.44991 | 106° | 47km/h | 19998m | 5.3m/s | -52.7°C | 0.9% | 58.9hPa | 2.6V | 03:46:00 | 00:00:00 | 00:00:00 | |
| DF3TZ-5 | 2026-09-02 18:01:40 | 49.17934 | 8.44959 | 105° | 40km/h | 19989m | 3.6m/s | -52.7°C | 0.9% | 59.0hPa | 2.6V | 00:00:00 | 00:00:00 | 00:00:00 | |
| DB0NH | 2026-09-02 18:01:39 | 49.17937 | 8.44943 | 108° | 37km/h | 19985m | 4.9m/s | -52.7°C | 3.6% | 59.0hPa | 2.6V | 00:00:00 | 01:29:20 | 00:00:00 | |
| DJ2DS-15 | 2026-09-02 18:01:38 | 49.17940 | 8.44929 | 109° | 37km/h | 19980m | 4.4m/s | -52.7°C | 3.7% | 59.1hPa | 2.7V | 00:00:00 | 01:29:19 | 00:00:00 | |
| DO8TBO-1 | 2026-09-02 18:01:37 | 49.17943 | 8.44915 | 109° | 27km/h | 19976m | 3.5m/s | 0°C | 0% | 0hPa | 2.7V | 00:00:00 | 01:29:18 | 00:00:00 | |
| DO3MHA-11 | 2026-09-02 18:01:36 | 49.17946 | 8.44901 | 105° | 37km/h | 19972m | 4.7m/s | -52.7°C | 3.7% | 59.1hPa | 2.7V | 00:00:00 | 01:29:17 | 00:00:00 | |
| IW2NTF | 2026-09-02 18:01:32 | 49.17963 | 8.44773 | 100° | 33km/h | 19930m | 4.4m/s | 0°C | 0% | 0hPa | 2.7V | 00:00:00 | 01:29:08 | 00:00:00 | |
| DM0DOS-11 | 2026-09-02 18:01:31 | 49.17965 | 8.44761 | 101° | 33km/h | 19925m | 5m/s | -52.9°C | 3.7% | 59.6hPa | 2.7V | 03:46:27 | 01:29:07 | 00:00:00 | |
| DK7TD | 2026-09-02 18:01:31 | 49.17955 | 8.44828 | 104° | 40km/h | 19948m | 4.4m/s | -52.9°C | 0.1% | 59.4hPa | 2.7V | 03:47:10 | 01:29:12 | 00:00:00 | |
| DJ2KF-10 | 2026-09-02 18:01:31 | 49.17955 | 8.44828 | 104° | 37km/h | 19948m | 4.3m/s | 0°C | 0% | 0hPa | 2.5V | 00:00:00 | 01:29:12 | 00:00:00 | |
| DJTTGO | 2026-09-02 18:01:29 | 49.17957 | 8.44813 | 106° | 40km/h | 19944m | 3.9m/s | -52.9°C | 0.9% | 59.4hPa | 2.5V | 03:47:00 | 00:00:00 | 00:00:00 | |
| DL8DAS-14 | 2026-09-02 18:01:28 | 49.17962 | 8.44786 | 102° | 33km/h | 19935m | 4.9m/s | -53.0°C | 0.9% | 59.5hPa | 2.5V | 00:00:00 | 00:00:00 | 00:00:00 | |
| DO3MHA-11 | 2026-09-02 18:01:26 | 49.17965 | 8.44761 | 102° | 37km/h | 19925m | 5.0m/s | -52.9°C | 3.7% | 59.5hPa | 2.5V | 03:46:00 | 01:29:07 | 00:00:00 | |
| BIOWL7-15 | 2026-09-02 18:01:25 | 49.17965 | 8.44761 | 102° | 33km/h | 19925m | 5.1m/s | -52.9°C | 0.9% | 59.6hPa | 2.5V | 03:47:00 | 00:00:00 | 00:00:00 | |
| DK5PH-5 | 2026-09-02 18:01:24 | 49.17968 | 8.44735 | 99° | 35km/h | 19916m | 3.8m/s | -52.8°C | 3.7% | 59.7hPa | 2.5V | 00:00:00 | 01:29:05 | 00:00:00 | |
| CB1BUN | 2026-09-02 18:01:23 | 49.17969 | 8.44722 | 95° | 35km/h | 19911m | 5.0m/s | -52.9°C | 0.9% | 59.7hPa | 2.5V | 03:47:00 | 00:00:00 | 00:00:00 | |
| IW2NTF | 2026-09-02 18:01:22 | 49.17973 | 8.44637 | 102° | 38km/h | 19882m | 3.5m/s | 0°C | 0% | 0hPa | 2.7V | 00:00:00 | 01:28:58 | 00:00:00 | |
| DM0DOS-11 | 2026-09-02 18:01:21 | 49.17975 | 8.44623 | 104° | 37km/h | 19878m | 4.2m/s | -52.7°C | 3.6% | 60.1hPa | 2.5V | 03:46:37 | 01:28:57 | 00:00:00 | |
| BIOWL1-15 | 2026-09-02 18:01:21 | 49.17969 | 8.44696 | 90° | 35km/h | 19901m | 4.4m/s | -52.8°C | 0% | 59.8hPa | 2.5V | 03:47:10 | 01:29:02 | 00:00:00 | |
| DL1ZP-14 | 2026-09-02 18:01:20 | 49.17969 | 8.44682 | 90° | 37km/h | 19897m | 4.8m/s | -52.8°C | 0.9% | 59.9hPa | 2.6V | 00:00:00 | 00:00:00 | 00:00:00 | |
| AU51GT2 | 2026-09-02 18:01:19 | 49.17971 | 8.44652 | 99° | 38km/h | 19886m | 4.5m/s | 0°C | -1.0% | -1.0hPa | 2.5V | 00:00:00 | 00:00:00 | 00:00:00 | |
| DJ2DS-15 | 2026-09-02 18:01:17 | 49.17973 | 8.44638 | 103° | 33km/h | 19882m | 3.5m/s | -52.7°C | 3.7% | 60.0hPa | 2.5V | 00:00:00 | 01:28:58 | 00:00:00 | |
| DO3MHA-11 | 2026-09-02 18:01:16 | 49.17975 | 8.44623 | 105° | 33km/h | 19878m | 4.2m/s | -52.6°C | 3.6% | 60.0hPa | 2.5V | 00:00:00 | 01:28:57 | 00:00:00 | |
| DB0UT-7 | 2026-09-02 18:01:15 | 49.17977 | 8.44610 | 105° | 31km/h | 19874m | 4.8m/s | -52.7°C | 3.6% | 60.0hPa | 2.6V | 00:00:00 | 00:00:00 | 00:00:00 | |
| IW2NTF | 2026-09-02 18:01:12 | 49.17991 | 8.44510 | 95° | 31km/h | 19838m | 5.1m/s | 0°C | 0% | 0hPa | 2.6V | 00:00:00 | 01:28:48 | 00:00:00 | |
| DF2AP-13 | 2026-09-02 18:01:12 | 49.17983 | 8.44575 | 103° | 31km/h | 19861m | 4.3m/s | -52.8°C | 3.7% | 60.1hPa | 2.7V | 03:46:00 | 01:28:53 | 00:00:00 | |
| DM0DOS-11 | 2026-09-02 18:01:11 | 49.17991 | 8.44499 | 93° | 29km/h | 19833m | 4.2m/s | -53.1°C | 3.8% | 60.5hPa | 2.7V | 03:46:47 | 01:28:47 | 00:00:00 | |
| BIOWL1-15 | 2026-09-02 18:01:10 | 49.17987 | 8.44549 | 102° | 37km/h | 19851m | 4.3m/s | -53°C | 0.1% | 60.3hPa | 2.6V | 03:47:10 | 01:28:51 | 00:00:00 | |
| NBG1-10 | 2026-09-02 18:01:10 | 49.17986 | 8.44549 | 103° | 31km/h | 19852m | 4.2m/s | -53.0°C | 3.8% | 60.2hPa | 2.6V | 03:46:00 | 01:28:51 | 00:00:00 | |
| DB0NH | 2026-09-02 18:01:09 | 49.17988 | 8.44536 | 101° | 31km/h | 19847m | 3.9m/s | -53.0°C | 3.8% | 60.3hPa | 2.6V | 00:00:00 | 01:28:50 | 00:00:00 | |
| DL0LBS | 2026-09-02 18:01:08 | 49.17990 | 8.44522 | 99° | 33km/h | 19843m | 4.7m/s | -53.1°C | 0.9% | 60.4hPa | 2.6V | 03:47:00 | 00:00:00 | 00:00:00 | |
| DM7RM-13 | 2026-09-02 18:01:07 | 49.17990 | 8.44522 | 99° | 33km/h | 19843m | 4.7m/s | -53.1°C | 0.9% | 60.4hPa | 2.6V | 03:47:00 | 00:00:00 | 00:00:00 | |
| DO3MHA-11 | 2026-09-02 18:01:06 | 49.17991 | 8.44499 | 94° | 33km/h | 19833m | 4.2m/s | -53.1°C | 3.8% | 60.4hPa | 2.6V | 00:00:00 | 01:28:47 | 00:00:00 | |
| KANTATE | 2026-09-02 18:01:05 | 49.17991 | 8.44499 | 94° | 29km/h | 19833m | 4.2m/s | -53.1°C | 0.9% | 60.5hPa | 2.6V | 03:47:00 | 00:00:00 | 00:00:00 | |
| HEMX73-11 | 2026-09-02 18:01:04 | 49.17992 | 8.44477 | 96° | 29km/h | 19826m | 4.1m/s | -53.1°C | 0.9% | 60.5hPa | 2.6V | 03:47:00 | 00:00:00 | 00:00:00 | |
| DM0DOS-11 | 2026-09-02 18:01:01 | 49.17995 | 8.44369 | 90° | 33km/h | 19789m | 5.3m/s | -53.1°C | 3.7% | 60.9hPa | 2.6V | 03:46:57 | 01:28:37 | 00:00:00 | |
| BIOWL1-15 | 2026-09-02 18:01:01 | 49.17996 | 8.44409 | 89° | 37km/h | 19803m | 4.9m/s | -53.2°C | 0% | 60.7hPa | 2.7V | 03:47:10 | 01:28:40 | 00:00:00 | |
| DK7TD | 2026-09-02 18:01:00 | 49.17996 | 8.44423 | 92° | 38km/h | 19808m | 4.7m/s | -53.2°C | 0% | 60.7hPa | 2.7V | 03:47:10 | 01:28:41 | 00:00:00 | |
| DL8DAS-14 | 2026-09-02 18:00:57 | 49.17995 | 8.44382 | 87° | 33km/h | 19794m | 4.7m/s | -53.2°C | 0.9% | 60.9hPa | 2.7V | 00:00:00 | 00:00:00 | 00:00:00 | |
| DJ2DS-15 | 2026-09-02 18:00:56 | 49.17995 | 8.44369 | 91° | 29km/h | 19789m | 5.3m/s | -53.1°C | 3.7% | 60.9hPa | 2.7V | 00:00:00 | 01:28:37 | 00:00:00 | |
| DK5PH-5 | 2026-09-02 18:00:54 | 49.17995 | 8.44344 | 92° | 26km/h | 19780m | 4.1m/s | -53.1°C | 3.8% | 60.9hPa | 2.7V | 03:46:00 | 01:28:35 | 00:00:00 | |
| DM0DOS-11 | 2026-09-02 18:00:51 | 49.17997 | 8.44259 | 81° | 27km/h | 19743m | 4.4m/s | -53.1°C | 3.9% | 61.3hPa | 2.7V | 03:47:07 | 01:28:27 | 00:00:00 | |
| DK7TD | 2026-09-02 18:00:50 | 49.17996 | 8.44302 | 96° | 27km/h | 19761m | 5.4m/s | -53.1°C | 0.1% | 61.1hPa | 2.6V | 03:47:10 | 01:28:31 | 00:00:00 | |
| BIOWL1-15 | 2026-09-02 18:00:49 | 49.17997 | 8.44291 | 96° | 27km/h | 19757m | 4m/s | -53.1°C | 0.1% | 61.2hPa | 2.6V | 03:47:10 | 01:28:30 | 00:00:00 | |
| DJTTGO | 2026-09-02 18:00:48 | 49.17997 | 8.44291 | 97° | 27km/h | 19757m | 4.0m/s | -53.1°C | 0.9% | 61.2hPa | 2.7V | 03:47:00 | 00:00:00 | 00:00:00 | |
| DM7RM-13 | 2026-09-02 18:00:47 | 49.17997 | 8.44280 | 93° | 27km/h | 19753m | 4.1m/s | -53.1°C | 1.0% | 61.2hPa | 2.7V | 03:47:00 | 00:00:00 | 00:00:00 | |
| DO3MHA-11 | 2026-09-02 18:00:46 | 49.17997 | 8.44259 | 82° | 31km/h | 19743m | 4.3m/s | -53.0°C | 3.9% | 61.3hPa | 2.7V | 03:47:00 | 01:28:27 | 00:00:00 | |
| DB0UT-7 | 2026-09-02 18:00:45 | 49.17995 | 8.44249 | 81° | 22km/h | 19739m | 4.1m/s | -53.1°C | 3.8% | 61.3hPa | 2.7V | 03:47:00 | 01:28:26 | 00:00:00 | |
| BIOWL7-15 | 2026-09-02 18:00:44 | 49.17994 | 8.44238 | 83° | 29km/h | 19734m | 5.2m/s | -53.2°C | 0.9% | 61.4hPa | 2.7V | 03:47:00 | 00:00:00 | 00:00:00 | |
| HEMX73-11 | 2026-09-02 18:00:43 | 49.17994 | 8.44238 | 83° | 29km/h | 19734m | 5.2m/s | -53.2°C | 0.9% | 61.4hPa | 2.7V | 03:47:00 | 00:00:00 | 00:00:00 | |
| DF2AP-13 | 2026-09-02 18:00:42 | 49.17992 | 8.44214 | 82° | 20km/h | 19725m | 3.9m/s | -53.3°C | 3.9% | 61.4hPa | 2.7V | 00:00:00 | 01:28:23 | 00:00:00 | |
| BIOWL9-15 | 2026-09-02 18:00:41 | 49.17991 | 8.44202 | 79° | 31km/h | 19721m | 5.0m/s | -53.4°C | 0.9% | 61.5hPa | 2.6V | 00:00:00 | 00:00:00 | 00:00:00 | |
| DM0DOS-11 | 2026-09-02 18:00:40 | 49.17986 | 8.44132 | 86° | 24km/h | 19695m | 4.2m/s | -53.2°C | 3.8% | 61.8hPa | 2.6V | 03:47:18 | 01:28:16 | 00:00:00 | |
| DK7TD | 2026-09-02 18:00:39 | 49.17988 | 8.44177 | 80° | 31km/h | 19712m | 3.6m/s | -53.4°C | 0.1% | 61.6hPa | 2.6V | 03:48:01 | 01:28:20 | 00:00:00 | |
| BIOWL1-15 | 2026-09-02 18:00:38 | 49.17987 | 8.44165 | 84° | 31km/h | 19708m | 4.8m/s | -53.4°C | 0.1% | 61.6hPa | 2.6V | 03:48:01 | 01:28:19 | 00:00:00 | |
| DK7TD | 2026-09-02 18:00:28 | 49.17977 | 8.44078 | 87° | 22km/h | 19663m | 4.4m/s | -53.2°C | 0% | 62.1hPa | 2.7V | 03:48:01 | 01:28:09 | 00:00:00 | |
| BIOWL1-15 | 2026-09-02 18:00:27 | 49.17977 | 8.44070 | 86° | 20km/h | 19658m | 5.4m/s | -53.2°C | 0% | 62.1hPa | 2.7V | 03:48:01 | 01:28:08 | 00:00:00 | |
| DM0DOS-11 | 2026-09-02 18:00:25 | 49.17977 | 8.44055 | 93° | 18km/h | 19649m | 3.8m/s | -53.1°C | 3.7% | 62.2hPa | 2.6V | 03:47:28 | 01:28:06 | 00:00:00 | |
| DK7TD | 2026-09-02 18:00:18 | 49.17982 | 8.44023 | 92° | 11km/h | 19618m | 5m/s | -53.1°C | 0% | 62.5hPa | 2.6V | 03:48:01 | 01:27:59 | 00:00:00 | |
| BIOWL1-15 | 2026-09-02 18:00:17 | 49.17982 | 8.44018 | 94° | 15km/h | 19613m | 4.8m/s | -53.2°C | 0% | 62.5hPa | 2.7V | 03:48:01 | 01:27:58 | 00:00:00 | |
| DJ2DS-15 | 2026-09-02 18:00:16 | 49.17982 | 8.44012 | 94° | 16km/h | 19608m | 4.3m/s | -53.1°C | 3.8% | 62.6hPa | 2.6V | 00:00:00 | 01:27:57 | 00:00:00 | |
| DM0DOS-11 | 2026-09-02 18:00:15 | 49.17982 | 8.44006 | 89° | 18km/h | 19604m | 4.5m/s | -53.2°C | 3.8% | 62.6hPa | 2.6V | 03:47:38 | 01:27:56 | 00:00:00 | |
| DB0UT-7 | 2026-09-02 18:00:15 | 49.17982 | 8.44006 | 90° | 16km/h | 19604m | 4.5m/s | -53.2°C | 3.8% | 62.6hPa | 2.6V | 00:00:00 | 00:00:00 | 00:00:00 | |
| DJ2DS-15 | 2026-09-02 18:00:13 | 49.17982 | 8.43992 | 91° | 16km/h | 19594m | 3.6m/s | -53.3°C | 0.9% | 62.7hPa | 2.6V | 00:00:00 | 00:00:00 | 00:00:00 | |
| DF2AP-13 | 2026-09-02 18:00:12 | 49.17983 | 8.43986 | 102° | 18km/h | 19591m | 3.7m/s | -53.2°C | 3.7% | 62.7hPa | 2.6V | 00:00:00 | 01:27:53 | 00:00:00 | |
| DM0DOS-11 | 2026-09-02 18:00:10 | 49.17992 | 8.43949 | 100° | 11km/h | 19561m | 3.8m/s | -53.4°C | 3.8% | 63hPa | 2.6V | 03:47:48 | 01:27:46 | 00:00:00 | |
| DK7TD | 2026-09-02 18:00:08 | 49.17990 | 8.43962 | 115° | 15km/h | 19573m | 5.1m/s | -53.3°C | 0% | 62.9hPa | 2.7V | 03:48:01 | 01:27:49 | 00:00:00 | |
| BIOWL1-15 | 2026-09-02 18:00:07 | 49.17991 | 8.43958 | 107° | 13km/h | 19568m | 4.6m/s | -53.3°C | 0% | 63hPa | 2.7V | 03:48:01 | 01:27:48 | 00:00:00 | |
| DO3MHA-11 | 2026-09-02 18:00:06 | 49.17992 | 8.43953 | 102° | 15km/h | 19565m | 3.8m/s | -53.3°C | 3.7% | 63.0hPa | 2.6V | 03:47:00 | 01:27:47 | 00:00:00 | |
| DJTTGO | 2026-09-02 18:00:05 | 49.17992 | 8.43949 | 102° | 11km/h | 19561m | 3.8m/s | -53.4°C | 0.9% | 63.0hPa | 2.6V | 03:48:00 | 00:00:00 | 00:00:00 | |
| NBG1-10 | 2026-09-02 18:00:04 | 49.17993 | 8.43944 | 108° | 22km/h | 19556m | 4.9m/s | -53.3°C | 3.8% | 63.1hPa | 2.6V | 00:00:00 | 01:27:45 | 00:00:00 | |
| DB0ND-19 | 2026-09-02 18:00:03 | 49.17994 | 8.43940 | 114° | 13km/h | 19551m | 4.3m/s | -53.4°C | 0.9% | 63.1hPa | 2.5V | 00:00:00 | 00:00:00 | 00:00:00 | |
| HEMX73-11 | 2026-09-02 18:00:02 | 49.17994 | 8.43940 | 115° | 13km/h | 19552m | 4.3m/s | -53.4°C | 0.9% | 63.1hPa | 2.5V | 03:48:00 | 00:00:00 | 00:00:00 | |
| BIOWL7-15 | 2026-09-02 18:00:01 | 49.17995 | 8.43935 | 118° | 15km/h | 19548m | 3.4m/s | -53.4°C | 0.9% | 63.2hPa | 2.5V | 03:48:00 | 00:00:00 | 00:00:00 | |
| DM0DOS-11 | 2026-09-02 18:00:00 | 49.18008 | 8.43889 | 119° | 22km/h | 19518m | 3.5m/s | -53.4°C | 3.9% | 63.5hPa | 2.5V | 03:47:58 | 01:27:36 | 00:00:00 | |
| DK7TD | 2026-09-02 17:59:58 | 49.18001 | 8.43913 | 110° | 20km/h | 19531m | 4.2m/s | -53.5°C | 0.1% | 63.4hPa | 2.7V | 03:48:01 | 01:27:39 | 00:00:00 | |
| BIOWL1-15 | 2026-09-02 17:59:56 | 49.18006 | 8.43897 | 117° | 24km/h | 19522m | 3.7m/s | -53.5°C | 0.1% | 63.4hPa | 2.7V | 03:48:01 | 01:27:37 | 00:00:00 | |
| DK7TD | 2026-09-02 17:59:47 | 49.18031 | 8.43854 | 137° | 26km/h | 19485m | 4.1m/s | -53.5°C | 0% | 63.8hPa | 2.6V | 03:48:52 | 01:27:28 | 00:00:00 | |
| DM0DOS-11 | 2026-09-02 17:59:45 | 49.18040 | 8.43841 | 133° | 26km/h | 19476m | 4.5m/s | -53.5°C | 3.8% | 63.9hPa | 2.7V | 03:48:08 | 01:27:26 | 00:00:00 | |
| BIOWL1-15 | 2026-09-02 17:59:45 | 49.18041 | 8.43841 | 133° | 26km/h | 19476m | 4.6m/s | -53.5°C | 0% | 63.9hPa | 2.7V | 03:48:52 | 01:27:26 | 00:00:00 | |
| DK7TD | 2026-09-02 17:59:36 | 49.18076 | 8.43764 | 123° | 22km/h | 19438m | 3.1m/s | -53.5°C | 0% | 64.3hPa | 2.6V | 03:48:52 | 01:27:17 | 00:00:00 | |
| DM0DOS-11 | 2026-09-02 17:59:35 | 49.18079 | 8.43757 | 127° | 22km/h | 19434m | 3.9m/s | -53.6°C | 3.8% | 64.3hPa | 2.6V | 03:48:18 | 01:27:16 | 00:00:00 | |
| BIOWL1-15 | 2026-09-02 17:59:34 | 49.18082 | 8.43751 | 130° | 24km/h | 19430m | 4.6m/s | -53.6°C | 0% | 64.3hPa | 2.6V | 03:48:52 | 01:27:15 | 00:00:00 | |
| DK7TD | 2026-09-02 17:59:26 | 49.18118 | 8.43677 | 119° | 37km/h | 19397m | 3.8m/s | -53.7°C | 0.1% | 64.7hPa | 2.7V | 03:48:52 | 01:27:07 | 00:00:00 | |
| DO3MHA-11 | 2026-09-02 17:59:26 | 49.18118 | 8.43677 | 119° | 31km/h | 19397m | 3.7m/s | -53.7°C | 4.0% | 64.7hPa | 2.6V | 03:48:00 | 01:27:07 | 00:00:00 | |
| DM0DOS-11 | 2026-09-02 17:59:25 | 49.18128 | 8.43641 | 107° | 31km/h | 19384m | 4.1m/s | -53.8°C | 4% | 64.8hPa | 2.6V | 03:48:30 | 01:27:04 | 00:00:00 | |
| BIOWL1-15 | 2026-09-02 17:59:24 | 49.18126 | 8.43652 | 111° | 33km/h | 19388m | 4.9m/s | -53.8°C | 0.2% | 64.8hPa | 2.6V | 03:48:52 | 01:27:05 | 00:00:00 | |
| DK5PH-5 | 2026-09-02 17:59:24 | 49.18125 | 8.43652 | 112° | 31km/h | 19389m | 4.8m/s | -53.8°C | 4.0% | 64.7hPa | 2.6V | 00:00:00 | 01:27:05 | 00:00:00 | |
| KANTATE | 2026-09-02 17:59:22 | 49.18128 | 8.43640 | 109° | 31km/h | 19384m | 4.1m/s | -53.8°C | 0.9% | 64.8hPa | 2.5V | 03:48:00 | 00:00:00 | 00:00:00 | |
| BIOWL7-15 | 2026-09-02 17:59:20 | 49.18133 | 8.43619 | 110° | 29km/h | 19376m | 4.7m/s | -53.8°C | 0.9% | 64.9hPa | 2.5V | 03:48:00 | 00:00:00 | 00:00:00 | |
| DJTTGO | 2026-09-02 17:59:19 | 49.18135 | 8.43608 | 113° | 31km/h | 19372m | 4.5m/s | -53.7°C | 0.9% | 64.9hPa | 2.5V | 03:48:00 | 00:00:00 | 00:00:00 | |
| DO3MHA-11 | 2026-09-02 17:59:16 | 49.18145 | 8.43562 | 102° | 33km/h | 19354m | 3.7m/s | -53.6°C | 3.8% | 65.1hPa | 2.5V | 00:00:00 | 01:26:57 | 00:00:00 | |
| DM0DOS-11 | 2026-09-02 17:59:15 | 49.18151 | 8.43523 | 101° | 37km/h | 19341m | 3.1m/s | -53.6°C | 3.8% | 65.2hPa | 2.7V | 03:48:40 | 01:26:54 | 00:00:00 | |
| DK7TD | 2026-09-02 17:59:15 | 49.18147 | 8.43550 | 102° | 35km/h | 19350m | 4.2m/s | -53.6°C | 0% | 65.2hPa | 2.6V | 03:48:52 | 01:26:56 | 00:00:00 | |
| BIOWL1-15 | 2026-09-02 17:59:15 | 49.18151 | 8.43523 | 101° | 38km/h | 19341m | 3.1m/s | -53.6°C | 0% | 65.2hPa | 2.7V | 03:48:52 | 01:26:54 | 00:00:00 | |
| DK7TD | 2026-09-02 17:59:04 | 49.18162 | 8.43414 | 105° | 35km/h | 19306m | 4.4m/s | -53.5°C | 0.1% | 65.6hPa | 2.7V | 03:48:52 | 01:26:45 | 00:00:00 | |
| BIOWL1-15 | 2026-09-02 17:59:03 | 49.18164 | 8.43401 | 102° | 35km/h | 19302m | 4m/s | -53.5°C | 0.1% | 65.7hPa | 2.7V | 03:48:52 | 01:26:44 | 00:00:00 | |
| DK7TD | 2026-09-02 17:58:53 | 49.18185 | 8.43296 | 112° | 27km/h | 19262m | 5.1m/s | -53.1°C | 0% | 66.1hPa | 2.7V | 03:49:43 | 01:26:34 | 00:00:00 | |
| BIOWL1-15 | 2026-09-02 17:58:52 | 49.18188 | 8.43287 | 117° | 26km/h | 19258m | 4.5m/s | -53.1°C | 0% | 66.1hPa | 2.7V | 03:49:43 | 01:26:33 | 00:00:00 | |
| DL1ZP-14 | 2026-09-02 17:58:45 | 49.18203 | 8.43233 | 122° | 16km/h | 19227m | 4.0m/s | -52.9°C | 0.9% | 66.4hPa | 2.6V | 00:00:00 | 00:00:00 | 00:00:00 | |
| BIOWL1-15 | 2026-09-02 17:58:43 | 49.18214 | 8.43206 | 121° | 24km/h | 19211m | 3.4m/s | -52.9°C | 0% | 66.6hPa | 2.6V | 03:49:43 | 01:26:22 | 00:00:00 | |
| DK7TD | 2026-09-02 17:58:42 | 49.18211 | 8.43214 | 119° | 22km/h | 19214m | 3.5m/s | -52.8°C | 0% | 66.5hPa | 2.6V | 03:49:43 | 01:26:23 | 00:00:00 | |
| DK7TD | 2026-09-02 17:58:32 | 49.18240 | 8.43139 | 128° | 15km/h | 19171m | 3.5m/s | -53.4°C | 0% | 67hPa | 2.7V | 03:49:43 | 01:26:13 | 00:00:00 | |
| BIOWL1-15 | 2026-09-02 17:58:32 | 49.18244 | 8.43131 | 132° | 13km/h | 19162m | 3.9m/s | -53.5°C | 0% | 67.1hPa | 2.6V | 03:49:43 | 01:26:11 | 00:00:00 | |
| DK7TD | 2026-09-02 17:58:21 | 49.18282 | 8.43087 | 127° | 27km/h | 19126m | 4.5m/s | -53.6°C | 0.1% | 67.5hPa | 2.6V | 03:49:43 | 01:26:02 | 00:00:00 | |
| BIOWL1-15 | 2026-09-02 17:58:21 | 49.18291 | 8.43071 | 131° | 27km/h | 19116m | 3.8m/s | -53.6°C | 0.1% | 67.6hPa | 2.7V | 03:49:43 | 01:26:00 | 00:00:00 | |
| DK7TD | 2026-09-02 17:58:11 | 49.18320 | 8.43020 | 136° | 20km/h | 19083m | 4.6m/s | -53.6°C | 0.1% | 67.9hPa | 2.6V | 03:49:43 | 01:25:52 | 00:00:00 | |
| BIOWL1-15 | 2026-09-02 17:58:08 | 49.18329 | 8.43001 | 123° | 22km/h | 19070m | 4.5m/s | -53.5°C | 0.1% | 68hPa | 2.5V | 03:50:34 | 01:25:49 | 00:00:00 | |
| DK7TD | 2026-09-02 17:58:00 | 49.18345 | 8.42928 | 107° | 26km/h | 19035m | 4.7m/s | -53.3°C | 0% | 68.4hPa | 2.7V | 03:50:34 | 01:25:41 | 00:00:00 | |
| BIOWL1-15 | 2026-09-02 17:57:57 | 49.18352 | 8.42902 | 112° | 22km/h | 19022m | 5.1m/s | -53.3°C | 0.1% | 68.5hPa | 2.5V | 03:50:34 | 01:25:38 | 00:00:00 | |
| DK7TD | 2026-09-02 17:57:50 | 49.18371 | 8.42853 | 121° | 18km/h | 18991m | 4m/s | -53.4°C | 0% | 68.9hPa | 2.6V | 03:50:34 | 01:25:31 | 00:00:00 | |
| BIOWL1-15 | 2026-09-02 17:57:46 | 49.18385 | 8.42824 | 129° | 27km/h | 18973m | 4.3m/s | -53.4°C | 0.1% | 69.1hPa | 2.6V | 03:50:34 | 01:25:27 | 00:00:00 | |
| DK7TD | 2026-09-02 17:57:40 | 49.18411 | 8.42776 | 130° | 31km/h | 18946m | 3.9m/s | -53.4°C | 0.1% | 69.4hPa | 2.7V | 03:50:34 | 01:25:21 | 00:00:00 | |
| BIOWL1-15 | 2026-09-02 17:57:37 | 49.18434 | 8.42727 | 128° | 35km/h | 18924m | 5m/s | -53.4°C | 0.1% | 69.6hPa | 2.7V | 03:50:34 | 01:25:16 | 00:00:00 | |
| DK7TD | 2026-09-02 17:57:29 | 49.18462 | 8.42668 | 123° | 29km/h | 18899m | 4.3m/s | -53.5°C | 0.1% | 69.9hPa | 2.6V | 03:50:34 | 01:25:10 | 00:00:00 | |
| BIOWL1-15 | 2026-09-02 17:57:25 | 49.18481 | 8.42627 | 119° | 33km/h | 18881m | 5.2m/s | -53.6°C | 0.1% | 70.1hPa | 2.7V | 03:50:34 | 01:25:06 | 00:00:00 | |
| DK7TD | 2026-09-02 17:57:18 | 49.18507 | 8.42533 | 108° | 38km/h | 18849m | 4.9m/s | -53.5°C | 0.1% | 70.4hPa | 2.6V | 03:51:25 | 01:24:59 | 00:00:00 | |
| BIOWL1-15 | 2026-09-02 17:57:14 | 49.18520 | 8.42481 | 114° | 35km/h | 18833m | 3.7m/s | -53.4°C | 0% | 70.6hPa | 2.7V | 03:51:25 | 01:24:55 | 00:00:00 | |
| DK7TD | 2026-09-02 17:57:08 | 49.18539 | 8.42411 | 117° | 37km/h | 18806m | 5.1m/s | -53.6°C | 0.1% | 70.9hPa | 2.6V | 03:51:25 | 01:24:49 | 00:00:00 | |
| BIOWL1-15 | 2026-09-02 17:57:05 | 49.18559 | 8.42349 | 107° | 35km/h | 18785m | 4.2m/s | -53.9°C | 0.1% | 71.1hPa | 2.6V | 03:51:25 | 01:24:44 | 00:00:00 | |
| DK7TD | 2026-09-02 17:56:57 | 49.18575 | 8.42270 | 111° | 35km/h | 18759m | 4.1m/s | -53.9°C | 0.1% | 71.4hPa | 2.7V | 03:51:25 | 01:24:38 | 00:00:00 | |
| BIOWL1-15 | 2026-09-02 17:56:52 | 49.18599 | 8.42205 | 122° | 40km/h | 18736m | 5.2m/s | -53.9°C | 0.1% | 71.7hPa | 2.7V | 03:51:25 | 01:24:33 | 00:00:00 | |
| DK7TD | 2026-09-02 17:56:46 | 49.18627 | 8.42126 | 116° | 35km/h | 18710m | 4.7m/s | -53.8°C | 0.1% | 72hPa | 2.7V | 03:51:25 | 01:24:27 | 00:00:00 | |
| BIOWL1-15 | 2026-09-02 17:56:42 | 49.18641 | 8.42081 | 115° | 33km/h | 18692m | 5.2m/s | -53.7°C | 0% | 72.2hPa | 2.6V | 03:51:25 | 01:24:23 | 00:00:00 | |
| DL1ZP-14 | 2026-09-02 17:56:41 | 49.18649 | 8.42055 | 114° | 38km/h | 18683m | 3.8m/s | -53.7°C | 1.0% | 72.2hPa | 2.7V | 00:00:00 | 00:00:00 | 00:00:00 | |
| DF2AP-13 | 2026-09-02 17:56:40 | 49.18649 | 8.42055 | 115° | 33km/h | 18683m | 3.7m/s | -53.7°C | 3.8% | 72.2hPa | 2.6V | 00:00:00 | 01:24:21 | 00:00:00 | |
| DB0NH | 2026-09-02 17:56:38 | 49.18656 | 8.42029 | 112° | 35km/h | 18674m | 4.4m/s | -53.8°C | 3.8% | 72.3hPa | 2.6V | 00:00:00 | 01:24:19 | 00:00:00 | |
| DJ2DS-15 | 2026-09-02 17:56:37 | 49.18660 | 8.42015 | 112° | 37km/h | 18670m | 4.0m/s | -53.9°C | 0.9% | 72.4hPa | 2.6V | 00:00:00 | 00:00:00 | 00:00:00 | |
| DM0DOS-11 | 2026-09-02 17:56:36 | 49.18676 | 8.41962 | 115° | 35km/h | 18652m | 4.2m/s | -54°C | 3.9% | 72.6hPa | 2.6V | 03:51:20 | 01:24:14 | 00:00:00 | |
| DK7TD | 2026-09-02 17:56:36 | 49.18664 | 8.42002 | 114° | 38km/h | 18665m | 4.8m/s | -53.9°C | 0.1% | 72.4hPa | 2.7V | 03:51:25 | 01:24:17 | 00:00:00 | |
| BIOWL1-15 | 2026-09-02 17:56:33 | 49.18682 | 8.41940 | 111° | 29km/h | 18643m | 4.4m/s | -54.1°C | 0.1% | 72.7hPa | 2.7V | 03:51:25 | 01:24:12 | 00:00:00 | |
| DK7TD | 2026-09-02 17:56:25 | 49.18700 | 8.41877 | 115° | 29km/h | 18617m | 4.8m/s | -54.3°C | 0.2% | 73hPa | 2.6V | 03:52:16 | 01:24:06 | 00:00:00 | |
| BIOWL1-15 | 2026-09-02 17:56:21 | 49.18713 | 8.41828 | 107° | 38km/h | 18599m | 3.6m/s | -54.2°C | 0.2% | 73.2hPa | 2.6V | 03:52:16 | 01:24:02 | 00:00:00 | |
| DK7TD | 2026-09-02 17:56:14 | 49.18721 | 8.41732 | 102° | 35km/h | 18568m | 4.2m/s | -54.1°C | 0.1% | 73.5hPa | 2.7V | 03:52:16 | 01:23:55 | 00:00:00 | |
| BIOWL1-15 | 2026-09-02 17:56:10 | 49.18728 | 8.41687 | 105° | 29km/h | 18551m | 3.7m/s | -54.1°C | 0.1% | 73.8hPa | 2.6V | 03:52:16 | 01:23:51 | 00:00:00 | |
| DK7TD | 2026-09-02 17:56:03 | 49.18741 | 8.41599 | 103° | 33km/h | 18519m | 4.9m/s | -54°C | 0.1% | 74.1hPa | 2.7V | 03:52:16 | 01:23:44 | 00:00:00 | |
| BIOWL1-15 | 2026-09-02 17:56:02 | 49.18748 | 8.41561 | 106° | 33km/h | 18507m | 4.1m/s | -53.9°C | 0.1% | 74.2hPa | 2.6V | 03:52:16 | 01:23:41 | 00:00:00 | |
| DJ2DS-15 | 2026-09-02 17:56:01 | 49.18745 | 8.41573 | 104° | 35km/h | 18511m | 3.2m/s | -53.9°C | 1.0% | 74.2hPa | 2.6V | 00:00:00 | 00:00:00 | 00:00:00 | |
| DM0DOS-11 | 2026-09-02 17:56:00 | 49.18760 | 8.41501 | 106° | 33km/h | 18485m | 4.1m/s | -53.8°C | 3.9% | 74.5hPa | 2.6V | 03:51:58 | 01:23:36 | 00:00:00 | |
| DK7TD | 2026-09-02 17:55:52 | 49.18767 | 8.41467 | 109° | 29km/h | 18471m | 4.2m/s | -53.8°C | 0.1% | 74.7hPa | 2.6V | 03:52:16 | 01:23:33 | 00:00:00 | |
| BIOWL1-15 | 2026-09-02 17:55:50 | 49.18772 | 8.41446 | 110° | 31km/h | 18462m | 5m/s | -53.8°C | 0.1% | 74.8hPa | 2.6V | 03:52:16 | 01:23:31 | 00:00:00 | |
| HARRO8 | 2026-09-02 17:55:49 | 49.18778 | 8.41423 | 113° | 31km/h | 18454m | 4.1m/s | -53.7°C | 1.0% | 74.9hPa | 2.7V | 00:00:00 | 00:00:00 | 00:00:00 | |
| DL8DAS-14 | 2026-09-02 17:55:47 | 49.18784 | 8.41402 | 118° | 31km/h | 18445m | 4.0m/s | -53.7°C | 1.0% | 75.0hPa | 2.7V | 00:00:00 | 00:00:00 | 00:00:00 | |
| DM0DOS-11 | 2026-09-02 17:55:45 | 49.18788 | 8.41391 | 118° | 33km/h | 18440m | 4.5m/s | -53.7°C | 3.8% | 75hPa | 2.7V | 03:52:08 | 01:23:26 | 00:00:00 | |
| DK7TD | 2026-09-02 17:55:42 | 49.18801 | 8.41354 | 119° | 37km/h | 18426m | 4.6m/s | -53.6°C | 0% | 75.2hPa | 2.6V | 03:52:16 | 01:23:23 | 00:00:00 | |
| BIOWL1-15 | 2026-09-02 17:55:39 | 49.18814 | 8.41319 | 118° | 35km/h | 18414m | 3.9m/s | -53.5°C | 0% | 75.3hPa | 2.7V | 03:52:16 | 01:23:20 | 00:00:00 | |
| DL0LBS | 2026-09-02 17:55:38 | 49.18814 | 8.41319 | 119° | 35km/h | 18414m | 3.9m/s | -53.5°C | 1.0% | 75.3hPa | 2.7V | 03:52:00 | 00:00:00 | 00:00:00 | |
| DM7RM-13 | 2026-09-02 17:55:37 | 49.18818 | 8.41307 | 117° | 35km/h | 18409m | 4.9m/s | -53.6°C | 1.0% | 75.4hPa | 2.7V | 03:52:00 | 00:00:00 | 00:00:00 | |
| DM0DOS-11 | 2026-09-02 17:55:35 | 49.18831 | 8.41270 | 120° | 35km/h | 18396m | 5.2m/s | -53.8°C | 3.9% | 75.6hPa | 2.7V | 03:52:18 | 01:23:16 | 00:00:00 | |
| DK7TD | 2026-09-02 17:55:31 | 49.18849 | 8.41224 | 119° | 37km/h | 18378m | 4.5m/s | -53.9°C | 0% | 75.8hPa | 2.7V | 03:53:07 | 01:23:12 | 00:00:00 | |
| BIOWL1-15 | 2026-09-02 17:55:30 | 49.18864 | 8.41187 | 122° | 38km/h | 18365m | 4.2m/s | -54°C | 0.1% | 75.9hPa | 2.6V | 03:53:07 | 01:23:09 | 00:00:00 | |
| BIOWL1-15 | 2026-09-02 17:55:24 | 49.18907 | 8.41037 | 104° | 37km/h | 18322m | 4m/s | -54.3°C | 0.2% | 76.5hPa | 2.6V | 03:53:07 | 01:22:59 | 00:00:00 | |
| DK7TD | 2026-09-02 17:55:21 | 49.18897 | 8.41082 | 113° | 44km/h | 18335m | 3.7m/s | -54.1°C | 0.1% | 76.3hPa | 2.6V | 03:53:07 | 01:23:02 | 00:00:00 | |
| DL0LBS | 2026-09-02 17:55:18 | 49.18904 | 8.41051 | 108° | 40km/h | 18327m | 4.5m/s | -54.2°C | 1.0% | 76.4hPa | 2.6V | 03:53:00 | 00:00:00 | 00:00:00 | |
| DM7RM-13 | 2026-09-02 17:55:17 | 49.18907 | 8.41037 | 105° | 37km/h | 18322m | 4.0m/s | -54.3°C | 1.1% | 76.4hPa | 2.6V | 03:53:00 | 00:00:00 | 00:00:00 | |
| DO3MHA-11 | 2026-09-02 17:55:16 | 49.18911 | 8.41012 | 108° | 40km/h | 18314m | 4.2m/s | -54.2°C | 4.0% | 76.5hPa | 2.6V | 00:00:00 | 01:22:57 | 00:00:00 | |
| DB0UT-7 | 2026-09-02 17:55:15 | 49.18914 | 8.41000 | 109° | 40km/h | 18310m | 3.0m/s | -54.2°C | 4.1% | 76.5hPa | 2.7V | 00:00:00 | 00:00:00 | 00:00:00 | |
| HEMX73-11 | 2026-09-02 17:55:14 | 49.18914 | 8.41000 | 109° | 33km/h | 18310m | 3.1m/s | -54.2°C | 1.0% | 76.6hPa | 2.7V | 03:53:00 | 00:00:00 | 00:00:00 | |
| DJ2DS-15 | 2026-09-02 17:55:13 | 49.18919 | 8.40974 | 104° | 40km/h | 18303m | 4.8m/s | -54.1°C | 4.0% | 76.6hPa | 2.7V | 03:52:00 | 01:22:54 | 00:00:00 | |
| DJTTGO | 2026-09-02 17:55:12 | 49.18919 | 8.40974 | 105° | 38km/h | 18303m | 4.8m/s | -54.2°C | 1.0% | 76.7hPa | 2.7V | 00:00:00 | 00:00:00 | 00:00:00 | |
| DM0DOS-11 | 2026-09-02 17:55:10 | 49.18935 | 8.40844 | 100° | 42km/h | 18268m | 4.5m/s | -54°C | 3.9% | 77.1hPa | 2.7V | 03:52:48 | 01:22:46 | 00:00:00 | |
| DK7TD | 2026-09-02 17:55:10 | 49.18925 | 8.40925 | 99° | 46km/h | 18290m | 3.7m/s | -54.1°C | 0.2% | 76.8hPa | 2.7V | 03:53:07 | 01:22:51 | 00:00:00 | |
| BIOWL1-15 | 2026-09-02 17:55:09 | 49.18931 | 8.40876 | 102° | 42km/h | 18277m | 4m/s | -54.1°C | 0.1% | 77hPa | 2.6V | 03:53:07 | 01:22:48 | 00:00:00 | |
| DL1ZP-14 | 2026-09-02 17:55:08 | 49.18931 | 8.40876 | 102° | 40km/h | 18277m | 4.0m/s | -54.1°C | 1.0% | 77.0hPa | 2.6V | 00:00:00 | 00:00:00 | 00:00:00 | |
| DB0NH | 2026-09-02 17:55:07 | 49.18931 | 8.40876 | 103° | 37km/h | 18277m | 4.0m/s | -54.0°C | 4.0% | 76.9hPa | 2.6V | 00:00:00 | 01:22:48 | 00:00:00 | |
| DO3MHA-11 | 2026-09-02 17:55:06 | 49.18933 | 8.40860 | 102° | 40km/h | 18273m | 4.6m/s | -54.0°C | 3.9% | 76.9hPa | 2.6V | 00:00:00 | 01:22:47 | 00:00:00 | |
| DF7PN | 2026-09-02 17:55:05 | 49.18937 | 8.40828 | 100° | 42km/h | 18264m | 4.0m/s | -54.0°C | 1.0% | 77.1hPa | 2.6V | 00:00:00 | 00:00:00 | 00:00:00 | |
| DL4BBY-15 | 2026-09-02 17:55:03 | 49.18939 | 8.40812 | 102° | 31km/h | 18261m | 4.2m/s | -52.9°C | 0% | 0hPa | 2.6V | 00:00:00 | 00:00:00 | 00:00:00 | |
| DM0DOS-11 | 2026-09-02 17:55:00 | 49.18953 | 8.40694 | 99° | 35km/h | 18225m | 4.3m/s | -53.7°C | 3.9% | 77.6hPa | 2.6V | 03:52:58 | 01:22:36 | 00:00:00 | |
| DK7TD | 2026-09-02 17:55:00 | 49.18946 | 8.40766 | 101° | 40km/h | 18247m | 3.9m/s | -53.9°C | 0.1% | 77.3hPa | 2.6V | 03:53:07 | 01:22:41 | 00:00:00 | |
| BIOWL1-15 | 2026-09-02 17:54:56 | 49.18951 | 8.40707 | 98° | 37km/h | 18229m | 5m/s | -53.8°C | 0.1% | 77.5hPa | 2.7V | 03:53:07 | 01:22:37 | 00:00:00 | |
| DK7TD | 2026-09-02 17:54:49 | 49.18964 | 8.40614 | 112° | 38km/h | 18199m | 4.4m/s | -53.8°C | 0.1% | 77.9hPa | 2.6V | 03:53:07 | 01:22:30 | 00:00:00 | |
| BIOWL1-15 | 2026-09-02 17:54:48 | 49.18975 | 8.40571 | 109° | 40km/h | 18186m | 4.2m/s | -53.8°C | 0.1% | 78.1hPa | 2.6V | 03:53:07 | 01:22:27 | 00:00:00 | |
| HARRO8 | 2026-09-02 17:54:46 | 49.18975 | 8.40571 | 108° | 38km/h | 18186m | 4.2m/s | -53.8°C | 1.0% | 78.1hPa | 2.6V | 00:00:00 | 00:00:00 | 00:00:00 | |
| DM0DOS-11 | 2026-09-02 17:54:45 | 49.18978 | 8.40557 | 107° | 37km/h | 18181m | 3.8m/s | -53.8°C | 3.9% | 78.1hPa | 2.6V | 03:53:08 | 01:22:26 | 00:00:00 | |
| DK7TD | 2026-09-02 17:54:38 | 49.18990 | 8.40482 | 102° | 27km/h | 18152m | 3.5m/s | -53.9°C | 0% | 78.5hPa | 2.6V | 03:53:58 | 01:22:19 | 00:00:00 | |
| BIOWL1-15 | 2026-09-02 17:54:36 | 49.18994 | 8.40462 | 112° | 27km/h | 18144m | 4m/s | -53.8°C | 0% | 78.6hPa | 2.7V | 03:53:58 | 01:22:17 | 00:00:00 | |
| DO3MHA-11 | 2026-09-02 17:54:36 | 49.18993 | 8.40462 | 112° | 31km/h | 18144m | 3.9m/s | -53.8°C | 3.8% | 78.5hPa | 2.6V | 00:00:00 | 01:22:17 | 00:00:00 | |
| DM0DOS-11 | 2026-09-02 17:54:35 | 49.19001 | 8.40432 | 106° | 29km/h | 18131m | 4.6m/s | -53.9°C | 3.9% | 78.7hPa | 2.6V | 03:53:20 | 01:22:14 | 00:00:00 | |
| BIOWL1-15 | 2026-09-02 17:54:28 | 49.19019 | 8.40350 | 108° | 38km/h | 18100m | 4.2m/s | -54.1°C | 0.1% | 79.1hPa | 2.6V | 03:53:58 | 01:22:07 | 00:00:00 | |
| DK7TD | 2026-09-02 17:54:27 | 49.19016 | 8.40363 | 108° | 35km/h | 18105m | 5.1m/s | -54.1°C | 0.2% | 79hPa | 2.7V | 03:53:58 | 01:22:08 | 00:00:00 | |
| DO3MHA-11 | 2026-09-02 17:54:26 | 49.19019 | 8.40350 | 108° | 38km/h | 18101m | 4.1m/s | -54.0°C | 4.0% | 79.0hPa | 2.6V | 00:00:00 | 01:22:07 | 00:00:00 | |
| DN1GJH-1 | 2026-09-02 17:54:25 | 49.19019 | 8.40350 | 109° | 38km/h | 18101m | 4.2m/s | -54.1°C | 1.0% | 79.1hPa | 2.6V | 03:53:00 | 00:00:00 | 00:00:00 | |
| DK5PH-5 | 2026-09-02 17:54:24 | 49.19026 | 8.40322 | 115° | 40km/h | 18092m | 4.8m/s | -54.0°C | 4.0% | 79.2hPa | 2.6V | 00:00:00 | 01:22:05 | 00:00:00 | |
| DL4BBY-15 | 2026-09-02 17:54:23 | 49.19030 | 8.40308 | 118° | 40km/h | 18088m | 3.9m/s | -53.0°C | 0% | 0hPa | 2.6V | 00:00:00 | 00:00:00 | 00:00:00 | |
| DM0DOS-11 | 2026-09-02 17:54:22 | 49.19054 | 8.40227 | 112° | 38km/h | 18061m | 4m/s | -54.1°C | 4.1% | 79.6hPa | 2.6V | 03:53:36 | 01:21:58 | 00:00:00 | |
| BIOWL1-15 | 2026-09-02 17:54:17 | 49.19060 | 8.40199 | 108° | 40km/h | 18053m | 5.3m/s | -54.1°C | 0.1% | 79.7hPa | 2.6V | 03:53:58 | 01:21:56 | 00:00:00 | |
| DK7TD | 2026-09-02 17:54:16 | 49.19057 | 8.40213 | 110° | 38km/h | 18057m | 3.5m/s | -54.1°C | 0.1% | 79.6hPa | 2.6V | 03:53:58 | 01:21:57 | 00:00:00 | |
| DO3MHA-11 | 2026-09-02 17:54:16 | 49.19057 | 8.40213 | 111° | 42km/h | 18058m | 3.5m/s | -54.0°C | 4.0% | 79.6hPa | 2.6V | 00:00:00 | 01:21:57 | 00:00:00 | |
| DB0UT-7 | 2026-09-02 17:54:15 | 49.19060 | 8.40199 | 108° | 42km/h | 18053m | 5.3m/s | -54.0°C | 3.9% | 79.6hPa | 2.6V | 00:00:00 | 00:00:00 | 00:00:00 | |
| DL8DAS-14 | 2026-09-02 17:54:14 | 49.19066 | 8.40167 | 107° | 44km/h | 18044m | 4.0m/s | -54.0°C | 1.0% | 79.8hPa | 2.6V | 00:00:00 | 00:00:00 | 00:00:00 | |
| DJ2DS-15 | 2026-09-02 17:54:13 | 49.19066 | 8.40167 | 108° | 42km/h | 18044m | 3.9m/s | -54.0°C | 3.9% | 79.7hPa | 2.6V | 00:00:00 | 01:21:54 | 00:00:00 | |
| DM0DOS-11 | 2026-09-02 17:54:12 | 49.19089 | 8.40072 | 105° | 40km/h | 18017m | 3.6m/s | -53.9°C | 3.9% | 80.1hPa | 2.6V | 03:53:46 | 01:21:48 | 00:00:00 | |
| DK7TD | 2026-09-02 17:54:06 | 49.19092 | 8.40057 | 106° | 38km/h | 18013m | 4.5m/s | -53.9°C | 0.1% | 80.2hPa | 2.6V | 03:53:58 | 01:21:47 | 00:00:00 | |
| BIOWL1-15 | 2026-09-02 17:54:06 | 49.19097 | 8.40029 | 105° | 37km/h | 18004m | 3.8m/s | -53.9°C | 0.1% | 80.3hPa | 2.7V | 03:53:58 | 01:21:45 | 00:00:00 | |
| DK7TD | 2026-09-02 17:53:55 | 49.19113 | 8.39887 | 97° | 40km/h | 17966m | 4.7m/s | -54.2°C | 0.2% | 80.8hPa | 2.6V | 03:53:58 | 01:21:36 | 00:00:00 | |
| BIOWL1-15 | 2026-09-02 17:53:53 | 49.19113 | 8.39855 | 90° | 42km/h | 17957m | 4.2m/s | -54.1°C | 0.2% | 80.9hPa | 2.7V | 03:54:49 | 01:21:34 | 00:00:00 | |
| DB0ND-19 | 2026-09-02 17:53:51 | 49.19115 | 8.39806 | 95° | 42km/h | 17944m | 4.1m/s | -54.1°C | 1.0% | 81.1hPa | 2.6V | 00:00:00 | 00:00:00 | 00:00:00 | |
| DD1CC8 | 2026-09-02 17:53:50 | 49.19115 | 8.39806 | 95° | 42km/h | 17944m | 4.1m/s | -54.1°C | 1.0% | 81.1hPa | 2.6V | 00:00:00 | 00:00:00 | 00:00:00 | |
| BIOWL1-15 | 2026-09-02 17:53:45 | 49.19117 | 8.39687 | 88° | 40km/h | 17913m | 4.5m/s | -53.9°C | 0.1% | 81.4hPa | 2.6V | 03:54:49 | 01:21:24 | 00:00:00 | |
| DK7TD | 2026-09-02 17:53:44 | 49.19117 | 8.39703 | 88° | 42km/h | 17918m | 4.8m/s | -54°C | 0.1% | 0hPa | 2.7V | 03:54:49 | 01:21:25 | 00:00:00 | |
| DL8DAS-14 | 2026-09-02 17:53:43 | 49.19116 | 8.39671 | 85° | 40km/h | 17909m | 4.4m/s | -53.9°C | 1.0% | 81.5hPa | 2.7V | 00:00:00 | 00:00:00 | 00:00:00 | |
| DM0DOS-11 | 2026-09-02 17:53:41 | 49.19112 | 8.39622 | 79° | 44km/h | 17895m | 3.7m/s | -53.9°C | 3.9% | 81.7hPa | 2.7V | 03:54:14 | 01:21:20 | 00:00:00 | |
| BIOWL1-15 | 2026-09-02 17:53:35 | 49.19102 | 8.39523 | 88° | 44km/h | 17869m | 3.9m/s | -53.9°C | 0.1% | 82hPa | 2.6V | 03:54:49 | 01:21:14 | 00:00:00 | |
| DK7TD | 2026-09-02 17:53:34 | 49.19103 | 8.39540 | 84° | 44km/h | 17873m | 3.5m/s | -53.8°C | 0.1% | 0hPa | 2.6V | 03:54:49 | 01:21:15 | 00:00:00 | |
| DJ2DS-15 | 2026-09-02 17:53:33 | 49.19102 | 8.39523 | 88° | 40km/h | 17870m | 3.9m/s | -53.8°C | 3.9% | 81.9hPa | 2.6V | 00:00:00 | 01:21:14 | 00:00:00 | |
| SFWM-10 | 2026-09-02 17:53:31 | 49.19102 | 8.39507 | 92° | 42km/h | 17865m | 4.9m/s | -53.9°C | 1.0% | 82.1hPa | 2.6V | 00:00:00 | 00:00:00 | 00:00:00 | |
| DM0DOS-11 | 2026-09-02 17:53:30 | 49.19101 | 8.39396 | 77° | 38km/h | 17835m | 4.4m/s | -54°C | 4.1% | 82.5hPa | 2.6V | 03:54:28 | 01:21:06 | 00:00:00 | |
| BIOWL1-15 | 2026-09-02 17:53:23 | 49.19095 | 8.39367 | 70° | 42km/h | 17827m | 4.4m/s | -54°C | 0.2% | 82.5hPa | 2.6V | 03:54:49 | 01:21:04 | 00:00:00 | |
| BIOWL1-15 | 2026-09-02 17:53:12 | 49.19069 | 8.39207 | 72° | 33km/h | 17779m | 3.6m/s | -53.9°C | 0.1% | 83.2hPa | 2.7V | 03:54:49 | 01:20:53 | 00:00:00 | |
| NBG1-10 | 2026-09-02 17:53:12 | 49.19069 | 8.39207 | 72° | 33km/h | 17780m | 3.6m/s | -53.8°C | 3.9% | 83.1hPa | 2.6V | 03:54:00 | 01:20:53 | 00:00:00 | |
| DF2AP-13 | 2026-09-02 17:53:10 | 49.19061 | 8.39182 | 64° | 33km/h | 17772m | 5.1m/s | -53.8°C | 3.9% | 83.2hPa | 2.6V | 03:54:00 | 01:20:51 | 00:00:00 | |
| DM0DOS-11 | 2026-09-02 17:53:08 | 49.19032 | 8.39093 | 72° | 33km/h | 17741m | 4.6m/s | -53.7°C | 4.1% | 83.7hPa | 2.7V | 03:54:50 | 01:20:44 | 00:00:00 | |
| DK7TD | 2026-09-02 17:53:02 | 49.19030 | 8.39081 | 73° | 31km/h | 17736m | 3.8m/s | -53.7°C | 0.2% | 0hPa | 2.6V | 03:55:40 | 01:20:43 | 00:00:00 | |
| DF7PN | 2026-09-02 17:53:01 | 49.19026 | 8.39059 | 74° | 27km/h | 17727m | 4.2m/s | -53.7°C | 1.0% | 83.8hPa | 2.7V | 00:00:00 | 00:00:00 | 00:00:00 | |
| BIOWL9-15 | 2026-09-02 17:52:56 | 49.19010 | 8.39002 | 57° | 33km/h | 17706m | 5.1m/s | -53.6°C | 1.0% | 84.1hPa | 2.7V | 00:00:00 | 00:00:00 | 00:00:00 | |
| DF3TZ-5 | 2026-09-02 17:52:53 | 49.18995 | 8.38972 | 54° | 31km/h | 17694m | 3.7m/s | -53.5°C | 1.0% | 84.3hPa | 2.7V | 00:00:00 | 00:00:00 | 00:00:00 | |
| DM7RM-13 | 2026-09-02 17:52:52 | 49.19000 | 8.38981 | 53° | 31km/h | 17698m | 3.6m/s | -53.5°C | 1.0% | 84.3hPa | 2.7V | 03:55:00 | 00:00:00 | 00:00:00 | |
| DM0DOS-11 | 2026-09-02 17:52:51 | 49.18981 | 8.38920 | 72° | 24km/h | 17671m | 4.4m/s | -53.3°C | 3.9% | 84.6hPa | 2.7V | 03:55:06 | 01:20:28 | 00:00:00 | |
| BIOWL1-15 | 2026-09-02 17:52:51 | 49.18991 | 8.38961 | 59° | 31km/h | 17689m | 5.4m/s | -53.5°C | 0.2% | 84.4hPa | 2.6V | 03:55:40 | 01:20:32 | 00:00:00 | |
| DD1CC8 | 2026-09-02 17:52:48 | 49.18983 | 8.38930 | 73° | 26km/h | 17676m | 5.0m/s | -53.3°C | 1.0% | 84.5hPa | 2.6V | 00:00:00 | 00:00:00 | 00:00:00 | |
| BIOWL1-15 | 2026-09-02 17:52:42 | 49.18963 | 8.38845 | 78° | 27km/h | 17635m | 6.3m/s | -53.1°C | 0.1% | 85hPa | 2.6V | 03:55:40 | 01:20:21 | 00:00:00 | |
| DM0DOS-11 | 2026-09-02 17:52:41 | 49.18959 | 8.38819 | 68° | 20km/h | 17619m | 5.6m/s | -52.9°C | 3.8% | 85.2hPa | 2.6V | 03:55:16 | 01:20:18 | 00:00:00 | |
| DL8DAS-14 | 2026-09-02 17:52:41 | 49.18963 | 8.38845 | 77° | 27km/h | 17635m | 6.3m/s | -53.1°C | 1.0% | 85.0hPa | 2.6V | 00:00:00 | 00:00:00 | 00:00:00 | |
| DF2AP-13 | 2026-09-02 17:52:40 | 49.18963 | 8.38845 | 78° | 24km/h | 17635m | 6.3m/s | -53.0°C | 3.8% | 85.0hPa | 2.6V | 00:00:00 | 01:20:21 | 00:00:00 | |
| NBG1-10 | 2026-09-02 17:52:39 | 49.18962 | 8.38835 | 79° | 24km/h | 17630m | 5.0m/s | -53.0°C | 3.9% | 85.0hPa | 2.6V | 00:00:00 | 01:20:20 | 00:00:00 | |
| DO3MHA-11 | 2026-09-02 17:52:36 | 49.18957 | 8.38812 | 65° | 26km/h | 17614m | 4.5m/s | -52.8°C | 3.8% | 85.3hPa | 2.6V | 00:00:00 | 01:20:17 | 00:00:00 | |
| DL0LBS | 2026-09-02 17:52:34 | 49.18954 | 8.38803 | 69° | 26km/h | 17610m | 4.5m/s | -52.8°C | 1.0% | 85.4hPa | 2.6V | 03:55:00 | 00:00:00 | 00:00:00 | |
| DJ2DS-15 | 2026-09-02 17:52:33 | 49.18951 | 8.38782 | 83° | 24km/h | 17600m | 5.9m/s | -52.7°C | 3.9% | 85.5hPa | 2.6V | 03:55:00 | 01:20:14 | 00:00:00 | |
| DL1ZP-14 | 2026-09-02 17:52:32 | 49.18950 | 8.38770 | 90° | 33km/h | 17595m | 3.9m/s | -52.7°C | 1.0% | 85.6hPa | 2.6V | 00:00:00 | 00:00:00 | 00:00:00 | |
| DM0DOS-11 | 2026-09-02 17:52:31 | 49.18954 | 8.38722 | 100° | 11km/h | 17570m | 5.7m/s | -52.6°C | 3.8% | 85.9hPa | 2.6V | 03:55:26 | 01:20:08 | 00:00:00 | |
| BIOWL1-15 | 2026-09-02 17:52:31 | 49.18952 | 8.38735 | 96° | 24km/h | 17581m | 5.3m/s | -52.6°C | 0.1% | 85.7hPa | 2.7V | 03:55:40 | 01:20:10 | 00:00:00 | |
| DK7TD | 2026-09-02 17:52:27 | 49.18954 | 8.38722 | 101° | 13km/h | 17570m | 5.7m/s | -52.6°C | 0.1% | 0hPa | 2.6V | 03:55:40 | 01:20:08 | 00:00:00 | |
| DO3MHA-11 | 2026-09-02 17:52:26 | 49.18954 | 8.38718 | 90° | 26km/h | 17565m | 3.6m/s | -52.5°C | 3.7% | 85.9hPa | 2.6V | 00:00:00 | 01:20:07 | 00:00:00 | |
| BIOWL9-15 | 2026-09-02 17:52:25 | 49.18953 | 8.38706 | 77° | 20km/h | 17555m | 5.2m/s | -52.5°C | 1.0% | 86.1hPa | 2.6V | 00:00:00 | 00:00:00 | 00:00:00 | |
| DK5PH-5 | 2026-09-02 17:52:24 | 49.18953 | 8.38706 | 78° | 27km/h | 17555m | 5.2m/s | -52.4°C | 3.7% | 86.0hPa | 2.6V | 00:00:00 | 01:20:05 | 00:00:00 | |
| DL4BBY-15 | 2026-09-02 17:52:23 | 49.18951 | 8.38697 | 73° | 27km/h | 17549m | 5.8m/s | -51.3°C | 0% | 0hPa | 2.6V | 00:00:00 | 00:00:00 | 00:00:00 | |
| DF3TZ-5 | 2026-09-02 17:52:22 | 49.18947 | 8.38674 | 75° | 35km/h | 17540m | 4.5m/s | -52.3°C | 1.0% | 86.3hPa | 2.6V | 00:00:00 | 00:00:00 | 00:00:00 | |
| DM0DOS-11 | 2026-09-02 17:52:21 | 49.18945 | 8.38629 | 107° | 22km/h | 17517m | 4.7m/s | -52.2°C | 3.7% | 86.6hPa | 2.6V | 03:55:36 | 01:19:58 | 00:00:00 | |
| BIOWL1-15 | 2026-09-02 17:52:18 | 49.18943 | 8.38638 | 94° | 26km/h | 17523m | 7.2m/s | -52.3°C | 0.1% | 86.5hPa | 2.6V | 03:55:40 | 01:19:59 | 00:00:00 | |
| DK7TD | 2026-09-02 17:52:16 | 49.18946 | 8.38621 | 111° | 20km/h | 17511m | 6.9m/s | 0°C | 0% | 0hPa | 2.7V | 03:55:40 | 01:19:57 | 00:00:00 | |
| DB0UT-7 | 2026-09-02 17:52:15 | 49.18948 | 8.38614 | 113° | 31km/h | 17504m | 6.5m/s | -52.1°C | 3.6% | 86.7hPa | 2.7V | 00:00:00 | 00:00:00 | 00:00:00 | |
| DJ2DS-15 | 2026-09-02 17:52:13 | 49.18951 | 8.38601 | 104° | 29km/h | 17491m | 5.5m/s | -52.0°C | 3.6% | 86.9hPa | 2.6V | 00:00:00 | 01:19:54 | 00:00:00 | |
| DM0DOS-11 | 2026-09-02 17:52:11 | 49.18964 | 8.38556 | 127° | 26km/h | 17458m | 3.9m/s | -51.9°C | 3.5% | 87.4hPa | 2.6V | 03:55:46 | 01:19:48 | 00:00:00 | |
| BIOWL1-15 | 2026-09-02 17:52:10 | 49.18960 | 8.38563 | 125° | 24km/h | 17463m | 5.8m/s | -51.9°C | 0% | 87.3hPa | 2.6V | 03:56:31 | 01:19:49 | 00:00:00 | |
| DK7TD | 2026-09-02 17:52:05 | 49.18971 | 8.38537 | 112° | 29km/h | 17449m | 6.5m/s | 0°C | 0% | 0hPa | 2.7V | 18:12:15 | 01:19:46 | 00:00:00 | |
| BIOWL1-15 | 2026-09-02 17:52:00 | 49.18979 | 8.38444 | 121° | 31km/h | 17413m | 3.9m/s | -52.3°C | 0% | 88hPa | 2.6V | 03:56:31 | 01:19:39 | 00:00:00 | |
| DF7PN | 2026-09-02 17:51:58 | 49.18979 | 8.38444 | 121° | 31km/h | 17413m | 3.9m/s | -52.3°C | 0.9% | 88.0hPa | 2.6V | 00:00:00 | 00:00:00 | 00:00:00 | |
| BIOWL9-15 | 2026-09-02 17:51:54 | 49.19000 | 8.38394 | 112° | 33km/h | 17381m | 5.3m/s | -53.0°C | 1.0% | 88.4hPa | 2.6V | 00:00:00 | 00:00:00 | 00:00:00 | |
| DJ2DS-15 | 2026-09-02 17:51:53 | 49.19000 | 8.38394 | 113° | 42km/h | 17382m | 5.2m/s | -52.9°C | 3.7% | 88.4hPa | 2.6V | 00:00:00 | 01:19:34 | 00:00:00 | |
| DL4BBY-15 | 2026-09-02 17:51:52 | 49.19003 | 8.38381 | 109° | 46km/h | 17377m | 3.4m/s | -52.0°C | 0% | 0hPa | 2.6V | 00:00:00 | 00:00:00 | 00:00:00 | |
| Es werden nur die letzten 3500 von 4906 Frames angezeigt. GPX/KML und Diagramme bleiben verfügbar. | |||||||||||||||